<?xml version="1.0" encoding="UTF-8" standalone="no" ?>
<gpx xmlns="http://www.topografix.com/GPX/1/1" xmlns:xsi="http://www.w3.org/2001/XMLSchema-instance" xsi:schemaLocation="http://www.topografix.com/GPX/1/1 http://www.topografix.com/GPX/1/1/gpx.xsd" version="1.1" creator="VisuGPX - https://www.visugpx.com">
  <metadata>
    <name>Cormet de Roseland par Beaufort, les Chapieux,Bourg st Maurice</name>
    <desc><![CDATA[Montée à l'ombre agréable 
Pause aux Chapieux devant l'Aiguille des Glaciers
Belle descente ]]></desc>
  </metadata>
  <trk>
    <name><![CDATA[Cormet de Roseland par Beaufort, les Chapieux,Bourg st Maurice]]></name>
    <trkseg>
      <trkpt lat="45.67315" lon="6.3846">
        <ele>339</ele>
        <time>2023-08-21T05:44:10Z</time>
      </trkpt>
      <trkpt lat="45.67315" lon="6.3846">
        <ele>343.4</ele>
        <time>2023-08-21T05:44:11Z</time>
      </trkpt>
      <trkpt lat="45.67315" lon="6.3846">
        <ele>343.4</ele>
        <time>2023-08-21T05:44:12Z</time>
      </trkpt>
      <trkpt lat="45.67316" lon="6.38464">
        <ele>343.4</ele>
        <time>2023-08-21T05:44:13Z</time>
      </trkpt>
      <trkpt lat="45.67318" lon="6.38468">
        <ele>343.4</ele>
        <time>2023-08-21T05:44:14Z</time>
      </trkpt>
      <trkpt lat="45.67321" lon="6.38472">
        <ele>343.4</ele>
        <time>2023-08-21T05:44:15Z</time>
      </trkpt>
      <trkpt lat="45.67323" lon="6.38476">
        <ele>343.6</ele>
        <time>2023-08-21T05:44:16Z</time>
      </trkpt>
      <trkpt lat="45.67325" lon="6.38481">
        <ele>343.6</ele>
        <time>2023-08-21T05:44:17Z</time>
      </trkpt>
      <trkpt lat="45.67327" lon="6.38484">
        <ele>343.6</ele>
        <time>2023-08-21T05:44:18Z</time>
      </trkpt>
      <trkpt lat="45.67329" lon="6.38488">
        <ele>343.6</ele>
        <time>2023-08-21T05:44:19Z</time>
      </trkpt>
      <trkpt lat="45.67331" lon="6.38492">
        <ele>343.6</ele>
        <time>2023-08-21T05:44:20Z</time>
      </trkpt>
      <trkpt lat="45.67333" lon="6.38496">
        <ele>343.6</ele>
        <time>2023-08-21T05:44:21Z</time>
      </trkpt>
      <trkpt lat="45.67335" lon="6.385">
        <ele>343.6</ele>
        <time>2023-08-21T05:44:22Z</time>
      </trkpt>
      <trkpt lat="45.67337" lon="6.38504">
        <ele>343.6</ele>
        <time>2023-08-21T05:44:23Z</time>
      </trkpt>
      <trkpt lat="45.67339" lon="6.38508">
        <ele>343.8</ele>
        <time>2023-08-21T05:44:24Z</time>
      </trkpt>
      <trkpt lat="45.67341" lon="6.38512">
        <ele>344</ele>
        <time>2023-08-21T05:44:25Z</time>
      </trkpt>
      <trkpt lat="45.67343" lon="6.38517">
        <ele>344</ele>
        <time>2023-08-21T05:44:26Z</time>
      </trkpt>
      <trkpt lat="45.67345" lon="6.38521">
        <ele>344</ele>
        <time>2023-08-21T05:44:27Z</time>
      </trkpt>
      <trkpt lat="45.67347" lon="6.38526">
        <ele>343.8</ele>
        <time>2023-08-21T05:44:28Z</time>
      </trkpt>
      <trkpt lat="45.67349" lon="6.38531">
        <ele>344</ele>
        <time>2023-08-21T05:44:29Z</time>
      </trkpt>
      <trkpt lat="45.67352" lon="6.38535">
        <ele>344</ele>
        <time>2023-08-21T05:44:30Z</time>
      </trkpt>
      <trkpt lat="45.67354" lon="6.38539">
        <ele>344</ele>
        <time>2023-08-21T05:44:31Z</time>
      </trkpt>
      <trkpt lat="45.67356" lon="6.38544">
        <ele>344</ele>
        <time>2023-08-21T05:44:32Z</time>
      </trkpt>
      <trkpt lat="45.67357" lon="6.3855">
        <ele>344</ele>
        <time>2023-08-21T05:44:33Z</time>
      </trkpt>
      <trkpt lat="45.67359" lon="6.38554">
        <ele>344.8</ele>
        <time>2023-08-21T05:44:34Z</time>
      </trkpt>
      <trkpt lat="45.67361" lon="6.38558">
        <ele>344.8</ele>
        <time>2023-08-21T05:44:35Z</time>
      </trkpt>
      <trkpt lat="45.67363" lon="6.38562">
        <ele>344.8</ele>
        <time>2023-08-21T05:44:36Z</time>
      </trkpt>
      <trkpt lat="45.67366" lon="6.38565">
        <ele>344.8</ele>
        <time>2023-08-21T05:44:37Z</time>
      </trkpt>
      <trkpt lat="45.67368" lon="6.38569">
        <ele>344</ele>
        <time>2023-08-21T05:44:38Z</time>
      </trkpt>
      <trkpt lat="45.6737" lon="6.38572">
        <ele>344</ele>
        <time>2023-08-21T05:44:39Z</time>
      </trkpt>
      <trkpt lat="45.67372" lon="6.38576">
        <ele>344</ele>
        <time>2023-08-21T05:44:40Z</time>
      </trkpt>
      <trkpt lat="45.67374" lon="6.3858">
        <ele>345</ele>
        <time>2023-08-21T05:44:41Z</time>
      </trkpt>
      <trkpt lat="45.67375" lon="6.38585">
        <ele>345</ele>
        <time>2023-08-21T05:44:42Z</time>
      </trkpt>
      <trkpt lat="45.67377" lon="6.38589">
        <ele>345.2</ele>
        <time>2023-08-21T05:44:43Z</time>
      </trkpt>
      <trkpt lat="45.67379" lon="6.38594">
        <ele>345.2</ele>
        <time>2023-08-21T05:44:44Z</time>
      </trkpt>
      <trkpt lat="45.67382" lon="6.38598">
        <ele>345.2</ele>
        <time>2023-08-21T05:44:45Z</time>
      </trkpt>
      <trkpt lat="45.67384" lon="6.38602">
        <ele>345.2</ele>
        <time>2023-08-21T05:44:46Z</time>
      </trkpt>
      <trkpt lat="45.67386" lon="6.38607">
        <ele>345</ele>
        <time>2023-08-21T05:44:47Z</time>
      </trkpt>
      <trkpt lat="45.67389" lon="6.38612">
        <ele>344.8</ele>
        <time>2023-08-21T05:44:48Z</time>
      </trkpt>
      <trkpt lat="45.67391" lon="6.38617">
        <ele>344.8</ele>
        <time>2023-08-21T05:44:49Z</time>
      </trkpt>
      <trkpt lat="45.67394" lon="6.38622">
        <ele>344.8</ele>
        <time>2023-08-21T05:44:50Z</time>
      </trkpt>
      <trkpt lat="45.67396" lon="6.38626">
        <ele>344.8</ele>
        <time>2023-08-21T05:44:51Z</time>
      </trkpt>
      <trkpt lat="45.67398" lon="6.38631">
        <ele>345</ele>
        <time>2023-08-21T05:44:52Z</time>
      </trkpt>
      <trkpt lat="45.67401" lon="6.38636">
        <ele>345</ele>
        <time>2023-08-21T05:44:53Z</time>
      </trkpt>
      <trkpt lat="45.67403" lon="6.3864">
        <ele>345</ele>
        <time>2023-08-21T05:44:54Z</time>
      </trkpt>
      <trkpt lat="45.67405" lon="6.38645">
        <ele>345</ele>
        <time>2023-08-21T05:44:55Z</time>
      </trkpt>
      <trkpt lat="45.67407" lon="6.38649">
        <ele>345</ele>
        <time>2023-08-21T05:44:56Z</time>
      </trkpt>
      <trkpt lat="45.67409" lon="6.38654">
        <ele>344.8</ele>
        <time>2023-08-21T05:44:57Z</time>
      </trkpt>
      <trkpt lat="45.67411" lon="6.38659">
        <ele>344.8</ele>
        <time>2023-08-21T05:44:58Z</time>
      </trkpt>
      <trkpt lat="45.67413" lon="6.38664">
        <ele>344.8</ele>
        <time>2023-08-21T05:44:59Z</time>
      </trkpt>
      <trkpt lat="45.67415" lon="6.38669">
        <ele>345</ele>
        <time>2023-08-21T05:45:00Z</time>
      </trkpt>
      <trkpt lat="45.67417" lon="6.38674">
        <ele>345.2</ele>
        <time>2023-08-21T05:45:01Z</time>
      </trkpt>
      <trkpt lat="45.67419" lon="6.38679">
        <ele>345.2</ele>
        <time>2023-08-21T05:45:02Z</time>
      </trkpt>
      <trkpt lat="45.67421" lon="6.38684">
        <ele>345.2</ele>
        <time>2023-08-21T05:45:03Z</time>
      </trkpt>
      <trkpt lat="45.67424" lon="6.38689">
        <ele>345.2</ele>
        <time>2023-08-21T05:45:04Z</time>
      </trkpt>
      <trkpt lat="45.67426" lon="6.38694">
        <ele>344.8</ele>
        <time>2023-08-21T05:45:05Z</time>
      </trkpt>
      <trkpt lat="45.67427" lon="6.38699">
        <ele>344.8</ele>
        <time>2023-08-21T05:45:06Z</time>
      </trkpt>
      <trkpt lat="45.67429" lon="6.38703">
        <ele>345</ele>
        <time>2023-08-21T05:45:07Z</time>
      </trkpt>
      <trkpt lat="45.67431" lon="6.38708">
        <ele>345</ele>
        <time>2023-08-21T05:45:08Z</time>
      </trkpt>
      <trkpt lat="45.67434" lon="6.38712">
        <ele>345.4</ele>
        <time>2023-08-21T05:45:09Z</time>
      </trkpt>
      <trkpt lat="45.67436" lon="6.38717">
        <ele>345.6</ele>
        <time>2023-08-21T05:45:10Z</time>
      </trkpt>
      <trkpt lat="45.67438" lon="6.38721">
        <ele>345.6</ele>
        <time>2023-08-21T05:45:11Z</time>
      </trkpt>
      <trkpt lat="45.6744" lon="6.38725">
        <ele>345.6</ele>
        <time>2023-08-21T05:45:12Z</time>
      </trkpt>
      <trkpt lat="45.67442" lon="6.38729">
        <ele>345.6</ele>
        <time>2023-08-21T05:45:13Z</time>
      </trkpt>
      <trkpt lat="45.67444" lon="6.38734">
        <ele>345.6</ele>
        <time>2023-08-21T05:45:14Z</time>
      </trkpt>
      <trkpt lat="45.67446" lon="6.38738">
        <ele>345.8</ele>
        <time>2023-08-21T05:45:15Z</time>
      </trkpt>
      <trkpt lat="45.67449" lon="6.38742">
        <ele>345.8</ele>
        <time>2023-08-21T05:45:16Z</time>
      </trkpt>
      <trkpt lat="45.67451" lon="6.38746">
        <ele>345.8</ele>
        <time>2023-08-21T05:45:17Z</time>
      </trkpt>
      <trkpt lat="45.67452" lon="6.38751">
        <ele>345.8</ele>
        <time>2023-08-21T05:45:18Z</time>
      </trkpt>
      <trkpt lat="45.67454" lon="6.38756">
        <ele>346</ele>
        <time>2023-08-21T05:45:19Z</time>
      </trkpt>
      <trkpt lat="45.67456" lon="6.38761">
        <ele>346</ele>
        <time>2023-08-21T05:45:20Z</time>
      </trkpt>
      <trkpt lat="45.67457" lon="6.38766">
        <ele>346</ele>
        <time>2023-08-21T05:45:21Z</time>
      </trkpt>
      <trkpt lat="45.67459" lon="6.38771">
        <ele>346</ele>
        <time>2023-08-21T05:45:22Z</time>
      </trkpt>
      <trkpt lat="45.67461" lon="6.38776">
        <ele>346</ele>
        <time>2023-08-21T05:45:23Z</time>
      </trkpt>
      <trkpt lat="45.67462" lon="6.38782">
        <ele>346</ele>
        <time>2023-08-21T05:45:24Z</time>
      </trkpt>
      <trkpt lat="45.67463" lon="6.38788">
        <ele>346</ele>
        <time>2023-08-21T05:45:25Z</time>
      </trkpt>
      <trkpt lat="45.67463" lon="6.38793">
        <ele>346</ele>
        <time>2023-08-21T05:45:26Z</time>
      </trkpt>
      <trkpt lat="45.67461" lon="6.38798">
        <ele>346</ele>
        <time>2023-08-21T05:45:27Z</time>
      </trkpt>
      <trkpt lat="45.67461" lon="6.38802">
        <ele>346</ele>
        <time>2023-08-21T05:45:28Z</time>
      </trkpt>
      <trkpt lat="45.6746" lon="6.38803">
        <ele>346</ele>
        <time>2023-08-21T05:45:29Z</time>
      </trkpt>
      <trkpt lat="45.6746" lon="6.38804">
        <ele>346</ele>
        <time>2023-08-21T05:45:30Z</time>
      </trkpt>
      <trkpt lat="45.67459" lon="6.38806">
        <ele>346</ele>
        <time>2023-08-21T05:45:31Z</time>
      </trkpt>
      <trkpt lat="45.67458" lon="6.38808">
        <ele>346</ele>
        <time>2023-08-21T05:45:32Z</time>
      </trkpt>
      <trkpt lat="45.67457" lon="6.3881">
        <ele>346</ele>
        <time>2023-08-21T05:45:33Z</time>
      </trkpt>
      <trkpt lat="45.67455" lon="6.38812">
        <ele>346</ele>
        <time>2023-08-21T05:45:34Z</time>
      </trkpt>
      <trkpt lat="45.67453" lon="6.38814">
        <ele>346</ele>
        <time>2023-08-21T05:45:35Z</time>
      </trkpt>
      <trkpt lat="45.67452" lon="6.38817">
        <ele>346</ele>
        <time>2023-08-21T05:45:36Z</time>
      </trkpt>
      <trkpt lat="45.6745" lon="6.38819">
        <ele>346</ele>
        <time>2023-08-21T05:45:37Z</time>
      </trkpt>
      <trkpt lat="45.67449" lon="6.38823">
        <ele>346</ele>
        <time>2023-08-21T05:45:38Z</time>
      </trkpt>
      <trkpt lat="45.67447" lon="6.38826">
        <ele>346</ele>
        <time>2023-08-21T05:45:39Z</time>
      </trkpt>
      <trkpt lat="45.67445" lon="6.3883">
        <ele>346</ele>
        <time>2023-08-21T05:45:40Z</time>
      </trkpt>
      <trkpt lat="45.67443" lon="6.38834">
        <ele>346</ele>
        <time>2023-08-21T05:45:41Z</time>
      </trkpt>
      <trkpt lat="45.67441" lon="6.38838">
        <ele>346.4</ele>
        <time>2023-08-21T05:45:42Z</time>
      </trkpt>
      <trkpt lat="45.67439" lon="6.38842">
        <ele>346.4</ele>
        <time>2023-08-21T05:45:43Z</time>
      </trkpt>
      <trkpt lat="45.67438" lon="6.38846">
        <ele>346.4</ele>
        <time>2023-08-21T05:45:44Z</time>
      </trkpt>
      <trkpt lat="45.67436" lon="6.38851">
        <ele>346.4</ele>
        <time>2023-08-21T05:45:45Z</time>
      </trkpt>
      <trkpt lat="45.67434" lon="6.38855">
        <ele>346.6</ele>
        <time>2023-08-21T05:45:46Z</time>
      </trkpt>
      <trkpt lat="45.67431" lon="6.3886">
        <ele>346.6</ele>
        <time>2023-08-21T05:45:47Z</time>
      </trkpt>
      <trkpt lat="45.67429" lon="6.38864">
        <ele>346.6</ele>
        <time>2023-08-21T05:45:48Z</time>
      </trkpt>
      <trkpt lat="45.67426" lon="6.38869">
        <ele>346.6</ele>
        <time>2023-08-21T05:45:49Z</time>
      </trkpt>
      <trkpt lat="45.67423" lon="6.38873">
        <ele>346.6</ele>
        <time>2023-08-21T05:45:50Z</time>
      </trkpt>
      <trkpt lat="45.67421" lon="6.38877">
        <ele>346.4</ele>
        <time>2023-08-21T05:45:51Z</time>
      </trkpt>
      <trkpt lat="45.67418" lon="6.38881">
        <ele>346.4</ele>
        <time>2023-08-21T05:45:52Z</time>
      </trkpt>
      <trkpt lat="45.67415" lon="6.38886">
        <ele>346.4</ele>
        <time>2023-08-21T05:45:53Z</time>
      </trkpt>
      <trkpt lat="45.67412" lon="6.3889">
        <ele>346.2</ele>
        <time>2023-08-21T05:45:54Z</time>
      </trkpt>
      <trkpt lat="45.67409" lon="6.38895">
        <ele>346.4</ele>
        <time>2023-08-21T05:45:55Z</time>
      </trkpt>
      <trkpt lat="45.67406" lon="6.38899">
        <ele>346.4</ele>
        <time>2023-08-21T05:45:56Z</time>
      </trkpt>
      <trkpt lat="45.67403" lon="6.38904">
        <ele>346.4</ele>
        <time>2023-08-21T05:45:57Z</time>
      </trkpt>
      <trkpt lat="45.67401" lon="6.38908">
        <ele>346.4</ele>
        <time>2023-08-21T05:45:58Z</time>
      </trkpt>
      <trkpt lat="45.67398" lon="6.38913">
        <ele>346.6</ele>
        <time>2023-08-21T05:45:59Z</time>
      </trkpt>
      <trkpt lat="45.67395" lon="6.38918">
        <ele>346.6</ele>
        <time>2023-08-21T05:46:00Z</time>
      </trkpt>
      <trkpt lat="45.67392" lon="6.38923">
        <ele>346.6</ele>
        <time>2023-08-21T05:46:01Z</time>
      </trkpt>
      <trkpt lat="45.67389" lon="6.38927">
        <ele>346.6</ele>
        <time>2023-08-21T05:46:02Z</time>
      </trkpt>
      <trkpt lat="45.67387" lon="6.38933">
        <ele>346.6</ele>
        <time>2023-08-21T05:46:03Z</time>
      </trkpt>
      <trkpt lat="45.67384" lon="6.38938">
        <ele>346.4</ele>
        <time>2023-08-21T05:46:04Z</time>
      </trkpt>
      <trkpt lat="45.67381" lon="6.38942">
        <ele>346.4</ele>
        <time>2023-08-21T05:46:05Z</time>
      </trkpt>
      <trkpt lat="45.67379" lon="6.38947">
        <ele>346.4</ele>
        <time>2023-08-21T05:46:06Z</time>
      </trkpt>
      <trkpt lat="45.67376" lon="6.38952">
        <ele>346.4</ele>
        <time>2023-08-21T05:46:07Z</time>
      </trkpt>
      <trkpt lat="45.67374" lon="6.38957">
        <ele>346.4</ele>
        <time>2023-08-21T05:46:08Z</time>
      </trkpt>
      <trkpt lat="45.67371" lon="6.38961">
        <ele>346.4</ele>
        <time>2023-08-21T05:46:09Z</time>
      </trkpt>
      <trkpt lat="45.67369" lon="6.38966">
        <ele>346.4</ele>
        <time>2023-08-21T05:46:10Z</time>
      </trkpt>
      <trkpt lat="45.67367" lon="6.3897">
        <ele>346.4</ele>
        <time>2023-08-21T05:46:11Z</time>
      </trkpt>
      <trkpt lat="45.67365" lon="6.38973">
        <ele>346.4</ele>
        <time>2023-08-21T05:46:12Z</time>
      </trkpt>
      <trkpt lat="45.67363" lon="6.38977">
        <ele>346.4</ele>
        <time>2023-08-21T05:46:13Z</time>
      </trkpt>
      <trkpt lat="45.67362" lon="6.38981">
        <ele>346.4</ele>
        <time>2023-08-21T05:46:14Z</time>
      </trkpt>
      <trkpt lat="45.67361" lon="6.38985">
        <ele>346.4</ele>
        <time>2023-08-21T05:46:15Z</time>
      </trkpt>
      <trkpt lat="45.67359" lon="6.3899">
        <ele>346.4</ele>
        <time>2023-08-21T05:46:16Z</time>
      </trkpt>
      <trkpt lat="45.67357" lon="6.38994">
        <ele>346.4</ele>
        <time>2023-08-21T05:46:17Z</time>
      </trkpt>
      <trkpt lat="45.67354" lon="6.38997">
        <ele>346.4</ele>
        <time>2023-08-21T05:46:18Z</time>
      </trkpt>
      <trkpt lat="45.67353" lon="6.39002">
        <ele>346.4</ele>
        <time>2023-08-21T05:46:19Z</time>
      </trkpt>
      <trkpt lat="45.67351" lon="6.39006">
        <ele>346.4</ele>
        <time>2023-08-21T05:46:20Z</time>
      </trkpt>
      <trkpt lat="45.67349" lon="6.39011">
        <ele>346.4</ele>
        <time>2023-08-21T05:46:21Z</time>
      </trkpt>
      <trkpt lat="45.67348" lon="6.39016">
        <ele>346.4</ele>
        <time>2023-08-21T05:46:22Z</time>
      </trkpt>
      <trkpt lat="45.67346" lon="6.39021">
        <ele>346.6</ele>
        <time>2023-08-21T05:46:23Z</time>
      </trkpt>
      <trkpt lat="45.67344" lon="6.39027">
        <ele>346.6</ele>
        <time>2023-08-21T05:46:24Z</time>
      </trkpt>
      <trkpt lat="45.67343" lon="6.39032">
        <ele>346.6</ele>
        <time>2023-08-21T05:46:25Z</time>
      </trkpt>
      <trkpt lat="45.67342" lon="6.39038">
        <ele>346.4</ele>
        <time>2023-08-21T05:46:26Z</time>
      </trkpt>
      <trkpt lat="45.6734" lon="6.39043">
        <ele>346.6</ele>
        <time>2023-08-21T05:46:27Z</time>
      </trkpt>
      <trkpt lat="45.67339" lon="6.3905">
        <ele>346.6</ele>
        <time>2023-08-21T05:46:28Z</time>
      </trkpt>
      <trkpt lat="45.67339" lon="6.39056">
        <ele>346.6</ele>
        <time>2023-08-21T05:46:29Z</time>
      </trkpt>
      <trkpt lat="45.67338" lon="6.39062">
        <ele>346.6</ele>
        <time>2023-08-21T05:46:30Z</time>
      </trkpt>
      <trkpt lat="45.67337" lon="6.39069">
        <ele>346.6</ele>
        <time>2023-08-21T05:46:31Z</time>
      </trkpt>
      <trkpt lat="45.67336" lon="6.39075">
        <ele>346.8</ele>
        <time>2023-08-21T05:46:32Z</time>
      </trkpt>
      <trkpt lat="45.67335" lon="6.39081">
        <ele>346.8</ele>
        <time>2023-08-21T05:46:33Z</time>
      </trkpt>
      <trkpt lat="45.67334" lon="6.39087">
        <ele>346.8</ele>
        <time>2023-08-21T05:46:34Z</time>
      </trkpt>
      <trkpt lat="45.67333" lon="6.39092">
        <ele>346.8</ele>
        <time>2023-08-21T05:46:35Z</time>
      </trkpt>
      <trkpt lat="45.67331" lon="6.39097">
        <ele>346.8</ele>
        <time>2023-08-21T05:46:36Z</time>
      </trkpt>
      <trkpt lat="45.6733" lon="6.39103">
        <ele>346.8</ele>
        <time>2023-08-21T05:46:37Z</time>
      </trkpt>
      <trkpt lat="45.67329" lon="6.39108">
        <ele>346.8</ele>
        <time>2023-08-21T05:46:38Z</time>
      </trkpt>
      <trkpt lat="45.67328" lon="6.39114">
        <ele>346.8</ele>
        <time>2023-08-21T05:46:39Z</time>
      </trkpt>
      <trkpt lat="45.67327" lon="6.3912">
        <ele>346.8</ele>
        <time>2023-08-21T05:46:40Z</time>
      </trkpt>
      <trkpt lat="45.67325" lon="6.39126">
        <ele>346.6</ele>
        <time>2023-08-21T05:46:41Z</time>
      </trkpt>
      <trkpt lat="45.67324" lon="6.39131">
        <ele>346.6</ele>
        <time>2023-08-21T05:46:42Z</time>
      </trkpt>
      <trkpt lat="45.67323" lon="6.39137">
        <ele>346.6</ele>
        <time>2023-08-21T05:46:43Z</time>
      </trkpt>
      <trkpt lat="45.67321" lon="6.39143">
        <ele>346.6</ele>
        <time>2023-08-21T05:46:44Z</time>
      </trkpt>
      <trkpt lat="45.6732" lon="6.39148">
        <ele>346.8</ele>
        <time>2023-08-21T05:46:45Z</time>
      </trkpt>
      <trkpt lat="45.67318" lon="6.39153">
        <ele>346.6</ele>
        <time>2023-08-21T05:46:46Z</time>
      </trkpt>
      <trkpt lat="45.67317" lon="6.39159">
        <ele>346.6</ele>
        <time>2023-08-21T05:46:47Z</time>
      </trkpt>
      <trkpt lat="45.67316" lon="6.39165">
        <ele>346.6</ele>
        <time>2023-08-21T05:46:48Z</time>
      </trkpt>
      <trkpt lat="45.67315" lon="6.39171">
        <ele>346.6</ele>
        <time>2023-08-21T05:46:49Z</time>
      </trkpt>
      <trkpt lat="45.67313" lon="6.39177">
        <ele>346.6</ele>
        <time>2023-08-21T05:46:50Z</time>
      </trkpt>
      <trkpt lat="45.67312" lon="6.39182">
        <ele>346.6</ele>
        <time>2023-08-21T05:46:51Z</time>
      </trkpt>
      <trkpt lat="45.67311" lon="6.39188">
        <ele>346.6</ele>
        <time>2023-08-21T05:46:52Z</time>
      </trkpt>
      <trkpt lat="45.6731" lon="6.39192">
        <ele>346.6</ele>
        <time>2023-08-21T05:46:53Z</time>
      </trkpt>
      <trkpt lat="45.67309" lon="6.39197">
        <ele>346.6</ele>
        <time>2023-08-21T05:46:54Z</time>
      </trkpt>
      <trkpt lat="45.67308" lon="6.39201">
        <ele>346.8</ele>
        <time>2023-08-21T05:46:55Z</time>
      </trkpt>
      <trkpt lat="45.67308" lon="6.39205">
        <ele>346.8</ele>
        <time>2023-08-21T05:46:56Z</time>
      </trkpt>
      <trkpt lat="45.6731" lon="6.39208">
        <ele>346.8</ele>
        <time>2023-08-21T05:46:57Z</time>
      </trkpt>
      <trkpt lat="45.67313" lon="6.39209">
        <ele>346.8</ele>
        <time>2023-08-21T05:46:58Z</time>
      </trkpt>
      <trkpt lat="45.67315" lon="6.39211">
        <ele>346.8</ele>
        <time>2023-08-21T05:46:59Z</time>
      </trkpt>
      <trkpt lat="45.67318" lon="6.39213">
        <ele>346.8</ele>
        <time>2023-08-21T05:47:00Z</time>
      </trkpt>
      <trkpt lat="45.67319" lon="6.39215">
        <ele>346.8</ele>
        <time>2023-08-21T05:47:01Z</time>
      </trkpt>
      <trkpt lat="45.67319" lon="6.39218">
        <ele>346.8</ele>
        <time>2023-08-21T05:47:02Z</time>
      </trkpt>
      <trkpt lat="45.67319" lon="6.39221">
        <ele>346.8</ele>
        <time>2023-08-21T05:47:03Z</time>
      </trkpt>
      <trkpt lat="45.67318" lon="6.39224">
        <ele>347</ele>
        <time>2023-08-21T05:47:04Z</time>
      </trkpt>
      <trkpt lat="45.67316" lon="6.39227">
        <ele>347</ele>
        <time>2023-08-21T05:47:05Z</time>
      </trkpt>
      <trkpt lat="45.67315" lon="6.3923">
        <ele>347</ele>
        <time>2023-08-21T05:47:06Z</time>
      </trkpt>
      <trkpt lat="45.67315" lon="6.39234">
        <ele>347</ele>
        <time>2023-08-21T05:47:07Z</time>
      </trkpt>
      <trkpt lat="45.67318" lon="6.39237">
        <ele>347.2</ele>
        <time>2023-08-21T05:47:08Z</time>
      </trkpt>
      <trkpt lat="45.67321" lon="6.39238">
        <ele>347.2</ele>
        <time>2023-08-21T05:47:09Z</time>
      </trkpt>
      <trkpt lat="45.67324" lon="6.39239">
        <ele>347.2</ele>
        <time>2023-08-21T05:47:10Z</time>
      </trkpt>
      <trkpt lat="45.67327" lon="6.3924">
        <ele>347.2</ele>
        <time>2023-08-21T05:47:11Z</time>
      </trkpt>
      <trkpt lat="45.67331" lon="6.39241">
        <ele>347.2</ele>
        <time>2023-08-21T05:47:12Z</time>
      </trkpt>
      <trkpt lat="45.67334" lon="6.39242">
        <ele>347.2</ele>
        <time>2023-08-21T05:47:13Z</time>
      </trkpt>
      <trkpt lat="45.67338" lon="6.39243">
        <ele>347.2</ele>
        <time>2023-08-21T05:47:14Z</time>
      </trkpt>
      <trkpt lat="45.67342" lon="6.39244">
        <ele>347.2</ele>
        <time>2023-08-21T05:47:15Z</time>
      </trkpt>
      <trkpt lat="45.67346" lon="6.39245">
        <ele>347.2</ele>
        <time>2023-08-21T05:47:16Z</time>
      </trkpt>
      <trkpt lat="45.6735" lon="6.39246">
        <ele>347.4</ele>
        <time>2023-08-21T05:47:17Z</time>
      </trkpt>
      <trkpt lat="45.67354" lon="6.39247">
        <ele>347.4</ele>
        <time>2023-08-21T05:47:18Z</time>
      </trkpt>
      <trkpt lat="45.67357" lon="6.39249">
        <ele>347.4</ele>
        <time>2023-08-21T05:47:19Z</time>
      </trkpt>
      <trkpt lat="45.67361" lon="6.3925">
        <ele>347.4</ele>
        <time>2023-08-21T05:47:20Z</time>
      </trkpt>
      <trkpt lat="45.67366" lon="6.39251">
        <ele>347.6</ele>
        <time>2023-08-21T05:47:21Z</time>
      </trkpt>
      <trkpt lat="45.67369" lon="6.39252">
        <ele>347.6</ele>
        <time>2023-08-21T05:47:22Z</time>
      </trkpt>
      <trkpt lat="45.67373" lon="6.39254">
        <ele>347.6</ele>
        <time>2023-08-21T05:47:23Z</time>
      </trkpt>
      <trkpt lat="45.67377" lon="6.39256">
        <ele>347.6</ele>
        <time>2023-08-21T05:47:24Z</time>
      </trkpt>
      <trkpt lat="45.6738" lon="6.39257">
        <ele>347.8</ele>
        <time>2023-08-21T05:47:25Z</time>
      </trkpt>
      <trkpt lat="45.67384" lon="6.39258">
        <ele>347.8</ele>
        <time>2023-08-21T05:47:26Z</time>
      </trkpt>
      <trkpt lat="45.67389" lon="6.3926">
        <ele>348</ele>
        <time>2023-08-21T05:47:27Z</time>
      </trkpt>
      <trkpt lat="45.67393" lon="6.39261">
        <ele>348</ele>
        <time>2023-08-21T05:47:28Z</time>
      </trkpt>
      <trkpt lat="45.67397" lon="6.39263">
        <ele>348</ele>
        <time>2023-08-21T05:47:29Z</time>
      </trkpt>
      <trkpt lat="45.67401" lon="6.39264">
        <ele>348</ele>
        <time>2023-08-21T05:47:30Z</time>
      </trkpt>
      <trkpt lat="45.67405" lon="6.39265">
        <ele>348.2</ele>
        <time>2023-08-21T05:47:31Z</time>
      </trkpt>
      <trkpt lat="45.67409" lon="6.39267">
        <ele>348.2</ele>
        <time>2023-08-21T05:47:32Z</time>
      </trkpt>
      <trkpt lat="45.67413" lon="6.39268">
        <ele>348.2</ele>
        <time>2023-08-21T05:47:33Z</time>
      </trkpt>
      <trkpt lat="45.67417" lon="6.39269">
        <ele>348.6</ele>
        <time>2023-08-21T05:47:34Z</time>
      </trkpt>
      <trkpt lat="45.67421" lon="6.39271">
        <ele>349</ele>
        <time>2023-08-21T05:47:35Z</time>
      </trkpt>
      <trkpt lat="45.67425" lon="6.39271">
        <ele>349</ele>
        <time>2023-08-21T05:47:36Z</time>
      </trkpt>
      <trkpt lat="45.67429" lon="6.39273">
        <ele>349</ele>
        <time>2023-08-21T05:47:37Z</time>
      </trkpt>
      <trkpt lat="45.67433" lon="6.39274">
        <ele>349</ele>
        <time>2023-08-21T05:47:38Z</time>
      </trkpt>
      <trkpt lat="45.67437" lon="6.39276">
        <ele>348.8</ele>
        <time>2023-08-21T05:47:39Z</time>
      </trkpt>
      <trkpt lat="45.67441" lon="6.39277">
        <ele>348.6</ele>
        <time>2023-08-21T05:47:40Z</time>
      </trkpt>
      <trkpt lat="45.67445" lon="6.39279">
        <ele>348.6</ele>
        <time>2023-08-21T05:47:41Z</time>
      </trkpt>
      <trkpt lat="45.67449" lon="6.3928">
        <ele>348.6</ele>
        <time>2023-08-21T05:47:42Z</time>
      </trkpt>
      <trkpt lat="45.67453" lon="6.39281">
        <ele>348.6</ele>
        <time>2023-08-21T05:47:43Z</time>
      </trkpt>
      <trkpt lat="45.67457" lon="6.39283">
        <ele>348.6</ele>
        <time>2023-08-21T05:47:44Z</time>
      </trkpt>
      <trkpt lat="45.6746" lon="6.39285">
        <ele>348.6</ele>
        <time>2023-08-21T05:47:45Z</time>
      </trkpt>
      <trkpt lat="45.67464" lon="6.39286">
        <ele>348.6</ele>
        <time>2023-08-21T05:47:46Z</time>
      </trkpt>
      <trkpt lat="45.67468" lon="6.39287">
        <ele>348.6</ele>
        <time>2023-08-21T05:47:47Z</time>
      </trkpt>
      <trkpt lat="45.67472" lon="6.39288">
        <ele>348.6</ele>
        <time>2023-08-21T05:47:48Z</time>
      </trkpt>
      <trkpt lat="45.67476" lon="6.39289">
        <ele>348.6</ele>
        <time>2023-08-21T05:47:49Z</time>
      </trkpt>
      <trkpt lat="45.6748" lon="6.3929">
        <ele>348.6</ele>
        <time>2023-08-21T05:47:50Z</time>
      </trkpt>
      <trkpt lat="45.67484" lon="6.39292">
        <ele>348.6</ele>
        <time>2023-08-21T05:47:51Z</time>
      </trkpt>
      <trkpt lat="45.67487" lon="6.39292">
        <ele>348.8</ele>
        <time>2023-08-21T05:47:52Z</time>
      </trkpt>
      <trkpt lat="45.67492" lon="6.39292">
        <ele>348.8</ele>
        <time>2023-08-21T05:47:53Z</time>
      </trkpt>
      <trkpt lat="45.67495" lon="6.39294">
        <ele>348.8</ele>
        <time>2023-08-21T05:47:54Z</time>
      </trkpt>
      <trkpt lat="45.67499" lon="6.39296">
        <ele>348.8</ele>
        <time>2023-08-21T05:47:55Z</time>
      </trkpt>
      <trkpt lat="45.67503" lon="6.39297">
        <ele>348.8</ele>
        <time>2023-08-21T05:47:56Z</time>
      </trkpt>
      <trkpt lat="45.67507" lon="6.39299">
        <ele>348.8</ele>
        <time>2023-08-21T05:47:57Z</time>
      </trkpt>
      <trkpt lat="45.67511" lon="6.393">
        <ele>349.2</ele>
        <time>2023-08-21T05:47:58Z</time>
      </trkpt>
      <trkpt lat="45.67515" lon="6.39301">
        <ele>349.2</ele>
        <time>2023-08-21T05:47:59Z</time>
      </trkpt>
      <trkpt lat="45.67519" lon="6.39302">
        <ele>349.2</ele>
        <time>2023-08-21T05:48:00Z</time>
      </trkpt>
      <trkpt lat="45.67523" lon="6.39302">
        <ele>349.2</ele>
        <time>2023-08-21T05:48:01Z</time>
      </trkpt>
      <trkpt lat="45.67527" lon="6.39303">
        <ele>349.2</ele>
        <time>2023-08-21T05:48:02Z</time>
      </trkpt>
      <trkpt lat="45.67531" lon="6.39303">
        <ele>349.2</ele>
        <time>2023-08-21T05:48:03Z</time>
      </trkpt>
      <trkpt lat="45.67535" lon="6.39302">
        <ele>349.2</ele>
        <time>2023-08-21T05:48:04Z</time>
      </trkpt>
      <trkpt lat="45.67539" lon="6.39302">
        <ele>349.6</ele>
        <time>2023-08-21T05:48:05Z</time>
      </trkpt>
      <trkpt lat="45.67543" lon="6.39302">
        <ele>349.6</ele>
        <time>2023-08-21T05:48:06Z</time>
      </trkpt>
      <trkpt lat="45.67547" lon="6.39302">
        <ele>349.6</ele>
        <time>2023-08-21T05:48:07Z</time>
      </trkpt>
      <trkpt lat="45.6755" lon="6.39304">
        <ele>349.6</ele>
        <time>2023-08-21T05:48:08Z</time>
      </trkpt>
      <trkpt lat="45.67554" lon="6.39305">
        <ele>349.6</ele>
        <time>2023-08-21T05:48:09Z</time>
      </trkpt>
      <trkpt lat="45.67558" lon="6.39307">
        <ele>349.6</ele>
        <time>2023-08-21T05:48:10Z</time>
      </trkpt>
      <trkpt lat="45.67562" lon="6.39309">
        <ele>350</ele>
        <time>2023-08-21T05:48:11Z</time>
      </trkpt>
      <trkpt lat="45.67565" lon="6.3931">
        <ele>350</ele>
        <time>2023-08-21T05:48:12Z</time>
      </trkpt>
      <trkpt lat="45.67568" lon="6.39311">
        <ele>350</ele>
        <time>2023-08-21T05:48:13Z</time>
      </trkpt>
      <trkpt lat="45.67572" lon="6.39313">
        <ele>350</ele>
        <time>2023-08-21T05:48:14Z</time>
      </trkpt>
      <trkpt lat="45.67576" lon="6.39314">
        <ele>350</ele>
        <time>2023-08-21T05:48:15Z</time>
      </trkpt>
      <trkpt lat="45.67579" lon="6.39315">
        <ele>349.8</ele>
        <time>2023-08-21T05:48:16Z</time>
      </trkpt>
      <trkpt lat="45.67583" lon="6.39317">
        <ele>349.8</ele>
        <time>2023-08-21T05:48:17Z</time>
      </trkpt>
      <trkpt lat="45.67587" lon="6.39318">
        <ele>349.8</ele>
        <time>2023-08-21T05:48:18Z</time>
      </trkpt>
      <trkpt lat="45.67591" lon="6.39319">
        <ele>349.8</ele>
        <time>2023-08-21T05:48:19Z</time>
      </trkpt>
      <trkpt lat="45.67595" lon="6.39321">
        <ele>350</ele>
        <time>2023-08-21T05:48:20Z</time>
      </trkpt>
      <trkpt lat="45.67598" lon="6.39322">
        <ele>350</ele>
        <time>2023-08-21T05:48:21Z</time>
      </trkpt>
      <trkpt lat="45.67602" lon="6.39323">
        <ele>350</ele>
        <time>2023-08-21T05:48:22Z</time>
      </trkpt>
      <trkpt lat="45.67606" lon="6.39324">
        <ele>350</ele>
        <time>2023-08-21T05:48:23Z</time>
      </trkpt>
      <trkpt lat="45.67609" lon="6.39326">
        <ele>350</ele>
        <time>2023-08-21T05:48:24Z</time>
      </trkpt>
      <trkpt lat="45.67612" lon="6.39327">
        <ele>350.2</ele>
        <time>2023-08-21T05:48:25Z</time>
      </trkpt>
      <trkpt lat="45.67616" lon="6.39328">
        <ele>350.2</ele>
        <time>2023-08-21T05:48:26Z</time>
      </trkpt>
      <trkpt lat="45.67619" lon="6.3933">
        <ele>350.2</ele>
        <time>2023-08-21T05:48:27Z</time>
      </trkpt>
      <trkpt lat="45.67622" lon="6.39332">
        <ele>350.2</ele>
        <time>2023-08-21T05:48:28Z</time>
      </trkpt>
      <trkpt lat="45.67625" lon="6.39334">
        <ele>350.6</ele>
        <time>2023-08-21T05:48:29Z</time>
      </trkpt>
      <trkpt lat="45.67628" lon="6.39337">
        <ele>350.6</ele>
        <time>2023-08-21T05:48:30Z</time>
      </trkpt>
      <trkpt lat="45.6763" lon="6.3934">
        <ele>350.6</ele>
        <time>2023-08-21T05:48:31Z</time>
      </trkpt>
      <trkpt lat="45.67632" lon="6.39343">
        <ele>351.2</ele>
        <time>2023-08-21T05:48:32Z</time>
      </trkpt>
      <trkpt lat="45.67634" lon="6.39345">
        <ele>351.2</ele>
        <time>2023-08-21T05:48:33Z</time>
      </trkpt>
      <trkpt lat="45.67636" lon="6.39349">
        <ele>351.2</ele>
        <time>2023-08-21T05:48:34Z</time>
      </trkpt>
      <trkpt lat="45.67637" lon="6.39352">
        <ele>351.2</ele>
        <time>2023-08-21T05:48:35Z</time>
      </trkpt>
      <trkpt lat="45.67638" lon="6.39356">
        <ele>351.2</ele>
        <time>2023-08-21T05:48:36Z</time>
      </trkpt>
      <trkpt lat="45.67639" lon="6.3936">
        <ele>351.2</ele>
        <time>2023-08-21T05:48:37Z</time>
      </trkpt>
      <trkpt lat="45.67639" lon="6.39364">
        <ele>352</ele>
        <time>2023-08-21T05:48:38Z</time>
      </trkpt>
      <trkpt lat="45.67639" lon="6.39368">
        <ele>352</ele>
        <time>2023-08-21T05:48:39Z</time>
      </trkpt>
      <trkpt lat="45.67638" lon="6.39374">
        <ele>352</ele>
        <time>2023-08-21T05:48:40Z</time>
      </trkpt>
      <trkpt lat="45.67638" lon="6.39376">
        <ele>352</ele>
        <time>2023-08-21T05:48:41Z</time>
      </trkpt>
      <trkpt lat="45.67638" lon="6.3938">
        <ele>352</ele>
        <time>2023-08-21T05:48:42Z</time>
      </trkpt>
      <trkpt lat="45.67637" lon="6.39384">
        <ele>352.6</ele>
        <time>2023-08-21T05:48:43Z</time>
      </trkpt>
      <trkpt lat="45.67636" lon="6.39388">
        <ele>352.8</ele>
        <time>2023-08-21T05:48:44Z</time>
      </trkpt>
      <trkpt lat="45.67635" lon="6.39392">
        <ele>352.8</ele>
        <time>2023-08-21T05:48:45Z</time>
      </trkpt>
      <trkpt lat="45.67634" lon="6.39397">
        <ele>352.8</ele>
        <time>2023-08-21T05:48:46Z</time>
      </trkpt>
      <trkpt lat="45.67633" lon="6.39401">
        <ele>353.2</ele>
        <time>2023-08-21T05:48:47Z</time>
      </trkpt>
      <trkpt lat="45.67632" lon="6.39406">
        <ele>353.2</ele>
        <time>2023-08-21T05:48:48Z</time>
      </trkpt>
      <trkpt lat="45.67631" lon="6.39411">
        <ele>353.2</ele>
        <time>2023-08-21T05:48:49Z</time>
      </trkpt>
      <trkpt lat="45.6763" lon="6.39416">
        <ele>353.2</ele>
        <time>2023-08-21T05:48:50Z</time>
      </trkpt>
      <trkpt lat="45.67629" lon="6.39421">
        <ele>353.2</ele>
        <time>2023-08-21T05:48:51Z</time>
      </trkpt>
      <trkpt lat="45.67628" lon="6.39426">
        <ele>353.2</ele>
        <time>2023-08-21T05:48:52Z</time>
      </trkpt>
      <trkpt lat="45.67627" lon="6.39431">
        <ele>353.4</ele>
        <time>2023-08-21T05:48:53Z</time>
      </trkpt>
      <trkpt lat="45.67627" lon="6.39437">
        <ele>353.4</ele>
        <time>2023-08-21T05:48:54Z</time>
      </trkpt>
      <trkpt lat="45.67626" lon="6.39442">
        <ele>353.4</ele>
        <time>2023-08-21T05:48:55Z</time>
      </trkpt>
      <trkpt lat="45.67625" lon="6.39448">
        <ele>353.6</ele>
        <time>2023-08-21T05:48:56Z</time>
      </trkpt>
      <trkpt lat="45.67624" lon="6.39453">
        <ele>353.6</ele>
        <time>2023-08-21T05:48:57Z</time>
      </trkpt>
      <trkpt lat="45.67623" lon="6.39459">
        <ele>353.4</ele>
        <time>2023-08-21T05:48:58Z</time>
      </trkpt>
      <trkpt lat="45.67622" lon="6.39465">
        <ele>353.4</ele>
        <time>2023-08-21T05:48:59Z</time>
      </trkpt>
      <trkpt lat="45.67621" lon="6.39471">
        <ele>353.4</ele>
        <time>2023-08-21T05:49:00Z</time>
      </trkpt>
      <trkpt lat="45.67619" lon="6.39478">
        <ele>353.4</ele>
        <time>2023-08-21T05:49:01Z</time>
      </trkpt>
      <trkpt lat="45.67618" lon="6.39484">
        <ele>353</ele>
        <time>2023-08-21T05:49:02Z</time>
      </trkpt>
      <trkpt lat="45.67616" lon="6.3949">
        <ele>353</ele>
        <time>2023-08-21T05:49:03Z</time>
      </trkpt>
      <trkpt lat="45.67614" lon="6.39497">
        <ele>353</ele>
        <time>2023-08-21T05:49:04Z</time>
      </trkpt>
      <trkpt lat="45.67612" lon="6.39503">
        <ele>352.4</ele>
        <time>2023-08-21T05:49:05Z</time>
      </trkpt>
      <trkpt lat="45.67609" lon="6.3951">
        <ele>352.4</ele>
        <time>2023-08-21T05:49:06Z</time>
      </trkpt>
      <trkpt lat="45.67606" lon="6.39516">
        <ele>352.6</ele>
        <time>2023-08-21T05:49:07Z</time>
      </trkpt>
      <trkpt lat="45.67603" lon="6.39522">
        <ele>352.6</ele>
        <time>2023-08-21T05:49:08Z</time>
      </trkpt>
      <trkpt lat="45.676" lon="6.39526">
        <ele>352.6</ele>
        <time>2023-08-21T05:49:09Z</time>
      </trkpt>
      <trkpt lat="45.67598" lon="6.39529">
        <ele>351.6</ele>
        <time>2023-08-21T05:49:10Z</time>
      </trkpt>
      <trkpt lat="45.67597" lon="6.39531">
        <ele>351.4</ele>
        <time>2023-08-21T05:49:11Z</time>
      </trkpt>
      <trkpt lat="45.67596" lon="6.39532">
        <ele>351.4</ele>
        <time>2023-08-21T05:49:12Z</time>
      </trkpt>
      <trkpt lat="45.67596" lon="6.39532">
        <ele>351.4</ele>
        <time>2023-08-21T05:49:13Z</time>
      </trkpt>
      <trkpt lat="45.67595" lon="6.39534">
        <ele>351</ele>
        <time>2023-08-21T05:49:14Z</time>
      </trkpt>
      <trkpt lat="45.67593" lon="6.39536">
        <ele>351</ele>
        <time>2023-08-21T05:49:15Z</time>
      </trkpt>
      <trkpt lat="45.67592" lon="6.39539">
        <ele>351</ele>
        <time>2023-08-21T05:49:16Z</time>
      </trkpt>
      <trkpt lat="45.67593" lon="6.39543">
        <ele>351</ele>
        <time>2023-08-21T05:49:17Z</time>
      </trkpt>
      <trkpt lat="45.67595" lon="6.39544">
        <ele>351</ele>
        <time>2023-08-21T05:49:18Z</time>
      </trkpt>
      <trkpt lat="45.67598" lon="6.39546">
        <ele>351</ele>
        <time>2023-08-21T05:49:19Z</time>
      </trkpt>
      <trkpt lat="45.67602" lon="6.39547">
        <ele>351</ele>
        <time>2023-08-21T05:49:20Z</time>
      </trkpt>
      <trkpt lat="45.67605" lon="6.39548">
        <ele>351</ele>
        <time>2023-08-21T05:49:21Z</time>
      </trkpt>
      <trkpt lat="45.67608" lon="6.3955">
        <ele>351</ele>
        <time>2023-08-21T05:49:22Z</time>
      </trkpt>
      <trkpt lat="45.67612" lon="6.3955">
        <ele>351</ele>
        <time>2023-08-21T05:49:23Z</time>
      </trkpt>
      <trkpt lat="45.67615" lon="6.3955">
        <ele>351</ele>
        <time>2023-08-21T05:49:24Z</time>
      </trkpt>
      <trkpt lat="45.67619" lon="6.39551">
        <ele>351.6</ele>
        <time>2023-08-21T05:49:25Z</time>
      </trkpt>
      <trkpt lat="45.67622" lon="6.39551">
        <ele>351.6</ele>
        <time>2023-08-21T05:49:26Z</time>
      </trkpt>
      <trkpt lat="45.67626" lon="6.39551">
        <ele>351.6</ele>
        <time>2023-08-21T05:49:27Z</time>
      </trkpt>
      <trkpt lat="45.67629" lon="6.39552">
        <ele>352</ele>
        <time>2023-08-21T05:49:28Z</time>
      </trkpt>
      <trkpt lat="45.67632" lon="6.39552">
        <ele>352.2</ele>
        <time>2023-08-21T05:49:29Z</time>
      </trkpt>
      <trkpt lat="45.67636" lon="6.39553">
        <ele>352.2</ele>
        <time>2023-08-21T05:49:30Z</time>
      </trkpt>
      <trkpt lat="45.6764" lon="6.39554">
        <ele>352.2</ele>
        <time>2023-08-21T05:49:31Z</time>
      </trkpt>
      <trkpt lat="45.67643" lon="6.39555">
        <ele>352.2</ele>
        <time>2023-08-21T05:49:32Z</time>
      </trkpt>
      <trkpt lat="45.67646" lon="6.39556">
        <ele>352.8</ele>
        <time>2023-08-21T05:49:33Z</time>
      </trkpt>
      <trkpt lat="45.67649" lon="6.39558">
        <ele>352.8</ele>
        <time>2023-08-21T05:49:34Z</time>
      </trkpt>
      <trkpt lat="45.67652" lon="6.3956">
        <ele>352.8</ele>
        <time>2023-08-21T05:49:35Z</time>
      </trkpt>
      <trkpt lat="45.67655" lon="6.39562">
        <ele>352.8</ele>
        <time>2023-08-21T05:49:36Z</time>
      </trkpt>
      <trkpt lat="45.67658" lon="6.39564">
        <ele>352.8</ele>
        <time>2023-08-21T05:49:37Z</time>
      </trkpt>
      <trkpt lat="45.67661" lon="6.39565">
        <ele>354</ele>
        <time>2023-08-21T05:49:38Z</time>
      </trkpt>
      <trkpt lat="45.67665" lon="6.39567">
        <ele>354</ele>
        <time>2023-08-21T05:49:39Z</time>
      </trkpt>
      <trkpt lat="45.67668" lon="6.39568">
        <ele>354</ele>
        <time>2023-08-21T05:49:40Z</time>
      </trkpt>
      <trkpt lat="45.6767" lon="6.39569">
        <ele>354</ele>
        <time>2023-08-21T05:49:41Z</time>
      </trkpt>
      <trkpt lat="45.67673" lon="6.3957">
        <ele>354.6</ele>
        <time>2023-08-21T05:49:42Z</time>
      </trkpt>
      <trkpt lat="45.67676" lon="6.39571">
        <ele>354.8</ele>
        <time>2023-08-21T05:49:43Z</time>
      </trkpt>
      <trkpt lat="45.67679" lon="6.39571">
        <ele>354.8</ele>
        <time>2023-08-21T05:49:44Z</time>
      </trkpt>
      <trkpt lat="45.67682" lon="6.39571">
        <ele>354.8</ele>
        <time>2023-08-21T05:49:45Z</time>
      </trkpt>
      <trkpt lat="45.67684" lon="6.39573">
        <ele>354.8</ele>
        <time>2023-08-21T05:49:46Z</time>
      </trkpt>
      <trkpt lat="45.67687" lon="6.39574">
        <ele>355.4</ele>
        <time>2023-08-21T05:49:47Z</time>
      </trkpt>
      <trkpt lat="45.6769" lon="6.39574">
        <ele>355.4</ele>
        <time>2023-08-21T05:49:48Z</time>
      </trkpt>
      <trkpt lat="45.67692" lon="6.39575">
        <ele>355.4</ele>
        <time>2023-08-21T05:49:49Z</time>
      </trkpt>
      <trkpt lat="45.67695" lon="6.39576">
        <ele>355.4</ele>
        <time>2023-08-21T05:49:50Z</time>
      </trkpt>
      <trkpt lat="45.67698" lon="6.39576">
        <ele>355.8</ele>
        <time>2023-08-21T05:49:51Z</time>
      </trkpt>
      <trkpt lat="45.67701" lon="6.39576">
        <ele>356</ele>
        <time>2023-08-21T05:49:52Z</time>
      </trkpt>
      <trkpt lat="45.67704" lon="6.39578">
        <ele>356</ele>
        <time>2023-08-21T05:49:53Z</time>
      </trkpt>
      <trkpt lat="45.67706" lon="6.39579">
        <ele>356</ele>
        <time>2023-08-21T05:49:54Z</time>
      </trkpt>
      <trkpt lat="45.67709" lon="6.39581">
        <ele>356.4</ele>
        <time>2023-08-21T05:49:55Z</time>
      </trkpt>
      <trkpt lat="45.67712" lon="6.39584">
        <ele>356.6</ele>
        <time>2023-08-21T05:49:56Z</time>
      </trkpt>
      <trkpt lat="45.67714" lon="6.39585">
        <ele>356.6</ele>
        <time>2023-08-21T05:49:57Z</time>
      </trkpt>
      <trkpt lat="45.67717" lon="6.39586">
        <ele>356.6</ele>
        <time>2023-08-21T05:49:58Z</time>
      </trkpt>
      <trkpt lat="45.6772" lon="6.39587">
        <ele>356.6</ele>
        <time>2023-08-21T05:49:59Z</time>
      </trkpt>
      <trkpt lat="45.67722" lon="6.39589">
        <ele>357.2</ele>
        <time>2023-08-21T05:50:00Z</time>
      </trkpt>
      <trkpt lat="45.67724" lon="6.39591">
        <ele>357.2</ele>
        <time>2023-08-21T05:50:01Z</time>
      </trkpt>
      <trkpt lat="45.67726" lon="6.39592">
        <ele>357.2</ele>
        <time>2023-08-21T05:50:02Z</time>
      </trkpt>
      <trkpt lat="45.67729" lon="6.39594">
        <ele>357.2</ele>
        <time>2023-08-21T05:50:03Z</time>
      </trkpt>
      <trkpt lat="45.67731" lon="6.39595">
        <ele>357.8</ele>
        <time>2023-08-21T05:50:04Z</time>
      </trkpt>
      <trkpt lat="45.67733" lon="6.39598">
        <ele>357.8</ele>
        <time>2023-08-21T05:50:05Z</time>
      </trkpt>
      <trkpt lat="45.67735" lon="6.396">
        <ele>357.8</ele>
        <time>2023-08-21T05:50:06Z</time>
      </trkpt>
      <trkpt lat="45.67738" lon="6.39601">
        <ele>357.8</ele>
        <time>2023-08-21T05:50:07Z</time>
      </trkpt>
      <trkpt lat="45.6774" lon="6.39603">
        <ele>357.8</ele>
        <time>2023-08-21T05:50:08Z</time>
      </trkpt>
      <trkpt lat="45.67742" lon="6.39605">
        <ele>358</ele>
        <time>2023-08-21T05:50:09Z</time>
      </trkpt>
      <trkpt lat="45.67744" lon="6.39608">
        <ele>358</ele>
        <time>2023-08-21T05:50:10Z</time>
      </trkpt>
      <trkpt lat="45.67746" lon="6.39611">
        <ele>358</ele>
        <time>2023-08-21T05:50:11Z</time>
      </trkpt>
      <trkpt lat="45.67748" lon="6.39613">
        <ele>358</ele>
        <time>2023-08-21T05:50:12Z</time>
      </trkpt>
      <trkpt lat="45.67749" lon="6.39616">
        <ele>358.6</ele>
        <time>2023-08-21T05:50:13Z</time>
      </trkpt>
      <trkpt lat="45.67751" lon="6.39619">
        <ele>358.8</ele>
        <time>2023-08-21T05:50:14Z</time>
      </trkpt>
      <trkpt lat="45.67753" lon="6.39622">
        <ele>358.8</ele>
        <time>2023-08-21T05:50:15Z</time>
      </trkpt>
      <trkpt lat="45.67755" lon="6.39624">
        <ele>358.8</ele>
        <time>2023-08-21T05:50:16Z</time>
      </trkpt>
      <trkpt lat="45.67757" lon="6.39627">
        <ele>359.2</ele>
        <time>2023-08-21T05:50:17Z</time>
      </trkpt>
      <trkpt lat="45.67759" lon="6.39629">
        <ele>359.2</ele>
        <time>2023-08-21T05:50:18Z</time>
      </trkpt>
      <trkpt lat="45.67761" lon="6.39632">
        <ele>359.4</ele>
        <time>2023-08-21T05:50:19Z</time>
      </trkpt>
      <trkpt lat="45.67763" lon="6.39634">
        <ele>359.4</ele>
        <time>2023-08-21T05:50:20Z</time>
      </trkpt>
      <trkpt lat="45.67766" lon="6.39636">
        <ele>359.4</ele>
        <time>2023-08-21T05:50:21Z</time>
      </trkpt>
      <trkpt lat="45.67769" lon="6.39638">
        <ele>360</ele>
        <time>2023-08-21T05:50:22Z</time>
      </trkpt>
      <trkpt lat="45.67771" lon="6.3964">
        <ele>360</ele>
        <time>2023-08-21T05:50:23Z</time>
      </trkpt>
      <trkpt lat="45.67774" lon="6.39641">
        <ele>360</ele>
        <time>2023-08-21T05:50:24Z</time>
      </trkpt>
      <trkpt lat="45.67777" lon="6.39643">
        <ele>360</ele>
        <time>2023-08-21T05:50:25Z</time>
      </trkpt>
      <trkpt lat="45.6778" lon="6.39644">
        <ele>360.8</ele>
        <time>2023-08-21T05:50:26Z</time>
      </trkpt>
      <trkpt lat="45.67783" lon="6.39645">
        <ele>360.6</ele>
        <time>2023-08-21T05:50:27Z</time>
      </trkpt>
      <trkpt lat="45.67785" lon="6.39646">
        <ele>360.6</ele>
        <time>2023-08-21T05:50:28Z</time>
      </trkpt>
      <trkpt lat="45.67789" lon="6.39647">
        <ele>360.6</ele>
        <time>2023-08-21T05:50:29Z</time>
      </trkpt>
      <trkpt lat="45.67791" lon="6.39647">
        <ele>361.2</ele>
        <time>2023-08-21T05:50:30Z</time>
      </trkpt>
      <trkpt lat="45.67794" lon="6.39647">
        <ele>361.2</ele>
        <time>2023-08-21T05:50:31Z</time>
      </trkpt>
      <trkpt lat="45.67797" lon="6.39646">
        <ele>361.4</ele>
        <time>2023-08-21T05:50:32Z</time>
      </trkpt>
      <trkpt lat="45.678" lon="6.39646">
        <ele>361.4</ele>
        <time>2023-08-21T05:50:33Z</time>
      </trkpt>
      <trkpt lat="45.67803" lon="6.39645">
        <ele>361.4</ele>
        <time>2023-08-21T05:50:34Z</time>
      </trkpt>
      <trkpt lat="45.67806" lon="6.39644">
        <ele>361.8</ele>
        <time>2023-08-21T05:50:35Z</time>
      </trkpt>
      <trkpt lat="45.67809" lon="6.39643">
        <ele>362</ele>
        <time>2023-08-21T05:50:36Z</time>
      </trkpt>
      <trkpt lat="45.67812" lon="6.39642">
        <ele>362</ele>
        <time>2023-08-21T05:50:37Z</time>
      </trkpt>
      <trkpt lat="45.67815" lon="6.39641">
        <ele>362</ele>
        <time>2023-08-21T05:50:38Z</time>
      </trkpt>
      <trkpt lat="45.67817" lon="6.3964">
        <ele>362.8</ele>
        <time>2023-08-21T05:50:39Z</time>
      </trkpt>
      <trkpt lat="45.6782" lon="6.39638">
        <ele>362.8</ele>
        <time>2023-08-21T05:50:40Z</time>
      </trkpt>
      <trkpt lat="45.67823" lon="6.39637">
        <ele>362.8</ele>
        <time>2023-08-21T05:50:41Z</time>
      </trkpt>
      <trkpt lat="45.67826" lon="6.39636">
        <ele>362.8</ele>
        <time>2023-08-21T05:50:42Z</time>
      </trkpt>
      <trkpt lat="45.67829" lon="6.39635">
        <ele>362.8</ele>
        <time>2023-08-21T05:50:43Z</time>
      </trkpt>
      <trkpt lat="45.67831" lon="6.39634">
        <ele>362.8</ele>
        <time>2023-08-21T05:50:44Z</time>
      </trkpt>
      <trkpt lat="45.67834" lon="6.39633">
        <ele>363.6</ele>
        <time>2023-08-21T05:50:45Z</time>
      </trkpt>
      <trkpt lat="45.67838" lon="6.39633">
        <ele>363.6</ele>
        <time>2023-08-21T05:50:46Z</time>
      </trkpt>
      <trkpt lat="45.67841" lon="6.39633">
        <ele>363.6</ele>
        <time>2023-08-21T05:50:47Z</time>
      </trkpt>
      <trkpt lat="45.67844" lon="6.39634">
        <ele>363.6</ele>
        <time>2023-08-21T05:50:48Z</time>
      </trkpt>
      <trkpt lat="45.67847" lon="6.39635">
        <ele>364</ele>
        <time>2023-08-21T05:50:49Z</time>
      </trkpt>
      <trkpt lat="45.6785" lon="6.39636">
        <ele>364.4</ele>
        <time>2023-08-21T05:50:50Z</time>
      </trkpt>
      <trkpt lat="45.67852" lon="6.39637">
        <ele>364.4</ele>
        <time>2023-08-21T05:50:51Z</time>
      </trkpt>
      <trkpt lat="45.67855" lon="6.39638">
        <ele>364.4</ele>
        <time>2023-08-21T05:50:52Z</time>
      </trkpt>
      <trkpt lat="45.67858" lon="6.3964">
        <ele>364.4</ele>
        <time>2023-08-21T05:50:53Z</time>
      </trkpt>
      <trkpt lat="45.67861" lon="6.39641">
        <ele>365</ele>
        <time>2023-08-21T05:50:54Z</time>
      </trkpt>
      <trkpt lat="45.67864" lon="6.39643">
        <ele>365</ele>
        <time>2023-08-21T05:50:55Z</time>
      </trkpt>
      <trkpt lat="45.67867" lon="6.39644">
        <ele>365</ele>
        <time>2023-08-21T05:50:56Z</time>
      </trkpt>
      <trkpt lat="45.67869" lon="6.39646">
        <ele>365</ele>
        <time>2023-08-21T05:50:57Z</time>
      </trkpt>
      <trkpt lat="45.67872" lon="6.39647">
        <ele>365.6</ele>
        <time>2023-08-21T05:50:58Z</time>
      </trkpt>
      <trkpt lat="45.67874" lon="6.39648">
        <ele>365.8</ele>
        <time>2023-08-21T05:50:59Z</time>
      </trkpt>
      <trkpt lat="45.67877" lon="6.3965">
        <ele>365.8</ele>
        <time>2023-08-21T05:51:00Z</time>
      </trkpt>
      <trkpt lat="45.6788" lon="6.39652">
        <ele>365.8</ele>
        <time>2023-08-21T05:51:01Z</time>
      </trkpt>
      <trkpt lat="45.67882" lon="6.39654">
        <ele>366.2</ele>
        <time>2023-08-21T05:51:02Z</time>
      </trkpt>
      <trkpt lat="45.67885" lon="6.39656">
        <ele>366.4</ele>
        <time>2023-08-21T05:51:03Z</time>
      </trkpt>
      <trkpt lat="45.67887" lon="6.39659">
        <ele>366.4</ele>
        <time>2023-08-21T05:51:04Z</time>
      </trkpt>
      <trkpt lat="45.6789" lon="6.39662">
        <ele>366.4</ele>
        <time>2023-08-21T05:51:05Z</time>
      </trkpt>
      <trkpt lat="45.67892" lon="6.39665">
        <ele>367</ele>
        <time>2023-08-21T05:51:06Z</time>
      </trkpt>
      <trkpt lat="45.67895" lon="6.39668">
        <ele>367.2</ele>
        <time>2023-08-21T05:51:07Z</time>
      </trkpt>
      <trkpt lat="45.67897" lon="6.3967">
        <ele>367.2</ele>
        <time>2023-08-21T05:51:08Z</time>
      </trkpt>
      <trkpt lat="45.67899" lon="6.39672">
        <ele>367.2</ele>
        <time>2023-08-21T05:51:09Z</time>
      </trkpt>
      <trkpt lat="45.67902" lon="6.39674">
        <ele>367.4</ele>
        <time>2023-08-21T05:51:10Z</time>
      </trkpt>
      <trkpt lat="45.67904" lon="6.39676">
        <ele>367.4</ele>
        <time>2023-08-21T05:51:11Z</time>
      </trkpt>
      <trkpt lat="45.67907" lon="6.39679">
        <ele>367.6</ele>
        <time>2023-08-21T05:51:12Z</time>
      </trkpt>
      <trkpt lat="45.67909" lon="6.39681">
        <ele>367.6</ele>
        <time>2023-08-21T05:51:13Z</time>
      </trkpt>
      <trkpt lat="45.67912" lon="6.39684">
        <ele>367.6</ele>
        <time>2023-08-21T05:51:14Z</time>
      </trkpt>
      <trkpt lat="45.67914" lon="6.39687">
        <ele>368</ele>
        <time>2023-08-21T05:51:15Z</time>
      </trkpt>
      <trkpt lat="45.67917" lon="6.39689">
        <ele>368.2</ele>
        <time>2023-08-21T05:51:16Z</time>
      </trkpt>
      <trkpt lat="45.67919" lon="6.39692">
        <ele>368.2</ele>
        <time>2023-08-21T05:51:17Z</time>
      </trkpt>
      <trkpt lat="45.67922" lon="6.39693">
        <ele>368.2</ele>
        <time>2023-08-21T05:51:18Z</time>
      </trkpt>
      <trkpt lat="45.67925" lon="6.39695">
        <ele>368.8</ele>
        <time>2023-08-21T05:51:19Z</time>
      </trkpt>
      <trkpt lat="45.67927" lon="6.39697">
        <ele>369</ele>
        <time>2023-08-21T05:51:20Z</time>
      </trkpt>
      <trkpt lat="45.67929" lon="6.39699">
        <ele>369</ele>
        <time>2023-08-21T05:51:21Z</time>
      </trkpt>
      <trkpt lat="45.67932" lon="6.39701">
        <ele>369</ele>
        <time>2023-08-21T05:51:22Z</time>
      </trkpt>
      <trkpt lat="45.67935" lon="6.39703">
        <ele>369</ele>
        <time>2023-08-21T05:51:23Z</time>
      </trkpt>
      <trkpt lat="45.67937" lon="6.39706">
        <ele>369</ele>
        <time>2023-08-21T05:51:24Z</time>
      </trkpt>
      <trkpt lat="45.6794" lon="6.39708">
        <ele>369.4</ele>
        <time>2023-08-21T05:51:25Z</time>
      </trkpt>
      <trkpt lat="45.67943" lon="6.3971">
        <ele>369.8</ele>
        <time>2023-08-21T05:51:26Z</time>
      </trkpt>
      <trkpt lat="45.67946" lon="6.39711">
        <ele>369.8</ele>
        <time>2023-08-21T05:51:27Z</time>
      </trkpt>
      <trkpt lat="45.67948" lon="6.39712">
        <ele>369.8</ele>
        <time>2023-08-21T05:51:28Z</time>
      </trkpt>
      <trkpt lat="45.67951" lon="6.39715">
        <ele>369.8</ele>
        <time>2023-08-21T05:51:29Z</time>
      </trkpt>
      <trkpt lat="45.67953" lon="6.39716">
        <ele>370.2</ele>
        <time>2023-08-21T05:51:30Z</time>
      </trkpt>
      <trkpt lat="45.67956" lon="6.39717">
        <ele>370.2</ele>
        <time>2023-08-21T05:51:31Z</time>
      </trkpt>
      <trkpt lat="45.67959" lon="6.39718">
        <ele>370.2</ele>
        <time>2023-08-21T05:51:32Z</time>
      </trkpt>
      <trkpt lat="45.67962" lon="6.39721">
        <ele>370.2</ele>
        <time>2023-08-21T05:51:33Z</time>
      </trkpt>
      <trkpt lat="45.67965" lon="6.39722">
        <ele>371</ele>
        <time>2023-08-21T05:51:34Z</time>
      </trkpt>
      <trkpt lat="45.67967" lon="6.39722">
        <ele>371</ele>
        <time>2023-08-21T05:51:35Z</time>
      </trkpt>
      <trkpt lat="45.6797" lon="6.39724">
        <ele>371</ele>
        <time>2023-08-21T05:51:36Z</time>
      </trkpt>
      <trkpt lat="45.67973" lon="6.39726">
        <ele>371</ele>
        <time>2023-08-21T05:51:37Z</time>
      </trkpt>
      <trkpt lat="45.67976" lon="6.39728">
        <ele>371.4</ele>
        <time>2023-08-21T05:51:38Z</time>
      </trkpt>
      <trkpt lat="45.67979" lon="6.3973">
        <ele>371.4</ele>
        <time>2023-08-21T05:51:39Z</time>
      </trkpt>
      <trkpt lat="45.67982" lon="6.39731">
        <ele>371.8</ele>
        <time>2023-08-21T05:51:40Z</time>
      </trkpt>
      <trkpt lat="45.67985" lon="6.39734">
        <ele>371.8</ele>
        <time>2023-08-21T05:51:41Z</time>
      </trkpt>
      <trkpt lat="45.67987" lon="6.39736">
        <ele>371.8</ele>
        <time>2023-08-21T05:51:42Z</time>
      </trkpt>
      <trkpt lat="45.67989" lon="6.39737">
        <ele>372.4</ele>
        <time>2023-08-21T05:51:43Z</time>
      </trkpt>
      <trkpt lat="45.67992" lon="6.39738">
        <ele>372.4</ele>
        <time>2023-08-21T05:51:44Z</time>
      </trkpt>
      <trkpt lat="45.67994" lon="6.3974">
        <ele>372.4</ele>
        <time>2023-08-21T05:51:45Z</time>
      </trkpt>
      <trkpt lat="45.67997" lon="6.39742">
        <ele>372.4</ele>
        <time>2023-08-21T05:51:46Z</time>
      </trkpt>
      <trkpt lat="45.68" lon="6.39742">
        <ele>373</ele>
        <time>2023-08-21T05:51:47Z</time>
      </trkpt>
      <trkpt lat="45.68003" lon="6.39743">
        <ele>373</ele>
        <time>2023-08-21T05:51:48Z</time>
      </trkpt>
      <trkpt lat="45.68006" lon="6.39743">
        <ele>373</ele>
        <time>2023-08-21T05:51:49Z</time>
      </trkpt>
      <trkpt lat="45.68009" lon="6.39743">
        <ele>373</ele>
        <time>2023-08-21T05:51:50Z</time>
      </trkpt>
      <trkpt lat="45.68012" lon="6.39743">
        <ele>373.6</ele>
        <time>2023-08-21T05:51:51Z</time>
      </trkpt>
      <trkpt lat="45.68014" lon="6.39744">
        <ele>373.6</ele>
        <time>2023-08-21T05:51:52Z</time>
      </trkpt>
      <trkpt lat="45.68017" lon="6.39744">
        <ele>373.6</ele>
        <time>2023-08-21T05:51:53Z</time>
      </trkpt>
      <trkpt lat="45.68021" lon="6.39745">
        <ele>373.6</ele>
        <time>2023-08-21T05:51:54Z</time>
      </trkpt>
      <trkpt lat="45.68024" lon="6.39745">
        <ele>374.2</ele>
        <time>2023-08-21T05:51:55Z</time>
      </trkpt>
      <trkpt lat="45.68027" lon="6.39745">
        <ele>374.4</ele>
        <time>2023-08-21T05:51:56Z</time>
      </trkpt>
      <trkpt lat="45.6803" lon="6.39745">
        <ele>374.4</ele>
        <time>2023-08-21T05:51:57Z</time>
      </trkpt>
      <trkpt lat="45.68033" lon="6.39746">
        <ele>374.4</ele>
        <time>2023-08-21T05:51:58Z</time>
      </trkpt>
      <trkpt lat="45.68036" lon="6.39747">
        <ele>374.4</ele>
        <time>2023-08-21T05:51:59Z</time>
      </trkpt>
      <trkpt lat="45.68039" lon="6.39747">
        <ele>374.4</ele>
        <time>2023-08-21T05:52:00Z</time>
      </trkpt>
      <trkpt lat="45.68042" lon="6.39748">
        <ele>375.2</ele>
        <time>2023-08-21T05:52:01Z</time>
      </trkpt>
      <trkpt lat="45.68044" lon="6.3975">
        <ele>375.2</ele>
        <time>2023-08-21T05:52:02Z</time>
      </trkpt>
      <trkpt lat="45.68047" lon="6.39751">
        <ele>375.2</ele>
        <time>2023-08-21T05:52:03Z</time>
      </trkpt>
      <trkpt lat="45.6805" lon="6.39753">
        <ele>375.2</ele>
        <time>2023-08-21T05:52:04Z</time>
      </trkpt>
      <trkpt lat="45.68053" lon="6.39753">
        <ele>375.6</ele>
        <time>2023-08-21T05:52:05Z</time>
      </trkpt>
      <trkpt lat="45.68056" lon="6.39754">
        <ele>375.6</ele>
        <time>2023-08-21T05:52:06Z</time>
      </trkpt>
      <trkpt lat="45.68059" lon="6.39754">
        <ele>375.6</ele>
        <time>2023-08-21T05:52:07Z</time>
      </trkpt>
      <trkpt lat="45.68062" lon="6.39756">
        <ele>375.6</ele>
        <time>2023-08-21T05:52:08Z</time>
      </trkpt>
      <trkpt lat="45.68065" lon="6.39757">
        <ele>376.2</ele>
        <time>2023-08-21T05:52:09Z</time>
      </trkpt>
      <trkpt lat="45.68069" lon="6.39757">
        <ele>376.2</ele>
        <time>2023-08-21T05:52:10Z</time>
      </trkpt>
      <trkpt lat="45.68072" lon="6.39758">
        <ele>376.2</ele>
        <time>2023-08-21T05:52:11Z</time>
      </trkpt>
      <trkpt lat="45.68075" lon="6.39759">
        <ele>376.2</ele>
        <time>2023-08-21T05:52:12Z</time>
      </trkpt>
      <trkpt lat="45.68078" lon="6.39761">
        <ele>376.2</ele>
        <time>2023-08-21T05:52:13Z</time>
      </trkpt>
      <trkpt lat="45.68081" lon="6.39762">
        <ele>376.8</ele>
        <time>2023-08-21T05:52:14Z</time>
      </trkpt>
      <trkpt lat="45.68084" lon="6.39764">
        <ele>376.8</ele>
        <time>2023-08-21T05:52:15Z</time>
      </trkpt>
      <trkpt lat="45.68086" lon="6.39764">
        <ele>377</ele>
        <time>2023-08-21T05:52:16Z</time>
      </trkpt>
      <trkpt lat="45.68089" lon="6.39765">
        <ele>377</ele>
        <time>2023-08-21T05:52:17Z</time>
      </trkpt>
      <trkpt lat="45.68092" lon="6.39766">
        <ele>377.6</ele>
        <time>2023-08-21T05:52:18Z</time>
      </trkpt>
      <trkpt lat="45.68095" lon="6.39767">
        <ele>377.8</ele>
        <time>2023-08-21T05:52:19Z</time>
      </trkpt>
      <trkpt lat="45.68098" lon="6.39767">
        <ele>377.8</ele>
        <time>2023-08-21T05:52:20Z</time>
      </trkpt>
      <trkpt lat="45.68101" lon="6.39768">
        <ele>377.8</ele>
        <time>2023-08-21T05:52:21Z</time>
      </trkpt>
      <trkpt lat="45.68104" lon="6.3977">
        <ele>378.4</ele>
        <time>2023-08-21T05:52:22Z</time>
      </trkpt>
      <trkpt lat="45.68107" lon="6.39771">
        <ele>378.4</ele>
        <time>2023-08-21T05:52:23Z</time>
      </trkpt>
      <trkpt lat="45.6811" lon="6.39772">
        <ele>378.4</ele>
        <time>2023-08-21T05:52:24Z</time>
      </trkpt>
      <trkpt lat="45.68112" lon="6.39774">
        <ele>378.4</ele>
        <time>2023-08-21T05:52:25Z</time>
      </trkpt>
      <trkpt lat="45.68115" lon="6.39774">
        <ele>378.4</ele>
        <time>2023-08-21T05:52:26Z</time>
      </trkpt>
      <trkpt lat="45.68118" lon="6.39776">
        <ele>378.8</ele>
        <time>2023-08-21T05:52:27Z</time>
      </trkpt>
      <trkpt lat="45.68121" lon="6.39776">
        <ele>379.2</ele>
        <time>2023-08-21T05:52:28Z</time>
      </trkpt>
      <trkpt lat="45.68124" lon="6.39777">
        <ele>379.2</ele>
        <time>2023-08-21T05:52:29Z</time>
      </trkpt>
      <trkpt lat="45.68127" lon="6.39779">
        <ele>379.2</ele>
        <time>2023-08-21T05:52:30Z</time>
      </trkpt>
      <trkpt lat="45.6813" lon="6.3978">
        <ele>379.2</ele>
        <time>2023-08-21T05:52:31Z</time>
      </trkpt>
      <trkpt lat="45.68133" lon="6.39781">
        <ele>379.6</ele>
        <time>2023-08-21T05:52:32Z</time>
      </trkpt>
      <trkpt lat="45.68136" lon="6.39782">
        <ele>379.6</ele>
        <time>2023-08-21T05:52:33Z</time>
      </trkpt>
      <trkpt lat="45.6814" lon="6.39782">
        <ele>379.6</ele>
        <time>2023-08-21T05:52:34Z</time>
      </trkpt>
      <trkpt lat="45.68142" lon="6.39783">
        <ele>380.2</ele>
        <time>2023-08-21T05:52:35Z</time>
      </trkpt>
      <trkpt lat="45.68145" lon="6.39784">
        <ele>380.2</ele>
        <time>2023-08-21T05:52:36Z</time>
      </trkpt>
      <trkpt lat="45.68148" lon="6.39786">
        <ele>380.4</ele>
        <time>2023-08-21T05:52:37Z</time>
      </trkpt>
      <trkpt lat="45.68151" lon="6.39787">
        <ele>380.4</ele>
        <time>2023-08-21T05:52:38Z</time>
      </trkpt>
      <trkpt lat="45.68154" lon="6.39787">
        <ele>380.4</ele>
        <time>2023-08-21T05:52:39Z</time>
      </trkpt>
      <trkpt lat="45.68157" lon="6.39789">
        <ele>381.2</ele>
        <time>2023-08-21T05:52:40Z</time>
      </trkpt>
      <trkpt lat="45.6816" lon="6.39791">
        <ele>381.2</ele>
        <time>2023-08-21T05:52:41Z</time>
      </trkpt>
      <trkpt lat="45.68163" lon="6.39794">
        <ele>381.2</ele>
        <time>2023-08-21T05:52:42Z</time>
      </trkpt>
      <trkpt lat="45.68166" lon="6.39796">
        <ele>381.2</ele>
        <time>2023-08-21T05:52:43Z</time>
      </trkpt>
      <trkpt lat="45.68168" lon="6.39799">
        <ele>381.6</ele>
        <time>2023-08-21T05:52:44Z</time>
      </trkpt>
      <trkpt lat="45.68171" lon="6.39801">
        <ele>381.8</ele>
        <time>2023-08-21T05:52:45Z</time>
      </trkpt>
      <trkpt lat="45.68174" lon="6.39803">
        <ele>381.8</ele>
        <time>2023-08-21T05:52:46Z</time>
      </trkpt>
      <trkpt lat="45.68177" lon="6.39806">
        <ele>381.8</ele>
        <time>2023-08-21T05:52:47Z</time>
      </trkpt>
      <trkpt lat="45.6818" lon="6.39809">
        <ele>381.8</ele>
        <time>2023-08-21T05:52:48Z</time>
      </trkpt>
      <trkpt lat="45.68182" lon="6.39812">
        <ele>382.4</ele>
        <time>2023-08-21T05:52:49Z</time>
      </trkpt>
      <trkpt lat="45.68185" lon="6.39815">
        <ele>382.6</ele>
        <time>2023-08-21T05:52:50Z</time>
      </trkpt>
      <trkpt lat="45.68187" lon="6.39818">
        <ele>382.6</ele>
        <time>2023-08-21T05:52:51Z</time>
      </trkpt>
      <trkpt lat="45.6819" lon="6.39821">
        <ele>382.6</ele>
        <time>2023-08-21T05:52:52Z</time>
      </trkpt>
      <trkpt lat="45.68193" lon="6.39823">
        <ele>382.6</ele>
        <time>2023-08-21T05:52:53Z</time>
      </trkpt>
      <trkpt lat="45.68195" lon="6.39826">
        <ele>383.2</ele>
        <time>2023-08-21T05:52:54Z</time>
      </trkpt>
      <trkpt lat="45.68198" lon="6.39828">
        <ele>383.4</ele>
        <time>2023-08-21T05:52:55Z</time>
      </trkpt>
      <trkpt lat="45.68202" lon="6.39827">
        <ele>383.4</ele>
        <time>2023-08-21T05:52:56Z</time>
      </trkpt>
      <trkpt lat="45.68205" lon="6.3983">
        <ele>383.4</ele>
        <time>2023-08-21T05:52:57Z</time>
      </trkpt>
      <trkpt lat="45.68208" lon="6.39829">
        <ele>384</ele>
        <time>2023-08-21T05:52:58Z</time>
      </trkpt>
      <trkpt lat="45.68211" lon="6.3983">
        <ele>384</ele>
        <time>2023-08-21T05:52:59Z</time>
      </trkpt>
      <trkpt lat="45.68214" lon="6.39832">
        <ele>384.2</ele>
        <time>2023-08-21T05:53:00Z</time>
      </trkpt>
      <trkpt lat="45.68217" lon="6.39834">
        <ele>384.2</ele>
        <time>2023-08-21T05:53:01Z</time>
      </trkpt>
      <trkpt lat="45.6822" lon="6.39835">
        <ele>384.2</ele>
        <time>2023-08-21T05:53:02Z</time>
      </trkpt>
      <trkpt lat="45.68223" lon="6.39836">
        <ele>385</ele>
        <time>2023-08-21T05:53:03Z</time>
      </trkpt>
      <trkpt lat="45.68226" lon="6.39837">
        <ele>385</ele>
        <time>2023-08-21T05:53:04Z</time>
      </trkpt>
      <trkpt lat="45.68229" lon="6.39839">
        <ele>385</ele>
        <time>2023-08-21T05:53:05Z</time>
      </trkpt>
      <trkpt lat="45.68232" lon="6.3984">
        <ele>385</ele>
        <time>2023-08-21T05:53:06Z</time>
      </trkpt>
      <trkpt lat="45.68234" lon="6.39842">
        <ele>385.6</ele>
        <time>2023-08-21T05:53:07Z</time>
      </trkpt>
      <trkpt lat="45.68237" lon="6.39843">
        <ele>385.6</ele>
        <time>2023-08-21T05:53:08Z</time>
      </trkpt>
      <trkpt lat="45.6824" lon="6.39844">
        <ele>385.8</ele>
        <time>2023-08-21T05:53:09Z</time>
      </trkpt>
      <trkpt lat="45.68243" lon="6.39845">
        <ele>385.8</ele>
        <time>2023-08-21T05:53:10Z</time>
      </trkpt>
      <trkpt lat="45.68246" lon="6.39847">
        <ele>385.8</ele>
        <time>2023-08-21T05:53:11Z</time>
      </trkpt>
      <trkpt lat="45.68249" lon="6.39847">
        <ele>385.8</ele>
        <time>2023-08-21T05:53:12Z</time>
      </trkpt>
      <trkpt lat="45.68251" lon="6.39848">
        <ele>386.6</ele>
        <time>2023-08-21T05:53:13Z</time>
      </trkpt>
      <trkpt lat="45.68254" lon="6.3985">
        <ele>386.6</ele>
        <time>2023-08-21T05:53:14Z</time>
      </trkpt>
      <trkpt lat="45.68257" lon="6.39852">
        <ele>386.6</ele>
        <time>2023-08-21T05:53:15Z</time>
      </trkpt>
      <trkpt lat="45.6826" lon="6.39853">
        <ele>386.6</ele>
        <time>2023-08-21T05:53:16Z</time>
      </trkpt>
      <trkpt lat="45.68263" lon="6.39855">
        <ele>387</ele>
        <time>2023-08-21T05:53:17Z</time>
      </trkpt>
      <trkpt lat="45.68266" lon="6.39855">
        <ele>387</ele>
        <time>2023-08-21T05:53:18Z</time>
      </trkpt>
      <trkpt lat="45.68269" lon="6.39857">
        <ele>387</ele>
        <time>2023-08-21T05:53:19Z</time>
      </trkpt>
      <trkpt lat="45.68272" lon="6.39857">
        <ele>387.6</ele>
        <time>2023-08-21T05:53:20Z</time>
      </trkpt>
      <trkpt lat="45.68275" lon="6.39859">
        <ele>387.8</ele>
        <time>2023-08-21T05:53:21Z</time>
      </trkpt>
      <trkpt lat="45.68278" lon="6.39859">
        <ele>387.8</ele>
        <time>2023-08-21T05:53:22Z</time>
      </trkpt>
      <trkpt lat="45.68281" lon="6.3986">
        <ele>387.8</ele>
        <time>2023-08-21T05:53:23Z</time>
      </trkpt>
      <trkpt lat="45.68284" lon="6.39861">
        <ele>388.2</ele>
        <time>2023-08-21T05:53:24Z</time>
      </trkpt>
      <trkpt lat="45.68287" lon="6.39862">
        <ele>388.2</ele>
        <time>2023-08-21T05:53:25Z</time>
      </trkpt>
      <trkpt lat="45.68291" lon="6.39863">
        <ele>388.4</ele>
        <time>2023-08-21T05:53:26Z</time>
      </trkpt>
      <trkpt lat="45.68293" lon="6.39864">
        <ele>388.4</ele>
        <time>2023-08-21T05:53:27Z</time>
      </trkpt>
      <trkpt lat="45.68297" lon="6.39866">
        <ele>388.4</ele>
        <time>2023-08-21T05:53:28Z</time>
      </trkpt>
      <trkpt lat="45.68299" lon="6.39867">
        <ele>388.8</ele>
        <time>2023-08-21T05:53:29Z</time>
      </trkpt>
      <trkpt lat="45.68302" lon="6.39869">
        <ele>389.2</ele>
        <time>2023-08-21T05:53:30Z</time>
      </trkpt>
      <trkpt lat="45.68305" lon="6.3987">
        <ele>389.2</ele>
        <time>2023-08-21T05:53:31Z</time>
      </trkpt>
      <trkpt lat="45.68308" lon="6.39871">
        <ele>389.2</ele>
        <time>2023-08-21T05:53:32Z</time>
      </trkpt>
      <trkpt lat="45.6831" lon="6.39873">
        <ele>389.2</ele>
        <time>2023-08-21T05:53:33Z</time>
      </trkpt>
      <trkpt lat="45.68313" lon="6.39873">
        <ele>389.6</ele>
        <time>2023-08-21T05:53:34Z</time>
      </trkpt>
      <trkpt lat="45.68316" lon="6.39875">
        <ele>389.8</ele>
        <time>2023-08-21T05:53:35Z</time>
      </trkpt>
      <trkpt lat="45.68318" lon="6.39877">
        <ele>389.8</ele>
        <time>2023-08-21T05:53:36Z</time>
      </trkpt>
      <trkpt lat="45.6832" lon="6.3988">
        <ele>389.8</ele>
        <time>2023-08-21T05:53:37Z</time>
      </trkpt>
      <trkpt lat="45.68322" lon="6.39882">
        <ele>389.8</ele>
        <time>2023-08-21T05:53:38Z</time>
      </trkpt>
      <trkpt lat="45.68324" lon="6.39886">
        <ele>390.4</ele>
        <time>2023-08-21T05:53:39Z</time>
      </trkpt>
      <trkpt lat="45.68325" lon="6.39889">
        <ele>390.4</ele>
        <time>2023-08-21T05:53:40Z</time>
      </trkpt>
      <trkpt lat="45.68327" lon="6.39892">
        <ele>390.4</ele>
        <time>2023-08-21T05:53:41Z</time>
      </trkpt>
      <trkpt lat="45.68329" lon="6.39895">
        <ele>390.4</ele>
        <time>2023-08-21T05:53:42Z</time>
      </trkpt>
      <trkpt lat="45.68331" lon="6.39899">
        <ele>391</ele>
        <time>2023-08-21T05:53:43Z</time>
      </trkpt>
      <trkpt lat="45.68332" lon="6.39902">
        <ele>391.2</ele>
        <time>2023-08-21T05:53:44Z</time>
      </trkpt>
      <trkpt lat="45.68334" lon="6.39905">
        <ele>391.2</ele>
        <time>2023-08-21T05:53:45Z</time>
      </trkpt>
      <trkpt lat="45.68335" lon="6.39908">
        <ele>391.2</ele>
        <time>2023-08-21T05:53:46Z</time>
      </trkpt>
      <trkpt lat="45.68337" lon="6.39911">
        <ele>391.8</ele>
        <time>2023-08-21T05:53:47Z</time>
      </trkpt>
      <trkpt lat="45.68339" lon="6.39915">
        <ele>392</ele>
        <time>2023-08-21T05:53:48Z</time>
      </trkpt>
      <trkpt lat="45.6834" lon="6.39917">
        <ele>392</ele>
        <time>2023-08-21T05:53:49Z</time>
      </trkpt>
      <trkpt lat="45.68342" lon="6.3992">
        <ele>392</ele>
        <time>2023-08-21T05:53:50Z</time>
      </trkpt>
      <trkpt lat="45.68344" lon="6.39924">
        <ele>392</ele>
        <time>2023-08-21T05:53:51Z</time>
      </trkpt>
      <trkpt lat="45.68346" lon="6.39927">
        <ele>392</ele>
        <time>2023-08-21T05:53:52Z</time>
      </trkpt>
      <trkpt lat="45.68348" lon="6.3993">
        <ele>392.8</ele>
        <time>2023-08-21T05:53:53Z</time>
      </trkpt>
      <trkpt lat="45.68349" lon="6.39934">
        <ele>392.8</ele>
        <time>2023-08-21T05:53:54Z</time>
      </trkpt>
      <trkpt lat="45.68351" lon="6.39938">
        <ele>392.8</ele>
        <time>2023-08-21T05:53:55Z</time>
      </trkpt>
      <trkpt lat="45.68354" lon="6.39941">
        <ele>393.2</ele>
        <time>2023-08-21T05:53:56Z</time>
      </trkpt>
      <trkpt lat="45.68356" lon="6.39944">
        <ele>393.4</ele>
        <time>2023-08-21T05:53:57Z</time>
      </trkpt>
      <trkpt lat="45.68358" lon="6.39947">
        <ele>393.4</ele>
        <time>2023-08-21T05:53:58Z</time>
      </trkpt>
      <trkpt lat="45.6836" lon="6.3995">
        <ele>393.4</ele>
        <time>2023-08-21T05:53:59Z</time>
      </trkpt>
      <trkpt lat="45.68362" lon="6.39952">
        <ele>393.4</ele>
        <time>2023-08-21T05:54:00Z</time>
      </trkpt>
      <trkpt lat="45.68365" lon="6.39954">
        <ele>394.2</ele>
        <time>2023-08-21T05:54:01Z</time>
      </trkpt>
      <trkpt lat="45.68367" lon="6.39957">
        <ele>394.2</ele>
        <time>2023-08-21T05:54:02Z</time>
      </trkpt>
      <trkpt lat="45.6837" lon="6.3996">
        <ele>394.2</ele>
        <time>2023-08-21T05:54:03Z</time>
      </trkpt>
      <trkpt lat="45.68373" lon="6.39962">
        <ele>394.2</ele>
        <time>2023-08-21T05:54:04Z</time>
      </trkpt>
      <trkpt lat="45.68376" lon="6.39964">
        <ele>394.6</ele>
        <time>2023-08-21T05:54:05Z</time>
      </trkpt>
      <trkpt lat="45.68378" lon="6.39967">
        <ele>394.8</ele>
        <time>2023-08-21T05:54:06Z</time>
      </trkpt>
      <trkpt lat="45.68381" lon="6.39969">
        <ele>394.8</ele>
        <time>2023-08-21T05:54:07Z</time>
      </trkpt>
      <trkpt lat="45.68384" lon="6.39972">
        <ele>394.8</ele>
        <time>2023-08-21T05:54:08Z</time>
      </trkpt>
      <trkpt lat="45.68387" lon="6.39973">
        <ele>395.4</ele>
        <time>2023-08-21T05:54:09Z</time>
      </trkpt>
      <trkpt lat="45.68389" lon="6.39975">
        <ele>395.8</ele>
        <time>2023-08-21T05:54:10Z</time>
      </trkpt>
      <trkpt lat="45.68392" lon="6.39977">
        <ele>395.8</ele>
        <time>2023-08-21T05:54:11Z</time>
      </trkpt>
      <trkpt lat="45.68395" lon="6.39979">
        <ele>395.8</ele>
        <time>2023-08-21T05:54:12Z</time>
      </trkpt>
      <trkpt lat="45.68398" lon="6.39981">
        <ele>396</ele>
        <time>2023-08-21T05:54:13Z</time>
      </trkpt>
      <trkpt lat="45.684" lon="6.39982">
        <ele>396</ele>
        <time>2023-08-21T05:54:14Z</time>
      </trkpt>
      <trkpt lat="45.68403" lon="6.39984">
        <ele>396.2</ele>
        <time>2023-08-21T05:54:15Z</time>
      </trkpt>
      <trkpt lat="45.68406" lon="6.39986">
        <ele>396.2</ele>
        <time>2023-08-21T05:54:16Z</time>
      </trkpt>
      <trkpt lat="45.68409" lon="6.39988">
        <ele>396.2</ele>
        <time>2023-08-21T05:54:17Z</time>
      </trkpt>
      <trkpt lat="45.68412" lon="6.3999">
        <ele>396.2</ele>
        <time>2023-08-21T05:54:18Z</time>
      </trkpt>
      <trkpt lat="45.68414" lon="6.39992">
        <ele>396.8</ele>
        <time>2023-08-21T05:54:19Z</time>
      </trkpt>
      <trkpt lat="45.68417" lon="6.39994">
        <ele>397</ele>
        <time>2023-08-21T05:54:20Z</time>
      </trkpt>
      <trkpt lat="45.68419" lon="6.39997">
        <ele>397</ele>
        <time>2023-08-21T05:54:21Z</time>
      </trkpt>
      <trkpt lat="45.68422" lon="6.4">
        <ele>397</ele>
        <time>2023-08-21T05:54:22Z</time>
      </trkpt>
      <trkpt lat="45.68425" lon="6.40002">
        <ele>397.4</ele>
        <time>2023-08-21T05:54:23Z</time>
      </trkpt>
      <trkpt lat="45.68427" lon="6.40004">
        <ele>397.4</ele>
        <time>2023-08-21T05:54:24Z</time>
      </trkpt>
      <trkpt lat="45.6843" lon="6.40006">
        <ele>397.8</ele>
        <time>2023-08-21T05:54:25Z</time>
      </trkpt>
      <trkpt lat="45.68433" lon="6.40008">
        <ele>397.8</ele>
        <time>2023-08-21T05:54:26Z</time>
      </trkpt>
      <trkpt lat="45.68435" lon="6.4001">
        <ele>397.8</ele>
        <time>2023-08-21T05:54:27Z</time>
      </trkpt>
      <trkpt lat="45.68438" lon="6.40013">
        <ele>398.4</ele>
        <time>2023-08-21T05:54:28Z</time>
      </trkpt>
      <trkpt lat="45.6844" lon="6.40015">
        <ele>398.4</ele>
        <time>2023-08-21T05:54:29Z</time>
      </trkpt>
      <trkpt lat="45.68443" lon="6.40018">
        <ele>398.4</ele>
        <time>2023-08-21T05:54:30Z</time>
      </trkpt>
      <trkpt lat="45.68446" lon="6.4002">
        <ele>398.4</ele>
        <time>2023-08-21T05:54:31Z</time>
      </trkpt>
      <trkpt lat="45.68448" lon="6.40022">
        <ele>399</ele>
        <time>2023-08-21T05:54:32Z</time>
      </trkpt>
      <trkpt lat="45.6845" lon="6.40024">
        <ele>399.2</ele>
        <time>2023-08-21T05:54:33Z</time>
      </trkpt>
      <trkpt lat="45.68452" lon="6.40027">
        <ele>399.2</ele>
        <time>2023-08-21T05:54:34Z</time>
      </trkpt>
      <trkpt lat="45.68454" lon="6.40028">
        <ele>399.2</ele>
        <time>2023-08-21T05:54:35Z</time>
      </trkpt>
      <trkpt lat="45.68457" lon="6.40031">
        <ele>399.8</ele>
        <time>2023-08-21T05:54:36Z</time>
      </trkpt>
      <trkpt lat="45.68459" lon="6.40034">
        <ele>400</ele>
        <time>2023-08-21T05:54:37Z</time>
      </trkpt>
      <trkpt lat="45.68462" lon="6.40037">
        <ele>400</ele>
        <time>2023-08-21T05:54:38Z</time>
      </trkpt>
      <trkpt lat="45.68464" lon="6.40039">
        <ele>400</ele>
        <time>2023-08-21T05:54:39Z</time>
      </trkpt>
      <trkpt lat="45.68467" lon="6.40042">
        <ele>400</ele>
        <time>2023-08-21T05:54:40Z</time>
      </trkpt>
      <trkpt lat="45.68469" lon="6.40043">
        <ele>400.6</ele>
        <time>2023-08-21T05:54:41Z</time>
      </trkpt>
      <trkpt lat="45.68472" lon="6.40045">
        <ele>400.4</ele>
        <time>2023-08-21T05:54:42Z</time>
      </trkpt>
      <trkpt lat="45.68475" lon="6.40046">
        <ele>400.4</ele>
        <time>2023-08-21T05:54:43Z</time>
      </trkpt>
      <trkpt lat="45.68478" lon="6.40048">
        <ele>400.4</ele>
        <time>2023-08-21T05:54:44Z</time>
      </trkpt>
      <trkpt lat="45.68481" lon="6.4005">
        <ele>401</ele>
        <time>2023-08-21T05:54:45Z</time>
      </trkpt>
      <trkpt lat="45.68484" lon="6.40051">
        <ele>401</ele>
        <time>2023-08-21T05:54:46Z</time>
      </trkpt>
      <trkpt lat="45.68487" lon="6.40054">
        <ele>401</ele>
        <time>2023-08-21T05:54:47Z</time>
      </trkpt>
      <trkpt lat="45.68491" lon="6.40055">
        <ele>401</ele>
        <time>2023-08-21T05:54:48Z</time>
      </trkpt>
      <trkpt lat="45.68494" lon="6.40057">
        <ele>401.6</ele>
        <time>2023-08-21T05:54:49Z</time>
      </trkpt>
      <trkpt lat="45.68496" lon="6.4006">
        <ele>401.8</ele>
        <time>2023-08-21T05:54:50Z</time>
      </trkpt>
      <trkpt lat="45.685" lon="6.40063">
        <ele>401.8</ele>
        <time>2023-08-21T05:54:51Z</time>
      </trkpt>
      <trkpt lat="45.68503" lon="6.40065">
        <ele>401.8</ele>
        <time>2023-08-21T05:54:52Z</time>
      </trkpt>
      <trkpt lat="45.68506" lon="6.40067">
        <ele>401.8</ele>
        <time>2023-08-21T05:54:53Z</time>
      </trkpt>
      <trkpt lat="45.68509" lon="6.40069">
        <ele>402.2</ele>
        <time>2023-08-21T05:54:54Z</time>
      </trkpt>
      <trkpt lat="45.68512" lon="6.40072">
        <ele>402.2</ele>
        <time>2023-08-21T05:54:55Z</time>
      </trkpt>
      <trkpt lat="45.68515" lon="6.40075">
        <ele>402.4</ele>
        <time>2023-08-21T05:54:56Z</time>
      </trkpt>
      <trkpt lat="45.68518" lon="6.40078">
        <ele>402.4</ele>
        <time>2023-08-21T05:54:57Z</time>
      </trkpt>
      <trkpt lat="45.68521" lon="6.40081">
        <ele>403</ele>
        <time>2023-08-21T05:54:58Z</time>
      </trkpt>
      <trkpt lat="45.68523" lon="6.40084">
        <ele>403</ele>
        <time>2023-08-21T05:54:59Z</time>
      </trkpt>
      <trkpt lat="45.68526" lon="6.40086">
        <ele>403.2</ele>
        <time>2023-08-21T05:55:00Z</time>
      </trkpt>
      <trkpt lat="45.68528" lon="6.40087">
        <ele>403.2</ele>
        <time>2023-08-21T05:55:01Z</time>
      </trkpt>
      <trkpt lat="45.68531" lon="6.40089">
        <ele>403.2</ele>
        <time>2023-08-21T05:55:02Z</time>
      </trkpt>
      <trkpt lat="45.68534" lon="6.40091">
        <ele>403.8</ele>
        <time>2023-08-21T05:55:03Z</time>
      </trkpt>
      <trkpt lat="45.68537" lon="6.40093">
        <ele>404</ele>
        <time>2023-08-21T05:55:04Z</time>
      </trkpt>
      <trkpt lat="45.6854" lon="6.40095">
        <ele>404</ele>
        <time>2023-08-21T05:55:05Z</time>
      </trkpt>
      <trkpt lat="45.68543" lon="6.40097">
        <ele>404</ele>
        <time>2023-08-21T05:55:06Z</time>
      </trkpt>
      <trkpt lat="45.68546" lon="6.401">
        <ele>404</ele>
        <time>2023-08-21T05:55:07Z</time>
      </trkpt>
      <trkpt lat="45.68549" lon="6.40101">
        <ele>404.4</ele>
        <time>2023-08-21T05:55:08Z</time>
      </trkpt>
      <trkpt lat="45.68553" lon="6.40103">
        <ele>404.6</ele>
        <time>2023-08-21T05:55:09Z</time>
      </trkpt>
      <trkpt lat="45.68556" lon="6.40104">
        <ele>404.6</ele>
        <time>2023-08-21T05:55:10Z</time>
      </trkpt>
      <trkpt lat="45.68559" lon="6.40105">
        <ele>404.6</ele>
        <time>2023-08-21T05:55:11Z</time>
      </trkpt>
      <trkpt lat="45.68561" lon="6.40107">
        <ele>405.2</ele>
        <time>2023-08-21T05:55:12Z</time>
      </trkpt>
      <trkpt lat="45.68564" lon="6.40108">
        <ele>405.2</ele>
        <time>2023-08-21T05:55:13Z</time>
      </trkpt>
      <trkpt lat="45.68567" lon="6.40109">
        <ele>405.2</ele>
        <time>2023-08-21T05:55:14Z</time>
      </trkpt>
      <trkpt lat="45.68571" lon="6.4011">
        <ele>405.2</ele>
        <time>2023-08-21T05:55:15Z</time>
      </trkpt>
      <trkpt lat="45.68574" lon="6.40111">
        <ele>405.2</ele>
        <time>2023-08-21T05:55:16Z</time>
      </trkpt>
      <trkpt lat="45.68577" lon="6.40112">
        <ele>405.8</ele>
        <time>2023-08-21T05:55:17Z</time>
      </trkpt>
      <trkpt lat="45.6858" lon="6.40114">
        <ele>405.8</ele>
        <time>2023-08-21T05:55:18Z</time>
      </trkpt>
      <trkpt lat="45.68582" lon="6.40116">
        <ele>405.8</ele>
        <time>2023-08-21T05:55:19Z</time>
      </trkpt>
      <trkpt lat="45.68586" lon="6.40118">
        <ele>405.8</ele>
        <time>2023-08-21T05:55:20Z</time>
      </trkpt>
      <trkpt lat="45.68589" lon="6.4012">
        <ele>406.4</ele>
        <time>2023-08-21T05:55:21Z</time>
      </trkpt>
      <trkpt lat="45.68592" lon="6.40122">
        <ele>406.6</ele>
        <time>2023-08-21T05:55:22Z</time>
      </trkpt>
      <trkpt lat="45.68594" lon="6.40123">
        <ele>406.6</ele>
        <time>2023-08-21T05:55:23Z</time>
      </trkpt>
      <trkpt lat="45.68597" lon="6.40126">
        <ele>406.6</ele>
        <time>2023-08-21T05:55:24Z</time>
      </trkpt>
      <trkpt lat="45.686" lon="6.40128">
        <ele>407.2</ele>
        <time>2023-08-21T05:55:25Z</time>
      </trkpt>
      <trkpt lat="45.68602" lon="6.40132">
        <ele>407.6</ele>
        <time>2023-08-21T05:55:26Z</time>
      </trkpt>
      <trkpt lat="45.68604" lon="6.40135">
        <ele>407.6</ele>
        <time>2023-08-21T05:55:27Z</time>
      </trkpt>
      <trkpt lat="45.68606" lon="6.40138">
        <ele>407.6</ele>
        <time>2023-08-21T05:55:28Z</time>
      </trkpt>
      <trkpt lat="45.68609" lon="6.40141">
        <ele>407.6</ele>
        <time>2023-08-21T05:55:29Z</time>
      </trkpt>
      <trkpt lat="45.68611" lon="6.40143">
        <ele>408</ele>
        <time>2023-08-21T05:55:30Z</time>
      </trkpt>
      <trkpt lat="45.68612" lon="6.40147">
        <ele>408.2</ele>
        <time>2023-08-21T05:55:31Z</time>
      </trkpt>
      <trkpt lat="45.68614" lon="6.4015">
        <ele>408.2</ele>
        <time>2023-08-21T05:55:32Z</time>
      </trkpt>
      <trkpt lat="45.68616" lon="6.40154">
        <ele>408.2</ele>
        <time>2023-08-21T05:55:33Z</time>
      </trkpt>
      <trkpt lat="45.68617" lon="6.40159">
        <ele>409</ele>
        <time>2023-08-21T05:55:34Z</time>
      </trkpt>
      <trkpt lat="45.68618" lon="6.40162">
        <ele>409</ele>
        <time>2023-08-21T05:55:35Z</time>
      </trkpt>
      <trkpt lat="45.68619" lon="6.40166">
        <ele>409</ele>
        <time>2023-08-21T05:55:36Z</time>
      </trkpt>
      <trkpt lat="45.6862" lon="6.40169">
        <ele>409</ele>
        <time>2023-08-21T05:55:37Z</time>
      </trkpt>
      <trkpt lat="45.68621" lon="6.40173">
        <ele>409.8</ele>
        <time>2023-08-21T05:55:38Z</time>
      </trkpt>
      <trkpt lat="45.68622" lon="6.40178">
        <ele>410</ele>
        <time>2023-08-21T05:55:39Z</time>
      </trkpt>
      <trkpt lat="45.68623" lon="6.40182">
        <ele>410</ele>
        <time>2023-08-21T05:55:40Z</time>
      </trkpt>
      <trkpt lat="45.68624" lon="6.40185">
        <ele>410</ele>
        <time>2023-08-21T05:55:41Z</time>
      </trkpt>
      <trkpt lat="45.68625" lon="6.40189">
        <ele>410</ele>
        <time>2023-08-21T05:55:42Z</time>
      </trkpt>
      <trkpt lat="45.68625" lon="6.40193">
        <ele>410</ele>
        <time>2023-08-21T05:55:43Z</time>
      </trkpt>
      <trkpt lat="45.68626" lon="6.40196">
        <ele>410.6</ele>
        <time>2023-08-21T05:55:44Z</time>
      </trkpt>
      <trkpt lat="45.68626" lon="6.402">
        <ele>410.8</ele>
        <time>2023-08-21T05:55:45Z</time>
      </trkpt>
      <trkpt lat="45.68627" lon="6.40203">
        <ele>410.8</ele>
        <time>2023-08-21T05:55:46Z</time>
      </trkpt>
      <trkpt lat="45.68628" lon="6.40206">
        <ele>410.8</ele>
        <time>2023-08-21T05:55:47Z</time>
      </trkpt>
      <trkpt lat="45.68629" lon="6.40209">
        <ele>410.8</ele>
        <time>2023-08-21T05:55:48Z</time>
      </trkpt>
      <trkpt lat="45.68631" lon="6.40212">
        <ele>411.6</ele>
        <time>2023-08-21T05:55:49Z</time>
      </trkpt>
      <trkpt lat="45.68632" lon="6.40216">
        <ele>411.6</ele>
        <time>2023-08-21T05:55:50Z</time>
      </trkpt>
      <trkpt lat="45.68633" lon="6.40218">
        <ele>411.6</ele>
        <time>2023-08-21T05:55:51Z</time>
      </trkpt>
      <trkpt lat="45.68635" lon="6.40221">
        <ele>412</ele>
        <time>2023-08-21T05:55:52Z</time>
      </trkpt>
      <trkpt lat="45.68636" lon="6.40225">
        <ele>412</ele>
        <time>2023-08-21T05:55:53Z</time>
      </trkpt>
      <trkpt lat="45.68638" lon="6.40228">
        <ele>412.4</ele>
        <time>2023-08-21T05:55:54Z</time>
      </trkpt>
      <trkpt lat="45.68641" lon="6.40231">
        <ele>412.4</ele>
        <time>2023-08-21T05:55:55Z</time>
      </trkpt>
      <trkpt lat="45.68642" lon="6.40234">
        <ele>412.4</ele>
        <time>2023-08-21T05:55:56Z</time>
      </trkpt>
      <trkpt lat="45.68644" lon="6.40237">
        <ele>412.8</ele>
        <time>2023-08-21T05:55:57Z</time>
      </trkpt>
      <trkpt lat="45.68646" lon="6.40239">
        <ele>412.8</ele>
        <time>2023-08-21T05:55:58Z</time>
      </trkpt>
      <trkpt lat="45.68648" lon="6.40243">
        <ele>413</ele>
        <time>2023-08-21T05:55:59Z</time>
      </trkpt>
      <trkpt lat="45.68649" lon="6.40247">
        <ele>413</ele>
        <time>2023-08-21T05:56:00Z</time>
      </trkpt>
      <trkpt lat="45.68651" lon="6.40251">
        <ele>413.4</ele>
        <time>2023-08-21T05:56:01Z</time>
      </trkpt>
      <trkpt lat="45.68652" lon="6.40255">
        <ele>413.6</ele>
        <time>2023-08-21T05:56:02Z</time>
      </trkpt>
      <trkpt lat="45.68654" lon="6.40259">
        <ele>413.6</ele>
        <time>2023-08-21T05:56:03Z</time>
      </trkpt>
      <trkpt lat="45.68654" lon="6.40263">
        <ele>413.6</ele>
        <time>2023-08-21T05:56:04Z</time>
      </trkpt>
      <trkpt lat="45.68655" lon="6.40267">
        <ele>414.2</ele>
        <time>2023-08-21T05:56:05Z</time>
      </trkpt>
      <trkpt lat="45.68655" lon="6.40271">
        <ele>414.2</ele>
        <time>2023-08-21T05:56:06Z</time>
      </trkpt>
      <trkpt lat="45.68656" lon="6.40275">
        <ele>414.4</ele>
        <time>2023-08-21T05:56:07Z</time>
      </trkpt>
      <trkpt lat="45.68656" lon="6.40279">
        <ele>414.4</ele>
        <time>2023-08-21T05:56:08Z</time>
      </trkpt>
      <trkpt lat="45.68657" lon="6.40283">
        <ele>414.4</ele>
        <time>2023-08-21T05:56:09Z</time>
      </trkpt>
      <trkpt lat="45.68657" lon="6.40288">
        <ele>415.2</ele>
        <time>2023-08-21T05:56:10Z</time>
      </trkpt>
      <trkpt lat="45.68657" lon="6.40292">
        <ele>415.4</ele>
        <time>2023-08-21T05:56:11Z</time>
      </trkpt>
      <trkpt lat="45.68657" lon="6.40295">
        <ele>415.4</ele>
        <time>2023-08-21T05:56:12Z</time>
      </trkpt>
      <trkpt lat="45.68658" lon="6.40299">
        <ele>415.4</ele>
        <time>2023-08-21T05:56:13Z</time>
      </trkpt>
      <trkpt lat="45.68659" lon="6.40303">
        <ele>416</ele>
        <time>2023-08-21T05:56:14Z</time>
      </trkpt>
      <trkpt lat="45.6866" lon="6.40306">
        <ele>416.2</ele>
        <time>2023-08-21T05:56:15Z</time>
      </trkpt>
      <trkpt lat="45.6866" lon="6.4031">
        <ele>416.2</ele>
        <time>2023-08-21T05:56:16Z</time>
      </trkpt>
      <trkpt lat="45.68661" lon="6.40314">
        <ele>416.2</ele>
        <time>2023-08-21T05:56:17Z</time>
      </trkpt>
      <trkpt lat="45.68661" lon="6.40317">
        <ele>416.2</ele>
        <time>2023-08-21T05:56:18Z</time>
      </trkpt>
      <trkpt lat="45.68661" lon="6.40321">
        <ele>416.8</ele>
        <time>2023-08-21T05:56:19Z</time>
      </trkpt>
      <trkpt lat="45.68662" lon="6.40325">
        <ele>417</ele>
        <time>2023-08-21T05:56:20Z</time>
      </trkpt>
      <trkpt lat="45.68662" lon="6.40329">
        <ele>417</ele>
        <time>2023-08-21T05:56:21Z</time>
      </trkpt>
      <trkpt lat="45.68663" lon="6.40333">
        <ele>417</ele>
        <time>2023-08-21T05:56:22Z</time>
      </trkpt>
      <trkpt lat="45.68664" lon="6.40336">
        <ele>417</ele>
        <time>2023-08-21T05:56:23Z</time>
      </trkpt>
      <trkpt lat="45.68665" lon="6.4034">
        <ele>417.8</ele>
        <time>2023-08-21T05:56:24Z</time>
      </trkpt>
      <trkpt lat="45.68666" lon="6.40344">
        <ele>418</ele>
        <time>2023-08-21T05:56:25Z</time>
      </trkpt>
      <trkpt lat="45.68667" lon="6.40347">
        <ele>418</ele>
        <time>2023-08-21T05:56:26Z</time>
      </trkpt>
      <trkpt lat="45.68667" lon="6.40351">
        <ele>418</ele>
        <time>2023-08-21T05:56:27Z</time>
      </trkpt>
      <trkpt lat="45.68668" lon="6.40355">
        <ele>418.6</ele>
        <time>2023-08-21T05:56:28Z</time>
      </trkpt>
      <trkpt lat="45.68669" lon="6.40358">
        <ele>418.8</ele>
        <time>2023-08-21T05:56:29Z</time>
      </trkpt>
      <trkpt lat="45.6867" lon="6.40362">
        <ele>418.8</ele>
        <time>2023-08-21T05:56:30Z</time>
      </trkpt>
      <trkpt lat="45.68672" lon="6.40365">
        <ele>418.8</ele>
        <time>2023-08-21T05:56:31Z</time>
      </trkpt>
      <trkpt lat="45.68674" lon="6.40368">
        <ele>418.8</ele>
        <time>2023-08-21T05:56:32Z</time>
      </trkpt>
      <trkpt lat="45.68676" lon="6.40371">
        <ele>419.2</ele>
        <time>2023-08-21T05:56:33Z</time>
      </trkpt>
      <trkpt lat="45.68678" lon="6.40374">
        <ele>419.6</ele>
        <time>2023-08-21T05:56:34Z</time>
      </trkpt>
      <trkpt lat="45.6868" lon="6.40377">
        <ele>419.6</ele>
        <time>2023-08-21T05:56:35Z</time>
      </trkpt>
      <trkpt lat="45.68682" lon="6.4038">
        <ele>419.6</ele>
        <time>2023-08-21T05:56:36Z</time>
      </trkpt>
      <trkpt lat="45.68685" lon="6.40382">
        <ele>420</ele>
        <time>2023-08-21T05:56:37Z</time>
      </trkpt>
      <trkpt lat="45.68688" lon="6.40384">
        <ele>420.2</ele>
        <time>2023-08-21T05:56:38Z</time>
      </trkpt>
      <trkpt lat="45.6869" lon="6.40387">
        <ele>420.2</ele>
        <time>2023-08-21T05:56:39Z</time>
      </trkpt>
      <trkpt lat="45.68692" lon="6.40389">
        <ele>420.2</ele>
        <time>2023-08-21T05:56:40Z</time>
      </trkpt>
      <trkpt lat="45.68694" lon="6.40392">
        <ele>420.2</ele>
        <time>2023-08-21T05:56:41Z</time>
      </trkpt>
      <trkpt lat="45.68697" lon="6.40394">
        <ele>420.8</ele>
        <time>2023-08-21T05:56:42Z</time>
      </trkpt>
      <trkpt lat="45.68699" lon="6.40395">
        <ele>420.8</ele>
        <time>2023-08-21T05:56:43Z</time>
      </trkpt>
      <trkpt lat="45.68702" lon="6.40397">
        <ele>420.8</ele>
        <time>2023-08-21T05:56:44Z</time>
      </trkpt>
      <trkpt lat="45.68704" lon="6.40399">
        <ele>420.8</ele>
        <time>2023-08-21T05:56:45Z</time>
      </trkpt>
      <trkpt lat="45.68707" lon="6.40401">
        <ele>421.4</ele>
        <time>2023-08-21T05:56:46Z</time>
      </trkpt>
      <trkpt lat="45.68709" lon="6.40402">
        <ele>421.8</ele>
        <time>2023-08-21T05:56:47Z</time>
      </trkpt>
      <trkpt lat="45.68711" lon="6.40403">
        <ele>421.8</ele>
        <time>2023-08-21T05:56:48Z</time>
      </trkpt>
      <trkpt lat="45.68714" lon="6.40405">
        <ele>421.8</ele>
        <time>2023-08-21T05:56:49Z</time>
      </trkpt>
      <trkpt lat="45.68716" lon="6.40407">
        <ele>422.4</ele>
        <time>2023-08-21T05:56:50Z</time>
      </trkpt>
      <trkpt lat="45.68719" lon="6.40408">
        <ele>422.8</ele>
        <time>2023-08-21T05:56:51Z</time>
      </trkpt>
      <trkpt lat="45.68721" lon="6.4041">
        <ele>422.8</ele>
        <time>2023-08-21T05:56:52Z</time>
      </trkpt>
      <trkpt lat="45.68723" lon="6.40412">
        <ele>422.8</ele>
        <time>2023-08-21T05:56:53Z</time>
      </trkpt>
      <trkpt lat="45.68726" lon="6.40413">
        <ele>422.8</ele>
        <time>2023-08-21T05:56:54Z</time>
      </trkpt>
      <trkpt lat="45.68729" lon="6.40415">
        <ele>422.8</ele>
        <time>2023-08-21T05:56:55Z</time>
      </trkpt>
      <trkpt lat="45.68731" lon="6.40416">
        <ele>423.2</ele>
        <time>2023-08-21T05:56:56Z</time>
      </trkpt>
      <trkpt lat="45.68734" lon="6.40418">
        <ele>423.2</ele>
        <time>2023-08-21T05:56:57Z</time>
      </trkpt>
      <trkpt lat="45.68736" lon="6.4042">
        <ele>423.2</ele>
        <time>2023-08-21T05:56:58Z</time>
      </trkpt>
      <trkpt lat="45.68739" lon="6.40421">
        <ele>424</ele>
        <time>2023-08-21T05:56:59Z</time>
      </trkpt>
      <trkpt lat="45.68742" lon="6.40422">
        <ele>424.2</ele>
        <time>2023-08-21T05:57:00Z</time>
      </trkpt>
      <trkpt lat="45.68745" lon="6.40424">
        <ele>424.2</ele>
        <time>2023-08-21T05:57:01Z</time>
      </trkpt>
      <trkpt lat="45.68748" lon="6.40425">
        <ele>424.2</ele>
        <time>2023-08-21T05:57:02Z</time>
      </trkpt>
      <trkpt lat="45.6875" lon="6.40426">
        <ele>424.2</ele>
        <time>2023-08-21T05:57:03Z</time>
      </trkpt>
      <trkpt lat="45.68753" lon="6.40428">
        <ele>424.6</ele>
        <time>2023-08-21T05:57:04Z</time>
      </trkpt>
      <trkpt lat="45.68756" lon="6.40429">
        <ele>424.6</ele>
        <time>2023-08-21T05:57:05Z</time>
      </trkpt>
      <trkpt lat="45.68758" lon="6.40431">
        <ele>424.6</ele>
        <time>2023-08-21T05:57:06Z</time>
      </trkpt>
      <trkpt lat="45.68761" lon="6.40434">
        <ele>424.6</ele>
        <time>2023-08-21T05:57:07Z</time>
      </trkpt>
      <trkpt lat="45.68763" lon="6.40436">
        <ele>424.6</ele>
        <time>2023-08-21T05:57:08Z</time>
      </trkpt>
      <trkpt lat="45.68765" lon="6.40438">
        <ele>425.4</ele>
        <time>2023-08-21T05:57:09Z</time>
      </trkpt>
      <trkpt lat="45.68767" lon="6.40439">
        <ele>425.4</ele>
        <time>2023-08-21T05:57:10Z</time>
      </trkpt>
      <trkpt lat="45.68769" lon="6.40442">
        <ele>425.4</ele>
        <time>2023-08-21T05:57:11Z</time>
      </trkpt>
      <trkpt lat="45.68771" lon="6.40445">
        <ele>425.4</ele>
        <time>2023-08-21T05:57:12Z</time>
      </trkpt>
      <trkpt lat="45.68772" lon="6.40448">
        <ele>426.2</ele>
        <time>2023-08-21T05:57:13Z</time>
      </trkpt>
      <trkpt lat="45.68774" lon="6.4045">
        <ele>426.6</ele>
        <time>2023-08-21T05:57:14Z</time>
      </trkpt>
      <trkpt lat="45.68776" lon="6.40453">
        <ele>426.6</ele>
        <time>2023-08-21T05:57:15Z</time>
      </trkpt>
      <trkpt lat="45.68777" lon="6.40455">
        <ele>426.6</ele>
        <time>2023-08-21T05:57:16Z</time>
      </trkpt>
      <trkpt lat="45.68778" lon="6.40458">
        <ele>426.6</ele>
        <time>2023-08-21T05:57:17Z</time>
      </trkpt>
      <trkpt lat="45.68779" lon="6.40461">
        <ele>426.8</ele>
        <time>2023-08-21T05:57:18Z</time>
      </trkpt>
      <trkpt lat="45.6878" lon="6.40464">
        <ele>427.4</ele>
        <time>2023-08-21T05:57:19Z</time>
      </trkpt>
      <trkpt lat="45.68781" lon="6.40467">
        <ele>427.4</ele>
        <time>2023-08-21T05:57:20Z</time>
      </trkpt>
      <trkpt lat="45.68782" lon="6.40471">
        <ele>427.4</ele>
        <time>2023-08-21T05:57:21Z</time>
      </trkpt>
      <trkpt lat="45.68783" lon="6.40474">
        <ele>427.8</ele>
        <time>2023-08-21T05:57:22Z</time>
      </trkpt>
      <trkpt lat="45.68784" lon="6.40477">
        <ele>428</ele>
        <time>2023-08-21T05:57:23Z</time>
      </trkpt>
      <trkpt lat="45.68786" lon="6.4048">
        <ele>428</ele>
        <time>2023-08-21T05:57:24Z</time>
      </trkpt>
      <trkpt lat="45.68787" lon="6.40483">
        <ele>428</ele>
        <time>2023-08-21T05:57:25Z</time>
      </trkpt>
      <trkpt lat="45.68789" lon="6.40486">
        <ele>428</ele>
        <time>2023-08-21T05:57:26Z</time>
      </trkpt>
      <trkpt lat="45.6879" lon="6.4049">
        <ele>428.8</ele>
        <time>2023-08-21T05:57:27Z</time>
      </trkpt>
      <trkpt lat="45.68792" lon="6.40492">
        <ele>428.8</ele>
        <time>2023-08-21T05:57:28Z</time>
      </trkpt>
      <trkpt lat="45.68793" lon="6.40495">
        <ele>428.8</ele>
        <time>2023-08-21T05:57:29Z</time>
      </trkpt>
      <trkpt lat="45.68795" lon="6.40497">
        <ele>428.8</ele>
        <time>2023-08-21T05:57:30Z</time>
      </trkpt>
      <trkpt lat="45.68797" lon="6.405">
        <ele>429.2</ele>
        <time>2023-08-21T05:57:31Z</time>
      </trkpt>
      <trkpt lat="45.68799" lon="6.40502">
        <ele>429.4</ele>
        <time>2023-08-21T05:57:32Z</time>
      </trkpt>
      <trkpt lat="45.688" lon="6.40504">
        <ele>429.4</ele>
        <time>2023-08-21T05:57:33Z</time>
      </trkpt>
      <trkpt lat="45.68802" lon="6.40506">
        <ele>429.4</ele>
        <time>2023-08-21T05:57:34Z</time>
      </trkpt>
      <trkpt lat="45.68804" lon="6.40508">
        <ele>430</ele>
        <time>2023-08-21T05:57:35Z</time>
      </trkpt>
      <trkpt lat="45.68806" lon="6.4051">
        <ele>430.2</ele>
        <time>2023-08-21T05:57:36Z</time>
      </trkpt>
      <trkpt lat="45.68809" lon="6.40512">
        <ele>430.2</ele>
        <time>2023-08-21T05:57:37Z</time>
      </trkpt>
      <trkpt lat="45.68811" lon="6.40513">
        <ele>430.2</ele>
        <time>2023-08-21T05:57:38Z</time>
      </trkpt>
      <trkpt lat="45.68814" lon="6.40512">
        <ele>430.6</ele>
        <time>2023-08-21T05:57:39Z</time>
      </trkpt>
      <trkpt lat="45.68817" lon="6.40512">
        <ele>430.6</ele>
        <time>2023-08-21T05:57:40Z</time>
      </trkpt>
      <trkpt lat="45.68819" lon="6.40512">
        <ele>431</ele>
        <time>2023-08-21T05:57:41Z</time>
      </trkpt>
      <trkpt lat="45.68822" lon="6.40512">
        <ele>431</ele>
        <time>2023-08-21T05:57:42Z</time>
      </trkpt>
      <trkpt lat="45.68824" lon="6.40512">
        <ele>431</ele>
        <time>2023-08-21T05:57:43Z</time>
      </trkpt>
      <trkpt lat="45.68827" lon="6.40511">
        <ele>431.4</ele>
        <time>2023-08-21T05:57:44Z</time>
      </trkpt>
      <trkpt lat="45.6883" lon="6.40511">
        <ele>431.6</ele>
        <time>2023-08-21T05:57:45Z</time>
      </trkpt>
      <trkpt lat="45.68832" lon="6.40511">
        <ele>431.6</ele>
        <time>2023-08-21T05:57:46Z</time>
      </trkpt>
      <trkpt lat="45.68835" lon="6.40511">
        <ele>431.6</ele>
        <time>2023-08-21T05:57:47Z</time>
      </trkpt>
      <trkpt lat="45.68837" lon="6.40511">
        <ele>432</ele>
        <time>2023-08-21T05:57:48Z</time>
      </trkpt>
      <trkpt lat="45.6884" lon="6.4051">
        <ele>432.2</ele>
        <time>2023-08-21T05:57:49Z</time>
      </trkpt>
      <trkpt lat="45.68843" lon="6.4051">
        <ele>432.2</ele>
        <time>2023-08-21T05:57:50Z</time>
      </trkpt>
      <trkpt lat="45.68845" lon="6.4051">
        <ele>432.2</ele>
        <time>2023-08-21T05:57:51Z</time>
      </trkpt>
      <trkpt lat="45.68848" lon="6.40511">
        <ele>432.2</ele>
        <time>2023-08-21T05:57:52Z</time>
      </trkpt>
      <trkpt lat="45.6885" lon="6.40512">
        <ele>432.2</ele>
        <time>2023-08-21T05:57:53Z</time>
      </trkpt>
      <trkpt lat="45.68853" lon="6.40513">
        <ele>432.6</ele>
        <time>2023-08-21T05:57:54Z</time>
      </trkpt>
      <trkpt lat="45.68855" lon="6.40515">
        <ele>433</ele>
        <time>2023-08-21T05:57:55Z</time>
      </trkpt>
      <trkpt lat="45.68857" lon="6.40517">
        <ele>433</ele>
        <time>2023-08-21T05:57:56Z</time>
      </trkpt>
      <trkpt lat="45.68859" lon="6.40519">
        <ele>433</ele>
        <time>2023-08-21T05:57:57Z</time>
      </trkpt>
      <trkpt lat="45.68861" lon="6.40521">
        <ele>433.8</ele>
        <time>2023-08-21T05:57:58Z</time>
      </trkpt>
      <trkpt lat="45.68862" lon="6.40524">
        <ele>434</ele>
        <time>2023-08-21T05:57:59Z</time>
      </trkpt>
      <trkpt lat="45.68864" lon="6.40527">
        <ele>434</ele>
        <time>2023-08-21T05:58:00Z</time>
      </trkpt>
      <trkpt lat="45.68865" lon="6.4053">
        <ele>434</ele>
        <time>2023-08-21T05:58:01Z</time>
      </trkpt>
      <trkpt lat="45.68867" lon="6.40533">
        <ele>434.8</ele>
        <time>2023-08-21T05:58:02Z</time>
      </trkpt>
      <trkpt lat="45.68868" lon="6.40536">
        <ele>435</ele>
        <time>2023-08-21T05:58:03Z</time>
      </trkpt>
      <trkpt lat="45.68869" lon="6.40539">
        <ele>435</ele>
        <time>2023-08-21T05:58:04Z</time>
      </trkpt>
      <trkpt lat="45.6887" lon="6.40542">
        <ele>435</ele>
        <time>2023-08-21T05:58:05Z</time>
      </trkpt>
      <trkpt lat="45.68871" lon="6.40545">
        <ele>435</ele>
        <time>2023-08-21T05:58:06Z</time>
      </trkpt>
      <trkpt lat="45.68872" lon="6.40549">
        <ele>435</ele>
        <time>2023-08-21T05:58:07Z</time>
      </trkpt>
      <trkpt lat="45.68873" lon="6.40552">
        <ele>435.8</ele>
        <time>2023-08-21T05:58:08Z</time>
      </trkpt>
      <trkpt lat="45.68874" lon="6.40556">
        <ele>435.8</ele>
        <time>2023-08-21T05:58:09Z</time>
      </trkpt>
      <trkpt lat="45.68875" lon="6.40559">
        <ele>435.8</ele>
        <time>2023-08-21T05:58:10Z</time>
      </trkpt>
      <trkpt lat="45.68875" lon="6.40563">
        <ele>436.4</ele>
        <time>2023-08-21T05:58:11Z</time>
      </trkpt>
      <trkpt lat="45.68876" lon="6.40566">
        <ele>436.4</ele>
        <time>2023-08-21T05:58:12Z</time>
      </trkpt>
      <trkpt lat="45.68877" lon="6.4057">
        <ele>436.4</ele>
        <time>2023-08-21T05:58:13Z</time>
      </trkpt>
      <trkpt lat="45.68877" lon="6.40573">
        <ele>436.4</ele>
        <time>2023-08-21T05:58:14Z</time>
      </trkpt>
      <trkpt lat="45.68878" lon="6.40576">
        <ele>437.2</ele>
        <time>2023-08-21T05:58:15Z</time>
      </trkpt>
      <trkpt lat="45.6888" lon="6.40579">
        <ele>437.2</ele>
        <time>2023-08-21T05:58:16Z</time>
      </trkpt>
      <trkpt lat="45.68881" lon="6.40583">
        <ele>437.2</ele>
        <time>2023-08-21T05:58:17Z</time>
      </trkpt>
      <trkpt lat="45.68882" lon="6.40586">
        <ele>437.2</ele>
        <time>2023-08-21T05:58:18Z</time>
      </trkpt>
      <trkpt lat="45.68883" lon="6.40589">
        <ele>437.2</ele>
        <time>2023-08-21T05:58:19Z</time>
      </trkpt>
      <trkpt lat="45.68885" lon="6.40592">
        <ele>438</ele>
        <time>2023-08-21T05:58:20Z</time>
      </trkpt>
      <trkpt lat="45.68887" lon="6.40595">
        <ele>438</ele>
        <time>2023-08-21T05:58:21Z</time>
      </trkpt>
      <trkpt lat="45.68889" lon="6.40598">
        <ele>438</ele>
        <time>2023-08-21T05:58:22Z</time>
      </trkpt>
      <trkpt lat="45.68891" lon="6.406">
        <ele>438</ele>
        <time>2023-08-21T05:58:23Z</time>
      </trkpt>
      <trkpt lat="45.68893" lon="6.40602">
        <ele>438.4</ele>
        <time>2023-08-21T05:58:24Z</time>
      </trkpt>
      <trkpt lat="45.68895" lon="6.40604">
        <ele>438.8</ele>
        <time>2023-08-21T05:58:25Z</time>
      </trkpt>
      <trkpt lat="45.68898" lon="6.40606">
        <ele>438.8</ele>
        <time>2023-08-21T05:58:26Z</time>
      </trkpt>
      <trkpt lat="45.689" lon="6.40607">
        <ele>438.8</ele>
        <time>2023-08-21T05:58:27Z</time>
      </trkpt>
      <trkpt lat="45.68903" lon="6.40608">
        <ele>438.8</ele>
        <time>2023-08-21T05:58:28Z</time>
      </trkpt>
      <trkpt lat="45.68906" lon="6.40609">
        <ele>438.8</ele>
        <time>2023-08-21T05:58:29Z</time>
      </trkpt>
      <trkpt lat="45.68909" lon="6.40609">
        <ele>439.2</ele>
        <time>2023-08-21T05:58:30Z</time>
      </trkpt>
      <trkpt lat="45.68911" lon="6.40609">
        <ele>439.2</ele>
        <time>2023-08-21T05:58:31Z</time>
      </trkpt>
      <trkpt lat="45.68914" lon="6.40608">
        <ele>439.2</ele>
        <time>2023-08-21T05:58:32Z</time>
      </trkpt>
      <trkpt lat="45.68917" lon="6.40608">
        <ele>439.2</ele>
        <time>2023-08-21T05:58:33Z</time>
      </trkpt>
      <trkpt lat="45.6892" lon="6.40607">
        <ele>439.8</ele>
        <time>2023-08-21T05:58:34Z</time>
      </trkpt>
      <trkpt lat="45.68923" lon="6.40606">
        <ele>439.8</ele>
        <time>2023-08-21T05:58:35Z</time>
      </trkpt>
      <trkpt lat="45.68926" lon="6.40605">
        <ele>439.8</ele>
        <time>2023-08-21T05:58:36Z</time>
      </trkpt>
      <trkpt lat="45.68928" lon="6.40603">
        <ele>439.8</ele>
        <time>2023-08-21T05:58:37Z</time>
      </trkpt>
      <trkpt lat="45.68931" lon="6.40601">
        <ele>439.8</ele>
        <time>2023-08-21T05:58:38Z</time>
      </trkpt>
      <trkpt lat="45.68933" lon="6.40599">
        <ele>440.4</ele>
        <time>2023-08-21T05:58:39Z</time>
      </trkpt>
      <trkpt lat="45.68936" lon="6.40597">
        <ele>440.4</ele>
        <time>2023-08-21T05:58:40Z</time>
      </trkpt>
      <trkpt lat="45.68938" lon="6.40595">
        <ele>440.4</ele>
        <time>2023-08-21T05:58:41Z</time>
      </trkpt>
      <trkpt lat="45.68941" lon="6.40593">
        <ele>440.4</ele>
        <time>2023-08-21T05:58:42Z</time>
      </trkpt>
      <trkpt lat="45.68944" lon="6.40591">
        <ele>441</ele>
        <time>2023-08-21T05:58:43Z</time>
      </trkpt>
      <trkpt lat="45.68946" lon="6.4059">
        <ele>441.2</ele>
        <time>2023-08-21T05:58:44Z</time>
      </trkpt>
      <trkpt lat="45.68948" lon="6.40589">
        <ele>441.2</ele>
        <time>2023-08-21T05:58:45Z</time>
      </trkpt>
      <trkpt lat="45.68951" lon="6.40588">
        <ele>441.2</ele>
        <time>2023-08-21T05:58:46Z</time>
      </trkpt>
      <trkpt lat="45.68953" lon="6.40589">
        <ele>441.8</ele>
        <time>2023-08-21T05:58:47Z</time>
      </trkpt>
      <trkpt lat="45.68956" lon="6.40589">
        <ele>442</ele>
        <time>2023-08-21T05:58:48Z</time>
      </trkpt>
      <trkpt lat="45.68959" lon="6.4059">
        <ele>442</ele>
        <time>2023-08-21T05:58:49Z</time>
      </trkpt>
      <trkpt lat="45.68961" lon="6.40591">
        <ele>442</ele>
        <time>2023-08-21T05:58:50Z</time>
      </trkpt>
      <trkpt lat="45.68964" lon="6.40591">
        <ele>442</ele>
        <time>2023-08-21T05:58:51Z</time>
      </trkpt>
      <trkpt lat="45.68967" lon="6.40593">
        <ele>442.8</ele>
        <time>2023-08-21T05:58:52Z</time>
      </trkpt>
      <trkpt lat="45.68969" lon="6.40594">
        <ele>442.8</ele>
        <time>2023-08-21T05:58:53Z</time>
      </trkpt>
      <trkpt lat="45.68972" lon="6.40595">
        <ele>442.8</ele>
        <time>2023-08-21T05:58:54Z</time>
      </trkpt>
      <trkpt lat="45.68974" lon="6.40597">
        <ele>442.8</ele>
        <time>2023-08-21T05:58:55Z</time>
      </trkpt>
      <trkpt lat="45.68976" lon="6.40598">
        <ele>443.4</ele>
        <time>2023-08-21T05:58:56Z</time>
      </trkpt>
      <trkpt lat="45.68979" lon="6.406">
        <ele>443.8</ele>
        <time>2023-08-21T05:58:57Z</time>
      </trkpt>
      <trkpt lat="45.68981" lon="6.40602">
        <ele>443.8</ele>
        <time>2023-08-21T05:58:58Z</time>
      </trkpt>
      <trkpt lat="45.68983" lon="6.40603">
        <ele>443.8</ele>
        <time>2023-08-21T05:58:59Z</time>
      </trkpt>
      <trkpt lat="45.68985" lon="6.40605">
        <ele>443.8</ele>
        <time>2023-08-21T05:59:00Z</time>
      </trkpt>
      <trkpt lat="45.68988" lon="6.40606">
        <ele>444.2</ele>
        <time>2023-08-21T05:59:01Z</time>
      </trkpt>
      <trkpt lat="45.6899" lon="6.40608">
        <ele>444.6</ele>
        <time>2023-08-21T05:59:02Z</time>
      </trkpt>
      <trkpt lat="45.68992" lon="6.4061">
        <ele>444.6</ele>
        <time>2023-08-21T05:59:03Z</time>
      </trkpt>
      <trkpt lat="45.68995" lon="6.40612">
        <ele>444.6</ele>
        <time>2023-08-21T05:59:04Z</time>
      </trkpt>
      <trkpt lat="45.68997" lon="6.40614">
        <ele>445.2</ele>
        <time>2023-08-21T05:59:05Z</time>
      </trkpt>
      <trkpt lat="45.69" lon="6.40616">
        <ele>445.4</ele>
        <time>2023-08-21T05:59:06Z</time>
      </trkpt>
      <trkpt lat="45.69002" lon="6.40617">
        <ele>445.4</ele>
        <time>2023-08-21T05:59:07Z</time>
      </trkpt>
      <trkpt lat="45.69005" lon="6.40618">
        <ele>445.4</ele>
        <time>2023-08-21T05:59:08Z</time>
      </trkpt>
      <trkpt lat="45.69007" lon="6.4062">
        <ele>445.8</ele>
        <time>2023-08-21T05:59:09Z</time>
      </trkpt>
      <trkpt lat="45.6901" lon="6.40621">
        <ele>446.2</ele>
        <time>2023-08-21T05:59:10Z</time>
      </trkpt>
      <trkpt lat="45.69012" lon="6.40623">
        <ele>446.2</ele>
        <time>2023-08-21T05:59:11Z</time>
      </trkpt>
      <trkpt lat="45.69014" lon="6.40625">
        <ele>446.2</ele>
        <time>2023-08-21T05:59:12Z</time>
      </trkpt>
      <trkpt lat="45.69017" lon="6.40627">
        <ele>446.2</ele>
        <time>2023-08-21T05:59:13Z</time>
      </trkpt>
      <trkpt lat="45.69019" lon="6.40628">
        <ele>446.6</ele>
        <time>2023-08-21T05:59:14Z</time>
      </trkpt>
      <trkpt lat="45.69021" lon="6.4063">
        <ele>446.8</ele>
        <time>2023-08-21T05:59:15Z</time>
      </trkpt>
      <trkpt lat="45.69022" lon="6.40634">
        <ele>446.8</ele>
        <time>2023-08-21T05:59:16Z</time>
      </trkpt>
      <trkpt lat="45.69023" lon="6.40636">
        <ele>446.8</ele>
        <time>2023-08-21T05:59:17Z</time>
      </trkpt>
      <trkpt lat="45.69025" lon="6.40639">
        <ele>446.8</ele>
        <time>2023-08-21T05:59:18Z</time>
      </trkpt>
      <trkpt lat="45.69026" lon="6.40642">
        <ele>446.8</ele>
        <time>2023-08-21T05:59:19Z</time>
      </trkpt>
      <trkpt lat="45.69027" lon="6.40645">
        <ele>447.8</ele>
        <time>2023-08-21T05:59:20Z</time>
      </trkpt>
      <trkpt lat="45.69028" lon="6.40648">
        <ele>447.8</ele>
        <time>2023-08-21T05:59:21Z</time>
      </trkpt>
      <trkpt lat="45.69029" lon="6.40651">
        <ele>447.8</ele>
        <time>2023-08-21T05:59:22Z</time>
      </trkpt>
      <trkpt lat="45.6903" lon="6.40655">
        <ele>448.6</ele>
        <time>2023-08-21T05:59:23Z</time>
      </trkpt>
      <trkpt lat="45.69031" lon="6.40659">
        <ele>448.6</ele>
        <time>2023-08-21T05:59:24Z</time>
      </trkpt>
      <trkpt lat="45.69031" lon="6.40662">
        <ele>448.8</ele>
        <time>2023-08-21T05:59:25Z</time>
      </trkpt>
      <trkpt lat="45.6903" lon="6.40666">
        <ele>448.8</ele>
        <time>2023-08-21T05:59:26Z</time>
      </trkpt>
      <trkpt lat="45.6903" lon="6.4067">
        <ele>448.8</ele>
        <time>2023-08-21T05:59:27Z</time>
      </trkpt>
      <trkpt lat="45.69029" lon="6.40673">
        <ele>449.4</ele>
        <time>2023-08-21T05:59:28Z</time>
      </trkpt>
      <trkpt lat="45.69029" lon="6.40677">
        <ele>449.4</ele>
        <time>2023-08-21T05:59:29Z</time>
      </trkpt>
      <trkpt lat="45.69027" lon="6.4068">
        <ele>449.6</ele>
        <time>2023-08-21T05:59:30Z</time>
      </trkpt>
      <trkpt lat="45.69026" lon="6.40683">
        <ele>449.6</ele>
        <time>2023-08-21T05:59:31Z</time>
      </trkpt>
      <trkpt lat="45.69025" lon="6.40686">
        <ele>450.2</ele>
        <time>2023-08-21T05:59:32Z</time>
      </trkpt>
      <trkpt lat="45.69023" lon="6.4069">
        <ele>450.2</ele>
        <time>2023-08-21T05:59:33Z</time>
      </trkpt>
      <trkpt lat="45.69021" lon="6.40693">
        <ele>450.2</ele>
        <time>2023-08-21T05:59:34Z</time>
      </trkpt>
      <trkpt lat="45.6902" lon="6.40696">
        <ele>450.2</ele>
        <time>2023-08-21T05:59:35Z</time>
      </trkpt>
      <trkpt lat="45.69018" lon="6.407">
        <ele>451</ele>
        <time>2023-08-21T05:59:36Z</time>
      </trkpt>
      <trkpt lat="45.69017" lon="6.40703">
        <ele>451</ele>
        <time>2023-08-21T05:59:37Z</time>
      </trkpt>
      <trkpt lat="45.69015" lon="6.40706">
        <ele>451</ele>
        <time>2023-08-21T05:59:38Z</time>
      </trkpt>
      <trkpt lat="45.69013" lon="6.40709">
        <ele>451</ele>
        <time>2023-08-21T05:59:39Z</time>
      </trkpt>
      <trkpt lat="45.69012" lon="6.40712">
        <ele>451</ele>
        <time>2023-08-21T05:59:40Z</time>
      </trkpt>
      <trkpt lat="45.69011" lon="6.40715">
        <ele>451.6</ele>
        <time>2023-08-21T05:59:41Z</time>
      </trkpt>
      <trkpt lat="45.69009" lon="6.40719">
        <ele>451.8</ele>
        <time>2023-08-21T05:59:42Z</time>
      </trkpt>
      <trkpt lat="45.69008" lon="6.40722">
        <ele>451.8</ele>
        <time>2023-08-21T05:59:43Z</time>
      </trkpt>
      <trkpt lat="45.69007" lon="6.40726">
        <ele>451.8</ele>
        <time>2023-08-21T05:59:44Z</time>
      </trkpt>
      <trkpt lat="45.69006" lon="6.40729">
        <ele>451.8</ele>
        <time>2023-08-21T05:59:45Z</time>
      </trkpt>
      <trkpt lat="45.69006" lon="6.40733">
        <ele>452.8</ele>
        <time>2023-08-21T05:59:46Z</time>
      </trkpt>
      <trkpt lat="45.69005" lon="6.40737">
        <ele>452.8</ele>
        <time>2023-08-21T05:59:47Z</time>
      </trkpt>
      <trkpt lat="45.69005" lon="6.40741">
        <ele>452.8</ele>
        <time>2023-08-21T05:59:48Z</time>
      </trkpt>
      <trkpt lat="45.69005" lon="6.40744">
        <ele>453.2</ele>
        <time>2023-08-21T05:59:49Z</time>
      </trkpt>
      <trkpt lat="45.69005" lon="6.40748">
        <ele>453.2</ele>
        <time>2023-08-21T05:59:50Z</time>
      </trkpt>
      <trkpt lat="45.69005" lon="6.40751">
        <ele>453.4</ele>
        <time>2023-08-21T05:59:51Z</time>
      </trkpt>
      <trkpt lat="45.69005" lon="6.40755">
        <ele>453.4</ele>
        <time>2023-08-21T05:59:52Z</time>
      </trkpt>
      <trkpt lat="45.69005" lon="6.40759">
        <ele>453.4</ele>
        <time>2023-08-21T05:59:53Z</time>
      </trkpt>
      <trkpt lat="45.69005" lon="6.40763">
        <ele>453.4</ele>
        <time>2023-08-21T05:59:54Z</time>
      </trkpt>
      <trkpt lat="45.69005" lon="6.40767">
        <ele>454.2</ele>
        <time>2023-08-21T05:59:55Z</time>
      </trkpt>
      <trkpt lat="45.69006" lon="6.4077">
        <ele>454.2</ele>
        <time>2023-08-21T05:59:56Z</time>
      </trkpt>
      <trkpt lat="45.69007" lon="6.40774">
        <ele>454.2</ele>
        <time>2023-08-21T05:59:57Z</time>
      </trkpt>
      <trkpt lat="45.69008" lon="6.40778">
        <ele>454.2</ele>
        <time>2023-08-21T05:59:58Z</time>
      </trkpt>
      <trkpt lat="45.69008" lon="6.40782">
        <ele>454.8</ele>
        <time>2023-08-21T05:59:59Z</time>
      </trkpt>
      <trkpt lat="45.69009" lon="6.40785">
        <ele>455</ele>
        <time>2023-08-21T06:00:00Z</time>
      </trkpt>
      <trkpt lat="45.6901" lon="6.40789">
        <ele>455</ele>
        <time>2023-08-21T06:00:01Z</time>
      </trkpt>
      <trkpt lat="45.69011" lon="6.40793">
        <ele>455</ele>
        <time>2023-08-21T06:00:02Z</time>
      </trkpt>
      <trkpt lat="45.69012" lon="6.40796">
        <ele>455</ele>
        <time>2023-08-21T06:00:03Z</time>
      </trkpt>
      <trkpt lat="45.69013" lon="6.408">
        <ele>455.6</ele>
        <time>2023-08-21T06:00:04Z</time>
      </trkpt>
      <trkpt lat="45.69015" lon="6.40803">
        <ele>455.6</ele>
        <time>2023-08-21T06:00:05Z</time>
      </trkpt>
      <trkpt lat="45.69016" lon="6.40806">
        <ele>455.8</ele>
        <time>2023-08-21T06:00:06Z</time>
      </trkpt>
      <trkpt lat="45.69017" lon="6.4081">
        <ele>455.8</ele>
        <time>2023-08-21T06:00:07Z</time>
      </trkpt>
      <trkpt lat="45.69018" lon="6.40812">
        <ele>456.4</ele>
        <time>2023-08-21T06:00:08Z</time>
      </trkpt>
      <trkpt lat="45.6902" lon="6.40815">
        <ele>456.6</ele>
        <time>2023-08-21T06:00:09Z</time>
      </trkpt>
      <trkpt lat="45.69022" lon="6.40818">
        <ele>456.6</ele>
        <time>2023-08-21T06:00:10Z</time>
      </trkpt>
      <trkpt lat="45.69024" lon="6.4082">
        <ele>456.6</ele>
        <time>2023-08-21T06:00:11Z</time>
      </trkpt>
      <trkpt lat="45.69026" lon="6.40823">
        <ele>457.2</ele>
        <time>2023-08-21T06:00:12Z</time>
      </trkpt>
      <trkpt lat="45.69028" lon="6.40825">
        <ele>457.2</ele>
        <time>2023-08-21T06:00:13Z</time>
      </trkpt>
      <trkpt lat="45.69031" lon="6.40827">
        <ele>457.2</ele>
        <time>2023-08-21T06:00:14Z</time>
      </trkpt>
      <trkpt lat="45.69033" lon="6.40829">
        <ele>457.2</ele>
        <time>2023-08-21T06:00:15Z</time>
      </trkpt>
      <trkpt lat="45.69035" lon="6.40831">
        <ele>457.2</ele>
        <time>2023-08-21T06:00:16Z</time>
      </trkpt>
      <trkpt lat="45.69037" lon="6.40833">
        <ele>457.8</ele>
        <time>2023-08-21T06:00:17Z</time>
      </trkpt>
      <trkpt lat="45.6904" lon="6.40835">
        <ele>458</ele>
        <time>2023-08-21T06:00:18Z</time>
      </trkpt>
      <trkpt lat="45.69042" lon="6.40837">
        <ele>458</ele>
        <time>2023-08-21T06:00:19Z</time>
      </trkpt>
      <trkpt lat="45.69045" lon="6.40839">
        <ele>458</ele>
        <time>2023-08-21T06:00:20Z</time>
      </trkpt>
      <trkpt lat="45.69047" lon="6.40841">
        <ele>458.6</ele>
        <time>2023-08-21T06:00:21Z</time>
      </trkpt>
      <trkpt lat="45.6905" lon="6.40843">
        <ele>458.8</ele>
        <time>2023-08-21T06:00:22Z</time>
      </trkpt>
      <trkpt lat="45.69052" lon="6.40845">
        <ele>458.8</ele>
        <time>2023-08-21T06:00:23Z</time>
      </trkpt>
      <trkpt lat="45.69054" lon="6.40848">
        <ele>458.8</ele>
        <time>2023-08-21T06:00:24Z</time>
      </trkpt>
      <trkpt lat="45.69057" lon="6.4085">
        <ele>459.2</ele>
        <time>2023-08-21T06:00:25Z</time>
      </trkpt>
      <trkpt lat="45.69059" lon="6.40852">
        <ele>459.2</ele>
        <time>2023-08-21T06:00:26Z</time>
      </trkpt>
      <trkpt lat="45.69062" lon="6.40855">
        <ele>459.6</ele>
        <time>2023-08-21T06:00:27Z</time>
      </trkpt>
      <trkpt lat="45.69064" lon="6.40857">
        <ele>459.6</ele>
        <time>2023-08-21T06:00:28Z</time>
      </trkpt>
      <trkpt lat="45.69067" lon="6.40859">
        <ele>459.6</ele>
        <time>2023-08-21T06:00:29Z</time>
      </trkpt>
      <trkpt lat="45.69069" lon="6.40861">
        <ele>460</ele>
        <time>2023-08-21T06:00:30Z</time>
      </trkpt>
      <trkpt lat="45.69071" lon="6.40863">
        <ele>460.2</ele>
        <time>2023-08-21T06:00:31Z</time>
      </trkpt>
      <trkpt lat="45.69073" lon="6.40865">
        <ele>460.2</ele>
        <time>2023-08-21T06:00:32Z</time>
      </trkpt>
      <trkpt lat="45.69076" lon="6.40868">
        <ele>460.2</ele>
        <time>2023-08-21T06:00:33Z</time>
      </trkpt>
      <trkpt lat="45.69078" lon="6.4087">
        <ele>460.8</ele>
        <time>2023-08-21T06:00:34Z</time>
      </trkpt>
      <trkpt lat="45.6908" lon="6.40872">
        <ele>461</ele>
        <time>2023-08-21T06:00:35Z</time>
      </trkpt>
      <trkpt lat="45.69082" lon="6.40875">
        <ele>461</ele>
        <time>2023-08-21T06:00:36Z</time>
      </trkpt>
      <trkpt lat="45.69084" lon="6.40878">
        <ele>461</ele>
        <time>2023-08-21T06:00:37Z</time>
      </trkpt>
      <trkpt lat="45.69085" lon="6.40881">
        <ele>461.8</ele>
        <time>2023-08-21T06:00:38Z</time>
      </trkpt>
      <trkpt lat="45.69087" lon="6.40884">
        <ele>461.8</ele>
        <time>2023-08-21T06:00:39Z</time>
      </trkpt>
      <trkpt lat="45.69088" lon="6.40888">
        <ele>462</ele>
        <time>2023-08-21T06:00:40Z</time>
      </trkpt>
      <trkpt lat="45.69088" lon="6.40891">
        <ele>462</ele>
        <time>2023-08-21T06:00:41Z</time>
      </trkpt>
      <trkpt lat="45.69088" lon="6.40895">
        <ele>462</ele>
        <time>2023-08-21T06:00:42Z</time>
      </trkpt>
      <trkpt lat="45.69088" lon="6.40899">
        <ele>462</ele>
        <time>2023-08-21T06:00:43Z</time>
      </trkpt>
      <trkpt lat="45.69088" lon="6.40903">
        <ele>462.6</ele>
        <time>2023-08-21T06:00:44Z</time>
      </trkpt>
      <trkpt lat="45.69088" lon="6.40907">
        <ele>462.8</ele>
        <time>2023-08-21T06:00:45Z</time>
      </trkpt>
      <trkpt lat="45.69087" lon="6.40911">
        <ele>462.8</ele>
        <time>2023-08-21T06:00:46Z</time>
      </trkpt>
      <trkpt lat="45.69086" lon="6.40915">
        <ele>462.8</ele>
        <time>2023-08-21T06:00:47Z</time>
      </trkpt>
      <trkpt lat="45.69084" lon="6.40918">
        <ele>462.8</ele>
        <time>2023-08-21T06:00:48Z</time>
      </trkpt>
      <trkpt lat="45.69082" lon="6.40922">
        <ele>463.4</ele>
        <time>2023-08-21T06:00:49Z</time>
      </trkpt>
      <trkpt lat="45.6908" lon="6.40925">
        <ele>463.4</ele>
        <time>2023-08-21T06:00:50Z</time>
      </trkpt>
      <trkpt lat="45.69078" lon="6.40927">
        <ele>463.4</ele>
        <time>2023-08-21T06:00:51Z</time>
      </trkpt>
      <trkpt lat="45.69076" lon="6.40929">
        <ele>464.2</ele>
        <time>2023-08-21T06:00:52Z</time>
      </trkpt>
      <trkpt lat="45.69073" lon="6.40932">
        <ele>464.2</ele>
        <time>2023-08-21T06:00:53Z</time>
      </trkpt>
      <trkpt lat="45.69071" lon="6.40934">
        <ele>464.6</ele>
        <time>2023-08-21T06:00:54Z</time>
      </trkpt>
      <trkpt lat="45.69069" lon="6.40936">
        <ele>464.6</ele>
        <time>2023-08-21T06:00:55Z</time>
      </trkpt>
      <trkpt lat="45.69066" lon="6.40938">
        <ele>464.6</ele>
        <time>2023-08-21T06:00:56Z</time>
      </trkpt>
      <trkpt lat="45.69063" lon="6.40939">
        <ele>465.2</ele>
        <time>2023-08-21T06:00:57Z</time>
      </trkpt>
      <trkpt lat="45.69061" lon="6.4094">
        <ele>465.2</ele>
        <time>2023-08-21T06:00:58Z</time>
      </trkpt>
      <trkpt lat="45.69059" lon="6.40942">
        <ele>465.4</ele>
        <time>2023-08-21T06:00:59Z</time>
      </trkpt>
      <trkpt lat="45.69056" lon="6.40943">
        <ele>465.4</ele>
        <time>2023-08-21T06:01:00Z</time>
      </trkpt>
      <trkpt lat="45.69053" lon="6.40943">
        <ele>466</ele>
        <time>2023-08-21T06:01:01Z</time>
      </trkpt>
      <trkpt lat="45.69051" lon="6.40944">
        <ele>466.2</ele>
        <time>2023-08-21T06:01:02Z</time>
      </trkpt>
      <trkpt lat="45.69048" lon="6.40945">
        <ele>466.2</ele>
        <time>2023-08-21T06:01:03Z</time>
      </trkpt>
      <trkpt lat="45.69045" lon="6.40946">
        <ele>466.2</ele>
        <time>2023-08-21T06:01:04Z</time>
      </trkpt>
      <trkpt lat="45.69042" lon="6.40947">
        <ele>466.2</ele>
        <time>2023-08-21T06:01:05Z</time>
      </trkpt>
      <trkpt lat="45.69039" lon="6.40947">
        <ele>466.6</ele>
        <time>2023-08-21T06:01:06Z</time>
      </trkpt>
      <trkpt lat="45.69037" lon="6.40948">
        <ele>466.8</ele>
        <time>2023-08-21T06:01:07Z</time>
      </trkpt>
      <trkpt lat="45.69035" lon="6.40949">
        <ele>466.8</ele>
        <time>2023-08-21T06:01:08Z</time>
      </trkpt>
      <trkpt lat="45.69032" lon="6.40951">
        <ele>466.8</ele>
        <time>2023-08-21T06:01:09Z</time>
      </trkpt>
      <trkpt lat="45.6903" lon="6.40952">
        <ele>467.6</ele>
        <time>2023-08-21T06:01:10Z</time>
      </trkpt>
      <trkpt lat="45.69027" lon="6.40953">
        <ele>467.8</ele>
        <time>2023-08-21T06:01:11Z</time>
      </trkpt>
      <trkpt lat="45.69025" lon="6.40955">
        <ele>467.8</ele>
        <time>2023-08-21T06:01:12Z</time>
      </trkpt>
      <trkpt lat="45.69023" lon="6.40956">
        <ele>467.8</ele>
        <time>2023-08-21T06:01:13Z</time>
      </trkpt>
      <trkpt lat="45.69021" lon="6.40958">
        <ele>468.6</ele>
        <time>2023-08-21T06:01:14Z</time>
      </trkpt>
      <trkpt lat="45.69019" lon="6.40959">
        <ele>468.6</ele>
        <time>2023-08-21T06:01:15Z</time>
      </trkpt>
      <trkpt lat="45.69017" lon="6.40961">
        <ele>468.6</ele>
        <time>2023-08-21T06:01:16Z</time>
      </trkpt>
      <trkpt lat="45.69015" lon="6.40963">
        <ele>468.6</ele>
        <time>2023-08-21T06:01:17Z</time>
      </trkpt>
      <trkpt lat="45.69013" lon="6.40965">
        <ele>468.6</ele>
        <time>2023-08-21T06:01:18Z</time>
      </trkpt>
      <trkpt lat="45.69012" lon="6.40968">
        <ele>469.4</ele>
        <time>2023-08-21T06:01:19Z</time>
      </trkpt>
      <trkpt lat="45.6901" lon="6.40971">
        <ele>469.6</ele>
        <time>2023-08-21T06:01:20Z</time>
      </trkpt>
      <trkpt lat="45.69009" lon="6.40974">
        <ele>469.6</ele>
        <time>2023-08-21T06:01:21Z</time>
      </trkpt>
      <trkpt lat="45.69007" lon="6.40977">
        <ele>469.6</ele>
        <time>2023-08-21T06:01:22Z</time>
      </trkpt>
      <trkpt lat="45.69006" lon="6.40981">
        <ele>469.6</ele>
        <time>2023-08-21T06:01:23Z</time>
      </trkpt>
      <trkpt lat="45.69005" lon="6.40984">
        <ele>470.2</ele>
        <time>2023-08-21T06:01:24Z</time>
      </trkpt>
      <trkpt lat="45.69004" lon="6.40988">
        <ele>470.4</ele>
        <time>2023-08-21T06:01:25Z</time>
      </trkpt>
      <trkpt lat="45.69004" lon="6.40992">
        <ele>470.4</ele>
        <time>2023-08-21T06:01:26Z</time>
      </trkpt>
      <trkpt lat="45.69003" lon="6.40995">
        <ele>470.4</ele>
        <time>2023-08-21T06:01:27Z</time>
      </trkpt>
      <trkpt lat="45.69003" lon="6.40999">
        <ele>470.8</ele>
        <time>2023-08-21T06:01:28Z</time>
      </trkpt>
      <trkpt lat="45.69003" lon="6.41003">
        <ele>471</ele>
        <time>2023-08-21T06:01:29Z</time>
      </trkpt>
      <trkpt lat="45.69002" lon="6.41007">
        <ele>471</ele>
        <time>2023-08-21T06:01:30Z</time>
      </trkpt>
      <trkpt lat="45.69002" lon="6.41011">
        <ele>471</ele>
        <time>2023-08-21T06:01:31Z</time>
      </trkpt>
      <trkpt lat="45.69002" lon="6.41014">
        <ele>471</ele>
        <time>2023-08-21T06:01:32Z</time>
      </trkpt>
      <trkpt lat="45.69003" lon="6.41018">
        <ele>471.4</ele>
        <time>2023-08-21T06:01:33Z</time>
      </trkpt>
      <trkpt lat="45.69003" lon="6.41022">
        <ele>471.6</ele>
        <time>2023-08-21T06:01:34Z</time>
      </trkpt>
      <trkpt lat="45.69003" lon="6.41026">
        <ele>471.6</ele>
        <time>2023-08-21T06:01:35Z</time>
      </trkpt>
      <trkpt lat="45.69003" lon="6.4103">
        <ele>471.6</ele>
        <time>2023-08-21T06:01:36Z</time>
      </trkpt>
      <trkpt lat="45.69002" lon="6.41034">
        <ele>472.2</ele>
        <time>2023-08-21T06:01:37Z</time>
      </trkpt>
      <trkpt lat="45.69002" lon="6.41038">
        <ele>472.6</ele>
        <time>2023-08-21T06:01:38Z</time>
      </trkpt>
      <trkpt lat="45.69002" lon="6.41042">
        <ele>472.6</ele>
        <time>2023-08-21T06:01:39Z</time>
      </trkpt>
      <trkpt lat="45.69001" lon="6.41046">
        <ele>472.6</ele>
        <time>2023-08-21T06:01:40Z</time>
      </trkpt>
      <trkpt lat="45.69001" lon="6.41049">
        <ele>472.6</ele>
        <time>2023-08-21T06:01:41Z</time>
      </trkpt>
      <trkpt lat="45.69" lon="6.41053">
        <ele>472.6</ele>
        <time>2023-08-21T06:01:42Z</time>
      </trkpt>
      <trkpt lat="45.68999" lon="6.41057">
        <ele>473</ele>
        <time>2023-08-21T06:01:43Z</time>
      </trkpt>
      <trkpt lat="45.68999" lon="6.41061">
        <ele>473</ele>
        <time>2023-08-21T06:01:44Z</time>
      </trkpt>
      <trkpt lat="45.68998" lon="6.41064">
        <ele>473</ele>
        <time>2023-08-21T06:01:45Z</time>
      </trkpt>
      <trkpt lat="45.68997" lon="6.41067">
        <ele>473.6</ele>
        <time>2023-08-21T06:01:46Z</time>
      </trkpt>
      <trkpt lat="45.68996" lon="6.41071">
        <ele>474</ele>
        <time>2023-08-21T06:01:47Z</time>
      </trkpt>
      <trkpt lat="45.68994" lon="6.41074">
        <ele>474</ele>
        <time>2023-08-21T06:01:48Z</time>
      </trkpt>
      <trkpt lat="45.68993" lon="6.41078">
        <ele>474</ele>
        <time>2023-08-21T06:01:49Z</time>
      </trkpt>
      <trkpt lat="45.68992" lon="6.41081">
        <ele>474.6</ele>
        <time>2023-08-21T06:01:50Z</time>
      </trkpt>
      <trkpt lat="45.68991" lon="6.41084">
        <ele>474.6</ele>
        <time>2023-08-21T06:01:51Z</time>
      </trkpt>
      <trkpt lat="45.6899" lon="6.41087">
        <ele>474.6</ele>
        <time>2023-08-21T06:01:52Z</time>
      </trkpt>
      <trkpt lat="45.68988" lon="6.4109">
        <ele>474.6</ele>
        <time>2023-08-21T06:01:53Z</time>
      </trkpt>
      <trkpt lat="45.68987" lon="6.41093">
        <ele>474.6</ele>
        <time>2023-08-21T06:01:54Z</time>
      </trkpt>
      <trkpt lat="45.68985" lon="6.41096">
        <ele>475.2</ele>
        <time>2023-08-21T06:01:55Z</time>
      </trkpt>
      <trkpt lat="45.68984" lon="6.411">
        <ele>475.6</ele>
        <time>2023-08-21T06:01:56Z</time>
      </trkpt>
      <trkpt lat="45.68983" lon="6.41103">
        <ele>475.6</ele>
        <time>2023-08-21T06:01:57Z</time>
      </trkpt>
      <trkpt lat="45.68982" lon="6.41107">
        <ele>475.6</ele>
        <time>2023-08-21T06:01:58Z</time>
      </trkpt>
      <trkpt lat="45.6898" lon="6.4111">
        <ele>476.2</ele>
        <time>2023-08-21T06:01:59Z</time>
      </trkpt>
      <trkpt lat="45.68979" lon="6.41113">
        <ele>476.2</ele>
        <time>2023-08-21T06:02:00Z</time>
      </trkpt>
      <trkpt lat="45.68978" lon="6.41116">
        <ele>476.2</ele>
        <time>2023-08-21T06:02:01Z</time>
      </trkpt>
      <trkpt lat="45.68977" lon="6.4112">
        <ele>476.2</ele>
        <time>2023-08-21T06:02:02Z</time>
      </trkpt>
      <trkpt lat="45.68977" lon="6.41124">
        <ele>477</ele>
        <time>2023-08-21T06:02:03Z</time>
      </trkpt>
      <trkpt lat="45.68976" lon="6.41127">
        <ele>477.2</ele>
        <time>2023-08-21T06:02:04Z</time>
      </trkpt>
      <trkpt lat="45.68976" lon="6.41131">
        <ele>477.2</ele>
        <time>2023-08-21T06:02:05Z</time>
      </trkpt>
      <trkpt lat="45.68976" lon="6.41135">
        <ele>477.2</ele>
        <time>2023-08-21T06:02:06Z</time>
      </trkpt>
      <trkpt lat="45.68976" lon="6.41138">
        <ele>477.2</ele>
        <time>2023-08-21T06:02:07Z</time>
      </trkpt>
      <trkpt lat="45.68976" lon="6.41142">
        <ele>477.2</ele>
        <time>2023-08-21T06:02:08Z</time>
      </trkpt>
      <trkpt lat="45.68977" lon="6.41145">
        <ele>477.6</ele>
        <time>2023-08-21T06:02:09Z</time>
      </trkpt>
      <trkpt lat="45.68978" lon="6.41148">
        <ele>477.8</ele>
        <time>2023-08-21T06:02:10Z</time>
      </trkpt>
      <trkpt lat="45.68979" lon="6.41152">
        <ele>477.8</ele>
        <time>2023-08-21T06:02:11Z</time>
      </trkpt>
      <trkpt lat="45.6898" lon="6.41156">
        <ele>477.8</ele>
        <time>2023-08-21T06:02:12Z</time>
      </trkpt>
      <trkpt lat="45.68982" lon="6.41159">
        <ele>478.4</ele>
        <time>2023-08-21T06:02:13Z</time>
      </trkpt>
      <trkpt lat="45.68984" lon="6.41162">
        <ele>478.4</ele>
        <time>2023-08-21T06:02:14Z</time>
      </trkpt>
      <trkpt lat="45.68986" lon="6.41164">
        <ele>478.6</ele>
        <time>2023-08-21T06:02:15Z</time>
      </trkpt>
      <trkpt lat="45.68988" lon="6.41167">
        <ele>478.6</ele>
        <time>2023-08-21T06:02:16Z</time>
      </trkpt>
      <trkpt lat="45.6899" lon="6.41169">
        <ele>478.6</ele>
        <time>2023-08-21T06:02:17Z</time>
      </trkpt>
      <trkpt lat="45.68993" lon="6.41171">
        <ele>478.6</ele>
        <time>2023-08-21T06:02:18Z</time>
      </trkpt>
      <trkpt lat="45.68995" lon="6.41174">
        <ele>479.2</ele>
        <time>2023-08-21T06:02:19Z</time>
      </trkpt>
      <trkpt lat="45.68997" lon="6.41176">
        <ele>479.4</ele>
        <time>2023-08-21T06:02:20Z</time>
      </trkpt>
      <trkpt lat="45.68999" lon="6.41178">
        <ele>479.4</ele>
        <time>2023-08-21T06:02:21Z</time>
      </trkpt>
      <trkpt lat="45.69002" lon="6.4118">
        <ele>479.4</ele>
        <time>2023-08-21T06:02:22Z</time>
      </trkpt>
      <trkpt lat="45.69004" lon="6.41182">
        <ele>480</ele>
        <time>2023-08-21T06:02:23Z</time>
      </trkpt>
      <trkpt lat="45.69006" lon="6.41185">
        <ele>480.2</ele>
        <time>2023-08-21T06:02:24Z</time>
      </trkpt>
      <trkpt lat="45.69007" lon="6.41188">
        <ele>480.2</ele>
        <time>2023-08-21T06:02:25Z</time>
      </trkpt>
      <trkpt lat="45.69009" lon="6.41191">
        <ele>480.2</ele>
        <time>2023-08-21T06:02:26Z</time>
      </trkpt>
      <trkpt lat="45.69011" lon="6.41194">
        <ele>481</ele>
        <time>2023-08-21T06:02:27Z</time>
      </trkpt>
      <trkpt lat="45.69012" lon="6.41198">
        <ele>481</ele>
        <time>2023-08-21T06:02:28Z</time>
      </trkpt>
      <trkpt lat="45.69014" lon="6.41201">
        <ele>481</ele>
        <time>2023-08-21T06:02:29Z</time>
      </trkpt>
      <trkpt lat="45.69015" lon="6.41204">
        <ele>481</ele>
        <time>2023-08-21T06:02:30Z</time>
      </trkpt>
      <trkpt lat="45.69016" lon="6.41208">
        <ele>481</ele>
        <time>2023-08-21T06:02:31Z</time>
      </trkpt>
      <trkpt lat="45.69017" lon="6.41211">
        <ele>481.6</ele>
        <time>2023-08-21T06:02:32Z</time>
      </trkpt>
      <trkpt lat="45.69018" lon="6.41215">
        <ele>481.8</ele>
        <time>2023-08-21T06:02:33Z</time>
      </trkpt>
      <trkpt lat="45.69019" lon="6.41219">
        <ele>481.8</ele>
        <time>2023-08-21T06:02:34Z</time>
      </trkpt>
      <trkpt lat="45.6902" lon="6.41223">
        <ele>481.8</ele>
        <time>2023-08-21T06:02:35Z</time>
      </trkpt>
      <trkpt lat="45.69021" lon="6.41227">
        <ele>481.8</ele>
        <time>2023-08-21T06:02:36Z</time>
      </trkpt>
      <trkpt lat="45.69021" lon="6.41231">
        <ele>482.8</ele>
        <time>2023-08-21T06:02:37Z</time>
      </trkpt>
      <trkpt lat="45.69021" lon="6.41235">
        <ele>482.8</ele>
        <time>2023-08-21T06:02:38Z</time>
      </trkpt>
      <trkpt lat="45.69021" lon="6.41239">
        <ele>482.8</ele>
        <time>2023-08-21T06:02:39Z</time>
      </trkpt>
      <trkpt lat="45.69021" lon="6.41242">
        <ele>482.8</ele>
        <time>2023-08-21T06:02:40Z</time>
      </trkpt>
      <trkpt lat="45.69021" lon="6.41246">
        <ele>483.6</ele>
        <time>2023-08-21T06:02:41Z</time>
      </trkpt>
      <trkpt lat="45.6902" lon="6.4125">
        <ele>483.6</ele>
        <time>2023-08-21T06:02:42Z</time>
      </trkpt>
      <trkpt lat="45.6902" lon="6.41253">
        <ele>483.6</ele>
        <time>2023-08-21T06:02:43Z</time>
      </trkpt>
      <trkpt lat="45.69019" lon="6.41257">
        <ele>483.6</ele>
        <time>2023-08-21T06:02:44Z</time>
      </trkpt>
      <trkpt lat="45.69019" lon="6.4126">
        <ele>483.6</ele>
        <time>2023-08-21T06:02:45Z</time>
      </trkpt>
      <trkpt lat="45.69018" lon="6.41264">
        <ele>484</ele>
        <time>2023-08-21T06:02:46Z</time>
      </trkpt>
      <trkpt lat="45.69017" lon="6.41268">
        <ele>484.4</ele>
        <time>2023-08-21T06:02:47Z</time>
      </trkpt>
      <trkpt lat="45.69016" lon="6.41272">
        <ele>484.4</ele>
        <time>2023-08-21T06:02:48Z</time>
      </trkpt>
      <trkpt lat="45.69015" lon="6.41275">
        <ele>484.4</ele>
        <time>2023-08-21T06:02:49Z</time>
      </trkpt>
      <trkpt lat="45.69015" lon="6.41278">
        <ele>485</ele>
        <time>2023-08-21T06:02:50Z</time>
      </trkpt>
      <trkpt lat="45.69014" lon="6.41282">
        <ele>485</ele>
        <time>2023-08-21T06:02:51Z</time>
      </trkpt>
      <trkpt lat="45.69013" lon="6.41285">
        <ele>485</ele>
        <time>2023-08-21T06:02:52Z</time>
      </trkpt>
      <trkpt lat="45.69012" lon="6.41289">
        <ele>485</ele>
        <time>2023-08-21T06:02:53Z</time>
      </trkpt>
      <trkpt lat="45.69011" lon="6.41293">
        <ele>485.6</ele>
        <time>2023-08-21T06:02:54Z</time>
      </trkpt>
      <trkpt lat="45.6901" lon="6.41296">
        <ele>486</ele>
        <time>2023-08-21T06:02:55Z</time>
      </trkpt>
      <trkpt lat="45.69009" lon="6.413">
        <ele>486</ele>
        <time>2023-08-21T06:02:56Z</time>
      </trkpt>
      <trkpt lat="45.69008" lon="6.41303">
        <ele>486</ele>
        <time>2023-08-21T06:02:57Z</time>
      </trkpt>
      <trkpt lat="45.69007" lon="6.41307">
        <ele>486</ele>
        <time>2023-08-21T06:02:58Z</time>
      </trkpt>
      <trkpt lat="45.69006" lon="6.4131">
        <ele>486.6</ele>
        <time>2023-08-21T06:02:59Z</time>
      </trkpt>
      <trkpt lat="45.69005" lon="6.41314">
        <ele>486.8</ele>
        <time>2023-08-21T06:03:00Z</time>
      </trkpt>
      <trkpt lat="45.69004" lon="6.41317">
        <ele>486.8</ele>
        <time>2023-08-21T06:03:01Z</time>
      </trkpt>
      <trkpt lat="45.69002" lon="6.41321">
        <ele>486.8</ele>
        <time>2023-08-21T06:03:02Z</time>
      </trkpt>
      <trkpt lat="45.69001" lon="6.41324">
        <ele>486.8</ele>
        <time>2023-08-21T06:03:03Z</time>
      </trkpt>
      <trkpt lat="45.69" lon="6.41327">
        <ele>487.2</ele>
        <time>2023-08-21T06:03:04Z</time>
      </trkpt>
      <trkpt lat="45.68998" lon="6.41331">
        <ele>487.6</ele>
        <time>2023-08-21T06:03:05Z</time>
      </trkpt>
      <trkpt lat="45.68997" lon="6.41334">
        <ele>487.6</ele>
        <time>2023-08-21T06:03:06Z</time>
      </trkpt>
      <trkpt lat="45.68995" lon="6.41336">
        <ele>487.6</ele>
        <time>2023-08-21T06:03:07Z</time>
      </trkpt>
      <trkpt lat="45.68994" lon="6.41339">
        <ele>488.2</ele>
        <time>2023-08-21T06:03:08Z</time>
      </trkpt>
      <trkpt lat="45.68992" lon="6.41342">
        <ele>488.4</ele>
        <time>2023-08-21T06:03:09Z</time>
      </trkpt>
      <trkpt lat="45.68991" lon="6.41346">
        <ele>488.4</ele>
        <time>2023-08-21T06:03:10Z</time>
      </trkpt>
      <trkpt lat="45.68989" lon="6.41349">
        <ele>488.4</ele>
        <time>2023-08-21T06:03:11Z</time>
      </trkpt>
      <trkpt lat="45.68988" lon="6.41352">
        <ele>488.4</ele>
        <time>2023-08-21T06:03:12Z</time>
      </trkpt>
      <trkpt lat="45.68986" lon="6.41354">
        <ele>489</ele>
        <time>2023-08-21T06:03:13Z</time>
      </trkpt>
      <trkpt lat="45.68985" lon="6.41357">
        <ele>489.4</ele>
        <time>2023-08-21T06:03:14Z</time>
      </trkpt>
      <trkpt lat="45.68983" lon="6.4136">
        <ele>489.4</ele>
        <time>2023-08-21T06:03:15Z</time>
      </trkpt>
      <trkpt lat="45.68982" lon="6.41363">
        <ele>489.4</ele>
        <time>2023-08-21T06:03:16Z</time>
      </trkpt>
      <trkpt lat="45.6898" lon="6.41366">
        <ele>490.2</ele>
        <time>2023-08-21T06:03:17Z</time>
      </trkpt>
      <trkpt lat="45.68978" lon="6.41369">
        <ele>490.2</ele>
        <time>2023-08-21T06:03:18Z</time>
      </trkpt>
      <trkpt lat="45.68977" lon="6.41371">
        <ele>490.2</ele>
        <time>2023-08-21T06:03:19Z</time>
      </trkpt>
      <trkpt lat="45.68975" lon="6.41374">
        <ele>490.2</ele>
        <time>2023-08-21T06:03:20Z</time>
      </trkpt>
      <trkpt lat="45.68974" lon="6.41377">
        <ele>490.8</ele>
        <time>2023-08-21T06:03:21Z</time>
      </trkpt>
      <trkpt lat="45.68972" lon="6.4138">
        <ele>491</ele>
        <time>2023-08-21T06:03:22Z</time>
      </trkpt>
      <trkpt lat="45.6897" lon="6.41382">
        <ele>491</ele>
        <time>2023-08-21T06:03:23Z</time>
      </trkpt>
      <trkpt lat="45.68968" lon="6.41384">
        <ele>491</ele>
        <time>2023-08-21T06:03:24Z</time>
      </trkpt>
      <trkpt lat="45.68967" lon="6.41386">
        <ele>491</ele>
        <time>2023-08-21T06:03:25Z</time>
      </trkpt>
      <trkpt lat="45.68967" lon="6.41387">
        <ele>491.2</ele>
        <time>2023-08-21T06:03:26Z</time>
      </trkpt>
      <trkpt lat="45.68966" lon="6.41388">
        <ele>491.2</ele>
        <time>2023-08-21T06:03:27Z</time>
      </trkpt>
      <trkpt lat="45.68966" lon="6.41388">
        <ele>491.4</ele>
        <time>2023-08-21T06:03:28Z</time>
      </trkpt>
      <trkpt lat="45.68966" lon="6.41395">
        <ele>491.4</ele>
        <time>2023-08-21T06:04:11Z</time>
      </trkpt>
      <trkpt lat="45.68964" lon="6.41396">
        <ele>491.4</ele>
        <time>2023-08-21T06:04:12Z</time>
      </trkpt>
      <trkpt lat="45.68963" lon="6.41398">
        <ele>491.4</ele>
        <time>2023-08-21T06:04:13Z</time>
      </trkpt>
      <trkpt lat="45.68962" lon="6.414">
        <ele>491.4</ele>
        <time>2023-08-21T06:04:14Z</time>
      </trkpt>
      <trkpt lat="45.6896" lon="6.41402">
        <ele>491.8</ele>
        <time>2023-08-21T06:04:15Z</time>
      </trkpt>
      <trkpt lat="45.68959" lon="6.41404">
        <ele>491.8</ele>
        <time>2023-08-21T06:04:16Z</time>
      </trkpt>
      <trkpt lat="45.68958" lon="6.41407">
        <ele>491.8</ele>
        <time>2023-08-21T06:04:17Z</time>
      </trkpt>
      <trkpt lat="45.68957" lon="6.4141">
        <ele>492.2</ele>
        <time>2023-08-21T06:04:18Z</time>
      </trkpt>
      <trkpt lat="45.68955" lon="6.41413">
        <ele>492.6</ele>
        <time>2023-08-21T06:04:19Z</time>
      </trkpt>
      <trkpt lat="45.68954" lon="6.41416">
        <ele>492.6</ele>
        <time>2023-08-21T06:04:20Z</time>
      </trkpt>
      <trkpt lat="45.68953" lon="6.41419">
        <ele>492.6</ele>
        <time>2023-08-21T06:04:21Z</time>
      </trkpt>
      <trkpt lat="45.68952" lon="6.41423">
        <ele>492.6</ele>
        <time>2023-08-21T06:04:22Z</time>
      </trkpt>
      <trkpt lat="45.68951" lon="6.41426">
        <ele>493</ele>
        <time>2023-08-21T06:04:23Z</time>
      </trkpt>
      <trkpt lat="45.68951" lon="6.4143">
        <ele>493.2</ele>
        <time>2023-08-21T06:04:24Z</time>
      </trkpt>
      <trkpt lat="45.6895" lon="6.41433">
        <ele>493.2</ele>
        <time>2023-08-21T06:04:25Z</time>
      </trkpt>
      <trkpt lat="45.6895" lon="6.41437">
        <ele>493.2</ele>
        <time>2023-08-21T06:04:26Z</time>
      </trkpt>
      <trkpt lat="45.68949" lon="6.4144">
        <ele>493.6</ele>
        <time>2023-08-21T06:04:27Z</time>
      </trkpt>
      <trkpt lat="45.68948" lon="6.41443">
        <ele>494</ele>
        <time>2023-08-21T06:04:28Z</time>
      </trkpt>
      <trkpt lat="45.68948" lon="6.41446">
        <ele>494</ele>
        <time>2023-08-21T06:04:29Z</time>
      </trkpt>
      <trkpt lat="45.68948" lon="6.4145">
        <ele>494</ele>
        <time>2023-08-21T06:04:30Z</time>
      </trkpt>
      <trkpt lat="45.68948" lon="6.41453">
        <ele>494</ele>
        <time>2023-08-21T06:04:31Z</time>
      </trkpt>
      <trkpt lat="45.68948" lon="6.41457">
        <ele>494</ele>
        <time>2023-08-21T06:04:32Z</time>
      </trkpt>
      <trkpt lat="45.68948" lon="6.41461">
        <ele>494.8</ele>
        <time>2023-08-21T06:04:33Z</time>
      </trkpt>
      <trkpt lat="45.68947" lon="6.41464">
        <ele>494.8</ele>
        <time>2023-08-21T06:04:34Z</time>
      </trkpt>
      <trkpt lat="45.68948" lon="6.41467">
        <ele>494.8</ele>
        <time>2023-08-21T06:04:35Z</time>
      </trkpt>
      <trkpt lat="45.68948" lon="6.41471">
        <ele>494.8</ele>
        <time>2023-08-21T06:04:36Z</time>
      </trkpt>
      <trkpt lat="45.68948" lon="6.41475">
        <ele>495.2</ele>
        <time>2023-08-21T06:04:37Z</time>
      </trkpt>
      <trkpt lat="45.68948" lon="6.41479">
        <ele>495.2</ele>
        <time>2023-08-21T06:04:38Z</time>
      </trkpt>
      <trkpt lat="45.68949" lon="6.41483">
        <ele>495.2</ele>
        <time>2023-08-21T06:04:39Z</time>
      </trkpt>
      <trkpt lat="45.68948" lon="6.41487">
        <ele>495.2</ele>
        <time>2023-08-21T06:04:40Z</time>
      </trkpt>
      <trkpt lat="45.68948" lon="6.4149">
        <ele>495.8</ele>
        <time>2023-08-21T06:04:41Z</time>
      </trkpt>
      <trkpt lat="45.68948" lon="6.41493">
        <ele>495.8</ele>
        <time>2023-08-21T06:04:42Z</time>
      </trkpt>
      <trkpt lat="45.68947" lon="6.41497">
        <ele>496</ele>
        <time>2023-08-21T06:04:43Z</time>
      </trkpt>
      <trkpt lat="45.68947" lon="6.41501">
        <ele>496</ele>
        <time>2023-08-21T06:04:44Z</time>
      </trkpt>
      <trkpt lat="45.68947" lon="6.41504">
        <ele>496</ele>
        <time>2023-08-21T06:04:45Z</time>
      </trkpt>
      <trkpt lat="45.68947" lon="6.41508">
        <ele>496.4</ele>
        <time>2023-08-21T06:04:46Z</time>
      </trkpt>
      <trkpt lat="45.68947" lon="6.41512">
        <ele>496.8</ele>
        <time>2023-08-21T06:04:47Z</time>
      </trkpt>
      <trkpt lat="45.68947" lon="6.41516">
        <ele>496.8</ele>
        <time>2023-08-21T06:04:48Z</time>
      </trkpt>
      <trkpt lat="45.68946" lon="6.41519">
        <ele>496.8</ele>
        <time>2023-08-21T06:04:49Z</time>
      </trkpt>
      <trkpt lat="45.68946" lon="6.41523">
        <ele>497.6</ele>
        <time>2023-08-21T06:04:50Z</time>
      </trkpt>
      <trkpt lat="45.68946" lon="6.41527">
        <ele>497.8</ele>
        <time>2023-08-21T06:04:51Z</time>
      </trkpt>
      <trkpt lat="45.68946" lon="6.41531">
        <ele>497.8</ele>
        <time>2023-08-21T06:04:52Z</time>
      </trkpt>
      <trkpt lat="45.68945" lon="6.41535">
        <ele>497.8</ele>
        <time>2023-08-21T06:04:53Z</time>
      </trkpt>
      <trkpt lat="45.68945" lon="6.41538">
        <ele>497.8</ele>
        <time>2023-08-21T06:04:54Z</time>
      </trkpt>
      <trkpt lat="45.68944" lon="6.41542">
        <ele>498.2</ele>
        <time>2023-08-21T06:04:55Z</time>
      </trkpt>
      <trkpt lat="45.68943" lon="6.41546">
        <ele>498.2</ele>
        <time>2023-08-21T06:04:56Z</time>
      </trkpt>
      <trkpt lat="45.68942" lon="6.41549">
        <ele>498.6</ele>
        <time>2023-08-21T06:04:57Z</time>
      </trkpt>
      <trkpt lat="45.6894" lon="6.41552">
        <ele>498.6</ele>
        <time>2023-08-21T06:04:58Z</time>
      </trkpt>
      <trkpt lat="45.68938" lon="6.41555">
        <ele>499</ele>
        <time>2023-08-21T06:04:59Z</time>
      </trkpt>
      <trkpt lat="45.68936" lon="6.41558">
        <ele>499.2</ele>
        <time>2023-08-21T06:05:00Z</time>
      </trkpt>
      <trkpt lat="45.68934" lon="6.41561">
        <ele>499.2</ele>
        <time>2023-08-21T06:05:01Z</time>
      </trkpt>
      <trkpt lat="45.68932" lon="6.41564">
        <ele>499.2</ele>
        <time>2023-08-21T06:05:02Z</time>
      </trkpt>
      <trkpt lat="45.68929" lon="6.41566">
        <ele>499.8</ele>
        <time>2023-08-21T06:05:03Z</time>
      </trkpt>
      <trkpt lat="45.68927" lon="6.41569">
        <ele>499.8</ele>
        <time>2023-08-21T06:05:04Z</time>
      </trkpt>
      <trkpt lat="45.68925" lon="6.41571">
        <ele>499.8</ele>
        <time>2023-08-21T06:05:05Z</time>
      </trkpt>
      <trkpt lat="45.68923" lon="6.41573">
        <ele>499.8</ele>
        <time>2023-08-21T06:05:06Z</time>
      </trkpt>
      <trkpt lat="45.68921" lon="6.41574">
        <ele>499.8</ele>
        <time>2023-08-21T06:05:07Z</time>
      </trkpt>
      <trkpt lat="45.68918" lon="6.41577">
        <ele>500.4</ele>
        <time>2023-08-21T06:05:08Z</time>
      </trkpt>
      <trkpt lat="45.68917" lon="6.4158">
        <ele>500.4</ele>
        <time>2023-08-21T06:05:09Z</time>
      </trkpt>
      <trkpt lat="45.68915" lon="6.41583">
        <ele>500.4</ele>
        <time>2023-08-21T06:05:10Z</time>
      </trkpt>
      <trkpt lat="45.68913" lon="6.41586">
        <ele>500.4</ele>
        <time>2023-08-21T06:05:11Z</time>
      </trkpt>
      <trkpt lat="45.68912" lon="6.41589">
        <ele>501.2</ele>
        <time>2023-08-21T06:05:12Z</time>
      </trkpt>
      <trkpt lat="45.68911" lon="6.41593">
        <ele>501.6</ele>
        <time>2023-08-21T06:05:13Z</time>
      </trkpt>
      <trkpt lat="45.6891" lon="6.41596">
        <ele>501.6</ele>
        <time>2023-08-21T06:05:14Z</time>
      </trkpt>
      <trkpt lat="45.6891" lon="6.416">
        <ele>501.6</ele>
        <time>2023-08-21T06:05:15Z</time>
      </trkpt>
      <trkpt lat="45.68909" lon="6.41604">
        <ele>501.6</ele>
        <time>2023-08-21T06:05:16Z</time>
      </trkpt>
      <trkpt lat="45.68909" lon="6.41608">
        <ele>502</ele>
        <time>2023-08-21T06:05:17Z</time>
      </trkpt>
      <trkpt lat="45.68909" lon="6.41612">
        <ele>502</ele>
        <time>2023-08-21T06:05:18Z</time>
      </trkpt>
      <trkpt lat="45.68909" lon="6.41616">
        <ele>502</ele>
        <time>2023-08-21T06:05:19Z</time>
      </trkpt>
      <trkpt lat="45.6891" lon="6.4162">
        <ele>502</ele>
        <time>2023-08-21T06:05:20Z</time>
      </trkpt>
      <trkpt lat="45.6891" lon="6.41624">
        <ele>502</ele>
        <time>2023-08-21T06:05:21Z</time>
      </trkpt>
      <trkpt lat="45.68911" lon="6.41628">
        <ele>502</ele>
        <time>2023-08-21T06:05:22Z</time>
      </trkpt>
      <trkpt lat="45.68912" lon="6.41632">
        <ele>502.6</ele>
        <time>2023-08-21T06:05:23Z</time>
      </trkpt>
      <trkpt lat="45.68914" lon="6.41636">
        <ele>502.6</ele>
        <time>2023-08-21T06:05:24Z</time>
      </trkpt>
      <trkpt lat="45.68915" lon="6.4164">
        <ele>502.6</ele>
        <time>2023-08-21T06:05:25Z</time>
      </trkpt>
      <trkpt lat="45.68916" lon="6.41643">
        <ele>503.4</ele>
        <time>2023-08-21T06:05:26Z</time>
      </trkpt>
      <trkpt lat="45.68917" lon="6.41647">
        <ele>503.2</ele>
        <time>2023-08-21T06:05:27Z</time>
      </trkpt>
      <trkpt lat="45.68919" lon="6.41651">
        <ele>503.2</ele>
        <time>2023-08-21T06:05:28Z</time>
      </trkpt>
      <trkpt lat="45.6892" lon="6.41655">
        <ele>503.2</ele>
        <time>2023-08-21T06:05:29Z</time>
      </trkpt>
      <trkpt lat="45.68921" lon="6.41659">
        <ele>503.2</ele>
        <time>2023-08-21T06:05:30Z</time>
      </trkpt>
      <trkpt lat="45.68923" lon="6.41663">
        <ele>503.6</ele>
        <time>2023-08-21T06:05:31Z</time>
      </trkpt>
      <trkpt lat="45.68924" lon="6.41668">
        <ele>504.2</ele>
        <time>2023-08-21T06:05:32Z</time>
      </trkpt>
      <trkpt lat="45.68925" lon="6.41671">
        <ele>504.2</ele>
        <time>2023-08-21T06:05:33Z</time>
      </trkpt>
      <trkpt lat="45.68926" lon="6.41675">
        <ele>504.2</ele>
        <time>2023-08-21T06:05:34Z</time>
      </trkpt>
      <trkpt lat="45.68928" lon="6.41679">
        <ele>504.8</ele>
        <time>2023-08-21T06:05:35Z</time>
      </trkpt>
      <trkpt lat="45.68928" lon="6.41683">
        <ele>505</ele>
        <time>2023-08-21T06:05:36Z</time>
      </trkpt>
      <trkpt lat="45.68929" lon="6.41687">
        <ele>505</ele>
        <time>2023-08-21T06:05:37Z</time>
      </trkpt>
      <trkpt lat="45.68931" lon="6.41691">
        <ele>505</ele>
        <time>2023-08-21T06:05:38Z</time>
      </trkpt>
      <trkpt lat="45.68932" lon="6.41695">
        <ele>505</ele>
        <time>2023-08-21T06:05:39Z</time>
      </trkpt>
      <trkpt lat="45.68932" lon="6.41699">
        <ele>505.6</ele>
        <time>2023-08-21T06:05:40Z</time>
      </trkpt>
      <trkpt lat="45.68933" lon="6.41703">
        <ele>505.6</ele>
        <time>2023-08-21T06:05:41Z</time>
      </trkpt>
      <trkpt lat="45.68934" lon="6.41708">
        <ele>505.6</ele>
        <time>2023-08-21T06:05:42Z</time>
      </trkpt>
      <trkpt lat="45.68935" lon="6.41712">
        <ele>505.6</ele>
        <time>2023-08-21T06:05:43Z</time>
      </trkpt>
      <trkpt lat="45.68936" lon="6.41716">
        <ele>506.2</ele>
        <time>2023-08-21T06:05:44Z</time>
      </trkpt>
      <trkpt lat="45.68937" lon="6.4172">
        <ele>506.6</ele>
        <time>2023-08-21T06:05:45Z</time>
      </trkpt>
      <trkpt lat="45.68938" lon="6.41724">
        <ele>506.6</ele>
        <time>2023-08-21T06:05:46Z</time>
      </trkpt>
      <trkpt lat="45.6894" lon="6.41729">
        <ele>506.6</ele>
        <time>2023-08-21T06:05:47Z</time>
      </trkpt>
      <trkpt lat="45.6894" lon="6.41733">
        <ele>506.8</ele>
        <time>2023-08-21T06:05:48Z</time>
      </trkpt>
      <trkpt lat="45.68941" lon="6.41737">
        <ele>507.2</ele>
        <time>2023-08-21T06:05:49Z</time>
      </trkpt>
      <trkpt lat="45.68942" lon="6.41741">
        <ele>507.2</ele>
        <time>2023-08-21T06:05:50Z</time>
      </trkpt>
      <trkpt lat="45.68943" lon="6.41746">
        <ele>507.2</ele>
        <time>2023-08-21T06:05:51Z</time>
      </trkpt>
      <trkpt lat="45.68943" lon="6.4175">
        <ele>507.2</ele>
        <time>2023-08-21T06:05:52Z</time>
      </trkpt>
      <trkpt lat="45.68944" lon="6.41754">
        <ele>507.8</ele>
        <time>2023-08-21T06:05:53Z</time>
      </trkpt>
      <trkpt lat="45.68945" lon="6.41758">
        <ele>507.8</ele>
        <time>2023-08-21T06:05:54Z</time>
      </trkpt>
      <trkpt lat="45.68946" lon="6.41762">
        <ele>507.8</ele>
        <time>2023-08-21T06:05:55Z</time>
      </trkpt>
      <trkpt lat="45.68946" lon="6.41766">
        <ele>507.8</ele>
        <time>2023-08-21T06:05:56Z</time>
      </trkpt>
      <trkpt lat="45.68946" lon="6.41771">
        <ele>508.4</ele>
        <time>2023-08-21T06:05:57Z</time>
      </trkpt>
      <trkpt lat="45.68945" lon="6.41775">
        <ele>508.4</ele>
        <time>2023-08-21T06:05:58Z</time>
      </trkpt>
      <trkpt lat="45.68944" lon="6.4178">
        <ele>508.6</ele>
        <time>2023-08-21T06:05:59Z</time>
      </trkpt>
      <trkpt lat="45.68943" lon="6.41785">
        <ele>508.6</ele>
        <time>2023-08-21T06:06:00Z</time>
      </trkpt>
      <trkpt lat="45.68942" lon="6.4179">
        <ele>509.4</ele>
        <time>2023-08-21T06:06:01Z</time>
      </trkpt>
      <trkpt lat="45.68941" lon="6.41794">
        <ele>509.6</ele>
        <time>2023-08-21T06:06:02Z</time>
      </trkpt>
      <trkpt lat="45.6894" lon="6.41799">
        <ele>509.6</ele>
        <time>2023-08-21T06:06:03Z</time>
      </trkpt>
      <trkpt lat="45.6894" lon="6.41803">
        <ele>509.6</ele>
        <time>2023-08-21T06:06:04Z</time>
      </trkpt>
      <trkpt lat="45.6894" lon="6.41807">
        <ele>509.6</ele>
        <time>2023-08-21T06:06:05Z</time>
      </trkpt>
      <trkpt lat="45.6894" lon="6.41812">
        <ele>509.6</ele>
        <time>2023-08-21T06:06:06Z</time>
      </trkpt>
      <trkpt lat="45.6894" lon="6.41817">
        <ele>509.8</ele>
        <time>2023-08-21T06:06:07Z</time>
      </trkpt>
      <trkpt lat="45.6894" lon="6.41821">
        <ele>509.8</ele>
        <time>2023-08-21T06:06:08Z</time>
      </trkpt>
      <trkpt lat="45.68941" lon="6.41826">
        <ele>510</ele>
        <time>2023-08-21T06:06:09Z</time>
      </trkpt>
      <trkpt lat="45.68942" lon="6.41831">
        <ele>510</ele>
        <time>2023-08-21T06:06:10Z</time>
      </trkpt>
      <trkpt lat="45.68942" lon="6.41836">
        <ele>510.6</ele>
        <time>2023-08-21T06:06:11Z</time>
      </trkpt>
      <trkpt lat="45.68943" lon="6.41841">
        <ele>510.8</ele>
        <time>2023-08-21T06:06:12Z</time>
      </trkpt>
      <trkpt lat="45.68944" lon="6.41847">
        <ele>510.8</ele>
        <time>2023-08-21T06:06:13Z</time>
      </trkpt>
      <trkpt lat="45.68945" lon="6.41852">
        <ele>510.8</ele>
        <time>2023-08-21T06:06:14Z</time>
      </trkpt>
      <trkpt lat="45.68945" lon="6.41857">
        <ele>511.4</ele>
        <time>2023-08-21T06:06:15Z</time>
      </trkpt>
      <trkpt lat="45.68946" lon="6.41862">
        <ele>511.4</ele>
        <time>2023-08-21T06:06:16Z</time>
      </trkpt>
      <trkpt lat="45.68948" lon="6.41867">
        <ele>511.4</ele>
        <time>2023-08-21T06:06:17Z</time>
      </trkpt>
      <trkpt lat="45.68949" lon="6.41871">
        <ele>511.4</ele>
        <time>2023-08-21T06:06:18Z</time>
      </trkpt>
      <trkpt lat="45.6895" lon="6.41876">
        <ele>511.4</ele>
        <time>2023-08-21T06:06:19Z</time>
      </trkpt>
      <trkpt lat="45.68951" lon="6.4188">
        <ele>512</ele>
        <time>2023-08-21T06:06:20Z</time>
      </trkpt>
      <trkpt lat="45.68952" lon="6.41885">
        <ele>512.4</ele>
        <time>2023-08-21T06:06:21Z</time>
      </trkpt>
      <trkpt lat="45.68954" lon="6.41889">
        <ele>512.4</ele>
        <time>2023-08-21T06:06:22Z</time>
      </trkpt>
      <trkpt lat="45.68955" lon="6.41893">
        <ele>512.4</ele>
        <time>2023-08-21T06:06:23Z</time>
      </trkpt>
      <trkpt lat="45.68956" lon="6.41897">
        <ele>513</ele>
        <time>2023-08-21T06:06:24Z</time>
      </trkpt>
      <trkpt lat="45.68957" lon="6.41902">
        <ele>513.2</ele>
        <time>2023-08-21T06:06:25Z</time>
      </trkpt>
      <trkpt lat="45.68958" lon="6.41906">
        <ele>513.2</ele>
        <time>2023-08-21T06:06:26Z</time>
      </trkpt>
      <trkpt lat="45.6896" lon="6.41911">
        <ele>513.2</ele>
        <time>2023-08-21T06:06:27Z</time>
      </trkpt>
      <trkpt lat="45.68961" lon="6.41915">
        <ele>514</ele>
        <time>2023-08-21T06:06:28Z</time>
      </trkpt>
      <trkpt lat="45.68961" lon="6.41919">
        <ele>514</ele>
        <time>2023-08-21T06:06:29Z</time>
      </trkpt>
      <trkpt lat="45.68962" lon="6.41924">
        <ele>514</ele>
        <time>2023-08-21T06:06:30Z</time>
      </trkpt>
      <trkpt lat="45.68963" lon="6.41928">
        <ele>514</ele>
        <time>2023-08-21T06:06:31Z</time>
      </trkpt>
      <trkpt lat="45.68964" lon="6.41932">
        <ele>514</ele>
        <time>2023-08-21T06:06:32Z</time>
      </trkpt>
      <trkpt lat="45.68965" lon="6.41936">
        <ele>514.6</ele>
        <time>2023-08-21T06:06:33Z</time>
      </trkpt>
      <trkpt lat="45.68966" lon="6.4194">
        <ele>515</ele>
        <time>2023-08-21T06:06:34Z</time>
      </trkpt>
      <trkpt lat="45.68968" lon="6.41944">
        <ele>515</ele>
        <time>2023-08-21T06:06:35Z</time>
      </trkpt>
      <trkpt lat="45.6897" lon="6.41947">
        <ele>515</ele>
        <time>2023-08-21T06:06:36Z</time>
      </trkpt>
      <trkpt lat="45.68972" lon="6.41951">
        <ele>515.6</ele>
        <time>2023-08-21T06:06:37Z</time>
      </trkpt>
      <trkpt lat="45.68974" lon="6.41954">
        <ele>515.6</ele>
        <time>2023-08-21T06:06:38Z</time>
      </trkpt>
      <trkpt lat="45.68976" lon="6.41958">
        <ele>515.2</ele>
        <time>2023-08-21T06:06:39Z</time>
      </trkpt>
      <trkpt lat="45.68979" lon="6.4196">
        <ele>515.2</ele>
        <time>2023-08-21T06:06:40Z</time>
      </trkpt>
      <trkpt lat="45.68981" lon="6.41962">
        <ele>516.2</ele>
        <time>2023-08-21T06:06:41Z</time>
      </trkpt>
      <trkpt lat="45.68984" lon="6.41964">
        <ele>516.2</ele>
        <time>2023-08-21T06:06:42Z</time>
      </trkpt>
      <trkpt lat="45.68986" lon="6.41965">
        <ele>516.4</ele>
        <time>2023-08-21T06:06:43Z</time>
      </trkpt>
      <trkpt lat="45.68989" lon="6.41966">
        <ele>516.4</ele>
        <time>2023-08-21T06:06:44Z</time>
      </trkpt>
      <trkpt lat="45.68992" lon="6.41967">
        <ele>516.4</ele>
        <time>2023-08-21T06:06:45Z</time>
      </trkpt>
      <trkpt lat="45.68995" lon="6.41969">
        <ele>516.4</ele>
        <time>2023-08-21T06:06:46Z</time>
      </trkpt>
      <trkpt lat="45.68999" lon="6.41969">
        <ele>517</ele>
        <time>2023-08-21T06:06:47Z</time>
      </trkpt>
      <trkpt lat="45.69001" lon="6.4197">
        <ele>517</ele>
        <time>2023-08-21T06:06:48Z</time>
      </trkpt>
      <trkpt lat="45.69005" lon="6.41971">
        <ele>517</ele>
        <time>2023-08-21T06:06:49Z</time>
      </trkpt>
      <trkpt lat="45.69009" lon="6.41973">
        <ele>517</ele>
        <time>2023-08-21T06:06:50Z</time>
      </trkpt>
      <trkpt lat="45.69012" lon="6.41973">
        <ele>517</ele>
        <time>2023-08-21T06:06:51Z</time>
      </trkpt>
      <trkpt lat="45.69016" lon="6.41974">
        <ele>517.8</ele>
        <time>2023-08-21T06:06:52Z</time>
      </trkpt>
      <trkpt lat="45.69019" lon="6.41975">
        <ele>517.8</ele>
        <time>2023-08-21T06:06:53Z</time>
      </trkpt>
      <trkpt lat="45.69023" lon="6.41976">
        <ele>517.8</ele>
        <time>2023-08-21T06:06:54Z</time>
      </trkpt>
      <trkpt lat="45.69026" lon="6.41979">
        <ele>517.8</ele>
        <time>2023-08-21T06:06:55Z</time>
      </trkpt>
      <trkpt lat="45.69029" lon="6.41981">
        <ele>518.2</ele>
        <time>2023-08-21T06:06:56Z</time>
      </trkpt>
      <trkpt lat="45.69032" lon="6.41984">
        <ele>518.2</ele>
        <time>2023-08-21T06:06:57Z</time>
      </trkpt>
      <trkpt lat="45.69036" lon="6.41986">
        <ele>518.2</ele>
        <time>2023-08-21T06:06:58Z</time>
      </trkpt>
      <trkpt lat="45.69039" lon="6.41988">
        <ele>518.2</ele>
        <time>2023-08-21T06:06:59Z</time>
      </trkpt>
      <trkpt lat="45.69043" lon="6.4199">
        <ele>518.2</ele>
        <time>2023-08-21T06:07:00Z</time>
      </trkpt>
      <trkpt lat="45.69046" lon="6.41992">
        <ele>518.8</ele>
        <time>2023-08-21T06:07:01Z</time>
      </trkpt>
      <trkpt lat="45.6905" lon="6.41994">
        <ele>518.8</ele>
        <time>2023-08-21T06:07:02Z</time>
      </trkpt>
      <trkpt lat="45.69054" lon="6.41993">
        <ele>518.8</ele>
        <time>2023-08-21T06:07:03Z</time>
      </trkpt>
      <trkpt lat="45.69059" lon="6.41993">
        <ele>519</ele>
        <time>2023-08-21T06:07:04Z</time>
      </trkpt>
      <trkpt lat="45.69063" lon="6.41994">
        <ele>519.2</ele>
        <time>2023-08-21T06:07:05Z</time>
      </trkpt>
      <trkpt lat="45.69067" lon="6.41997">
        <ele>519.2</ele>
        <time>2023-08-21T06:07:06Z</time>
      </trkpt>
      <trkpt lat="45.6907" lon="6.41999">
        <ele>519.2</ele>
        <time>2023-08-21T06:07:07Z</time>
      </trkpt>
      <trkpt lat="45.69074" lon="6.42">
        <ele>519.2</ele>
        <time>2023-08-21T06:07:08Z</time>
      </trkpt>
      <trkpt lat="45.69078" lon="6.42003">
        <ele>519.6</ele>
        <time>2023-08-21T06:07:09Z</time>
      </trkpt>
      <trkpt lat="45.69081" lon="6.42006">
        <ele>519.6</ele>
        <time>2023-08-21T06:07:10Z</time>
      </trkpt>
      <trkpt lat="45.69085" lon="6.42009">
        <ele>519.6</ele>
        <time>2023-08-21T06:07:11Z</time>
      </trkpt>
      <trkpt lat="45.69089" lon="6.42013">
        <ele>519.6</ele>
        <time>2023-08-21T06:07:12Z</time>
      </trkpt>
      <trkpt lat="45.69092" lon="6.42017">
        <ele>520</ele>
        <time>2023-08-21T06:07:13Z</time>
      </trkpt>
      <trkpt lat="45.69095" lon="6.42022">
        <ele>520</ele>
        <time>2023-08-21T06:07:14Z</time>
      </trkpt>
      <trkpt lat="45.69098" lon="6.42026">
        <ele>520</ele>
        <time>2023-08-21T06:07:15Z</time>
      </trkpt>
      <trkpt lat="45.69101" lon="6.4203">
        <ele>520</ele>
        <time>2023-08-21T06:07:16Z</time>
      </trkpt>
      <trkpt lat="45.69104" lon="6.42034">
        <ele>520.4</ele>
        <time>2023-08-21T06:07:17Z</time>
      </trkpt>
      <trkpt lat="45.69108" lon="6.42037">
        <ele>520.4</ele>
        <time>2023-08-21T06:07:18Z</time>
      </trkpt>
      <trkpt lat="45.69111" lon="6.4204">
        <ele>520.6</ele>
        <time>2023-08-21T06:07:19Z</time>
      </trkpt>
      <trkpt lat="45.69114" lon="6.42043">
        <ele>520.6</ele>
        <time>2023-08-21T06:07:20Z</time>
      </trkpt>
      <trkpt lat="45.69116" lon="6.42046">
        <ele>520.6</ele>
        <time>2023-08-21T06:07:21Z</time>
      </trkpt>
      <trkpt lat="45.6912" lon="6.42049">
        <ele>521</ele>
        <time>2023-08-21T06:07:22Z</time>
      </trkpt>
      <trkpt lat="45.69123" lon="6.42052">
        <ele>521</ele>
        <time>2023-08-21T06:07:23Z</time>
      </trkpt>
      <trkpt lat="45.69127" lon="6.42056">
        <ele>521</ele>
        <time>2023-08-21T06:07:24Z</time>
      </trkpt>
      <trkpt lat="45.6913" lon="6.4206">
        <ele>521</ele>
        <time>2023-08-21T06:07:25Z</time>
      </trkpt>
      <trkpt lat="45.69134" lon="6.42064">
        <ele>521.2</ele>
        <time>2023-08-21T06:07:26Z</time>
      </trkpt>
      <trkpt lat="45.69136" lon="6.42068">
        <ele>521.4</ele>
        <time>2023-08-21T06:07:27Z</time>
      </trkpt>
      <trkpt lat="45.69138" lon="6.42074">
        <ele>521.4</ele>
        <time>2023-08-21T06:07:28Z</time>
      </trkpt>
      <trkpt lat="45.69139" lon="6.4208">
        <ele>521.4</ele>
        <time>2023-08-21T06:07:29Z</time>
      </trkpt>
      <trkpt lat="45.6914" lon="6.42086">
        <ele>521.4</ele>
        <time>2023-08-21T06:07:30Z</time>
      </trkpt>
      <trkpt lat="45.69141" lon="6.42092">
        <ele>521.4</ele>
        <time>2023-08-21T06:07:31Z</time>
      </trkpt>
      <trkpt lat="45.69142" lon="6.42098">
        <ele>521.6</ele>
        <time>2023-08-21T06:07:32Z</time>
      </trkpt>
      <trkpt lat="45.69145" lon="6.42104">
        <ele>521.6</ele>
        <time>2023-08-21T06:07:33Z</time>
      </trkpt>
      <trkpt lat="45.69148" lon="6.42109">
        <ele>521.6</ele>
        <time>2023-08-21T06:07:34Z</time>
      </trkpt>
      <trkpt lat="45.69152" lon="6.42114">
        <ele>521.6</ele>
        <time>2023-08-21T06:07:35Z</time>
      </trkpt>
      <trkpt lat="45.69156" lon="6.42117">
        <ele>521.6</ele>
        <time>2023-08-21T06:07:36Z</time>
      </trkpt>
      <trkpt lat="45.69161" lon="6.42119">
        <ele>521.8</ele>
        <time>2023-08-21T06:07:37Z</time>
      </trkpt>
      <trkpt lat="45.69166" lon="6.4212">
        <ele>521.8</ele>
        <time>2023-08-21T06:07:38Z</time>
      </trkpt>
      <trkpt lat="45.69171" lon="6.4212">
        <ele>521.8</ele>
        <time>2023-08-21T06:07:39Z</time>
      </trkpt>
      <trkpt lat="45.69176" lon="6.42119">
        <ele>521.8</ele>
        <time>2023-08-21T06:07:40Z</time>
      </trkpt>
      <trkpt lat="45.69182" lon="6.42119">
        <ele>521.8</ele>
        <time>2023-08-21T06:07:41Z</time>
      </trkpt>
      <trkpt lat="45.69187" lon="6.42118">
        <ele>521.8</ele>
        <time>2023-08-21T06:07:42Z</time>
      </trkpt>
      <trkpt lat="45.69192" lon="6.42118">
        <ele>521.8</ele>
        <time>2023-08-21T06:07:43Z</time>
      </trkpt>
      <trkpt lat="45.69196" lon="6.42119">
        <ele>521.8</ele>
        <time>2023-08-21T06:07:44Z</time>
      </trkpt>
      <trkpt lat="45.69201" lon="6.4212">
        <ele>522.2</ele>
        <time>2023-08-21T06:07:45Z</time>
      </trkpt>
      <trkpt lat="45.69206" lon="6.42122">
        <ele>522.2</ele>
        <time>2023-08-21T06:07:46Z</time>
      </trkpt>
      <trkpt lat="45.6921" lon="6.42125">
        <ele>522.2</ele>
        <time>2023-08-21T06:07:47Z</time>
      </trkpt>
      <trkpt lat="45.69214" lon="6.42127">
        <ele>522.2</ele>
        <time>2023-08-21T06:07:48Z</time>
      </trkpt>
      <trkpt lat="45.69219" lon="6.4213">
        <ele>522.2</ele>
        <time>2023-08-21T06:07:49Z</time>
      </trkpt>
      <trkpt lat="45.69223" lon="6.42134">
        <ele>522.2</ele>
        <time>2023-08-21T06:07:50Z</time>
      </trkpt>
      <trkpt lat="45.69228" lon="6.42137">
        <ele>522.2</ele>
        <time>2023-08-21T06:07:51Z</time>
      </trkpt>
      <trkpt lat="45.69232" lon="6.4214">
        <ele>522.2</ele>
        <time>2023-08-21T06:07:52Z</time>
      </trkpt>
      <trkpt lat="45.69237" lon="6.42141">
        <ele>522.6</ele>
        <time>2023-08-21T06:07:53Z</time>
      </trkpt>
      <trkpt lat="45.69242" lon="6.42141">
        <ele>522.6</ele>
        <time>2023-08-21T06:07:54Z</time>
      </trkpt>
      <trkpt lat="45.69248" lon="6.42141">
        <ele>522.6</ele>
        <time>2023-08-21T06:07:55Z</time>
      </trkpt>
      <trkpt lat="45.69253" lon="6.42142">
        <ele>522.6</ele>
        <time>2023-08-21T06:07:56Z</time>
      </trkpt>
      <trkpt lat="45.69258" lon="6.42144">
        <ele>522.6</ele>
        <time>2023-08-21T06:07:57Z</time>
      </trkpt>
      <trkpt lat="45.69263" lon="6.42147">
        <ele>522.8</ele>
        <time>2023-08-21T06:07:58Z</time>
      </trkpt>
      <trkpt lat="45.69268" lon="6.4215">
        <ele>522.8</ele>
        <time>2023-08-21T06:07:59Z</time>
      </trkpt>
      <trkpt lat="45.69271" lon="6.42155">
        <ele>522.8</ele>
        <time>2023-08-21T06:08:00Z</time>
      </trkpt>
      <trkpt lat="45.69275" lon="6.4216">
        <ele>522.8</ele>
        <time>2023-08-21T06:08:01Z</time>
      </trkpt>
      <trkpt lat="45.69279" lon="6.42164">
        <ele>523</ele>
        <time>2023-08-21T06:08:02Z</time>
      </trkpt>
      <trkpt lat="45.69282" lon="6.42168">
        <ele>523</ele>
        <time>2023-08-21T06:08:03Z</time>
      </trkpt>
      <trkpt lat="45.69286" lon="6.42173">
        <ele>523.2</ele>
        <time>2023-08-21T06:08:04Z</time>
      </trkpt>
      <trkpt lat="45.6929" lon="6.42178">
        <ele>523.2</ele>
        <time>2023-08-21T06:08:05Z</time>
      </trkpt>
      <trkpt lat="45.69293" lon="6.42183">
        <ele>523.2</ele>
        <time>2023-08-21T06:08:06Z</time>
      </trkpt>
      <trkpt lat="45.69297" lon="6.42188">
        <ele>523.4</ele>
        <time>2023-08-21T06:08:07Z</time>
      </trkpt>
      <trkpt lat="45.69301" lon="6.42193">
        <ele>523.4</ele>
        <time>2023-08-21T06:08:08Z</time>
      </trkpt>
      <trkpt lat="45.69304" lon="6.42197">
        <ele>523.4</ele>
        <time>2023-08-21T06:08:09Z</time>
      </trkpt>
      <trkpt lat="45.69308" lon="6.42201">
        <ele>523.4</ele>
        <time>2023-08-21T06:08:10Z</time>
      </trkpt>
      <trkpt lat="45.69311" lon="6.42206">
        <ele>523.6</ele>
        <time>2023-08-21T06:08:11Z</time>
      </trkpt>
      <trkpt lat="45.69314" lon="6.42211">
        <ele>523.8</ele>
        <time>2023-08-21T06:08:12Z</time>
      </trkpt>
      <trkpt lat="45.69318" lon="6.42216">
        <ele>523.8</ele>
        <time>2023-08-21T06:08:13Z</time>
      </trkpt>
      <trkpt lat="45.69321" lon="6.42221">
        <ele>523.8</ele>
        <time>2023-08-21T06:08:14Z</time>
      </trkpt>
      <trkpt lat="45.69323" lon="6.42228">
        <ele>523.8</ele>
        <time>2023-08-21T06:08:15Z</time>
      </trkpt>
      <trkpt lat="45.69326" lon="6.42233">
        <ele>523.8</ele>
        <time>2023-08-21T06:08:16Z</time>
      </trkpt>
      <trkpt lat="45.6933" lon="6.42239">
        <ele>524</ele>
        <time>2023-08-21T06:08:17Z</time>
      </trkpt>
      <trkpt lat="45.69333" lon="6.42244">
        <ele>524</ele>
        <time>2023-08-21T06:08:18Z</time>
      </trkpt>
      <trkpt lat="45.69336" lon="6.4225">
        <ele>524</ele>
        <time>2023-08-21T06:08:19Z</time>
      </trkpt>
      <trkpt lat="45.69339" lon="6.42256">
        <ele>524</ele>
        <time>2023-08-21T06:08:20Z</time>
      </trkpt>
      <trkpt lat="45.69341" lon="6.42263">
        <ele>524</ele>
        <time>2023-08-21T06:08:21Z</time>
      </trkpt>
      <trkpt lat="45.69344" lon="6.42269">
        <ele>524</ele>
        <time>2023-08-21T06:08:22Z</time>
      </trkpt>
      <trkpt lat="45.69347" lon="6.42275">
        <ele>524</ele>
        <time>2023-08-21T06:08:23Z</time>
      </trkpt>
      <trkpt lat="45.69349" lon="6.42281">
        <ele>524.2</ele>
        <time>2023-08-21T06:08:24Z</time>
      </trkpt>
      <trkpt lat="45.69351" lon="6.42287">
        <ele>524.2</ele>
        <time>2023-08-21T06:08:25Z</time>
      </trkpt>
      <trkpt lat="45.69354" lon="6.42294">
        <ele>524.4</ele>
        <time>2023-08-21T06:08:26Z</time>
      </trkpt>
      <trkpt lat="45.69356" lon="6.423">
        <ele>524.4</ele>
        <time>2023-08-21T06:08:27Z</time>
      </trkpt>
      <trkpt lat="45.69359" lon="6.42306">
        <ele>524.4</ele>
        <time>2023-08-21T06:08:28Z</time>
      </trkpt>
      <trkpt lat="45.69361" lon="6.42312">
        <ele>524.8</ele>
        <time>2023-08-21T06:08:29Z</time>
      </trkpt>
      <trkpt lat="45.69364" lon="6.42317">
        <ele>524.6</ele>
        <time>2023-08-21T06:08:30Z</time>
      </trkpt>
      <trkpt lat="45.69366" lon="6.42323">
        <ele>524.6</ele>
        <time>2023-08-21T06:08:31Z</time>
      </trkpt>
      <trkpt lat="45.6937" lon="6.42328">
        <ele>524.6</ele>
        <time>2023-08-21T06:08:32Z</time>
      </trkpt>
      <trkpt lat="45.69373" lon="6.42333">
        <ele>524.6</ele>
        <time>2023-08-21T06:08:33Z</time>
      </trkpt>
      <trkpt lat="45.69375" lon="6.42338">
        <ele>524.6</ele>
        <time>2023-08-21T06:08:34Z</time>
      </trkpt>
      <trkpt lat="45.69379" lon="6.42343">
        <ele>524.8</ele>
        <time>2023-08-21T06:08:35Z</time>
      </trkpt>
      <trkpt lat="45.69383" lon="6.42349">
        <ele>524.8</ele>
        <time>2023-08-21T06:08:36Z</time>
      </trkpt>
      <trkpt lat="45.69387" lon="6.42354">
        <ele>524.8</ele>
        <time>2023-08-21T06:08:37Z</time>
      </trkpt>
      <trkpt lat="45.6939" lon="6.4236">
        <ele>525</ele>
        <time>2023-08-21T06:08:38Z</time>
      </trkpt>
      <trkpt lat="45.69393" lon="6.42365">
        <ele>525.2</ele>
        <time>2023-08-21T06:08:39Z</time>
      </trkpt>
      <trkpt lat="45.69397" lon="6.42369">
        <ele>525.2</ele>
        <time>2023-08-21T06:08:40Z</time>
      </trkpt>
      <trkpt lat="45.694" lon="6.42374">
        <ele>525.2</ele>
        <time>2023-08-21T06:08:41Z</time>
      </trkpt>
      <trkpt lat="45.69404" lon="6.42379">
        <ele>525.2</ele>
        <time>2023-08-21T06:08:42Z</time>
      </trkpt>
      <trkpt lat="45.69407" lon="6.42384">
        <ele>525.2</ele>
        <time>2023-08-21T06:08:43Z</time>
      </trkpt>
      <trkpt lat="45.69411" lon="6.42389">
        <ele>525.2</ele>
        <time>2023-08-21T06:08:44Z</time>
      </trkpt>
      <trkpt lat="45.69415" lon="6.42394">
        <ele>525.2</ele>
        <time>2023-08-21T06:08:45Z</time>
      </trkpt>
      <trkpt lat="45.69419" lon="6.42399">
        <ele>525.2</ele>
        <time>2023-08-21T06:08:46Z</time>
      </trkpt>
      <trkpt lat="45.69423" lon="6.42404">
        <ele>525.2</ele>
        <time>2023-08-21T06:08:47Z</time>
      </trkpt>
      <trkpt lat="45.69427" lon="6.4241">
        <ele>525.2</ele>
        <time>2023-08-21T06:08:48Z</time>
      </trkpt>
      <trkpt lat="45.69431" lon="6.42416">
        <ele>525.2</ele>
        <time>2023-08-21T06:08:49Z</time>
      </trkpt>
      <trkpt lat="45.69435" lon="6.42422">
        <ele>525.2</ele>
        <time>2023-08-21T06:08:50Z</time>
      </trkpt>
      <trkpt lat="45.69439" lon="6.42429">
        <ele>524.8</ele>
        <time>2023-08-21T06:08:51Z</time>
      </trkpt>
      <trkpt lat="45.69443" lon="6.42435">
        <ele>524.4</ele>
        <time>2023-08-21T06:08:52Z</time>
      </trkpt>
      <trkpt lat="45.69448" lon="6.42442">
        <ele>524.4</ele>
        <time>2023-08-21T06:08:53Z</time>
      </trkpt>
      <trkpt lat="45.69454" lon="6.42449">
        <ele>524.4</ele>
        <time>2023-08-21T06:08:54Z</time>
      </trkpt>
      <trkpt lat="45.6946" lon="6.42454">
        <ele>524.4</ele>
        <time>2023-08-21T06:08:55Z</time>
      </trkpt>
      <trkpt lat="45.69467" lon="6.42458">
        <ele>523.6</ele>
        <time>2023-08-21T06:08:56Z</time>
      </trkpt>
      <trkpt lat="45.69474" lon="6.42461">
        <ele>523.2</ele>
        <time>2023-08-21T06:08:57Z</time>
      </trkpt>
      <trkpt lat="45.69483" lon="6.42463">
        <ele>523.2</ele>
        <time>2023-08-21T06:08:58Z</time>
      </trkpt>
      <trkpt lat="45.69491" lon="6.42466">
        <ele>523.2</ele>
        <time>2023-08-21T06:08:59Z</time>
      </trkpt>
      <trkpt lat="45.69499" lon="6.4247">
        <ele>523.2</ele>
        <time>2023-08-21T06:09:00Z</time>
      </trkpt>
      <trkpt lat="45.69507" lon="6.42474">
        <ele>522.2</ele>
        <time>2023-08-21T06:09:01Z</time>
      </trkpt>
      <trkpt lat="45.69515" lon="6.42478">
        <ele>521.6</ele>
        <time>2023-08-21T06:09:02Z</time>
      </trkpt>
      <trkpt lat="45.69524" lon="6.42483">
        <ele>521.6</ele>
        <time>2023-08-21T06:09:03Z</time>
      </trkpt>
      <trkpt lat="45.69532" lon="6.42489">
        <ele>521.6</ele>
        <time>2023-08-21T06:09:04Z</time>
      </trkpt>
      <trkpt lat="45.69539" lon="6.42495">
        <ele>520.6</ele>
        <time>2023-08-21T06:09:05Z</time>
      </trkpt>
      <trkpt lat="45.69546" lon="6.42502">
        <ele>519.8</ele>
        <time>2023-08-21T06:09:06Z</time>
      </trkpt>
      <trkpt lat="45.69552" lon="6.42511">
        <ele>519.8</ele>
        <time>2023-08-21T06:09:07Z</time>
      </trkpt>
      <trkpt lat="45.69558" lon="6.4252">
        <ele>519.8</ele>
        <time>2023-08-21T06:09:08Z</time>
      </trkpt>
      <trkpt lat="45.69562" lon="6.42529">
        <ele>518.8</ele>
        <time>2023-08-21T06:09:09Z</time>
      </trkpt>
      <trkpt lat="45.69567" lon="6.42538">
        <ele>518.6</ele>
        <time>2023-08-21T06:09:10Z</time>
      </trkpt>
      <trkpt lat="45.69572" lon="6.42547">
        <ele>518.6</ele>
        <time>2023-08-21T06:09:11Z</time>
      </trkpt>
      <trkpt lat="45.69579" lon="6.42553">
        <ele>518.6</ele>
        <time>2023-08-21T06:09:12Z</time>
      </trkpt>
      <trkpt lat="45.69585" lon="6.42559">
        <ele>518.6</ele>
        <time>2023-08-21T06:09:13Z</time>
      </trkpt>
      <trkpt lat="45.69592" lon="6.42566">
        <ele>518</ele>
        <time>2023-08-21T06:09:14Z</time>
      </trkpt>
      <trkpt lat="45.69598" lon="6.42573">
        <ele>518</ele>
        <time>2023-08-21T06:09:15Z</time>
      </trkpt>
      <trkpt lat="45.69603" lon="6.42582">
        <ele>518</ele>
        <time>2023-08-21T06:09:16Z</time>
      </trkpt>
      <trkpt lat="45.69606" lon="6.42592">
        <ele>518</ele>
        <time>2023-08-21T06:09:17Z</time>
      </trkpt>
      <trkpt lat="45.69609" lon="6.42602">
        <ele>517.2</ele>
        <time>2023-08-21T06:09:18Z</time>
      </trkpt>
      <trkpt lat="45.69613" lon="6.42612">
        <ele>517</ele>
        <time>2023-08-21T06:09:19Z</time>
      </trkpt>
      <trkpt lat="45.69618" lon="6.42621">
        <ele>517</ele>
        <time>2023-08-21T06:09:20Z</time>
      </trkpt>
      <trkpt lat="45.69623" lon="6.42629">
        <ele>517</ele>
        <time>2023-08-21T06:09:21Z</time>
      </trkpt>
      <trkpt lat="45.69629" lon="6.42636">
        <ele>516.4</ele>
        <time>2023-08-21T06:09:22Z</time>
      </trkpt>
      <trkpt lat="45.69634" lon="6.42643">
        <ele>516.4</ele>
        <time>2023-08-21T06:09:23Z</time>
      </trkpt>
      <trkpt lat="45.69641" lon="6.42649">
        <ele>516.4</ele>
        <time>2023-08-21T06:09:24Z</time>
      </trkpt>
      <trkpt lat="45.69646" lon="6.42655">
        <ele>516.4</ele>
        <time>2023-08-21T06:09:25Z</time>
      </trkpt>
      <trkpt lat="45.69653" lon="6.4266">
        <ele>516.4</ele>
        <time>2023-08-21T06:09:26Z</time>
      </trkpt>
      <trkpt lat="45.6966" lon="6.42664">
        <ele>516.4</ele>
        <time>2023-08-21T06:09:27Z</time>
      </trkpt>
      <trkpt lat="45.69666" lon="6.42667">
        <ele>516.2</ele>
        <time>2023-08-21T06:09:28Z</time>
      </trkpt>
      <trkpt lat="45.69673" lon="6.42668">
        <ele>516.2</ele>
        <time>2023-08-21T06:09:29Z</time>
      </trkpt>
      <trkpt lat="45.6968" lon="6.42669">
        <ele>516.2</ele>
        <time>2023-08-21T06:09:30Z</time>
      </trkpt>
      <trkpt lat="45.69687" lon="6.4267">
        <ele>515.4</ele>
        <time>2023-08-21T06:09:31Z</time>
      </trkpt>
      <trkpt lat="45.69695" lon="6.42671">
        <ele>515.4</ele>
        <time>2023-08-21T06:09:32Z</time>
      </trkpt>
      <trkpt lat="45.69702" lon="6.42676">
        <ele>515.4</ele>
        <time>2023-08-21T06:09:33Z</time>
      </trkpt>
      <trkpt lat="45.69708" lon="6.4268">
        <ele>515.4</ele>
        <time>2023-08-21T06:09:34Z</time>
      </trkpt>
      <trkpt lat="45.69715" lon="6.42684">
        <ele>514.8</ele>
        <time>2023-08-21T06:09:35Z</time>
      </trkpt>
      <trkpt lat="45.69722" lon="6.42686">
        <ele>514.6</ele>
        <time>2023-08-21T06:09:36Z</time>
      </trkpt>
      <trkpt lat="45.6973" lon="6.42685">
        <ele>514.6</ele>
        <time>2023-08-21T06:09:37Z</time>
      </trkpt>
      <trkpt lat="45.69737" lon="6.42683">
        <ele>514.6</ele>
        <time>2023-08-21T06:09:38Z</time>
      </trkpt>
      <trkpt lat="45.69745" lon="6.42681">
        <ele>514.6</ele>
        <time>2023-08-21T06:09:39Z</time>
      </trkpt>
      <trkpt lat="45.69753" lon="6.42679">
        <ele>514.6</ele>
        <time>2023-08-21T06:09:40Z</time>
      </trkpt>
      <trkpt lat="45.69761" lon="6.4268">
        <ele>513.8</ele>
        <time>2023-08-21T06:09:41Z</time>
      </trkpt>
      <trkpt lat="45.69769" lon="6.42682">
        <ele>513.4</ele>
        <time>2023-08-21T06:09:42Z</time>
      </trkpt>
      <trkpt lat="45.69776" lon="6.42687">
        <ele>513.4</ele>
        <time>2023-08-21T06:09:43Z</time>
      </trkpt>
      <trkpt lat="45.69781" lon="6.42694">
        <ele>513.4</ele>
        <time>2023-08-21T06:09:44Z</time>
      </trkpt>
      <trkpt lat="45.69787" lon="6.42702">
        <ele>513.4</ele>
        <time>2023-08-21T06:09:45Z</time>
      </trkpt>
      <trkpt lat="45.69792" lon="6.42708">
        <ele>513</ele>
        <time>2023-08-21T06:09:46Z</time>
      </trkpt>
      <trkpt lat="45.69798" lon="6.42714">
        <ele>513</ele>
        <time>2023-08-21T06:09:47Z</time>
      </trkpt>
      <trkpt lat="45.69804" lon="6.42719">
        <ele>513</ele>
        <time>2023-08-21T06:09:48Z</time>
      </trkpt>
      <trkpt lat="45.69811" lon="6.42724">
        <ele>513</ele>
        <time>2023-08-21T06:09:49Z</time>
      </trkpt>
      <trkpt lat="45.69818" lon="6.42727">
        <ele>512.4</ele>
        <time>2023-08-21T06:09:50Z</time>
      </trkpt>
      <trkpt lat="45.69826" lon="6.4273">
        <ele>512</ele>
        <time>2023-08-21T06:09:51Z</time>
      </trkpt>
      <trkpt lat="45.69833" lon="6.42734">
        <ele>512</ele>
        <time>2023-08-21T06:09:52Z</time>
      </trkpt>
      <trkpt lat="45.69841" lon="6.42738">
        <ele>512</ele>
        <time>2023-08-21T06:09:53Z</time>
      </trkpt>
      <trkpt lat="45.69848" lon="6.42743">
        <ele>511.4</ele>
        <time>2023-08-21T06:09:54Z</time>
      </trkpt>
      <trkpt lat="45.69856" lon="6.42748">
        <ele>511.2</ele>
        <time>2023-08-21T06:09:55Z</time>
      </trkpt>
      <trkpt lat="45.69863" lon="6.42754">
        <ele>511.2</ele>
        <time>2023-08-21T06:09:56Z</time>
      </trkpt>
      <trkpt lat="45.69871" lon="6.42759">
        <ele>511.2</ele>
        <time>2023-08-21T06:09:57Z</time>
      </trkpt>
      <trkpt lat="45.69878" lon="6.42765">
        <ele>510.6</ele>
        <time>2023-08-21T06:09:58Z</time>
      </trkpt>
      <trkpt lat="45.69885" lon="6.42771">
        <ele>510.2</ele>
        <time>2023-08-21T06:09:59Z</time>
      </trkpt>
      <trkpt lat="45.69892" lon="6.42776">
        <ele>510.2</ele>
        <time>2023-08-21T06:10:00Z</time>
      </trkpt>
      <trkpt lat="45.699" lon="6.42782">
        <ele>510.2</ele>
        <time>2023-08-21T06:10:01Z</time>
      </trkpt>
      <trkpt lat="45.69908" lon="6.42787">
        <ele>510.2</ele>
        <time>2023-08-21T06:10:02Z</time>
      </trkpt>
      <trkpt lat="45.69915" lon="6.42792">
        <ele>509.4</ele>
        <time>2023-08-21T06:10:03Z</time>
      </trkpt>
      <trkpt lat="45.69923" lon="6.42798">
        <ele>509.2</ele>
        <time>2023-08-21T06:10:04Z</time>
      </trkpt>
      <trkpt lat="45.6993" lon="6.42804">
        <ele>509.2</ele>
        <time>2023-08-21T06:10:05Z</time>
      </trkpt>
      <trkpt lat="45.69938" lon="6.4281">
        <ele>509.2</ele>
        <time>2023-08-21T06:10:06Z</time>
      </trkpt>
      <trkpt lat="45.69945" lon="6.42817">
        <ele>508.2</ele>
        <time>2023-08-21T06:10:07Z</time>
      </trkpt>
      <trkpt lat="45.69952" lon="6.42823">
        <ele>508</ele>
        <time>2023-08-21T06:10:08Z</time>
      </trkpt>
      <trkpt lat="45.6996" lon="6.42829">
        <ele>508</ele>
        <time>2023-08-21T06:10:09Z</time>
      </trkpt>
      <trkpt lat="45.69967" lon="6.42835">
        <ele>508</ele>
        <time>2023-08-21T06:10:10Z</time>
      </trkpt>
      <trkpt lat="45.69974" lon="6.42841">
        <ele>507.2</ele>
        <time>2023-08-21T06:10:11Z</time>
      </trkpt>
      <trkpt lat="45.69982" lon="6.42847">
        <ele>507.2</ele>
        <time>2023-08-21T06:10:12Z</time>
      </trkpt>
      <trkpt lat="45.69989" lon="6.42852">
        <ele>507</ele>
        <time>2023-08-21T06:10:13Z</time>
      </trkpt>
      <trkpt lat="45.69996" lon="6.42857">
        <ele>507</ele>
        <time>2023-08-21T06:10:14Z</time>
      </trkpt>
      <trkpt lat="45.70004" lon="6.42862">
        <ele>507</ele>
        <time>2023-08-21T06:10:15Z</time>
      </trkpt>
      <trkpt lat="45.70011" lon="6.42864">
        <ele>506.4</ele>
        <time>2023-08-21T06:10:16Z</time>
      </trkpt>
      <trkpt lat="45.70019" lon="6.42865">
        <ele>506.2</ele>
        <time>2023-08-21T06:10:17Z</time>
      </trkpt>
      <trkpt lat="45.70028" lon="6.42863">
        <ele>506.2</ele>
        <time>2023-08-21T06:10:18Z</time>
      </trkpt>
      <trkpt lat="45.70036" lon="6.42861">
        <ele>506.2</ele>
        <time>2023-08-21T06:10:19Z</time>
      </trkpt>
      <trkpt lat="45.70044" lon="6.42858">
        <ele>505.4</ele>
        <time>2023-08-21T06:10:20Z</time>
      </trkpt>
      <trkpt lat="45.70053" lon="6.42856">
        <ele>505.2</ele>
        <time>2023-08-21T06:10:21Z</time>
      </trkpt>
      <trkpt lat="45.70061" lon="6.42856">
        <ele>505.2</ele>
        <time>2023-08-21T06:10:22Z</time>
      </trkpt>
      <trkpt lat="45.70069" lon="6.42859">
        <ele>505.2</ele>
        <time>2023-08-21T06:10:23Z</time>
      </trkpt>
      <trkpt lat="45.70077" lon="6.42864">
        <ele>505.2</ele>
        <time>2023-08-21T06:10:24Z</time>
      </trkpt>
      <trkpt lat="45.70083" lon="6.42871">
        <ele>505.2</ele>
        <time>2023-08-21T06:10:25Z</time>
      </trkpt>
      <trkpt lat="45.70089" lon="6.4288">
        <ele>504.4</ele>
        <time>2023-08-21T06:10:26Z</time>
      </trkpt>
      <trkpt lat="45.70094" lon="6.42888">
        <ele>504.2</ele>
        <time>2023-08-21T06:10:27Z</time>
      </trkpt>
      <trkpt lat="45.701" lon="6.42896">
        <ele>504.2</ele>
        <time>2023-08-21T06:10:28Z</time>
      </trkpt>
      <trkpt lat="45.70107" lon="6.42901">
        <ele>504.2</ele>
        <time>2023-08-21T06:10:29Z</time>
      </trkpt>
      <trkpt lat="45.70115" lon="6.42905">
        <ele>503.6</ele>
        <time>2023-08-21T06:10:30Z</time>
      </trkpt>
      <trkpt lat="45.70122" lon="6.42908">
        <ele>503.2</ele>
        <time>2023-08-21T06:10:31Z</time>
      </trkpt>
      <trkpt lat="45.70131" lon="6.42911">
        <ele>503.2</ele>
        <time>2023-08-21T06:10:32Z</time>
      </trkpt>
      <trkpt lat="45.70139" lon="6.42914">
        <ele>503.2</ele>
        <time>2023-08-21T06:10:33Z</time>
      </trkpt>
      <trkpt lat="45.70147" lon="6.42918">
        <ele>502.2</ele>
        <time>2023-08-21T06:10:34Z</time>
      </trkpt>
      <trkpt lat="45.70155" lon="6.42922">
        <ele>502.2</ele>
        <time>2023-08-21T06:10:35Z</time>
      </trkpt>
      <trkpt lat="45.70163" lon="6.42927">
        <ele>502.2</ele>
        <time>2023-08-21T06:10:36Z</time>
      </trkpt>
      <trkpt lat="45.7017" lon="6.42934">
        <ele>502.2</ele>
        <time>2023-08-21T06:10:37Z</time>
      </trkpt>
      <trkpt lat="45.70176" lon="6.42941">
        <ele>502.2</ele>
        <time>2023-08-21T06:10:38Z</time>
      </trkpt>
      <trkpt lat="45.70183" lon="6.42949">
        <ele>501.2</ele>
        <time>2023-08-21T06:10:39Z</time>
      </trkpt>
      <trkpt lat="45.70189" lon="6.42958">
        <ele>500.8</ele>
        <time>2023-08-21T06:10:40Z</time>
      </trkpt>
      <trkpt lat="45.70194" lon="6.42967">
        <ele>500.8</ele>
        <time>2023-08-21T06:10:41Z</time>
      </trkpt>
      <trkpt lat="45.70199" lon="6.42977">
        <ele>500.8</ele>
        <time>2023-08-21T06:10:42Z</time>
      </trkpt>
      <trkpt lat="45.70204" lon="6.42987">
        <ele>500.6</ele>
        <time>2023-08-21T06:10:43Z</time>
      </trkpt>
      <trkpt lat="45.7021" lon="6.42996">
        <ele>500</ele>
        <time>2023-08-21T06:10:44Z</time>
      </trkpt>
      <trkpt lat="45.70215" lon="6.43005">
        <ele>500</ele>
        <time>2023-08-21T06:10:45Z</time>
      </trkpt>
      <trkpt lat="45.70222" lon="6.43012">
        <ele>500</ele>
        <time>2023-08-21T06:10:46Z</time>
      </trkpt>
      <trkpt lat="45.70228" lon="6.43018">
        <ele>499.6</ele>
        <time>2023-08-21T06:10:47Z</time>
      </trkpt>
      <trkpt lat="45.70235" lon="6.43024">
        <ele>499</ele>
        <time>2023-08-21T06:10:48Z</time>
      </trkpt>
      <trkpt lat="45.70243" lon="6.4303">
        <ele>499</ele>
        <time>2023-08-21T06:10:49Z</time>
      </trkpt>
      <trkpt lat="45.7025" lon="6.43036">
        <ele>499</ele>
        <time>2023-08-21T06:10:50Z</time>
      </trkpt>
      <trkpt lat="45.70258" lon="6.43043">
        <ele>499</ele>
        <time>2023-08-21T06:10:51Z</time>
      </trkpt>
      <trkpt lat="45.70266" lon="6.43048">
        <ele>498</ele>
        <time>2023-08-21T06:10:52Z</time>
      </trkpt>
      <trkpt lat="45.70273" lon="6.43054">
        <ele>498</ele>
        <time>2023-08-21T06:10:53Z</time>
      </trkpt>
      <trkpt lat="45.70281" lon="6.43061">
        <ele>497.6</ele>
        <time>2023-08-21T06:10:54Z</time>
      </trkpt>
      <trkpt lat="45.70289" lon="6.43067">
        <ele>497.6</ele>
        <time>2023-08-21T06:10:55Z</time>
      </trkpt>
      <trkpt lat="45.70297" lon="6.43073">
        <ele>496.8</ele>
        <time>2023-08-21T06:10:56Z</time>
      </trkpt>
      <trkpt lat="45.70305" lon="6.43079">
        <ele>496</ele>
        <time>2023-08-21T06:10:57Z</time>
      </trkpt>
      <trkpt lat="45.70314" lon="6.43083">
        <ele>496</ele>
        <time>2023-08-21T06:10:58Z</time>
      </trkpt>
      <trkpt lat="45.70322" lon="6.43088">
        <ele>496</ele>
        <time>2023-08-21T06:10:59Z</time>
      </trkpt>
      <trkpt lat="45.70331" lon="6.43093">
        <ele>495</ele>
        <time>2023-08-21T06:11:00Z</time>
      </trkpt>
      <trkpt lat="45.70339" lon="6.43098">
        <ele>494.8</ele>
        <time>2023-08-21T06:11:01Z</time>
      </trkpt>
      <trkpt lat="45.70349" lon="6.43101">
        <ele>494.8</ele>
        <time>2023-08-21T06:11:02Z</time>
      </trkpt>
      <trkpt lat="45.70358" lon="6.43099">
        <ele>494.8</ele>
        <time>2023-08-21T06:11:03Z</time>
      </trkpt>
      <trkpt lat="45.70365" lon="6.43092">
        <ele>494.8</ele>
        <time>2023-08-21T06:11:04Z</time>
      </trkpt>
      <trkpt lat="45.70371" lon="6.43083">
        <ele>494.8</ele>
        <time>2023-08-21T06:11:05Z</time>
      </trkpt>
      <trkpt lat="45.70376" lon="6.43074">
        <ele>493.8</ele>
        <time>2023-08-21T06:11:06Z</time>
      </trkpt>
      <trkpt lat="45.70382" lon="6.43066">
        <ele>493.8</ele>
        <time>2023-08-21T06:11:07Z</time>
      </trkpt>
      <trkpt lat="45.70389" lon="6.43061">
        <ele>493.6</ele>
        <time>2023-08-21T06:11:08Z</time>
      </trkpt>
      <trkpt lat="45.70397" lon="6.43059">
        <ele>493.6</ele>
        <time>2023-08-21T06:11:09Z</time>
      </trkpt>
      <trkpt lat="45.70405" lon="6.43059">
        <ele>493.6</ele>
        <time>2023-08-21T06:11:10Z</time>
      </trkpt>
      <trkpt lat="45.70412" lon="6.43061">
        <ele>493.6</ele>
        <time>2023-08-21T06:11:11Z</time>
      </trkpt>
      <trkpt lat="45.70419" lon="6.43063">
        <ele>493.2</ele>
        <time>2023-08-21T06:11:12Z</time>
      </trkpt>
      <trkpt lat="45.70426" lon="6.43065">
        <ele>493.2</ele>
        <time>2023-08-21T06:11:13Z</time>
      </trkpt>
      <trkpt lat="45.70432" lon="6.43068">
        <ele>493.8</ele>
        <time>2023-08-21T06:11:14Z</time>
      </trkpt>
      <trkpt lat="45.70437" lon="6.43071">
        <ele>493.6</ele>
        <time>2023-08-21T06:11:15Z</time>
      </trkpt>
      <trkpt lat="45.70443" lon="6.43075">
        <ele>493.6</ele>
        <time>2023-08-21T06:11:16Z</time>
      </trkpt>
      <trkpt lat="45.70448" lon="6.43079">
        <ele>493.6</ele>
        <time>2023-08-21T06:11:17Z</time>
      </trkpt>
      <trkpt lat="45.70454" lon="6.43082">
        <ele>493.6</ele>
        <time>2023-08-21T06:11:18Z</time>
      </trkpt>
      <trkpt lat="45.7046" lon="6.43085">
        <ele>493.8</ele>
        <time>2023-08-21T06:11:19Z</time>
      </trkpt>
      <trkpt lat="45.70466" lon="6.43089">
        <ele>494</ele>
        <time>2023-08-21T06:11:20Z</time>
      </trkpt>
      <trkpt lat="45.70473" lon="6.43092">
        <ele>494</ele>
        <time>2023-08-21T06:11:21Z</time>
      </trkpt>
      <trkpt lat="45.70479" lon="6.43094">
        <ele>494</ele>
        <time>2023-08-21T06:11:22Z</time>
      </trkpt>
      <trkpt lat="45.70485" lon="6.43097">
        <ele>493.8</ele>
        <time>2023-08-21T06:11:23Z</time>
      </trkpt>
      <trkpt lat="45.70491" lon="6.43101">
        <ele>493.8</ele>
        <time>2023-08-21T06:11:24Z</time>
      </trkpt>
      <trkpt lat="45.70496" lon="6.43106">
        <ele>493.8</ele>
        <time>2023-08-21T06:11:25Z</time>
      </trkpt>
      <trkpt lat="45.70502" lon="6.43111">
        <ele>493.8</ele>
        <time>2023-08-21T06:11:26Z</time>
      </trkpt>
      <trkpt lat="45.70506" lon="6.43117">
        <ele>493.8</ele>
        <time>2023-08-21T06:11:27Z</time>
      </trkpt>
      <trkpt lat="45.7051" lon="6.43124">
        <ele>493.8</ele>
        <time>2023-08-21T06:11:28Z</time>
      </trkpt>
      <trkpt lat="45.70514" lon="6.43132">
        <ele>494.4</ele>
        <time>2023-08-21T06:11:29Z</time>
      </trkpt>
      <trkpt lat="45.70517" lon="6.4314">
        <ele>494.4</ele>
        <time>2023-08-21T06:11:30Z</time>
      </trkpt>
      <trkpt lat="45.7052" lon="6.43147">
        <ele>494.4</ele>
        <time>2023-08-21T06:11:31Z</time>
      </trkpt>
      <trkpt lat="45.70523" lon="6.43154">
        <ele>494.4</ele>
        <time>2023-08-21T06:11:32Z</time>
      </trkpt>
      <trkpt lat="45.70526" lon="6.43161">
        <ele>494.4</ele>
        <time>2023-08-21T06:11:33Z</time>
      </trkpt>
      <trkpt lat="45.70529" lon="6.43168">
        <ele>494.2</ele>
        <time>2023-08-21T06:11:34Z</time>
      </trkpt>
      <trkpt lat="45.70533" lon="6.43174">
        <ele>494.2</ele>
        <time>2023-08-21T06:11:35Z</time>
      </trkpt>
      <trkpt lat="45.70536" lon="6.43181">
        <ele>494.2</ele>
        <time>2023-08-21T06:11:36Z</time>
      </trkpt>
      <trkpt lat="45.7054" lon="6.43188">
        <ele>494.2</ele>
        <time>2023-08-21T06:11:37Z</time>
      </trkpt>
      <trkpt lat="45.70543" lon="6.43195">
        <ele>494.2</ele>
        <time>2023-08-21T06:11:38Z</time>
      </trkpt>
      <trkpt lat="45.70547" lon="6.43201">
        <ele>494.2</ele>
        <time>2023-08-21T06:11:39Z</time>
      </trkpt>
      <trkpt lat="45.70551" lon="6.43206">
        <ele>494.2</ele>
        <time>2023-08-21T06:11:40Z</time>
      </trkpt>
      <trkpt lat="45.70556" lon="6.43211">
        <ele>494.2</ele>
        <time>2023-08-21T06:11:41Z</time>
      </trkpt>
      <trkpt lat="45.70561" lon="6.43216">
        <ele>494.2</ele>
        <time>2023-08-21T06:11:42Z</time>
      </trkpt>
      <trkpt lat="45.70565" lon="6.43221">
        <ele>494.2</ele>
        <time>2023-08-21T06:11:43Z</time>
      </trkpt>
      <trkpt lat="45.70569" lon="6.43226">
        <ele>494.2</ele>
        <time>2023-08-21T06:11:44Z</time>
      </trkpt>
      <trkpt lat="45.70574" lon="6.43231">
        <ele>494.2</ele>
        <time>2023-08-21T06:11:45Z</time>
      </trkpt>
      <trkpt lat="45.70579" lon="6.43236">
        <ele>494.2</ele>
        <time>2023-08-21T06:11:46Z</time>
      </trkpt>
      <trkpt lat="45.70583" lon="6.43242">
        <ele>494.4</ele>
        <time>2023-08-21T06:11:47Z</time>
      </trkpt>
      <trkpt lat="45.70587" lon="6.43248">
        <ele>494.4</ele>
        <time>2023-08-21T06:11:48Z</time>
      </trkpt>
      <trkpt lat="45.70591" lon="6.43255">
        <ele>494.4</ele>
        <time>2023-08-21T06:11:49Z</time>
      </trkpt>
      <trkpt lat="45.70595" lon="6.43261">
        <ele>494.4</ele>
        <time>2023-08-21T06:11:50Z</time>
      </trkpt>
      <trkpt lat="45.70599" lon="6.43267">
        <ele>494.4</ele>
        <time>2023-08-21T06:11:51Z</time>
      </trkpt>
      <trkpt lat="45.70602" lon="6.43274">
        <ele>494.8</ele>
        <time>2023-08-21T06:11:52Z</time>
      </trkpt>
      <trkpt lat="45.70605" lon="6.43281">
        <ele>494.8</ele>
        <time>2023-08-21T06:11:53Z</time>
      </trkpt>
      <trkpt lat="45.70608" lon="6.43288">
        <ele>494.8</ele>
        <time>2023-08-21T06:11:54Z</time>
      </trkpt>
      <trkpt lat="45.70611" lon="6.43295">
        <ele>494.8</ele>
        <time>2023-08-21T06:11:55Z</time>
      </trkpt>
      <trkpt lat="45.70614" lon="6.43301">
        <ele>494.8</ele>
        <time>2023-08-21T06:11:56Z</time>
      </trkpt>
      <trkpt lat="45.70617" lon="6.43308">
        <ele>494.8</ele>
        <time>2023-08-21T06:11:57Z</time>
      </trkpt>
      <trkpt lat="45.7062" lon="6.43315">
        <ele>494.8</ele>
        <time>2023-08-21T06:11:58Z</time>
      </trkpt>
      <trkpt lat="45.70622" lon="6.43321">
        <ele>495</ele>
        <time>2023-08-21T06:11:59Z</time>
      </trkpt>
      <trkpt lat="45.70625" lon="6.43327">
        <ele>495</ele>
        <time>2023-08-21T06:12:00Z</time>
      </trkpt>
      <trkpt lat="45.70629" lon="6.43333">
        <ele>495</ele>
        <time>2023-08-21T06:12:01Z</time>
      </trkpt>
      <trkpt lat="45.70632" lon="6.43338">
        <ele>495</ele>
        <time>2023-08-21T06:12:02Z</time>
      </trkpt>
      <trkpt lat="45.70635" lon="6.43343">
        <ele>495</ele>
        <time>2023-08-21T06:12:03Z</time>
      </trkpt>
      <trkpt lat="45.70639" lon="6.43349">
        <ele>495</ele>
        <time>2023-08-21T06:12:04Z</time>
      </trkpt>
      <trkpt lat="45.70642" lon="6.43353">
        <ele>495</ele>
        <time>2023-08-21T06:12:05Z</time>
      </trkpt>
      <trkpt lat="45.70646" lon="6.43358">
        <ele>495</ele>
        <time>2023-08-21T06:12:06Z</time>
      </trkpt>
      <trkpt lat="45.7065" lon="6.43362">
        <ele>495</ele>
        <time>2023-08-21T06:12:07Z</time>
      </trkpt>
      <trkpt lat="45.70654" lon="6.43366">
        <ele>495.2</ele>
        <time>2023-08-21T06:12:08Z</time>
      </trkpt>
      <trkpt lat="45.70658" lon="6.43371">
        <ele>495.2</ele>
        <time>2023-08-21T06:12:09Z</time>
      </trkpt>
      <trkpt lat="45.70661" lon="6.43375">
        <ele>495.2</ele>
        <time>2023-08-21T06:12:10Z</time>
      </trkpt>
      <trkpt lat="45.70666" lon="6.4338">
        <ele>495.2</ele>
        <time>2023-08-21T06:12:11Z</time>
      </trkpt>
      <trkpt lat="45.7067" lon="6.43384">
        <ele>495.6</ele>
        <time>2023-08-21T06:12:12Z</time>
      </trkpt>
      <trkpt lat="45.70674" lon="6.43388">
        <ele>495.6</ele>
        <time>2023-08-21T06:12:13Z</time>
      </trkpt>
      <trkpt lat="45.70678" lon="6.43392">
        <ele>495.8</ele>
        <time>2023-08-21T06:12:14Z</time>
      </trkpt>
      <trkpt lat="45.70682" lon="6.43397">
        <ele>495.8</ele>
        <time>2023-08-21T06:12:15Z</time>
      </trkpt>
      <trkpt lat="45.70686" lon="6.43401">
        <ele>495.8</ele>
        <time>2023-08-21T06:12:16Z</time>
      </trkpt>
      <trkpt lat="45.7069" lon="6.43406">
        <ele>495.6</ele>
        <time>2023-08-21T06:12:17Z</time>
      </trkpt>
      <trkpt lat="45.70694" lon="6.43409">
        <ele>495.6</ele>
        <time>2023-08-21T06:12:18Z</time>
      </trkpt>
      <trkpt lat="45.70698" lon="6.43414">
        <ele>495.6</ele>
        <time>2023-08-21T06:12:19Z</time>
      </trkpt>
      <trkpt lat="45.70702" lon="6.43419">
        <ele>495.6</ele>
        <time>2023-08-21T06:12:20Z</time>
      </trkpt>
      <trkpt lat="45.70707" lon="6.43423">
        <ele>495.6</ele>
        <time>2023-08-21T06:12:21Z</time>
      </trkpt>
      <trkpt lat="45.7071" lon="6.43426">
        <ele>495.8</ele>
        <time>2023-08-21T06:12:22Z</time>
      </trkpt>
      <trkpt lat="45.70715" lon="6.43429">
        <ele>495.8</ele>
        <time>2023-08-21T06:12:23Z</time>
      </trkpt>
      <trkpt lat="45.7072" lon="6.4343">
        <ele>495.8</ele>
        <time>2023-08-21T06:12:24Z</time>
      </trkpt>
      <trkpt lat="45.70725" lon="6.43433">
        <ele>495.8</ele>
        <time>2023-08-21T06:12:25Z</time>
      </trkpt>
      <trkpt lat="45.7073" lon="6.43434">
        <ele>495.8</ele>
        <time>2023-08-21T06:12:26Z</time>
      </trkpt>
      <trkpt lat="45.70735" lon="6.43436">
        <ele>496</ele>
        <time>2023-08-21T06:12:27Z</time>
      </trkpt>
      <trkpt lat="45.7074" lon="6.43438">
        <ele>496</ele>
        <time>2023-08-21T06:12:28Z</time>
      </trkpt>
      <trkpt lat="45.70745" lon="6.4344">
        <ele>496</ele>
        <time>2023-08-21T06:12:29Z</time>
      </trkpt>
      <trkpt lat="45.7075" lon="6.43442">
        <ele>496</ele>
        <time>2023-08-21T06:12:30Z</time>
      </trkpt>
      <trkpt lat="45.70755" lon="6.43445">
        <ele>496</ele>
        <time>2023-08-21T06:12:31Z</time>
      </trkpt>
      <trkpt lat="45.7076" lon="6.43449">
        <ele>496.2</ele>
        <time>2023-08-21T06:12:32Z</time>
      </trkpt>
      <trkpt lat="45.70764" lon="6.43452">
        <ele>496.2</ele>
        <time>2023-08-21T06:12:33Z</time>
      </trkpt>
      <trkpt lat="45.70767" lon="6.43455">
        <ele>496.2</ele>
        <time>2023-08-21T06:12:34Z</time>
      </trkpt>
      <trkpt lat="45.70771" lon="6.43458">
        <ele>496.6</ele>
        <time>2023-08-21T06:12:35Z</time>
      </trkpt>
      <trkpt lat="45.70775" lon="6.43461">
        <ele>496.8</ele>
        <time>2023-08-21T06:12:36Z</time>
      </trkpt>
      <trkpt lat="45.70779" lon="6.43464">
        <ele>496.8</ele>
        <time>2023-08-21T06:12:37Z</time>
      </trkpt>
      <trkpt lat="45.70784" lon="6.43466">
        <ele>496.8</ele>
        <time>2023-08-21T06:12:38Z</time>
      </trkpt>
      <trkpt lat="45.70789" lon="6.43467">
        <ele>496.8</ele>
        <time>2023-08-21T06:12:39Z</time>
      </trkpt>
      <trkpt lat="45.70793" lon="6.43468">
        <ele>497.2</ele>
        <time>2023-08-21T06:12:40Z</time>
      </trkpt>
      <trkpt lat="45.70798" lon="6.43469">
        <ele>497.2</ele>
        <time>2023-08-21T06:12:41Z</time>
      </trkpt>
      <trkpt lat="45.70803" lon="6.43471">
        <ele>497.2</ele>
        <time>2023-08-21T06:12:42Z</time>
      </trkpt>
      <trkpt lat="45.70808" lon="6.43473">
        <ele>497.2</ele>
        <time>2023-08-21T06:12:43Z</time>
      </trkpt>
      <trkpt lat="45.70812" lon="6.43477">
        <ele>497.4</ele>
        <time>2023-08-21T06:12:44Z</time>
      </trkpt>
      <trkpt lat="45.70815" lon="6.43482">
        <ele>497.4</ele>
        <time>2023-08-21T06:12:45Z</time>
      </trkpt>
      <trkpt lat="45.70818" lon="6.43488">
        <ele>497.4</ele>
        <time>2023-08-21T06:12:46Z</time>
      </trkpt>
      <trkpt lat="45.70821" lon="6.43493">
        <ele>497.4</ele>
        <time>2023-08-21T06:12:47Z</time>
      </trkpt>
      <trkpt lat="45.70823" lon="6.43498">
        <ele>497.4</ele>
        <time>2023-08-21T06:12:48Z</time>
      </trkpt>
      <trkpt lat="45.70826" lon="6.43504">
        <ele>498.2</ele>
        <time>2023-08-21T06:12:49Z</time>
      </trkpt>
      <trkpt lat="45.70828" lon="6.43509">
        <ele>498.4</ele>
        <time>2023-08-21T06:12:50Z</time>
      </trkpt>
      <trkpt lat="45.7083" lon="6.43514">
        <ele>498.4</ele>
        <time>2023-08-21T06:12:51Z</time>
      </trkpt>
      <trkpt lat="45.70833" lon="6.43519">
        <ele>498.4</ele>
        <time>2023-08-21T06:12:52Z</time>
      </trkpt>
      <trkpt lat="45.70835" lon="6.43524">
        <ele>498.4</ele>
        <time>2023-08-21T06:12:53Z</time>
      </trkpt>
      <trkpt lat="45.70838" lon="6.43529">
        <ele>498.8</ele>
        <time>2023-08-21T06:12:54Z</time>
      </trkpt>
      <trkpt lat="45.70841" lon="6.43534">
        <ele>498.8</ele>
        <time>2023-08-21T06:12:55Z</time>
      </trkpt>
      <trkpt lat="45.70844" lon="6.43537">
        <ele>498.8</ele>
        <time>2023-08-21T06:12:56Z</time>
      </trkpt>
      <trkpt lat="45.70847" lon="6.43542">
        <ele>499.2</ele>
        <time>2023-08-21T06:12:57Z</time>
      </trkpt>
      <trkpt lat="45.7085" lon="6.43545">
        <ele>499.2</ele>
        <time>2023-08-21T06:12:58Z</time>
      </trkpt>
      <trkpt lat="45.70854" lon="6.43548">
        <ele>499.2</ele>
        <time>2023-08-21T06:12:59Z</time>
      </trkpt>
      <trkpt lat="45.70857" lon="6.43552">
        <ele>499.2</ele>
        <time>2023-08-21T06:13:00Z</time>
      </trkpt>
      <trkpt lat="45.7086" lon="6.43556">
        <ele>499.8</ele>
        <time>2023-08-21T06:13:01Z</time>
      </trkpt>
      <trkpt lat="45.70863" lon="6.4356">
        <ele>499.6</ele>
        <time>2023-08-21T06:13:02Z</time>
      </trkpt>
      <trkpt lat="45.70866" lon="6.43564">
        <ele>499.6</ele>
        <time>2023-08-21T06:13:03Z</time>
      </trkpt>
      <trkpt lat="45.70869" lon="6.43568">
        <ele>499.6</ele>
        <time>2023-08-21T06:13:04Z</time>
      </trkpt>
      <trkpt lat="45.70872" lon="6.43572">
        <ele>499.6</ele>
        <time>2023-08-21T06:13:05Z</time>
      </trkpt>
      <trkpt lat="45.70876" lon="6.43575">
        <ele>500.2</ele>
        <time>2023-08-21T06:13:06Z</time>
      </trkpt>
      <trkpt lat="45.70879" lon="6.43578">
        <ele>500.4</ele>
        <time>2023-08-21T06:13:07Z</time>
      </trkpt>
      <trkpt lat="45.70883" lon="6.43581">
        <ele>500.4</ele>
        <time>2023-08-21T06:13:08Z</time>
      </trkpt>
      <trkpt lat="45.70885" lon="6.43584">
        <ele>500.4</ele>
        <time>2023-08-21T06:13:09Z</time>
      </trkpt>
      <trkpt lat="45.70888" lon="6.43587">
        <ele>500.4</ele>
        <time>2023-08-21T06:13:10Z</time>
      </trkpt>
      <trkpt lat="45.70892" lon="6.4359">
        <ele>500.8</ele>
        <time>2023-08-21T06:13:11Z</time>
      </trkpt>
      <trkpt lat="45.70895" lon="6.43592">
        <ele>500.8</ele>
        <time>2023-08-21T06:13:12Z</time>
      </trkpt>
      <trkpt lat="45.70899" lon="6.43594">
        <ele>500.8</ele>
        <time>2023-08-21T06:13:13Z</time>
      </trkpt>
      <trkpt lat="45.70903" lon="6.43596">
        <ele>500.8</ele>
        <time>2023-08-21T06:13:14Z</time>
      </trkpt>
      <trkpt lat="45.70908" lon="6.43597">
        <ele>500.8</ele>
        <time>2023-08-21T06:13:15Z</time>
      </trkpt>
      <trkpt lat="45.70913" lon="6.43599">
        <ele>501.2</ele>
        <time>2023-08-21T06:13:16Z</time>
      </trkpt>
      <trkpt lat="45.70917" lon="6.43602">
        <ele>501.2</ele>
        <time>2023-08-21T06:13:17Z</time>
      </trkpt>
      <trkpt lat="45.70921" lon="6.43605">
        <ele>501.2</ele>
        <time>2023-08-21T06:13:18Z</time>
      </trkpt>
      <trkpt lat="45.70924" lon="6.43609">
        <ele>501.2</ele>
        <time>2023-08-21T06:13:19Z</time>
      </trkpt>
      <trkpt lat="45.70927" lon="6.43613">
        <ele>501.4</ele>
        <time>2023-08-21T06:13:20Z</time>
      </trkpt>
      <trkpt lat="45.70931" lon="6.43616">
        <ele>501.6</ele>
        <time>2023-08-21T06:13:21Z</time>
      </trkpt>
      <trkpt lat="45.70934" lon="6.4362">
        <ele>501.6</ele>
        <time>2023-08-21T06:13:22Z</time>
      </trkpt>
      <trkpt lat="45.70937" lon="6.43624">
        <ele>501.6</ele>
        <time>2023-08-21T06:13:23Z</time>
      </trkpt>
      <trkpt lat="45.70941" lon="6.43628">
        <ele>501.8</ele>
        <time>2023-08-21T06:13:24Z</time>
      </trkpt>
      <trkpt lat="45.70944" lon="6.43632">
        <ele>501.8</ele>
        <time>2023-08-21T06:13:25Z</time>
      </trkpt>
      <trkpt lat="45.70947" lon="6.43635">
        <ele>502</ele>
        <time>2023-08-21T06:13:26Z</time>
      </trkpt>
      <trkpt lat="45.70951" lon="6.43638">
        <ele>502</ele>
        <time>2023-08-21T06:13:27Z</time>
      </trkpt>
      <trkpt lat="45.70955" lon="6.43641">
        <ele>502</ele>
        <time>2023-08-21T06:13:28Z</time>
      </trkpt>
      <trkpt lat="45.70959" lon="6.43644">
        <ele>502</ele>
        <time>2023-08-21T06:13:29Z</time>
      </trkpt>
      <trkpt lat="45.70963" lon="6.43647">
        <ele>502.4</ele>
        <time>2023-08-21T06:13:30Z</time>
      </trkpt>
      <trkpt lat="45.70967" lon="6.43651">
        <ele>502.4</ele>
        <time>2023-08-21T06:13:31Z</time>
      </trkpt>
      <trkpt lat="45.70972" lon="6.43654">
        <ele>502.4</ele>
        <time>2023-08-21T06:13:32Z</time>
      </trkpt>
      <trkpt lat="45.70976" lon="6.43658">
        <ele>502.4</ele>
        <time>2023-08-21T06:13:33Z</time>
      </trkpt>
      <trkpt lat="45.7098" lon="6.43663">
        <ele>502.6</ele>
        <time>2023-08-21T06:13:34Z</time>
      </trkpt>
      <trkpt lat="45.70984" lon="6.43668">
        <ele>502.6</ele>
        <time>2023-08-21T06:13:35Z</time>
      </trkpt>
      <trkpt lat="45.70987" lon="6.43673">
        <ele>502.6</ele>
        <time>2023-08-21T06:13:36Z</time>
      </trkpt>
      <trkpt lat="45.70991" lon="6.43678">
        <ele>502.8</ele>
        <time>2023-08-21T06:13:37Z</time>
      </trkpt>
      <trkpt lat="45.70994" lon="6.43683">
        <ele>502.8</ele>
        <time>2023-08-21T06:13:38Z</time>
      </trkpt>
      <trkpt lat="45.70998" lon="6.43688">
        <ele>503</ele>
        <time>2023-08-21T06:13:39Z</time>
      </trkpt>
      <trkpt lat="45.71001" lon="6.43693">
        <ele>503</ele>
        <time>2023-08-21T06:13:40Z</time>
      </trkpt>
      <trkpt lat="45.71005" lon="6.43698">
        <ele>503</ele>
        <time>2023-08-21T06:13:41Z</time>
      </trkpt>
      <trkpt lat="45.71008" lon="6.43703">
        <ele>503</ele>
        <time>2023-08-21T06:13:42Z</time>
      </trkpt>
      <trkpt lat="45.71012" lon="6.43708">
        <ele>503.2</ele>
        <time>2023-08-21T06:13:43Z</time>
      </trkpt>
      <trkpt lat="45.71015" lon="6.43713">
        <ele>503.2</ele>
        <time>2023-08-21T06:13:44Z</time>
      </trkpt>
      <trkpt lat="45.71018" lon="6.43718">
        <ele>503.2</ele>
        <time>2023-08-21T06:13:45Z</time>
      </trkpt>
      <trkpt lat="45.71022" lon="6.43723">
        <ele>503.6</ele>
        <time>2023-08-21T06:13:46Z</time>
      </trkpt>
      <trkpt lat="45.71025" lon="6.43729">
        <ele>503.6</ele>
        <time>2023-08-21T06:13:47Z</time>
      </trkpt>
      <trkpt lat="45.71029" lon="6.43734">
        <ele>503.4</ele>
        <time>2023-08-21T06:13:48Z</time>
      </trkpt>
      <trkpt lat="45.71032" lon="6.43739">
        <ele>503.4</ele>
        <time>2023-08-21T06:13:49Z</time>
      </trkpt>
      <trkpt lat="45.71036" lon="6.43745">
        <ele>503.4</ele>
        <time>2023-08-21T06:13:50Z</time>
      </trkpt>
      <trkpt lat="45.7104" lon="6.43749">
        <ele>503.4</ele>
        <time>2023-08-21T06:13:51Z</time>
      </trkpt>
      <trkpt lat="45.71044" lon="6.43754">
        <ele>504</ele>
        <time>2023-08-21T06:13:52Z</time>
      </trkpt>
      <trkpt lat="45.71048" lon="6.43759">
        <ele>504</ele>
        <time>2023-08-21T06:13:53Z</time>
      </trkpt>
      <trkpt lat="45.71052" lon="6.43763">
        <ele>504</ele>
        <time>2023-08-21T06:13:54Z</time>
      </trkpt>
      <trkpt lat="45.71057" lon="6.43767">
        <ele>504</ele>
        <time>2023-08-21T06:13:55Z</time>
      </trkpt>
      <trkpt lat="45.71061" lon="6.43771">
        <ele>504</ele>
        <time>2023-08-21T06:13:56Z</time>
      </trkpt>
      <trkpt lat="45.71066" lon="6.43775">
        <ele>504.2</ele>
        <time>2023-08-21T06:13:57Z</time>
      </trkpt>
      <trkpt lat="45.7107" lon="6.43779">
        <ele>504.2</ele>
        <time>2023-08-21T06:13:58Z</time>
      </trkpt>
      <trkpt lat="45.71074" lon="6.43783">
        <ele>504.2</ele>
        <time>2023-08-21T06:13:59Z</time>
      </trkpt>
      <trkpt lat="45.71079" lon="6.43788">
        <ele>504.2</ele>
        <time>2023-08-21T06:14:00Z</time>
      </trkpt>
      <trkpt lat="45.71083" lon="6.43793">
        <ele>504.4</ele>
        <time>2023-08-21T06:14:01Z</time>
      </trkpt>
      <trkpt lat="45.71087" lon="6.43799">
        <ele>504.4</ele>
        <time>2023-08-21T06:14:02Z</time>
      </trkpt>
      <trkpt lat="45.71091" lon="6.43805">
        <ele>504.4</ele>
        <time>2023-08-21T06:14:03Z</time>
      </trkpt>
      <trkpt lat="45.71094" lon="6.43811">
        <ele>504.4</ele>
        <time>2023-08-21T06:14:04Z</time>
      </trkpt>
      <trkpt lat="45.71097" lon="6.43817">
        <ele>504.4</ele>
        <time>2023-08-21T06:14:05Z</time>
      </trkpt>
      <trkpt lat="45.711" lon="6.43824">
        <ele>504.8</ele>
        <time>2023-08-21T06:14:06Z</time>
      </trkpt>
      <trkpt lat="45.71102" lon="6.4383">
        <ele>504.8</ele>
        <time>2023-08-21T06:14:07Z</time>
      </trkpt>
      <trkpt lat="45.71105" lon="6.43836">
        <ele>504.8</ele>
        <time>2023-08-21T06:14:08Z</time>
      </trkpt>
      <trkpt lat="45.71108" lon="6.43842">
        <ele>505</ele>
        <time>2023-08-21T06:14:09Z</time>
      </trkpt>
      <trkpt lat="45.71111" lon="6.43848">
        <ele>505</ele>
        <time>2023-08-21T06:14:10Z</time>
      </trkpt>
      <trkpt lat="45.71114" lon="6.43854">
        <ele>505.4</ele>
        <time>2023-08-21T06:14:11Z</time>
      </trkpt>
      <trkpt lat="45.71117" lon="6.4386">
        <ele>505.4</ele>
        <time>2023-08-21T06:14:12Z</time>
      </trkpt>
      <trkpt lat="45.7112" lon="6.43865">
        <ele>505.4</ele>
        <time>2023-08-21T06:14:13Z</time>
      </trkpt>
      <trkpt lat="45.71123" lon="6.43871">
        <ele>505.4</ele>
        <time>2023-08-21T06:14:14Z</time>
      </trkpt>
      <trkpt lat="45.71127" lon="6.43875">
        <ele>505.6</ele>
        <time>2023-08-21T06:14:15Z</time>
      </trkpt>
      <trkpt lat="45.71131" lon="6.43879">
        <ele>505.6</ele>
        <time>2023-08-21T06:14:16Z</time>
      </trkpt>
      <trkpt lat="45.71135" lon="6.43883">
        <ele>505.6</ele>
        <time>2023-08-21T06:14:17Z</time>
      </trkpt>
      <trkpt lat="45.71139" lon="6.43887">
        <ele>505.6</ele>
        <time>2023-08-21T06:14:18Z</time>
      </trkpt>
      <trkpt lat="45.71142" lon="6.43892">
        <ele>505.8</ele>
        <time>2023-08-21T06:14:19Z</time>
      </trkpt>
      <trkpt lat="45.71146" lon="6.43895">
        <ele>505.8</ele>
        <time>2023-08-21T06:14:20Z</time>
      </trkpt>
      <trkpt lat="45.7115" lon="6.43898">
        <ele>505.8</ele>
        <time>2023-08-21T06:14:21Z</time>
      </trkpt>
      <trkpt lat="45.71154" lon="6.43902">
        <ele>506</ele>
        <time>2023-08-21T06:14:22Z</time>
      </trkpt>
      <trkpt lat="45.71158" lon="6.43906">
        <ele>506.2</ele>
        <time>2023-08-21T06:14:23Z</time>
      </trkpt>
      <trkpt lat="45.71163" lon="6.4391">
        <ele>506.2</ele>
        <time>2023-08-21T06:14:24Z</time>
      </trkpt>
      <trkpt lat="45.71167" lon="6.43914">
        <ele>506.2</ele>
        <time>2023-08-21T06:14:25Z</time>
      </trkpt>
      <trkpt lat="45.71172" lon="6.43917">
        <ele>506.4</ele>
        <time>2023-08-21T06:14:26Z</time>
      </trkpt>
      <trkpt lat="45.71177" lon="6.4392">
        <ele>506.4</ele>
        <time>2023-08-21T06:14:27Z</time>
      </trkpt>
      <trkpt lat="45.71181" lon="6.43923">
        <ele>506.4</ele>
        <time>2023-08-21T06:14:28Z</time>
      </trkpt>
      <trkpt lat="45.71186" lon="6.43926">
        <ele>506.4</ele>
        <time>2023-08-21T06:14:29Z</time>
      </trkpt>
      <trkpt lat="45.71191" lon="6.43928">
        <ele>506.4</ele>
        <time>2023-08-21T06:14:30Z</time>
      </trkpt>
      <trkpt lat="45.71196" lon="6.43932">
        <ele>506.4</ele>
        <time>2023-08-21T06:14:31Z</time>
      </trkpt>
      <trkpt lat="45.712" lon="6.43935">
        <ele>506.4</ele>
        <time>2023-08-21T06:14:32Z</time>
      </trkpt>
      <trkpt lat="45.71205" lon="6.43939">
        <ele>506.4</ele>
        <time>2023-08-21T06:14:33Z</time>
      </trkpt>
      <trkpt lat="45.71209" lon="6.43944">
        <ele>506.4</ele>
        <time>2023-08-21T06:14:34Z</time>
      </trkpt>
      <trkpt lat="45.71214" lon="6.43948">
        <ele>506.4</ele>
        <time>2023-08-21T06:14:35Z</time>
      </trkpt>
      <trkpt lat="45.71219" lon="6.43952">
        <ele>506.8</ele>
        <time>2023-08-21T06:14:36Z</time>
      </trkpt>
      <trkpt lat="45.71223" lon="6.43957">
        <ele>507</ele>
        <time>2023-08-21T06:14:37Z</time>
      </trkpt>
      <trkpt lat="45.71228" lon="6.43961">
        <ele>507</ele>
        <time>2023-08-21T06:14:38Z</time>
      </trkpt>
      <trkpt lat="45.71232" lon="6.43966">
        <ele>507</ele>
        <time>2023-08-21T06:14:39Z</time>
      </trkpt>
      <trkpt lat="45.71236" lon="6.43972">
        <ele>507</ele>
        <time>2023-08-21T06:14:40Z</time>
      </trkpt>
      <trkpt lat="45.71239" lon="6.43977">
        <ele>506.8</ele>
        <time>2023-08-21T06:14:41Z</time>
      </trkpt>
      <trkpt lat="45.71243" lon="6.43982">
        <ele>507</ele>
        <time>2023-08-21T06:14:42Z</time>
      </trkpt>
      <trkpt lat="45.71247" lon="6.43988">
        <ele>507</ele>
        <time>2023-08-21T06:14:43Z</time>
      </trkpt>
      <trkpt lat="45.7125" lon="6.43993">
        <ele>507</ele>
        <time>2023-08-21T06:14:44Z</time>
      </trkpt>
      <trkpt lat="45.71254" lon="6.43999">
        <ele>507</ele>
        <time>2023-08-21T06:14:45Z</time>
      </trkpt>
      <trkpt lat="45.71257" lon="6.44004">
        <ele>507.2</ele>
        <time>2023-08-21T06:14:46Z</time>
      </trkpt>
      <trkpt lat="45.71261" lon="6.4401">
        <ele>507.2</ele>
        <time>2023-08-21T06:14:47Z</time>
      </trkpt>
      <trkpt lat="45.71265" lon="6.44015">
        <ele>507.2</ele>
        <time>2023-08-21T06:14:48Z</time>
      </trkpt>
      <trkpt lat="45.71269" lon="6.4402">
        <ele>507.2</ele>
        <time>2023-08-21T06:14:49Z</time>
      </trkpt>
      <trkpt lat="45.71273" lon="6.44025">
        <ele>507.6</ele>
        <time>2023-08-21T06:14:50Z</time>
      </trkpt>
      <trkpt lat="45.71278" lon="6.44029">
        <ele>507.6</ele>
        <time>2023-08-21T06:14:51Z</time>
      </trkpt>
      <trkpt lat="45.71282" lon="6.44034">
        <ele>507.6</ele>
        <time>2023-08-21T06:14:52Z</time>
      </trkpt>
      <trkpt lat="45.71286" lon="6.44039">
        <ele>507.6</ele>
        <time>2023-08-21T06:14:53Z</time>
      </trkpt>
      <trkpt lat="45.71289" lon="6.44044">
        <ele>507</ele>
        <time>2023-08-21T06:14:54Z</time>
      </trkpt>
      <trkpt lat="45.71293" lon="6.4405">
        <ele>507.6</ele>
        <time>2023-08-21T06:14:55Z</time>
      </trkpt>
      <trkpt lat="45.71297" lon="6.44056">
        <ele>507.6</ele>
        <time>2023-08-21T06:14:56Z</time>
      </trkpt>
      <trkpt lat="45.713" lon="6.44061">
        <ele>507.6</ele>
        <time>2023-08-21T06:14:57Z</time>
      </trkpt>
      <trkpt lat="45.71305" lon="6.44067">
        <ele>507.8</ele>
        <time>2023-08-21T06:14:58Z</time>
      </trkpt>
      <trkpt lat="45.71308" lon="6.44071">
        <ele>507.6</ele>
        <time>2023-08-21T06:14:59Z</time>
      </trkpt>
      <trkpt lat="45.71313" lon="6.44076">
        <ele>507.6</ele>
        <time>2023-08-21T06:15:00Z</time>
      </trkpt>
      <trkpt lat="45.71317" lon="6.4408">
        <ele>507.6</ele>
        <time>2023-08-21T06:15:01Z</time>
      </trkpt>
      <trkpt lat="45.71321" lon="6.44085">
        <ele>507.6</ele>
        <time>2023-08-21T06:15:02Z</time>
      </trkpt>
      <trkpt lat="45.71325" lon="6.4409">
        <ele>507.4</ele>
        <time>2023-08-21T06:15:03Z</time>
      </trkpt>
      <trkpt lat="45.71329" lon="6.44095">
        <ele>507.4</ele>
        <time>2023-08-21T06:15:04Z</time>
      </trkpt>
      <trkpt lat="45.71333" lon="6.441">
        <ele>507.4</ele>
        <time>2023-08-21T06:15:05Z</time>
      </trkpt>
      <trkpt lat="45.71336" lon="6.44105">
        <ele>507.4</ele>
        <time>2023-08-21T06:15:06Z</time>
      </trkpt>
      <trkpt lat="45.7134" lon="6.4411">
        <ele>507.8</ele>
        <time>2023-08-21T06:15:07Z</time>
      </trkpt>
      <trkpt lat="45.71344" lon="6.44115">
        <ele>508</ele>
        <time>2023-08-21T06:15:08Z</time>
      </trkpt>
      <trkpt lat="45.71347" lon="6.4412">
        <ele>508</ele>
        <time>2023-08-21T06:15:09Z</time>
      </trkpt>
      <trkpt lat="45.71351" lon="6.44126">
        <ele>508</ele>
        <time>2023-08-21T06:15:10Z</time>
      </trkpt>
      <trkpt lat="45.71355" lon="6.44131">
        <ele>508.4</ele>
        <time>2023-08-21T06:15:11Z</time>
      </trkpt>
      <trkpt lat="45.71359" lon="6.44136">
        <ele>508.2</ele>
        <time>2023-08-21T06:15:12Z</time>
      </trkpt>
      <trkpt lat="45.71362" lon="6.44142">
        <ele>508.2</ele>
        <time>2023-08-21T06:15:13Z</time>
      </trkpt>
      <trkpt lat="45.71365" lon="6.44148">
        <ele>508.2</ele>
        <time>2023-08-21T06:15:14Z</time>
      </trkpt>
      <trkpt lat="45.71367" lon="6.44155">
        <ele>508.2</ele>
        <time>2023-08-21T06:15:15Z</time>
      </trkpt>
      <trkpt lat="45.7137" lon="6.44162">
        <ele>508.2</ele>
        <time>2023-08-21T06:15:16Z</time>
      </trkpt>
      <trkpt lat="45.71372" lon="6.44169">
        <ele>508.4</ele>
        <time>2023-08-21T06:15:17Z</time>
      </trkpt>
      <trkpt lat="45.71374" lon="6.44176">
        <ele>508.4</ele>
        <time>2023-08-21T06:15:18Z</time>
      </trkpt>
      <trkpt lat="45.71375" lon="6.44184">
        <ele>508.4</ele>
        <time>2023-08-21T06:15:19Z</time>
      </trkpt>
      <trkpt lat="45.71376" lon="6.44192">
        <ele>508.4</ele>
        <time>2023-08-21T06:15:20Z</time>
      </trkpt>
      <trkpt lat="45.71377" lon="6.44199">
        <ele>508.4</ele>
        <time>2023-08-21T06:15:21Z</time>
      </trkpt>
      <trkpt lat="45.71378" lon="6.44206">
        <ele>508.8</ele>
        <time>2023-08-21T06:15:22Z</time>
      </trkpt>
      <trkpt lat="45.71379" lon="6.44213">
        <ele>508.8</ele>
        <time>2023-08-21T06:15:23Z</time>
      </trkpt>
      <trkpt lat="45.7138" lon="6.4422">
        <ele>508.8</ele>
        <time>2023-08-21T06:15:24Z</time>
      </trkpt>
      <trkpt lat="45.71381" lon="6.44228">
        <ele>508.8</ele>
        <time>2023-08-21T06:15:25Z</time>
      </trkpt>
      <trkpt lat="45.71381" lon="6.44235">
        <ele>508.8</ele>
        <time>2023-08-21T06:15:26Z</time>
      </trkpt>
      <trkpt lat="45.71381" lon="6.44242">
        <ele>509</ele>
        <time>2023-08-21T06:15:27Z</time>
      </trkpt>
      <trkpt lat="45.7138" lon="6.4425">
        <ele>509</ele>
        <time>2023-08-21T06:15:28Z</time>
      </trkpt>
      <trkpt lat="45.7138" lon="6.44257">
        <ele>509</ele>
        <time>2023-08-21T06:15:29Z</time>
      </trkpt>
      <trkpt lat="45.71379" lon="6.44264">
        <ele>509.2</ele>
        <time>2023-08-21T06:15:30Z</time>
      </trkpt>
      <trkpt lat="45.71379" lon="6.44272">
        <ele>509.4</ele>
        <time>2023-08-21T06:15:31Z</time>
      </trkpt>
      <trkpt lat="45.71378" lon="6.44279">
        <ele>509.4</ele>
        <time>2023-08-21T06:15:32Z</time>
      </trkpt>
      <trkpt lat="45.71378" lon="6.44286">
        <ele>509.4</ele>
        <time>2023-08-21T06:15:33Z</time>
      </trkpt>
      <trkpt lat="45.7138" lon="6.44292">
        <ele>509.8</ele>
        <time>2023-08-21T06:15:34Z</time>
      </trkpt>
      <trkpt lat="45.71381" lon="6.44299">
        <ele>509.6</ele>
        <time>2023-08-21T06:15:35Z</time>
      </trkpt>
      <trkpt lat="45.71383" lon="6.44306">
        <ele>509.6</ele>
        <time>2023-08-21T06:15:36Z</time>
      </trkpt>
      <trkpt lat="45.71386" lon="6.44312">
        <ele>509.6</ele>
        <time>2023-08-21T06:15:37Z</time>
      </trkpt>
      <trkpt lat="45.71388" lon="6.44319">
        <ele>509.6</ele>
        <time>2023-08-21T06:15:38Z</time>
      </trkpt>
      <trkpt lat="45.71391" lon="6.44325">
        <ele>509.6</ele>
        <time>2023-08-21T06:15:39Z</time>
      </trkpt>
      <trkpt lat="45.71395" lon="6.44331">
        <ele>509.8</ele>
        <time>2023-08-21T06:15:40Z</time>
      </trkpt>
      <trkpt lat="45.71398" lon="6.44337">
        <ele>509.8</ele>
        <time>2023-08-21T06:15:41Z</time>
      </trkpt>
      <trkpt lat="45.71402" lon="6.44342">
        <ele>509.8</ele>
        <time>2023-08-21T06:15:42Z</time>
      </trkpt>
      <trkpt lat="45.71405" lon="6.44348">
        <ele>510</ele>
        <time>2023-08-21T06:15:43Z</time>
      </trkpt>
      <trkpt lat="45.71409" lon="6.44353">
        <ele>510.2</ele>
        <time>2023-08-21T06:15:44Z</time>
      </trkpt>
      <trkpt lat="45.71412" lon="6.44359">
        <ele>510.2</ele>
        <time>2023-08-21T06:15:45Z</time>
      </trkpt>
      <trkpt lat="45.71416" lon="6.44364">
        <ele>510.2</ele>
        <time>2023-08-21T06:15:46Z</time>
      </trkpt>
      <trkpt lat="45.7142" lon="6.4437">
        <ele>510.8</ele>
        <time>2023-08-21T06:15:47Z</time>
      </trkpt>
      <trkpt lat="45.71424" lon="6.44374">
        <ele>510.6</ele>
        <time>2023-08-21T06:15:48Z</time>
      </trkpt>
      <trkpt lat="45.71427" lon="6.44378">
        <ele>510.6</ele>
        <time>2023-08-21T06:15:49Z</time>
      </trkpt>
      <trkpt lat="45.71431" lon="6.44382">
        <ele>510.6</ele>
        <time>2023-08-21T06:15:50Z</time>
      </trkpt>
      <trkpt lat="45.71435" lon="6.44385">
        <ele>510.6</ele>
        <time>2023-08-21T06:15:51Z</time>
      </trkpt>
      <trkpt lat="45.71439" lon="6.44388">
        <ele>510.8</ele>
        <time>2023-08-21T06:15:52Z</time>
      </trkpt>
      <trkpt lat="45.71444" lon="6.4439">
        <ele>510.6</ele>
        <time>2023-08-21T06:15:53Z</time>
      </trkpt>
      <trkpt lat="45.71449" lon="6.44392">
        <ele>510.6</ele>
        <time>2023-08-21T06:15:54Z</time>
      </trkpt>
      <trkpt lat="45.71454" lon="6.44393">
        <ele>510.6</ele>
        <time>2023-08-21T06:15:55Z</time>
      </trkpt>
      <trkpt lat="45.71459" lon="6.44395">
        <ele>510.6</ele>
        <time>2023-08-21T06:15:56Z</time>
      </trkpt>
      <trkpt lat="45.71464" lon="6.44397">
        <ele>510.6</ele>
        <time>2023-08-21T06:15:57Z</time>
      </trkpt>
      <trkpt lat="45.71469" lon="6.44399">
        <ele>510.6</ele>
        <time>2023-08-21T06:15:58Z</time>
      </trkpt>
      <trkpt lat="45.71474" lon="6.44401">
        <ele>510.6</ele>
        <time>2023-08-21T06:15:59Z</time>
      </trkpt>
      <trkpt lat="45.71479" lon="6.44403">
        <ele>510.6</ele>
        <time>2023-08-21T06:16:00Z</time>
      </trkpt>
      <trkpt lat="45.71485" lon="6.44405">
        <ele>510.6</ele>
        <time>2023-08-21T06:16:01Z</time>
      </trkpt>
      <trkpt lat="45.7149" lon="6.44408">
        <ele>510.6</ele>
        <time>2023-08-21T06:16:02Z</time>
      </trkpt>
      <trkpt lat="45.71495" lon="6.4441">
        <ele>510.6</ele>
        <time>2023-08-21T06:16:03Z</time>
      </trkpt>
      <trkpt lat="45.715" lon="6.44413">
        <ele>510.6</ele>
        <time>2023-08-21T06:16:04Z</time>
      </trkpt>
      <trkpt lat="45.71505" lon="6.44416">
        <ele>510.6</ele>
        <time>2023-08-21T06:16:05Z</time>
      </trkpt>
      <trkpt lat="45.71511" lon="6.44419">
        <ele>510.6</ele>
        <time>2023-08-21T06:16:06Z</time>
      </trkpt>
      <trkpt lat="45.71516" lon="6.44422">
        <ele>510.8</ele>
        <time>2023-08-21T06:16:07Z</time>
      </trkpt>
      <trkpt lat="45.7152" lon="6.44425">
        <ele>510.8</ele>
        <time>2023-08-21T06:16:08Z</time>
      </trkpt>
      <trkpt lat="45.71525" lon="6.44429">
        <ele>510.8</ele>
        <time>2023-08-21T06:16:09Z</time>
      </trkpt>
      <trkpt lat="45.7153" lon="6.44433">
        <ele>510.8</ele>
        <time>2023-08-21T06:16:10Z</time>
      </trkpt>
      <trkpt lat="45.71535" lon="6.44437">
        <ele>511</ele>
        <time>2023-08-21T06:16:11Z</time>
      </trkpt>
      <trkpt lat="45.71539" lon="6.44441">
        <ele>511</ele>
        <time>2023-08-21T06:16:12Z</time>
      </trkpt>
      <trkpt lat="45.71544" lon="6.44445">
        <ele>511</ele>
        <time>2023-08-21T06:16:13Z</time>
      </trkpt>
      <trkpt lat="45.71548" lon="6.44449">
        <ele>511</ele>
        <time>2023-08-21T06:16:14Z</time>
      </trkpt>
      <trkpt lat="45.71552" lon="6.44454">
        <ele>511</ele>
        <time>2023-08-21T06:16:15Z</time>
      </trkpt>
      <trkpt lat="45.71556" lon="6.44458">
        <ele>511</ele>
        <time>2023-08-21T06:16:16Z</time>
      </trkpt>
      <trkpt lat="45.7156" lon="6.44463">
        <ele>511</ele>
        <time>2023-08-21T06:16:17Z</time>
      </trkpt>
      <trkpt lat="45.71564" lon="6.44468">
        <ele>511</ele>
        <time>2023-08-21T06:16:18Z</time>
      </trkpt>
      <trkpt lat="45.71567" lon="6.44473">
        <ele>511.2</ele>
        <time>2023-08-21T06:16:19Z</time>
      </trkpt>
      <trkpt lat="45.71571" lon="6.44479">
        <ele>511.2</ele>
        <time>2023-08-21T06:16:20Z</time>
      </trkpt>
      <trkpt lat="45.71574" lon="6.44485">
        <ele>511.2</ele>
        <time>2023-08-21T06:16:21Z</time>
      </trkpt>
      <trkpt lat="45.71578" lon="6.4449">
        <ele>511.2</ele>
        <time>2023-08-21T06:16:22Z</time>
      </trkpt>
      <trkpt lat="45.71581" lon="6.44496">
        <ele>511.2</ele>
        <time>2023-08-21T06:16:23Z</time>
      </trkpt>
      <trkpt lat="45.71585" lon="6.44502">
        <ele>511.4</ele>
        <time>2023-08-21T06:16:24Z</time>
      </trkpt>
      <trkpt lat="45.71588" lon="6.44508">
        <ele>511.4</ele>
        <time>2023-08-21T06:16:25Z</time>
      </trkpt>
      <trkpt lat="45.71592" lon="6.44513">
        <ele>511.4</ele>
        <time>2023-08-21T06:16:26Z</time>
      </trkpt>
      <trkpt lat="45.71596" lon="6.44519">
        <ele>511.4</ele>
        <time>2023-08-21T06:16:27Z</time>
      </trkpt>
      <trkpt lat="45.71599" lon="6.44525">
        <ele>511.4</ele>
        <time>2023-08-21T06:16:28Z</time>
      </trkpt>
      <trkpt lat="45.71603" lon="6.44531">
        <ele>511.4</ele>
        <time>2023-08-21T06:16:29Z</time>
      </trkpt>
      <trkpt lat="45.71606" lon="6.44537">
        <ele>511.4</ele>
        <time>2023-08-21T06:16:30Z</time>
      </trkpt>
      <trkpt lat="45.7161" lon="6.44543">
        <ele>511.4</ele>
        <time>2023-08-21T06:16:31Z</time>
      </trkpt>
      <trkpt lat="45.71614" lon="6.44549">
        <ele>511.4</ele>
        <time>2023-08-21T06:16:32Z</time>
      </trkpt>
      <trkpt lat="45.71618" lon="6.44555">
        <ele>511.4</ele>
        <time>2023-08-21T06:16:33Z</time>
      </trkpt>
      <trkpt lat="45.71621" lon="6.44561">
        <ele>511.4</ele>
        <time>2023-08-21T06:16:34Z</time>
      </trkpt>
      <trkpt lat="45.71625" lon="6.44567">
        <ele>511.4</ele>
        <time>2023-08-21T06:16:35Z</time>
      </trkpt>
      <trkpt lat="45.71628" lon="6.44573">
        <ele>511.4</ele>
        <time>2023-08-21T06:16:36Z</time>
      </trkpt>
      <trkpt lat="45.71632" lon="6.4458">
        <ele>511.8</ele>
        <time>2023-08-21T06:16:37Z</time>
      </trkpt>
      <trkpt lat="45.71635" lon="6.44586">
        <ele>511.8</ele>
        <time>2023-08-21T06:16:38Z</time>
      </trkpt>
      <trkpt lat="45.71639" lon="6.44592">
        <ele>511.8</ele>
        <time>2023-08-21T06:16:39Z</time>
      </trkpt>
      <trkpt lat="45.71642" lon="6.44598">
        <ele>511.8</ele>
        <time>2023-08-21T06:16:40Z</time>
      </trkpt>
      <trkpt lat="45.71646" lon="6.44603">
        <ele>511.8</ele>
        <time>2023-08-21T06:16:41Z</time>
      </trkpt>
      <trkpt lat="45.71649" lon="6.44609">
        <ele>511.8</ele>
        <time>2023-08-21T06:16:42Z</time>
      </trkpt>
      <trkpt lat="45.71653" lon="6.44615">
        <ele>512</ele>
        <time>2023-08-21T06:16:43Z</time>
      </trkpt>
      <trkpt lat="45.71656" lon="6.4462">
        <ele>512</ele>
        <time>2023-08-21T06:16:44Z</time>
      </trkpt>
      <trkpt lat="45.71659" lon="6.44626">
        <ele>512</ele>
        <time>2023-08-21T06:16:45Z</time>
      </trkpt>
      <trkpt lat="45.71663" lon="6.44632">
        <ele>512</ele>
        <time>2023-08-21T06:16:46Z</time>
      </trkpt>
      <trkpt lat="45.71666" lon="6.44638">
        <ele>512</ele>
        <time>2023-08-21T06:16:47Z</time>
      </trkpt>
      <trkpt lat="45.71669" lon="6.44644">
        <ele>512</ele>
        <time>2023-08-21T06:16:48Z</time>
      </trkpt>
      <trkpt lat="45.71673" lon="6.4465">
        <ele>512</ele>
        <time>2023-08-21T06:16:49Z</time>
      </trkpt>
      <trkpt lat="45.71677" lon="6.44655">
        <ele>512</ele>
        <time>2023-08-21T06:16:50Z</time>
      </trkpt>
      <trkpt lat="45.7168" lon="6.44661">
        <ele>512</ele>
        <time>2023-08-21T06:16:51Z</time>
      </trkpt>
      <trkpt lat="45.71684" lon="6.44666">
        <ele>512.2</ele>
        <time>2023-08-21T06:16:52Z</time>
      </trkpt>
      <trkpt lat="45.71688" lon="6.44671">
        <ele>512.2</ele>
        <time>2023-08-21T06:16:53Z</time>
      </trkpt>
      <trkpt lat="45.71691" lon="6.44677">
        <ele>512.2</ele>
        <time>2023-08-21T06:16:54Z</time>
      </trkpt>
      <trkpt lat="45.71695" lon="6.44682">
        <ele>512.2</ele>
        <time>2023-08-21T06:16:55Z</time>
      </trkpt>
      <trkpt lat="45.71698" lon="6.44687">
        <ele>512.4</ele>
        <time>2023-08-21T06:16:56Z</time>
      </trkpt>
      <trkpt lat="45.71702" lon="6.44692">
        <ele>512.4</ele>
        <time>2023-08-21T06:16:57Z</time>
      </trkpt>
      <trkpt lat="45.71706" lon="6.44696">
        <ele>512.4</ele>
        <time>2023-08-21T06:16:58Z</time>
      </trkpt>
      <trkpt lat="45.7171" lon="6.447">
        <ele>512.4</ele>
        <time>2023-08-21T06:16:59Z</time>
      </trkpt>
      <trkpt lat="45.71714" lon="6.44704">
        <ele>512.8</ele>
        <time>2023-08-21T06:17:00Z</time>
      </trkpt>
      <trkpt lat="45.71718" lon="6.44707">
        <ele>513</ele>
        <time>2023-08-21T06:17:01Z</time>
      </trkpt>
      <trkpt lat="45.71722" lon="6.4471">
        <ele>513</ele>
        <time>2023-08-21T06:17:02Z</time>
      </trkpt>
      <trkpt lat="45.71727" lon="6.44713">
        <ele>513</ele>
        <time>2023-08-21T06:17:03Z</time>
      </trkpt>
      <trkpt lat="45.71731" lon="6.44716">
        <ele>513.2</ele>
        <time>2023-08-21T06:17:04Z</time>
      </trkpt>
      <trkpt lat="45.71735" lon="6.44718">
        <ele>513.4</ele>
        <time>2023-08-21T06:17:05Z</time>
      </trkpt>
      <trkpt lat="45.71739" lon="6.4472">
        <ele>513.4</ele>
        <time>2023-08-21T06:17:06Z</time>
      </trkpt>
      <trkpt lat="45.71743" lon="6.44722">
        <ele>513.4</ele>
        <time>2023-08-21T06:17:07Z</time>
      </trkpt>
      <trkpt lat="45.71747" lon="6.44724">
        <ele>513.8</ele>
        <time>2023-08-21T06:17:08Z</time>
      </trkpt>
      <trkpt lat="45.71751" lon="6.44726">
        <ele>513.8</ele>
        <time>2023-08-21T06:17:09Z</time>
      </trkpt>
      <trkpt lat="45.71755" lon="6.44728">
        <ele>513.8</ele>
        <time>2023-08-21T06:17:10Z</time>
      </trkpt>
      <trkpt lat="45.71759" lon="6.4473">
        <ele>513.8</ele>
        <time>2023-08-21T06:17:11Z</time>
      </trkpt>
      <trkpt lat="45.71763" lon="6.44733">
        <ele>513.8</ele>
        <time>2023-08-21T06:17:12Z</time>
      </trkpt>
      <trkpt lat="45.71766" lon="6.44736">
        <ele>514.4</ele>
        <time>2023-08-21T06:17:13Z</time>
      </trkpt>
      <trkpt lat="45.7177" lon="6.44739">
        <ele>514.4</ele>
        <time>2023-08-21T06:17:14Z</time>
      </trkpt>
      <trkpt lat="45.71773" lon="6.44742">
        <ele>514.4</ele>
        <time>2023-08-21T06:17:15Z</time>
      </trkpt>
      <trkpt lat="45.71777" lon="6.44745">
        <ele>514.4</ele>
        <time>2023-08-21T06:17:16Z</time>
      </trkpt>
      <trkpt lat="45.7178" lon="6.44748">
        <ele>514.6</ele>
        <time>2023-08-21T06:17:17Z</time>
      </trkpt>
      <trkpt lat="45.71783" lon="6.44752">
        <ele>514.8</ele>
        <time>2023-08-21T06:17:18Z</time>
      </trkpt>
      <trkpt lat="45.71786" lon="6.44756">
        <ele>514.8</ele>
        <time>2023-08-21T06:17:19Z</time>
      </trkpt>
      <trkpt lat="45.71789" lon="6.44759">
        <ele>514.8</ele>
        <time>2023-08-21T06:17:20Z</time>
      </trkpt>
      <trkpt lat="45.71793" lon="6.44762">
        <ele>514.8</ele>
        <time>2023-08-21T06:17:21Z</time>
      </trkpt>
      <trkpt lat="45.71796" lon="6.44764">
        <ele>514.8</ele>
        <time>2023-08-21T06:17:22Z</time>
      </trkpt>
      <trkpt lat="45.718" lon="6.44766">
        <ele>514.8</ele>
        <time>2023-08-21T06:17:23Z</time>
      </trkpt>
      <trkpt lat="45.71804" lon="6.44768">
        <ele>515.4</ele>
        <time>2023-08-21T06:17:24Z</time>
      </trkpt>
      <trkpt lat="45.71807" lon="6.44771">
        <ele>515.4</ele>
        <time>2023-08-21T06:17:25Z</time>
      </trkpt>
      <trkpt lat="45.71811" lon="6.44773">
        <ele>515.4</ele>
        <time>2023-08-21T06:17:26Z</time>
      </trkpt>
      <trkpt lat="45.71815" lon="6.44776">
        <ele>515.8</ele>
        <time>2023-08-21T06:17:27Z</time>
      </trkpt>
      <trkpt lat="45.71819" lon="6.44779">
        <ele>515.6</ele>
        <time>2023-08-21T06:17:28Z</time>
      </trkpt>
      <trkpt lat="45.71822" lon="6.44783">
        <ele>515.6</ele>
        <time>2023-08-21T06:17:29Z</time>
      </trkpt>
      <trkpt lat="45.71825" lon="6.44788">
        <ele>515.6</ele>
        <time>2023-08-21T06:17:30Z</time>
      </trkpt>
      <trkpt lat="45.71828" lon="6.44793">
        <ele>515.6</ele>
        <time>2023-08-21T06:17:31Z</time>
      </trkpt>
      <trkpt lat="45.71831" lon="6.44799">
        <ele>515.8</ele>
        <time>2023-08-21T06:17:32Z</time>
      </trkpt>
      <trkpt lat="45.71833" lon="6.44806">
        <ele>515.8</ele>
        <time>2023-08-21T06:17:33Z</time>
      </trkpt>
      <trkpt lat="45.71835" lon="6.44812">
        <ele>515.8</ele>
        <time>2023-08-21T06:17:34Z</time>
      </trkpt>
      <trkpt lat="45.71836" lon="6.44819">
        <ele>515.8</ele>
        <time>2023-08-21T06:17:35Z</time>
      </trkpt>
      <trkpt lat="45.71837" lon="6.44825">
        <ele>516.2</ele>
        <time>2023-08-21T06:17:36Z</time>
      </trkpt>
      <trkpt lat="45.71837" lon="6.44832">
        <ele>516.2</ele>
        <time>2023-08-21T06:17:37Z</time>
      </trkpt>
      <trkpt lat="45.71837" lon="6.44838">
        <ele>516.2</ele>
        <time>2023-08-21T06:17:38Z</time>
      </trkpt>
      <trkpt lat="45.71836" lon="6.44845">
        <ele>516.2</ele>
        <time>2023-08-21T06:17:39Z</time>
      </trkpt>
      <trkpt lat="45.71835" lon="6.44851">
        <ele>516.2</ele>
        <time>2023-08-21T06:17:40Z</time>
      </trkpt>
      <trkpt lat="45.71834" lon="6.44857">
        <ele>516.6</ele>
        <time>2023-08-21T06:17:41Z</time>
      </trkpt>
      <trkpt lat="45.71833" lon="6.44863">
        <ele>516.6</ele>
        <time>2023-08-21T06:17:42Z</time>
      </trkpt>
      <trkpt lat="45.71832" lon="6.44869">
        <ele>516.6</ele>
        <time>2023-08-21T06:17:43Z</time>
      </trkpt>
      <trkpt lat="45.71831" lon="6.44875">
        <ele>517.2</ele>
        <time>2023-08-21T06:17:44Z</time>
      </trkpt>
      <trkpt lat="45.71829" lon="6.44881">
        <ele>517.2</ele>
        <time>2023-08-21T06:17:45Z</time>
      </trkpt>
      <trkpt lat="45.71828" lon="6.44887">
        <ele>517.2</ele>
        <time>2023-08-21T06:17:46Z</time>
      </trkpt>
      <trkpt lat="45.71827" lon="6.44893">
        <ele>517.2</ele>
        <time>2023-08-21T06:17:47Z</time>
      </trkpt>
      <trkpt lat="45.71826" lon="6.44899">
        <ele>517.6</ele>
        <time>2023-08-21T06:17:48Z</time>
      </trkpt>
      <trkpt lat="45.71824" lon="6.44905">
        <ele>517.6</ele>
        <time>2023-08-21T06:17:49Z</time>
      </trkpt>
      <trkpt lat="45.71822" lon="6.44911">
        <ele>517.6</ele>
        <time>2023-08-21T06:17:50Z</time>
      </trkpt>
      <trkpt lat="45.71821" lon="6.44917">
        <ele>517.6</ele>
        <time>2023-08-21T06:17:51Z</time>
      </trkpt>
      <trkpt lat="45.71819" lon="6.44924">
        <ele>517.6</ele>
        <time>2023-08-21T06:17:52Z</time>
      </trkpt>
      <trkpt lat="45.71818" lon="6.44931">
        <ele>517.8</ele>
        <time>2023-08-21T06:17:53Z</time>
      </trkpt>
      <trkpt lat="45.71817" lon="6.44937">
        <ele>518</ele>
        <time>2023-08-21T06:17:54Z</time>
      </trkpt>
      <trkpt lat="45.71816" lon="6.44943">
        <ele>518</ele>
        <time>2023-08-21T06:17:55Z</time>
      </trkpt>
      <trkpt lat="45.71815" lon="6.4495">
        <ele>518</ele>
        <time>2023-08-21T06:17:56Z</time>
      </trkpt>
      <trkpt lat="45.71814" lon="6.44956">
        <ele>518</ele>
        <time>2023-08-21T06:17:57Z</time>
      </trkpt>
      <trkpt lat="45.71814" lon="6.44963">
        <ele>518</ele>
        <time>2023-08-21T06:17:58Z</time>
      </trkpt>
      <trkpt lat="45.71814" lon="6.4497">
        <ele>518</ele>
        <time>2023-08-21T06:17:59Z</time>
      </trkpt>
      <trkpt lat="45.71812" lon="6.44978">
        <ele>518</ele>
        <time>2023-08-21T06:18:00Z</time>
      </trkpt>
      <trkpt lat="45.71811" lon="6.44984">
        <ele>518.2</ele>
        <time>2023-08-21T06:18:01Z</time>
      </trkpt>
      <trkpt lat="45.7181" lon="6.44991">
        <ele>518.2</ele>
        <time>2023-08-21T06:18:02Z</time>
      </trkpt>
      <trkpt lat="45.7181" lon="6.44998">
        <ele>518.2</ele>
        <time>2023-08-21T06:18:03Z</time>
      </trkpt>
      <trkpt lat="45.71809" lon="6.45006">
        <ele>518.2</ele>
        <time>2023-08-21T06:18:04Z</time>
      </trkpt>
      <trkpt lat="45.71808" lon="6.45014">
        <ele>518.2</ele>
        <time>2023-08-21T06:18:05Z</time>
      </trkpt>
      <trkpt lat="45.71807" lon="6.4502">
        <ele>518.2</ele>
        <time>2023-08-21T06:18:06Z</time>
      </trkpt>
      <trkpt lat="45.71806" lon="6.45027">
        <ele>518.4</ele>
        <time>2023-08-21T06:18:07Z</time>
      </trkpt>
      <trkpt lat="45.71804" lon="6.45034">
        <ele>518.4</ele>
        <time>2023-08-21T06:18:08Z</time>
      </trkpt>
      <trkpt lat="45.71802" lon="6.45041">
        <ele>518.4</ele>
        <time>2023-08-21T06:18:09Z</time>
      </trkpt>
      <trkpt lat="45.71801" lon="6.45047">
        <ele>518.4</ele>
        <time>2023-08-21T06:18:10Z</time>
      </trkpt>
      <trkpt lat="45.71799" lon="6.45053">
        <ele>518.4</ele>
        <time>2023-08-21T06:18:11Z</time>
      </trkpt>
      <trkpt lat="45.71798" lon="6.4506">
        <ele>518.8</ele>
        <time>2023-08-21T06:18:12Z</time>
      </trkpt>
      <trkpt lat="45.71796" lon="6.45066">
        <ele>518.8</ele>
        <time>2023-08-21T06:18:13Z</time>
      </trkpt>
      <trkpt lat="45.71794" lon="6.45072">
        <ele>518.8</ele>
        <time>2023-08-21T06:18:14Z</time>
      </trkpt>
      <trkpt lat="45.71793" lon="6.45078">
        <ele>518.8</ele>
        <time>2023-08-21T06:18:15Z</time>
      </trkpt>
      <trkpt lat="45.71792" lon="6.45085">
        <ele>519.2</ele>
        <time>2023-08-21T06:18:16Z</time>
      </trkpt>
      <trkpt lat="45.71791" lon="6.45091">
        <ele>519.2</ele>
        <time>2023-08-21T06:18:17Z</time>
      </trkpt>
      <trkpt lat="45.7179" lon="6.45098">
        <ele>519.2</ele>
        <time>2023-08-21T06:18:18Z</time>
      </trkpt>
      <trkpt lat="45.7179" lon="6.45104">
        <ele>519.2</ele>
        <time>2023-08-21T06:18:19Z</time>
      </trkpt>
      <trkpt lat="45.71789" lon="6.45111">
        <ele>519.2</ele>
        <time>2023-08-21T06:18:20Z</time>
      </trkpt>
      <trkpt lat="45.71789" lon="6.45117">
        <ele>519.4</ele>
        <time>2023-08-21T06:18:21Z</time>
      </trkpt>
      <trkpt lat="45.7179" lon="6.45123">
        <ele>519.4</ele>
        <time>2023-08-21T06:18:22Z</time>
      </trkpt>
      <trkpt lat="45.7179" lon="6.45129">
        <ele>519.4</ele>
        <time>2023-08-21T06:18:23Z</time>
      </trkpt>
      <trkpt lat="45.71791" lon="6.45135">
        <ele>519.4</ele>
        <time>2023-08-21T06:18:24Z</time>
      </trkpt>
      <trkpt lat="45.71792" lon="6.4514">
        <ele>519.6</ele>
        <time>2023-08-21T06:18:25Z</time>
      </trkpt>
      <trkpt lat="45.71793" lon="6.45145">
        <ele>519.6</ele>
        <time>2023-08-21T06:18:26Z</time>
      </trkpt>
      <trkpt lat="45.71793" lon="6.45151">
        <ele>519.6</ele>
        <time>2023-08-21T06:18:27Z</time>
      </trkpt>
      <trkpt lat="45.71793" lon="6.45157">
        <ele>519.8</ele>
        <time>2023-08-21T06:18:28Z</time>
      </trkpt>
      <trkpt lat="45.71793" lon="6.45164">
        <ele>519.8</ele>
        <time>2023-08-21T06:18:29Z</time>
      </trkpt>
      <trkpt lat="45.71794" lon="6.45171">
        <ele>519.8</ele>
        <time>2023-08-21T06:18:30Z</time>
      </trkpt>
      <trkpt lat="45.71794" lon="6.45178">
        <ele>519.8</ele>
        <time>2023-08-21T06:18:31Z</time>
      </trkpt>
      <trkpt lat="45.71797" lon="6.45184">
        <ele>519.8</ele>
        <time>2023-08-21T06:18:32Z</time>
      </trkpt>
      <trkpt lat="45.71798" lon="6.45192">
        <ele>519.8</ele>
        <time>2023-08-21T06:18:33Z</time>
      </trkpt>
      <trkpt lat="45.71799" lon="6.45199">
        <ele>520</ele>
        <time>2023-08-21T06:18:34Z</time>
      </trkpt>
      <trkpt lat="45.718" lon="6.45206">
        <ele>520</ele>
        <time>2023-08-21T06:18:35Z</time>
      </trkpt>
      <trkpt lat="45.71801" lon="6.45214">
        <ele>520</ele>
        <time>2023-08-21T06:18:36Z</time>
      </trkpt>
      <trkpt lat="45.71802" lon="6.45221">
        <ele>520</ele>
        <time>2023-08-21T06:18:37Z</time>
      </trkpt>
      <trkpt lat="45.71803" lon="6.45228">
        <ele>520.2</ele>
        <time>2023-08-21T06:18:38Z</time>
      </trkpt>
      <trkpt lat="45.71803" lon="6.45235">
        <ele>520.2</ele>
        <time>2023-08-21T06:18:39Z</time>
      </trkpt>
      <trkpt lat="45.71804" lon="6.45243">
        <ele>520.2</ele>
        <time>2023-08-21T06:18:40Z</time>
      </trkpt>
      <trkpt lat="45.71804" lon="6.4525">
        <ele>520.2</ele>
        <time>2023-08-21T06:18:41Z</time>
      </trkpt>
      <trkpt lat="45.71804" lon="6.45257">
        <ele>520.4</ele>
        <time>2023-08-21T06:18:42Z</time>
      </trkpt>
      <trkpt lat="45.71804" lon="6.45265">
        <ele>520.6</ele>
        <time>2023-08-21T06:18:43Z</time>
      </trkpt>
      <trkpt lat="45.71804" lon="6.45272">
        <ele>520.6</ele>
        <time>2023-08-21T06:18:44Z</time>
      </trkpt>
      <trkpt lat="45.71804" lon="6.45279">
        <ele>520.6</ele>
        <time>2023-08-21T06:18:45Z</time>
      </trkpt>
      <trkpt lat="45.71803" lon="6.45286">
        <ele>520.6</ele>
        <time>2023-08-21T06:18:46Z</time>
      </trkpt>
      <trkpt lat="45.71802" lon="6.45293">
        <ele>521</ele>
        <time>2023-08-21T06:18:47Z</time>
      </trkpt>
      <trkpt lat="45.71801" lon="6.453">
        <ele>521</ele>
        <time>2023-08-21T06:18:48Z</time>
      </trkpt>
      <trkpt lat="45.71801" lon="6.45306">
        <ele>521</ele>
        <time>2023-08-21T06:18:49Z</time>
      </trkpt>
      <trkpt lat="45.718" lon="6.45313">
        <ele>521</ele>
        <time>2023-08-21T06:18:50Z</time>
      </trkpt>
      <trkpt lat="45.71799" lon="6.4532">
        <ele>521</ele>
        <time>2023-08-21T06:18:51Z</time>
      </trkpt>
      <trkpt lat="45.71798" lon="6.45327">
        <ele>521.4</ele>
        <time>2023-08-21T06:18:52Z</time>
      </trkpt>
      <trkpt lat="45.71797" lon="6.45334">
        <ele>521.4</ele>
        <time>2023-08-21T06:18:53Z</time>
      </trkpt>
      <trkpt lat="45.71796" lon="6.4534">
        <ele>521.4</ele>
        <time>2023-08-21T06:18:54Z</time>
      </trkpt>
      <trkpt lat="45.71794" lon="6.45347">
        <ele>521.4</ele>
        <time>2023-08-21T06:18:55Z</time>
      </trkpt>
      <trkpt lat="45.71793" lon="6.45353">
        <ele>521.4</ele>
        <time>2023-08-21T06:18:56Z</time>
      </trkpt>
      <trkpt lat="45.71792" lon="6.4536">
        <ele>521.8</ele>
        <time>2023-08-21T06:18:57Z</time>
      </trkpt>
      <trkpt lat="45.71791" lon="6.45367">
        <ele>521.8</ele>
        <time>2023-08-21T06:18:58Z</time>
      </trkpt>
      <trkpt lat="45.7179" lon="6.45373">
        <ele>521.8</ele>
        <time>2023-08-21T06:18:59Z</time>
      </trkpt>
      <trkpt lat="45.71788" lon="6.4538">
        <ele>521.8</ele>
        <time>2023-08-21T06:19:00Z</time>
      </trkpt>
      <trkpt lat="45.71787" lon="6.45387">
        <ele>522</ele>
        <time>2023-08-21T06:19:01Z</time>
      </trkpt>
      <trkpt lat="45.71785" lon="6.45394">
        <ele>522</ele>
        <time>2023-08-21T06:19:02Z</time>
      </trkpt>
      <trkpt lat="45.71784" lon="6.454">
        <ele>522</ele>
        <time>2023-08-21T06:19:03Z</time>
      </trkpt>
      <trkpt lat="45.71782" lon="6.45407">
        <ele>522.4</ele>
        <time>2023-08-21T06:19:04Z</time>
      </trkpt>
      <trkpt lat="45.71781" lon="6.45414">
        <ele>522.4</ele>
        <time>2023-08-21T06:19:05Z</time>
      </trkpt>
      <trkpt lat="45.7178" lon="6.45421">
        <ele>522.4</ele>
        <time>2023-08-21T06:19:06Z</time>
      </trkpt>
      <trkpt lat="45.71779" lon="6.45428">
        <ele>522.4</ele>
        <time>2023-08-21T06:19:07Z</time>
      </trkpt>
      <trkpt lat="45.71778" lon="6.45435">
        <ele>522.4</ele>
        <time>2023-08-21T06:19:08Z</time>
      </trkpt>
      <trkpt lat="45.71777" lon="6.45442">
        <ele>522.8</ele>
        <time>2023-08-21T06:19:09Z</time>
      </trkpt>
      <trkpt lat="45.71777" lon="6.45448">
        <ele>522.6</ele>
        <time>2023-08-21T06:19:10Z</time>
      </trkpt>
      <trkpt lat="45.71776" lon="6.45455">
        <ele>522.6</ele>
        <time>2023-08-21T06:19:11Z</time>
      </trkpt>
      <trkpt lat="45.71775" lon="6.45462">
        <ele>522.6</ele>
        <time>2023-08-21T06:19:12Z</time>
      </trkpt>
      <trkpt lat="45.71775" lon="6.4547">
        <ele>523</ele>
        <time>2023-08-21T06:19:13Z</time>
      </trkpt>
      <trkpt lat="45.71774" lon="6.45477">
        <ele>523</ele>
        <time>2023-08-21T06:19:14Z</time>
      </trkpt>
      <trkpt lat="45.71773" lon="6.45484">
        <ele>523</ele>
        <time>2023-08-21T06:19:15Z</time>
      </trkpt>
      <trkpt lat="45.71773" lon="6.45491">
        <ele>523</ele>
        <time>2023-08-21T06:19:16Z</time>
      </trkpt>
      <trkpt lat="45.71773" lon="6.45499">
        <ele>523</ele>
        <time>2023-08-21T06:19:17Z</time>
      </trkpt>
      <trkpt lat="45.71773" lon="6.45506">
        <ele>523.4</ele>
        <time>2023-08-21T06:19:18Z</time>
      </trkpt>
      <trkpt lat="45.71773" lon="6.45514">
        <ele>523.4</ele>
        <time>2023-08-21T06:19:19Z</time>
      </trkpt>
      <trkpt lat="45.71774" lon="6.45521">
        <ele>523.4</ele>
        <time>2023-08-21T06:19:20Z</time>
      </trkpt>
      <trkpt lat="45.71774" lon="6.45529">
        <ele>523.4</ele>
        <time>2023-08-21T06:19:21Z</time>
      </trkpt>
      <trkpt lat="45.71775" lon="6.45536">
        <ele>523.8</ele>
        <time>2023-08-21T06:19:22Z</time>
      </trkpt>
      <trkpt lat="45.71776" lon="6.45544">
        <ele>523.8</ele>
        <time>2023-08-21T06:19:23Z</time>
      </trkpt>
      <trkpt lat="45.71777" lon="6.45551">
        <ele>523.8</ele>
        <time>2023-08-21T06:19:24Z</time>
      </trkpt>
      <trkpt lat="45.71778" lon="6.45558">
        <ele>523.8</ele>
        <time>2023-08-21T06:19:25Z</time>
      </trkpt>
      <trkpt lat="45.71779" lon="6.45565">
        <ele>524</ele>
        <time>2023-08-21T06:19:26Z</time>
      </trkpt>
      <trkpt lat="45.7178" lon="6.45572">
        <ele>524</ele>
        <time>2023-08-21T06:19:27Z</time>
      </trkpt>
      <trkpt lat="45.71781" lon="6.4558">
        <ele>524</ele>
        <time>2023-08-21T06:19:28Z</time>
      </trkpt>
      <trkpt lat="45.71782" lon="6.45587">
        <ele>524</ele>
        <time>2023-08-21T06:19:29Z</time>
      </trkpt>
      <trkpt lat="45.71783" lon="6.45593">
        <ele>524</ele>
        <time>2023-08-21T06:19:30Z</time>
      </trkpt>
      <trkpt lat="45.71784" lon="6.456">
        <ele>524.2</ele>
        <time>2023-08-21T06:19:31Z</time>
      </trkpt>
      <trkpt lat="45.71785" lon="6.45607">
        <ele>524.2</ele>
        <time>2023-08-21T06:19:32Z</time>
      </trkpt>
      <trkpt lat="45.71786" lon="6.45614">
        <ele>524.4</ele>
        <time>2023-08-21T06:19:33Z</time>
      </trkpt>
      <trkpt lat="45.71786" lon="6.45621">
        <ele>524.4</ele>
        <time>2023-08-21T06:19:34Z</time>
      </trkpt>
      <trkpt lat="45.71787" lon="6.45628">
        <ele>524.4</ele>
        <time>2023-08-21T06:19:35Z</time>
      </trkpt>
      <trkpt lat="45.71788" lon="6.45634">
        <ele>524.6</ele>
        <time>2023-08-21T06:19:36Z</time>
      </trkpt>
      <trkpt lat="45.71788" lon="6.45641">
        <ele>525</ele>
        <time>2023-08-21T06:19:37Z</time>
      </trkpt>
      <trkpt lat="45.71789" lon="6.45648">
        <ele>525</ele>
        <time>2023-08-21T06:19:38Z</time>
      </trkpt>
      <trkpt lat="45.7179" lon="6.45654">
        <ele>525</ele>
        <time>2023-08-21T06:19:39Z</time>
      </trkpt>
      <trkpt lat="45.71791" lon="6.4566">
        <ele>525.6</ele>
        <time>2023-08-21T06:19:40Z</time>
      </trkpt>
      <trkpt lat="45.71793" lon="6.45667">
        <ele>525.6</ele>
        <time>2023-08-21T06:19:41Z</time>
      </trkpt>
      <trkpt lat="45.71793" lon="6.45673">
        <ele>525.6</ele>
        <time>2023-08-21T06:19:42Z</time>
      </trkpt>
      <trkpt lat="45.71794" lon="6.4568">
        <ele>525.6</ele>
        <time>2023-08-21T06:19:43Z</time>
      </trkpt>
      <trkpt lat="45.71794" lon="6.45686">
        <ele>525.6</ele>
        <time>2023-08-21T06:19:44Z</time>
      </trkpt>
      <trkpt lat="45.71795" lon="6.45692">
        <ele>525.8</ele>
        <time>2023-08-21T06:19:45Z</time>
      </trkpt>
      <trkpt lat="45.71795" lon="6.45698">
        <ele>525.8</ele>
        <time>2023-08-21T06:19:46Z</time>
      </trkpt>
      <trkpt lat="45.71796" lon="6.45703">
        <ele>526</ele>
        <time>2023-08-21T06:19:47Z</time>
      </trkpt>
      <trkpt lat="45.71796" lon="6.45709">
        <ele>526</ele>
        <time>2023-08-21T06:19:48Z</time>
      </trkpt>
      <trkpt lat="45.71797" lon="6.45715">
        <ele>526</ele>
        <time>2023-08-21T06:19:49Z</time>
      </trkpt>
      <trkpt lat="45.71797" lon="6.45721">
        <ele>526.6</ele>
        <time>2023-08-21T06:19:50Z</time>
      </trkpt>
      <trkpt lat="45.71798" lon="6.45727">
        <ele>526.8</ele>
        <time>2023-08-21T06:19:51Z</time>
      </trkpt>
      <trkpt lat="45.71798" lon="6.45733">
        <ele>526.8</ele>
        <time>2023-08-21T06:19:52Z</time>
      </trkpt>
      <trkpt lat="45.71799" lon="6.45738">
        <ele>526.8</ele>
        <time>2023-08-21T06:19:53Z</time>
      </trkpt>
      <trkpt lat="45.71799" lon="6.45744">
        <ele>526.8</ele>
        <time>2023-08-21T06:19:54Z</time>
      </trkpt>
      <trkpt lat="45.71798" lon="6.4575">
        <ele>527.2</ele>
        <time>2023-08-21T06:19:55Z</time>
      </trkpt>
      <trkpt lat="45.71798" lon="6.45757">
        <ele>527.2</ele>
        <time>2023-08-21T06:19:56Z</time>
      </trkpt>
      <trkpt lat="45.71796" lon="6.45763">
        <ele>527.2</ele>
        <time>2023-08-21T06:19:57Z</time>
      </trkpt>
      <trkpt lat="45.71795" lon="6.45769">
        <ele>527.2</ele>
        <time>2023-08-21T06:19:58Z</time>
      </trkpt>
      <trkpt lat="45.71793" lon="6.45775">
        <ele>527.2</ele>
        <time>2023-08-21T06:19:59Z</time>
      </trkpt>
      <trkpt lat="45.71791" lon="6.45781">
        <ele>527.2</ele>
        <time>2023-08-21T06:20:00Z</time>
      </trkpt>
      <trkpt lat="45.71789" lon="6.45787">
        <ele>527.6</ele>
        <time>2023-08-21T06:20:01Z</time>
      </trkpt>
      <trkpt lat="45.71787" lon="6.45792">
        <ele>527.6</ele>
        <time>2023-08-21T06:20:02Z</time>
      </trkpt>
      <trkpt lat="45.71785" lon="6.45798">
        <ele>527.6</ele>
        <time>2023-08-21T06:20:03Z</time>
      </trkpt>
      <trkpt lat="45.71782" lon="6.45803">
        <ele>527.8</ele>
        <time>2023-08-21T06:20:04Z</time>
      </trkpt>
      <trkpt lat="45.71779" lon="6.45808">
        <ele>527.8</ele>
        <time>2023-08-21T06:20:05Z</time>
      </trkpt>
      <trkpt lat="45.71776" lon="6.45813">
        <ele>527.8</ele>
        <time>2023-08-21T06:20:06Z</time>
      </trkpt>
      <trkpt lat="45.71772" lon="6.45817">
        <ele>527.8</ele>
        <time>2023-08-21T06:20:07Z</time>
      </trkpt>
      <trkpt lat="45.71768" lon="6.45821">
        <ele>528</ele>
        <time>2023-08-21T06:20:08Z</time>
      </trkpt>
      <trkpt lat="45.71764" lon="6.45825">
        <ele>528.2</ele>
        <time>2023-08-21T06:20:09Z</time>
      </trkpt>
      <trkpt lat="45.7176" lon="6.45829">
        <ele>528.2</ele>
        <time>2023-08-21T06:20:10Z</time>
      </trkpt>
      <trkpt lat="45.71758" lon="6.45834">
        <ele>528.2</ele>
        <time>2023-08-21T06:20:11Z</time>
      </trkpt>
      <trkpt lat="45.71756" lon="6.4584">
        <ele>528.4</ele>
        <time>2023-08-21T06:20:12Z</time>
      </trkpt>
      <trkpt lat="45.71755" lon="6.45846">
        <ele>528.4</ele>
        <time>2023-08-21T06:20:13Z</time>
      </trkpt>
      <trkpt lat="45.71753" lon="6.45852">
        <ele>528.6</ele>
        <time>2023-08-21T06:20:14Z</time>
      </trkpt>
      <trkpt lat="45.71751" lon="6.45858">
        <ele>528.6</ele>
        <time>2023-08-21T06:20:15Z</time>
      </trkpt>
      <trkpt lat="45.71749" lon="6.45865">
        <ele>528.6</ele>
        <time>2023-08-21T06:20:16Z</time>
      </trkpt>
      <trkpt lat="45.71747" lon="6.45871">
        <ele>528.6</ele>
        <time>2023-08-21T06:20:17Z</time>
      </trkpt>
      <trkpt lat="45.71745" lon="6.45877">
        <ele>528.8</ele>
        <time>2023-08-21T06:20:18Z</time>
      </trkpt>
      <trkpt lat="45.71742" lon="6.45884">
        <ele>528.8</ele>
        <time>2023-08-21T06:20:19Z</time>
      </trkpt>
      <trkpt lat="45.71739" lon="6.4589">
        <ele>528.8</ele>
        <time>2023-08-21T06:20:20Z</time>
      </trkpt>
      <trkpt lat="45.71736" lon="6.45895">
        <ele>528.8</ele>
        <time>2023-08-21T06:20:21Z</time>
      </trkpt>
      <trkpt lat="45.71732" lon="6.459">
        <ele>529</ele>
        <time>2023-08-21T06:20:22Z</time>
      </trkpt>
      <trkpt lat="45.71729" lon="6.45905">
        <ele>529.2</ele>
        <time>2023-08-21T06:20:23Z</time>
      </trkpt>
      <trkpt lat="45.71725" lon="6.4591">
        <ele>529.2</ele>
        <time>2023-08-21T06:20:24Z</time>
      </trkpt>
      <trkpt lat="45.71722" lon="6.45915">
        <ele>529.2</ele>
        <time>2023-08-21T06:20:25Z</time>
      </trkpt>
      <trkpt lat="45.71718" lon="6.45919">
        <ele>529.2</ele>
        <time>2023-08-21T06:20:26Z</time>
      </trkpt>
      <trkpt lat="45.71714" lon="6.45923">
        <ele>529.4</ele>
        <time>2023-08-21T06:20:27Z</time>
      </trkpt>
      <trkpt lat="45.71711" lon="6.45928">
        <ele>529.4</ele>
        <time>2023-08-21T06:20:28Z</time>
      </trkpt>
      <trkpt lat="45.71707" lon="6.45932">
        <ele>529.4</ele>
        <time>2023-08-21T06:20:29Z</time>
      </trkpt>
      <trkpt lat="45.71704" lon="6.45937">
        <ele>529.4</ele>
        <time>2023-08-21T06:20:30Z</time>
      </trkpt>
      <trkpt lat="45.717" lon="6.45941">
        <ele>529.4</ele>
        <time>2023-08-21T06:20:31Z</time>
      </trkpt>
      <trkpt lat="45.71697" lon="6.45947">
        <ele>529.8</ele>
        <time>2023-08-21T06:20:32Z</time>
      </trkpt>
      <trkpt lat="45.71694" lon="6.45952">
        <ele>529.8</ele>
        <time>2023-08-21T06:20:33Z</time>
      </trkpt>
      <trkpt lat="45.71691" lon="6.45957">
        <ele>529.8</ele>
        <time>2023-08-21T06:20:34Z</time>
      </trkpt>
      <trkpt lat="45.71688" lon="6.45963">
        <ele>529.8</ele>
        <time>2023-08-21T06:20:35Z</time>
      </trkpt>
      <trkpt lat="45.71686" lon="6.45969">
        <ele>530.4</ele>
        <time>2023-08-21T06:20:36Z</time>
      </trkpt>
      <trkpt lat="45.71684" lon="6.45974">
        <ele>530.4</ele>
        <time>2023-08-21T06:20:37Z</time>
      </trkpt>
      <trkpt lat="45.71681" lon="6.4598">
        <ele>530.4</ele>
        <time>2023-08-21T06:20:38Z</time>
      </trkpt>
      <trkpt lat="45.7168" lon="6.45986">
        <ele>530.6</ele>
        <time>2023-08-21T06:20:39Z</time>
      </trkpt>
      <trkpt lat="45.71678" lon="6.45992">
        <ele>530.8</ele>
        <time>2023-08-21T06:20:40Z</time>
      </trkpt>
      <trkpt lat="45.71676" lon="6.45999">
        <ele>530.8</ele>
        <time>2023-08-21T06:20:41Z</time>
      </trkpt>
      <trkpt lat="45.71674" lon="6.46006">
        <ele>530.8</ele>
        <time>2023-08-21T06:20:42Z</time>
      </trkpt>
      <trkpt lat="45.71673" lon="6.46012">
        <ele>530.8</ele>
        <time>2023-08-21T06:20:43Z</time>
      </trkpt>
      <trkpt lat="45.71672" lon="6.46019">
        <ele>531.2</ele>
        <time>2023-08-21T06:20:44Z</time>
      </trkpt>
      <trkpt lat="45.71672" lon="6.46025">
        <ele>531.4</ele>
        <time>2023-08-21T06:20:45Z</time>
      </trkpt>
      <trkpt lat="45.71671" lon="6.46032">
        <ele>531.4</ele>
        <time>2023-08-21T06:20:46Z</time>
      </trkpt>
      <trkpt lat="45.71671" lon="6.46039">
        <ele>531.4</ele>
        <time>2023-08-21T06:20:47Z</time>
      </trkpt>
      <trkpt lat="45.7167" lon="6.46046">
        <ele>531.8</ele>
        <time>2023-08-21T06:20:48Z</time>
      </trkpt>
      <trkpt lat="45.71671" lon="6.46053">
        <ele>532</ele>
        <time>2023-08-21T06:20:49Z</time>
      </trkpt>
      <trkpt lat="45.71671" lon="6.4606">
        <ele>532</ele>
        <time>2023-08-21T06:20:50Z</time>
      </trkpt>
      <trkpt lat="45.71671" lon="6.46067">
        <ele>532</ele>
        <time>2023-08-21T06:20:51Z</time>
      </trkpt>
      <trkpt lat="45.71671" lon="6.46073">
        <ele>532.4</ele>
        <time>2023-08-21T06:20:52Z</time>
      </trkpt>
      <trkpt lat="45.71672" lon="6.4608">
        <ele>532.8</ele>
        <time>2023-08-21T06:20:53Z</time>
      </trkpt>
      <trkpt lat="45.71672" lon="6.46087">
        <ele>532.8</ele>
        <time>2023-08-21T06:20:54Z</time>
      </trkpt>
      <trkpt lat="45.71672" lon="6.46094">
        <ele>532.8</ele>
        <time>2023-08-21T06:20:55Z</time>
      </trkpt>
      <trkpt lat="45.71672" lon="6.461">
        <ele>532.8</ele>
        <time>2023-08-21T06:20:56Z</time>
      </trkpt>
      <trkpt lat="45.71672" lon="6.46107">
        <ele>532.8</ele>
        <time>2023-08-21T06:20:57Z</time>
      </trkpt>
      <trkpt lat="45.71672" lon="6.46113">
        <ele>533</ele>
        <time>2023-08-21T06:20:58Z</time>
      </trkpt>
      <trkpt lat="45.71673" lon="6.4612">
        <ele>533.2</ele>
        <time>2023-08-21T06:20:59Z</time>
      </trkpt>
      <trkpt lat="45.71673" lon="6.46127">
        <ele>533.2</ele>
        <time>2023-08-21T06:21:00Z</time>
      </trkpt>
      <trkpt lat="45.71674" lon="6.46134">
        <ele>533.2</ele>
        <time>2023-08-21T06:21:01Z</time>
      </trkpt>
      <trkpt lat="45.71674" lon="6.46141">
        <ele>533.6</ele>
        <time>2023-08-21T06:21:02Z</time>
      </trkpt>
      <trkpt lat="45.71675" lon="6.46149">
        <ele>533.6</ele>
        <time>2023-08-21T06:21:03Z</time>
      </trkpt>
      <trkpt lat="45.71675" lon="6.46156">
        <ele>533.6</ele>
        <time>2023-08-21T06:21:04Z</time>
      </trkpt>
      <trkpt lat="45.71676" lon="6.46163">
        <ele>533.6</ele>
        <time>2023-08-21T06:21:05Z</time>
      </trkpt>
      <trkpt lat="45.71676" lon="6.46171">
        <ele>533.6</ele>
        <time>2023-08-21T06:21:06Z</time>
      </trkpt>
      <trkpt lat="45.71677" lon="6.46178">
        <ele>533.6</ele>
        <time>2023-08-21T06:21:07Z</time>
      </trkpt>
      <trkpt lat="45.71678" lon="6.46185">
        <ele>533.6</ele>
        <time>2023-08-21T06:21:08Z</time>
      </trkpt>
      <trkpt lat="45.71678" lon="6.46193">
        <ele>534</ele>
        <time>2023-08-21T06:21:09Z</time>
      </trkpt>
      <trkpt lat="45.71679" lon="6.462">
        <ele>534</ele>
        <time>2023-08-21T06:21:10Z</time>
      </trkpt>
      <trkpt lat="45.7168" lon="6.46207">
        <ele>534</ele>
        <time>2023-08-21T06:21:11Z</time>
      </trkpt>
      <trkpt lat="45.71681" lon="6.46215">
        <ele>534.2</ele>
        <time>2023-08-21T06:21:12Z</time>
      </trkpt>
      <trkpt lat="45.71682" lon="6.46223">
        <ele>534.2</ele>
        <time>2023-08-21T06:21:13Z</time>
      </trkpt>
      <trkpt lat="45.71683" lon="6.4623">
        <ele>534.2</ele>
        <time>2023-08-21T06:21:14Z</time>
      </trkpt>
      <trkpt lat="45.71684" lon="6.46238">
        <ele>534.2</ele>
        <time>2023-08-21T06:21:15Z</time>
      </trkpt>
      <trkpt lat="45.71685" lon="6.46245">
        <ele>534.4</ele>
        <time>2023-08-21T06:21:16Z</time>
      </trkpt>
      <trkpt lat="45.71686" lon="6.46253">
        <ele>534.4</ele>
        <time>2023-08-21T06:21:17Z</time>
      </trkpt>
      <trkpt lat="45.71686" lon="6.46261">
        <ele>534.4</ele>
        <time>2023-08-21T06:21:18Z</time>
      </trkpt>
      <trkpt lat="45.71687" lon="6.46269">
        <ele>534.4</ele>
        <time>2023-08-21T06:21:19Z</time>
      </trkpt>
      <trkpt lat="45.71688" lon="6.46277">
        <ele>534.4</ele>
        <time>2023-08-21T06:21:20Z</time>
      </trkpt>
      <trkpt lat="45.71689" lon="6.46285">
        <ele>534.4</ele>
        <time>2023-08-21T06:21:21Z</time>
      </trkpt>
      <trkpt lat="45.7169" lon="6.46293">
        <ele>534.4</ele>
        <time>2023-08-21T06:21:22Z</time>
      </trkpt>
      <trkpt lat="45.71691" lon="6.46301">
        <ele>534.4</ele>
        <time>2023-08-21T06:21:23Z</time>
      </trkpt>
      <trkpt lat="45.71692" lon="6.46308">
        <ele>534.4</ele>
        <time>2023-08-21T06:21:24Z</time>
      </trkpt>
      <trkpt lat="45.71693" lon="6.46315">
        <ele>534.6</ele>
        <time>2023-08-21T06:21:25Z</time>
      </trkpt>
      <trkpt lat="45.71695" lon="6.46323">
        <ele>534.6</ele>
        <time>2023-08-21T06:21:26Z</time>
      </trkpt>
      <trkpt lat="45.71697" lon="6.46329">
        <ele>534.6</ele>
        <time>2023-08-21T06:21:27Z</time>
      </trkpt>
      <trkpt lat="45.71699" lon="6.46336">
        <ele>535</ele>
        <time>2023-08-21T06:21:28Z</time>
      </trkpt>
      <trkpt lat="45.71701" lon="6.46342">
        <ele>535</ele>
        <time>2023-08-21T06:21:29Z</time>
      </trkpt>
      <trkpt lat="45.71703" lon="6.46349">
        <ele>535.2</ele>
        <time>2023-08-21T06:21:30Z</time>
      </trkpt>
      <trkpt lat="45.71704" lon="6.46355">
        <ele>535.2</ele>
        <time>2023-08-21T06:21:31Z</time>
      </trkpt>
      <trkpt lat="45.71706" lon="6.46361">
        <ele>535.2</ele>
        <time>2023-08-21T06:21:32Z</time>
      </trkpt>
      <trkpt lat="45.71708" lon="6.46367">
        <ele>536</ele>
        <time>2023-08-21T06:21:33Z</time>
      </trkpt>
      <trkpt lat="45.71711" lon="6.46373">
        <ele>536.2</ele>
        <time>2023-08-21T06:21:34Z</time>
      </trkpt>
      <trkpt lat="45.71713" lon="6.46379">
        <ele>536.2</ele>
        <time>2023-08-21T06:21:35Z</time>
      </trkpt>
      <trkpt lat="45.71715" lon="6.46385">
        <ele>536.2</ele>
        <time>2023-08-21T06:21:36Z</time>
      </trkpt>
      <trkpt lat="45.71717" lon="6.46391">
        <ele>536.6</ele>
        <time>2023-08-21T06:21:37Z</time>
      </trkpt>
      <trkpt lat="45.71719" lon="6.46397">
        <ele>536.6</ele>
        <time>2023-08-21T06:21:38Z</time>
      </trkpt>
      <trkpt lat="45.71721" lon="6.46403">
        <ele>536.8</ele>
        <time>2023-08-21T06:21:39Z</time>
      </trkpt>
      <trkpt lat="45.71722" lon="6.46409">
        <ele>536.8</ele>
        <time>2023-08-21T06:21:40Z</time>
      </trkpt>
      <trkpt lat="45.71723" lon="6.46416">
        <ele>536.8</ele>
        <time>2023-08-21T06:21:41Z</time>
      </trkpt>
      <trkpt lat="45.71725" lon="6.46422">
        <ele>536.8</ele>
        <time>2023-08-21T06:21:42Z</time>
      </trkpt>
      <trkpt lat="45.71727" lon="6.46428">
        <ele>537.4</ele>
        <time>2023-08-21T06:21:43Z</time>
      </trkpt>
      <trkpt lat="45.71729" lon="6.46435">
        <ele>537.4</ele>
        <time>2023-08-21T06:21:44Z</time>
      </trkpt>
      <trkpt lat="45.71731" lon="6.4644">
        <ele>537.4</ele>
        <time>2023-08-21T06:21:45Z</time>
      </trkpt>
      <trkpt lat="45.71734" lon="6.46447">
        <ele>537.4</ele>
        <time>2023-08-21T06:21:46Z</time>
      </trkpt>
      <trkpt lat="45.71736" lon="6.46454">
        <ele>537.8</ele>
        <time>2023-08-21T06:21:47Z</time>
      </trkpt>
      <trkpt lat="45.71738" lon="6.46461">
        <ele>537.8</ele>
        <time>2023-08-21T06:21:48Z</time>
      </trkpt>
      <trkpt lat="45.71739" lon="6.46468">
        <ele>537.8</ele>
        <time>2023-08-21T06:21:49Z</time>
      </trkpt>
      <trkpt lat="45.71741" lon="6.46474">
        <ele>537.8</ele>
        <time>2023-08-21T06:21:50Z</time>
      </trkpt>
      <trkpt lat="45.71742" lon="6.46481">
        <ele>538.2</ele>
        <time>2023-08-21T06:21:51Z</time>
      </trkpt>
      <trkpt lat="45.71742" lon="6.46489">
        <ele>538.2</ele>
        <time>2023-08-21T06:21:52Z</time>
      </trkpt>
      <trkpt lat="45.71741" lon="6.46496">
        <ele>538.2</ele>
        <time>2023-08-21T06:21:53Z</time>
      </trkpt>
      <trkpt lat="45.71742" lon="6.46502">
        <ele>538.2</ele>
        <time>2023-08-21T06:21:54Z</time>
      </trkpt>
      <trkpt lat="45.71742" lon="6.4651">
        <ele>538.2</ele>
        <time>2023-08-21T06:21:55Z</time>
      </trkpt>
      <trkpt lat="45.71741" lon="6.46517">
        <ele>538.6</ele>
        <time>2023-08-21T06:21:56Z</time>
      </trkpt>
      <trkpt lat="45.7174" lon="6.46524">
        <ele>538.4</ele>
        <time>2023-08-21T06:21:57Z</time>
      </trkpt>
      <trkpt lat="45.71738" lon="6.46532">
        <ele>538.4</ele>
        <time>2023-08-21T06:21:58Z</time>
      </trkpt>
      <trkpt lat="45.71735" lon="6.46539">
        <ele>538.4</ele>
        <time>2023-08-21T06:21:59Z</time>
      </trkpt>
      <trkpt lat="45.71734" lon="6.46546">
        <ele>538.6</ele>
        <time>2023-08-21T06:22:00Z</time>
      </trkpt>
      <trkpt lat="45.71732" lon="6.46552">
        <ele>538.8</ele>
        <time>2023-08-21T06:22:01Z</time>
      </trkpt>
      <trkpt lat="45.7173" lon="6.46559">
        <ele>538.8</ele>
        <time>2023-08-21T06:22:02Z</time>
      </trkpt>
      <trkpt lat="45.71728" lon="6.46565">
        <ele>538.8</ele>
        <time>2023-08-21T06:22:03Z</time>
      </trkpt>
      <trkpt lat="45.71726" lon="6.46572">
        <ele>539</ele>
        <time>2023-08-21T06:22:04Z</time>
      </trkpt>
      <trkpt lat="45.71723" lon="6.46579">
        <ele>539</ele>
        <time>2023-08-21T06:22:05Z</time>
      </trkpt>
      <trkpt lat="45.7172" lon="6.46586">
        <ele>539</ele>
        <time>2023-08-21T06:22:06Z</time>
      </trkpt>
      <trkpt lat="45.71718" lon="6.46592">
        <ele>539</ele>
        <time>2023-08-21T06:22:07Z</time>
      </trkpt>
      <trkpt lat="45.71716" lon="6.46599">
        <ele>539</ele>
        <time>2023-08-21T06:22:08Z</time>
      </trkpt>
      <trkpt lat="45.71713" lon="6.46605">
        <ele>539.4</ele>
        <time>2023-08-21T06:22:09Z</time>
      </trkpt>
      <trkpt lat="45.71711" lon="6.46611">
        <ele>539.6</ele>
        <time>2023-08-21T06:22:10Z</time>
      </trkpt>
      <trkpt lat="45.71708" lon="6.46618">
        <ele>539.6</ele>
        <time>2023-08-21T06:22:11Z</time>
      </trkpt>
      <trkpt lat="45.71705" lon="6.46624">
        <ele>539.6</ele>
        <time>2023-08-21T06:22:12Z</time>
      </trkpt>
      <trkpt lat="45.71702" lon="6.4663">
        <ele>539.8</ele>
        <time>2023-08-21T06:22:13Z</time>
      </trkpt>
      <trkpt lat="45.71698" lon="6.46635">
        <ele>540</ele>
        <time>2023-08-21T06:22:14Z</time>
      </trkpt>
      <trkpt lat="45.71695" lon="6.46641">
        <ele>540</ele>
        <time>2023-08-21T06:22:15Z</time>
      </trkpt>
      <trkpt lat="45.71691" lon="6.46646">
        <ele>540</ele>
        <time>2023-08-21T06:22:16Z</time>
      </trkpt>
      <trkpt lat="45.71688" lon="6.46652">
        <ele>540</ele>
        <time>2023-08-21T06:22:17Z</time>
      </trkpt>
      <trkpt lat="45.71684" lon="6.46657">
        <ele>540</ele>
        <time>2023-08-21T06:22:18Z</time>
      </trkpt>
      <trkpt lat="45.71681" lon="6.46661">
        <ele>540.2</ele>
        <time>2023-08-21T06:22:19Z</time>
      </trkpt>
      <trkpt lat="45.71677" lon="6.46666">
        <ele>540.2</ele>
        <time>2023-08-21T06:22:20Z</time>
      </trkpt>
      <trkpt lat="45.71674" lon="6.4667">
        <ele>540.2</ele>
        <time>2023-08-21T06:22:21Z</time>
      </trkpt>
      <trkpt lat="45.7167" lon="6.46674">
        <ele>540.2</ele>
        <time>2023-08-21T06:22:22Z</time>
      </trkpt>
      <trkpt lat="45.71665" lon="6.46679">
        <ele>540.8</ele>
        <time>2023-08-21T06:22:23Z</time>
      </trkpt>
      <trkpt lat="45.71661" lon="6.46684">
        <ele>540.8</ele>
        <time>2023-08-21T06:22:24Z</time>
      </trkpt>
      <trkpt lat="45.71658" lon="6.4669">
        <ele>540.8</ele>
        <time>2023-08-21T06:22:25Z</time>
      </trkpt>
      <trkpt lat="45.71654" lon="6.46695">
        <ele>540.8</ele>
        <time>2023-08-21T06:22:26Z</time>
      </trkpt>
      <trkpt lat="45.7165" lon="6.467">
        <ele>541.4</ele>
        <time>2023-08-21T06:22:27Z</time>
      </trkpt>
      <trkpt lat="45.71646" lon="6.46705">
        <ele>541.4</ele>
        <time>2023-08-21T06:22:28Z</time>
      </trkpt>
      <trkpt lat="45.71643" lon="6.4671">
        <ele>541.4</ele>
        <time>2023-08-21T06:22:29Z</time>
      </trkpt>
      <trkpt lat="45.71639" lon="6.46715">
        <ele>541.4</ele>
        <time>2023-08-21T06:22:30Z</time>
      </trkpt>
      <trkpt lat="45.71636" lon="6.4672">
        <ele>541.4</ele>
        <time>2023-08-21T06:22:31Z</time>
      </trkpt>
      <trkpt lat="45.71633" lon="6.46726">
        <ele>541.4</ele>
        <time>2023-08-21T06:22:32Z</time>
      </trkpt>
      <trkpt lat="45.7163" lon="6.46731">
        <ele>541.4</ele>
        <time>2023-08-21T06:22:33Z</time>
      </trkpt>
      <trkpt lat="45.71627" lon="6.46736">
        <ele>542</ele>
        <time>2023-08-21T06:22:34Z</time>
      </trkpt>
      <trkpt lat="45.71624" lon="6.46741">
        <ele>542</ele>
        <time>2023-08-21T06:22:35Z</time>
      </trkpt>
      <trkpt lat="45.71621" lon="6.46746">
        <ele>542.2</ele>
        <time>2023-08-21T06:22:36Z</time>
      </trkpt>
      <trkpt lat="45.71618" lon="6.46751">
        <ele>542.2</ele>
        <time>2023-08-21T06:22:37Z</time>
      </trkpt>
      <trkpt lat="45.71615" lon="6.46757">
        <ele>542.2</ele>
        <time>2023-08-21T06:22:38Z</time>
      </trkpt>
      <trkpt lat="45.71613" lon="6.46764">
        <ele>542.2</ele>
        <time>2023-08-21T06:22:39Z</time>
      </trkpt>
      <trkpt lat="45.7161" lon="6.4677">
        <ele>542.4</ele>
        <time>2023-08-21T06:22:40Z</time>
      </trkpt>
      <trkpt lat="45.71607" lon="6.46776">
        <ele>542.4</ele>
        <time>2023-08-21T06:22:41Z</time>
      </trkpt>
      <trkpt lat="45.71604" lon="6.46781">
        <ele>542.4</ele>
        <time>2023-08-21T06:22:42Z</time>
      </trkpt>
      <trkpt lat="45.71601" lon="6.46787">
        <ele>542.4</ele>
        <time>2023-08-21T06:22:43Z</time>
      </trkpt>
      <trkpt lat="45.71599" lon="6.46793">
        <ele>542.4</ele>
        <time>2023-08-21T06:22:44Z</time>
      </trkpt>
      <trkpt lat="45.71595" lon="6.46798">
        <ele>542.6</ele>
        <time>2023-08-21T06:22:45Z</time>
      </trkpt>
      <trkpt lat="45.71593" lon="6.46805">
        <ele>542.6</ele>
        <time>2023-08-21T06:22:46Z</time>
      </trkpt>
      <trkpt lat="45.7159" lon="6.46812">
        <ele>542.6</ele>
        <time>2023-08-21T06:22:47Z</time>
      </trkpt>
      <trkpt lat="45.71587" lon="6.46818">
        <ele>542.6</ele>
        <time>2023-08-21T06:22:48Z</time>
      </trkpt>
      <trkpt lat="45.71584" lon="6.46825">
        <ele>542.8</ele>
        <time>2023-08-21T06:22:49Z</time>
      </trkpt>
      <trkpt lat="45.71582" lon="6.46832">
        <ele>542.8</ele>
        <time>2023-08-21T06:22:50Z</time>
      </trkpt>
      <trkpt lat="45.7158" lon="6.46839">
        <ele>542.8</ele>
        <time>2023-08-21T06:22:51Z</time>
      </trkpt>
      <trkpt lat="45.71578" lon="6.46846">
        <ele>542.8</ele>
        <time>2023-08-21T06:22:52Z</time>
      </trkpt>
      <trkpt lat="45.71575" lon="6.46853">
        <ele>543</ele>
        <time>2023-08-21T06:22:53Z</time>
      </trkpt>
      <trkpt lat="45.71572" lon="6.46859">
        <ele>543</ele>
        <time>2023-08-21T06:22:54Z</time>
      </trkpt>
      <trkpt lat="45.7157" lon="6.46866">
        <ele>543.2</ele>
        <time>2023-08-21T06:22:55Z</time>
      </trkpt>
      <trkpt lat="45.71567" lon="6.46872">
        <ele>543.2</ele>
        <time>2023-08-21T06:22:56Z</time>
      </trkpt>
      <trkpt lat="45.71565" lon="6.46879">
        <ele>543.2</ele>
        <time>2023-08-21T06:22:57Z</time>
      </trkpt>
      <trkpt lat="45.71562" lon="6.46886">
        <ele>543.6</ele>
        <time>2023-08-21T06:22:58Z</time>
      </trkpt>
      <trkpt lat="45.7156" lon="6.46893">
        <ele>543.6</ele>
        <time>2023-08-21T06:22:59Z</time>
      </trkpt>
      <trkpt lat="45.71558" lon="6.46899">
        <ele>543.6</ele>
        <time>2023-08-21T06:23:00Z</time>
      </trkpt>
      <trkpt lat="45.71556" lon="6.46906">
        <ele>543.6</ele>
        <time>2023-08-21T06:23:01Z</time>
      </trkpt>
      <trkpt lat="45.71554" lon="6.46913">
        <ele>544</ele>
        <time>2023-08-21T06:23:02Z</time>
      </trkpt>
      <trkpt lat="45.71552" lon="6.4692">
        <ele>544</ele>
        <time>2023-08-21T06:23:03Z</time>
      </trkpt>
      <trkpt lat="45.7155" lon="6.46926">
        <ele>544</ele>
        <time>2023-08-21T06:23:04Z</time>
      </trkpt>
      <trkpt lat="45.71548" lon="6.46933">
        <ele>544</ele>
        <time>2023-08-21T06:23:05Z</time>
      </trkpt>
      <trkpt lat="45.71545" lon="6.46939">
        <ele>544</ele>
        <time>2023-08-21T06:23:06Z</time>
      </trkpt>
      <trkpt lat="45.71543" lon="6.46946">
        <ele>544</ele>
        <time>2023-08-21T06:23:07Z</time>
      </trkpt>
      <trkpt lat="45.71542" lon="6.46953">
        <ele>544.4</ele>
        <time>2023-08-21T06:23:08Z</time>
      </trkpt>
      <trkpt lat="45.7154" lon="6.4696">
        <ele>544.4</ele>
        <time>2023-08-21T06:23:09Z</time>
      </trkpt>
      <trkpt lat="45.71538" lon="6.46966">
        <ele>544.4</ele>
        <time>2023-08-21T06:23:10Z</time>
      </trkpt>
      <trkpt lat="45.71536" lon="6.46972">
        <ele>544.4</ele>
        <time>2023-08-21T06:23:11Z</time>
      </trkpt>
      <trkpt lat="45.71535" lon="6.46979">
        <ele>544.8</ele>
        <time>2023-08-21T06:23:12Z</time>
      </trkpt>
      <trkpt lat="45.71532" lon="6.46985">
        <ele>544.8</ele>
        <time>2023-08-21T06:23:13Z</time>
      </trkpt>
      <trkpt lat="45.7153" lon="6.46991">
        <ele>544.8</ele>
        <time>2023-08-21T06:23:14Z</time>
      </trkpt>
      <trkpt lat="45.71527" lon="6.46998">
        <ele>544.8</ele>
        <time>2023-08-21T06:23:15Z</time>
      </trkpt>
      <trkpt lat="45.71524" lon="6.47004">
        <ele>544.8</ele>
        <time>2023-08-21T06:23:16Z</time>
      </trkpt>
      <trkpt lat="45.71522" lon="6.4701">
        <ele>545</ele>
        <time>2023-08-21T06:23:17Z</time>
      </trkpt>
      <trkpt lat="45.71519" lon="6.47016">
        <ele>545</ele>
        <time>2023-08-21T06:23:18Z</time>
      </trkpt>
      <trkpt lat="45.71517" lon="6.47022">
        <ele>545</ele>
        <time>2023-08-21T06:23:19Z</time>
      </trkpt>
      <trkpt lat="45.71515" lon="6.47028">
        <ele>545</ele>
        <time>2023-08-21T06:23:20Z</time>
      </trkpt>
      <trkpt lat="45.71513" lon="6.47034">
        <ele>545</ele>
        <time>2023-08-21T06:23:21Z</time>
      </trkpt>
      <trkpt lat="45.7151" lon="6.47039">
        <ele>546</ele>
        <time>2023-08-21T06:23:22Z</time>
      </trkpt>
      <trkpt lat="45.71508" lon="6.47045">
        <ele>546</ele>
        <time>2023-08-21T06:23:23Z</time>
      </trkpt>
      <trkpt lat="45.71506" lon="6.4705">
        <ele>546</ele>
        <time>2023-08-21T06:23:24Z</time>
      </trkpt>
      <trkpt lat="45.71503" lon="6.47055">
        <ele>546.4</ele>
        <time>2023-08-21T06:23:25Z</time>
      </trkpt>
      <trkpt lat="45.71501" lon="6.47061">
        <ele>546.4</ele>
        <time>2023-08-21T06:23:26Z</time>
      </trkpt>
      <trkpt lat="45.71499" lon="6.47067">
        <ele>546.4</ele>
        <time>2023-08-21T06:23:27Z</time>
      </trkpt>
      <trkpt lat="45.71497" lon="6.47074">
        <ele>546.4</ele>
        <time>2023-08-21T06:23:28Z</time>
      </trkpt>
      <trkpt lat="45.71495" lon="6.4708">
        <ele>546.8</ele>
        <time>2023-08-21T06:23:29Z</time>
      </trkpt>
      <trkpt lat="45.71493" lon="6.47086">
        <ele>546.8</ele>
        <time>2023-08-21T06:23:30Z</time>
      </trkpt>
      <trkpt lat="45.71491" lon="6.47091">
        <ele>546.8</ele>
        <time>2023-08-21T06:23:31Z</time>
      </trkpt>
      <trkpt lat="45.71489" lon="6.47097">
        <ele>546.8</ele>
        <time>2023-08-21T06:23:32Z</time>
      </trkpt>
      <trkpt lat="45.71488" lon="6.47103">
        <ele>546.8</ele>
        <time>2023-08-21T06:23:33Z</time>
      </trkpt>
      <trkpt lat="45.71486" lon="6.47109">
        <ele>547.4</ele>
        <time>2023-08-21T06:23:34Z</time>
      </trkpt>
      <trkpt lat="45.71485" lon="6.47115">
        <ele>547.4</ele>
        <time>2023-08-21T06:23:35Z</time>
      </trkpt>
      <trkpt lat="45.71484" lon="6.4712">
        <ele>547.4</ele>
        <time>2023-08-21T06:23:36Z</time>
      </trkpt>
      <trkpt lat="45.71483" lon="6.47125">
        <ele>547.4</ele>
        <time>2023-08-21T06:23:37Z</time>
      </trkpt>
      <trkpt lat="45.71482" lon="6.4713">
        <ele>548</ele>
        <time>2023-08-21T06:23:38Z</time>
      </trkpt>
      <trkpt lat="45.71481" lon="6.47135">
        <ele>548.2</ele>
        <time>2023-08-21T06:23:39Z</time>
      </trkpt>
      <trkpt lat="45.7148" lon="6.4714">
        <ele>548.2</ele>
        <time>2023-08-21T06:23:40Z</time>
      </trkpt>
      <trkpt lat="45.71479" lon="6.47145">
        <ele>548.2</ele>
        <time>2023-08-21T06:23:41Z</time>
      </trkpt>
      <trkpt lat="45.71478" lon="6.47149">
        <ele>548.6</ele>
        <time>2023-08-21T06:23:42Z</time>
      </trkpt>
      <trkpt lat="45.71478" lon="6.47154">
        <ele>548.6</ele>
        <time>2023-08-21T06:23:43Z</time>
      </trkpt>
      <trkpt lat="45.71478" lon="6.47159">
        <ele>548.8</ele>
        <time>2023-08-21T06:23:44Z</time>
      </trkpt>
      <trkpt lat="45.71478" lon="6.47164">
        <ele>548.8</ele>
        <time>2023-08-21T06:23:45Z</time>
      </trkpt>
      <trkpt lat="45.71479" lon="6.47169">
        <ele>548.8</ele>
        <time>2023-08-21T06:23:46Z</time>
      </trkpt>
      <trkpt lat="45.71479" lon="6.47174">
        <ele>548.8</ele>
        <time>2023-08-21T06:23:47Z</time>
      </trkpt>
      <trkpt lat="45.71479" lon="6.47178">
        <ele>549.2</ele>
        <time>2023-08-21T06:23:48Z</time>
      </trkpt>
      <trkpt lat="45.71479" lon="6.47184">
        <ele>549.4</ele>
        <time>2023-08-21T06:23:49Z</time>
      </trkpt>
      <trkpt lat="45.71479" lon="6.47188">
        <ele>549.4</ele>
        <time>2023-08-21T06:23:50Z</time>
      </trkpt>
      <trkpt lat="45.71479" lon="6.47194">
        <ele>549.4</ele>
        <time>2023-08-21T06:23:51Z</time>
      </trkpt>
      <trkpt lat="45.71479" lon="6.472">
        <ele>549.6</ele>
        <time>2023-08-21T06:23:52Z</time>
      </trkpt>
      <trkpt lat="45.7148" lon="6.47205">
        <ele>550</ele>
        <time>2023-08-21T06:23:53Z</time>
      </trkpt>
      <trkpt lat="45.71481" lon="6.4721">
        <ele>550</ele>
        <time>2023-08-21T06:23:54Z</time>
      </trkpt>
      <trkpt lat="45.71481" lon="6.47215">
        <ele>550</ele>
        <time>2023-08-21T06:23:55Z</time>
      </trkpt>
      <trkpt lat="45.71481" lon="6.4722">
        <ele>550</ele>
        <time>2023-08-21T06:23:56Z</time>
      </trkpt>
      <trkpt lat="45.71482" lon="6.47225">
        <ele>550.4</ele>
        <time>2023-08-21T06:23:57Z</time>
      </trkpt>
      <trkpt lat="45.71482" lon="6.47229">
        <ele>550.4</ele>
        <time>2023-08-21T06:23:58Z</time>
      </trkpt>
      <trkpt lat="45.71483" lon="6.47234">
        <ele>550.4</ele>
        <time>2023-08-21T06:23:59Z</time>
      </trkpt>
      <trkpt lat="45.71483" lon="6.47239">
        <ele>550.4</ele>
        <time>2023-08-21T06:24:00Z</time>
      </trkpt>
      <trkpt lat="45.71484" lon="6.47244">
        <ele>550.8</ele>
        <time>2023-08-21T06:24:01Z</time>
      </trkpt>
      <trkpt lat="45.71484" lon="6.47249">
        <ele>550.8</ele>
        <time>2023-08-21T06:24:02Z</time>
      </trkpt>
      <trkpt lat="45.71486" lon="6.47254">
        <ele>551</ele>
        <time>2023-08-21T06:24:03Z</time>
      </trkpt>
      <trkpt lat="45.71487" lon="6.47258">
        <ele>551</ele>
        <time>2023-08-21T06:24:04Z</time>
      </trkpt>
      <trkpt lat="45.71488" lon="6.47263">
        <ele>551.4</ele>
        <time>2023-08-21T06:24:05Z</time>
      </trkpt>
      <trkpt lat="45.7149" lon="6.47268">
        <ele>551.6</ele>
        <time>2023-08-21T06:24:06Z</time>
      </trkpt>
      <trkpt lat="45.71492" lon="6.47273">
        <ele>551.6</ele>
        <time>2023-08-21T06:24:07Z</time>
      </trkpt>
      <trkpt lat="45.71494" lon="6.47277">
        <ele>551.6</ele>
        <time>2023-08-21T06:24:08Z</time>
      </trkpt>
      <trkpt lat="45.71496" lon="6.47282">
        <ele>551.6</ele>
        <time>2023-08-21T06:24:09Z</time>
      </trkpt>
      <trkpt lat="45.71498" lon="6.47286">
        <ele>551.8</ele>
        <time>2023-08-21T06:24:10Z</time>
      </trkpt>
      <trkpt lat="45.71499" lon="6.47291">
        <ele>551.8</ele>
        <time>2023-08-21T06:24:11Z</time>
      </trkpt>
      <trkpt lat="45.71501" lon="6.47296">
        <ele>552</ele>
        <time>2023-08-21T06:24:12Z</time>
      </trkpt>
      <trkpt lat="45.71502" lon="6.47301">
        <ele>552</ele>
        <time>2023-08-21T06:24:13Z</time>
      </trkpt>
      <trkpt lat="45.71504" lon="6.47306">
        <ele>552.2</ele>
        <time>2023-08-21T06:24:14Z</time>
      </trkpt>
      <trkpt lat="45.71506" lon="6.4731">
        <ele>552.4</ele>
        <time>2023-08-21T06:24:15Z</time>
      </trkpt>
      <trkpt lat="45.71508" lon="6.47315">
        <ele>552.4</ele>
        <time>2023-08-21T06:24:16Z</time>
      </trkpt>
      <trkpt lat="45.71509" lon="6.47319">
        <ele>552.4</ele>
        <time>2023-08-21T06:24:17Z</time>
      </trkpt>
      <trkpt lat="45.71511" lon="6.47324">
        <ele>552.4</ele>
        <time>2023-08-21T06:24:18Z</time>
      </trkpt>
      <trkpt lat="45.71513" lon="6.47328">
        <ele>553</ele>
        <time>2023-08-21T06:24:19Z</time>
      </trkpt>
      <trkpt lat="45.71514" lon="6.47333">
        <ele>553</ele>
        <time>2023-08-21T06:24:20Z</time>
      </trkpt>
      <trkpt lat="45.71516" lon="6.47337">
        <ele>553</ele>
        <time>2023-08-21T06:24:21Z</time>
      </trkpt>
      <trkpt lat="45.71518" lon="6.47342">
        <ele>553</ele>
        <time>2023-08-21T06:24:22Z</time>
      </trkpt>
      <trkpt lat="45.7152" lon="6.47346">
        <ele>553.6</ele>
        <time>2023-08-21T06:24:23Z</time>
      </trkpt>
      <trkpt lat="45.71521" lon="6.47351">
        <ele>553.6</ele>
        <time>2023-08-21T06:24:24Z</time>
      </trkpt>
      <trkpt lat="45.71523" lon="6.47356">
        <ele>553.6</ele>
        <time>2023-08-21T06:24:25Z</time>
      </trkpt>
      <trkpt lat="45.71524" lon="6.47361">
        <ele>553.6</ele>
        <time>2023-08-21T06:24:26Z</time>
      </trkpt>
      <trkpt lat="45.71525" lon="6.47366">
        <ele>554.2</ele>
        <time>2023-08-21T06:24:27Z</time>
      </trkpt>
      <trkpt lat="45.71526" lon="6.47371">
        <ele>554.2</ele>
        <time>2023-08-21T06:24:28Z</time>
      </trkpt>
      <trkpt lat="45.71527" lon="6.47376">
        <ele>554.2</ele>
        <time>2023-08-21T06:24:29Z</time>
      </trkpt>
      <trkpt lat="45.71527" lon="6.47381">
        <ele>554.2</ele>
        <time>2023-08-21T06:24:30Z</time>
      </trkpt>
      <trkpt lat="45.71528" lon="6.47386">
        <ele>554.2</ele>
        <time>2023-08-21T06:24:31Z</time>
      </trkpt>
      <trkpt lat="45.71528" lon="6.47391">
        <ele>554.8</ele>
        <time>2023-08-21T06:24:32Z</time>
      </trkpt>
      <trkpt lat="45.71528" lon="6.47397">
        <ele>554.8</ele>
        <time>2023-08-21T06:24:33Z</time>
      </trkpt>
      <trkpt lat="45.71529" lon="6.47402">
        <ele>555.2</ele>
        <time>2023-08-21T06:24:34Z</time>
      </trkpt>
      <trkpt lat="45.71529" lon="6.47408">
        <ele>555.2</ele>
        <time>2023-08-21T06:24:35Z</time>
      </trkpt>
      <trkpt lat="45.71529" lon="6.47413">
        <ele>555.2</ele>
        <time>2023-08-21T06:24:36Z</time>
      </trkpt>
      <trkpt lat="45.71529" lon="6.47419">
        <ele>555.6</ele>
        <time>2023-08-21T06:24:37Z</time>
      </trkpt>
      <trkpt lat="45.71529" lon="6.47425">
        <ele>555.6</ele>
        <time>2023-08-21T06:24:38Z</time>
      </trkpt>
      <trkpt lat="45.71528" lon="6.47431">
        <ele>555.6</ele>
        <time>2023-08-21T06:24:39Z</time>
      </trkpt>
      <trkpt lat="45.71528" lon="6.47437">
        <ele>555.6</ele>
        <time>2023-08-21T06:24:40Z</time>
      </trkpt>
      <trkpt lat="45.71528" lon="6.47443">
        <ele>555.8</ele>
        <time>2023-08-21T06:24:41Z</time>
      </trkpt>
      <trkpt lat="45.71527" lon="6.47449">
        <ele>555.8</ele>
        <time>2023-08-21T06:24:42Z</time>
      </trkpt>
      <trkpt lat="45.71527" lon="6.47456">
        <ele>555.8</ele>
        <time>2023-08-21T06:24:43Z</time>
      </trkpt>
      <trkpt lat="45.71526" lon="6.47462">
        <ele>555.8</ele>
        <time>2023-08-21T06:24:44Z</time>
      </trkpt>
      <trkpt lat="45.71525" lon="6.47469">
        <ele>555.8</ele>
        <time>2023-08-21T06:24:45Z</time>
      </trkpt>
      <trkpt lat="45.71525" lon="6.47475">
        <ele>555.8</ele>
        <time>2023-08-21T06:24:46Z</time>
      </trkpt>
      <trkpt lat="45.71524" lon="6.47482">
        <ele>556</ele>
        <time>2023-08-21T06:24:47Z</time>
      </trkpt>
      <trkpt lat="45.71524" lon="6.47489">
        <ele>556</ele>
        <time>2023-08-21T06:24:48Z</time>
      </trkpt>
      <trkpt lat="45.71524" lon="6.47495">
        <ele>556</ele>
        <time>2023-08-21T06:24:49Z</time>
      </trkpt>
      <trkpt lat="45.71525" lon="6.47502">
        <ele>556</ele>
        <time>2023-08-21T06:24:50Z</time>
      </trkpt>
      <trkpt lat="45.71525" lon="6.4751">
        <ele>556</ele>
        <time>2023-08-21T06:24:51Z</time>
      </trkpt>
      <trkpt lat="45.71526" lon="6.47517">
        <ele>556</ele>
        <time>2023-08-21T06:24:52Z</time>
      </trkpt>
      <trkpt lat="45.71527" lon="6.47523">
        <ele>556</ele>
        <time>2023-08-21T06:24:53Z</time>
      </trkpt>
      <trkpt lat="45.71529" lon="6.4753">
        <ele>556.4</ele>
        <time>2023-08-21T06:24:54Z</time>
      </trkpt>
      <trkpt lat="45.71532" lon="6.47536">
        <ele>556.4</ele>
        <time>2023-08-21T06:24:55Z</time>
      </trkpt>
      <trkpt lat="45.71535" lon="6.47542">
        <ele>556.4</ele>
        <time>2023-08-21T06:24:56Z</time>
      </trkpt>
      <trkpt lat="45.71538" lon="6.47548">
        <ele>556.4</ele>
        <time>2023-08-21T06:24:57Z</time>
      </trkpt>
      <trkpt lat="45.71541" lon="6.47553">
        <ele>556.4</ele>
        <time>2023-08-21T06:24:58Z</time>
      </trkpt>
      <trkpt lat="45.71544" lon="6.47558">
        <ele>556.6</ele>
        <time>2023-08-21T06:24:59Z</time>
      </trkpt>
      <trkpt lat="45.71548" lon="6.47563">
        <ele>556.6</ele>
        <time>2023-08-21T06:25:00Z</time>
      </trkpt>
      <trkpt lat="45.71552" lon="6.47567">
        <ele>556.6</ele>
        <time>2023-08-21T06:25:01Z</time>
      </trkpt>
      <trkpt lat="45.71556" lon="6.47572">
        <ele>556.6</ele>
        <time>2023-08-21T06:25:02Z</time>
      </trkpt>
      <trkpt lat="45.7156" lon="6.47578">
        <ele>556.6</ele>
        <time>2023-08-21T06:25:03Z</time>
      </trkpt>
      <trkpt lat="45.71564" lon="6.47583">
        <ele>556.6</ele>
        <time>2023-08-21T06:25:04Z</time>
      </trkpt>
      <trkpt lat="45.71568" lon="6.47589">
        <ele>556.6</ele>
        <time>2023-08-21T06:25:05Z</time>
      </trkpt>
      <trkpt lat="45.71572" lon="6.47595">
        <ele>556.6</ele>
        <time>2023-08-21T06:25:06Z</time>
      </trkpt>
      <trkpt lat="45.71576" lon="6.47601">
        <ele>556.6</ele>
        <time>2023-08-21T06:25:07Z</time>
      </trkpt>
      <trkpt lat="45.71579" lon="6.47608">
        <ele>556.8</ele>
        <time>2023-08-21T06:25:08Z</time>
      </trkpt>
      <trkpt lat="45.71581" lon="6.47615">
        <ele>556.8</ele>
        <time>2023-08-21T06:25:09Z</time>
      </trkpt>
      <trkpt lat="45.71584" lon="6.47621">
        <ele>556.8</ele>
        <time>2023-08-21T06:25:10Z</time>
      </trkpt>
      <trkpt lat="45.71586" lon="6.47628">
        <ele>557.4</ele>
        <time>2023-08-21T06:25:11Z</time>
      </trkpt>
      <trkpt lat="45.71587" lon="6.47635">
        <ele>557.4</ele>
        <time>2023-08-21T06:25:12Z</time>
      </trkpt>
      <trkpt lat="45.71589" lon="6.47642">
        <ele>557.4</ele>
        <time>2023-08-21T06:25:13Z</time>
      </trkpt>
      <trkpt lat="45.71591" lon="6.47648">
        <ele>557.6</ele>
        <time>2023-08-21T06:25:14Z</time>
      </trkpt>
      <trkpt lat="45.71592" lon="6.47655">
        <ele>557.6</ele>
        <time>2023-08-21T06:25:15Z</time>
      </trkpt>
      <trkpt lat="45.71593" lon="6.47662">
        <ele>557.6</ele>
        <time>2023-08-21T06:25:16Z</time>
      </trkpt>
      <trkpt lat="45.71595" lon="6.47668">
        <ele>558</ele>
        <time>2023-08-21T06:25:17Z</time>
      </trkpt>
      <trkpt lat="45.71596" lon="6.47675">
        <ele>558.2</ele>
        <time>2023-08-21T06:25:18Z</time>
      </trkpt>
      <trkpt lat="45.71597" lon="6.47681">
        <ele>558.2</ele>
        <time>2023-08-21T06:25:19Z</time>
      </trkpt>
      <trkpt lat="45.71598" lon="6.47688">
        <ele>558.2</ele>
        <time>2023-08-21T06:25:20Z</time>
      </trkpt>
      <trkpt lat="45.71599" lon="6.47695">
        <ele>558.4</ele>
        <time>2023-08-21T06:25:21Z</time>
      </trkpt>
      <trkpt lat="45.716" lon="6.47701">
        <ele>558.6</ele>
        <time>2023-08-21T06:25:22Z</time>
      </trkpt>
      <trkpt lat="45.71601" lon="6.47708">
        <ele>558.6</ele>
        <time>2023-08-21T06:25:23Z</time>
      </trkpt>
      <trkpt lat="45.71602" lon="6.47715">
        <ele>558.6</ele>
        <time>2023-08-21T06:25:24Z</time>
      </trkpt>
      <trkpt lat="45.71603" lon="6.47721">
        <ele>558.6</ele>
        <time>2023-08-21T06:25:25Z</time>
      </trkpt>
      <trkpt lat="45.71605" lon="6.47728">
        <ele>558.6</ele>
        <time>2023-08-21T06:25:26Z</time>
      </trkpt>
      <trkpt lat="45.71606" lon="6.47735">
        <ele>559</ele>
        <time>2023-08-21T06:25:27Z</time>
      </trkpt>
      <trkpt lat="45.71607" lon="6.47742">
        <ele>559</ele>
        <time>2023-08-21T06:25:28Z</time>
      </trkpt>
      <trkpt lat="45.71608" lon="6.47748">
        <ele>559</ele>
        <time>2023-08-21T06:25:29Z</time>
      </trkpt>
      <trkpt lat="45.71609" lon="6.47755">
        <ele>559.2</ele>
        <time>2023-08-21T06:25:30Z</time>
      </trkpt>
      <trkpt lat="45.71611" lon="6.47762">
        <ele>559.2</ele>
        <time>2023-08-21T06:25:31Z</time>
      </trkpt>
      <trkpt lat="45.71612" lon="6.47769">
        <ele>559.2</ele>
        <time>2023-08-21T06:25:32Z</time>
      </trkpt>
      <trkpt lat="45.71613" lon="6.47776">
        <ele>559.2</ele>
        <time>2023-08-21T06:25:33Z</time>
      </trkpt>
      <trkpt lat="45.71614" lon="6.47783">
        <ele>559.6</ele>
        <time>2023-08-21T06:25:34Z</time>
      </trkpt>
      <trkpt lat="45.71615" lon="6.47791">
        <ele>559.6</ele>
        <time>2023-08-21T06:25:35Z</time>
      </trkpt>
      <trkpt lat="45.71616" lon="6.47798">
        <ele>559.6</ele>
        <time>2023-08-21T06:25:36Z</time>
      </trkpt>
      <trkpt lat="45.71617" lon="6.47806">
        <ele>559.6</ele>
        <time>2023-08-21T06:25:37Z</time>
      </trkpt>
      <trkpt lat="45.71617" lon="6.47813">
        <ele>559.6</ele>
        <time>2023-08-21T06:25:38Z</time>
      </trkpt>
      <trkpt lat="45.71617" lon="6.4782">
        <ele>559.8</ele>
        <time>2023-08-21T06:25:39Z</time>
      </trkpt>
      <trkpt lat="45.71616" lon="6.47828">
        <ele>559.8</ele>
        <time>2023-08-21T06:25:40Z</time>
      </trkpt>
      <trkpt lat="45.71615" lon="6.47835">
        <ele>559.8</ele>
        <time>2023-08-21T06:25:41Z</time>
      </trkpt>
      <trkpt lat="45.71613" lon="6.47842">
        <ele>559.8</ele>
        <time>2023-08-21T06:25:42Z</time>
      </trkpt>
      <trkpt lat="45.71612" lon="6.47849">
        <ele>560</ele>
        <time>2023-08-21T06:25:43Z</time>
      </trkpt>
      <trkpt lat="45.7161" lon="6.47856">
        <ele>560.2</ele>
        <time>2023-08-21T06:25:44Z</time>
      </trkpt>
      <trkpt lat="45.71608" lon="6.47863">
        <ele>560.2</ele>
        <time>2023-08-21T06:25:45Z</time>
      </trkpt>
      <trkpt lat="45.71606" lon="6.4787">
        <ele>560.2</ele>
        <time>2023-08-21T06:25:46Z</time>
      </trkpt>
      <trkpt lat="45.71603" lon="6.47876">
        <ele>560.4</ele>
        <time>2023-08-21T06:25:47Z</time>
      </trkpt>
      <trkpt lat="45.716" lon="6.47882">
        <ele>560.4</ele>
        <time>2023-08-21T06:25:48Z</time>
      </trkpt>
      <trkpt lat="45.71598" lon="6.47888">
        <ele>560.4</ele>
        <time>2023-08-21T06:25:49Z</time>
      </trkpt>
      <trkpt lat="45.71595" lon="6.47894">
        <ele>560.4</ele>
        <time>2023-08-21T06:25:50Z</time>
      </trkpt>
      <trkpt lat="45.71592" lon="6.479">
        <ele>560.4</ele>
        <time>2023-08-21T06:25:51Z</time>
      </trkpt>
      <trkpt lat="45.71589" lon="6.47905">
        <ele>561</ele>
        <time>2023-08-21T06:25:52Z</time>
      </trkpt>
      <trkpt lat="45.71586" lon="6.4791">
        <ele>561</ele>
        <time>2023-08-21T06:25:53Z</time>
      </trkpt>
      <trkpt lat="45.71582" lon="6.47915">
        <ele>561</ele>
        <time>2023-08-21T06:25:54Z</time>
      </trkpt>
      <trkpt lat="45.71579" lon="6.47919">
        <ele>561</ele>
        <time>2023-08-21T06:25:55Z</time>
      </trkpt>
      <trkpt lat="45.71575" lon="6.47924">
        <ele>561</ele>
        <time>2023-08-21T06:25:56Z</time>
      </trkpt>
      <trkpt lat="45.71572" lon="6.47929">
        <ele>561.4</ele>
        <time>2023-08-21T06:25:57Z</time>
      </trkpt>
      <trkpt lat="45.71569" lon="6.47934">
        <ele>561.4</ele>
        <time>2023-08-21T06:25:58Z</time>
      </trkpt>
      <trkpt lat="45.71565" lon="6.47938">
        <ele>561.4</ele>
        <time>2023-08-21T06:25:59Z</time>
      </trkpt>
      <trkpt lat="45.71561" lon="6.47943">
        <ele>561.4</ele>
        <time>2023-08-21T06:26:00Z</time>
      </trkpt>
      <trkpt lat="45.71558" lon="6.47948">
        <ele>561.4</ele>
        <time>2023-08-21T06:26:01Z</time>
      </trkpt>
      <trkpt lat="45.71554" lon="6.47954">
        <ele>562</ele>
        <time>2023-08-21T06:26:02Z</time>
      </trkpt>
      <trkpt lat="45.71551" lon="6.47958">
        <ele>562</ele>
        <time>2023-08-21T06:26:03Z</time>
      </trkpt>
      <trkpt lat="45.71547" lon="6.47963">
        <ele>562</ele>
        <time>2023-08-21T06:26:04Z</time>
      </trkpt>
      <trkpt lat="45.71544" lon="6.47967">
        <ele>562</ele>
        <time>2023-08-21T06:26:05Z</time>
      </trkpt>
      <trkpt lat="45.71541" lon="6.47972">
        <ele>562.4</ele>
        <time>2023-08-21T06:26:06Z</time>
      </trkpt>
      <trkpt lat="45.71538" lon="6.47977">
        <ele>562.4</ele>
        <time>2023-08-21T06:26:07Z</time>
      </trkpt>
      <trkpt lat="45.71535" lon="6.47982">
        <ele>562.4</ele>
        <time>2023-08-21T06:26:08Z</time>
      </trkpt>
      <trkpt lat="45.71532" lon="6.47987">
        <ele>562.4</ele>
        <time>2023-08-21T06:26:09Z</time>
      </trkpt>
      <trkpt lat="45.71529" lon="6.47992">
        <ele>562.4</ele>
        <time>2023-08-21T06:26:10Z</time>
      </trkpt>
      <trkpt lat="45.71526" lon="6.47996">
        <ele>562.4</ele>
        <time>2023-08-21T06:26:11Z</time>
      </trkpt>
      <trkpt lat="45.71523" lon="6.48001">
        <ele>563.2</ele>
        <time>2023-08-21T06:26:12Z</time>
      </trkpt>
      <trkpt lat="45.71519" lon="6.48005">
        <ele>563.2</ele>
        <time>2023-08-21T06:26:13Z</time>
      </trkpt>
      <trkpt lat="45.71516" lon="6.4801">
        <ele>563.2</ele>
        <time>2023-08-21T06:26:14Z</time>
      </trkpt>
      <trkpt lat="45.71512" lon="6.48014">
        <ele>563.4</ele>
        <time>2023-08-21T06:26:15Z</time>
      </trkpt>
      <trkpt lat="45.71509" lon="6.48018">
        <ele>563.6</ele>
        <time>2023-08-21T06:26:16Z</time>
      </trkpt>
      <trkpt lat="45.71506" lon="6.48023">
        <ele>563.6</ele>
        <time>2023-08-21T06:26:17Z</time>
      </trkpt>
      <trkpt lat="45.71503" lon="6.48027">
        <ele>563.6</ele>
        <time>2023-08-21T06:26:18Z</time>
      </trkpt>
      <trkpt lat="45.715" lon="6.48031">
        <ele>564</ele>
        <time>2023-08-21T06:26:19Z</time>
      </trkpt>
      <trkpt lat="45.71497" lon="6.48035">
        <ele>564</ele>
        <time>2023-08-21T06:26:20Z</time>
      </trkpt>
      <trkpt lat="45.71494" lon="6.48039">
        <ele>564</ele>
        <time>2023-08-21T06:26:21Z</time>
      </trkpt>
      <trkpt lat="45.71491" lon="6.48044">
        <ele>564</ele>
        <time>2023-08-21T06:26:22Z</time>
      </trkpt>
      <trkpt lat="45.71488" lon="6.48048">
        <ele>564</ele>
        <time>2023-08-21T06:26:23Z</time>
      </trkpt>
      <trkpt lat="45.71485" lon="6.48052">
        <ele>564.6</ele>
        <time>2023-08-21T06:26:24Z</time>
      </trkpt>
      <trkpt lat="45.71483" lon="6.48057">
        <ele>564.8</ele>
        <time>2023-08-21T06:26:25Z</time>
      </trkpt>
      <trkpt lat="45.7148" lon="6.48061">
        <ele>564.8</ele>
        <time>2023-08-21T06:26:26Z</time>
      </trkpt>
      <trkpt lat="45.71477" lon="6.48066">
        <ele>564.8</ele>
        <time>2023-08-21T06:26:27Z</time>
      </trkpt>
      <trkpt lat="45.71474" lon="6.4807">
        <ele>564.8</ele>
        <time>2023-08-21T06:26:28Z</time>
      </trkpt>
      <trkpt lat="45.71471" lon="6.48074">
        <ele>565.4</ele>
        <time>2023-08-21T06:26:29Z</time>
      </trkpt>
      <trkpt lat="45.71469" lon="6.48078">
        <ele>565.4</ele>
        <time>2023-08-21T06:26:30Z</time>
      </trkpt>
      <trkpt lat="45.71466" lon="6.48082">
        <ele>565.4</ele>
        <time>2023-08-21T06:26:31Z</time>
      </trkpt>
      <trkpt lat="45.71463" lon="6.48086">
        <ele>565.8</ele>
        <time>2023-08-21T06:26:32Z</time>
      </trkpt>
      <trkpt lat="45.71461" lon="6.4809">
        <ele>566</ele>
        <time>2023-08-21T06:26:33Z</time>
      </trkpt>
      <trkpt lat="45.71458" lon="6.48094">
        <ele>566</ele>
        <time>2023-08-21T06:26:34Z</time>
      </trkpt>
      <trkpt lat="45.71456" lon="6.48098">
        <ele>566</ele>
        <time>2023-08-21T06:26:35Z</time>
      </trkpt>
      <trkpt lat="45.71453" lon="6.48101">
        <ele>566</ele>
        <time>2023-08-21T06:26:36Z</time>
      </trkpt>
      <trkpt lat="45.71451" lon="6.48105">
        <ele>566.4</ele>
        <time>2023-08-21T06:26:37Z</time>
      </trkpt>
      <trkpt lat="45.71449" lon="6.48109">
        <ele>566.4</ele>
        <time>2023-08-21T06:26:38Z</time>
      </trkpt>
      <trkpt lat="45.71447" lon="6.48114">
        <ele>566.8</ele>
        <time>2023-08-21T06:26:39Z</time>
      </trkpt>
      <trkpt lat="45.71445" lon="6.48118">
        <ele>566.8</ele>
        <time>2023-08-21T06:26:40Z</time>
      </trkpt>
      <trkpt lat="45.71443" lon="6.48123">
        <ele>566.8</ele>
        <time>2023-08-21T06:26:41Z</time>
      </trkpt>
      <trkpt lat="45.71441" lon="6.48127">
        <ele>567.2</ele>
        <time>2023-08-21T06:26:42Z</time>
      </trkpt>
      <trkpt lat="45.71439" lon="6.48132">
        <ele>567.2</ele>
        <time>2023-08-21T06:26:43Z</time>
      </trkpt>
      <trkpt lat="45.71438" lon="6.48137">
        <ele>567.4</ele>
        <time>2023-08-21T06:26:44Z</time>
      </trkpt>
      <trkpt lat="45.71437" lon="6.48142">
        <ele>567.4</ele>
        <time>2023-08-21T06:26:45Z</time>
      </trkpt>
      <trkpt lat="45.71436" lon="6.48147">
        <ele>567.8</ele>
        <time>2023-08-21T06:26:46Z</time>
      </trkpt>
      <trkpt lat="45.71436" lon="6.48152">
        <ele>567.8</ele>
        <time>2023-08-21T06:26:47Z</time>
      </trkpt>
      <trkpt lat="45.71435" lon="6.48157">
        <ele>567.8</ele>
        <time>2023-08-21T06:26:48Z</time>
      </trkpt>
      <trkpt lat="45.71435" lon="6.48163">
        <ele>567.8</ele>
        <time>2023-08-21T06:26:49Z</time>
      </trkpt>
      <trkpt lat="45.71435" lon="6.48168">
        <ele>567.8</ele>
        <time>2023-08-21T06:26:50Z</time>
      </trkpt>
      <trkpt lat="45.71436" lon="6.48173">
        <ele>568.4</ele>
        <time>2023-08-21T06:26:51Z</time>
      </trkpt>
      <trkpt lat="45.71438" lon="6.48178">
        <ele>568.4</ele>
        <time>2023-08-21T06:26:52Z</time>
      </trkpt>
      <trkpt lat="45.71439" lon="6.48183">
        <ele>568.4</ele>
        <time>2023-08-21T06:26:53Z</time>
      </trkpt>
      <trkpt lat="45.71441" lon="6.48189">
        <ele>568.4</ele>
        <time>2023-08-21T06:26:54Z</time>
      </trkpt>
      <trkpt lat="45.71442" lon="6.48193">
        <ele>568.4</ele>
        <time>2023-08-21T06:26:55Z</time>
      </trkpt>
      <trkpt lat="45.71444" lon="6.48198">
        <ele>569.2</ele>
        <time>2023-08-21T06:26:56Z</time>
      </trkpt>
      <trkpt lat="45.71446" lon="6.48202">
        <ele>569.2</ele>
        <time>2023-08-21T06:26:57Z</time>
      </trkpt>
      <trkpt lat="45.71449" lon="6.48206">
        <ele>569.2</ele>
        <time>2023-08-21T06:26:58Z</time>
      </trkpt>
      <trkpt lat="45.71451" lon="6.48209">
        <ele>569.8</ele>
        <time>2023-08-21T06:26:59Z</time>
      </trkpt>
      <trkpt lat="45.71454" lon="6.48213">
        <ele>569.8</ele>
        <time>2023-08-21T06:27:00Z</time>
      </trkpt>
      <trkpt lat="45.71456" lon="6.48217">
        <ele>569.8</ele>
        <time>2023-08-21T06:27:01Z</time>
      </trkpt>
      <trkpt lat="45.71459" lon="6.4822">
        <ele>569.8</ele>
        <time>2023-08-21T06:27:02Z</time>
      </trkpt>
      <trkpt lat="45.71461" lon="6.48224">
        <ele>569.8</ele>
        <time>2023-08-21T06:27:03Z</time>
      </trkpt>
      <trkpt lat="45.71464" lon="6.48227">
        <ele>570.4</ele>
        <time>2023-08-21T06:27:04Z</time>
      </trkpt>
      <trkpt lat="45.71466" lon="6.48231">
        <ele>570.6</ele>
        <time>2023-08-21T06:27:05Z</time>
      </trkpt>
      <trkpt lat="45.71469" lon="6.48235">
        <ele>570.6</ele>
        <time>2023-08-21T06:27:06Z</time>
      </trkpt>
      <trkpt lat="45.71471" lon="6.48239">
        <ele>570.6</ele>
        <time>2023-08-21T06:27:07Z</time>
      </trkpt>
      <trkpt lat="45.71474" lon="6.48243">
        <ele>570.8</ele>
        <time>2023-08-21T06:27:08Z</time>
      </trkpt>
      <trkpt lat="45.71476" lon="6.48246">
        <ele>571.2</ele>
        <time>2023-08-21T06:27:09Z</time>
      </trkpt>
      <trkpt lat="45.71479" lon="6.4825">
        <ele>571.2</ele>
        <time>2023-08-21T06:27:10Z</time>
      </trkpt>
      <trkpt lat="45.71482" lon="6.48254">
        <ele>571.2</ele>
        <time>2023-08-21T06:27:11Z</time>
      </trkpt>
      <trkpt lat="45.71485" lon="6.48258">
        <ele>571.2</ele>
        <time>2023-08-21T06:27:12Z</time>
      </trkpt>
      <trkpt lat="45.71487" lon="6.48262">
        <ele>571.6</ele>
        <time>2023-08-21T06:27:13Z</time>
      </trkpt>
      <trkpt lat="45.7149" lon="6.48265">
        <ele>571.8</ele>
        <time>2023-08-21T06:27:14Z</time>
      </trkpt>
      <trkpt lat="45.71492" lon="6.48269">
        <ele>571.8</ele>
        <time>2023-08-21T06:27:15Z</time>
      </trkpt>
      <trkpt lat="45.71494" lon="6.48272">
        <ele>571.8</ele>
        <time>2023-08-21T06:27:16Z</time>
      </trkpt>
      <trkpt lat="45.71497" lon="6.48276">
        <ele>572</ele>
        <time>2023-08-21T06:27:17Z</time>
      </trkpt>
      <trkpt lat="45.71499" lon="6.4828">
        <ele>572.2</ele>
        <time>2023-08-21T06:27:18Z</time>
      </trkpt>
      <trkpt lat="45.71501" lon="6.48283">
        <ele>572.2</ele>
        <time>2023-08-21T06:27:19Z</time>
      </trkpt>
      <trkpt lat="45.71503" lon="6.48287">
        <ele>572.2</ele>
        <time>2023-08-21T06:27:20Z</time>
      </trkpt>
      <trkpt lat="45.71505" lon="6.48291">
        <ele>572.2</ele>
        <time>2023-08-21T06:27:21Z</time>
      </trkpt>
      <trkpt lat="45.71508" lon="6.48294">
        <ele>572.2</ele>
        <time>2023-08-21T06:27:22Z</time>
      </trkpt>
      <trkpt lat="45.7151" lon="6.48297">
        <ele>572.8</ele>
        <time>2023-08-21T06:27:23Z</time>
      </trkpt>
      <trkpt lat="45.71513" lon="6.483">
        <ele>572.8</ele>
        <time>2023-08-21T06:27:24Z</time>
      </trkpt>
      <trkpt lat="45.71516" lon="6.48303">
        <ele>572.8</ele>
        <time>2023-08-21T06:27:25Z</time>
      </trkpt>
      <trkpt lat="45.71518" lon="6.48307">
        <ele>573.4</ele>
        <time>2023-08-21T06:27:26Z</time>
      </trkpt>
      <trkpt lat="45.71522" lon="6.4831">
        <ele>573.4</ele>
        <time>2023-08-21T06:27:27Z</time>
      </trkpt>
      <trkpt lat="45.71524" lon="6.48313">
        <ele>573.4</ele>
        <time>2023-08-21T06:27:28Z</time>
      </trkpt>
      <trkpt lat="45.71527" lon="6.48317">
        <ele>573.4</ele>
        <time>2023-08-21T06:27:29Z</time>
      </trkpt>
      <trkpt lat="45.7153" lon="6.4832">
        <ele>573.4</ele>
        <time>2023-08-21T06:27:30Z</time>
      </trkpt>
      <trkpt lat="45.71532" lon="6.48323">
        <ele>573.8</ele>
        <time>2023-08-21T06:27:31Z</time>
      </trkpt>
      <trkpt lat="45.71535" lon="6.48326">
        <ele>574</ele>
        <time>2023-08-21T06:27:32Z</time>
      </trkpt>
      <trkpt lat="45.71537" lon="6.4833">
        <ele>574</ele>
        <time>2023-08-21T06:27:33Z</time>
      </trkpt>
      <trkpt lat="45.71541" lon="6.48331">
        <ele>574</ele>
        <time>2023-08-21T06:27:34Z</time>
      </trkpt>
      <trkpt lat="45.71544" lon="6.48333">
        <ele>574.4</ele>
        <time>2023-08-21T06:27:35Z</time>
      </trkpt>
      <trkpt lat="45.71547" lon="6.48335">
        <ele>574.4</ele>
        <time>2023-08-21T06:27:36Z</time>
      </trkpt>
      <trkpt lat="45.71551" lon="6.48337">
        <ele>574.6</ele>
        <time>2023-08-21T06:27:37Z</time>
      </trkpt>
      <trkpt lat="45.71555" lon="6.48339">
        <ele>574.6</ele>
        <time>2023-08-21T06:27:38Z</time>
      </trkpt>
      <trkpt lat="45.71559" lon="6.48341">
        <ele>574.6</ele>
        <time>2023-08-21T06:27:39Z</time>
      </trkpt>
      <trkpt lat="45.71562" lon="6.48342">
        <ele>575.2</ele>
        <time>2023-08-21T06:27:40Z</time>
      </trkpt>
      <trkpt lat="45.71566" lon="6.48344">
        <ele>575.2</ele>
        <time>2023-08-21T06:27:41Z</time>
      </trkpt>
      <trkpt lat="45.7157" lon="6.48345">
        <ele>575.2</ele>
        <time>2023-08-21T06:27:42Z</time>
      </trkpt>
      <trkpt lat="45.71574" lon="6.48346">
        <ele>575.2</ele>
        <time>2023-08-21T06:27:43Z</time>
      </trkpt>
      <trkpt lat="45.71577" lon="6.48347">
        <ele>575.2</ele>
        <time>2023-08-21T06:27:44Z</time>
      </trkpt>
      <trkpt lat="45.71582" lon="6.48348">
        <ele>575.6</ele>
        <time>2023-08-21T06:27:45Z</time>
      </trkpt>
      <trkpt lat="45.71586" lon="6.48349">
        <ele>575.6</ele>
        <time>2023-08-21T06:27:46Z</time>
      </trkpt>
      <trkpt lat="45.7159" lon="6.48351">
        <ele>575.6</ele>
        <time>2023-08-21T06:27:47Z</time>
      </trkpt>
      <trkpt lat="45.71594" lon="6.48353">
        <ele>575.6</ele>
        <time>2023-08-21T06:27:48Z</time>
      </trkpt>
      <trkpt lat="45.71598" lon="6.48355">
        <ele>575.6</ele>
        <time>2023-08-21T06:27:49Z</time>
      </trkpt>
      <trkpt lat="45.71603" lon="6.48357">
        <ele>575.6</ele>
        <time>2023-08-21T06:27:50Z</time>
      </trkpt>
      <trkpt lat="45.71607" lon="6.4836">
        <ele>575.6</ele>
        <time>2023-08-21T06:27:51Z</time>
      </trkpt>
      <trkpt lat="45.7161" lon="6.48363">
        <ele>576</ele>
        <time>2023-08-21T06:27:52Z</time>
      </trkpt>
      <trkpt lat="45.71614" lon="6.48366">
        <ele>576</ele>
        <time>2023-08-21T06:27:53Z</time>
      </trkpt>
      <trkpt lat="45.71618" lon="6.48369">
        <ele>576</ele>
        <time>2023-08-21T06:27:54Z</time>
      </trkpt>
      <trkpt lat="45.71621" lon="6.48372">
        <ele>576</ele>
        <time>2023-08-21T06:27:55Z</time>
      </trkpt>
      <trkpt lat="45.71625" lon="6.48376">
        <ele>576</ele>
        <time>2023-08-21T06:27:56Z</time>
      </trkpt>
      <trkpt lat="45.71628" lon="6.4838">
        <ele>576.4</ele>
        <time>2023-08-21T06:27:57Z</time>
      </trkpt>
      <trkpt lat="45.7163" lon="6.48383">
        <ele>576.6</ele>
        <time>2023-08-21T06:27:58Z</time>
      </trkpt>
      <trkpt lat="45.71633" lon="6.48387">
        <ele>576.6</ele>
        <time>2023-08-21T06:27:59Z</time>
      </trkpt>
      <trkpt lat="45.71636" lon="6.48391">
        <ele>576.6</ele>
        <time>2023-08-21T06:28:00Z</time>
      </trkpt>
      <trkpt lat="45.71638" lon="6.48395">
        <ele>577.4</ele>
        <time>2023-08-21T06:28:01Z</time>
      </trkpt>
      <trkpt lat="45.71641" lon="6.48399">
        <ele>577.4</ele>
        <time>2023-08-21T06:28:02Z</time>
      </trkpt>
      <trkpt lat="45.71644" lon="6.48403">
        <ele>577.4</ele>
        <time>2023-08-21T06:28:03Z</time>
      </trkpt>
      <trkpt lat="45.71646" lon="6.48407">
        <ele>577.4</ele>
        <time>2023-08-21T06:28:04Z</time>
      </trkpt>
      <trkpt lat="45.71649" lon="6.48411">
        <ele>577.4</ele>
        <time>2023-08-21T06:28:05Z</time>
      </trkpt>
      <trkpt lat="45.71652" lon="6.48416">
        <ele>577.4</ele>
        <time>2023-08-21T06:28:06Z</time>
      </trkpt>
      <trkpt lat="45.71654" lon="6.48421">
        <ele>577.4</ele>
        <time>2023-08-21T06:28:07Z</time>
      </trkpt>
      <trkpt lat="45.71656" lon="6.48426">
        <ele>577.6</ele>
        <time>2023-08-21T06:28:08Z</time>
      </trkpt>
      <trkpt lat="45.71657" lon="6.48431">
        <ele>577.6</ele>
        <time>2023-08-21T06:28:09Z</time>
      </trkpt>
      <trkpt lat="45.71659" lon="6.48436">
        <ele>577.6</ele>
        <time>2023-08-21T06:28:10Z</time>
      </trkpt>
      <trkpt lat="45.71661" lon="6.48441">
        <ele>577.6</ele>
        <time>2023-08-21T06:28:11Z</time>
      </trkpt>
      <trkpt lat="45.71662" lon="6.48446">
        <ele>578</ele>
        <time>2023-08-21T06:28:12Z</time>
      </trkpt>
      <trkpt lat="45.71664" lon="6.48451">
        <ele>578</ele>
        <time>2023-08-21T06:28:13Z</time>
      </trkpt>
      <trkpt lat="45.71665" lon="6.48456">
        <ele>578</ele>
        <time>2023-08-21T06:28:14Z</time>
      </trkpt>
      <trkpt lat="45.71666" lon="6.48461">
        <ele>578.4</ele>
        <time>2023-08-21T06:28:15Z</time>
      </trkpt>
      <trkpt lat="45.71667" lon="6.48467">
        <ele>578.4</ele>
        <time>2023-08-21T06:28:16Z</time>
      </trkpt>
      <trkpt lat="45.71668" lon="6.48472">
        <ele>578.4</ele>
        <time>2023-08-21T06:28:17Z</time>
      </trkpt>
      <trkpt lat="45.71669" lon="6.48478">
        <ele>578.4</ele>
        <time>2023-08-21T06:28:18Z</time>
      </trkpt>
      <trkpt lat="45.7167" lon="6.48483">
        <ele>578.4</ele>
        <time>2023-08-21T06:28:19Z</time>
      </trkpt>
      <trkpt lat="45.71671" lon="6.48488">
        <ele>578.8</ele>
        <time>2023-08-21T06:28:20Z</time>
      </trkpt>
      <trkpt lat="45.71671" lon="6.48494">
        <ele>579.2</ele>
        <time>2023-08-21T06:28:21Z</time>
      </trkpt>
      <trkpt lat="45.71672" lon="6.48499">
        <ele>579.2</ele>
        <time>2023-08-21T06:28:22Z</time>
      </trkpt>
      <trkpt lat="45.71673" lon="6.48504">
        <ele>579.2</ele>
        <time>2023-08-21T06:28:23Z</time>
      </trkpt>
      <trkpt lat="45.71675" lon="6.48509">
        <ele>579.6</ele>
        <time>2023-08-21T06:28:24Z</time>
      </trkpt>
      <trkpt lat="45.71676" lon="6.48514">
        <ele>579.8</ele>
        <time>2023-08-21T06:28:25Z</time>
      </trkpt>
      <trkpt lat="45.71677" lon="6.48518">
        <ele>579.8</ele>
        <time>2023-08-21T06:28:26Z</time>
      </trkpt>
      <trkpt lat="45.71678" lon="6.48523">
        <ele>579.8</ele>
        <time>2023-08-21T06:28:27Z</time>
      </trkpt>
      <trkpt lat="45.71679" lon="6.48528">
        <ele>579.8</ele>
        <time>2023-08-21T06:28:28Z</time>
      </trkpt>
      <trkpt lat="45.7168" lon="6.48533">
        <ele>580</ele>
        <time>2023-08-21T06:28:29Z</time>
      </trkpt>
      <trkpt lat="45.7168" lon="6.48538">
        <ele>580.2</ele>
        <time>2023-08-21T06:28:30Z</time>
      </trkpt>
      <trkpt lat="45.71681" lon="6.48543">
        <ele>580.2</ele>
        <time>2023-08-21T06:28:31Z</time>
      </trkpt>
      <trkpt lat="45.71682" lon="6.48548">
        <ele>580.2</ele>
        <time>2023-08-21T06:28:32Z</time>
      </trkpt>
      <trkpt lat="45.71683" lon="6.48553">
        <ele>580.6</ele>
        <time>2023-08-21T06:28:33Z</time>
      </trkpt>
      <trkpt lat="45.71684" lon="6.48558">
        <ele>580.8</ele>
        <time>2023-08-21T06:28:34Z</time>
      </trkpt>
      <trkpt lat="45.71685" lon="6.48562">
        <ele>580.8</ele>
        <time>2023-08-21T06:28:35Z</time>
      </trkpt>
      <trkpt lat="45.71686" lon="6.48567">
        <ele>580.8</ele>
        <time>2023-08-21T06:28:36Z</time>
      </trkpt>
      <trkpt lat="45.71687" lon="6.48572">
        <ele>580.8</ele>
        <time>2023-08-21T06:28:37Z</time>
      </trkpt>
      <trkpt lat="45.71688" lon="6.48576">
        <ele>581.2</ele>
        <time>2023-08-21T06:28:38Z</time>
      </trkpt>
      <trkpt lat="45.71689" lon="6.48581">
        <ele>581.4</ele>
        <time>2023-08-21T06:28:39Z</time>
      </trkpt>
      <trkpt lat="45.7169" lon="6.48586">
        <ele>581.4</ele>
        <time>2023-08-21T06:28:40Z</time>
      </trkpt>
      <trkpt lat="45.71691" lon="6.48591">
        <ele>581.4</ele>
        <time>2023-08-21T06:28:41Z</time>
      </trkpt>
      <trkpt lat="45.71691" lon="6.48595">
        <ele>581.8</ele>
        <time>2023-08-21T06:28:42Z</time>
      </trkpt>
      <trkpt lat="45.71692" lon="6.486">
        <ele>582.2</ele>
        <time>2023-08-21T06:28:43Z</time>
      </trkpt>
      <trkpt lat="45.71693" lon="6.48605">
        <ele>582.2</ele>
        <time>2023-08-21T06:28:44Z</time>
      </trkpt>
      <trkpt lat="45.71694" lon="6.48609">
        <ele>582.2</ele>
        <time>2023-08-21T06:28:45Z</time>
      </trkpt>
      <trkpt lat="45.71695" lon="6.48613">
        <ele>582.2</ele>
        <time>2023-08-21T06:28:46Z</time>
      </trkpt>
      <trkpt lat="45.71696" lon="6.48618">
        <ele>582.8</ele>
        <time>2023-08-21T06:28:47Z</time>
      </trkpt>
      <trkpt lat="45.71696" lon="6.48623">
        <ele>583.2</ele>
        <time>2023-08-21T06:28:48Z</time>
      </trkpt>
      <trkpt lat="45.71697" lon="6.48627">
        <ele>583.2</ele>
        <time>2023-08-21T06:28:49Z</time>
      </trkpt>
      <trkpt lat="45.71697" lon="6.48632">
        <ele>583.2</ele>
        <time>2023-08-21T06:28:50Z</time>
      </trkpt>
      <trkpt lat="45.71697" lon="6.48636">
        <ele>583.2</ele>
        <time>2023-08-21T06:28:51Z</time>
      </trkpt>
      <trkpt lat="45.71697" lon="6.48641">
        <ele>583.2</ele>
        <time>2023-08-21T06:28:52Z</time>
      </trkpt>
      <trkpt lat="45.71697" lon="6.48646">
        <ele>583.8</ele>
        <time>2023-08-21T06:28:53Z</time>
      </trkpt>
      <trkpt lat="45.71697" lon="6.4865">
        <ele>583.8</ele>
        <time>2023-08-21T06:28:54Z</time>
      </trkpt>
      <trkpt lat="45.71697" lon="6.48655">
        <ele>583.8</ele>
        <time>2023-08-21T06:28:55Z</time>
      </trkpt>
      <trkpt lat="45.71697" lon="6.48659">
        <ele>584.6</ele>
        <time>2023-08-21T06:28:56Z</time>
      </trkpt>
      <trkpt lat="45.71697" lon="6.48663">
        <ele>584.6</ele>
        <time>2023-08-21T06:28:57Z</time>
      </trkpt>
      <trkpt lat="45.71698" lon="6.48668">
        <ele>585</ele>
        <time>2023-08-21T06:28:58Z</time>
      </trkpt>
      <trkpt lat="45.71698" lon="6.48672">
        <ele>585</ele>
        <time>2023-08-21T06:28:59Z</time>
      </trkpt>
      <trkpt lat="45.71698" lon="6.48676">
        <ele>585</ele>
        <time>2023-08-21T06:29:00Z</time>
      </trkpt>
      <trkpt lat="45.71699" lon="6.4868">
        <ele>585.2</ele>
        <time>2023-08-21T06:29:01Z</time>
      </trkpt>
      <trkpt lat="45.71699" lon="6.48684">
        <ele>585.2</ele>
        <time>2023-08-21T06:29:02Z</time>
      </trkpt>
      <trkpt lat="45.717" lon="6.48688">
        <ele>585.2</ele>
        <time>2023-08-21T06:29:03Z</time>
      </trkpt>
      <trkpt lat="45.71702" lon="6.48692">
        <ele>585.2</ele>
        <time>2023-08-21T06:29:04Z</time>
      </trkpt>
      <trkpt lat="45.71703" lon="6.48696">
        <ele>585.2</ele>
        <time>2023-08-21T06:29:05Z</time>
      </trkpt>
      <trkpt lat="45.71704" lon="6.48701">
        <ele>585.2</ele>
        <time>2023-08-21T06:29:06Z</time>
      </trkpt>
      <trkpt lat="45.71706" lon="6.48704">
        <ele>586</ele>
        <time>2023-08-21T06:29:07Z</time>
      </trkpt>
      <trkpt lat="45.71708" lon="6.48708">
        <ele>586</ele>
        <time>2023-08-21T06:29:08Z</time>
      </trkpt>
      <trkpt lat="45.7171" lon="6.48712">
        <ele>586.4</ele>
        <time>2023-08-21T06:29:09Z</time>
      </trkpt>
      <trkpt lat="45.71711" lon="6.48716">
        <ele>586.6</ele>
        <time>2023-08-21T06:29:10Z</time>
      </trkpt>
      <trkpt lat="45.71713" lon="6.4872">
        <ele>586.6</ele>
        <time>2023-08-21T06:29:11Z</time>
      </trkpt>
      <trkpt lat="45.71714" lon="6.48724">
        <ele>586.6</ele>
        <time>2023-08-21T06:29:12Z</time>
      </trkpt>
      <trkpt lat="45.71715" lon="6.48728">
        <ele>587.2</ele>
        <time>2023-08-21T06:29:13Z</time>
      </trkpt>
      <trkpt lat="45.71717" lon="6.48732">
        <ele>587.2</ele>
        <time>2023-08-21T06:29:14Z</time>
      </trkpt>
      <trkpt lat="45.71719" lon="6.48735">
        <ele>587.2</ele>
        <time>2023-08-21T06:29:15Z</time>
      </trkpt>
      <trkpt lat="45.71721" lon="6.48739">
        <ele>587.2</ele>
        <time>2023-08-21T06:29:16Z</time>
      </trkpt>
      <trkpt lat="45.71723" lon="6.48743">
        <ele>587.2</ele>
        <time>2023-08-21T06:29:17Z</time>
      </trkpt>
      <trkpt lat="45.71725" lon="6.48746">
        <ele>587.2</ele>
        <time>2023-08-21T06:29:18Z</time>
      </trkpt>
      <trkpt lat="45.71727" lon="6.4875">
        <ele>588.2</ele>
        <time>2023-08-21T06:29:19Z</time>
      </trkpt>
      <trkpt lat="45.71728" lon="6.48754">
        <ele>588.2</ele>
        <time>2023-08-21T06:29:20Z</time>
      </trkpt>
      <trkpt lat="45.7173" lon="6.48758">
        <ele>588.2</ele>
        <time>2023-08-21T06:29:21Z</time>
      </trkpt>
      <trkpt lat="45.71731" lon="6.48761">
        <ele>588.8</ele>
        <time>2023-08-21T06:29:22Z</time>
      </trkpt>
      <trkpt lat="45.71733" lon="6.48765">
        <ele>588.8</ele>
        <time>2023-08-21T06:29:23Z</time>
      </trkpt>
      <trkpt lat="45.71735" lon="6.48768">
        <ele>589.2</ele>
        <time>2023-08-21T06:29:24Z</time>
      </trkpt>
      <trkpt lat="45.71736" lon="6.48772">
        <ele>589.2</ele>
        <time>2023-08-21T06:29:25Z</time>
      </trkpt>
      <trkpt lat="45.71737" lon="6.48776">
        <ele>589.2</ele>
        <time>2023-08-21T06:29:26Z</time>
      </trkpt>
      <trkpt lat="45.71737" lon="6.4878">
        <ele>589.8</ele>
        <time>2023-08-21T06:29:27Z</time>
      </trkpt>
      <trkpt lat="45.71737" lon="6.48784">
        <ele>589.8</ele>
        <time>2023-08-21T06:29:28Z</time>
      </trkpt>
      <trkpt lat="45.71737" lon="6.48788">
        <ele>589.8</ele>
        <time>2023-08-21T06:29:29Z</time>
      </trkpt>
      <trkpt lat="45.71737" lon="6.48793">
        <ele>589.8</ele>
        <time>2023-08-21T06:29:30Z</time>
      </trkpt>
      <trkpt lat="45.71737" lon="6.48797">
        <ele>589.8</ele>
        <time>2023-08-21T06:29:31Z</time>
      </trkpt>
      <trkpt lat="45.71736" lon="6.48802">
        <ele>590.4</ele>
        <time>2023-08-21T06:29:32Z</time>
      </trkpt>
      <trkpt lat="45.71736" lon="6.48806">
        <ele>590.4</ele>
        <time>2023-08-21T06:29:33Z</time>
      </trkpt>
      <trkpt lat="45.71736" lon="6.4881">
        <ele>590.4</ele>
        <time>2023-08-21T06:29:34Z</time>
      </trkpt>
      <trkpt lat="45.71735" lon="6.48814">
        <ele>590.4</ele>
        <time>2023-08-21T06:29:35Z</time>
      </trkpt>
      <trkpt lat="45.71735" lon="6.48819">
        <ele>591</ele>
        <time>2023-08-21T06:29:36Z</time>
      </trkpt>
      <trkpt lat="45.71735" lon="6.48823">
        <ele>591</ele>
        <time>2023-08-21T06:29:37Z</time>
      </trkpt>
      <trkpt lat="45.71735" lon="6.48827">
        <ele>591.2</ele>
        <time>2023-08-21T06:29:38Z</time>
      </trkpt>
      <trkpt lat="45.71734" lon="6.48832">
        <ele>591.2</ele>
        <time>2023-08-21T06:29:39Z</time>
      </trkpt>
      <trkpt lat="45.71734" lon="6.48836">
        <ele>591.2</ele>
        <time>2023-08-21T06:29:40Z</time>
      </trkpt>
      <trkpt lat="45.71734" lon="6.48841">
        <ele>592</ele>
        <time>2023-08-21T06:29:41Z</time>
      </trkpt>
      <trkpt lat="45.71733" lon="6.48845">
        <ele>592</ele>
        <time>2023-08-21T06:29:42Z</time>
      </trkpt>
      <trkpt lat="45.71733" lon="6.48849">
        <ele>592</ele>
        <time>2023-08-21T06:29:43Z</time>
      </trkpt>
      <trkpt lat="45.71733" lon="6.48854">
        <ele>592</ele>
        <time>2023-08-21T06:29:44Z</time>
      </trkpt>
      <trkpt lat="45.71733" lon="6.48858">
        <ele>592</ele>
        <time>2023-08-21T06:29:45Z</time>
      </trkpt>
      <trkpt lat="45.71732" lon="6.48862">
        <ele>592.6</ele>
        <time>2023-08-21T06:29:46Z</time>
      </trkpt>
      <trkpt lat="45.71732" lon="6.48866">
        <ele>592.6</ele>
        <time>2023-08-21T06:29:47Z</time>
      </trkpt>
      <trkpt lat="45.71732" lon="6.48871">
        <ele>592.6</ele>
        <time>2023-08-21T06:29:48Z</time>
      </trkpt>
      <trkpt lat="45.71731" lon="6.48875">
        <ele>593.4</ele>
        <time>2023-08-21T06:29:49Z</time>
      </trkpt>
      <trkpt lat="45.71731" lon="6.48879">
        <ele>593.4</ele>
        <time>2023-08-21T06:29:50Z</time>
      </trkpt>
      <trkpt lat="45.71731" lon="6.48884">
        <ele>593.8</ele>
        <time>2023-08-21T06:29:51Z</time>
      </trkpt>
      <trkpt lat="45.71731" lon="6.48888">
        <ele>593.8</ele>
        <time>2023-08-21T06:29:52Z</time>
      </trkpt>
      <trkpt lat="45.7173" lon="6.48892">
        <ele>593.8</ele>
        <time>2023-08-21T06:29:53Z</time>
      </trkpt>
      <trkpt lat="45.7173" lon="6.48897">
        <ele>594</ele>
        <time>2023-08-21T06:29:54Z</time>
      </trkpt>
      <trkpt lat="45.71729" lon="6.48901">
        <ele>594.4</ele>
        <time>2023-08-21T06:29:55Z</time>
      </trkpt>
      <trkpt lat="45.71729" lon="6.48905">
        <ele>594.4</ele>
        <time>2023-08-21T06:29:56Z</time>
      </trkpt>
      <trkpt lat="45.71728" lon="6.48909">
        <ele>594.4</ele>
        <time>2023-08-21T06:29:57Z</time>
      </trkpt>
      <trkpt lat="45.71728" lon="6.48913">
        <ele>595</ele>
        <time>2023-08-21T06:29:58Z</time>
      </trkpt>
      <trkpt lat="45.71727" lon="6.48917">
        <ele>595.2</ele>
        <time>2023-08-21T06:29:59Z</time>
      </trkpt>
      <trkpt lat="45.71726" lon="6.48921">
        <ele>595.2</ele>
        <time>2023-08-21T06:30:00Z</time>
      </trkpt>
      <trkpt lat="45.71725" lon="6.48925">
        <ele>595.2</ele>
        <time>2023-08-21T06:30:01Z</time>
      </trkpt>
      <trkpt lat="45.71723" lon="6.4893">
        <ele>595.2</ele>
        <time>2023-08-21T06:30:02Z</time>
      </trkpt>
      <trkpt lat="45.71723" lon="6.48933">
        <ele>596.2</ele>
        <time>2023-08-21T06:30:03Z</time>
      </trkpt>
      <trkpt lat="45.71722" lon="6.48937">
        <ele>596.6</ele>
        <time>2023-08-21T06:30:04Z</time>
      </trkpt>
      <trkpt lat="45.71721" lon="6.48941">
        <ele>596.6</ele>
        <time>2023-08-21T06:30:05Z</time>
      </trkpt>
      <trkpt lat="45.71721" lon="6.48944">
        <ele>596.6</ele>
        <time>2023-08-21T06:30:06Z</time>
      </trkpt>
      <trkpt lat="45.7172" lon="6.48947">
        <ele>597</ele>
        <time>2023-08-21T06:30:07Z</time>
      </trkpt>
      <trkpt lat="45.71719" lon="6.48951">
        <ele>597.2</ele>
        <time>2023-08-21T06:30:08Z</time>
      </trkpt>
      <trkpt lat="45.71718" lon="6.48954">
        <ele>597.2</ele>
        <time>2023-08-21T06:30:09Z</time>
      </trkpt>
      <trkpt lat="45.71717" lon="6.48957">
        <ele>597.2</ele>
        <time>2023-08-21T06:30:10Z</time>
      </trkpt>
      <trkpt lat="45.71716" lon="6.4896">
        <ele>598</ele>
        <time>2023-08-21T06:30:11Z</time>
      </trkpt>
      <trkpt lat="45.71714" lon="6.48964">
        <ele>598</ele>
        <time>2023-08-21T06:30:12Z</time>
      </trkpt>
      <trkpt lat="45.71713" lon="6.48967">
        <ele>598.2</ele>
        <time>2023-08-21T06:30:13Z</time>
      </trkpt>
      <trkpt lat="45.71712" lon="6.4897">
        <ele>598.2</ele>
        <time>2023-08-21T06:30:14Z</time>
      </trkpt>
      <trkpt lat="45.71712" lon="6.48973">
        <ele>598.2</ele>
        <time>2023-08-21T06:30:15Z</time>
      </trkpt>
      <trkpt lat="45.71711" lon="6.48976">
        <ele>598.2</ele>
        <time>2023-08-21T06:30:16Z</time>
      </trkpt>
      <trkpt lat="45.7171" lon="6.48979">
        <ele>598.8</ele>
        <time>2023-08-21T06:30:17Z</time>
      </trkpt>
      <trkpt lat="45.71709" lon="6.48982">
        <ele>599</ele>
        <time>2023-08-21T06:30:18Z</time>
      </trkpt>
      <trkpt lat="45.71708" lon="6.48985">
        <ele>599</ele>
        <time>2023-08-21T06:30:19Z</time>
      </trkpt>
      <trkpt lat="45.71707" lon="6.48988">
        <ele>599</ele>
        <time>2023-08-21T06:30:20Z</time>
      </trkpt>
      <trkpt lat="45.71706" lon="6.4899">
        <ele>599.8</ele>
        <time>2023-08-21T06:30:21Z</time>
      </trkpt>
      <trkpt lat="45.71705" lon="6.48993">
        <ele>600</ele>
        <time>2023-08-21T06:30:22Z</time>
      </trkpt>
      <trkpt lat="45.71705" lon="6.48996">
        <ele>600</ele>
        <time>2023-08-21T06:30:23Z</time>
      </trkpt>
      <trkpt lat="45.71704" lon="6.48999">
        <ele>600</ele>
        <time>2023-08-21T06:30:24Z</time>
      </trkpt>
      <trkpt lat="45.71703" lon="6.49001">
        <ele>600.4</ele>
        <time>2023-08-21T06:30:25Z</time>
      </trkpt>
      <trkpt lat="45.71702" lon="6.49004">
        <ele>600.8</ele>
        <time>2023-08-21T06:30:26Z</time>
      </trkpt>
      <trkpt lat="45.71701" lon="6.49007">
        <ele>600.8</ele>
        <time>2023-08-21T06:30:27Z</time>
      </trkpt>
      <trkpt lat="45.71701" lon="6.4901">
        <ele>600.8</ele>
        <time>2023-08-21T06:30:28Z</time>
      </trkpt>
      <trkpt lat="45.717" lon="6.49013">
        <ele>600.8</ele>
        <time>2023-08-21T06:30:29Z</time>
      </trkpt>
      <trkpt lat="45.717" lon="6.49016">
        <ele>601.4</ele>
        <time>2023-08-21T06:30:30Z</time>
      </trkpt>
      <trkpt lat="45.717" lon="6.49019">
        <ele>601.4</ele>
        <time>2023-08-21T06:30:31Z</time>
      </trkpt>
      <trkpt lat="45.71699" lon="6.49023">
        <ele>601.4</ele>
        <time>2023-08-21T06:30:32Z</time>
      </trkpt>
      <trkpt lat="45.71699" lon="6.49026">
        <ele>601.4</ele>
        <time>2023-08-21T06:30:33Z</time>
      </trkpt>
      <trkpt lat="45.71699" lon="6.4903">
        <ele>602.2</ele>
        <time>2023-08-21T06:30:34Z</time>
      </trkpt>
      <trkpt lat="45.71699" lon="6.49033">
        <ele>602.2</ele>
        <time>2023-08-21T06:30:35Z</time>
      </trkpt>
      <trkpt lat="45.71699" lon="6.49036">
        <ele>602.2</ele>
        <time>2023-08-21T06:30:36Z</time>
      </trkpt>
      <trkpt lat="45.71699" lon="6.49039">
        <ele>602.2</ele>
        <time>2023-08-21T06:30:37Z</time>
      </trkpt>
      <trkpt lat="45.717" lon="6.49043">
        <ele>603</ele>
        <time>2023-08-21T06:30:38Z</time>
      </trkpt>
      <trkpt lat="45.71701" lon="6.49046">
        <ele>603</ele>
        <time>2023-08-21T06:30:39Z</time>
      </trkpt>
      <trkpt lat="45.71701" lon="6.4905">
        <ele>603</ele>
        <time>2023-08-21T06:30:40Z</time>
      </trkpt>
      <trkpt lat="45.71702" lon="6.49054">
        <ele>603</ele>
        <time>2023-08-21T06:30:41Z</time>
      </trkpt>
      <trkpt lat="45.71702" lon="6.49057">
        <ele>603.8</ele>
        <time>2023-08-21T06:30:42Z</time>
      </trkpt>
      <trkpt lat="45.71703" lon="6.49061">
        <ele>603.8</ele>
        <time>2023-08-21T06:30:43Z</time>
      </trkpt>
      <trkpt lat="45.71704" lon="6.49064">
        <ele>603.8</ele>
        <time>2023-08-21T06:30:44Z</time>
      </trkpt>
      <trkpt lat="45.71705" lon="6.49068">
        <ele>603.8</ele>
        <time>2023-08-21T06:30:45Z</time>
      </trkpt>
      <trkpt lat="45.71706" lon="6.49072">
        <ele>603.8</ele>
        <time>2023-08-21T06:30:46Z</time>
      </trkpt>
      <trkpt lat="45.71707" lon="6.49076">
        <ele>604.6</ele>
        <time>2023-08-21T06:30:47Z</time>
      </trkpt>
      <trkpt lat="45.71708" lon="6.49079">
        <ele>604.6</ele>
        <time>2023-08-21T06:30:48Z</time>
      </trkpt>
      <trkpt lat="45.71709" lon="6.49083">
        <ele>604.6</ele>
        <time>2023-08-21T06:30:49Z</time>
      </trkpt>
      <trkpt lat="45.7171" lon="6.49086">
        <ele>604.6</ele>
        <time>2023-08-21T06:30:50Z</time>
      </trkpt>
      <trkpt lat="45.7171" lon="6.4909">
        <ele>605.4</ele>
        <time>2023-08-21T06:30:51Z</time>
      </trkpt>
      <trkpt lat="45.71711" lon="6.49093">
        <ele>605.4</ele>
        <time>2023-08-21T06:30:52Z</time>
      </trkpt>
      <trkpt lat="45.71712" lon="6.49096">
        <ele>605.4</ele>
        <time>2023-08-21T06:30:53Z</time>
      </trkpt>
      <trkpt lat="45.71713" lon="6.491">
        <ele>605.4</ele>
        <time>2023-08-21T06:30:54Z</time>
      </trkpt>
      <trkpt lat="45.71714" lon="6.49104">
        <ele>605.4</ele>
        <time>2023-08-21T06:30:55Z</time>
      </trkpt>
      <trkpt lat="45.71714" lon="6.49107">
        <ele>606.2</ele>
        <time>2023-08-21T06:30:56Z</time>
      </trkpt>
      <trkpt lat="45.71715" lon="6.49111">
        <ele>606.2</ele>
        <time>2023-08-21T06:30:57Z</time>
      </trkpt>
      <trkpt lat="45.71716" lon="6.49114">
        <ele>606.4</ele>
        <time>2023-08-21T06:30:58Z</time>
      </trkpt>
      <trkpt lat="45.71717" lon="6.49118">
        <ele>606.4</ele>
        <time>2023-08-21T06:30:59Z</time>
      </trkpt>
      <trkpt lat="45.71718" lon="6.49121">
        <ele>606.4</ele>
        <time>2023-08-21T06:31:00Z</time>
      </trkpt>
      <trkpt lat="45.71718" lon="6.49125">
        <ele>607.2</ele>
        <time>2023-08-21T06:31:01Z</time>
      </trkpt>
      <trkpt lat="45.71719" lon="6.49128">
        <ele>607.4</ele>
        <time>2023-08-21T06:31:02Z</time>
      </trkpt>
      <trkpt lat="45.71721" lon="6.49131">
        <ele>607.4</ele>
        <time>2023-08-21T06:31:03Z</time>
      </trkpt>
      <trkpt lat="45.71722" lon="6.49134">
        <ele>607.4</ele>
        <time>2023-08-21T06:31:04Z</time>
      </trkpt>
      <trkpt lat="45.71723" lon="6.49138">
        <ele>608</ele>
        <time>2023-08-21T06:31:05Z</time>
      </trkpt>
      <trkpt lat="45.71724" lon="6.49141">
        <ele>608.2</ele>
        <time>2023-08-21T06:31:06Z</time>
      </trkpt>
      <trkpt lat="45.71725" lon="6.49144">
        <ele>608.2</ele>
        <time>2023-08-21T06:31:07Z</time>
      </trkpt>
      <trkpt lat="45.71727" lon="6.49147">
        <ele>608.2</ele>
        <time>2023-08-21T06:31:08Z</time>
      </trkpt>
      <trkpt lat="45.71728" lon="6.4915">
        <ele>608.2</ele>
        <time>2023-08-21T06:31:09Z</time>
      </trkpt>
      <trkpt lat="45.7173" lon="6.49153">
        <ele>609</ele>
        <time>2023-08-21T06:31:10Z</time>
      </trkpt>
      <trkpt lat="45.71731" lon="6.49156">
        <ele>609.2</ele>
        <time>2023-08-21T06:31:11Z</time>
      </trkpt>
      <trkpt lat="45.71733" lon="6.49159">
        <ele>609.2</ele>
        <time>2023-08-21T06:31:12Z</time>
      </trkpt>
      <trkpt lat="45.71735" lon="6.49162">
        <ele>609.2</ele>
        <time>2023-08-21T06:31:13Z</time>
      </trkpt>
      <trkpt lat="45.71737" lon="6.49165">
        <ele>609.2</ele>
        <time>2023-08-21T06:31:14Z</time>
      </trkpt>
      <trkpt lat="45.71739" lon="6.49168">
        <ele>609.8</ele>
        <time>2023-08-21T06:31:15Z</time>
      </trkpt>
      <trkpt lat="45.7174" lon="6.49171">
        <ele>609.8</ele>
        <time>2023-08-21T06:31:16Z</time>
      </trkpt>
      <trkpt lat="45.71742" lon="6.49174">
        <ele>609.8</ele>
        <time>2023-08-21T06:31:17Z</time>
      </trkpt>
      <trkpt lat="45.71743" lon="6.49177">
        <ele>609.8</ele>
        <time>2023-08-21T06:31:18Z</time>
      </trkpt>
      <trkpt lat="45.71745" lon="6.4918">
        <ele>610.8</ele>
        <time>2023-08-21T06:31:19Z</time>
      </trkpt>
      <trkpt lat="45.71746" lon="6.49183">
        <ele>610.8</ele>
        <time>2023-08-21T06:31:20Z</time>
      </trkpt>
      <trkpt lat="45.71748" lon="6.49186">
        <ele>610.8</ele>
        <time>2023-08-21T06:31:21Z</time>
      </trkpt>
      <trkpt lat="45.71749" lon="6.49189">
        <ele>610.8</ele>
        <time>2023-08-21T06:31:22Z</time>
      </trkpt>
      <trkpt lat="45.7175" lon="6.49192">
        <ele>611.6</ele>
        <time>2023-08-21T06:31:23Z</time>
      </trkpt>
      <trkpt lat="45.71752" lon="6.49194">
        <ele>611.6</ele>
        <time>2023-08-21T06:31:24Z</time>
      </trkpt>
      <trkpt lat="45.71754" lon="6.49197">
        <ele>611.6</ele>
        <time>2023-08-21T06:31:25Z</time>
      </trkpt>
      <trkpt lat="45.71755" lon="6.492">
        <ele>611.6</ele>
        <time>2023-08-21T06:31:26Z</time>
      </trkpt>
      <trkpt lat="45.71757" lon="6.49203">
        <ele>611.6</ele>
        <time>2023-08-21T06:31:27Z</time>
      </trkpt>
      <trkpt lat="45.71759" lon="6.49206">
        <ele>612.4</ele>
        <time>2023-08-21T06:31:28Z</time>
      </trkpt>
      <trkpt lat="45.7176" lon="6.49209">
        <ele>612.4</ele>
        <time>2023-08-21T06:31:29Z</time>
      </trkpt>
      <trkpt lat="45.71761" lon="6.49212">
        <ele>612.4</ele>
        <time>2023-08-21T06:31:30Z</time>
      </trkpt>
      <trkpt lat="45.71763" lon="6.49214">
        <ele>612.4</ele>
        <time>2023-08-21T06:31:31Z</time>
      </trkpt>
      <trkpt lat="45.71765" lon="6.49217">
        <ele>612.8</ele>
        <time>2023-08-21T06:31:32Z</time>
      </trkpt>
      <trkpt lat="45.71767" lon="6.49219">
        <ele>612.8</ele>
        <time>2023-08-21T06:31:33Z</time>
      </trkpt>
      <trkpt lat="45.71768" lon="6.49222">
        <ele>612.8</ele>
        <time>2023-08-21T06:31:34Z</time>
      </trkpt>
      <trkpt lat="45.7177" lon="6.49225">
        <ele>613.2</ele>
        <time>2023-08-21T06:31:35Z</time>
      </trkpt>
      <trkpt lat="45.7177" lon="6.49228">
        <ele>613.2</ele>
        <time>2023-08-21T06:31:36Z</time>
      </trkpt>
      <trkpt lat="45.71772" lon="6.49231">
        <ele>613.6</ele>
        <time>2023-08-21T06:31:37Z</time>
      </trkpt>
      <trkpt lat="45.71774" lon="6.49234">
        <ele>613.6</ele>
        <time>2023-08-21T06:31:38Z</time>
      </trkpt>
      <trkpt lat="45.71775" lon="6.49237">
        <ele>613.6</ele>
        <time>2023-08-21T06:31:39Z</time>
      </trkpt>
      <trkpt lat="45.71776" lon="6.4924">
        <ele>613.6</ele>
        <time>2023-08-21T06:31:40Z</time>
      </trkpt>
      <trkpt lat="45.71777" lon="6.49244">
        <ele>614.2</ele>
        <time>2023-08-21T06:31:41Z</time>
      </trkpt>
      <trkpt lat="45.71777" lon="6.49247">
        <ele>614.4</ele>
        <time>2023-08-21T06:31:42Z</time>
      </trkpt>
      <trkpt lat="45.71778" lon="6.49251">
        <ele>614.4</ele>
        <time>2023-08-21T06:31:43Z</time>
      </trkpt>
      <trkpt lat="45.71778" lon="6.49254">
        <ele>614.4</ele>
        <time>2023-08-21T06:31:44Z</time>
      </trkpt>
      <trkpt lat="45.71778" lon="6.49258">
        <ele>615</ele>
        <time>2023-08-21T06:31:45Z</time>
      </trkpt>
      <trkpt lat="45.71778" lon="6.49261">
        <ele>615.4</ele>
        <time>2023-08-21T06:31:46Z</time>
      </trkpt>
      <trkpt lat="45.71777" lon="6.49265">
        <ele>615.4</ele>
        <time>2023-08-21T06:31:47Z</time>
      </trkpt>
      <trkpt lat="45.71777" lon="6.49269">
        <ele>615.4</ele>
        <time>2023-08-21T06:31:48Z</time>
      </trkpt>
      <trkpt lat="45.71776" lon="6.49272">
        <ele>615.4</ele>
        <time>2023-08-21T06:31:49Z</time>
      </trkpt>
      <trkpt lat="45.71775" lon="6.49275">
        <ele>616</ele>
        <time>2023-08-21T06:31:50Z</time>
      </trkpt>
      <trkpt lat="45.71774" lon="6.49279">
        <ele>616.4</ele>
        <time>2023-08-21T06:31:51Z</time>
      </trkpt>
      <trkpt lat="45.71772" lon="6.49282">
        <ele>616.4</ele>
        <time>2023-08-21T06:31:52Z</time>
      </trkpt>
      <trkpt lat="45.71772" lon="6.49285">
        <ele>616.4</ele>
        <time>2023-08-21T06:31:53Z</time>
      </trkpt>
      <trkpt lat="45.71771" lon="6.49289">
        <ele>616.4</ele>
        <time>2023-08-21T06:31:54Z</time>
      </trkpt>
      <trkpt lat="45.7177" lon="6.49292">
        <ele>617.2</ele>
        <time>2023-08-21T06:31:55Z</time>
      </trkpt>
      <trkpt lat="45.7177" lon="6.49296">
        <ele>617.2</ele>
        <time>2023-08-21T06:31:56Z</time>
      </trkpt>
      <trkpt lat="45.7177" lon="6.49299">
        <ele>617.2</ele>
        <time>2023-08-21T06:31:57Z</time>
      </trkpt>
      <trkpt lat="45.71771" lon="6.49303">
        <ele>617.6</ele>
        <time>2023-08-21T06:31:58Z</time>
      </trkpt>
      <trkpt lat="45.71772" lon="6.49308">
        <ele>617.8</ele>
        <time>2023-08-21T06:31:59Z</time>
      </trkpt>
      <trkpt lat="45.71773" lon="6.49312">
        <ele>617.8</ele>
        <time>2023-08-21T06:32:00Z</time>
      </trkpt>
      <trkpt lat="45.71774" lon="6.49315">
        <ele>617.8</ele>
        <time>2023-08-21T06:32:01Z</time>
      </trkpt>
      <trkpt lat="45.71775" lon="6.4932">
        <ele>617.8</ele>
        <time>2023-08-21T06:32:02Z</time>
      </trkpt>
      <trkpt lat="45.71776" lon="6.49324">
        <ele>617.8</ele>
        <time>2023-08-21T06:32:03Z</time>
      </trkpt>
      <trkpt lat="45.71777" lon="6.49328">
        <ele>618.6</ele>
        <time>2023-08-21T06:32:04Z</time>
      </trkpt>
      <trkpt lat="45.71778" lon="6.49332">
        <ele>618.6</ele>
        <time>2023-08-21T06:32:05Z</time>
      </trkpt>
      <trkpt lat="45.7178" lon="6.49336">
        <ele>618.6</ele>
        <time>2023-08-21T06:32:06Z</time>
      </trkpt>
      <trkpt lat="45.71782" lon="6.49341">
        <ele>619</ele>
        <time>2023-08-21T06:32:07Z</time>
      </trkpt>
      <trkpt lat="45.71783" lon="6.49345">
        <ele>619.2</ele>
        <time>2023-08-21T06:32:08Z</time>
      </trkpt>
      <trkpt lat="45.71785" lon="6.49349">
        <ele>619.2</ele>
        <time>2023-08-21T06:32:09Z</time>
      </trkpt>
      <trkpt lat="45.71787" lon="6.49353">
        <ele>619.2</ele>
        <time>2023-08-21T06:32:10Z</time>
      </trkpt>
      <trkpt lat="45.71789" lon="6.49357">
        <ele>619.2</ele>
        <time>2023-08-21T06:32:11Z</time>
      </trkpt>
      <trkpt lat="45.71791" lon="6.49361">
        <ele>619.8</ele>
        <time>2023-08-21T06:32:12Z</time>
      </trkpt>
      <trkpt lat="45.71793" lon="6.49365">
        <ele>619.8</ele>
        <time>2023-08-21T06:32:13Z</time>
      </trkpt>
      <trkpt lat="45.71794" lon="6.49369">
        <ele>619.8</ele>
        <time>2023-08-21T06:32:14Z</time>
      </trkpt>
      <trkpt lat="45.71795" lon="6.49374">
        <ele>619.8</ele>
        <time>2023-08-21T06:32:15Z</time>
      </trkpt>
      <trkpt lat="45.71797" lon="6.49379">
        <ele>620</ele>
        <time>2023-08-21T06:32:16Z</time>
      </trkpt>
      <trkpt lat="45.71798" lon="6.49383">
        <ele>620.2</ele>
        <time>2023-08-21T06:32:17Z</time>
      </trkpt>
      <trkpt lat="45.718" lon="6.49387">
        <ele>620.2</ele>
        <time>2023-08-21T06:32:18Z</time>
      </trkpt>
      <trkpt lat="45.71802" lon="6.49392">
        <ele>620.2</ele>
        <time>2023-08-21T06:32:19Z</time>
      </trkpt>
      <trkpt lat="45.71804" lon="6.49396">
        <ele>620.2</ele>
        <time>2023-08-21T06:32:20Z</time>
      </trkpt>
      <trkpt lat="45.71805" lon="6.49401">
        <ele>620.8</ele>
        <time>2023-08-21T06:32:21Z</time>
      </trkpt>
      <trkpt lat="45.71806" lon="6.49406">
        <ele>621</ele>
        <time>2023-08-21T06:32:22Z</time>
      </trkpt>
      <trkpt lat="45.71807" lon="6.49411">
        <ele>621</ele>
        <time>2023-08-21T06:32:23Z</time>
      </trkpt>
      <trkpt lat="45.71808" lon="6.49416">
        <ele>621</ele>
        <time>2023-08-21T06:32:24Z</time>
      </trkpt>
      <trkpt lat="45.71809" lon="6.49421">
        <ele>621</ele>
        <time>2023-08-21T06:32:25Z</time>
      </trkpt>
      <trkpt lat="45.7181" lon="6.49426">
        <ele>621.4</ele>
        <time>2023-08-21T06:32:26Z</time>
      </trkpt>
      <trkpt lat="45.71812" lon="6.4943">
        <ele>621.6</ele>
        <time>2023-08-21T06:32:27Z</time>
      </trkpt>
      <trkpt lat="45.71814" lon="6.49435">
        <ele>621.6</ele>
        <time>2023-08-21T06:32:28Z</time>
      </trkpt>
      <trkpt lat="45.71815" lon="6.49439">
        <ele>621.6</ele>
        <time>2023-08-21T06:32:29Z</time>
      </trkpt>
      <trkpt lat="45.71817" lon="6.49444">
        <ele>622</ele>
        <time>2023-08-21T06:32:30Z</time>
      </trkpt>
      <trkpt lat="45.71818" lon="6.49448">
        <ele>622.4</ele>
        <time>2023-08-21T06:32:31Z</time>
      </trkpt>
      <trkpt lat="45.71819" lon="6.49453">
        <ele>622.4</ele>
        <time>2023-08-21T06:32:32Z</time>
      </trkpt>
      <trkpt lat="45.7182" lon="6.49457">
        <ele>622.4</ele>
        <time>2023-08-21T06:32:33Z</time>
      </trkpt>
      <trkpt lat="45.71822" lon="6.49461">
        <ele>622.8</ele>
        <time>2023-08-21T06:32:34Z</time>
      </trkpt>
      <trkpt lat="45.71823" lon="6.49466">
        <ele>623</ele>
        <time>2023-08-21T06:32:35Z</time>
      </trkpt>
      <trkpt lat="45.71825" lon="6.4947">
        <ele>623</ele>
        <time>2023-08-21T06:32:36Z</time>
      </trkpt>
      <trkpt lat="45.71827" lon="6.49474">
        <ele>623</ele>
        <time>2023-08-21T06:32:37Z</time>
      </trkpt>
      <trkpt lat="45.71829" lon="6.49478">
        <ele>623</ele>
        <time>2023-08-21T06:32:38Z</time>
      </trkpt>
      <trkpt lat="45.71832" lon="6.49481">
        <ele>623</ele>
        <time>2023-08-21T06:32:39Z</time>
      </trkpt>
      <trkpt lat="45.71834" lon="6.49485">
        <ele>623.6</ele>
        <time>2023-08-21T06:32:40Z</time>
      </trkpt>
      <trkpt lat="45.71836" lon="6.49489">
        <ele>623.6</ele>
        <time>2023-08-21T06:32:41Z</time>
      </trkpt>
      <trkpt lat="45.71839" lon="6.49492">
        <ele>623.6</ele>
        <time>2023-08-21T06:32:42Z</time>
      </trkpt>
      <trkpt lat="45.71842" lon="6.49496">
        <ele>623.6</ele>
        <time>2023-08-21T06:32:43Z</time>
      </trkpt>
      <trkpt lat="45.71845" lon="6.49499">
        <ele>624</ele>
        <time>2023-08-21T06:32:44Z</time>
      </trkpt>
      <trkpt lat="45.71847" lon="6.49503">
        <ele>624</ele>
        <time>2023-08-21T06:32:45Z</time>
      </trkpt>
      <trkpt lat="45.71849" lon="6.49507">
        <ele>624</ele>
        <time>2023-08-21T06:32:46Z</time>
      </trkpt>
      <trkpt lat="45.71852" lon="6.4951">
        <ele>624.4</ele>
        <time>2023-08-21T06:32:47Z</time>
      </trkpt>
      <trkpt lat="45.71854" lon="6.49514">
        <ele>624.4</ele>
        <time>2023-08-21T06:32:48Z</time>
      </trkpt>
      <trkpt lat="45.71856" lon="6.49517">
        <ele>624.2</ele>
        <time>2023-08-21T06:32:49Z</time>
      </trkpt>
      <trkpt lat="45.71858" lon="6.49521">
        <ele>624.2</ele>
        <time>2023-08-21T06:32:50Z</time>
      </trkpt>
      <trkpt lat="45.71861" lon="6.49524">
        <ele>624.2</ele>
        <time>2023-08-21T06:32:51Z</time>
      </trkpt>
      <trkpt lat="45.71863" lon="6.49527">
        <ele>624.6</ele>
        <time>2023-08-21T06:32:52Z</time>
      </trkpt>
      <trkpt lat="45.71866" lon="6.4953">
        <ele>624.6</ele>
        <time>2023-08-21T06:32:53Z</time>
      </trkpt>
      <trkpt lat="45.71868" lon="6.49533">
        <ele>624.6</ele>
        <time>2023-08-21T06:32:54Z</time>
      </trkpt>
      <trkpt lat="45.71871" lon="6.49536">
        <ele>624.6</ele>
        <time>2023-08-21T06:32:55Z</time>
      </trkpt>
      <trkpt lat="45.71874" lon="6.4954">
        <ele>624.6</ele>
        <time>2023-08-21T06:32:56Z</time>
      </trkpt>
      <trkpt lat="45.71877" lon="6.49543">
        <ele>625</ele>
        <time>2023-08-21T06:32:57Z</time>
      </trkpt>
      <trkpt lat="45.71879" lon="6.49547">
        <ele>625</ele>
        <time>2023-08-21T06:32:58Z</time>
      </trkpt>
      <trkpt lat="45.7188" lon="6.49551">
        <ele>625</ele>
        <time>2023-08-21T06:32:59Z</time>
      </trkpt>
      <trkpt lat="45.7188" lon="6.49556">
        <ele>625</ele>
        <time>2023-08-21T06:33:00Z</time>
      </trkpt>
      <trkpt lat="45.71879" lon="6.49561">
        <ele>625.4</ele>
        <time>2023-08-21T06:33:01Z</time>
      </trkpt>
      <trkpt lat="45.71877" lon="6.49567">
        <ele>625.4</ele>
        <time>2023-08-21T06:33:02Z</time>
      </trkpt>
      <trkpt lat="45.71875" lon="6.49572">
        <ele>625.4</ele>
        <time>2023-08-21T06:33:03Z</time>
      </trkpt>
      <trkpt lat="45.71873" lon="6.49577">
        <ele>625.4</ele>
        <time>2023-08-21T06:33:04Z</time>
      </trkpt>
      <trkpt lat="45.71871" lon="6.49582">
        <ele>625.4</ele>
        <time>2023-08-21T06:33:05Z</time>
      </trkpt>
      <trkpt lat="45.71868" lon="6.49588">
        <ele>625.4</ele>
        <time>2023-08-21T06:33:06Z</time>
      </trkpt>
      <trkpt lat="45.71866" lon="6.49594">
        <ele>625.6</ele>
        <time>2023-08-21T06:33:07Z</time>
      </trkpt>
      <trkpt lat="45.71863" lon="6.496">
        <ele>625.6</ele>
        <time>2023-08-21T06:33:08Z</time>
      </trkpt>
      <trkpt lat="45.71862" lon="6.49606">
        <ele>625.6</ele>
        <time>2023-08-21T06:33:09Z</time>
      </trkpt>
      <trkpt lat="45.7186" lon="6.49612">
        <ele>626.2</ele>
        <time>2023-08-21T06:33:10Z</time>
      </trkpt>
      <trkpt lat="45.71859" lon="6.49618">
        <ele>626.2</ele>
        <time>2023-08-21T06:33:11Z</time>
      </trkpt>
      <trkpt lat="45.71857" lon="6.49624">
        <ele>625.8</ele>
        <time>2023-08-21T06:33:12Z</time>
      </trkpt>
      <trkpt lat="45.71856" lon="6.4963">
        <ele>625.8</ele>
        <time>2023-08-21T06:33:13Z</time>
      </trkpt>
      <trkpt lat="45.71856" lon="6.49637">
        <ele>625.8</ele>
        <time>2023-08-21T06:33:14Z</time>
      </trkpt>
      <trkpt lat="45.71855" lon="6.49643">
        <ele>625.8</ele>
        <time>2023-08-21T06:33:15Z</time>
      </trkpt>
      <trkpt lat="45.71855" lon="6.49649">
        <ele>626.2</ele>
        <time>2023-08-21T06:33:16Z</time>
      </trkpt>
      <trkpt lat="45.71856" lon="6.49656">
        <ele>626.2</ele>
        <time>2023-08-21T06:33:17Z</time>
      </trkpt>
      <trkpt lat="45.71856" lon="6.49663">
        <ele>626.2</ele>
        <time>2023-08-21T06:33:18Z</time>
      </trkpt>
      <trkpt lat="45.71856" lon="6.4967">
        <ele>626.2</ele>
        <time>2023-08-21T06:33:19Z</time>
      </trkpt>
      <trkpt lat="45.71857" lon="6.49677">
        <ele>626</ele>
        <time>2023-08-21T06:33:20Z</time>
      </trkpt>
      <trkpt lat="45.71857" lon="6.49684">
        <ele>626</ele>
        <time>2023-08-21T06:33:21Z</time>
      </trkpt>
      <trkpt lat="45.71858" lon="6.49692">
        <ele>626</ele>
        <time>2023-08-21T06:33:22Z</time>
      </trkpt>
      <trkpt lat="45.71858" lon="6.497">
        <ele>626</ele>
        <time>2023-08-21T06:33:23Z</time>
      </trkpt>
      <trkpt lat="45.71859" lon="6.49707">
        <ele>626</ele>
        <time>2023-08-21T06:33:24Z</time>
      </trkpt>
      <trkpt lat="45.7186" lon="6.49715">
        <ele>626</ele>
        <time>2023-08-21T06:33:25Z</time>
      </trkpt>
      <trkpt lat="45.71861" lon="6.49723">
        <ele>626</ele>
        <time>2023-08-21T06:33:26Z</time>
      </trkpt>
      <trkpt lat="45.71861" lon="6.49731">
        <ele>626</ele>
        <time>2023-08-21T06:33:27Z</time>
      </trkpt>
      <trkpt lat="45.71862" lon="6.49739">
        <ele>626</ele>
        <time>2023-08-21T06:33:28Z</time>
      </trkpt>
      <trkpt lat="45.71863" lon="6.49746">
        <ele>626</ele>
        <time>2023-08-21T06:33:29Z</time>
      </trkpt>
      <trkpt lat="45.71863" lon="6.49754">
        <ele>626</ele>
        <time>2023-08-21T06:33:30Z</time>
      </trkpt>
      <trkpt lat="45.71863" lon="6.49761">
        <ele>626</ele>
        <time>2023-08-21T06:33:31Z</time>
      </trkpt>
      <trkpt lat="45.71864" lon="6.49769">
        <ele>626.2</ele>
        <time>2023-08-21T06:33:32Z</time>
      </trkpt>
      <trkpt lat="45.71865" lon="6.49777">
        <ele>626.2</ele>
        <time>2023-08-21T06:33:33Z</time>
      </trkpt>
      <trkpt lat="45.71865" lon="6.49784">
        <ele>626.2</ele>
        <time>2023-08-21T06:33:34Z</time>
      </trkpt>
      <trkpt lat="45.71865" lon="6.49792">
        <ele>626.2</ele>
        <time>2023-08-21T06:33:35Z</time>
      </trkpt>
      <trkpt lat="45.71865" lon="6.498">
        <ele>626.2</ele>
        <time>2023-08-21T06:33:36Z</time>
      </trkpt>
      <trkpt lat="45.71865" lon="6.49808">
        <ele>626.2</ele>
        <time>2023-08-21T06:33:37Z</time>
      </trkpt>
      <trkpt lat="45.71865" lon="6.49816">
        <ele>626.2</ele>
        <time>2023-08-21T06:33:38Z</time>
      </trkpt>
      <trkpt lat="45.71864" lon="6.49823">
        <ele>626.4</ele>
        <time>2023-08-21T06:33:39Z</time>
      </trkpt>
      <trkpt lat="45.71863" lon="6.49832">
        <ele>626.4</ele>
        <time>2023-08-21T06:33:40Z</time>
      </trkpt>
      <trkpt lat="45.71863" lon="6.4984">
        <ele>626.4</ele>
        <time>2023-08-21T06:33:41Z</time>
      </trkpt>
      <trkpt lat="45.71862" lon="6.49847">
        <ele>626.4</ele>
        <time>2023-08-21T06:33:42Z</time>
      </trkpt>
      <trkpt lat="45.71862" lon="6.49855">
        <ele>626.4</ele>
        <time>2023-08-21T06:33:43Z</time>
      </trkpt>
      <trkpt lat="45.71861" lon="6.49862">
        <ele>626.4</ele>
        <time>2023-08-21T06:33:44Z</time>
      </trkpt>
      <trkpt lat="45.7186" lon="6.4987">
        <ele>626.8</ele>
        <time>2023-08-21T06:33:45Z</time>
      </trkpt>
      <trkpt lat="45.71859" lon="6.49877">
        <ele>626.8</ele>
        <time>2023-08-21T06:33:46Z</time>
      </trkpt>
      <trkpt lat="45.71858" lon="6.49885">
        <ele>626.8</ele>
        <time>2023-08-21T06:33:47Z</time>
      </trkpt>
      <trkpt lat="45.71857" lon="6.49893">
        <ele>627</ele>
        <time>2023-08-21T06:33:48Z</time>
      </trkpt>
      <trkpt lat="45.71855" lon="6.499">
        <ele>627</ele>
        <time>2023-08-21T06:33:49Z</time>
      </trkpt>
      <trkpt lat="45.71853" lon="6.49908">
        <ele>627</ele>
        <time>2023-08-21T06:33:50Z</time>
      </trkpt>
      <trkpt lat="45.71851" lon="6.49915">
        <ele>627</ele>
        <time>2023-08-21T06:33:51Z</time>
      </trkpt>
      <trkpt lat="45.7185" lon="6.49923">
        <ele>627.2</ele>
        <time>2023-08-21T06:33:52Z</time>
      </trkpt>
      <trkpt lat="45.71848" lon="6.49931">
        <ele>627.2</ele>
        <time>2023-08-21T06:33:53Z</time>
      </trkpt>
      <trkpt lat="45.71846" lon="6.49938">
        <ele>627.2</ele>
        <time>2023-08-21T06:33:54Z</time>
      </trkpt>
      <trkpt lat="45.71844" lon="6.49945">
        <ele>627.2</ele>
        <time>2023-08-21T06:33:55Z</time>
      </trkpt>
      <trkpt lat="45.71842" lon="6.49953">
        <ele>627.2</ele>
        <time>2023-08-21T06:33:56Z</time>
      </trkpt>
      <trkpt lat="45.71841" lon="6.4996">
        <ele>627</ele>
        <time>2023-08-21T06:33:57Z</time>
      </trkpt>
      <trkpt lat="45.71838" lon="6.49968">
        <ele>627</ele>
        <time>2023-08-21T06:33:58Z</time>
      </trkpt>
      <trkpt lat="45.71835" lon="6.49975">
        <ele>627.2</ele>
        <time>2023-08-21T06:33:59Z</time>
      </trkpt>
      <trkpt lat="45.71832" lon="6.49983">
        <ele>627</ele>
        <time>2023-08-21T06:34:00Z</time>
      </trkpt>
      <trkpt lat="45.71829" lon="6.49989">
        <ele>627</ele>
        <time>2023-08-21T06:34:01Z</time>
      </trkpt>
      <trkpt lat="45.71827" lon="6.49996">
        <ele>627</ele>
        <time>2023-08-21T06:34:02Z</time>
      </trkpt>
      <trkpt lat="45.71823" lon="6.50001">
        <ele>627</ele>
        <time>2023-08-21T06:34:03Z</time>
      </trkpt>
      <trkpt lat="45.71821" lon="6.50007">
        <ele>627.2</ele>
        <time>2023-08-21T06:34:04Z</time>
      </trkpt>
      <trkpt lat="45.71818" lon="6.50013">
        <ele>627.2</ele>
        <time>2023-08-21T06:34:05Z</time>
      </trkpt>
      <trkpt lat="45.71815" lon="6.50019">
        <ele>627.2</ele>
        <time>2023-08-21T06:34:06Z</time>
      </trkpt>
      <trkpt lat="45.71813" lon="6.50026">
        <ele>627.2</ele>
        <time>2023-08-21T06:34:07Z</time>
      </trkpt>
      <trkpt lat="45.7181" lon="6.50033">
        <ele>627.6</ele>
        <time>2023-08-21T06:34:08Z</time>
      </trkpt>
      <trkpt lat="45.71808" lon="6.5004">
        <ele>627.4</ele>
        <time>2023-08-21T06:34:09Z</time>
      </trkpt>
      <trkpt lat="45.71805" lon="6.50048">
        <ele>627.4</ele>
        <time>2023-08-21T06:34:10Z</time>
      </trkpt>
      <trkpt lat="45.71803" lon="6.50056">
        <ele>627.4</ele>
        <time>2023-08-21T06:34:11Z</time>
      </trkpt>
      <trkpt lat="45.71801" lon="6.50063">
        <ele>627.6</ele>
        <time>2023-08-21T06:34:12Z</time>
      </trkpt>
      <trkpt lat="45.71799" lon="6.50071">
        <ele>627.6</ele>
        <time>2023-08-21T06:34:13Z</time>
      </trkpt>
      <trkpt lat="45.71796" lon="6.50078">
        <ele>627.6</ele>
        <time>2023-08-21T06:34:14Z</time>
      </trkpt>
      <trkpt lat="45.71793" lon="6.50084">
        <ele>627.6</ele>
        <time>2023-08-21T06:34:15Z</time>
      </trkpt>
      <trkpt lat="45.71791" lon="6.50092">
        <ele>627.6</ele>
        <time>2023-08-21T06:34:16Z</time>
      </trkpt>
      <trkpt lat="45.71789" lon="6.50099">
        <ele>627.6</ele>
        <time>2023-08-21T06:34:17Z</time>
      </trkpt>
      <trkpt lat="45.71787" lon="6.50107">
        <ele>627.6</ele>
        <time>2023-08-21T06:34:18Z</time>
      </trkpt>
      <trkpt lat="45.71785" lon="6.50115">
        <ele>627.6</ele>
        <time>2023-08-21T06:34:19Z</time>
      </trkpt>
      <trkpt lat="45.71784" lon="6.50122">
        <ele>627.6</ele>
        <time>2023-08-21T06:34:20Z</time>
      </trkpt>
      <trkpt lat="45.71782" lon="6.5013">
        <ele>627.6</ele>
        <time>2023-08-21T06:34:21Z</time>
      </trkpt>
      <trkpt lat="45.7178" lon="6.50138">
        <ele>627.6</ele>
        <time>2023-08-21T06:34:22Z</time>
      </trkpt>
      <trkpt lat="45.71777" lon="6.50146">
        <ele>627.6</ele>
        <time>2023-08-21T06:34:23Z</time>
      </trkpt>
      <trkpt lat="45.71775" lon="6.50154">
        <ele>627.6</ele>
        <time>2023-08-21T06:34:24Z</time>
      </trkpt>
      <trkpt lat="45.71773" lon="6.50161">
        <ele>627.4</ele>
        <time>2023-08-21T06:34:25Z</time>
      </trkpt>
      <trkpt lat="45.71771" lon="6.50169">
        <ele>627.4</ele>
        <time>2023-08-21T06:34:26Z</time>
      </trkpt>
      <trkpt lat="45.71769" lon="6.50177">
        <ele>627.6</ele>
        <time>2023-08-21T06:34:27Z</time>
      </trkpt>
      <trkpt lat="45.71767" lon="6.50185">
        <ele>627.6</ele>
        <time>2023-08-21T06:34:28Z</time>
      </trkpt>
      <trkpt lat="45.71764" lon="6.50193">
        <ele>627.6</ele>
        <time>2023-08-21T06:34:29Z</time>
      </trkpt>
      <trkpt lat="45.71762" lon="6.502">
        <ele>627.6</ele>
        <time>2023-08-21T06:34:30Z</time>
      </trkpt>
      <trkpt lat="45.7176" lon="6.50207">
        <ele>627.4</ele>
        <time>2023-08-21T06:34:31Z</time>
      </trkpt>
      <trkpt lat="45.71758" lon="6.50216">
        <ele>627.4</ele>
        <time>2023-08-21T06:34:32Z</time>
      </trkpt>
      <trkpt lat="45.71756" lon="6.50224">
        <ele>627.4</ele>
        <time>2023-08-21T06:34:33Z</time>
      </trkpt>
      <trkpt lat="45.71754" lon="6.50232">
        <ele>627.4</ele>
        <time>2023-08-21T06:34:34Z</time>
      </trkpt>
      <trkpt lat="45.71753" lon="6.5024">
        <ele>627.4</ele>
        <time>2023-08-21T06:34:35Z</time>
      </trkpt>
      <trkpt lat="45.71751" lon="6.50249">
        <ele>627.4</ele>
        <time>2023-08-21T06:34:36Z</time>
      </trkpt>
      <trkpt lat="45.71749" lon="6.50257">
        <ele>627.4</ele>
        <time>2023-08-21T06:34:37Z</time>
      </trkpt>
      <trkpt lat="45.71747" lon="6.50265">
        <ele>627.4</ele>
        <time>2023-08-21T06:34:38Z</time>
      </trkpt>
      <trkpt lat="45.71745" lon="6.50273">
        <ele>627.6</ele>
        <time>2023-08-21T06:34:39Z</time>
      </trkpt>
      <trkpt lat="45.71743" lon="6.50282">
        <ele>627.6</ele>
        <time>2023-08-21T06:34:40Z</time>
      </trkpt>
      <trkpt lat="45.71741" lon="6.5029">
        <ele>627.8</ele>
        <time>2023-08-21T06:34:41Z</time>
      </trkpt>
      <trkpt lat="45.71739" lon="6.50298">
        <ele>627.8</ele>
        <time>2023-08-21T06:34:42Z</time>
      </trkpt>
      <trkpt lat="45.71737" lon="6.50306">
        <ele>627.8</ele>
        <time>2023-08-21T06:34:43Z</time>
      </trkpt>
      <trkpt lat="45.71735" lon="6.50314">
        <ele>627.6</ele>
        <time>2023-08-21T06:34:44Z</time>
      </trkpt>
      <trkpt lat="45.71733" lon="6.50321">
        <ele>628</ele>
        <time>2023-08-21T06:34:45Z</time>
      </trkpt>
      <trkpt lat="45.71731" lon="6.50328">
        <ele>628</ele>
        <time>2023-08-21T06:34:46Z</time>
      </trkpt>
      <trkpt lat="45.71729" lon="6.50336">
        <ele>628</ele>
        <time>2023-08-21T06:34:47Z</time>
      </trkpt>
      <trkpt lat="45.71728" lon="6.50344">
        <ele>628</ele>
        <time>2023-08-21T06:34:48Z</time>
      </trkpt>
      <trkpt lat="45.71726" lon="6.50352">
        <ele>628.4</ele>
        <time>2023-08-21T06:34:49Z</time>
      </trkpt>
      <trkpt lat="45.71723" lon="6.5036">
        <ele>628.4</ele>
        <time>2023-08-21T06:34:50Z</time>
      </trkpt>
      <trkpt lat="45.71721" lon="6.50368">
        <ele>628.4</ele>
        <time>2023-08-21T06:34:51Z</time>
      </trkpt>
      <trkpt lat="45.71719" lon="6.50376">
        <ele>628.4</ele>
        <time>2023-08-21T06:34:52Z</time>
      </trkpt>
      <trkpt lat="45.71717" lon="6.50384">
        <ele>628.4</ele>
        <time>2023-08-21T06:34:53Z</time>
      </trkpt>
      <trkpt lat="45.71715" lon="6.50392">
        <ele>628.4</ele>
        <time>2023-08-21T06:34:54Z</time>
      </trkpt>
      <trkpt lat="45.71713" lon="6.504">
        <ele>628.4</ele>
        <time>2023-08-21T06:34:55Z</time>
      </trkpt>
      <trkpt lat="45.71711" lon="6.50408">
        <ele>628.4</ele>
        <time>2023-08-21T06:34:56Z</time>
      </trkpt>
      <trkpt lat="45.71709" lon="6.50416">
        <ele>628.4</ele>
        <time>2023-08-21T06:34:57Z</time>
      </trkpt>
      <trkpt lat="45.71707" lon="6.50423">
        <ele>628.8</ele>
        <time>2023-08-21T06:34:58Z</time>
      </trkpt>
      <trkpt lat="45.71706" lon="6.50431">
        <ele>628.8</ele>
        <time>2023-08-21T06:34:59Z</time>
      </trkpt>
      <trkpt lat="45.71704" lon="6.50438">
        <ele>628.8</ele>
        <time>2023-08-21T06:35:00Z</time>
      </trkpt>
      <trkpt lat="45.71703" lon="6.50446">
        <ele>628.8</ele>
        <time>2023-08-21T06:35:01Z</time>
      </trkpt>
      <trkpt lat="45.71701" lon="6.50454">
        <ele>629</ele>
        <time>2023-08-21T06:35:02Z</time>
      </trkpt>
      <trkpt lat="45.71701" lon="6.50462">
        <ele>629</ele>
        <time>2023-08-21T06:35:03Z</time>
      </trkpt>
      <trkpt lat="45.717" lon="6.50469">
        <ele>629</ele>
        <time>2023-08-21T06:35:04Z</time>
      </trkpt>
      <trkpt lat="45.71699" lon="6.50477">
        <ele>629</ele>
        <time>2023-08-21T06:35:05Z</time>
      </trkpt>
      <trkpt lat="45.71699" lon="6.50485">
        <ele>629</ele>
        <time>2023-08-21T06:35:06Z</time>
      </trkpt>
      <trkpt lat="45.71699" lon="6.50492">
        <ele>629.8</ele>
        <time>2023-08-21T06:35:07Z</time>
      </trkpt>
      <trkpt lat="45.71699" lon="6.50499">
        <ele>629.8</ele>
        <time>2023-08-21T06:35:08Z</time>
      </trkpt>
      <trkpt lat="45.71699" lon="6.50506">
        <ele>629.8</ele>
        <time>2023-08-21T06:35:09Z</time>
      </trkpt>
      <trkpt lat="45.717" lon="6.50514">
        <ele>630.2</ele>
        <time>2023-08-21T06:35:10Z</time>
      </trkpt>
      <trkpt lat="45.717" lon="6.50521">
        <ele>630.2</ele>
        <time>2023-08-21T06:35:11Z</time>
      </trkpt>
      <trkpt lat="45.71701" lon="6.50527">
        <ele>630.6</ele>
        <time>2023-08-21T06:35:12Z</time>
      </trkpt>
      <trkpt lat="45.71702" lon="6.50534">
        <ele>630.6</ele>
        <time>2023-08-21T06:35:13Z</time>
      </trkpt>
      <trkpt lat="45.71704" lon="6.50541">
        <ele>630.6</ele>
        <time>2023-08-21T06:35:14Z</time>
      </trkpt>
      <trkpt lat="45.71705" lon="6.50547">
        <ele>630.6</ele>
        <time>2023-08-21T06:35:15Z</time>
      </trkpt>
      <trkpt lat="45.71707" lon="6.50553">
        <ele>631</ele>
        <time>2023-08-21T06:35:16Z</time>
      </trkpt>
      <trkpt lat="45.71708" lon="6.50559">
        <ele>631</ele>
        <time>2023-08-21T06:35:17Z</time>
      </trkpt>
      <trkpt lat="45.7171" lon="6.50565">
        <ele>631</ele>
        <time>2023-08-21T06:35:18Z</time>
      </trkpt>
      <trkpt lat="45.71712" lon="6.50571">
        <ele>631</ele>
        <time>2023-08-21T06:35:19Z</time>
      </trkpt>
      <trkpt lat="45.71713" lon="6.50578">
        <ele>631.4</ele>
        <time>2023-08-21T06:35:20Z</time>
      </trkpt>
      <trkpt lat="45.71716" lon="6.50584">
        <ele>631.4</ele>
        <time>2023-08-21T06:35:21Z</time>
      </trkpt>
      <trkpt lat="45.71718" lon="6.5059">
        <ele>631.4</ele>
        <time>2023-08-21T06:35:22Z</time>
      </trkpt>
      <trkpt lat="45.71721" lon="6.50596">
        <ele>631.4</ele>
        <time>2023-08-21T06:35:23Z</time>
      </trkpt>
      <trkpt lat="45.71723" lon="6.50601">
        <ele>632</ele>
        <time>2023-08-21T06:35:24Z</time>
      </trkpt>
      <trkpt lat="45.71726" lon="6.50607">
        <ele>632</ele>
        <time>2023-08-21T06:35:25Z</time>
      </trkpt>
      <trkpt lat="45.71728" lon="6.50613">
        <ele>632</ele>
        <time>2023-08-21T06:35:26Z</time>
      </trkpt>
      <trkpt lat="45.71731" lon="6.50619">
        <ele>632</ele>
        <time>2023-08-21T06:35:27Z</time>
      </trkpt>
      <trkpt lat="45.71733" lon="6.50624">
        <ele>632</ele>
        <time>2023-08-21T06:35:28Z</time>
      </trkpt>
      <trkpt lat="45.71736" lon="6.5063">
        <ele>632.6</ele>
        <time>2023-08-21T06:35:29Z</time>
      </trkpt>
      <trkpt lat="45.71738" lon="6.50637">
        <ele>632.6</ele>
        <time>2023-08-21T06:35:30Z</time>
      </trkpt>
      <trkpt lat="45.71741" lon="6.50643">
        <ele>632.6</ele>
        <time>2023-08-21T06:35:31Z</time>
      </trkpt>
      <trkpt lat="45.71744" lon="6.50649">
        <ele>632.6</ele>
        <time>2023-08-21T06:35:32Z</time>
      </trkpt>
      <trkpt lat="45.71747" lon="6.50655">
        <ele>632.6</ele>
        <time>2023-08-21T06:35:33Z</time>
      </trkpt>
      <trkpt lat="45.71749" lon="6.50661">
        <ele>632.6</ele>
        <time>2023-08-21T06:35:34Z</time>
      </trkpt>
      <trkpt lat="45.71752" lon="6.50668">
        <ele>632.6</ele>
        <time>2023-08-21T06:35:35Z</time>
      </trkpt>
      <trkpt lat="45.71756" lon="6.50674">
        <ele>632.6</ele>
        <time>2023-08-21T06:35:36Z</time>
      </trkpt>
      <trkpt lat="45.71759" lon="6.5068">
        <ele>632.6</ele>
        <time>2023-08-21T06:35:37Z</time>
      </trkpt>
      <trkpt lat="45.71762" lon="6.50687">
        <ele>631.8</ele>
        <time>2023-08-21T06:35:38Z</time>
      </trkpt>
      <trkpt lat="45.71765" lon="6.50694">
        <ele>631.8</ele>
        <time>2023-08-21T06:35:39Z</time>
      </trkpt>
      <trkpt lat="45.71767" lon="6.50701">
        <ele>631.8</ele>
        <time>2023-08-21T06:35:40Z</time>
      </trkpt>
      <trkpt lat="45.71769" lon="6.50708">
        <ele>631.8</ele>
        <time>2023-08-21T06:35:41Z</time>
      </trkpt>
      <trkpt lat="45.71772" lon="6.50715">
        <ele>631.8</ele>
        <time>2023-08-21T06:35:42Z</time>
      </trkpt>
      <trkpt lat="45.71774" lon="6.50723">
        <ele>631.8</ele>
        <time>2023-08-21T06:35:43Z</time>
      </trkpt>
      <trkpt lat="45.71776" lon="6.5073">
        <ele>631.8</ele>
        <time>2023-08-21T06:35:44Z</time>
      </trkpt>
      <trkpt lat="45.71778" lon="6.50738">
        <ele>631.8</ele>
        <time>2023-08-21T06:35:45Z</time>
      </trkpt>
      <trkpt lat="45.71781" lon="6.50746">
        <ele>631.8</ele>
        <time>2023-08-21T06:35:46Z</time>
      </trkpt>
      <trkpt lat="45.71783" lon="6.50754">
        <ele>631.8</ele>
        <time>2023-08-21T06:35:47Z</time>
      </trkpt>
      <trkpt lat="45.71784" lon="6.50762">
        <ele>631.8</ele>
        <time>2023-08-21T06:35:48Z</time>
      </trkpt>
      <trkpt lat="45.71786" lon="6.5077">
        <ele>631.8</ele>
        <time>2023-08-21T06:35:49Z</time>
      </trkpt>
      <trkpt lat="45.71787" lon="6.50778">
        <ele>631.8</ele>
        <time>2023-08-21T06:35:50Z</time>
      </trkpt>
      <trkpt lat="45.71788" lon="6.50786">
        <ele>631.8</ele>
        <time>2023-08-21T06:35:51Z</time>
      </trkpt>
      <trkpt lat="45.71788" lon="6.50795">
        <ele>631.6</ele>
        <time>2023-08-21T06:35:52Z</time>
      </trkpt>
      <trkpt lat="45.71789" lon="6.50803">
        <ele>631.6</ele>
        <time>2023-08-21T06:35:53Z</time>
      </trkpt>
      <trkpt lat="45.71789" lon="6.50811">
        <ele>631.6</ele>
        <time>2023-08-21T06:35:54Z</time>
      </trkpt>
      <trkpt lat="45.71788" lon="6.50819">
        <ele>632</ele>
        <time>2023-08-21T06:35:55Z</time>
      </trkpt>
      <trkpt lat="45.71789" lon="6.50826">
        <ele>632</ele>
        <time>2023-08-21T06:35:56Z</time>
      </trkpt>
      <trkpt lat="45.71789" lon="6.50834">
        <ele>632</ele>
        <time>2023-08-21T06:35:57Z</time>
      </trkpt>
      <trkpt lat="45.71789" lon="6.50841">
        <ele>632</ele>
        <time>2023-08-21T06:35:58Z</time>
      </trkpt>
      <trkpt lat="45.71789" lon="6.50849">
        <ele>632</ele>
        <time>2023-08-21T06:35:59Z</time>
      </trkpt>
      <trkpt lat="45.71789" lon="6.50856">
        <ele>632</ele>
        <time>2023-08-21T06:36:00Z</time>
      </trkpt>
      <trkpt lat="45.71789" lon="6.50863">
        <ele>632.4</ele>
        <time>2023-08-21T06:36:01Z</time>
      </trkpt>
      <trkpt lat="45.7179" lon="6.5087">
        <ele>632.4</ele>
        <time>2023-08-21T06:36:02Z</time>
      </trkpt>
      <trkpt lat="45.7179" lon="6.50877">
        <ele>632.4</ele>
        <time>2023-08-21T06:36:03Z</time>
      </trkpt>
      <trkpt lat="45.71791" lon="6.50884">
        <ele>632.6</ele>
        <time>2023-08-21T06:36:04Z</time>
      </trkpt>
      <trkpt lat="45.71792" lon="6.50891">
        <ele>632.6</ele>
        <time>2023-08-21T06:36:05Z</time>
      </trkpt>
      <trkpt lat="45.71793" lon="6.50898">
        <ele>632.6</ele>
        <time>2023-08-21T06:36:06Z</time>
      </trkpt>
      <trkpt lat="45.71793" lon="6.50905">
        <ele>632.6</ele>
        <time>2023-08-21T06:36:07Z</time>
      </trkpt>
      <trkpt lat="45.71794" lon="6.50912">
        <ele>632.6</ele>
        <time>2023-08-21T06:36:08Z</time>
      </trkpt>
      <trkpt lat="45.71796" lon="6.50919">
        <ele>632.8</ele>
        <time>2023-08-21T06:36:09Z</time>
      </trkpt>
      <trkpt lat="45.71797" lon="6.50926">
        <ele>632.8</ele>
        <time>2023-08-21T06:36:10Z</time>
      </trkpt>
      <trkpt lat="45.71798" lon="6.50933">
        <ele>632.8</ele>
        <time>2023-08-21T06:36:11Z</time>
      </trkpt>
      <trkpt lat="45.718" lon="6.5094">
        <ele>632.8</ele>
        <time>2023-08-21T06:36:12Z</time>
      </trkpt>
      <trkpt lat="45.71802" lon="6.50947">
        <ele>633</ele>
        <time>2023-08-21T06:36:13Z</time>
      </trkpt>
      <trkpt lat="45.71804" lon="6.50954">
        <ele>633</ele>
        <time>2023-08-21T06:36:14Z</time>
      </trkpt>
      <trkpt lat="45.71805" lon="6.50961">
        <ele>633</ele>
        <time>2023-08-21T06:36:15Z</time>
      </trkpt>
      <trkpt lat="45.71807" lon="6.50968">
        <ele>633</ele>
        <time>2023-08-21T06:36:16Z</time>
      </trkpt>
      <trkpt lat="45.71809" lon="6.50975">
        <ele>633.2</ele>
        <time>2023-08-21T06:36:17Z</time>
      </trkpt>
      <trkpt lat="45.71811" lon="6.50982">
        <ele>633.2</ele>
        <time>2023-08-21T06:36:18Z</time>
      </trkpt>
      <trkpt lat="45.71813" lon="6.50989">
        <ele>633.2</ele>
        <time>2023-08-21T06:36:19Z</time>
      </trkpt>
      <trkpt lat="45.71815" lon="6.50996">
        <ele>633.2</ele>
        <time>2023-08-21T06:36:20Z</time>
      </trkpt>
      <trkpt lat="45.71817" lon="6.51003">
        <ele>633.4</ele>
        <time>2023-08-21T06:36:21Z</time>
      </trkpt>
      <trkpt lat="45.71819" lon="6.5101">
        <ele>633.4</ele>
        <time>2023-08-21T06:36:22Z</time>
      </trkpt>
      <trkpt lat="45.71822" lon="6.51017">
        <ele>633.2</ele>
        <time>2023-08-21T06:36:23Z</time>
      </trkpt>
      <trkpt lat="45.71824" lon="6.51024">
        <ele>633.2</ele>
        <time>2023-08-21T06:36:24Z</time>
      </trkpt>
      <trkpt lat="45.71826" lon="6.5103">
        <ele>633.2</ele>
        <time>2023-08-21T06:36:25Z</time>
      </trkpt>
      <trkpt lat="45.71829" lon="6.51037">
        <ele>633.2</ele>
        <time>2023-08-21T06:36:26Z</time>
      </trkpt>
      <trkpt lat="45.71831" lon="6.51044">
        <ele>633.6</ele>
        <time>2023-08-21T06:36:27Z</time>
      </trkpt>
      <trkpt lat="45.71833" lon="6.51051">
        <ele>633.6</ele>
        <time>2023-08-21T06:36:28Z</time>
      </trkpt>
      <trkpt lat="45.71835" lon="6.51057">
        <ele>633.6</ele>
        <time>2023-08-21T06:36:29Z</time>
      </trkpt>
      <trkpt lat="45.71837" lon="6.51064">
        <ele>633.6</ele>
        <time>2023-08-21T06:36:30Z</time>
      </trkpt>
      <trkpt lat="45.71839" lon="6.51071">
        <ele>634</ele>
        <time>2023-08-21T06:36:31Z</time>
      </trkpt>
      <trkpt lat="45.71842" lon="6.51077">
        <ele>634</ele>
        <time>2023-08-21T06:36:32Z</time>
      </trkpt>
      <trkpt lat="45.71844" lon="6.51084">
        <ele>634</ele>
        <time>2023-08-21T06:36:33Z</time>
      </trkpt>
      <trkpt lat="45.71846" lon="6.51091">
        <ele>634</ele>
        <time>2023-08-21T06:36:34Z</time>
      </trkpt>
      <trkpt lat="45.71848" lon="6.51098">
        <ele>634</ele>
        <time>2023-08-21T06:36:35Z</time>
      </trkpt>
      <trkpt lat="45.7185" lon="6.51104">
        <ele>634.2</ele>
        <time>2023-08-21T06:36:36Z</time>
      </trkpt>
      <trkpt lat="45.71852" lon="6.51111">
        <ele>634.2</ele>
        <time>2023-08-21T06:36:37Z</time>
      </trkpt>
      <trkpt lat="45.71855" lon="6.51118">
        <ele>634.2</ele>
        <time>2023-08-21T06:36:38Z</time>
      </trkpt>
      <trkpt lat="45.71857" lon="6.51124">
        <ele>634.2</ele>
        <time>2023-08-21T06:36:39Z</time>
      </trkpt>
      <trkpt lat="45.71859" lon="6.51131">
        <ele>634.2</ele>
        <time>2023-08-21T06:36:40Z</time>
      </trkpt>
      <trkpt lat="45.71861" lon="6.51138">
        <ele>634.8</ele>
        <time>2023-08-21T06:36:41Z</time>
      </trkpt>
      <trkpt lat="45.71864" lon="6.51144">
        <ele>634.8</ele>
        <time>2023-08-21T06:36:42Z</time>
      </trkpt>
      <trkpt lat="45.71866" lon="6.51151">
        <ele>634.8</ele>
        <time>2023-08-21T06:36:43Z</time>
      </trkpt>
      <trkpt lat="45.71868" lon="6.51158">
        <ele>634.8</ele>
        <time>2023-08-21T06:36:44Z</time>
      </trkpt>
      <trkpt lat="45.71871" lon="6.51164">
        <ele>634.8</ele>
        <time>2023-08-21T06:36:45Z</time>
      </trkpt>
      <trkpt lat="45.71873" lon="6.51171">
        <ele>635</ele>
        <time>2023-08-21T06:36:46Z</time>
      </trkpt>
      <trkpt lat="45.71875" lon="6.51178">
        <ele>635</ele>
        <time>2023-08-21T06:36:47Z</time>
      </trkpt>
      <trkpt lat="45.71877" lon="6.51184">
        <ele>635</ele>
        <time>2023-08-21T06:36:48Z</time>
      </trkpt>
      <trkpt lat="45.71879" lon="6.5119">
        <ele>635</ele>
        <time>2023-08-21T06:36:49Z</time>
      </trkpt>
      <trkpt lat="45.71881" lon="6.51197">
        <ele>635</ele>
        <time>2023-08-21T06:36:50Z</time>
      </trkpt>
      <trkpt lat="45.71883" lon="6.51203">
        <ele>635</ele>
        <time>2023-08-21T06:36:51Z</time>
      </trkpt>
      <trkpt lat="45.71885" lon="6.5121">
        <ele>635</ele>
        <time>2023-08-21T06:36:52Z</time>
      </trkpt>
      <trkpt lat="45.71887" lon="6.51216">
        <ele>635</ele>
        <time>2023-08-21T06:36:53Z</time>
      </trkpt>
      <trkpt lat="45.71889" lon="6.51222">
        <ele>635.4</ele>
        <time>2023-08-21T06:36:54Z</time>
      </trkpt>
      <trkpt lat="45.71891" lon="6.51228">
        <ele>635.4</ele>
        <time>2023-08-21T06:36:55Z</time>
      </trkpt>
      <trkpt lat="45.71893" lon="6.51235">
        <ele>635.4</ele>
        <time>2023-08-21T06:36:56Z</time>
      </trkpt>
      <trkpt lat="45.71894" lon="6.51241">
        <ele>635.4</ele>
        <time>2023-08-21T06:36:57Z</time>
      </trkpt>
      <trkpt lat="45.71896" lon="6.51247">
        <ele>635.4</ele>
        <time>2023-08-21T06:36:58Z</time>
      </trkpt>
      <trkpt lat="45.71898" lon="6.51253">
        <ele>635.8</ele>
        <time>2023-08-21T06:36:59Z</time>
      </trkpt>
      <trkpt lat="45.719" lon="6.5126">
        <ele>635.8</ele>
        <time>2023-08-21T06:37:00Z</time>
      </trkpt>
      <trkpt lat="45.71902" lon="6.51266">
        <ele>635.8</ele>
        <time>2023-08-21T06:37:01Z</time>
      </trkpt>
      <trkpt lat="45.71904" lon="6.51272">
        <ele>636</ele>
        <time>2023-08-21T06:37:02Z</time>
      </trkpt>
      <trkpt lat="45.71906" lon="6.51278">
        <ele>636</ele>
        <time>2023-08-21T06:37:03Z</time>
      </trkpt>
      <trkpt lat="45.71908" lon="6.51285">
        <ele>636</ele>
        <time>2023-08-21T06:37:04Z</time>
      </trkpt>
      <trkpt lat="45.71909" lon="6.51291">
        <ele>636</ele>
        <time>2023-08-21T06:37:05Z</time>
      </trkpt>
      <trkpt lat="45.71911" lon="6.51297">
        <ele>636.2</ele>
        <time>2023-08-21T06:37:06Z</time>
      </trkpt>
      <trkpt lat="45.71913" lon="6.51303">
        <ele>636.4</ele>
        <time>2023-08-21T06:37:07Z</time>
      </trkpt>
      <trkpt lat="45.71915" lon="6.51309">
        <ele>636.4</ele>
        <time>2023-08-21T06:37:08Z</time>
      </trkpt>
      <trkpt lat="45.71917" lon="6.51315">
        <ele>636.4</ele>
        <time>2023-08-21T06:37:09Z</time>
      </trkpt>
      <trkpt lat="45.71919" lon="6.51322">
        <ele>636.4</ele>
        <time>2023-08-21T06:37:10Z</time>
      </trkpt>
      <trkpt lat="45.71921" lon="6.51328">
        <ele>636.4</ele>
        <time>2023-08-21T06:37:11Z</time>
      </trkpt>
      <trkpt lat="45.71923" lon="6.51334">
        <ele>636.6</ele>
        <time>2023-08-21T06:37:12Z</time>
      </trkpt>
      <trkpt lat="45.71925" lon="6.5134">
        <ele>636.6</ele>
        <time>2023-08-21T06:37:13Z</time>
      </trkpt>
      <trkpt lat="45.71926" lon="6.51347">
        <ele>636.6</ele>
        <time>2023-08-21T06:37:14Z</time>
      </trkpt>
      <trkpt lat="45.71929" lon="6.51353">
        <ele>636.6</ele>
        <time>2023-08-21T06:37:15Z</time>
      </trkpt>
      <trkpt lat="45.71931" lon="6.51359">
        <ele>636.8</ele>
        <time>2023-08-21T06:37:16Z</time>
      </trkpt>
      <trkpt lat="45.71933" lon="6.51366">
        <ele>636.8</ele>
        <time>2023-08-21T06:37:17Z</time>
      </trkpt>
      <trkpt lat="45.71935" lon="6.51372">
        <ele>636.8</ele>
        <time>2023-08-21T06:37:18Z</time>
      </trkpt>
      <trkpt lat="45.71937" lon="6.51378">
        <ele>636.8</ele>
        <time>2023-08-21T06:37:19Z</time>
      </trkpt>
      <trkpt lat="45.71938" lon="6.51384">
        <ele>636.8</ele>
        <time>2023-08-21T06:37:20Z</time>
      </trkpt>
      <trkpt lat="45.7194" lon="6.5139">
        <ele>637</ele>
        <time>2023-08-21T06:37:21Z</time>
      </trkpt>
      <trkpt lat="45.71942" lon="6.51396">
        <ele>637.2</ele>
        <time>2023-08-21T06:37:22Z</time>
      </trkpt>
      <trkpt lat="45.71944" lon="6.51402">
        <ele>637.2</ele>
        <time>2023-08-21T06:37:23Z</time>
      </trkpt>
      <trkpt lat="45.71946" lon="6.51408">
        <ele>637.2</ele>
        <time>2023-08-21T06:37:24Z</time>
      </trkpt>
      <trkpt lat="45.71948" lon="6.51413">
        <ele>637.2</ele>
        <time>2023-08-21T06:37:25Z</time>
      </trkpt>
      <trkpt lat="45.7195" lon="6.51419">
        <ele>637.8</ele>
        <time>2023-08-21T06:37:26Z</time>
      </trkpt>
      <trkpt lat="45.71952" lon="6.51425">
        <ele>637.8</ele>
        <time>2023-08-21T06:37:27Z</time>
      </trkpt>
      <trkpt lat="45.71954" lon="6.51431">
        <ele>637.8</ele>
        <time>2023-08-21T06:37:28Z</time>
      </trkpt>
      <trkpt lat="45.71956" lon="6.51437">
        <ele>637.8</ele>
        <time>2023-08-21T06:37:29Z</time>
      </trkpt>
      <trkpt lat="45.71958" lon="6.51443">
        <ele>637.8</ele>
        <time>2023-08-21T06:37:30Z</time>
      </trkpt>
      <trkpt lat="45.7196" lon="6.51449">
        <ele>638</ele>
        <time>2023-08-21T06:37:31Z</time>
      </trkpt>
      <trkpt lat="45.71961" lon="6.51454">
        <ele>638</ele>
        <time>2023-08-21T06:37:32Z</time>
      </trkpt>
      <trkpt lat="45.71964" lon="6.5146">
        <ele>638</ele>
        <time>2023-08-21T06:37:33Z</time>
      </trkpt>
      <trkpt lat="45.71965" lon="6.51466">
        <ele>638</ele>
        <time>2023-08-21T06:37:34Z</time>
      </trkpt>
      <trkpt lat="45.71967" lon="6.51472">
        <ele>638.4</ele>
        <time>2023-08-21T06:37:35Z</time>
      </trkpt>
      <trkpt lat="45.71969" lon="6.51478">
        <ele>638.4</ele>
        <time>2023-08-21T06:37:36Z</time>
      </trkpt>
      <trkpt lat="45.71972" lon="6.51484">
        <ele>638.4</ele>
        <time>2023-08-21T06:37:37Z</time>
      </trkpt>
      <trkpt lat="45.71974" lon="6.5149">
        <ele>638.4</ele>
        <time>2023-08-21T06:37:38Z</time>
      </trkpt>
      <trkpt lat="45.71976" lon="6.51496">
        <ele>639.2</ele>
        <time>2023-08-21T06:37:39Z</time>
      </trkpt>
      <trkpt lat="45.71978" lon="6.51502">
        <ele>639.2</ele>
        <time>2023-08-21T06:37:40Z</time>
      </trkpt>
      <trkpt lat="45.71979" lon="6.51507">
        <ele>639.2</ele>
        <time>2023-08-21T06:37:41Z</time>
      </trkpt>
      <trkpt lat="45.71981" lon="6.51513">
        <ele>639.4</ele>
        <time>2023-08-21T06:37:42Z</time>
      </trkpt>
      <trkpt lat="45.71983" lon="6.51519">
        <ele>639.4</ele>
        <time>2023-08-21T06:37:43Z</time>
      </trkpt>
      <trkpt lat="45.71984" lon="6.51524">
        <ele>639.4</ele>
        <time>2023-08-21T06:37:44Z</time>
      </trkpt>
      <trkpt lat="45.71986" lon="6.5153">
        <ele>639.4</ele>
        <time>2023-08-21T06:37:45Z</time>
      </trkpt>
      <trkpt lat="45.71988" lon="6.51535">
        <ele>639.4</ele>
        <time>2023-08-21T06:37:46Z</time>
      </trkpt>
      <trkpt lat="45.71989" lon="6.5154">
        <ele>640</ele>
        <time>2023-08-21T06:37:47Z</time>
      </trkpt>
      <trkpt lat="45.71991" lon="6.51545">
        <ele>640</ele>
        <time>2023-08-21T06:37:48Z</time>
      </trkpt>
      <trkpt lat="45.71992" lon="6.51551">
        <ele>640</ele>
        <time>2023-08-21T06:37:49Z</time>
      </trkpt>
      <trkpt lat="45.71994" lon="6.51556">
        <ele>640</ele>
        <time>2023-08-21T06:37:50Z</time>
      </trkpt>
      <trkpt lat="45.71995" lon="6.51562">
        <ele>640.4</ele>
        <time>2023-08-21T06:37:51Z</time>
      </trkpt>
      <trkpt lat="45.71997" lon="6.51567">
        <ele>640.4</ele>
        <time>2023-08-21T06:37:52Z</time>
      </trkpt>
      <trkpt lat="45.71998" lon="6.51572">
        <ele>640.2</ele>
        <time>2023-08-21T06:37:53Z</time>
      </trkpt>
      <trkpt lat="45.72" lon="6.51578">
        <ele>640.2</ele>
        <time>2023-08-21T06:37:54Z</time>
      </trkpt>
      <trkpt lat="45.72001" lon="6.51583">
        <ele>640.6</ele>
        <time>2023-08-21T06:37:55Z</time>
      </trkpt>
      <trkpt lat="45.72002" lon="6.51589">
        <ele>640.6</ele>
        <time>2023-08-21T06:37:56Z</time>
      </trkpt>
      <trkpt lat="45.72004" lon="6.51594">
        <ele>640.6</ele>
        <time>2023-08-21T06:37:57Z</time>
      </trkpt>
      <trkpt lat="45.72005" lon="6.516">
        <ele>640.6</ele>
        <time>2023-08-21T06:37:58Z</time>
      </trkpt>
      <trkpt lat="45.72006" lon="6.51606">
        <ele>640.6</ele>
        <time>2023-08-21T06:37:59Z</time>
      </trkpt>
      <trkpt lat="45.72007" lon="6.51612">
        <ele>640.8</ele>
        <time>2023-08-21T06:38:00Z</time>
      </trkpt>
      <trkpt lat="45.72008" lon="6.51617">
        <ele>641</ele>
        <time>2023-08-21T06:38:01Z</time>
      </trkpt>
      <trkpt lat="45.72009" lon="6.51623">
        <ele>641</ele>
        <time>2023-08-21T06:38:02Z</time>
      </trkpt>
      <trkpt lat="45.7201" lon="6.51629">
        <ele>641</ele>
        <time>2023-08-21T06:38:03Z</time>
      </trkpt>
      <trkpt lat="45.72011" lon="6.51635">
        <ele>641</ele>
        <time>2023-08-21T06:38:04Z</time>
      </trkpt>
      <trkpt lat="45.72012" lon="6.51641">
        <ele>641.2</ele>
        <time>2023-08-21T06:38:05Z</time>
      </trkpt>
      <trkpt lat="45.72012" lon="6.51648">
        <ele>641.4</ele>
        <time>2023-08-21T06:38:06Z</time>
      </trkpt>
      <trkpt lat="45.72013" lon="6.51654">
        <ele>641.4</ele>
        <time>2023-08-21T06:38:07Z</time>
      </trkpt>
      <trkpt lat="45.72013" lon="6.5166">
        <ele>641.4</ele>
        <time>2023-08-21T06:38:08Z</time>
      </trkpt>
      <trkpt lat="45.72014" lon="6.51667">
        <ele>641.4</ele>
        <time>2023-08-21T06:38:09Z</time>
      </trkpt>
      <trkpt lat="45.72014" lon="6.51673">
        <ele>641.6</ele>
        <time>2023-08-21T06:38:10Z</time>
      </trkpt>
      <trkpt lat="45.72014" lon="6.51679">
        <ele>641.8</ele>
        <time>2023-08-21T06:38:11Z</time>
      </trkpt>
      <trkpt lat="45.72014" lon="6.51686">
        <ele>641.8</ele>
        <time>2023-08-21T06:38:12Z</time>
      </trkpt>
      <trkpt lat="45.72014" lon="6.51692">
        <ele>641.8</ele>
        <time>2023-08-21T06:38:13Z</time>
      </trkpt>
      <trkpt lat="45.72014" lon="6.51699">
        <ele>641.8</ele>
        <time>2023-08-21T06:38:14Z</time>
      </trkpt>
      <trkpt lat="45.72014" lon="6.51706">
        <ele>641.8</ele>
        <time>2023-08-21T06:38:15Z</time>
      </trkpt>
      <trkpt lat="45.72014" lon="6.51712">
        <ele>642.2</ele>
        <time>2023-08-21T06:38:16Z</time>
      </trkpt>
      <trkpt lat="45.72014" lon="6.51719">
        <ele>642.2</ele>
        <time>2023-08-21T06:38:17Z</time>
      </trkpt>
      <trkpt lat="45.72014" lon="6.51725">
        <ele>642.2</ele>
        <time>2023-08-21T06:38:18Z</time>
      </trkpt>
      <trkpt lat="45.72014" lon="6.51732">
        <ele>642.6</ele>
        <time>2023-08-21T06:38:19Z</time>
      </trkpt>
      <trkpt lat="45.72013" lon="6.51738">
        <ele>642.6</ele>
        <time>2023-08-21T06:38:20Z</time>
      </trkpt>
      <trkpt lat="45.72013" lon="6.51744">
        <ele>642.6</ele>
        <time>2023-08-21T06:38:21Z</time>
      </trkpt>
      <trkpt lat="45.72012" lon="6.51751">
        <ele>642.6</ele>
        <time>2023-08-21T06:38:22Z</time>
      </trkpt>
      <trkpt lat="45.72012" lon="6.51757">
        <ele>643</ele>
        <time>2023-08-21T06:38:23Z</time>
      </trkpt>
      <trkpt lat="45.72012" lon="6.51764">
        <ele>643</ele>
        <time>2023-08-21T06:38:24Z</time>
      </trkpt>
      <trkpt lat="45.72011" lon="6.5177">
        <ele>643</ele>
        <time>2023-08-21T06:38:25Z</time>
      </trkpt>
      <trkpt lat="45.72011" lon="6.51777">
        <ele>643</ele>
        <time>2023-08-21T06:38:26Z</time>
      </trkpt>
      <trkpt lat="45.72011" lon="6.51783">
        <ele>643</ele>
        <time>2023-08-21T06:38:27Z</time>
      </trkpt>
      <trkpt lat="45.72011" lon="6.5179">
        <ele>643.4</ele>
        <time>2023-08-21T06:38:28Z</time>
      </trkpt>
      <trkpt lat="45.72011" lon="6.51797">
        <ele>643.4</ele>
        <time>2023-08-21T06:38:29Z</time>
      </trkpt>
      <trkpt lat="45.7201" lon="6.51804">
        <ele>643.4</ele>
        <time>2023-08-21T06:38:30Z</time>
      </trkpt>
      <trkpt lat="45.7201" lon="6.5181">
        <ele>643.4</ele>
        <time>2023-08-21T06:38:31Z</time>
      </trkpt>
      <trkpt lat="45.7201" lon="6.51817">
        <ele>643.6</ele>
        <time>2023-08-21T06:38:32Z</time>
      </trkpt>
      <trkpt lat="45.7201" lon="6.51824">
        <ele>643.6</ele>
        <time>2023-08-21T06:38:33Z</time>
      </trkpt>
      <trkpt lat="45.7201" lon="6.5183">
        <ele>643.6</ele>
        <time>2023-08-21T06:38:34Z</time>
      </trkpt>
      <trkpt lat="45.7201" lon="6.51837">
        <ele>643.6</ele>
        <time>2023-08-21T06:38:35Z</time>
      </trkpt>
      <trkpt lat="45.72009" lon="6.51844">
        <ele>643.6</ele>
        <time>2023-08-21T06:38:36Z</time>
      </trkpt>
      <trkpt lat="45.72009" lon="6.51851">
        <ele>644</ele>
        <time>2023-08-21T06:38:37Z</time>
      </trkpt>
      <trkpt lat="45.72009" lon="6.51858">
        <ele>644</ele>
        <time>2023-08-21T06:38:38Z</time>
      </trkpt>
      <trkpt lat="45.72008" lon="6.51865">
        <ele>644</ele>
        <time>2023-08-21T06:38:39Z</time>
      </trkpt>
      <trkpt lat="45.72008" lon="6.51871">
        <ele>644.4</ele>
        <time>2023-08-21T06:38:40Z</time>
      </trkpt>
      <trkpt lat="45.72008" lon="6.51878">
        <ele>644.4</ele>
        <time>2023-08-21T06:38:41Z</time>
      </trkpt>
      <trkpt lat="45.72007" lon="6.51884">
        <ele>644.4</ele>
        <time>2023-08-21T06:38:42Z</time>
      </trkpt>
      <trkpt lat="45.72007" lon="6.51891">
        <ele>644.4</ele>
        <time>2023-08-21T06:38:43Z</time>
      </trkpt>
      <trkpt lat="45.72007" lon="6.51898">
        <ele>644.4</ele>
        <time>2023-08-21T06:38:44Z</time>
      </trkpt>
      <trkpt lat="45.72006" lon="6.51905">
        <ele>644.4</ele>
        <time>2023-08-21T06:38:45Z</time>
      </trkpt>
      <trkpt lat="45.72006" lon="6.51912">
        <ele>644.8</ele>
        <time>2023-08-21T06:38:46Z</time>
      </trkpt>
      <trkpt lat="45.72006" lon="6.51919">
        <ele>644.8</ele>
        <time>2023-08-21T06:38:47Z</time>
      </trkpt>
      <trkpt lat="45.72006" lon="6.51926">
        <ele>644.8</ele>
        <time>2023-08-21T06:38:48Z</time>
      </trkpt>
      <trkpt lat="45.72005" lon="6.51933">
        <ele>644.8</ele>
        <time>2023-08-21T06:38:49Z</time>
      </trkpt>
      <trkpt lat="45.72005" lon="6.51939">
        <ele>644.8</ele>
        <time>2023-08-21T06:38:50Z</time>
      </trkpt>
      <trkpt lat="45.72005" lon="6.51946">
        <ele>645.2</ele>
        <time>2023-08-21T06:38:51Z</time>
      </trkpt>
      <trkpt lat="45.72005" lon="6.51953">
        <ele>645.2</ele>
        <time>2023-08-21T06:38:52Z</time>
      </trkpt>
      <trkpt lat="45.72006" lon="6.5196">
        <ele>645.2</ele>
        <time>2023-08-21T06:38:53Z</time>
      </trkpt>
      <trkpt lat="45.72006" lon="6.51967">
        <ele>645.2</ele>
        <time>2023-08-21T06:38:54Z</time>
      </trkpt>
      <trkpt lat="45.72007" lon="6.51974">
        <ele>645.4</ele>
        <time>2023-08-21T06:38:55Z</time>
      </trkpt>
      <trkpt lat="45.72008" lon="6.5198">
        <ele>645.4</ele>
        <time>2023-08-21T06:38:56Z</time>
      </trkpt>
      <trkpt lat="45.72008" lon="6.51987">
        <ele>645.4</ele>
        <time>2023-08-21T06:38:57Z</time>
      </trkpt>
      <trkpt lat="45.72009" lon="6.51994">
        <ele>645.6</ele>
        <time>2023-08-21T06:38:58Z</time>
      </trkpt>
      <trkpt lat="45.7201" lon="6.52">
        <ele>645.8</ele>
        <time>2023-08-21T06:38:59Z</time>
      </trkpt>
      <trkpt lat="45.72012" lon="6.52007">
        <ele>645.8</ele>
        <time>2023-08-21T06:39:00Z</time>
      </trkpt>
      <trkpt lat="45.72013" lon="6.52013">
        <ele>645.8</ele>
        <time>2023-08-21T06:39:01Z</time>
      </trkpt>
      <trkpt lat="45.72014" lon="6.5202">
        <ele>645.8</ele>
        <time>2023-08-21T06:39:02Z</time>
      </trkpt>
      <trkpt lat="45.72016" lon="6.52026">
        <ele>645.8</ele>
        <time>2023-08-21T06:39:03Z</time>
      </trkpt>
      <trkpt lat="45.72018" lon="6.52033">
        <ele>646</ele>
        <time>2023-08-21T06:39:04Z</time>
      </trkpt>
      <trkpt lat="45.7202" lon="6.52039">
        <ele>646</ele>
        <time>2023-08-21T06:39:05Z</time>
      </trkpt>
      <trkpt lat="45.72022" lon="6.52045">
        <ele>646</ele>
        <time>2023-08-21T06:39:06Z</time>
      </trkpt>
      <trkpt lat="45.72024" lon="6.52051">
        <ele>646</ele>
        <time>2023-08-21T06:39:07Z</time>
      </trkpt>
      <trkpt lat="45.72027" lon="6.52057">
        <ele>646.4</ele>
        <time>2023-08-21T06:39:08Z</time>
      </trkpt>
      <trkpt lat="45.72029" lon="6.52063">
        <ele>646.4</ele>
        <time>2023-08-21T06:39:09Z</time>
      </trkpt>
      <trkpt lat="45.72032" lon="6.52068">
        <ele>646.4</ele>
        <time>2023-08-21T06:39:10Z</time>
      </trkpt>
      <trkpt lat="45.72034" lon="6.52074">
        <ele>646.4</ele>
        <time>2023-08-21T06:39:11Z</time>
      </trkpt>
      <trkpt lat="45.72037" lon="6.52079">
        <ele>646.6</ele>
        <time>2023-08-21T06:39:12Z</time>
      </trkpt>
      <trkpt lat="45.7204" lon="6.52084">
        <ele>646.6</ele>
        <time>2023-08-21T06:39:13Z</time>
      </trkpt>
      <trkpt lat="45.72044" lon="6.52089">
        <ele>646.6</ele>
        <time>2023-08-21T06:39:14Z</time>
      </trkpt>
      <trkpt lat="45.72047" lon="6.52094">
        <ele>646.6</ele>
        <time>2023-08-21T06:39:15Z</time>
      </trkpt>
      <trkpt lat="45.7205" lon="6.52099">
        <ele>646.8</ele>
        <time>2023-08-21T06:39:16Z</time>
      </trkpt>
      <trkpt lat="45.72053" lon="6.52104">
        <ele>647</ele>
        <time>2023-08-21T06:39:17Z</time>
      </trkpt>
      <trkpt lat="45.72056" lon="6.52109">
        <ele>647</ele>
        <time>2023-08-21T06:39:18Z</time>
      </trkpt>
      <trkpt lat="45.72059" lon="6.52114">
        <ele>647</ele>
        <time>2023-08-21T06:39:19Z</time>
      </trkpt>
      <trkpt lat="45.72062" lon="6.52118">
        <ele>647.2</ele>
        <time>2023-08-21T06:39:20Z</time>
      </trkpt>
      <trkpt lat="45.72065" lon="6.52123">
        <ele>647.2</ele>
        <time>2023-08-21T06:39:21Z</time>
      </trkpt>
      <trkpt lat="45.72068" lon="6.52128">
        <ele>647.2</ele>
        <time>2023-08-21T06:39:22Z</time>
      </trkpt>
      <trkpt lat="45.72072" lon="6.52132">
        <ele>647.2</ele>
        <time>2023-08-21T06:39:23Z</time>
      </trkpt>
      <trkpt lat="45.72075" lon="6.52137">
        <ele>647.6</ele>
        <time>2023-08-21T06:39:24Z</time>
      </trkpt>
      <trkpt lat="45.72078" lon="6.52141">
        <ele>647.6</ele>
        <time>2023-08-21T06:39:25Z</time>
      </trkpt>
      <trkpt lat="45.72082" lon="6.52146">
        <ele>647.6</ele>
        <time>2023-08-21T06:39:26Z</time>
      </trkpt>
      <trkpt lat="45.72085" lon="6.5215">
        <ele>647.6</ele>
        <time>2023-08-21T06:39:27Z</time>
      </trkpt>
      <trkpt lat="45.72088" lon="6.52154">
        <ele>647.6</ele>
        <time>2023-08-21T06:39:28Z</time>
      </trkpt>
      <trkpt lat="45.72092" lon="6.52157">
        <ele>647.6</ele>
        <time>2023-08-21T06:39:29Z</time>
      </trkpt>
      <trkpt lat="45.72096" lon="6.52161">
        <ele>648</ele>
        <time>2023-08-21T06:39:30Z</time>
      </trkpt>
      <trkpt lat="45.72099" lon="6.52165">
        <ele>648.2</ele>
        <time>2023-08-21T06:39:31Z</time>
      </trkpt>
      <trkpt lat="45.72103" lon="6.52168">
        <ele>648.2</ele>
        <time>2023-08-21T06:39:32Z</time>
      </trkpt>
      <trkpt lat="45.72107" lon="6.52171">
        <ele>648.2</ele>
        <time>2023-08-21T06:39:33Z</time>
      </trkpt>
      <trkpt lat="45.7211" lon="6.52173">
        <ele>648.6</ele>
        <time>2023-08-21T06:39:34Z</time>
      </trkpt>
      <trkpt lat="45.72114" lon="6.52175">
        <ele>648.6</ele>
        <time>2023-08-21T06:39:35Z</time>
      </trkpt>
      <trkpt lat="45.72118" lon="6.52177">
        <ele>648.8</ele>
        <time>2023-08-21T06:39:36Z</time>
      </trkpt>
      <trkpt lat="45.72122" lon="6.52179">
        <ele>648.8</ele>
        <time>2023-08-21T06:39:37Z</time>
      </trkpt>
      <trkpt lat="45.72126" lon="6.5218">
        <ele>649.2</ele>
        <time>2023-08-21T06:39:38Z</time>
      </trkpt>
      <trkpt lat="45.72129" lon="6.52181">
        <ele>649.6</ele>
        <time>2023-08-21T06:39:39Z</time>
      </trkpt>
      <trkpt lat="45.72133" lon="6.52181">
        <ele>649.6</ele>
        <time>2023-08-21T06:39:40Z</time>
      </trkpt>
      <trkpt lat="45.72137" lon="6.52181">
        <ele>649.6</ele>
        <time>2023-08-21T06:39:41Z</time>
      </trkpt>
      <trkpt lat="45.72141" lon="6.52181">
        <ele>649.6</ele>
        <time>2023-08-21T06:39:42Z</time>
      </trkpt>
      <trkpt lat="45.72145" lon="6.52181">
        <ele>649.6</ele>
        <time>2023-08-21T06:39:43Z</time>
      </trkpt>
      <trkpt lat="45.72149" lon="6.5218">
        <ele>650.2</ele>
        <time>2023-08-21T06:39:44Z</time>
      </trkpt>
      <trkpt lat="45.72153" lon="6.52179">
        <ele>650.2</ele>
        <time>2023-08-21T06:39:45Z</time>
      </trkpt>
      <trkpt lat="45.72156" lon="6.52178">
        <ele>650.2</ele>
        <time>2023-08-21T06:39:46Z</time>
      </trkpt>
      <trkpt lat="45.7216" lon="6.52176">
        <ele>650.6</ele>
        <time>2023-08-21T06:39:47Z</time>
      </trkpt>
      <trkpt lat="45.72164" lon="6.52175">
        <ele>650.6</ele>
        <time>2023-08-21T06:39:48Z</time>
      </trkpt>
      <trkpt lat="45.72168" lon="6.52174">
        <ele>650.8</ele>
        <time>2023-08-21T06:39:49Z</time>
      </trkpt>
      <trkpt lat="45.72172" lon="6.52172">
        <ele>650.8</ele>
        <time>2023-08-21T06:39:50Z</time>
      </trkpt>
      <trkpt lat="45.72176" lon="6.52171">
        <ele>650.8</ele>
        <time>2023-08-21T06:39:51Z</time>
      </trkpt>
      <trkpt lat="45.7218" lon="6.5217">
        <ele>651.2</ele>
        <time>2023-08-21T06:39:52Z</time>
      </trkpt>
      <trkpt lat="45.72184" lon="6.5217">
        <ele>651.2</ele>
        <time>2023-08-21T06:39:53Z</time>
      </trkpt>
      <trkpt lat="45.72189" lon="6.5217">
        <ele>651.2</ele>
        <time>2023-08-21T06:39:54Z</time>
      </trkpt>
      <trkpt lat="45.72193" lon="6.5217">
        <ele>651.2</ele>
        <time>2023-08-21T06:39:55Z</time>
      </trkpt>
      <trkpt lat="45.72197" lon="6.5217">
        <ele>651.2</ele>
        <time>2023-08-21T06:39:56Z</time>
      </trkpt>
      <trkpt lat="45.72201" lon="6.52169">
        <ele>651.4</ele>
        <time>2023-08-21T06:39:57Z</time>
      </trkpt>
      <trkpt lat="45.72205" lon="6.5217">
        <ele>651.4</ele>
        <time>2023-08-21T06:39:58Z</time>
      </trkpt>
      <trkpt lat="45.72209" lon="6.5217">
        <ele>651.4</ele>
        <time>2023-08-21T06:39:59Z</time>
      </trkpt>
      <trkpt lat="45.72213" lon="6.52171">
        <ele>651.4</ele>
        <time>2023-08-21T06:40:00Z</time>
      </trkpt>
      <trkpt lat="45.72216" lon="6.52173">
        <ele>652</ele>
        <time>2023-08-21T06:40:01Z</time>
      </trkpt>
      <trkpt lat="45.72219" lon="6.52175">
        <ele>652</ele>
        <time>2023-08-21T06:40:02Z</time>
      </trkpt>
      <trkpt lat="45.72222" lon="6.52177">
        <ele>652</ele>
        <time>2023-08-21T06:40:03Z</time>
      </trkpt>
      <trkpt lat="45.72225" lon="6.52179">
        <ele>652</ele>
        <time>2023-08-21T06:40:04Z</time>
      </trkpt>
      <trkpt lat="45.72229" lon="6.52181">
        <ele>652.2</ele>
        <time>2023-08-21T06:40:05Z</time>
      </trkpt>
      <trkpt lat="45.72232" lon="6.52183">
        <ele>652.4</ele>
        <time>2023-08-21T06:40:06Z</time>
      </trkpt>
      <trkpt lat="45.72235" lon="6.52186">
        <ele>652.4</ele>
        <time>2023-08-21T06:40:07Z</time>
      </trkpt>
      <trkpt lat="45.72238" lon="6.52188">
        <ele>652.4</ele>
        <time>2023-08-21T06:40:08Z</time>
      </trkpt>
      <trkpt lat="45.72241" lon="6.52191">
        <ele>653</ele>
        <time>2023-08-21T06:40:09Z</time>
      </trkpt>
      <trkpt lat="45.72243" lon="6.52194">
        <ele>653</ele>
        <time>2023-08-21T06:40:10Z</time>
      </trkpt>
      <trkpt lat="45.72246" lon="6.52197">
        <ele>653.2</ele>
        <time>2023-08-21T06:40:11Z</time>
      </trkpt>
      <trkpt lat="45.72249" lon="6.522">
        <ele>653.2</ele>
        <time>2023-08-21T06:40:12Z</time>
      </trkpt>
      <trkpt lat="45.72251" lon="6.52203">
        <ele>653.2</ele>
        <time>2023-08-21T06:40:13Z</time>
      </trkpt>
      <trkpt lat="45.72254" lon="6.52207">
        <ele>653.2</ele>
        <time>2023-08-21T06:40:14Z</time>
      </trkpt>
      <trkpt lat="45.72256" lon="6.5221">
        <ele>654</ele>
        <time>2023-08-21T06:40:15Z</time>
      </trkpt>
      <trkpt lat="45.72259" lon="6.52213">
        <ele>654</ele>
        <time>2023-08-21T06:40:16Z</time>
      </trkpt>
      <trkpt lat="45.72262" lon="6.52216">
        <ele>654</ele>
        <time>2023-08-21T06:40:17Z</time>
      </trkpt>
      <trkpt lat="45.72265" lon="6.52219">
        <ele>654</ele>
        <time>2023-08-21T06:40:18Z</time>
      </trkpt>
      <trkpt lat="45.72268" lon="6.52223">
        <ele>654.6</ele>
        <time>2023-08-21T06:40:19Z</time>
      </trkpt>
      <trkpt lat="45.7227" lon="6.52226">
        <ele>654.8</ele>
        <time>2023-08-21T06:40:20Z</time>
      </trkpt>
      <trkpt lat="45.72273" lon="6.52229">
        <ele>654.8</ele>
        <time>2023-08-21T06:40:21Z</time>
      </trkpt>
      <trkpt lat="45.72275" lon="6.52233">
        <ele>654.8</ele>
        <time>2023-08-21T06:40:22Z</time>
      </trkpt>
      <trkpt lat="45.72278" lon="6.52236">
        <ele>654.8</ele>
        <time>2023-08-21T06:40:23Z</time>
      </trkpt>
      <trkpt lat="45.7228" lon="6.52239">
        <ele>655.4</ele>
        <time>2023-08-21T06:40:24Z</time>
      </trkpt>
      <trkpt lat="45.72284" lon="6.52243">
        <ele>655.4</ele>
        <time>2023-08-21T06:40:25Z</time>
      </trkpt>
      <trkpt lat="45.72286" lon="6.52247">
        <ele>655.4</ele>
        <time>2023-08-21T06:40:26Z</time>
      </trkpt>
      <trkpt lat="45.72289" lon="6.5225">
        <ele>655.4</ele>
        <time>2023-08-21T06:40:27Z</time>
      </trkpt>
      <trkpt lat="45.72291" lon="6.52254">
        <ele>655.4</ele>
        <time>2023-08-21T06:40:28Z</time>
      </trkpt>
      <trkpt lat="45.72293" lon="6.52257">
        <ele>656</ele>
        <time>2023-08-21T06:40:29Z</time>
      </trkpt>
      <trkpt lat="45.72296" lon="6.52261">
        <ele>656</ele>
        <time>2023-08-21T06:40:30Z</time>
      </trkpt>
      <trkpt lat="45.72298" lon="6.52264">
        <ele>656</ele>
        <time>2023-08-21T06:40:31Z</time>
      </trkpt>
      <trkpt lat="45.723" lon="6.52268">
        <ele>656.4</ele>
        <time>2023-08-21T06:40:32Z</time>
      </trkpt>
      <trkpt lat="45.72303" lon="6.52272">
        <ele>656.6</ele>
        <time>2023-08-21T06:40:33Z</time>
      </trkpt>
      <trkpt lat="45.72305" lon="6.52276">
        <ele>656.6</ele>
        <time>2023-08-21T06:40:34Z</time>
      </trkpt>
      <trkpt lat="45.72308" lon="6.52279">
        <ele>656.6</ele>
        <time>2023-08-21T06:40:35Z</time>
      </trkpt>
      <trkpt lat="45.7231" lon="6.52283">
        <ele>656.6</ele>
        <time>2023-08-21T06:40:36Z</time>
      </trkpt>
      <trkpt lat="45.72312" lon="6.52287">
        <ele>657</ele>
        <time>2023-08-21T06:40:37Z</time>
      </trkpt>
      <trkpt lat="45.72314" lon="6.52291">
        <ele>657</ele>
        <time>2023-08-21T06:40:38Z</time>
      </trkpt>
      <trkpt lat="45.72316" lon="6.52295">
        <ele>657</ele>
        <time>2023-08-21T06:40:39Z</time>
      </trkpt>
      <trkpt lat="45.72318" lon="6.52299">
        <ele>657</ele>
        <time>2023-08-21T06:40:40Z</time>
      </trkpt>
      <trkpt lat="45.7232" lon="6.52303">
        <ele>657.4</ele>
        <time>2023-08-21T06:40:41Z</time>
      </trkpt>
      <trkpt lat="45.72322" lon="6.52307">
        <ele>657.4</ele>
        <time>2023-08-21T06:40:42Z</time>
      </trkpt>
      <trkpt lat="45.72323" lon="6.52312">
        <ele>657.4</ele>
        <time>2023-08-21T06:40:43Z</time>
      </trkpt>
      <trkpt lat="45.72325" lon="6.52316">
        <ele>657.4</ele>
        <time>2023-08-21T06:40:44Z</time>
      </trkpt>
      <trkpt lat="45.72327" lon="6.5232">
        <ele>658</ele>
        <time>2023-08-21T06:40:45Z</time>
      </trkpt>
      <trkpt lat="45.72328" lon="6.52324">
        <ele>658.2</ele>
        <time>2023-08-21T06:40:46Z</time>
      </trkpt>
      <trkpt lat="45.7233" lon="6.52328">
        <ele>658.2</ele>
        <time>2023-08-21T06:40:47Z</time>
      </trkpt>
      <trkpt lat="45.72332" lon="6.52332">
        <ele>658.2</ele>
        <time>2023-08-21T06:40:48Z</time>
      </trkpt>
      <trkpt lat="45.72334" lon="6.52336">
        <ele>658.6</ele>
        <time>2023-08-21T06:40:49Z</time>
      </trkpt>
      <trkpt lat="45.72335" lon="6.5234">
        <ele>658.6</ele>
        <time>2023-08-21T06:40:50Z</time>
      </trkpt>
      <trkpt lat="45.72337" lon="6.52343">
        <ele>658.8</ele>
        <time>2023-08-21T06:40:51Z</time>
      </trkpt>
      <trkpt lat="45.72339" lon="6.52347">
        <ele>658.8</ele>
        <time>2023-08-21T06:40:52Z</time>
      </trkpt>
      <trkpt lat="45.72341" lon="6.52351">
        <ele>658.8</ele>
        <time>2023-08-21T06:40:53Z</time>
      </trkpt>
      <trkpt lat="45.72342" lon="6.52355">
        <ele>659.4</ele>
        <time>2023-08-21T06:40:54Z</time>
      </trkpt>
      <trkpt lat="45.72343" lon="6.52359">
        <ele>659.4</ele>
        <time>2023-08-21T06:40:55Z</time>
      </trkpt>
      <trkpt lat="45.72345" lon="6.52363">
        <ele>659.4</ele>
        <time>2023-08-21T06:40:56Z</time>
      </trkpt>
      <trkpt lat="45.72347" lon="6.52367">
        <ele>659.4</ele>
        <time>2023-08-21T06:40:57Z</time>
      </trkpt>
      <trkpt lat="45.72349" lon="6.52371">
        <ele>659.4</ele>
        <time>2023-08-21T06:40:58Z</time>
      </trkpt>
      <trkpt lat="45.7235" lon="6.52375">
        <ele>660</ele>
        <time>2023-08-21T06:40:59Z</time>
      </trkpt>
      <trkpt lat="45.72352" lon="6.52378">
        <ele>660.2</ele>
        <time>2023-08-21T06:41:00Z</time>
      </trkpt>
      <trkpt lat="45.72354" lon="6.52382">
        <ele>660.2</ele>
        <time>2023-08-21T06:41:01Z</time>
      </trkpt>
      <trkpt lat="45.72355" lon="6.52386">
        <ele>660.2</ele>
        <time>2023-08-21T06:41:02Z</time>
      </trkpt>
      <trkpt lat="45.72357" lon="6.5239">
        <ele>661</ele>
        <time>2023-08-21T06:41:03Z</time>
      </trkpt>
      <trkpt lat="45.72359" lon="6.52393">
        <ele>661</ele>
        <time>2023-08-21T06:41:04Z</time>
      </trkpt>
      <trkpt lat="45.72361" lon="6.52397">
        <ele>661.2</ele>
        <time>2023-08-21T06:41:05Z</time>
      </trkpt>
      <trkpt lat="45.72363" lon="6.52401">
        <ele>661.2</ele>
        <time>2023-08-21T06:41:06Z</time>
      </trkpt>
      <trkpt lat="45.72365" lon="6.52405">
        <ele>661.8</ele>
        <time>2023-08-21T06:41:07Z</time>
      </trkpt>
      <trkpt lat="45.72367" lon="6.52409">
        <ele>662</ele>
        <time>2023-08-21T06:41:08Z</time>
      </trkpt>
      <trkpt lat="45.72369" lon="6.52413">
        <ele>662</ele>
        <time>2023-08-21T06:41:09Z</time>
      </trkpt>
      <trkpt lat="45.7237" lon="6.52417">
        <ele>662</ele>
        <time>2023-08-21T06:41:10Z</time>
      </trkpt>
      <trkpt lat="45.72372" lon="6.52421">
        <ele>662</ele>
        <time>2023-08-21T06:41:11Z</time>
      </trkpt>
      <trkpt lat="45.72374" lon="6.52425">
        <ele>662.6</ele>
        <time>2023-08-21T06:41:12Z</time>
      </trkpt>
      <trkpt lat="45.72376" lon="6.52429">
        <ele>663</ele>
        <time>2023-08-21T06:41:13Z</time>
      </trkpt>
      <trkpt lat="45.72377" lon="6.52432">
        <ele>663</ele>
        <time>2023-08-21T06:41:14Z</time>
      </trkpt>
      <trkpt lat="45.72379" lon="6.52436">
        <ele>663</ele>
        <time>2023-08-21T06:41:15Z</time>
      </trkpt>
      <trkpt lat="45.72381" lon="6.5244">
        <ele>663.4</ele>
        <time>2023-08-21T06:41:16Z</time>
      </trkpt>
      <trkpt lat="45.72382" lon="6.52444">
        <ele>663.4</ele>
        <time>2023-08-21T06:41:17Z</time>
      </trkpt>
      <trkpt lat="45.72384" lon="6.52448">
        <ele>663.6</ele>
        <time>2023-08-21T06:41:18Z</time>
      </trkpt>
      <trkpt lat="45.72385" lon="6.52451">
        <ele>663.6</ele>
        <time>2023-08-21T06:41:19Z</time>
      </trkpt>
      <trkpt lat="45.72387" lon="6.52455">
        <ele>663.6</ele>
        <time>2023-08-21T06:41:20Z</time>
      </trkpt>
      <trkpt lat="45.72388" lon="6.52459">
        <ele>664.4</ele>
        <time>2023-08-21T06:41:21Z</time>
      </trkpt>
      <trkpt lat="45.7239" lon="6.52463">
        <ele>664.4</ele>
        <time>2023-08-21T06:41:22Z</time>
      </trkpt>
      <trkpt lat="45.72391" lon="6.52467">
        <ele>664.4</ele>
        <time>2023-08-21T06:41:23Z</time>
      </trkpt>
      <trkpt lat="45.72393" lon="6.52471">
        <ele>664.4</ele>
        <time>2023-08-21T06:41:24Z</time>
      </trkpt>
      <trkpt lat="45.72395" lon="6.52474">
        <ele>664.8</ele>
        <time>2023-08-21T06:41:25Z</time>
      </trkpt>
      <trkpt lat="45.72396" lon="6.52478">
        <ele>664.8</ele>
        <time>2023-08-21T06:41:26Z</time>
      </trkpt>
      <trkpt lat="45.72398" lon="6.52482">
        <ele>665</ele>
        <time>2023-08-21T06:41:27Z</time>
      </trkpt>
      <trkpt lat="45.72399" lon="6.52486">
        <ele>665</ele>
        <time>2023-08-21T06:41:28Z</time>
      </trkpt>
      <trkpt lat="45.72401" lon="6.5249">
        <ele>665</ele>
        <time>2023-08-21T06:41:29Z</time>
      </trkpt>
      <trkpt lat="45.72402" lon="6.52494">
        <ele>665.8</ele>
        <time>2023-08-21T06:41:30Z</time>
      </trkpt>
      <trkpt lat="45.72403" lon="6.52498">
        <ele>665.8</ele>
        <time>2023-08-21T06:41:31Z</time>
      </trkpt>
      <trkpt lat="45.72405" lon="6.52502">
        <ele>665.8</ele>
        <time>2023-08-21T06:41:32Z</time>
      </trkpt>
      <trkpt lat="45.72407" lon="6.52506">
        <ele>665.8</ele>
        <time>2023-08-21T06:41:33Z</time>
      </trkpt>
      <trkpt lat="45.72408" lon="6.52509">
        <ele>666.4</ele>
        <time>2023-08-21T06:41:34Z</time>
      </trkpt>
      <trkpt lat="45.7241" lon="6.52513">
        <ele>666.8</ele>
        <time>2023-08-21T06:41:35Z</time>
      </trkpt>
      <trkpt lat="45.72411" lon="6.52517">
        <ele>666.8</ele>
        <time>2023-08-21T06:41:36Z</time>
      </trkpt>
      <trkpt lat="45.72413" lon="6.52522">
        <ele>666.8</ele>
        <time>2023-08-21T06:41:37Z</time>
      </trkpt>
      <trkpt lat="45.72414" lon="6.52526">
        <ele>666.8</ele>
        <time>2023-08-21T06:41:38Z</time>
      </trkpt>
      <trkpt lat="45.72415" lon="6.5253">
        <ele>666.8</ele>
        <time>2023-08-21T06:41:39Z</time>
      </trkpt>
      <trkpt lat="45.72416" lon="6.52534">
        <ele>666.8</ele>
        <time>2023-08-21T06:41:40Z</time>
      </trkpt>
      <trkpt lat="45.72418" lon="6.52538">
        <ele>667.6</ele>
        <time>2023-08-21T06:41:41Z</time>
      </trkpt>
      <trkpt lat="45.72419" lon="6.52542">
        <ele>667.6</ele>
        <time>2023-08-21T06:41:42Z</time>
      </trkpt>
      <trkpt lat="45.7242" lon="6.52546">
        <ele>667.6</ele>
        <time>2023-08-21T06:41:43Z</time>
      </trkpt>
      <trkpt lat="45.72422" lon="6.5255">
        <ele>668.2</ele>
        <time>2023-08-21T06:41:44Z</time>
      </trkpt>
      <trkpt lat="45.72423" lon="6.52554">
        <ele>668.2</ele>
        <time>2023-08-21T06:41:45Z</time>
      </trkpt>
      <trkpt lat="45.72424" lon="6.52558">
        <ele>668.2</ele>
        <time>2023-08-21T06:41:46Z</time>
      </trkpt>
      <trkpt lat="45.72424" lon="6.52562">
        <ele>668.2</ele>
        <time>2023-08-21T06:41:47Z</time>
      </trkpt>
      <trkpt lat="45.72425" lon="6.52567">
        <ele>668.2</ele>
        <time>2023-08-21T06:41:48Z</time>
      </trkpt>
      <trkpt lat="45.72426" lon="6.52571">
        <ele>669</ele>
        <time>2023-08-21T06:41:49Z</time>
      </trkpt>
      <trkpt lat="45.72426" lon="6.52575">
        <ele>669</ele>
        <time>2023-08-21T06:41:50Z</time>
      </trkpt>
      <trkpt lat="45.72427" lon="6.52579">
        <ele>669</ele>
        <time>2023-08-21T06:41:51Z</time>
      </trkpt>
      <trkpt lat="45.72428" lon="6.52584">
        <ele>669.6</ele>
        <time>2023-08-21T06:41:52Z</time>
      </trkpt>
      <trkpt lat="45.72429" lon="6.52588">
        <ele>669.6</ele>
        <time>2023-08-21T06:41:53Z</time>
      </trkpt>
      <trkpt lat="45.7243" lon="6.52593">
        <ele>669.8</ele>
        <time>2023-08-21T06:41:54Z</time>
      </trkpt>
      <trkpt lat="45.7243" lon="6.52597">
        <ele>669.8</ele>
        <time>2023-08-21T06:41:55Z</time>
      </trkpt>
      <trkpt lat="45.72431" lon="6.52601">
        <ele>669.8</ele>
        <time>2023-08-21T06:41:56Z</time>
      </trkpt>
      <trkpt lat="45.72431" lon="6.52606">
        <ele>670.2</ele>
        <time>2023-08-21T06:41:57Z</time>
      </trkpt>
      <trkpt lat="45.72432" lon="6.5261">
        <ele>670.4</ele>
        <time>2023-08-21T06:41:58Z</time>
      </trkpt>
      <trkpt lat="45.72433" lon="6.52614">
        <ele>670.4</ele>
        <time>2023-08-21T06:41:59Z</time>
      </trkpt>
      <trkpt lat="45.72433" lon="6.52619">
        <ele>670.4</ele>
        <time>2023-08-21T06:42:00Z</time>
      </trkpt>
      <trkpt lat="45.72435" lon="6.52623">
        <ele>670.4</ele>
        <time>2023-08-21T06:42:01Z</time>
      </trkpt>
      <trkpt lat="45.72436" lon="6.52627">
        <ele>671.2</ele>
        <time>2023-08-21T06:42:02Z</time>
      </trkpt>
      <trkpt lat="45.72436" lon="6.52631">
        <ele>671.2</ele>
        <time>2023-08-21T06:42:03Z</time>
      </trkpt>
      <trkpt lat="45.72437" lon="6.52636">
        <ele>671.2</ele>
        <time>2023-08-21T06:42:04Z</time>
      </trkpt>
      <trkpt lat="45.72438" lon="6.5264">
        <ele>671.8</ele>
        <time>2023-08-21T06:42:05Z</time>
      </trkpt>
      <trkpt lat="45.72439" lon="6.52644">
        <ele>671.8</ele>
        <time>2023-08-21T06:42:06Z</time>
      </trkpt>
      <trkpt lat="45.72439" lon="6.52648">
        <ele>672.2</ele>
        <time>2023-08-21T06:42:07Z</time>
      </trkpt>
      <trkpt lat="45.7244" lon="6.52653">
        <ele>672.2</ele>
        <time>2023-08-21T06:42:08Z</time>
      </trkpt>
      <trkpt lat="45.7244" lon="6.52657">
        <ele>672.2</ele>
        <time>2023-08-21T06:42:09Z</time>
      </trkpt>
      <trkpt lat="45.72441" lon="6.52661">
        <ele>672.6</ele>
        <time>2023-08-21T06:42:10Z</time>
      </trkpt>
      <trkpt lat="45.72442" lon="6.52665">
        <ele>672.8</ele>
        <time>2023-08-21T06:42:11Z</time>
      </trkpt>
      <trkpt lat="45.72442" lon="6.52669">
        <ele>672.8</ele>
        <time>2023-08-21T06:42:12Z</time>
      </trkpt>
      <trkpt lat="45.72443" lon="6.52673">
        <ele>672.8</ele>
        <time>2023-08-21T06:42:13Z</time>
      </trkpt>
      <trkpt lat="45.72444" lon="6.52677">
        <ele>673.4</ele>
        <time>2023-08-21T06:42:14Z</time>
      </trkpt>
      <trkpt lat="45.72445" lon="6.52681">
        <ele>673.6</ele>
        <time>2023-08-21T06:42:15Z</time>
      </trkpt>
      <trkpt lat="45.72446" lon="6.52686">
        <ele>673.6</ele>
        <time>2023-08-21T06:42:16Z</time>
      </trkpt>
      <trkpt lat="45.72446" lon="6.5269">
        <ele>673.6</ele>
        <time>2023-08-21T06:42:17Z</time>
      </trkpt>
      <trkpt lat="45.72447" lon="6.52694">
        <ele>673.6</ele>
        <time>2023-08-21T06:42:18Z</time>
      </trkpt>
      <trkpt lat="45.72448" lon="6.52698">
        <ele>673.6</ele>
        <time>2023-08-21T06:42:19Z</time>
      </trkpt>
      <trkpt lat="45.72449" lon="6.52702">
        <ele>674</ele>
        <time>2023-08-21T06:42:20Z</time>
      </trkpt>
      <trkpt lat="45.7245" lon="6.52706">
        <ele>674.4</ele>
        <time>2023-08-21T06:42:21Z</time>
      </trkpt>
      <trkpt lat="45.72451" lon="6.5271">
        <ele>674.4</ele>
        <time>2023-08-21T06:42:22Z</time>
      </trkpt>
      <trkpt lat="45.72452" lon="6.52714">
        <ele>674.4</ele>
        <time>2023-08-21T06:42:23Z</time>
      </trkpt>
      <trkpt lat="45.72453" lon="6.52718">
        <ele>674.4</ele>
        <time>2023-08-21T06:42:24Z</time>
      </trkpt>
      <trkpt lat="45.72455" lon="6.52722">
        <ele>675</ele>
        <time>2023-08-21T06:42:25Z</time>
      </trkpt>
      <trkpt lat="45.72456" lon="6.52726">
        <ele>675</ele>
        <time>2023-08-21T06:42:26Z</time>
      </trkpt>
      <trkpt lat="45.72457" lon="6.5273">
        <ele>675</ele>
        <time>2023-08-21T06:42:27Z</time>
      </trkpt>
      <trkpt lat="45.72459" lon="6.52734">
        <ele>675</ele>
        <time>2023-08-21T06:42:28Z</time>
      </trkpt>
      <trkpt lat="45.7246" lon="6.52738">
        <ele>675.4</ele>
        <time>2023-08-21T06:42:29Z</time>
      </trkpt>
      <trkpt lat="45.72461" lon="6.52742">
        <ele>675.4</ele>
        <time>2023-08-21T06:42:30Z</time>
      </trkpt>
      <trkpt lat="45.72462" lon="6.52746">
        <ele>675.4</ele>
        <time>2023-08-21T06:42:31Z</time>
      </trkpt>
      <trkpt lat="45.72464" lon="6.5275">
        <ele>675.4</ele>
        <time>2023-08-21T06:42:32Z</time>
      </trkpt>
      <trkpt lat="45.72465" lon="6.52754">
        <ele>676</ele>
        <time>2023-08-21T06:42:33Z</time>
      </trkpt>
      <trkpt lat="45.72467" lon="6.52758">
        <ele>676</ele>
        <time>2023-08-21T06:42:34Z</time>
      </trkpt>
      <trkpt lat="45.72468" lon="6.52762">
        <ele>676</ele>
        <time>2023-08-21T06:42:35Z</time>
      </trkpt>
      <trkpt lat="45.7247" lon="6.52766">
        <ele>676</ele>
        <time>2023-08-21T06:42:36Z</time>
      </trkpt>
      <trkpt lat="45.72471" lon="6.5277">
        <ele>676</ele>
        <time>2023-08-21T06:42:37Z</time>
      </trkpt>
      <trkpt lat="45.72473" lon="6.52774">
        <ele>676.4</ele>
        <time>2023-08-21T06:42:38Z</time>
      </trkpt>
      <trkpt lat="45.72474" lon="6.52778">
        <ele>676.4</ele>
        <time>2023-08-21T06:42:39Z</time>
      </trkpt>
      <trkpt lat="45.72475" lon="6.52782">
        <ele>676.4</ele>
        <time>2023-08-21T06:42:40Z</time>
      </trkpt>
      <trkpt lat="45.72477" lon="6.52786">
        <ele>676.4</ele>
        <time>2023-08-21T06:42:41Z</time>
      </trkpt>
      <trkpt lat="45.72478" lon="6.5279">
        <ele>677</ele>
        <time>2023-08-21T06:42:42Z</time>
      </trkpt>
      <trkpt lat="45.7248" lon="6.52793">
        <ele>677.2</ele>
        <time>2023-08-21T06:42:43Z</time>
      </trkpt>
      <trkpt lat="45.72482" lon="6.52797">
        <ele>677.2</ele>
        <time>2023-08-21T06:42:44Z</time>
      </trkpt>
      <trkpt lat="45.72483" lon="6.52801">
        <ele>677.2</ele>
        <time>2023-08-21T06:42:45Z</time>
      </trkpt>
      <trkpt lat="45.72485" lon="6.52805">
        <ele>677.6</ele>
        <time>2023-08-21T06:42:46Z</time>
      </trkpt>
      <trkpt lat="45.72486" lon="6.52809">
        <ele>677.8</ele>
        <time>2023-08-21T06:42:47Z</time>
      </trkpt>
      <trkpt lat="45.72488" lon="6.52814">
        <ele>677.8</ele>
        <time>2023-08-21T06:42:48Z</time>
      </trkpt>
      <trkpt lat="45.7249" lon="6.52818">
        <ele>677.8</ele>
        <time>2023-08-21T06:42:49Z</time>
      </trkpt>
      <trkpt lat="45.72491" lon="6.52822">
        <ele>677.8</ele>
        <time>2023-08-21T06:42:50Z</time>
      </trkpt>
      <trkpt lat="45.72492" lon="6.52827">
        <ele>678.2</ele>
        <time>2023-08-21T06:42:51Z</time>
      </trkpt>
      <trkpt lat="45.72494" lon="6.52831">
        <ele>678.2</ele>
        <time>2023-08-21T06:42:52Z</time>
      </trkpt>
      <trkpt lat="45.72495" lon="6.52835">
        <ele>678.4</ele>
        <time>2023-08-21T06:42:53Z</time>
      </trkpt>
      <trkpt lat="45.72496" lon="6.5284">
        <ele>678.4</ele>
        <time>2023-08-21T06:42:54Z</time>
      </trkpt>
      <trkpt lat="45.72498" lon="6.52844">
        <ele>678.8</ele>
        <time>2023-08-21T06:42:55Z</time>
      </trkpt>
      <trkpt lat="45.725" lon="6.52848">
        <ele>679</ele>
        <time>2023-08-21T06:42:56Z</time>
      </trkpt>
      <trkpt lat="45.72502" lon="6.52852">
        <ele>679</ele>
        <time>2023-08-21T06:42:57Z</time>
      </trkpt>
      <trkpt lat="45.72503" lon="6.52856">
        <ele>679</ele>
        <time>2023-08-21T06:42:58Z</time>
      </trkpt>
      <trkpt lat="45.72505" lon="6.5286">
        <ele>679</ele>
        <time>2023-08-21T06:42:59Z</time>
      </trkpt>
      <trkpt lat="45.72507" lon="6.52864">
        <ele>679.4</ele>
        <time>2023-08-21T06:43:00Z</time>
      </trkpt>
      <trkpt lat="45.72509" lon="6.52867">
        <ele>679.4</ele>
        <time>2023-08-21T06:43:01Z</time>
      </trkpt>
      <trkpt lat="45.72511" lon="6.52871">
        <ele>679.4</ele>
        <time>2023-08-21T06:43:02Z</time>
      </trkpt>
      <trkpt lat="45.72512" lon="6.52875">
        <ele>679.4</ele>
        <time>2023-08-21T06:43:03Z</time>
      </trkpt>
      <trkpt lat="45.72514" lon="6.52879">
        <ele>679.4</ele>
        <time>2023-08-21T06:43:04Z</time>
      </trkpt>
      <trkpt lat="45.72516" lon="6.52883">
        <ele>679.4</ele>
        <time>2023-08-21T06:43:05Z</time>
      </trkpt>
      <trkpt lat="45.72518" lon="6.52887">
        <ele>680</ele>
        <time>2023-08-21T06:43:06Z</time>
      </trkpt>
      <trkpt lat="45.7252" lon="6.52891">
        <ele>680</ele>
        <time>2023-08-21T06:43:07Z</time>
      </trkpt>
      <trkpt lat="45.72522" lon="6.52895">
        <ele>680</ele>
        <time>2023-08-21T06:43:08Z</time>
      </trkpt>
      <trkpt lat="45.72523" lon="6.52899">
        <ele>680.6</ele>
        <time>2023-08-21T06:43:09Z</time>
      </trkpt>
      <trkpt lat="45.72525" lon="6.52903">
        <ele>680.6</ele>
        <time>2023-08-21T06:43:10Z</time>
      </trkpt>
      <trkpt lat="45.72527" lon="6.52907">
        <ele>680.6</ele>
        <time>2023-08-21T06:43:11Z</time>
      </trkpt>
      <trkpt lat="45.72529" lon="6.52911">
        <ele>680.6</ele>
        <time>2023-08-21T06:43:12Z</time>
      </trkpt>
      <trkpt lat="45.72531" lon="6.52914">
        <ele>680.6</ele>
        <time>2023-08-21T06:43:13Z</time>
      </trkpt>
      <trkpt lat="45.72533" lon="6.52918">
        <ele>681.2</ele>
        <time>2023-08-21T06:43:14Z</time>
      </trkpt>
      <trkpt lat="45.72535" lon="6.52922">
        <ele>681.2</ele>
        <time>2023-08-21T06:43:15Z</time>
      </trkpt>
      <trkpt lat="45.72537" lon="6.52926">
        <ele>681.2</ele>
        <time>2023-08-21T06:43:16Z</time>
      </trkpt>
      <trkpt lat="45.72538" lon="6.5293">
        <ele>681.6</ele>
        <time>2023-08-21T06:43:17Z</time>
      </trkpt>
      <trkpt lat="45.7254" lon="6.52934">
        <ele>681.6</ele>
        <time>2023-08-21T06:43:18Z</time>
      </trkpt>
      <trkpt lat="45.72542" lon="6.52938">
        <ele>681.8</ele>
        <time>2023-08-21T06:43:19Z</time>
      </trkpt>
      <trkpt lat="45.72544" lon="6.52942">
        <ele>681.8</ele>
        <time>2023-08-21T06:43:20Z</time>
      </trkpt>
      <trkpt lat="45.72546" lon="6.52946">
        <ele>681.8</ele>
        <time>2023-08-21T06:43:21Z</time>
      </trkpt>
      <trkpt lat="45.72548" lon="6.5295">
        <ele>682</ele>
        <time>2023-08-21T06:43:22Z</time>
      </trkpt>
      <trkpt lat="45.72549" lon="6.52954">
        <ele>682.4</ele>
        <time>2023-08-21T06:43:23Z</time>
      </trkpt>
      <trkpt lat="45.72551" lon="6.52958">
        <ele>682.4</ele>
        <time>2023-08-21T06:43:24Z</time>
      </trkpt>
      <trkpt lat="45.72553" lon="6.52961">
        <ele>682.4</ele>
        <time>2023-08-21T06:43:25Z</time>
      </trkpt>
      <trkpt lat="45.72555" lon="6.52965">
        <ele>682.4</ele>
        <time>2023-08-21T06:43:26Z</time>
      </trkpt>
      <trkpt lat="45.72557" lon="6.52969">
        <ele>683</ele>
        <time>2023-08-21T06:43:27Z</time>
      </trkpt>
      <trkpt lat="45.72559" lon="6.52972">
        <ele>683</ele>
        <time>2023-08-21T06:43:28Z</time>
      </trkpt>
      <trkpt lat="45.72562" lon="6.52976">
        <ele>683</ele>
        <time>2023-08-21T06:43:29Z</time>
      </trkpt>
      <trkpt lat="45.72563" lon="6.5298">
        <ele>683</ele>
        <time>2023-08-21T06:43:30Z</time>
      </trkpt>
      <trkpt lat="45.72565" lon="6.52983">
        <ele>683.4</ele>
        <time>2023-08-21T06:43:31Z</time>
      </trkpt>
      <trkpt lat="45.72567" lon="6.52987">
        <ele>683.6</ele>
        <time>2023-08-21T06:43:32Z</time>
      </trkpt>
      <trkpt lat="45.7257" lon="6.52991">
        <ele>683.6</ele>
        <time>2023-08-21T06:43:33Z</time>
      </trkpt>
      <trkpt lat="45.72572" lon="6.52995">
        <ele>683.6</ele>
        <time>2023-08-21T06:43:34Z</time>
      </trkpt>
      <trkpt lat="45.72573" lon="6.52999">
        <ele>683.6</ele>
        <time>2023-08-21T06:43:35Z</time>
      </trkpt>
      <trkpt lat="45.72575" lon="6.53003">
        <ele>684</ele>
        <time>2023-08-21T06:43:36Z</time>
      </trkpt>
      <trkpt lat="45.72578" lon="6.53006">
        <ele>684</ele>
        <time>2023-08-21T06:43:37Z</time>
      </trkpt>
      <trkpt lat="45.7258" lon="6.5301">
        <ele>684</ele>
        <time>2023-08-21T06:43:38Z</time>
      </trkpt>
      <trkpt lat="45.72582" lon="6.53014">
        <ele>684</ele>
        <time>2023-08-21T06:43:39Z</time>
      </trkpt>
      <trkpt lat="45.72583" lon="6.53018">
        <ele>684.4</ele>
        <time>2023-08-21T06:43:40Z</time>
      </trkpt>
      <trkpt lat="45.72585" lon="6.53022">
        <ele>684.6</ele>
        <time>2023-08-21T06:43:41Z</time>
      </trkpt>
      <trkpt lat="45.72587" lon="6.53026">
        <ele>684.6</ele>
        <time>2023-08-21T06:43:42Z</time>
      </trkpt>
      <trkpt lat="45.72589" lon="6.5303">
        <ele>684.6</ele>
        <time>2023-08-21T06:43:43Z</time>
      </trkpt>
      <trkpt lat="45.72591" lon="6.53034">
        <ele>684.6</ele>
        <time>2023-08-21T06:43:44Z</time>
      </trkpt>
      <trkpt lat="45.72593" lon="6.53038">
        <ele>685</ele>
        <time>2023-08-21T06:43:45Z</time>
      </trkpt>
      <trkpt lat="45.72594" lon="6.53042">
        <ele>685.2</ele>
        <time>2023-08-21T06:43:46Z</time>
      </trkpt>
      <trkpt lat="45.72596" lon="6.53046">
        <ele>685.2</ele>
        <time>2023-08-21T06:43:47Z</time>
      </trkpt>
      <trkpt lat="45.72598" lon="6.53051">
        <ele>685.2</ele>
        <time>2023-08-21T06:43:48Z</time>
      </trkpt>
      <trkpt lat="45.72599" lon="6.53055">
        <ele>685.2</ele>
        <time>2023-08-21T06:43:49Z</time>
      </trkpt>
      <trkpt lat="45.72601" lon="6.53059">
        <ele>685.8</ele>
        <time>2023-08-21T06:43:50Z</time>
      </trkpt>
      <trkpt lat="45.72602" lon="6.53064">
        <ele>686</ele>
        <time>2023-08-21T06:43:51Z</time>
      </trkpt>
      <trkpt lat="45.72603" lon="6.53068">
        <ele>686</ele>
        <time>2023-08-21T06:43:52Z</time>
      </trkpt>
      <trkpt lat="45.72605" lon="6.53073">
        <ele>686</ele>
        <time>2023-08-21T06:43:53Z</time>
      </trkpt>
      <trkpt lat="45.72606" lon="6.53077">
        <ele>686.4</ele>
        <time>2023-08-21T06:43:54Z</time>
      </trkpt>
      <trkpt lat="45.72608" lon="6.53081">
        <ele>686.6</ele>
        <time>2023-08-21T06:43:55Z</time>
      </trkpt>
      <trkpt lat="45.72609" lon="6.53086">
        <ele>686.6</ele>
        <time>2023-08-21T06:43:56Z</time>
      </trkpt>
      <trkpt lat="45.72611" lon="6.5309">
        <ele>686.6</ele>
        <time>2023-08-21T06:43:57Z</time>
      </trkpt>
      <trkpt lat="45.72612" lon="6.53094">
        <ele>687.2</ele>
        <time>2023-08-21T06:43:58Z</time>
      </trkpt>
      <trkpt lat="45.72614" lon="6.53099">
        <ele>687.2</ele>
        <time>2023-08-21T06:43:59Z</time>
      </trkpt>
      <trkpt lat="45.72615" lon="6.53103">
        <ele>687.2</ele>
        <time>2023-08-21T06:44:00Z</time>
      </trkpt>
      <trkpt lat="45.72617" lon="6.53107">
        <ele>687.2</ele>
        <time>2023-08-21T06:44:01Z</time>
      </trkpt>
      <trkpt lat="45.72619" lon="6.53112">
        <ele>688</ele>
        <time>2023-08-21T06:44:02Z</time>
      </trkpt>
      <trkpt lat="45.72621" lon="6.53115">
        <ele>688</ele>
        <time>2023-08-21T06:44:03Z</time>
      </trkpt>
      <trkpt lat="45.72623" lon="6.53119">
        <ele>688</ele>
        <time>2023-08-21T06:44:04Z</time>
      </trkpt>
      <trkpt lat="45.72625" lon="6.53123">
        <ele>688</ele>
        <time>2023-08-21T06:44:05Z</time>
      </trkpt>
      <trkpt lat="45.72626" lon="6.53127">
        <ele>688</ele>
        <time>2023-08-21T06:44:06Z</time>
      </trkpt>
      <trkpt lat="45.72628" lon="6.53131">
        <ele>688.6</ele>
        <time>2023-08-21T06:44:07Z</time>
      </trkpt>
      <trkpt lat="45.7263" lon="6.53135">
        <ele>688.8</ele>
        <time>2023-08-21T06:44:08Z</time>
      </trkpt>
      <trkpt lat="45.72632" lon="6.53139">
        <ele>688.8</ele>
        <time>2023-08-21T06:44:09Z</time>
      </trkpt>
      <trkpt lat="45.72634" lon="6.53143">
        <ele>688.8</ele>
        <time>2023-08-21T06:44:10Z</time>
      </trkpt>
      <trkpt lat="45.72636" lon="6.53146">
        <ele>688.8</ele>
        <time>2023-08-21T06:44:11Z</time>
      </trkpt>
      <trkpt lat="45.72639" lon="6.5315">
        <ele>689.2</ele>
        <time>2023-08-21T06:44:12Z</time>
      </trkpt>
      <trkpt lat="45.72641" lon="6.53154">
        <ele>689.2</ele>
        <time>2023-08-21T06:44:13Z</time>
      </trkpt>
      <trkpt lat="45.72643" lon="6.53157">
        <ele>689.2</ele>
        <time>2023-08-21T06:44:14Z</time>
      </trkpt>
      <trkpt lat="45.72646" lon="6.53161">
        <ele>689.2</ele>
        <time>2023-08-21T06:44:15Z</time>
      </trkpt>
      <trkpt lat="45.72648" lon="6.53165">
        <ele>689.2</ele>
        <time>2023-08-21T06:44:16Z</time>
      </trkpt>
      <trkpt lat="45.7265" lon="6.53169">
        <ele>689.2</ele>
        <time>2023-08-21T06:44:17Z</time>
      </trkpt>
      <trkpt lat="45.72652" lon="6.53173">
        <ele>689.2</ele>
        <time>2023-08-21T06:44:18Z</time>
      </trkpt>
      <trkpt lat="45.72655" lon="6.53176">
        <ele>689.2</ele>
        <time>2023-08-21T06:44:19Z</time>
      </trkpt>
      <trkpt lat="45.72657" lon="6.5318">
        <ele>689.6</ele>
        <time>2023-08-21T06:44:20Z</time>
      </trkpt>
      <trkpt lat="45.7266" lon="6.53185">
        <ele>689.6</ele>
        <time>2023-08-21T06:44:21Z</time>
      </trkpt>
      <trkpt lat="45.72662" lon="6.53189">
        <ele>689.6</ele>
        <time>2023-08-21T06:44:22Z</time>
      </trkpt>
      <trkpt lat="45.72665" lon="6.53193">
        <ele>689.6</ele>
        <time>2023-08-21T06:44:23Z</time>
      </trkpt>
      <trkpt lat="45.72667" lon="6.53197">
        <ele>690</ele>
        <time>2023-08-21T06:44:24Z</time>
      </trkpt>
      <trkpt lat="45.72669" lon="6.53202">
        <ele>690</ele>
        <time>2023-08-21T06:44:25Z</time>
      </trkpt>
      <trkpt lat="45.72672" lon="6.53206">
        <ele>690.2</ele>
        <time>2023-08-21T06:44:26Z</time>
      </trkpt>
      <trkpt lat="45.72673" lon="6.53211">
        <ele>690.2</ele>
        <time>2023-08-21T06:44:27Z</time>
      </trkpt>
      <trkpt lat="45.72675" lon="6.53216">
        <ele>690.2</ele>
        <time>2023-08-21T06:44:28Z</time>
      </trkpt>
      <trkpt lat="45.72676" lon="6.5322">
        <ele>690.4</ele>
        <time>2023-08-21T06:44:29Z</time>
      </trkpt>
      <trkpt lat="45.72678" lon="6.53225">
        <ele>690.6</ele>
        <time>2023-08-21T06:44:30Z</time>
      </trkpt>
      <trkpt lat="45.72679" lon="6.5323">
        <ele>690.6</ele>
        <time>2023-08-21T06:44:31Z</time>
      </trkpt>
      <trkpt lat="45.72681" lon="6.53234">
        <ele>690.6</ele>
        <time>2023-08-21T06:44:32Z</time>
      </trkpt>
      <trkpt lat="45.72682" lon="6.53239">
        <ele>690.6</ele>
        <time>2023-08-21T06:44:33Z</time>
      </trkpt>
      <trkpt lat="45.72683" lon="6.53244">
        <ele>691</ele>
        <time>2023-08-21T06:44:34Z</time>
      </trkpt>
      <trkpt lat="45.72685" lon="6.53249">
        <ele>691.2</ele>
        <time>2023-08-21T06:44:35Z</time>
      </trkpt>
      <trkpt lat="45.72686" lon="6.53254">
        <ele>691.2</ele>
        <time>2023-08-21T06:44:36Z</time>
      </trkpt>
      <trkpt lat="45.72687" lon="6.53258">
        <ele>691.2</ele>
        <time>2023-08-21T06:44:37Z</time>
      </trkpt>
      <trkpt lat="45.72688" lon="6.53263">
        <ele>691.6</ele>
        <time>2023-08-21T06:44:38Z</time>
      </trkpt>
      <trkpt lat="45.72688" lon="6.53268">
        <ele>691.6</ele>
        <time>2023-08-21T06:44:39Z</time>
      </trkpt>
      <trkpt lat="45.72689" lon="6.53273">
        <ele>691.8</ele>
        <time>2023-08-21T06:44:40Z</time>
      </trkpt>
      <trkpt lat="45.72689" lon="6.53277">
        <ele>691.8</ele>
        <time>2023-08-21T06:44:41Z</time>
      </trkpt>
      <trkpt lat="45.7269" lon="6.53282">
        <ele>691.8</ele>
        <time>2023-08-21T06:44:42Z</time>
      </trkpt>
      <trkpt lat="45.72691" lon="6.53287">
        <ele>692.6</ele>
        <time>2023-08-21T06:44:43Z</time>
      </trkpt>
      <trkpt lat="45.72691" lon="6.53292">
        <ele>692.6</ele>
        <time>2023-08-21T06:44:44Z</time>
      </trkpt>
      <trkpt lat="45.72691" lon="6.53296">
        <ele>692.6</ele>
        <time>2023-08-21T06:44:45Z</time>
      </trkpt>
      <trkpt lat="45.72691" lon="6.53301">
        <ele>692.6</ele>
        <time>2023-08-21T06:44:46Z</time>
      </trkpt>
      <trkpt lat="45.72691" lon="6.53306">
        <ele>693.2</ele>
        <time>2023-08-21T06:44:47Z</time>
      </trkpt>
      <trkpt lat="45.72691" lon="6.53311">
        <ele>693.4</ele>
        <time>2023-08-21T06:44:48Z</time>
      </trkpt>
      <trkpt lat="45.72691" lon="6.53315">
        <ele>693.4</ele>
        <time>2023-08-21T06:44:49Z</time>
      </trkpt>
      <trkpt lat="45.72691" lon="6.5332">
        <ele>693.4</ele>
        <time>2023-08-21T06:44:50Z</time>
      </trkpt>
      <trkpt lat="45.7269" lon="6.53324">
        <ele>693.4</ele>
        <time>2023-08-21T06:44:51Z</time>
      </trkpt>
      <trkpt lat="45.7269" lon="6.53329">
        <ele>694.2</ele>
        <time>2023-08-21T06:44:52Z</time>
      </trkpt>
      <trkpt lat="45.72689" lon="6.53334">
        <ele>694.2</ele>
        <time>2023-08-21T06:44:53Z</time>
      </trkpt>
      <trkpt lat="45.72689" lon="6.53338">
        <ele>694.2</ele>
        <time>2023-08-21T06:44:54Z</time>
      </trkpt>
      <trkpt lat="45.72688" lon="6.53343">
        <ele>694.8</ele>
        <time>2023-08-21T06:44:55Z</time>
      </trkpt>
      <trkpt lat="45.72687" lon="6.53348">
        <ele>694.8</ele>
        <time>2023-08-21T06:44:56Z</time>
      </trkpt>
      <trkpt lat="45.72687" lon="6.53353">
        <ele>695</ele>
        <time>2023-08-21T06:44:57Z</time>
      </trkpt>
      <trkpt lat="45.72686" lon="6.53358">
        <ele>695</ele>
        <time>2023-08-21T06:44:58Z</time>
      </trkpt>
      <trkpt lat="45.72685" lon="6.53363">
        <ele>695</ele>
        <time>2023-08-21T06:44:59Z</time>
      </trkpt>
      <trkpt lat="45.72684" lon="6.53368">
        <ele>695.4</ele>
        <time>2023-08-21T06:45:00Z</time>
      </trkpt>
      <trkpt lat="45.72684" lon="6.53372">
        <ele>695.8</ele>
        <time>2023-08-21T06:45:01Z</time>
      </trkpt>
      <trkpt lat="45.72683" lon="6.53377">
        <ele>695.8</ele>
        <time>2023-08-21T06:45:02Z</time>
      </trkpt>
      <trkpt lat="45.72683" lon="6.53382">
        <ele>695.8</ele>
        <time>2023-08-21T06:45:03Z</time>
      </trkpt>
      <trkpt lat="45.72682" lon="6.53387">
        <ele>696.2</ele>
        <time>2023-08-21T06:45:04Z</time>
      </trkpt>
      <trkpt lat="45.72682" lon="6.53392">
        <ele>696.4</ele>
        <time>2023-08-21T06:45:05Z</time>
      </trkpt>
      <trkpt lat="45.72681" lon="6.53396">
        <ele>696.4</ele>
        <time>2023-08-21T06:45:06Z</time>
      </trkpt>
      <trkpt lat="45.7268" lon="6.53401">
        <ele>696.4</ele>
        <time>2023-08-21T06:45:07Z</time>
      </trkpt>
      <trkpt lat="45.72679" lon="6.53405">
        <ele>696.4</ele>
        <time>2023-08-21T06:45:08Z</time>
      </trkpt>
      <trkpt lat="45.72678" lon="6.5341">
        <ele>696.4</ele>
        <time>2023-08-21T06:45:09Z</time>
      </trkpt>
      <trkpt lat="45.72678" lon="6.53415">
        <ele>696.8</ele>
        <time>2023-08-21T06:45:10Z</time>
      </trkpt>
      <trkpt lat="45.72677" lon="6.5342">
        <ele>697</ele>
        <time>2023-08-21T06:45:11Z</time>
      </trkpt>
      <trkpt lat="45.72676" lon="6.53424">
        <ele>697</ele>
        <time>2023-08-21T06:45:12Z</time>
      </trkpt>
      <trkpt lat="45.72676" lon="6.53429">
        <ele>697</ele>
        <time>2023-08-21T06:45:13Z</time>
      </trkpt>
      <trkpt lat="45.72675" lon="6.53434">
        <ele>697.4</ele>
        <time>2023-08-21T06:45:14Z</time>
      </trkpt>
      <trkpt lat="45.72674" lon="6.53439">
        <ele>697.4</ele>
        <time>2023-08-21T06:45:15Z</time>
      </trkpt>
      <trkpt lat="45.72673" lon="6.53444">
        <ele>697.4</ele>
        <time>2023-08-21T06:45:16Z</time>
      </trkpt>
      <trkpt lat="45.72673" lon="6.53449">
        <ele>697.4</ele>
        <time>2023-08-21T06:45:17Z</time>
      </trkpt>
      <trkpt lat="45.72672" lon="6.53454">
        <ele>697.6</ele>
        <time>2023-08-21T06:45:18Z</time>
      </trkpt>
      <trkpt lat="45.72672" lon="6.53459">
        <ele>697.8</ele>
        <time>2023-08-21T06:45:19Z</time>
      </trkpt>
      <trkpt lat="45.72671" lon="6.53465">
        <ele>697.8</ele>
        <time>2023-08-21T06:45:20Z</time>
      </trkpt>
      <trkpt lat="45.7267" lon="6.5347">
        <ele>697.8</ele>
        <time>2023-08-21T06:45:21Z</time>
      </trkpt>
      <trkpt lat="45.72669" lon="6.53476">
        <ele>697.8</ele>
        <time>2023-08-21T06:45:22Z</time>
      </trkpt>
      <trkpt lat="45.72668" lon="6.53482">
        <ele>697.8</ele>
        <time>2023-08-21T06:45:23Z</time>
      </trkpt>
      <trkpt lat="45.72666" lon="6.53488">
        <ele>697.8</ele>
        <time>2023-08-21T06:45:24Z</time>
      </trkpt>
      <trkpt lat="45.72664" lon="6.53493">
        <ele>697.8</ele>
        <time>2023-08-21T06:45:25Z</time>
      </trkpt>
      <trkpt lat="45.72663" lon="6.53499">
        <ele>697.8</ele>
        <time>2023-08-21T06:45:26Z</time>
      </trkpt>
      <trkpt lat="45.72661" lon="6.53506">
        <ele>697.8</ele>
        <time>2023-08-21T06:45:27Z</time>
      </trkpt>
      <trkpt lat="45.72658" lon="6.53512">
        <ele>697.6</ele>
        <time>2023-08-21T06:45:28Z</time>
      </trkpt>
      <trkpt lat="45.72655" lon="6.53517">
        <ele>697.6</ele>
        <time>2023-08-21T06:45:29Z</time>
      </trkpt>
      <trkpt lat="45.72652" lon="6.53523">
        <ele>697.6</ele>
        <time>2023-08-21T06:45:30Z</time>
      </trkpt>
      <trkpt lat="45.72649" lon="6.53528">
        <ele>697.6</ele>
        <time>2023-08-21T06:45:31Z</time>
      </trkpt>
      <trkpt lat="45.72646" lon="6.53533">
        <ele>697.6</ele>
        <time>2023-08-21T06:45:32Z</time>
      </trkpt>
      <trkpt lat="45.72643" lon="6.53539">
        <ele>697.6</ele>
        <time>2023-08-21T06:45:33Z</time>
      </trkpt>
      <trkpt lat="45.72639" lon="6.53544">
        <ele>697.6</ele>
        <time>2023-08-21T06:45:34Z</time>
      </trkpt>
      <trkpt lat="45.72634" lon="6.53549">
        <ele>697.6</ele>
        <time>2023-08-21T06:45:35Z</time>
      </trkpt>
      <trkpt lat="45.7263" lon="6.53554">
        <ele>697.4</ele>
        <time>2023-08-21T06:45:36Z</time>
      </trkpt>
      <trkpt lat="45.72625" lon="6.53558">
        <ele>697.2</ele>
        <time>2023-08-21T06:45:37Z</time>
      </trkpt>
      <trkpt lat="45.72621" lon="6.53563">
        <ele>697.2</ele>
        <time>2023-08-21T06:45:38Z</time>
      </trkpt>
      <trkpt lat="45.72617" lon="6.53568">
        <ele>697.2</ele>
        <time>2023-08-21T06:45:39Z</time>
      </trkpt>
      <trkpt lat="45.72612" lon="6.53573">
        <ele>697.4</ele>
        <time>2023-08-21T06:45:40Z</time>
      </trkpt>
      <trkpt lat="45.72608" lon="6.53578">
        <ele>697.6</ele>
        <time>2023-08-21T06:45:41Z</time>
      </trkpt>
      <trkpt lat="45.72604" lon="6.53584">
        <ele>697.6</ele>
        <time>2023-08-21T06:45:42Z</time>
      </trkpt>
      <trkpt lat="45.726" lon="6.5359">
        <ele>697.6</ele>
        <time>2023-08-21T06:45:43Z</time>
      </trkpt>
      <trkpt lat="45.72597" lon="6.53595">
        <ele>697.6</ele>
        <time>2023-08-21T06:45:44Z</time>
      </trkpt>
      <trkpt lat="45.72593" lon="6.53602">
        <ele>697.6</ele>
        <time>2023-08-21T06:45:45Z</time>
      </trkpt>
      <trkpt lat="45.7259" lon="6.53608">
        <ele>697.2</ele>
        <time>2023-08-21T06:45:46Z</time>
      </trkpt>
      <trkpt lat="45.72586" lon="6.53615">
        <ele>697.2</ele>
        <time>2023-08-21T06:45:47Z</time>
      </trkpt>
      <trkpt lat="45.72583" lon="6.53622">
        <ele>697.2</ele>
        <time>2023-08-21T06:45:48Z</time>
      </trkpt>
      <trkpt lat="45.72579" lon="6.5363">
        <ele>696.2</ele>
        <time>2023-08-21T06:45:49Z</time>
      </trkpt>
      <trkpt lat="45.72576" lon="6.53638">
        <ele>696</ele>
        <time>2023-08-21T06:45:50Z</time>
      </trkpt>
      <trkpt lat="45.72573" lon="6.53646">
        <ele>696</ele>
        <time>2023-08-21T06:45:51Z</time>
      </trkpt>
      <trkpt lat="45.7257" lon="6.53655">
        <ele>696</ele>
        <time>2023-08-21T06:45:52Z</time>
      </trkpt>
      <trkpt lat="45.72567" lon="6.53663">
        <ele>696</ele>
        <time>2023-08-21T06:45:53Z</time>
      </trkpt>
      <trkpt lat="45.72564" lon="6.53672">
        <ele>695.4</ele>
        <time>2023-08-21T06:45:54Z</time>
      </trkpt>
      <trkpt lat="45.72561" lon="6.5368">
        <ele>695</ele>
        <time>2023-08-21T06:45:55Z</time>
      </trkpt>
      <trkpt lat="45.72558" lon="6.53689">
        <ele>695</ele>
        <time>2023-08-21T06:45:56Z</time>
      </trkpt>
      <trkpt lat="45.72555" lon="6.53698">
        <ele>695</ele>
        <time>2023-08-21T06:45:57Z</time>
      </trkpt>
      <trkpt lat="45.72552" lon="6.53707">
        <ele>695</ele>
        <time>2023-08-21T06:45:58Z</time>
      </trkpt>
      <trkpt lat="45.72549" lon="6.53717">
        <ele>694.2</ele>
        <time>2023-08-21T06:45:59Z</time>
      </trkpt>
      <trkpt lat="45.72546" lon="6.53726">
        <ele>694.4</ele>
        <time>2023-08-21T06:46:00Z</time>
      </trkpt>
      <trkpt lat="45.72543" lon="6.53735">
        <ele>694.4</ele>
        <time>2023-08-21T06:46:01Z</time>
      </trkpt>
      <trkpt lat="45.72539" lon="6.53745">
        <ele>694.4</ele>
        <time>2023-08-21T06:46:02Z</time>
      </trkpt>
      <trkpt lat="45.72536" lon="6.53754">
        <ele>693.8</ele>
        <time>2023-08-21T06:46:03Z</time>
      </trkpt>
      <trkpt lat="45.72533" lon="6.53764">
        <ele>693.4</ele>
        <time>2023-08-21T06:46:04Z</time>
      </trkpt>
      <trkpt lat="45.7253" lon="6.53773">
        <ele>693.4</ele>
        <time>2023-08-21T06:46:05Z</time>
      </trkpt>
      <trkpt lat="45.72527" lon="6.53783">
        <ele>693.4</ele>
        <time>2023-08-21T06:46:06Z</time>
      </trkpt>
      <trkpt lat="45.72524" lon="6.53793">
        <ele>692.8</ele>
        <time>2023-08-21T06:46:07Z</time>
      </trkpt>
      <trkpt lat="45.72522" lon="6.53804">
        <ele>692.2</ele>
        <time>2023-08-21T06:46:08Z</time>
      </trkpt>
      <trkpt lat="45.72521" lon="6.53814">
        <ele>692.2</ele>
        <time>2023-08-21T06:46:09Z</time>
      </trkpt>
      <trkpt lat="45.72519" lon="6.53825">
        <ele>692.2</ele>
        <time>2023-08-21T06:46:10Z</time>
      </trkpt>
      <trkpt lat="45.72518" lon="6.53835">
        <ele>692.2</ele>
        <time>2023-08-21T06:46:11Z</time>
      </trkpt>
      <trkpt lat="45.72517" lon="6.53846">
        <ele>691.4</ele>
        <time>2023-08-21T06:46:12Z</time>
      </trkpt>
      <trkpt lat="45.72516" lon="6.53857">
        <ele>691.2</ele>
        <time>2023-08-21T06:46:13Z</time>
      </trkpt>
      <trkpt lat="45.72516" lon="6.53868">
        <ele>691.2</ele>
        <time>2023-08-21T06:46:14Z</time>
      </trkpt>
      <trkpt lat="45.72516" lon="6.53878">
        <ele>691.2</ele>
        <time>2023-08-21T06:46:15Z</time>
      </trkpt>
      <trkpt lat="45.72516" lon="6.53889">
        <ele>690.2</ele>
        <time>2023-08-21T06:46:16Z</time>
      </trkpt>
      <trkpt lat="45.72517" lon="6.53901">
        <ele>690.4</ele>
        <time>2023-08-21T06:46:17Z</time>
      </trkpt>
      <trkpt lat="45.72517" lon="6.53912">
        <ele>690.4</ele>
        <time>2023-08-21T06:46:18Z</time>
      </trkpt>
      <trkpt lat="45.72517" lon="6.53923">
        <ele>690.4</ele>
        <time>2023-08-21T06:46:19Z</time>
      </trkpt>
      <trkpt lat="45.72517" lon="6.53934">
        <ele>690.4</ele>
        <time>2023-08-21T06:46:20Z</time>
      </trkpt>
      <trkpt lat="45.72517" lon="6.53946">
        <ele>689</ele>
        <time>2023-08-21T06:46:21Z</time>
      </trkpt>
      <trkpt lat="45.72518" lon="6.53956">
        <ele>689</ele>
        <time>2023-08-21T06:46:22Z</time>
      </trkpt>
      <trkpt lat="45.72518" lon="6.53967">
        <ele>689</ele>
        <time>2023-08-21T06:46:23Z</time>
      </trkpt>
      <trkpt lat="45.72518" lon="6.53978">
        <ele>689</ele>
        <time>2023-08-21T06:46:24Z</time>
      </trkpt>
      <trkpt lat="45.72519" lon="6.53989">
        <ele>689</ele>
        <time>2023-08-21T06:46:25Z</time>
      </trkpt>
      <trkpt lat="45.72519" lon="6.54">
        <ele>688.6</ele>
        <time>2023-08-21T06:46:26Z</time>
      </trkpt>
      <trkpt lat="45.7252" lon="6.5401">
        <ele>688.6</ele>
        <time>2023-08-21T06:46:27Z</time>
      </trkpt>
      <trkpt lat="45.72521" lon="6.54021">
        <ele>688.6</ele>
        <time>2023-08-21T06:46:28Z</time>
      </trkpt>
      <trkpt lat="45.72522" lon="6.54031">
        <ele>687.6</ele>
        <time>2023-08-21T06:46:29Z</time>
      </trkpt>
      <trkpt lat="45.72523" lon="6.54042">
        <ele>687.8</ele>
        <time>2023-08-21T06:46:30Z</time>
      </trkpt>
      <trkpt lat="45.72524" lon="6.54052">
        <ele>687.8</ele>
        <time>2023-08-21T06:46:31Z</time>
      </trkpt>
      <trkpt lat="45.72526" lon="6.54062">
        <ele>687.8</ele>
        <time>2023-08-21T06:46:32Z</time>
      </trkpt>
      <trkpt lat="45.72529" lon="6.54072">
        <ele>687.2</ele>
        <time>2023-08-21T06:46:33Z</time>
      </trkpt>
      <trkpt lat="45.72531" lon="6.54082">
        <ele>687.2</ele>
        <time>2023-08-21T06:46:34Z</time>
      </trkpt>
      <trkpt lat="45.72534" lon="6.54091">
        <ele>687.2</ele>
        <time>2023-08-21T06:46:35Z</time>
      </trkpt>
      <trkpt lat="45.72537" lon="6.541">
        <ele>687.2</ele>
        <time>2023-08-21T06:46:36Z</time>
      </trkpt>
      <trkpt lat="45.7254" lon="6.54109">
        <ele>687.2</ele>
        <time>2023-08-21T06:46:37Z</time>
      </trkpt>
      <trkpt lat="45.72544" lon="6.54118">
        <ele>687.2</ele>
        <time>2023-08-21T06:46:38Z</time>
      </trkpt>
      <trkpt lat="45.72547" lon="6.54127">
        <ele>686.4</ele>
        <time>2023-08-21T06:46:39Z</time>
      </trkpt>
      <trkpt lat="45.72551" lon="6.54136">
        <ele>686.4</ele>
        <time>2023-08-21T06:46:40Z</time>
      </trkpt>
      <trkpt lat="45.72556" lon="6.54144">
        <ele>686.4</ele>
        <time>2023-08-21T06:46:41Z</time>
      </trkpt>
      <trkpt lat="45.72561" lon="6.54152">
        <ele>686.4</ele>
        <time>2023-08-21T06:46:42Z</time>
      </trkpt>
      <trkpt lat="45.72566" lon="6.54159">
        <ele>686</ele>
        <time>2023-08-21T06:46:43Z</time>
      </trkpt>
      <trkpt lat="45.72571" lon="6.54167">
        <ele>685.8</ele>
        <time>2023-08-21T06:46:44Z</time>
      </trkpt>
      <trkpt lat="45.72576" lon="6.54174">
        <ele>685.8</ele>
        <time>2023-08-21T06:46:45Z</time>
      </trkpt>
      <trkpt lat="45.72581" lon="6.54182">
        <ele>685.8</ele>
        <time>2023-08-21T06:46:46Z</time>
      </trkpt>
      <trkpt lat="45.72585" lon="6.5419">
        <ele>685.2</ele>
        <time>2023-08-21T06:46:47Z</time>
      </trkpt>
      <trkpt lat="45.7259" lon="6.54197">
        <ele>685.2</ele>
        <time>2023-08-21T06:46:48Z</time>
      </trkpt>
      <trkpt lat="45.72594" lon="6.54205">
        <ele>685.2</ele>
        <time>2023-08-21T06:46:49Z</time>
      </trkpt>
      <trkpt lat="45.72599" lon="6.54213">
        <ele>685.2</ele>
        <time>2023-08-21T06:46:50Z</time>
      </trkpt>
      <trkpt lat="45.72603" lon="6.5422">
        <ele>685.2</ele>
        <time>2023-08-21T06:46:51Z</time>
      </trkpt>
      <trkpt lat="45.72608" lon="6.54228">
        <ele>684.8</ele>
        <time>2023-08-21T06:46:52Z</time>
      </trkpt>
      <trkpt lat="45.72613" lon="6.54236">
        <ele>684.6</ele>
        <time>2023-08-21T06:46:53Z</time>
      </trkpt>
      <trkpt lat="45.72617" lon="6.54243">
        <ele>684.6</ele>
        <time>2023-08-21T06:46:54Z</time>
      </trkpt>
      <trkpt lat="45.72622" lon="6.54251">
        <ele>684.6</ele>
        <time>2023-08-21T06:46:55Z</time>
      </trkpt>
      <trkpt lat="45.72626" lon="6.54259">
        <ele>684.6</ele>
        <time>2023-08-21T06:46:56Z</time>
      </trkpt>
      <trkpt lat="45.72631" lon="6.54266">
        <ele>684.2</ele>
        <time>2023-08-21T06:46:57Z</time>
      </trkpt>
      <trkpt lat="45.72635" lon="6.54274">
        <ele>684.2</ele>
        <time>2023-08-21T06:46:58Z</time>
      </trkpt>
      <trkpt lat="45.72639" lon="6.54282">
        <ele>684.2</ele>
        <time>2023-08-21T06:46:59Z</time>
      </trkpt>
      <trkpt lat="45.72643" lon="6.54291">
        <ele>683.6</ele>
        <time>2023-08-21T06:47:00Z</time>
      </trkpt>
      <trkpt lat="45.72647" lon="6.543">
        <ele>683.8</ele>
        <time>2023-08-21T06:47:01Z</time>
      </trkpt>
      <trkpt lat="45.7265" lon="6.54309">
        <ele>683.8</ele>
        <time>2023-08-21T06:47:02Z</time>
      </trkpt>
      <trkpt lat="45.72653" lon="6.54318">
        <ele>683.8</ele>
        <time>2023-08-21T06:47:03Z</time>
      </trkpt>
      <trkpt lat="45.72656" lon="6.54328">
        <ele>683.8</ele>
        <time>2023-08-21T06:47:04Z</time>
      </trkpt>
      <trkpt lat="45.72659" lon="6.54338">
        <ele>683.8</ele>
        <time>2023-08-21T06:47:05Z</time>
      </trkpt>
      <trkpt lat="45.72661" lon="6.54348">
        <ele>682.8</ele>
        <time>2023-08-21T06:47:06Z</time>
      </trkpt>
      <trkpt lat="45.72664" lon="6.54359">
        <ele>682.8</ele>
        <time>2023-08-21T06:47:07Z</time>
      </trkpt>
      <trkpt lat="45.72666" lon="6.5437">
        <ele>682.8</ele>
        <time>2023-08-21T06:47:08Z</time>
      </trkpt>
      <trkpt lat="45.72668" lon="6.54381">
        <ele>682.8</ele>
        <time>2023-08-21T06:47:09Z</time>
      </trkpt>
      <trkpt lat="45.7267" lon="6.54391">
        <ele>682</ele>
        <time>2023-08-21T06:47:10Z</time>
      </trkpt>
      <trkpt lat="45.72671" lon="6.54402">
        <ele>681.8</ele>
        <time>2023-08-21T06:47:11Z</time>
      </trkpt>
      <trkpt lat="45.72673" lon="6.54413">
        <ele>681.8</ele>
        <time>2023-08-21T06:47:12Z</time>
      </trkpt>
      <trkpt lat="45.72675" lon="6.54425">
        <ele>681.8</ele>
        <time>2023-08-21T06:47:13Z</time>
      </trkpt>
      <trkpt lat="45.72676" lon="6.54435">
        <ele>681.4</ele>
        <time>2023-08-21T06:47:14Z</time>
      </trkpt>
      <trkpt lat="45.72677" lon="6.54446">
        <ele>681.4</ele>
        <time>2023-08-21T06:47:15Z</time>
      </trkpt>
      <trkpt lat="45.72678" lon="6.54457">
        <ele>681.4</ele>
        <time>2023-08-21T06:47:16Z</time>
      </trkpt>
      <trkpt lat="45.72679" lon="6.54467">
        <ele>681.4</ele>
        <time>2023-08-21T06:47:17Z</time>
      </trkpt>
      <trkpt lat="45.7268" lon="6.54477">
        <ele>681.4</ele>
        <time>2023-08-21T06:47:18Z</time>
      </trkpt>
      <trkpt lat="45.7268" lon="6.54487">
        <ele>681.2</ele>
        <time>2023-08-21T06:47:19Z</time>
      </trkpt>
      <trkpt lat="45.72681" lon="6.54497">
        <ele>681.2</ele>
        <time>2023-08-21T06:47:20Z</time>
      </trkpt>
      <trkpt lat="45.72681" lon="6.54507">
        <ele>681.2</ele>
        <time>2023-08-21T06:47:21Z</time>
      </trkpt>
      <trkpt lat="45.72681" lon="6.54516">
        <ele>681.2</ele>
        <time>2023-08-21T06:47:22Z</time>
      </trkpt>
      <trkpt lat="45.72681" lon="6.54526">
        <ele>681.2</ele>
        <time>2023-08-21T06:47:23Z</time>
      </trkpt>
      <trkpt lat="45.72681" lon="6.54535">
        <ele>681.4</ele>
        <time>2023-08-21T06:47:24Z</time>
      </trkpt>
      <trkpt lat="45.7268" lon="6.54544">
        <ele>681.4</ele>
        <time>2023-08-21T06:47:25Z</time>
      </trkpt>
      <trkpt lat="45.72679" lon="6.54553">
        <ele>681.4</ele>
        <time>2023-08-21T06:47:26Z</time>
      </trkpt>
      <trkpt lat="45.72678" lon="6.54562">
        <ele>681.4</ele>
        <time>2023-08-21T06:47:27Z</time>
      </trkpt>
      <trkpt lat="45.72676" lon="6.54571">
        <ele>681.4</ele>
        <time>2023-08-21T06:47:28Z</time>
      </trkpt>
      <trkpt lat="45.72675" lon="6.54579">
        <ele>681.4</ele>
        <time>2023-08-21T06:47:29Z</time>
      </trkpt>
      <trkpt lat="45.72673" lon="6.54588">
        <ele>682</ele>
        <time>2023-08-21T06:47:30Z</time>
      </trkpt>
      <trkpt lat="45.72671" lon="6.54595">
        <ele>682</ele>
        <time>2023-08-21T06:47:31Z</time>
      </trkpt>
      <trkpt lat="45.7267" lon="6.54602">
        <ele>682</ele>
        <time>2023-08-21T06:47:32Z</time>
      </trkpt>
      <trkpt lat="45.72668" lon="6.54609">
        <ele>682</ele>
        <time>2023-08-21T06:47:33Z</time>
      </trkpt>
      <trkpt lat="45.72666" lon="6.54615">
        <ele>682.2</ele>
        <time>2023-08-21T06:47:34Z</time>
      </trkpt>
      <trkpt lat="45.72663" lon="6.54621">
        <ele>682.2</ele>
        <time>2023-08-21T06:47:35Z</time>
      </trkpt>
      <trkpt lat="45.72661" lon="6.54627">
        <ele>682.2</ele>
        <time>2023-08-21T06:47:36Z</time>
      </trkpt>
      <trkpt lat="45.72658" lon="6.54632">
        <ele>682.8</ele>
        <time>2023-08-21T06:47:37Z</time>
      </trkpt>
      <trkpt lat="45.72656" lon="6.54638">
        <ele>682.8</ele>
        <time>2023-08-21T06:47:38Z</time>
      </trkpt>
      <trkpt lat="45.72653" lon="6.54643">
        <ele>682.8</ele>
        <time>2023-08-21T06:47:39Z</time>
      </trkpt>
      <trkpt lat="45.7265" lon="6.54649">
        <ele>682.8</ele>
        <time>2023-08-21T06:47:40Z</time>
      </trkpt>
      <trkpt lat="45.72647" lon="6.54654">
        <ele>682.8</ele>
        <time>2023-08-21T06:47:41Z</time>
      </trkpt>
      <trkpt lat="45.72645" lon="6.5466">
        <ele>682.8</ele>
        <time>2023-08-21T06:47:42Z</time>
      </trkpt>
      <trkpt lat="45.72642" lon="6.54666">
        <ele>683.2</ele>
        <time>2023-08-21T06:47:43Z</time>
      </trkpt>
      <trkpt lat="45.72639" lon="6.54671">
        <ele>683.2</ele>
        <time>2023-08-21T06:47:44Z</time>
      </trkpt>
      <trkpt lat="45.72636" lon="6.54677">
        <ele>683.2</ele>
        <time>2023-08-21T06:47:45Z</time>
      </trkpt>
      <trkpt lat="45.72633" lon="6.54682">
        <ele>683.2</ele>
        <time>2023-08-21T06:47:46Z</time>
      </trkpt>
      <trkpt lat="45.7263" lon="6.54688">
        <ele>683.2</ele>
        <time>2023-08-21T06:47:47Z</time>
      </trkpt>
      <trkpt lat="45.72626" lon="6.54695">
        <ele>683.2</ele>
        <time>2023-08-21T06:47:48Z</time>
      </trkpt>
      <trkpt lat="45.72622" lon="6.54702">
        <ele>683.2</ele>
        <time>2023-08-21T06:47:49Z</time>
      </trkpt>
      <trkpt lat="45.72618" lon="6.54708">
        <ele>683.2</ele>
        <time>2023-08-21T06:47:50Z</time>
      </trkpt>
      <trkpt lat="45.72614" lon="6.54715">
        <ele>683.2</ele>
        <time>2023-08-21T06:47:51Z</time>
      </trkpt>
      <trkpt lat="45.7261" lon="6.54722">
        <ele>682.8</ele>
        <time>2023-08-21T06:47:52Z</time>
      </trkpt>
      <trkpt lat="45.72606" lon="6.5473">
        <ele>682.8</ele>
        <time>2023-08-21T06:47:53Z</time>
      </trkpt>
      <trkpt lat="45.72602" lon="6.54738">
        <ele>682.8</ele>
        <time>2023-08-21T06:47:54Z</time>
      </trkpt>
      <trkpt lat="45.72598" lon="6.54748">
        <ele>682.4</ele>
        <time>2023-08-21T06:47:55Z</time>
      </trkpt>
      <trkpt lat="45.72595" lon="6.54757">
        <ele>682</ele>
        <time>2023-08-21T06:47:56Z</time>
      </trkpt>
      <trkpt lat="45.72593" lon="6.54768">
        <ele>682</ele>
        <time>2023-08-21T06:47:57Z</time>
      </trkpt>
      <trkpt lat="45.72591" lon="6.54779">
        <ele>682</ele>
        <time>2023-08-21T06:47:58Z</time>
      </trkpt>
      <trkpt lat="45.72589" lon="6.5479">
        <ele>681</ele>
        <time>2023-08-21T06:47:59Z</time>
      </trkpt>
      <trkpt lat="45.72588" lon="6.54802">
        <ele>680.4</ele>
        <time>2023-08-21T06:48:00Z</time>
      </trkpt>
      <trkpt lat="45.72587" lon="6.54814">
        <ele>680.4</ele>
        <time>2023-08-21T06:48:01Z</time>
      </trkpt>
      <trkpt lat="45.72585" lon="6.54827">
        <ele>680.4</ele>
        <time>2023-08-21T06:48:02Z</time>
      </trkpt>
      <trkpt lat="45.72584" lon="6.5484">
        <ele>680.4</ele>
        <time>2023-08-21T06:48:03Z</time>
      </trkpt>
      <trkpt lat="45.72583" lon="6.54853">
        <ele>680.4</ele>
        <time>2023-08-21T06:48:04Z</time>
      </trkpt>
      <trkpt lat="45.72582" lon="6.54865">
        <ele>679.4</ele>
        <time>2023-08-21T06:48:05Z</time>
      </trkpt>
      <trkpt lat="45.72581" lon="6.54878">
        <ele>678.8</ele>
        <time>2023-08-21T06:48:06Z</time>
      </trkpt>
      <trkpt lat="45.7258" lon="6.54891">
        <ele>678.8</ele>
        <time>2023-08-21T06:48:07Z</time>
      </trkpt>
      <trkpt lat="45.72579" lon="6.54903">
        <ele>678.8</ele>
        <time>2023-08-21T06:48:08Z</time>
      </trkpt>
      <trkpt lat="45.72578" lon="6.54916">
        <ele>678.2</ele>
        <time>2023-08-21T06:48:09Z</time>
      </trkpt>
      <trkpt lat="45.72577" lon="6.54929">
        <ele>678.2</ele>
        <time>2023-08-21T06:48:10Z</time>
      </trkpt>
      <trkpt lat="45.72576" lon="6.54941">
        <ele>678.2</ele>
        <time>2023-08-21T06:48:11Z</time>
      </trkpt>
      <trkpt lat="45.72575" lon="6.54952">
        <ele>678.2</ele>
        <time>2023-08-21T06:48:12Z</time>
      </trkpt>
      <trkpt lat="45.72574" lon="6.54964">
        <ele>678.2</ele>
        <time>2023-08-21T06:48:13Z</time>
      </trkpt>
      <trkpt lat="45.72573" lon="6.54975">
        <ele>678.2</ele>
        <time>2023-08-21T06:48:14Z</time>
      </trkpt>
      <trkpt lat="45.72571" lon="6.54987">
        <ele>678</ele>
        <time>2023-08-21T06:48:15Z</time>
      </trkpt>
      <trkpt lat="45.7257" lon="6.54998">
        <ele>678</ele>
        <time>2023-08-21T06:48:16Z</time>
      </trkpt>
      <trkpt lat="45.72569" lon="6.55008">
        <ele>678</ele>
        <time>2023-08-21T06:48:17Z</time>
      </trkpt>
      <trkpt lat="45.72567" lon="6.55019">
        <ele>678</ele>
        <time>2023-08-21T06:48:18Z</time>
      </trkpt>
      <trkpt lat="45.72565" lon="6.5503">
        <ele>678</ele>
        <time>2023-08-21T06:48:19Z</time>
      </trkpt>
      <trkpt lat="45.72563" lon="6.55039">
        <ele>678</ele>
        <time>2023-08-21T06:48:20Z</time>
      </trkpt>
      <trkpt lat="45.72561" lon="6.55049">
        <ele>678</ele>
        <time>2023-08-21T06:48:21Z</time>
      </trkpt>
      <trkpt lat="45.72559" lon="6.55059">
        <ele>678</ele>
        <time>2023-08-21T06:48:22Z</time>
      </trkpt>
      <trkpt lat="45.72557" lon="6.55069">
        <ele>678</ele>
        <time>2023-08-21T06:48:23Z</time>
      </trkpt>
      <trkpt lat="45.72555" lon="6.55079">
        <ele>678</ele>
        <time>2023-08-21T06:48:24Z</time>
      </trkpt>
      <trkpt lat="45.72553" lon="6.55088">
        <ele>678</ele>
        <time>2023-08-21T06:48:25Z</time>
      </trkpt>
      <trkpt lat="45.7255" lon="6.55097">
        <ele>678</ele>
        <time>2023-08-21T06:48:26Z</time>
      </trkpt>
      <trkpt lat="45.72548" lon="6.55106">
        <ele>678</ele>
        <time>2023-08-21T06:48:27Z</time>
      </trkpt>
      <trkpt lat="45.72545" lon="6.55114">
        <ele>678.2</ele>
        <time>2023-08-21T06:48:28Z</time>
      </trkpt>
      <trkpt lat="45.72543" lon="6.55122">
        <ele>678.2</ele>
        <time>2023-08-21T06:48:29Z</time>
      </trkpt>
      <trkpt lat="45.7254" lon="6.5513">
        <ele>678.2</ele>
        <time>2023-08-21T06:48:30Z</time>
      </trkpt>
      <trkpt lat="45.72537" lon="6.55139">
        <ele>678.2</ele>
        <time>2023-08-21T06:48:31Z</time>
      </trkpt>
      <trkpt lat="45.72535" lon="6.55147">
        <ele>678.6</ele>
        <time>2023-08-21T06:48:32Z</time>
      </trkpt>
      <trkpt lat="45.72532" lon="6.55155">
        <ele>678.6</ele>
        <time>2023-08-21T06:48:33Z</time>
      </trkpt>
      <trkpt lat="45.72528" lon="6.55162">
        <ele>678.6</ele>
        <time>2023-08-21T06:48:34Z</time>
      </trkpt>
      <trkpt lat="45.72525" lon="6.5517">
        <ele>678.6</ele>
        <time>2023-08-21T06:48:35Z</time>
      </trkpt>
      <trkpt lat="45.72522" lon="6.55177">
        <ele>678.4</ele>
        <time>2023-08-21T06:48:36Z</time>
      </trkpt>
      <trkpt lat="45.72519" lon="6.55184">
        <ele>678.4</ele>
        <time>2023-08-21T06:48:37Z</time>
      </trkpt>
      <trkpt lat="45.72516" lon="6.55191">
        <ele>678.4</ele>
        <time>2023-08-21T06:48:38Z</time>
      </trkpt>
      <trkpt lat="45.72513" lon="6.55198">
        <ele>678.4</ele>
        <time>2023-08-21T06:48:39Z</time>
      </trkpt>
      <trkpt lat="45.72509" lon="6.55206">
        <ele>678.6</ele>
        <time>2023-08-21T06:48:40Z</time>
      </trkpt>
      <trkpt lat="45.72506" lon="6.55213">
        <ele>678.8</ele>
        <time>2023-08-21T06:48:41Z</time>
      </trkpt>
      <trkpt lat="45.72503" lon="6.5522">
        <ele>678.8</ele>
        <time>2023-08-21T06:48:42Z</time>
      </trkpt>
      <trkpt lat="45.72499" lon="6.55227">
        <ele>678.8</ele>
        <time>2023-08-21T06:48:43Z</time>
      </trkpt>
      <trkpt lat="45.72495" lon="6.55234">
        <ele>679</ele>
        <time>2023-08-21T06:48:44Z</time>
      </trkpt>
      <trkpt lat="45.72491" lon="6.55241">
        <ele>679</ele>
        <time>2023-08-21T06:48:45Z</time>
      </trkpt>
      <trkpt lat="45.72487" lon="6.55248">
        <ele>679</ele>
        <time>2023-08-21T06:48:46Z</time>
      </trkpt>
      <trkpt lat="45.72484" lon="6.55255">
        <ele>679</ele>
        <time>2023-08-21T06:48:47Z</time>
      </trkpt>
      <trkpt lat="45.7248" lon="6.55261">
        <ele>679</ele>
        <time>2023-08-21T06:48:48Z</time>
      </trkpt>
      <trkpt lat="45.72476" lon="6.55268">
        <ele>679</ele>
        <time>2023-08-21T06:48:49Z</time>
      </trkpt>
      <trkpt lat="45.72472" lon="6.55274">
        <ele>679.6</ele>
        <time>2023-08-21T06:48:50Z</time>
      </trkpt>
      <trkpt lat="45.72468" lon="6.5528">
        <ele>679.6</ele>
        <time>2023-08-21T06:48:51Z</time>
      </trkpt>
      <trkpt lat="45.72464" lon="6.55285">
        <ele>679.6</ele>
        <time>2023-08-21T06:48:52Z</time>
      </trkpt>
      <trkpt lat="45.7246" lon="6.55291">
        <ele>679.6</ele>
        <time>2023-08-21T06:48:53Z</time>
      </trkpt>
      <trkpt lat="45.72457" lon="6.55296">
        <ele>679.6</ele>
        <time>2023-08-21T06:48:54Z</time>
      </trkpt>
      <trkpt lat="45.72453" lon="6.55302">
        <ele>680.2</ele>
        <time>2023-08-21T06:48:55Z</time>
      </trkpt>
      <trkpt lat="45.72449" lon="6.55307">
        <ele>680.2</ele>
        <time>2023-08-21T06:48:56Z</time>
      </trkpt>
      <trkpt lat="45.72446" lon="6.55313">
        <ele>680.2</ele>
        <time>2023-08-21T06:48:57Z</time>
      </trkpt>
      <trkpt lat="45.72442" lon="6.55318">
        <ele>680</ele>
        <time>2023-08-21T06:48:58Z</time>
      </trkpt>
      <trkpt lat="45.72438" lon="6.55324">
        <ele>680</ele>
        <time>2023-08-21T06:48:59Z</time>
      </trkpt>
      <trkpt lat="45.72435" lon="6.55329">
        <ele>680</ele>
        <time>2023-08-21T06:49:00Z</time>
      </trkpt>
      <trkpt lat="45.72431" lon="6.55335">
        <ele>680</ele>
        <time>2023-08-21T06:49:01Z</time>
      </trkpt>
      <trkpt lat="45.72427" lon="6.55341">
        <ele>680.2</ele>
        <time>2023-08-21T06:49:02Z</time>
      </trkpt>
      <trkpt lat="45.72423" lon="6.55347">
        <ele>680.2</ele>
        <time>2023-08-21T06:49:03Z</time>
      </trkpt>
      <trkpt lat="45.7242" lon="6.55353">
        <ele>680.4</ele>
        <time>2023-08-21T06:49:04Z</time>
      </trkpt>
      <trkpt lat="45.72416" lon="6.55359">
        <ele>680.4</ele>
        <time>2023-08-21T06:49:05Z</time>
      </trkpt>
      <trkpt lat="45.72412" lon="6.55365">
        <ele>680.4</ele>
        <time>2023-08-21T06:49:06Z</time>
      </trkpt>
      <trkpt lat="45.72409" lon="6.5537">
        <ele>680.4</ele>
        <time>2023-08-21T06:49:07Z</time>
      </trkpt>
      <trkpt lat="45.72405" lon="6.55376">
        <ele>680.6</ele>
        <time>2023-08-21T06:49:08Z</time>
      </trkpt>
      <trkpt lat="45.72401" lon="6.55382">
        <ele>680.6</ele>
        <time>2023-08-21T06:49:09Z</time>
      </trkpt>
      <trkpt lat="45.72398" lon="6.55388">
        <ele>680.6</ele>
        <time>2023-08-21T06:49:10Z</time>
      </trkpt>
      <trkpt lat="45.72394" lon="6.55393">
        <ele>680.6</ele>
        <time>2023-08-21T06:49:11Z</time>
      </trkpt>
      <trkpt lat="45.72391" lon="6.55399">
        <ele>680.8</ele>
        <time>2023-08-21T06:49:12Z</time>
      </trkpt>
      <trkpt lat="45.72387" lon="6.55405">
        <ele>680.8</ele>
        <time>2023-08-21T06:49:13Z</time>
      </trkpt>
      <trkpt lat="45.72384" lon="6.55411">
        <ele>680.8</ele>
        <time>2023-08-21T06:49:14Z</time>
      </trkpt>
      <trkpt lat="45.7238" lon="6.55417">
        <ele>680.8</ele>
        <time>2023-08-21T06:49:15Z</time>
      </trkpt>
      <trkpt lat="45.72377" lon="6.55423">
        <ele>681.2</ele>
        <time>2023-08-21T06:49:16Z</time>
      </trkpt>
      <trkpt lat="45.72373" lon="6.55428">
        <ele>681.4</ele>
        <time>2023-08-21T06:49:17Z</time>
      </trkpt>
      <trkpt lat="45.7237" lon="6.55433">
        <ele>681.4</ele>
        <time>2023-08-21T06:49:18Z</time>
      </trkpt>
      <trkpt lat="45.72367" lon="6.55439">
        <ele>681.4</ele>
        <time>2023-08-21T06:49:19Z</time>
      </trkpt>
      <trkpt lat="45.72363" lon="6.55444">
        <ele>681.4</ele>
        <time>2023-08-21T06:49:20Z</time>
      </trkpt>
      <trkpt lat="45.7236" lon="6.5545">
        <ele>681.6</ele>
        <time>2023-08-21T06:49:21Z</time>
      </trkpt>
      <trkpt lat="45.72356" lon="6.55455">
        <ele>681.6</ele>
        <time>2023-08-21T06:49:22Z</time>
      </trkpt>
      <trkpt lat="45.72353" lon="6.5546">
        <ele>681.6</ele>
        <time>2023-08-21T06:49:23Z</time>
      </trkpt>
      <trkpt lat="45.7235" lon="6.55465">
        <ele>681.8</ele>
        <time>2023-08-21T06:49:24Z</time>
      </trkpt>
      <trkpt lat="45.72346" lon="6.5547">
        <ele>681.8</ele>
        <time>2023-08-21T06:49:25Z</time>
      </trkpt>
      <trkpt lat="45.72343" lon="6.55476">
        <ele>682</ele>
        <time>2023-08-21T06:49:26Z</time>
      </trkpt>
      <trkpt lat="45.72339" lon="6.55482">
        <ele>682</ele>
        <time>2023-08-21T06:49:27Z</time>
      </trkpt>
      <trkpt lat="45.72336" lon="6.55487">
        <ele>682</ele>
        <time>2023-08-21T06:49:28Z</time>
      </trkpt>
      <trkpt lat="45.72332" lon="6.55492">
        <ele>682</ele>
        <time>2023-08-21T06:49:29Z</time>
      </trkpt>
      <trkpt lat="45.72329" lon="6.55497">
        <ele>682.4</ele>
        <time>2023-08-21T06:49:30Z</time>
      </trkpt>
      <trkpt lat="45.72326" lon="6.55502">
        <ele>682.4</ele>
        <time>2023-08-21T06:49:31Z</time>
      </trkpt>
      <trkpt lat="45.72322" lon="6.55507">
        <ele>682.4</ele>
        <time>2023-08-21T06:49:32Z</time>
      </trkpt>
      <trkpt lat="45.72319" lon="6.55512">
        <ele>682.4</ele>
        <time>2023-08-21T06:49:33Z</time>
      </trkpt>
      <trkpt lat="45.72316" lon="6.55518">
        <ele>682.8</ele>
        <time>2023-08-21T06:49:34Z</time>
      </trkpt>
      <trkpt lat="45.72313" lon="6.55523">
        <ele>682.8</ele>
        <time>2023-08-21T06:49:35Z</time>
      </trkpt>
      <trkpt lat="45.72309" lon="6.55528">
        <ele>683</ele>
        <time>2023-08-21T06:49:36Z</time>
      </trkpt>
      <trkpt lat="45.72306" lon="6.55533">
        <ele>683</ele>
        <time>2023-08-21T06:49:37Z</time>
      </trkpt>
      <trkpt lat="45.72303" lon="6.55538">
        <ele>683</ele>
        <time>2023-08-21T06:49:38Z</time>
      </trkpt>
      <trkpt lat="45.723" lon="6.55543">
        <ele>683.2</ele>
        <time>2023-08-21T06:49:39Z</time>
      </trkpt>
      <trkpt lat="45.72296" lon="6.55548">
        <ele>683.2</ele>
        <time>2023-08-21T06:49:40Z</time>
      </trkpt>
      <trkpt lat="45.72293" lon="6.55554">
        <ele>683.2</ele>
        <time>2023-08-21T06:49:41Z</time>
      </trkpt>
      <trkpt lat="45.7229" lon="6.55559">
        <ele>683.2</ele>
        <time>2023-08-21T06:49:42Z</time>
      </trkpt>
      <trkpt lat="45.72287" lon="6.55564">
        <ele>683.2</ele>
        <time>2023-08-21T06:49:43Z</time>
      </trkpt>
      <trkpt lat="45.72283" lon="6.55569">
        <ele>683.6</ele>
        <time>2023-08-21T06:49:44Z</time>
      </trkpt>
      <trkpt lat="45.7228" lon="6.55574">
        <ele>683.6</ele>
        <time>2023-08-21T06:49:45Z</time>
      </trkpt>
      <trkpt lat="45.72277" lon="6.55579">
        <ele>683.6</ele>
        <time>2023-08-21T06:49:46Z</time>
      </trkpt>
      <trkpt lat="45.72274" lon="6.55585">
        <ele>683.8</ele>
        <time>2023-08-21T06:49:47Z</time>
      </trkpt>
      <trkpt lat="45.7227" lon="6.5559">
        <ele>683.8</ele>
        <time>2023-08-21T06:49:48Z</time>
      </trkpt>
      <trkpt lat="45.72267" lon="6.55595">
        <ele>684</ele>
        <time>2023-08-21T06:49:49Z</time>
      </trkpt>
      <trkpt lat="45.72264" lon="6.556">
        <ele>684</ele>
        <time>2023-08-21T06:49:50Z</time>
      </trkpt>
      <trkpt lat="45.7226" lon="6.55606">
        <ele>684</ele>
        <time>2023-08-21T06:49:51Z</time>
      </trkpt>
      <trkpt lat="45.72257" lon="6.55611">
        <ele>684</ele>
        <time>2023-08-21T06:49:52Z</time>
      </trkpt>
      <trkpt lat="45.72254" lon="6.55616">
        <ele>684.2</ele>
        <time>2023-08-21T06:49:53Z</time>
      </trkpt>
      <trkpt lat="45.7225" lon="6.55621">
        <ele>684.2</ele>
        <time>2023-08-21T06:49:54Z</time>
      </trkpt>
      <trkpt lat="45.72247" lon="6.55626">
        <ele>684.2</ele>
        <time>2023-08-21T06:49:55Z</time>
      </trkpt>
      <trkpt lat="45.72244" lon="6.55631">
        <ele>684.6</ele>
        <time>2023-08-21T06:49:56Z</time>
      </trkpt>
      <trkpt lat="45.7224" lon="6.55636">
        <ele>684.4</ele>
        <time>2023-08-21T06:49:57Z</time>
      </trkpt>
      <trkpt lat="45.72237" lon="6.55642">
        <ele>684.4</ele>
        <time>2023-08-21T06:49:58Z</time>
      </trkpt>
      <trkpt lat="45.72234" lon="6.55647">
        <ele>684.4</ele>
        <time>2023-08-21T06:49:59Z</time>
      </trkpt>
      <trkpt lat="45.72231" lon="6.55652">
        <ele>684.4</ele>
        <time>2023-08-21T06:50:00Z</time>
      </trkpt>
      <trkpt lat="45.72228" lon="6.55657">
        <ele>685</ele>
        <time>2023-08-21T06:50:01Z</time>
      </trkpt>
      <trkpt lat="45.72224" lon="6.55663">
        <ele>685</ele>
        <time>2023-08-21T06:50:02Z</time>
      </trkpt>
      <trkpt lat="45.72221" lon="6.55668">
        <ele>685</ele>
        <time>2023-08-21T06:50:03Z</time>
      </trkpt>
      <trkpt lat="45.72218" lon="6.55673">
        <ele>685</ele>
        <time>2023-08-21T06:50:04Z</time>
      </trkpt>
      <trkpt lat="45.72214" lon="6.55678">
        <ele>685</ele>
        <time>2023-08-21T06:50:05Z</time>
      </trkpt>
      <trkpt lat="45.72211" lon="6.55683">
        <ele>685.4</ele>
        <time>2023-08-21T06:50:06Z</time>
      </trkpt>
      <trkpt lat="45.72208" lon="6.55688">
        <ele>685.4</ele>
        <time>2023-08-21T06:50:07Z</time>
      </trkpt>
      <trkpt lat="45.72205" lon="6.55693">
        <ele>685.4</ele>
        <time>2023-08-21T06:50:08Z</time>
      </trkpt>
      <trkpt lat="45.72202" lon="6.55698">
        <ele>685.4</ele>
        <time>2023-08-21T06:50:09Z</time>
      </trkpt>
      <trkpt lat="45.72198" lon="6.55703">
        <ele>685.4</ele>
        <time>2023-08-21T06:50:10Z</time>
      </trkpt>
      <trkpt lat="45.72195" lon="6.55708">
        <ele>685.6</ele>
        <time>2023-08-21T06:50:11Z</time>
      </trkpt>
      <trkpt lat="45.72193" lon="6.55713">
        <ele>685.6</ele>
        <time>2023-08-21T06:50:12Z</time>
      </trkpt>
      <trkpt lat="45.7219" lon="6.55718">
        <ele>686</ele>
        <time>2023-08-21T06:50:13Z</time>
      </trkpt>
      <trkpt lat="45.72187" lon="6.55723">
        <ele>686</ele>
        <time>2023-08-21T06:50:14Z</time>
      </trkpt>
      <trkpt lat="45.72184" lon="6.55729">
        <ele>686.2</ele>
        <time>2023-08-21T06:50:15Z</time>
      </trkpt>
      <trkpt lat="45.7218" lon="6.55734">
        <ele>686.2</ele>
        <time>2023-08-21T06:50:16Z</time>
      </trkpt>
      <trkpt lat="45.72178" lon="6.55739">
        <ele>686.2</ele>
        <time>2023-08-21T06:50:17Z</time>
      </trkpt>
      <trkpt lat="45.72175" lon="6.55744">
        <ele>686.2</ele>
        <time>2023-08-21T06:50:18Z</time>
      </trkpt>
      <trkpt lat="45.72172" lon="6.55748">
        <ele>686.2</ele>
        <time>2023-08-21T06:50:19Z</time>
      </trkpt>
      <trkpt lat="45.72169" lon="6.55753">
        <ele>686.8</ele>
        <time>2023-08-21T06:50:20Z</time>
      </trkpt>
      <trkpt lat="45.72166" lon="6.55758">
        <ele>686.8</ele>
        <time>2023-08-21T06:50:21Z</time>
      </trkpt>
      <trkpt lat="45.72164" lon="6.55763">
        <ele>686.8</ele>
        <time>2023-08-21T06:50:22Z</time>
      </trkpt>
      <trkpt lat="45.72161" lon="6.55768">
        <ele>686.8</ele>
        <time>2023-08-21T06:50:23Z</time>
      </trkpt>
      <trkpt lat="45.72158" lon="6.55773">
        <ele>687.2</ele>
        <time>2023-08-21T06:50:24Z</time>
      </trkpt>
      <trkpt lat="45.72155" lon="6.55778">
        <ele>687.2</ele>
        <time>2023-08-21T06:50:25Z</time>
      </trkpt>
      <trkpt lat="45.72153" lon="6.55783">
        <ele>687.2</ele>
        <time>2023-08-21T06:50:26Z</time>
      </trkpt>
      <trkpt lat="45.72151" lon="6.55789">
        <ele>687.6</ele>
        <time>2023-08-21T06:50:27Z</time>
      </trkpt>
      <trkpt lat="45.72149" lon="6.55794">
        <ele>687.6</ele>
        <time>2023-08-21T06:50:28Z</time>
      </trkpt>
      <trkpt lat="45.72147" lon="6.558">
        <ele>687.6</ele>
        <time>2023-08-21T06:50:29Z</time>
      </trkpt>
      <trkpt lat="45.72144" lon="6.55805">
        <ele>687.6</ele>
        <time>2023-08-21T06:50:30Z</time>
      </trkpt>
      <trkpt lat="45.72141" lon="6.55811">
        <ele>687.6</ele>
        <time>2023-08-21T06:50:31Z</time>
      </trkpt>
      <trkpt lat="45.72139" lon="6.55816">
        <ele>688.2</ele>
        <time>2023-08-21T06:50:32Z</time>
      </trkpt>
      <trkpt lat="45.72137" lon="6.55821">
        <ele>688.2</ele>
        <time>2023-08-21T06:50:33Z</time>
      </trkpt>
      <trkpt lat="45.72135" lon="6.55826">
        <ele>688.2</ele>
        <time>2023-08-21T06:50:34Z</time>
      </trkpt>
      <trkpt lat="45.72133" lon="6.55832">
        <ele>688.2</ele>
        <time>2023-08-21T06:50:35Z</time>
      </trkpt>
      <trkpt lat="45.7213" lon="6.55837">
        <ele>688.6</ele>
        <time>2023-08-21T06:50:36Z</time>
      </trkpt>
      <trkpt lat="45.72128" lon="6.55842">
        <ele>688.8</ele>
        <time>2023-08-21T06:50:37Z</time>
      </trkpt>
      <trkpt lat="45.72125" lon="6.55848">
        <ele>688.8</ele>
        <time>2023-08-21T06:50:38Z</time>
      </trkpt>
      <trkpt lat="45.72123" lon="6.55853">
        <ele>688.8</ele>
        <time>2023-08-21T06:50:39Z</time>
      </trkpt>
      <trkpt lat="45.72121" lon="6.55858">
        <ele>689.2</ele>
        <time>2023-08-21T06:50:40Z</time>
      </trkpt>
      <trkpt lat="45.72118" lon="6.55864">
        <ele>689.2</ele>
        <time>2023-08-21T06:50:41Z</time>
      </trkpt>
      <trkpt lat="45.72116" lon="6.55869">
        <ele>689.2</ele>
        <time>2023-08-21T06:50:42Z</time>
      </trkpt>
      <trkpt lat="45.72113" lon="6.55874">
        <ele>689.2</ele>
        <time>2023-08-21T06:50:43Z</time>
      </trkpt>
      <trkpt lat="45.72111" lon="6.5588">
        <ele>689.2</ele>
        <time>2023-08-21T06:50:44Z</time>
      </trkpt>
      <trkpt lat="45.72109" lon="6.55886">
        <ele>689.2</ele>
        <time>2023-08-21T06:50:45Z</time>
      </trkpt>
      <trkpt lat="45.72107" lon="6.55891">
        <ele>689.8</ele>
        <time>2023-08-21T06:50:46Z</time>
      </trkpt>
      <trkpt lat="45.72105" lon="6.55896">
        <ele>689.8</ele>
        <time>2023-08-21T06:50:47Z</time>
      </trkpt>
      <trkpt lat="45.72103" lon="6.55902">
        <ele>689.8</ele>
        <time>2023-08-21T06:50:48Z</time>
      </trkpt>
      <trkpt lat="45.72101" lon="6.55907">
        <ele>690.4</ele>
        <time>2023-08-21T06:50:49Z</time>
      </trkpt>
      <trkpt lat="45.72099" lon="6.55913">
        <ele>690.4</ele>
        <time>2023-08-21T06:50:50Z</time>
      </trkpt>
      <trkpt lat="45.72097" lon="6.55918">
        <ele>690.6</ele>
        <time>2023-08-21T06:50:51Z</time>
      </trkpt>
      <trkpt lat="45.72094" lon="6.55924">
        <ele>690.6</ele>
        <time>2023-08-21T06:50:52Z</time>
      </trkpt>
      <trkpt lat="45.72092" lon="6.55929">
        <ele>691.2</ele>
        <time>2023-08-21T06:50:53Z</time>
      </trkpt>
      <trkpt lat="45.72089" lon="6.55934">
        <ele>691.2</ele>
        <time>2023-08-21T06:50:54Z</time>
      </trkpt>
      <trkpt lat="45.72087" lon="6.5594">
        <ele>691.2</ele>
        <time>2023-08-21T06:50:55Z</time>
      </trkpt>
      <trkpt lat="45.72085" lon="6.55945">
        <ele>691.2</ele>
        <time>2023-08-21T06:50:56Z</time>
      </trkpt>
      <trkpt lat="45.72083" lon="6.55951">
        <ele>691.2</ele>
        <time>2023-08-21T06:50:57Z</time>
      </trkpt>
      <trkpt lat="45.72081" lon="6.55956">
        <ele>691.2</ele>
        <time>2023-08-21T06:50:58Z</time>
      </trkpt>
      <trkpt lat="45.72079" lon="6.55962">
        <ele>691.4</ele>
        <time>2023-08-21T06:50:59Z</time>
      </trkpt>
      <trkpt lat="45.72076" lon="6.55967">
        <ele>691.4</ele>
        <time>2023-08-21T06:51:00Z</time>
      </trkpt>
      <trkpt lat="45.72074" lon="6.55973">
        <ele>691.6</ele>
        <time>2023-08-21T06:51:01Z</time>
      </trkpt>
      <trkpt lat="45.72072" lon="6.55978">
        <ele>691.6</ele>
        <time>2023-08-21T06:51:02Z</time>
      </trkpt>
      <trkpt lat="45.7207" lon="6.55984">
        <ele>691.6</ele>
        <time>2023-08-21T06:51:03Z</time>
      </trkpt>
      <trkpt lat="45.72068" lon="6.55989">
        <ele>692.2</ele>
        <time>2023-08-21T06:51:04Z</time>
      </trkpt>
      <trkpt lat="45.72066" lon="6.55995">
        <ele>692.4</ele>
        <time>2023-08-21T06:51:05Z</time>
      </trkpt>
      <trkpt lat="45.72063" lon="6.56001">
        <ele>692.4</ele>
        <time>2023-08-21T06:51:06Z</time>
      </trkpt>
      <trkpt lat="45.72061" lon="6.56006">
        <ele>692.4</ele>
        <time>2023-08-21T06:51:07Z</time>
      </trkpt>
      <trkpt lat="45.72059" lon="6.56011">
        <ele>692.6</ele>
        <time>2023-08-21T06:51:08Z</time>
      </trkpt>
      <trkpt lat="45.72057" lon="6.56017">
        <ele>692.8</ele>
        <time>2023-08-21T06:51:09Z</time>
      </trkpt>
      <trkpt lat="45.72055" lon="6.56022">
        <ele>692.8</ele>
        <time>2023-08-21T06:51:10Z</time>
      </trkpt>
      <trkpt lat="45.72053" lon="6.56028">
        <ele>692.8</ele>
        <time>2023-08-21T06:51:11Z</time>
      </trkpt>
      <trkpt lat="45.72051" lon="6.56033">
        <ele>693.4</ele>
        <time>2023-08-21T06:51:12Z</time>
      </trkpt>
      <trkpt lat="45.72049" lon="6.56038">
        <ele>693.4</ele>
        <time>2023-08-21T06:51:13Z</time>
      </trkpt>
      <trkpt lat="45.72047" lon="6.56044">
        <ele>693.6</ele>
        <time>2023-08-21T06:51:14Z</time>
      </trkpt>
      <trkpt lat="45.72045" lon="6.56049">
        <ele>693.6</ele>
        <time>2023-08-21T06:51:15Z</time>
      </trkpt>
      <trkpt lat="45.72043" lon="6.56055">
        <ele>693.6</ele>
        <time>2023-08-21T06:51:16Z</time>
      </trkpt>
      <trkpt lat="45.72041" lon="6.5606">
        <ele>694</ele>
        <time>2023-08-21T06:51:17Z</time>
      </trkpt>
      <trkpt lat="45.72038" lon="6.56065">
        <ele>694</ele>
        <time>2023-08-21T06:51:18Z</time>
      </trkpt>
      <trkpt lat="45.72036" lon="6.56071">
        <ele>694</ele>
        <time>2023-08-21T06:51:19Z</time>
      </trkpt>
      <trkpt lat="45.72034" lon="6.56076">
        <ele>694</ele>
        <time>2023-08-21T06:51:20Z</time>
      </trkpt>
      <trkpt lat="45.72032" lon="6.56082">
        <ele>694.2</ele>
        <time>2023-08-21T06:51:21Z</time>
      </trkpt>
      <trkpt lat="45.7203" lon="6.56088">
        <ele>694.2</ele>
        <time>2023-08-21T06:51:22Z</time>
      </trkpt>
      <trkpt lat="45.72027" lon="6.56094">
        <ele>694.2</ele>
        <time>2023-08-21T06:51:23Z</time>
      </trkpt>
      <trkpt lat="45.72025" lon="6.561">
        <ele>694.2</ele>
        <time>2023-08-21T06:51:24Z</time>
      </trkpt>
      <trkpt lat="45.72023" lon="6.56107">
        <ele>694.4</ele>
        <time>2023-08-21T06:51:25Z</time>
      </trkpt>
      <trkpt lat="45.7202" lon="6.56113">
        <ele>694.4</ele>
        <time>2023-08-21T06:51:26Z</time>
      </trkpt>
      <trkpt lat="45.72018" lon="6.56119">
        <ele>694.4</ele>
        <time>2023-08-21T06:51:27Z</time>
      </trkpt>
      <trkpt lat="45.72015" lon="6.56125">
        <ele>694.4</ele>
        <time>2023-08-21T06:51:28Z</time>
      </trkpt>
      <trkpt lat="45.72013" lon="6.56131">
        <ele>694.4</ele>
        <time>2023-08-21T06:51:29Z</time>
      </trkpt>
      <trkpt lat="45.7201" lon="6.56137">
        <ele>694.6</ele>
        <time>2023-08-21T06:51:30Z</time>
      </trkpt>
      <trkpt lat="45.72008" lon="6.56144">
        <ele>694.8</ele>
        <time>2023-08-21T06:51:31Z</time>
      </trkpt>
      <trkpt lat="45.72006" lon="6.5615">
        <ele>694.8</ele>
        <time>2023-08-21T06:51:32Z</time>
      </trkpt>
      <trkpt lat="45.72003" lon="6.56157">
        <ele>694.8</ele>
        <time>2023-08-21T06:51:33Z</time>
      </trkpt>
      <trkpt lat="45.72001" lon="6.56163">
        <ele>695</ele>
        <time>2023-08-21T06:51:34Z</time>
      </trkpt>
      <trkpt lat="45.71999" lon="6.5617">
        <ele>695</ele>
        <time>2023-08-21T06:51:35Z</time>
      </trkpt>
      <trkpt lat="45.71996" lon="6.56176">
        <ele>695</ele>
        <time>2023-08-21T06:51:36Z</time>
      </trkpt>
      <trkpt lat="45.71994" lon="6.56182">
        <ele>695</ele>
        <time>2023-08-21T06:51:37Z</time>
      </trkpt>
      <trkpt lat="45.71992" lon="6.56189">
        <ele>695</ele>
        <time>2023-08-21T06:51:38Z</time>
      </trkpt>
      <trkpt lat="45.71989" lon="6.56195">
        <ele>695</ele>
        <time>2023-08-21T06:51:39Z</time>
      </trkpt>
      <trkpt lat="45.71987" lon="6.56201">
        <ele>695</ele>
        <time>2023-08-21T06:51:40Z</time>
      </trkpt>
      <trkpt lat="45.71984" lon="6.56208">
        <ele>695.4</ele>
        <time>2023-08-21T06:51:41Z</time>
      </trkpt>
      <trkpt lat="45.71982" lon="6.56214">
        <ele>695.4</ele>
        <time>2023-08-21T06:51:42Z</time>
      </trkpt>
      <trkpt lat="45.7198" lon="6.56221">
        <ele>695.4</ele>
        <time>2023-08-21T06:51:43Z</time>
      </trkpt>
      <trkpt lat="45.71977" lon="6.56227">
        <ele>695.8</ele>
        <time>2023-08-21T06:51:44Z</time>
      </trkpt>
      <trkpt lat="45.71975" lon="6.56233">
        <ele>695.8</ele>
        <time>2023-08-21T06:51:45Z</time>
      </trkpt>
      <trkpt lat="45.71973" lon="6.56239">
        <ele>695.8</ele>
        <time>2023-08-21T06:51:46Z</time>
      </trkpt>
      <trkpt lat="45.71971" lon="6.56246">
        <ele>695.8</ele>
        <time>2023-08-21T06:51:47Z</time>
      </trkpt>
      <trkpt lat="45.71969" lon="6.56252">
        <ele>696.2</ele>
        <time>2023-08-21T06:51:48Z</time>
      </trkpt>
      <trkpt lat="45.71968" lon="6.56259">
        <ele>696.2</ele>
        <time>2023-08-21T06:51:49Z</time>
      </trkpt>
      <trkpt lat="45.71966" lon="6.56266">
        <ele>696.2</ele>
        <time>2023-08-21T06:51:50Z</time>
      </trkpt>
      <trkpt lat="45.71965" lon="6.56272">
        <ele>696.2</ele>
        <time>2023-08-21T06:51:51Z</time>
      </trkpt>
      <trkpt lat="45.71964" lon="6.56279">
        <ele>696.2</ele>
        <time>2023-08-21T06:51:52Z</time>
      </trkpt>
      <trkpt lat="45.71963" lon="6.56286">
        <ele>696.2</ele>
        <time>2023-08-21T06:51:53Z</time>
      </trkpt>
      <trkpt lat="45.71962" lon="6.56293">
        <ele>696.6</ele>
        <time>2023-08-21T06:51:54Z</time>
      </trkpt>
      <trkpt lat="45.71961" lon="6.563">
        <ele>696.6</ele>
        <time>2023-08-21T06:51:55Z</time>
      </trkpt>
      <trkpt lat="45.71959" lon="6.56307">
        <ele>696.6</ele>
        <time>2023-08-21T06:51:56Z</time>
      </trkpt>
      <trkpt lat="45.71958" lon="6.56314">
        <ele>696.8</ele>
        <time>2023-08-21T06:51:57Z</time>
      </trkpt>
      <trkpt lat="45.71958" lon="6.56322">
        <ele>696.8</ele>
        <time>2023-08-21T06:51:58Z</time>
      </trkpt>
      <trkpt lat="45.71957" lon="6.56328">
        <ele>697</ele>
        <time>2023-08-21T06:51:59Z</time>
      </trkpt>
      <trkpt lat="45.71957" lon="6.56335">
        <ele>697</ele>
        <time>2023-08-21T06:52:00Z</time>
      </trkpt>
      <trkpt lat="45.71956" lon="6.56343">
        <ele>697</ele>
        <time>2023-08-21T06:52:01Z</time>
      </trkpt>
      <trkpt lat="45.71956" lon="6.5635">
        <ele>697.4</ele>
        <time>2023-08-21T06:52:02Z</time>
      </trkpt>
      <trkpt lat="45.71955" lon="6.56357">
        <ele>697.4</ele>
        <time>2023-08-21T06:52:03Z</time>
      </trkpt>
      <trkpt lat="45.71955" lon="6.56365">
        <ele>697.4</ele>
        <time>2023-08-21T06:52:04Z</time>
      </trkpt>
      <trkpt lat="45.71955" lon="6.56372">
        <ele>697.4</ele>
        <time>2023-08-21T06:52:05Z</time>
      </trkpt>
      <trkpt lat="45.71955" lon="6.56379">
        <ele>697.4</ele>
        <time>2023-08-21T06:52:06Z</time>
      </trkpt>
      <trkpt lat="45.71955" lon="6.56387">
        <ele>697.6</ele>
        <time>2023-08-21T06:52:07Z</time>
      </trkpt>
      <trkpt lat="45.71955" lon="6.56394">
        <ele>697.6</ele>
        <time>2023-08-21T06:52:08Z</time>
      </trkpt>
      <trkpt lat="45.71955" lon="6.56401">
        <ele>697.6</ele>
        <time>2023-08-21T06:52:09Z</time>
      </trkpt>
      <trkpt lat="45.71956" lon="6.56408">
        <ele>697.6</ele>
        <time>2023-08-21T06:52:10Z</time>
      </trkpt>
      <trkpt lat="45.71956" lon="6.56415">
        <ele>698.2</ele>
        <time>2023-08-21T06:52:11Z</time>
      </trkpt>
      <trkpt lat="45.71957" lon="6.56423">
        <ele>698.4</ele>
        <time>2023-08-21T06:52:12Z</time>
      </trkpt>
      <trkpt lat="45.71957" lon="6.5643">
        <ele>698.4</ele>
        <time>2023-08-21T06:52:13Z</time>
      </trkpt>
      <trkpt lat="45.71958" lon="6.56437">
        <ele>698.4</ele>
        <time>2023-08-21T06:52:14Z</time>
      </trkpt>
      <trkpt lat="45.71959" lon="6.56445">
        <ele>698.4</ele>
        <time>2023-08-21T06:52:15Z</time>
      </trkpt>
      <trkpt lat="45.71959" lon="6.56452">
        <ele>698.6</ele>
        <time>2023-08-21T06:52:16Z</time>
      </trkpt>
      <trkpt lat="45.7196" lon="6.5646">
        <ele>698.6</ele>
        <time>2023-08-21T06:52:17Z</time>
      </trkpt>
      <trkpt lat="45.7196" lon="6.56467">
        <ele>698.6</ele>
        <time>2023-08-21T06:52:18Z</time>
      </trkpt>
      <trkpt lat="45.71961" lon="6.56475">
        <ele>699</ele>
        <time>2023-08-21T06:52:19Z</time>
      </trkpt>
      <trkpt lat="45.71962" lon="6.56482">
        <ele>699</ele>
        <time>2023-08-21T06:52:20Z</time>
      </trkpt>
      <trkpt lat="45.71962" lon="6.5649">
        <ele>699.2</ele>
        <time>2023-08-21T06:52:21Z</time>
      </trkpt>
      <trkpt lat="45.71962" lon="6.56497">
        <ele>699.2</ele>
        <time>2023-08-21T06:52:22Z</time>
      </trkpt>
      <trkpt lat="45.71962" lon="6.56505">
        <ele>699.2</ele>
        <time>2023-08-21T06:52:23Z</time>
      </trkpt>
      <trkpt lat="45.71962" lon="6.56512">
        <ele>699.4</ele>
        <time>2023-08-21T06:52:24Z</time>
      </trkpt>
      <trkpt lat="45.71961" lon="6.5652">
        <ele>699.4</ele>
        <time>2023-08-21T06:52:25Z</time>
      </trkpt>
      <trkpt lat="45.71961" lon="6.56528">
        <ele>699.4</ele>
        <time>2023-08-21T06:52:26Z</time>
      </trkpt>
      <trkpt lat="45.7196" lon="6.56535">
        <ele>699.4</ele>
        <time>2023-08-21T06:52:27Z</time>
      </trkpt>
      <trkpt lat="45.7196" lon="6.56543">
        <ele>699.4</ele>
        <time>2023-08-21T06:52:28Z</time>
      </trkpt>
      <trkpt lat="45.7196" lon="6.5655">
        <ele>699.8</ele>
        <time>2023-08-21T06:52:29Z</time>
      </trkpt>
      <trkpt lat="45.7196" lon="6.56557">
        <ele>700</ele>
        <time>2023-08-21T06:52:30Z</time>
      </trkpt>
      <trkpt lat="45.71961" lon="6.56564">
        <ele>700</ele>
        <time>2023-08-21T06:52:31Z</time>
      </trkpt>
      <trkpt lat="45.71962" lon="6.56571">
        <ele>700</ele>
        <time>2023-08-21T06:52:32Z</time>
      </trkpt>
      <trkpt lat="45.71963" lon="6.56578">
        <ele>700</ele>
        <time>2023-08-21T06:52:33Z</time>
      </trkpt>
      <trkpt lat="45.71963" lon="6.56585">
        <ele>700.4</ele>
        <time>2023-08-21T06:52:34Z</time>
      </trkpt>
      <trkpt lat="45.71964" lon="6.56592">
        <ele>700.4</ele>
        <time>2023-08-21T06:52:35Z</time>
      </trkpt>
      <trkpt lat="45.71965" lon="6.56599">
        <ele>700.4</ele>
        <time>2023-08-21T06:52:36Z</time>
      </trkpt>
      <trkpt lat="45.71966" lon="6.56606">
        <ele>700.4</ele>
        <time>2023-08-21T06:52:37Z</time>
      </trkpt>
      <trkpt lat="45.71966" lon="6.56612">
        <ele>700.4</ele>
        <time>2023-08-21T06:52:38Z</time>
      </trkpt>
      <trkpt lat="45.71966" lon="6.56619">
        <ele>701</ele>
        <time>2023-08-21T06:52:39Z</time>
      </trkpt>
      <trkpt lat="45.71966" lon="6.56625">
        <ele>701</ele>
        <time>2023-08-21T06:52:40Z</time>
      </trkpt>
      <trkpt lat="45.71967" lon="6.5663">
        <ele>701</ele>
        <time>2023-08-21T06:52:41Z</time>
      </trkpt>
      <trkpt lat="45.71968" lon="6.56636">
        <ele>701.2</ele>
        <time>2023-08-21T06:52:42Z</time>
      </trkpt>
      <trkpt lat="45.71968" lon="6.56642">
        <ele>701.4</ele>
        <time>2023-08-21T06:52:43Z</time>
      </trkpt>
      <trkpt lat="45.71968" lon="6.56648">
        <ele>701.4</ele>
        <time>2023-08-21T06:52:44Z</time>
      </trkpt>
      <trkpt lat="45.71969" lon="6.56654">
        <ele>701.4</ele>
        <time>2023-08-21T06:52:45Z</time>
      </trkpt>
      <trkpt lat="45.71969" lon="6.5666">
        <ele>701.4</ele>
        <time>2023-08-21T06:52:46Z</time>
      </trkpt>
      <trkpt lat="45.7197" lon="6.56666">
        <ele>701.4</ele>
        <time>2023-08-21T06:52:47Z</time>
      </trkpt>
      <trkpt lat="45.7197" lon="6.56673">
        <ele>701.6</ele>
        <time>2023-08-21T06:52:48Z</time>
      </trkpt>
      <trkpt lat="45.7197" lon="6.56678">
        <ele>701.6</ele>
        <time>2023-08-21T06:52:49Z</time>
      </trkpt>
      <trkpt lat="45.71971" lon="6.56684">
        <ele>701.6</ele>
        <time>2023-08-21T06:52:50Z</time>
      </trkpt>
      <trkpt lat="45.71971" lon="6.5669">
        <ele>702</ele>
        <time>2023-08-21T06:52:51Z</time>
      </trkpt>
      <trkpt lat="45.71971" lon="6.56696">
        <ele>702</ele>
        <time>2023-08-21T06:52:52Z</time>
      </trkpt>
      <trkpt lat="45.71972" lon="6.56703">
        <ele>702.2</ele>
        <time>2023-08-21T06:52:53Z</time>
      </trkpt>
      <trkpt lat="45.71972" lon="6.56709">
        <ele>702.2</ele>
        <time>2023-08-21T06:52:54Z</time>
      </trkpt>
      <trkpt lat="45.71972" lon="6.56715">
        <ele>702.2</ele>
        <time>2023-08-21T06:52:55Z</time>
      </trkpt>
      <trkpt lat="45.71973" lon="6.5672">
        <ele>702.6</ele>
        <time>2023-08-21T06:52:56Z</time>
      </trkpt>
      <trkpt lat="45.71973" lon="6.56726">
        <ele>702.6</ele>
        <time>2023-08-21T06:52:57Z</time>
      </trkpt>
      <trkpt lat="45.71973" lon="6.56732">
        <ele>702.6</ele>
        <time>2023-08-21T06:52:58Z</time>
      </trkpt>
      <trkpt lat="45.71974" lon="6.56738">
        <ele>702.6</ele>
        <time>2023-08-21T06:52:59Z</time>
      </trkpt>
      <trkpt lat="45.71974" lon="6.56744">
        <ele>703</ele>
        <time>2023-08-21T06:53:00Z</time>
      </trkpt>
      <trkpt lat="45.71975" lon="6.5675">
        <ele>703</ele>
        <time>2023-08-21T06:53:01Z</time>
      </trkpt>
      <trkpt lat="45.71975" lon="6.56756">
        <ele>703</ele>
        <time>2023-08-21T06:53:02Z</time>
      </trkpt>
      <trkpt lat="45.71975" lon="6.56762">
        <ele>703</ele>
        <time>2023-08-21T06:53:03Z</time>
      </trkpt>
      <trkpt lat="45.71976" lon="6.56768">
        <ele>703</ele>
        <time>2023-08-21T06:53:04Z</time>
      </trkpt>
      <trkpt lat="45.71976" lon="6.56774">
        <ele>703.2</ele>
        <time>2023-08-21T06:53:05Z</time>
      </trkpt>
      <trkpt lat="45.71977" lon="6.56779">
        <ele>703.2</ele>
        <time>2023-08-21T06:53:06Z</time>
      </trkpt>
      <trkpt lat="45.71977" lon="6.56785">
        <ele>703.2</ele>
        <time>2023-08-21T06:53:07Z</time>
      </trkpt>
      <trkpt lat="45.71978" lon="6.56791">
        <ele>703.2</ele>
        <time>2023-08-21T06:53:08Z</time>
      </trkpt>
      <trkpt lat="45.71978" lon="6.56797">
        <ele>703.8</ele>
        <time>2023-08-21T06:53:09Z</time>
      </trkpt>
      <trkpt lat="45.71978" lon="6.56803">
        <ele>704</ele>
        <time>2023-08-21T06:53:10Z</time>
      </trkpt>
      <trkpt lat="45.71979" lon="6.5681">
        <ele>704</ele>
        <time>2023-08-21T06:53:11Z</time>
      </trkpt>
      <trkpt lat="45.71979" lon="6.56816">
        <ele>704</ele>
        <time>2023-08-21T06:53:12Z</time>
      </trkpt>
      <trkpt lat="45.7198" lon="6.56822">
        <ele>704</ele>
        <time>2023-08-21T06:53:13Z</time>
      </trkpt>
      <trkpt lat="45.7198" lon="6.56828">
        <ele>704.4</ele>
        <time>2023-08-21T06:53:14Z</time>
      </trkpt>
      <trkpt lat="45.71981" lon="6.56834">
        <ele>704.4</ele>
        <time>2023-08-21T06:53:15Z</time>
      </trkpt>
      <trkpt lat="45.71981" lon="6.5684">
        <ele>704.4</ele>
        <time>2023-08-21T06:53:16Z</time>
      </trkpt>
      <trkpt lat="45.71982" lon="6.56846">
        <ele>704.4</ele>
        <time>2023-08-21T06:53:17Z</time>
      </trkpt>
      <trkpt lat="45.71982" lon="6.56852">
        <ele>704.8</ele>
        <time>2023-08-21T06:53:18Z</time>
      </trkpt>
      <trkpt lat="45.71983" lon="6.56858">
        <ele>704.8</ele>
        <time>2023-08-21T06:53:19Z</time>
      </trkpt>
      <trkpt lat="45.71983" lon="6.56864">
        <ele>704.8</ele>
        <time>2023-08-21T06:53:20Z</time>
      </trkpt>
      <trkpt lat="45.71983" lon="6.56869">
        <ele>704.8</ele>
        <time>2023-08-21T06:53:21Z</time>
      </trkpt>
      <trkpt lat="45.71984" lon="6.56875">
        <ele>705.2</ele>
        <time>2023-08-21T06:53:22Z</time>
      </trkpt>
      <trkpt lat="45.71984" lon="6.56881">
        <ele>705.2</ele>
        <time>2023-08-21T06:53:23Z</time>
      </trkpt>
      <trkpt lat="45.71984" lon="6.56887">
        <ele>705.2</ele>
        <time>2023-08-21T06:53:24Z</time>
      </trkpt>
      <trkpt lat="45.71985" lon="6.56892">
        <ele>705.2</ele>
        <time>2023-08-21T06:53:25Z</time>
      </trkpt>
      <trkpt lat="45.71985" lon="6.56898">
        <ele>705.6</ele>
        <time>2023-08-21T06:53:26Z</time>
      </trkpt>
      <trkpt lat="45.71985" lon="6.56904">
        <ele>705.8</ele>
        <time>2023-08-21T06:53:27Z</time>
      </trkpt>
      <trkpt lat="45.71986" lon="6.5691">
        <ele>705.8</ele>
        <time>2023-08-21T06:53:28Z</time>
      </trkpt>
      <trkpt lat="45.71986" lon="6.56915">
        <ele>705.8</ele>
        <time>2023-08-21T06:53:29Z</time>
      </trkpt>
      <trkpt lat="45.71987" lon="6.56921">
        <ele>705.8</ele>
        <time>2023-08-21T06:53:30Z</time>
      </trkpt>
      <trkpt lat="45.71987" lon="6.56927">
        <ele>705.8</ele>
        <time>2023-08-21T06:53:31Z</time>
      </trkpt>
      <trkpt lat="45.71988" lon="6.56933">
        <ele>705.8</ele>
        <time>2023-08-21T06:53:32Z</time>
      </trkpt>
      <trkpt lat="45.71988" lon="6.56938">
        <ele>706</ele>
        <time>2023-08-21T06:53:33Z</time>
      </trkpt>
      <trkpt lat="45.71988" lon="6.56944">
        <ele>706</ele>
        <time>2023-08-21T06:53:34Z</time>
      </trkpt>
      <trkpt lat="45.71988" lon="6.5695">
        <ele>706</ele>
        <time>2023-08-21T06:53:35Z</time>
      </trkpt>
      <trkpt lat="45.71989" lon="6.56956">
        <ele>706.6</ele>
        <time>2023-08-21T06:53:36Z</time>
      </trkpt>
      <trkpt lat="45.71989" lon="6.56962">
        <ele>706.6</ele>
        <time>2023-08-21T06:53:37Z</time>
      </trkpt>
      <trkpt lat="45.7199" lon="6.56969">
        <ele>706.6</ele>
        <time>2023-08-21T06:53:38Z</time>
      </trkpt>
      <trkpt lat="45.71991" lon="6.56974">
        <ele>706.6</ele>
        <time>2023-08-21T06:53:39Z</time>
      </trkpt>
      <trkpt lat="45.71991" lon="6.5698">
        <ele>707</ele>
        <time>2023-08-21T06:53:40Z</time>
      </trkpt>
      <trkpt lat="45.71992" lon="6.56986">
        <ele>707.2</ele>
        <time>2023-08-21T06:53:41Z</time>
      </trkpt>
      <trkpt lat="45.71992" lon="6.56992">
        <ele>707.2</ele>
        <time>2023-08-21T06:53:42Z</time>
      </trkpt>
      <trkpt lat="45.71992" lon="6.56998">
        <ele>707.2</ele>
        <time>2023-08-21T06:53:43Z</time>
      </trkpt>
      <trkpt lat="45.71992" lon="6.57005">
        <ele>707.2</ele>
        <time>2023-08-21T06:53:44Z</time>
      </trkpt>
      <trkpt lat="45.71993" lon="6.5701">
        <ele>707.2</ele>
        <time>2023-08-21T06:53:45Z</time>
      </trkpt>
      <trkpt lat="45.71993" lon="6.57016">
        <ele>707.6</ele>
        <time>2023-08-21T06:53:46Z</time>
      </trkpt>
      <trkpt lat="45.71993" lon="6.57022">
        <ele>707.6</ele>
        <time>2023-08-21T06:53:47Z</time>
      </trkpt>
      <trkpt lat="45.71993" lon="6.57028">
        <ele>707.6</ele>
        <time>2023-08-21T06:53:48Z</time>
      </trkpt>
      <trkpt lat="45.71994" lon="6.57034">
        <ele>707.6</ele>
        <time>2023-08-21T06:53:49Z</time>
      </trkpt>
      <trkpt lat="45.71994" lon="6.5704">
        <ele>707.6</ele>
        <time>2023-08-21T06:53:50Z</time>
      </trkpt>
      <trkpt lat="45.71995" lon="6.57046">
        <ele>708.4</ele>
        <time>2023-08-21T06:53:51Z</time>
      </trkpt>
      <trkpt lat="45.71995" lon="6.57051">
        <ele>708.4</ele>
        <time>2023-08-21T06:53:52Z</time>
      </trkpt>
      <trkpt lat="45.71995" lon="6.57057">
        <ele>708.4</ele>
        <time>2023-08-21T06:53:53Z</time>
      </trkpt>
      <trkpt lat="45.71996" lon="6.57062">
        <ele>708.6</ele>
        <time>2023-08-21T06:53:54Z</time>
      </trkpt>
      <trkpt lat="45.71996" lon="6.57068">
        <ele>708.6</ele>
        <time>2023-08-21T06:53:55Z</time>
      </trkpt>
      <trkpt lat="45.71996" lon="6.57074">
        <ele>708.8</ele>
        <time>2023-08-21T06:53:56Z</time>
      </trkpt>
      <trkpt lat="45.71997" lon="6.5708">
        <ele>708.8</ele>
        <time>2023-08-21T06:53:57Z</time>
      </trkpt>
      <trkpt lat="45.71997" lon="6.57086">
        <ele>709.2</ele>
        <time>2023-08-21T06:53:58Z</time>
      </trkpt>
      <trkpt lat="45.71997" lon="6.57092">
        <ele>709.4</ele>
        <time>2023-08-21T06:53:59Z</time>
      </trkpt>
      <trkpt lat="45.71998" lon="6.57098">
        <ele>709.4</ele>
        <time>2023-08-21T06:54:00Z</time>
      </trkpt>
      <trkpt lat="45.71998" lon="6.57104">
        <ele>709.4</ele>
        <time>2023-08-21T06:54:01Z</time>
      </trkpt>
      <trkpt lat="45.71998" lon="6.5711">
        <ele>709.4</ele>
        <time>2023-08-21T06:54:02Z</time>
      </trkpt>
      <trkpt lat="45.71999" lon="6.57116">
        <ele>709.4</ele>
        <time>2023-08-21T06:54:03Z</time>
      </trkpt>
      <trkpt lat="45.72" lon="6.57122">
        <ele>710</ele>
        <time>2023-08-21T06:54:04Z</time>
      </trkpt>
      <trkpt lat="45.72" lon="6.57129">
        <ele>710</ele>
        <time>2023-08-21T06:54:05Z</time>
      </trkpt>
      <trkpt lat="45.72001" lon="6.57135">
        <ele>710</ele>
        <time>2023-08-21T06:54:06Z</time>
      </trkpt>
      <trkpt lat="45.72001" lon="6.57141">
        <ele>710</ele>
        <time>2023-08-21T06:54:07Z</time>
      </trkpt>
      <trkpt lat="45.72001" lon="6.57148">
        <ele>710</ele>
        <time>2023-08-21T06:54:08Z</time>
      </trkpt>
      <trkpt lat="45.72001" lon="6.57154">
        <ele>710.6</ele>
        <time>2023-08-21T06:54:09Z</time>
      </trkpt>
      <trkpt lat="45.72" lon="6.5716">
        <ele>710.6</ele>
        <time>2023-08-21T06:54:10Z</time>
      </trkpt>
      <trkpt lat="45.72" lon="6.57166">
        <ele>710.6</ele>
        <time>2023-08-21T06:54:11Z</time>
      </trkpt>
      <trkpt lat="45.72" lon="6.57173">
        <ele>710.8</ele>
        <time>2023-08-21T06:54:12Z</time>
      </trkpt>
      <trkpt lat="45.72" lon="6.57179">
        <ele>710.8</ele>
        <time>2023-08-21T06:54:13Z</time>
      </trkpt>
      <trkpt lat="45.72" lon="6.57186">
        <ele>710.8</ele>
        <time>2023-08-21T06:54:14Z</time>
      </trkpt>
      <trkpt lat="45.71999" lon="6.57192">
        <ele>711</ele>
        <time>2023-08-21T06:54:15Z</time>
      </trkpt>
      <trkpt lat="45.71998" lon="6.57198">
        <ele>711</ele>
        <time>2023-08-21T06:54:16Z</time>
      </trkpt>
      <trkpt lat="45.71995" lon="6.57203">
        <ele>711</ele>
        <time>2023-08-21T06:54:17Z</time>
      </trkpt>
      <trkpt lat="45.71993" lon="6.57209">
        <ele>711.4</ele>
        <time>2023-08-21T06:54:18Z</time>
      </trkpt>
      <trkpt lat="45.71991" lon="6.57214">
        <ele>711.2</ele>
        <time>2023-08-21T06:54:19Z</time>
      </trkpt>
      <trkpt lat="45.71989" lon="6.5722">
        <ele>711.2</ele>
        <time>2023-08-21T06:54:20Z</time>
      </trkpt>
      <trkpt lat="45.71988" lon="6.57226">
        <ele>711.2</ele>
        <time>2023-08-21T06:54:21Z</time>
      </trkpt>
      <trkpt lat="45.71987" lon="6.57232">
        <ele>711.2</ele>
        <time>2023-08-21T06:54:22Z</time>
      </trkpt>
      <trkpt lat="45.71985" lon="6.57237">
        <ele>711.6</ele>
        <time>2023-08-21T06:54:23Z</time>
      </trkpt>
      <trkpt lat="45.71983" lon="6.57243">
        <ele>712</ele>
        <time>2023-08-21T06:54:24Z</time>
      </trkpt>
      <trkpt lat="45.71981" lon="6.57249">
        <ele>712</ele>
        <time>2023-08-21T06:54:25Z</time>
      </trkpt>
      <trkpt lat="45.71979" lon="6.57254">
        <ele>712</ele>
        <time>2023-08-21T06:54:26Z</time>
      </trkpt>
      <trkpt lat="45.71977" lon="6.57259">
        <ele>712</ele>
        <time>2023-08-21T06:54:27Z</time>
      </trkpt>
      <trkpt lat="45.71974" lon="6.57264">
        <ele>712.2</ele>
        <time>2023-08-21T06:54:28Z</time>
      </trkpt>
      <trkpt lat="45.71972" lon="6.57269">
        <ele>712.2</ele>
        <time>2023-08-21T06:54:29Z</time>
      </trkpt>
      <trkpt lat="45.7197" lon="6.57274">
        <ele>712.2</ele>
        <time>2023-08-21T06:54:30Z</time>
      </trkpt>
      <trkpt lat="45.71968" lon="6.57278">
        <ele>712.4</ele>
        <time>2023-08-21T06:54:31Z</time>
      </trkpt>
      <trkpt lat="45.71966" lon="6.57283">
        <ele>712.8</ele>
        <time>2023-08-21T06:54:32Z</time>
      </trkpt>
      <trkpt lat="45.71964" lon="6.57287">
        <ele>712.8</ele>
        <time>2023-08-21T06:54:33Z</time>
      </trkpt>
      <trkpt lat="45.71962" lon="6.57292">
        <ele>712.8</ele>
        <time>2023-08-21T06:54:34Z</time>
      </trkpt>
      <trkpt lat="45.71959" lon="6.57297">
        <ele>713.2</ele>
        <time>2023-08-21T06:54:35Z</time>
      </trkpt>
      <trkpt lat="45.71957" lon="6.57302">
        <ele>713.2</ele>
        <time>2023-08-21T06:54:36Z</time>
      </trkpt>
      <trkpt lat="45.71954" lon="6.57306">
        <ele>713.2</ele>
        <time>2023-08-21T06:54:37Z</time>
      </trkpt>
      <trkpt lat="45.71951" lon="6.57311">
        <ele>713.4</ele>
        <time>2023-08-21T06:54:38Z</time>
      </trkpt>
      <trkpt lat="45.71948" lon="6.57314">
        <ele>713.4</ele>
        <time>2023-08-21T06:54:39Z</time>
      </trkpt>
      <trkpt lat="45.71944" lon="6.57317">
        <ele>713.4</ele>
        <time>2023-08-21T06:54:40Z</time>
      </trkpt>
      <trkpt lat="45.7194" lon="6.57319">
        <ele>713.8</ele>
        <time>2023-08-21T06:54:41Z</time>
      </trkpt>
      <trkpt lat="45.71936" lon="6.57321">
        <ele>714</ele>
        <time>2023-08-21T06:54:42Z</time>
      </trkpt>
      <trkpt lat="45.71932" lon="6.57322">
        <ele>714</ele>
        <time>2023-08-21T06:54:43Z</time>
      </trkpt>
      <trkpt lat="45.71929" lon="6.57323">
        <ele>714</ele>
        <time>2023-08-21T06:54:44Z</time>
      </trkpt>
      <trkpt lat="45.71925" lon="6.57323">
        <ele>714.2</ele>
        <time>2023-08-21T06:54:45Z</time>
      </trkpt>
      <trkpt lat="45.71922" lon="6.57325">
        <ele>714.2</ele>
        <time>2023-08-21T06:54:46Z</time>
      </trkpt>
      <trkpt lat="45.71921" lon="6.57328">
        <ele>714.2</ele>
        <time>2023-08-21T06:54:47Z</time>
      </trkpt>
      <trkpt lat="45.7192" lon="6.5733">
        <ele>714.2</ele>
        <time>2023-08-21T06:54:48Z</time>
      </trkpt>
      <trkpt lat="45.71919" lon="6.57333">
        <ele>714</ele>
        <time>2023-08-21T06:55:48Z</time>
      </trkpt>
      <trkpt lat="45.71918" lon="6.57336">
        <ele>714</ele>
        <time>2023-08-21T06:55:49Z</time>
      </trkpt>
      <trkpt lat="45.71915" lon="6.57339">
        <ele>714.2</ele>
        <time>2023-08-21T06:55:50Z</time>
      </trkpt>
      <trkpt lat="45.71912" lon="6.57342">
        <ele>714.2</ele>
        <time>2023-08-21T06:55:51Z</time>
      </trkpt>
      <trkpt lat="45.71909" lon="6.57345">
        <ele>714.2</ele>
        <time>2023-08-21T06:55:52Z</time>
      </trkpt>
      <trkpt lat="45.71908" lon="6.57349">
        <ele>714.8</ele>
        <time>2023-08-21T06:55:53Z</time>
      </trkpt>
      <trkpt lat="45.71906" lon="6.57353">
        <ele>714.8</ele>
        <time>2023-08-21T06:55:54Z</time>
      </trkpt>
      <trkpt lat="45.71904" lon="6.57357">
        <ele>714.8</ele>
        <time>2023-08-21T06:55:55Z</time>
      </trkpt>
      <trkpt lat="45.71901" lon="6.57361">
        <ele>714.8</ele>
        <time>2023-08-21T06:55:56Z</time>
      </trkpt>
      <trkpt lat="45.71899" lon="6.57365">
        <ele>715</ele>
        <time>2023-08-21T06:55:57Z</time>
      </trkpt>
      <trkpt lat="45.71896" lon="6.57369">
        <ele>715.2</ele>
        <time>2023-08-21T06:55:58Z</time>
      </trkpt>
      <trkpt lat="45.71893" lon="6.57372">
        <ele>715.2</ele>
        <time>2023-08-21T06:55:59Z</time>
      </trkpt>
      <trkpt lat="45.7189" lon="6.57374">
        <ele>715.2</ele>
        <time>2023-08-21T06:56:00Z</time>
      </trkpt>
      <trkpt lat="45.71888" lon="6.57377">
        <ele>715.2</ele>
        <time>2023-08-21T06:56:01Z</time>
      </trkpt>
      <trkpt lat="45.71884" lon="6.57379">
        <ele>715.2</ele>
        <time>2023-08-21T06:56:02Z</time>
      </trkpt>
      <trkpt lat="45.71882" lon="6.57382">
        <ele>715.4</ele>
        <time>2023-08-21T06:56:03Z</time>
      </trkpt>
      <trkpt lat="45.7188" lon="6.57386">
        <ele>715.4</ele>
        <time>2023-08-21T06:56:04Z</time>
      </trkpt>
      <trkpt lat="45.71878" lon="6.57391">
        <ele>715.4</ele>
        <time>2023-08-21T06:56:05Z</time>
      </trkpt>
      <trkpt lat="45.71878" lon="6.57396">
        <ele>715.4</ele>
        <time>2023-08-21T06:56:06Z</time>
      </trkpt>
      <trkpt lat="45.71877" lon="6.57401">
        <ele>715.4</ele>
        <time>2023-08-21T06:56:07Z</time>
      </trkpt>
      <trkpt lat="45.71875" lon="6.57406">
        <ele>715.8</ele>
        <time>2023-08-21T06:56:08Z</time>
      </trkpt>
      <trkpt lat="45.71873" lon="6.5741">
        <ele>716</ele>
        <time>2023-08-21T06:56:09Z</time>
      </trkpt>
      <trkpt lat="45.71871" lon="6.57413">
        <ele>716</ele>
        <time>2023-08-21T06:56:10Z</time>
      </trkpt>
      <trkpt lat="45.71868" lon="6.57416">
        <ele>716</ele>
        <time>2023-08-21T06:56:11Z</time>
      </trkpt>
      <trkpt lat="45.71865" lon="6.5742">
        <ele>716</ele>
        <time>2023-08-21T06:56:12Z</time>
      </trkpt>
      <trkpt lat="45.71863" lon="6.57423">
        <ele>716.6</ele>
        <time>2023-08-21T06:56:13Z</time>
      </trkpt>
      <trkpt lat="45.7186" lon="6.57426">
        <ele>716.6</ele>
        <time>2023-08-21T06:56:14Z</time>
      </trkpt>
      <trkpt lat="45.71858" lon="6.5743">
        <ele>716.6</ele>
        <time>2023-08-21T06:56:15Z</time>
      </trkpt>
      <trkpt lat="45.71855" lon="6.57434">
        <ele>717</ele>
        <time>2023-08-21T06:56:16Z</time>
      </trkpt>
      <trkpt lat="45.71852" lon="6.57437">
        <ele>717.2</ele>
        <time>2023-08-21T06:56:17Z</time>
      </trkpt>
      <trkpt lat="45.7185" lon="6.57441">
        <ele>717.2</ele>
        <time>2023-08-21T06:56:18Z</time>
      </trkpt>
      <trkpt lat="45.71848" lon="6.57444">
        <ele>717.2</ele>
        <time>2023-08-21T06:56:19Z</time>
      </trkpt>
      <trkpt lat="45.71845" lon="6.57447">
        <ele>717.2</ele>
        <time>2023-08-21T06:56:20Z</time>
      </trkpt>
      <trkpt lat="45.71843" lon="6.57451">
        <ele>718</ele>
        <time>2023-08-21T06:56:21Z</time>
      </trkpt>
      <trkpt lat="45.71841" lon="6.57454">
        <ele>718</ele>
        <time>2023-08-21T06:56:22Z</time>
      </trkpt>
      <trkpt lat="45.71838" lon="6.57457">
        <ele>718</ele>
        <time>2023-08-21T06:56:23Z</time>
      </trkpt>
      <trkpt lat="45.71836" lon="6.57461">
        <ele>718</ele>
        <time>2023-08-21T06:56:24Z</time>
      </trkpt>
      <trkpt lat="45.71833" lon="6.57464">
        <ele>718</ele>
        <time>2023-08-21T06:56:25Z</time>
      </trkpt>
      <trkpt lat="45.7183" lon="6.57467">
        <ele>718.6</ele>
        <time>2023-08-21T06:56:26Z</time>
      </trkpt>
      <trkpt lat="45.71828" lon="6.57471">
        <ele>718.6</ele>
        <time>2023-08-21T06:56:27Z</time>
      </trkpt>
      <trkpt lat="45.71825" lon="6.57474">
        <ele>718.6</ele>
        <time>2023-08-21T06:56:28Z</time>
      </trkpt>
      <trkpt lat="45.71823" lon="6.57477">
        <ele>719.2</ele>
        <time>2023-08-21T06:56:29Z</time>
      </trkpt>
      <trkpt lat="45.7182" lon="6.5748">
        <ele>719.2</ele>
        <time>2023-08-21T06:56:30Z</time>
      </trkpt>
      <trkpt lat="45.71818" lon="6.57484">
        <ele>719.4</ele>
        <time>2023-08-21T06:56:31Z</time>
      </trkpt>
      <trkpt lat="45.71816" lon="6.57487">
        <ele>719.4</ele>
        <time>2023-08-21T06:56:32Z</time>
      </trkpt>
      <trkpt lat="45.71814" lon="6.57491">
        <ele>719.4</ele>
        <time>2023-08-21T06:56:33Z</time>
      </trkpt>
      <trkpt lat="45.71812" lon="6.57494">
        <ele>719.8</ele>
        <time>2023-08-21T06:56:34Z</time>
      </trkpt>
      <trkpt lat="45.71811" lon="6.57497">
        <ele>719.8</ele>
        <time>2023-08-21T06:56:35Z</time>
      </trkpt>
      <trkpt lat="45.7181" lon="6.575">
        <ele>720</ele>
        <time>2023-08-21T06:56:36Z</time>
      </trkpt>
      <trkpt lat="45.7181" lon="6.57503">
        <ele>720</ele>
        <time>2023-08-21T06:56:37Z</time>
      </trkpt>
      <trkpt lat="45.7181" lon="6.57505">
        <ele>720</ele>
        <time>2023-08-21T06:56:38Z</time>
      </trkpt>
      <trkpt lat="45.7181" lon="6.57505">
        <ele>720</ele>
        <time>2023-08-21T06:56:39Z</time>
      </trkpt>
      <trkpt lat="45.7181" lon="6.57505">
        <ele>721</ele>
        <time>2023-08-21T06:56:40Z</time>
      </trkpt>
      <trkpt lat="45.7181" lon="6.57505">
        <ele>721</ele>
        <time>2023-08-21T06:56:41Z</time>
      </trkpt>
      <trkpt lat="45.71806" lon="6.57505">
        <ele>720.2</ele>
        <time>2023-08-21T06:56:47Z</time>
      </trkpt>
      <trkpt lat="45.71805" lon="6.57505">
        <ele>720.2</ele>
        <time>2023-08-21T06:56:48Z</time>
      </trkpt>
      <trkpt lat="45.71804" lon="6.57504">
        <ele>720.4</ele>
        <time>2023-08-21T06:56:49Z</time>
      </trkpt>
      <trkpt lat="45.71804" lon="6.57504">
        <ele>720.4</ele>
        <time>2023-08-21T06:56:50Z</time>
      </trkpt>
      <trkpt lat="45.71806" lon="6.57511">
        <ele>720.8</ele>
        <time>2023-08-21T07:12:34Z</time>
      </trkpt>
      <trkpt lat="45.71806" lon="6.57512">
        <ele>720.8</ele>
        <time>2023-08-21T07:12:35Z</time>
      </trkpt>
      <trkpt lat="45.71806" lon="6.57512">
        <ele>720.8</ele>
        <time>2023-08-21T07:12:36Z</time>
      </trkpt>
      <trkpt lat="45.718" lon="6.57514">
        <ele>720.8</ele>
        <time>2023-08-21T07:12:48Z</time>
      </trkpt>
      <trkpt lat="45.71798" lon="6.57515">
        <ele>721.2</ele>
        <time>2023-08-21T07:12:49Z</time>
      </trkpt>
      <trkpt lat="45.71796" lon="6.57518">
        <ele>721.2</ele>
        <time>2023-08-21T07:12:50Z</time>
      </trkpt>
      <trkpt lat="45.71794" lon="6.57519">
        <ele>721.2</ele>
        <time>2023-08-21T07:12:51Z</time>
      </trkpt>
      <trkpt lat="45.71792" lon="6.57521">
        <ele>721.2</ele>
        <time>2023-08-21T07:12:52Z</time>
      </trkpt>
      <trkpt lat="45.7179" lon="6.57524">
        <ele>721.4</ele>
        <time>2023-08-21T07:12:53Z</time>
      </trkpt>
      <trkpt lat="45.71788" lon="6.57526">
        <ele>721.4</ele>
        <time>2023-08-21T07:12:54Z</time>
      </trkpt>
      <trkpt lat="45.71787" lon="6.57528">
        <ele>721.4</ele>
        <time>2023-08-21T07:12:55Z</time>
      </trkpt>
      <trkpt lat="45.71785" lon="6.5753">
        <ele>721.4</ele>
        <time>2023-08-21T07:12:56Z</time>
      </trkpt>
      <trkpt lat="45.71784" lon="6.57532">
        <ele>721.6</ele>
        <time>2023-08-21T07:12:57Z</time>
      </trkpt>
      <trkpt lat="45.71782" lon="6.57533">
        <ele>721.4</ele>
        <time>2023-08-21T07:12:58Z</time>
      </trkpt>
      <trkpt lat="45.7178" lon="6.57536">
        <ele>721.4</ele>
        <time>2023-08-21T07:12:59Z</time>
      </trkpt>
      <trkpt lat="45.71778" lon="6.57538">
        <ele>721.4</ele>
        <time>2023-08-21T07:13:00Z</time>
      </trkpt>
      <trkpt lat="45.71776" lon="6.5754">
        <ele>721.4</ele>
        <time>2023-08-21T07:13:01Z</time>
      </trkpt>
      <trkpt lat="45.71773" lon="6.57542">
        <ele>721.6</ele>
        <time>2023-08-21T07:13:02Z</time>
      </trkpt>
      <trkpt lat="45.71769" lon="6.57544">
        <ele>721.6</ele>
        <time>2023-08-21T07:13:03Z</time>
      </trkpt>
      <trkpt lat="45.71766" lon="6.57545">
        <ele>721.6</ele>
        <time>2023-08-21T07:13:04Z</time>
      </trkpt>
      <trkpt lat="45.71764" lon="6.57546">
        <ele>721.8</ele>
        <time>2023-08-21T07:13:05Z</time>
      </trkpt>
      <trkpt lat="45.71762" lon="6.57548">
        <ele>721.8</ele>
        <time>2023-08-21T07:13:06Z</time>
      </trkpt>
      <trkpt lat="45.71759" lon="6.57549">
        <ele>722</ele>
        <time>2023-08-21T07:13:07Z</time>
      </trkpt>
      <trkpt lat="45.71757" lon="6.57551">
        <ele>722</ele>
        <time>2023-08-21T07:13:08Z</time>
      </trkpt>
      <trkpt lat="45.71755" lon="6.57553">
        <ele>722</ele>
        <time>2023-08-21T07:13:09Z</time>
      </trkpt>
      <trkpt lat="45.71753" lon="6.57554">
        <ele>722</ele>
        <time>2023-08-21T07:13:10Z</time>
      </trkpt>
      <trkpt lat="45.7175" lon="6.57555">
        <ele>722.4</ele>
        <time>2023-08-21T07:13:11Z</time>
      </trkpt>
      <trkpt lat="45.71747" lon="6.57556">
        <ele>722.4</ele>
        <time>2023-08-21T07:13:12Z</time>
      </trkpt>
      <trkpt lat="45.71745" lon="6.57557">
        <ele>722.4</ele>
        <time>2023-08-21T07:13:13Z</time>
      </trkpt>
      <trkpt lat="45.71743" lon="6.57558">
        <ele>722.4</ele>
        <time>2023-08-21T07:13:14Z</time>
      </trkpt>
      <trkpt lat="45.7174" lon="6.57559">
        <ele>722.4</ele>
        <time>2023-08-21T07:13:15Z</time>
      </trkpt>
      <trkpt lat="45.71738" lon="6.5756">
        <ele>722.4</ele>
        <time>2023-08-21T07:13:16Z</time>
      </trkpt>
      <trkpt lat="45.71737" lon="6.57562">
        <ele>722.4</ele>
        <time>2023-08-21T07:13:17Z</time>
      </trkpt>
      <trkpt lat="45.71736" lon="6.57563">
        <ele>722.4</ele>
        <time>2023-08-21T07:13:18Z</time>
      </trkpt>
      <trkpt lat="45.71734" lon="6.57565">
        <ele>723.2</ele>
        <time>2023-08-21T07:13:19Z</time>
      </trkpt>
      <trkpt lat="45.71731" lon="6.57567">
        <ele>723.4</ele>
        <time>2023-08-21T07:13:20Z</time>
      </trkpt>
      <trkpt lat="45.71728" lon="6.57569">
        <ele>723.4</ele>
        <time>2023-08-21T07:13:21Z</time>
      </trkpt>
      <trkpt lat="45.71725" lon="6.57571">
        <ele>723.4</ele>
        <time>2023-08-21T07:13:22Z</time>
      </trkpt>
      <trkpt lat="45.71721" lon="6.57573">
        <ele>723.6</ele>
        <time>2023-08-21T07:13:23Z</time>
      </trkpt>
      <trkpt lat="45.71719" lon="6.57576">
        <ele>723.8</ele>
        <time>2023-08-21T07:13:24Z</time>
      </trkpt>
      <trkpt lat="45.71716" lon="6.57578">
        <ele>723.8</ele>
        <time>2023-08-21T07:13:25Z</time>
      </trkpt>
      <trkpt lat="45.71713" lon="6.5758">
        <ele>723.8</ele>
        <time>2023-08-21T07:13:26Z</time>
      </trkpt>
      <trkpt lat="45.7171" lon="6.57582">
        <ele>723.8</ele>
        <time>2023-08-21T07:13:27Z</time>
      </trkpt>
      <trkpt lat="45.71707" lon="6.57584">
        <ele>724.2</ele>
        <time>2023-08-21T07:13:28Z</time>
      </trkpt>
      <trkpt lat="45.71704" lon="6.57587">
        <ele>724.2</ele>
        <time>2023-08-21T07:13:29Z</time>
      </trkpt>
      <trkpt lat="45.71701" lon="6.5759">
        <ele>724.2</ele>
        <time>2023-08-21T07:13:30Z</time>
      </trkpt>
      <trkpt lat="45.71699" lon="6.57593">
        <ele>724.2</ele>
        <time>2023-08-21T07:13:31Z</time>
      </trkpt>
      <trkpt lat="45.71696" lon="6.57595">
        <ele>724.2</ele>
        <time>2023-08-21T07:13:32Z</time>
      </trkpt>
      <trkpt lat="45.71693" lon="6.57596">
        <ele>724.8</ele>
        <time>2023-08-21T07:13:33Z</time>
      </trkpt>
      <trkpt lat="45.71691" lon="6.57598">
        <ele>725</ele>
        <time>2023-08-21T07:13:34Z</time>
      </trkpt>
      <trkpt lat="45.71689" lon="6.576">
        <ele>725</ele>
        <time>2023-08-21T07:13:35Z</time>
      </trkpt>
      <trkpt lat="45.71686" lon="6.57602">
        <ele>725</ele>
        <time>2023-08-21T07:13:36Z</time>
      </trkpt>
      <trkpt lat="45.71683" lon="6.57604">
        <ele>725</ele>
        <time>2023-08-21T07:13:37Z</time>
      </trkpt>
      <trkpt lat="45.7168" lon="6.57605">
        <ele>725.4</ele>
        <time>2023-08-21T07:13:38Z</time>
      </trkpt>
      <trkpt lat="45.71677" lon="6.57606">
        <ele>725.4</ele>
        <time>2023-08-21T07:13:39Z</time>
      </trkpt>
      <trkpt lat="45.71673" lon="6.57605">
        <ele>725.4</ele>
        <time>2023-08-21T07:13:40Z</time>
      </trkpt>
      <trkpt lat="45.71669" lon="6.57605">
        <ele>725.4</ele>
        <time>2023-08-21T07:13:41Z</time>
      </trkpt>
      <trkpt lat="45.71666" lon="6.57606">
        <ele>725.8</ele>
        <time>2023-08-21T07:13:42Z</time>
      </trkpt>
      <trkpt lat="45.71664" lon="6.57607">
        <ele>726</ele>
        <time>2023-08-21T07:13:43Z</time>
      </trkpt>
      <trkpt lat="45.71661" lon="6.57607">
        <ele>726</ele>
        <time>2023-08-21T07:13:44Z</time>
      </trkpt>
      <trkpt lat="45.71657" lon="6.57607">
        <ele>726</ele>
        <time>2023-08-21T07:13:45Z</time>
      </trkpt>
      <trkpt lat="45.71654" lon="6.57608">
        <ele>726.2</ele>
        <time>2023-08-21T07:13:46Z</time>
      </trkpt>
      <trkpt lat="45.71651" lon="6.57609">
        <ele>726.6</ele>
        <time>2023-08-21T07:13:47Z</time>
      </trkpt>
      <trkpt lat="45.71648" lon="6.57609">
        <ele>726.6</ele>
        <time>2023-08-21T07:13:48Z</time>
      </trkpt>
      <trkpt lat="45.71644" lon="6.5761">
        <ele>726.6</ele>
        <time>2023-08-21T07:13:49Z</time>
      </trkpt>
      <trkpt lat="45.7164" lon="6.57611">
        <ele>726.6</ele>
        <time>2023-08-21T07:13:50Z</time>
      </trkpt>
      <trkpt lat="45.71637" lon="6.57613">
        <ele>727.2</ele>
        <time>2023-08-21T07:13:51Z</time>
      </trkpt>
      <trkpt lat="45.71633" lon="6.57614">
        <ele>727.2</ele>
        <time>2023-08-21T07:13:52Z</time>
      </trkpt>
      <trkpt lat="45.7163" lon="6.57616">
        <ele>727.2</ele>
        <time>2023-08-21T07:13:53Z</time>
      </trkpt>
      <trkpt lat="45.71627" lon="6.57617">
        <ele>727.2</ele>
        <time>2023-08-21T07:13:54Z</time>
      </trkpt>
      <trkpt lat="45.71624" lon="6.57617">
        <ele>727.8</ele>
        <time>2023-08-21T07:13:55Z</time>
      </trkpt>
      <trkpt lat="45.71621" lon="6.57618">
        <ele>728</ele>
        <time>2023-08-21T07:13:56Z</time>
      </trkpt>
      <trkpt lat="45.71618" lon="6.57618">
        <ele>728</ele>
        <time>2023-08-21T07:13:57Z</time>
      </trkpt>
      <trkpt lat="45.71615" lon="6.57618">
        <ele>728</ele>
        <time>2023-08-21T07:13:58Z</time>
      </trkpt>
      <trkpt lat="45.71612" lon="6.57619">
        <ele>728</ele>
        <time>2023-08-21T07:13:59Z</time>
      </trkpt>
      <trkpt lat="45.71608" lon="6.57619">
        <ele>728.6</ele>
        <time>2023-08-21T07:14:00Z</time>
      </trkpt>
      <trkpt lat="45.71605" lon="6.5762">
        <ele>728.6</ele>
        <time>2023-08-21T07:14:01Z</time>
      </trkpt>
      <trkpt lat="45.71602" lon="6.5762">
        <ele>728.6</ele>
        <time>2023-08-21T07:14:02Z</time>
      </trkpt>
      <trkpt lat="45.71599" lon="6.5762">
        <ele>728.6</ele>
        <time>2023-08-21T07:14:03Z</time>
      </trkpt>
      <trkpt lat="45.71596" lon="6.5762">
        <ele>729.2</ele>
        <time>2023-08-21T07:14:04Z</time>
      </trkpt>
      <trkpt lat="45.71593" lon="6.5762">
        <ele>729.4</ele>
        <time>2023-08-21T07:14:05Z</time>
      </trkpt>
      <trkpt lat="45.71591" lon="6.5762">
        <ele>729.4</ele>
        <time>2023-08-21T07:14:06Z</time>
      </trkpt>
      <trkpt lat="45.71589" lon="6.5762">
        <ele>729.4</ele>
        <time>2023-08-21T07:14:07Z</time>
      </trkpt>
      <trkpt lat="45.71586" lon="6.57619">
        <ele>729.8</ele>
        <time>2023-08-21T07:14:08Z</time>
      </trkpt>
      <trkpt lat="45.71583" lon="6.57619">
        <ele>730</ele>
        <time>2023-08-21T07:14:09Z</time>
      </trkpt>
      <trkpt lat="45.7158" lon="6.5762">
        <ele>730</ele>
        <time>2023-08-21T07:14:10Z</time>
      </trkpt>
      <trkpt lat="45.71578" lon="6.5762">
        <ele>730</ele>
        <time>2023-08-21T07:14:11Z</time>
      </trkpt>
      <trkpt lat="45.71575" lon="6.5762">
        <ele>730</ele>
        <time>2023-08-21T07:14:12Z</time>
      </trkpt>
      <trkpt lat="45.71572" lon="6.5762">
        <ele>730</ele>
        <time>2023-08-21T07:14:13Z</time>
      </trkpt>
      <trkpt lat="45.7157" lon="6.57621">
        <ele>730.6</ele>
        <time>2023-08-21T07:14:14Z</time>
      </trkpt>
      <trkpt lat="45.71567" lon="6.5762">
        <ele>731</ele>
        <time>2023-08-21T07:14:15Z</time>
      </trkpt>
      <trkpt lat="45.71564" lon="6.5762">
        <ele>731</ele>
        <time>2023-08-21T07:14:16Z</time>
      </trkpt>
      <trkpt lat="45.71561" lon="6.57618">
        <ele>731</ele>
        <time>2023-08-21T07:14:17Z</time>
      </trkpt>
      <trkpt lat="45.71559" lon="6.57618">
        <ele>731.4</ele>
        <time>2023-08-21T07:14:18Z</time>
      </trkpt>
      <trkpt lat="45.71556" lon="6.57618">
        <ele>731.4</ele>
        <time>2023-08-21T07:14:19Z</time>
      </trkpt>
      <trkpt lat="45.71552" lon="6.57618">
        <ele>731.4</ele>
        <time>2023-08-21T07:14:20Z</time>
      </trkpt>
      <trkpt lat="45.71549" lon="6.57617">
        <ele>731.4</ele>
        <time>2023-08-21T07:14:21Z</time>
      </trkpt>
      <trkpt lat="45.71545" lon="6.57616">
        <ele>732</ele>
        <time>2023-08-21T07:14:22Z</time>
      </trkpt>
      <trkpt lat="45.71542" lon="6.57615">
        <ele>732</ele>
        <time>2023-08-21T07:14:23Z</time>
      </trkpt>
      <trkpt lat="45.71539" lon="6.57615">
        <ele>732</ele>
        <time>2023-08-21T07:14:24Z</time>
      </trkpt>
      <trkpt lat="45.71536" lon="6.57615">
        <ele>732</ele>
        <time>2023-08-21T07:14:25Z</time>
      </trkpt>
      <trkpt lat="45.71533" lon="6.57615">
        <ele>732</ele>
        <time>2023-08-21T07:14:26Z</time>
      </trkpt>
      <trkpt lat="45.7153" lon="6.57615">
        <ele>732.6</ele>
        <time>2023-08-21T07:14:27Z</time>
      </trkpt>
      <trkpt lat="45.71527" lon="6.57616">
        <ele>733</ele>
        <time>2023-08-21T07:14:28Z</time>
      </trkpt>
      <trkpt lat="45.71524" lon="6.57616">
        <ele>733</ele>
        <time>2023-08-21T07:14:29Z</time>
      </trkpt>
      <trkpt lat="45.71521" lon="6.57617">
        <ele>733</ele>
        <time>2023-08-21T07:14:30Z</time>
      </trkpt>
      <trkpt lat="45.71519" lon="6.57618">
        <ele>733.6</ele>
        <time>2023-08-21T07:14:31Z</time>
      </trkpt>
      <trkpt lat="45.71516" lon="6.57619">
        <ele>733.6</ele>
        <time>2023-08-21T07:14:32Z</time>
      </trkpt>
      <trkpt lat="45.71513" lon="6.57619">
        <ele>733.6</ele>
        <time>2023-08-21T07:14:33Z</time>
      </trkpt>
      <trkpt lat="45.7151" lon="6.5762">
        <ele>733.6</ele>
        <time>2023-08-21T07:14:34Z</time>
      </trkpt>
      <trkpt lat="45.71508" lon="6.57621">
        <ele>734.4</ele>
        <time>2023-08-21T07:14:35Z</time>
      </trkpt>
      <trkpt lat="45.71505" lon="6.57623">
        <ele>734.4</ele>
        <time>2023-08-21T07:14:36Z</time>
      </trkpt>
      <trkpt lat="45.71503" lon="6.57624">
        <ele>734.6</ele>
        <time>2023-08-21T07:14:37Z</time>
      </trkpt>
      <trkpt lat="45.715" lon="6.57625">
        <ele>734.6</ele>
        <time>2023-08-21T07:14:38Z</time>
      </trkpt>
      <trkpt lat="45.71498" lon="6.57626">
        <ele>734.6</ele>
        <time>2023-08-21T07:14:39Z</time>
      </trkpt>
      <trkpt lat="45.71496" lon="6.57628">
        <ele>735</ele>
        <time>2023-08-21T07:14:40Z</time>
      </trkpt>
      <trkpt lat="45.71493" lon="6.57629">
        <ele>735.2</ele>
        <time>2023-08-21T07:14:41Z</time>
      </trkpt>
      <trkpt lat="45.71491" lon="6.57631">
        <ele>735.2</ele>
        <time>2023-08-21T07:14:42Z</time>
      </trkpt>
      <trkpt lat="45.71489" lon="6.57633">
        <ele>735.2</ele>
        <time>2023-08-21T07:14:43Z</time>
      </trkpt>
      <trkpt lat="45.71486" lon="6.57634">
        <ele>735.8</ele>
        <time>2023-08-21T07:14:44Z</time>
      </trkpt>
      <trkpt lat="45.71484" lon="6.57635">
        <ele>736</ele>
        <time>2023-08-21T07:14:45Z</time>
      </trkpt>
      <trkpt lat="45.71482" lon="6.57636">
        <ele>736</ele>
        <time>2023-08-21T07:14:46Z</time>
      </trkpt>
      <trkpt lat="45.71479" lon="6.57638">
        <ele>736</ele>
        <time>2023-08-21T07:14:47Z</time>
      </trkpt>
      <trkpt lat="45.71477" lon="6.5764">
        <ele>736</ele>
        <time>2023-08-21T07:14:48Z</time>
      </trkpt>
      <trkpt lat="45.71475" lon="6.57642">
        <ele>736.8</ele>
        <time>2023-08-21T07:14:49Z</time>
      </trkpt>
      <trkpt lat="45.71472" lon="6.57643">
        <ele>736.8</ele>
        <time>2023-08-21T07:14:50Z</time>
      </trkpt>
      <trkpt lat="45.7147" lon="6.57646">
        <ele>736.8</ele>
        <time>2023-08-21T07:14:51Z</time>
      </trkpt>
      <trkpt lat="45.71468" lon="6.57648">
        <ele>736.8</ele>
        <time>2023-08-21T07:14:52Z</time>
      </trkpt>
      <trkpt lat="45.71465" lon="6.5765">
        <ele>736.8</ele>
        <time>2023-08-21T07:14:53Z</time>
      </trkpt>
      <trkpt lat="45.71463" lon="6.57652">
        <ele>737.4</ele>
        <time>2023-08-21T07:14:54Z</time>
      </trkpt>
      <trkpt lat="45.7146" lon="6.57654">
        <ele>737.6</ele>
        <time>2023-08-21T07:14:55Z</time>
      </trkpt>
      <trkpt lat="45.71459" lon="6.57657">
        <ele>737.6</ele>
        <time>2023-08-21T07:14:56Z</time>
      </trkpt>
      <trkpt lat="45.71457" lon="6.57659">
        <ele>737.6</ele>
        <time>2023-08-21T07:14:57Z</time>
      </trkpt>
      <trkpt lat="45.71455" lon="6.57663">
        <ele>738.2</ele>
        <time>2023-08-21T07:14:58Z</time>
      </trkpt>
      <trkpt lat="45.71453" lon="6.57665">
        <ele>738.4</ele>
        <time>2023-08-21T07:14:59Z</time>
      </trkpt>
      <trkpt lat="45.71451" lon="6.57668">
        <ele>738.4</ele>
        <time>2023-08-21T07:15:00Z</time>
      </trkpt>
      <trkpt lat="45.7145" lon="6.5767">
        <ele>738.4</ele>
        <time>2023-08-21T07:15:01Z</time>
      </trkpt>
      <trkpt lat="45.71448" lon="6.57673">
        <ele>738.4</ele>
        <time>2023-08-21T07:15:02Z</time>
      </trkpt>
      <trkpt lat="45.71447" lon="6.57677">
        <ele>738.6</ele>
        <time>2023-08-21T07:15:03Z</time>
      </trkpt>
      <trkpt lat="45.71446" lon="6.57681">
        <ele>738.8</ele>
        <time>2023-08-21T07:15:04Z</time>
      </trkpt>
      <trkpt lat="45.71445" lon="6.57685">
        <ele>738.8</ele>
        <time>2023-08-21T07:15:05Z</time>
      </trkpt>
      <trkpt lat="45.71444" lon="6.57689">
        <ele>738.8</ele>
        <time>2023-08-21T07:15:06Z</time>
      </trkpt>
      <trkpt lat="45.71444" lon="6.57693">
        <ele>739</ele>
        <time>2023-08-21T07:15:07Z</time>
      </trkpt>
      <trkpt lat="45.71443" lon="6.57697">
        <ele>739</ele>
        <time>2023-08-21T07:15:08Z</time>
      </trkpt>
      <trkpt lat="45.71442" lon="6.57701">
        <ele>739</ele>
        <time>2023-08-21T07:15:09Z</time>
      </trkpt>
      <trkpt lat="45.71441" lon="6.57705">
        <ele>739</ele>
        <time>2023-08-21T07:15:10Z</time>
      </trkpt>
      <trkpt lat="45.7144" lon="6.57708">
        <ele>739.4</ele>
        <time>2023-08-21T07:15:11Z</time>
      </trkpt>
      <trkpt lat="45.71439" lon="6.57712">
        <ele>739.6</ele>
        <time>2023-08-21T07:15:12Z</time>
      </trkpt>
      <trkpt lat="45.71439" lon="6.57716">
        <ele>739.6</ele>
        <time>2023-08-21T07:15:13Z</time>
      </trkpt>
      <trkpt lat="45.71438" lon="6.57721">
        <ele>739.6</ele>
        <time>2023-08-21T07:15:14Z</time>
      </trkpt>
      <trkpt lat="45.71438" lon="6.57725">
        <ele>740</ele>
        <time>2023-08-21T07:15:15Z</time>
      </trkpt>
      <trkpt lat="45.71437" lon="6.5773">
        <ele>740</ele>
        <time>2023-08-21T07:15:16Z</time>
      </trkpt>
      <trkpt lat="45.71436" lon="6.57734">
        <ele>740.2</ele>
        <time>2023-08-21T07:15:17Z</time>
      </trkpt>
      <trkpt lat="45.71436" lon="6.57738">
        <ele>740.2</ele>
        <time>2023-08-21T07:15:18Z</time>
      </trkpt>
      <trkpt lat="45.71435" lon="6.57742">
        <ele>740.2</ele>
        <time>2023-08-21T07:15:19Z</time>
      </trkpt>
      <trkpt lat="45.71434" lon="6.57746">
        <ele>740.4</ele>
        <time>2023-08-21T07:15:20Z</time>
      </trkpt>
      <trkpt lat="45.71434" lon="6.57751">
        <ele>740.6</ele>
        <time>2023-08-21T07:15:21Z</time>
      </trkpt>
      <trkpt lat="45.71433" lon="6.57755">
        <ele>740.6</ele>
        <time>2023-08-21T07:15:22Z</time>
      </trkpt>
      <trkpt lat="45.71433" lon="6.57759">
        <ele>740.6</ele>
        <time>2023-08-21T07:15:23Z</time>
      </trkpt>
      <trkpt lat="45.71432" lon="6.57763">
        <ele>741.2</ele>
        <time>2023-08-21T07:15:24Z</time>
      </trkpt>
      <trkpt lat="45.71431" lon="6.57767">
        <ele>741.4</ele>
        <time>2023-08-21T07:15:25Z</time>
      </trkpt>
      <trkpt lat="45.7143" lon="6.57771">
        <ele>741.4</ele>
        <time>2023-08-21T07:15:26Z</time>
      </trkpt>
      <trkpt lat="45.7143" lon="6.57776">
        <ele>741.4</ele>
        <time>2023-08-21T07:15:27Z</time>
      </trkpt>
      <trkpt lat="45.7143" lon="6.5778">
        <ele>741.4</ele>
        <time>2023-08-21T07:15:28Z</time>
      </trkpt>
      <trkpt lat="45.71429" lon="6.57784">
        <ele>741.8</ele>
        <time>2023-08-21T07:15:29Z</time>
      </trkpt>
      <trkpt lat="45.71429" lon="6.57788">
        <ele>742</ele>
        <time>2023-08-21T07:15:30Z</time>
      </trkpt>
      <trkpt lat="45.71428" lon="6.57793">
        <ele>742</ele>
        <time>2023-08-21T07:15:31Z</time>
      </trkpt>
      <trkpt lat="45.71427" lon="6.57796">
        <ele>742</ele>
        <time>2023-08-21T07:15:32Z</time>
      </trkpt>
      <trkpt lat="45.71426" lon="6.578">
        <ele>742.4</ele>
        <time>2023-08-21T07:15:33Z</time>
      </trkpt>
      <trkpt lat="45.71426" lon="6.57805">
        <ele>742.4</ele>
        <time>2023-08-21T07:15:34Z</time>
      </trkpt>
      <trkpt lat="45.71425" lon="6.5781">
        <ele>742.6</ele>
        <time>2023-08-21T07:15:35Z</time>
      </trkpt>
      <trkpt lat="45.71423" lon="6.57814">
        <ele>742.6</ele>
        <time>2023-08-21T07:15:36Z</time>
      </trkpt>
      <trkpt lat="45.71423" lon="6.57818">
        <ele>742.6</ele>
        <time>2023-08-21T07:15:37Z</time>
      </trkpt>
      <trkpt lat="45.71422" lon="6.57822">
        <ele>743</ele>
        <time>2023-08-21T07:15:38Z</time>
      </trkpt>
      <trkpt lat="45.71421" lon="6.57827">
        <ele>743</ele>
        <time>2023-08-21T07:15:39Z</time>
      </trkpt>
      <trkpt lat="45.7142" lon="6.57831">
        <ele>743</ele>
        <time>2023-08-21T07:15:40Z</time>
      </trkpt>
      <trkpt lat="45.71418" lon="6.57835">
        <ele>743</ele>
        <time>2023-08-21T07:15:41Z</time>
      </trkpt>
      <trkpt lat="45.71416" lon="6.57838">
        <ele>743</ele>
        <time>2023-08-21T07:15:42Z</time>
      </trkpt>
      <trkpt lat="45.71414" lon="6.57842">
        <ele>743.6</ele>
        <time>2023-08-21T07:15:43Z</time>
      </trkpt>
      <trkpt lat="45.71412" lon="6.57845">
        <ele>743.6</ele>
        <time>2023-08-21T07:15:44Z</time>
      </trkpt>
      <trkpt lat="45.7141" lon="6.57849">
        <ele>743.6</ele>
        <time>2023-08-21T07:15:45Z</time>
      </trkpt>
      <trkpt lat="45.71408" lon="6.57852">
        <ele>743.6</ele>
        <time>2023-08-21T07:15:46Z</time>
      </trkpt>
      <trkpt lat="45.71406" lon="6.57855">
        <ele>744.4</ele>
        <time>2023-08-21T07:15:47Z</time>
      </trkpt>
      <trkpt lat="45.71404" lon="6.57859">
        <ele>744.4</ele>
        <time>2023-08-21T07:15:48Z</time>
      </trkpt>
      <trkpt lat="45.71402" lon="6.57862">
        <ele>744.4</ele>
        <time>2023-08-21T07:15:49Z</time>
      </trkpt>
      <trkpt lat="45.714" lon="6.57865">
        <ele>744.4</ele>
        <time>2023-08-21T07:15:50Z</time>
      </trkpt>
      <trkpt lat="45.71398" lon="6.57868">
        <ele>745</ele>
        <time>2023-08-21T07:15:51Z</time>
      </trkpt>
      <trkpt lat="45.71396" lon="6.57871">
        <ele>745</ele>
        <time>2023-08-21T07:15:52Z</time>
      </trkpt>
      <trkpt lat="45.71394" lon="6.57874">
        <ele>745.2</ele>
        <time>2023-08-21T07:15:53Z</time>
      </trkpt>
      <trkpt lat="45.71392" lon="6.57877">
        <ele>745.2</ele>
        <time>2023-08-21T07:15:54Z</time>
      </trkpt>
      <trkpt lat="45.7139" lon="6.5788">
        <ele>745.2</ele>
        <time>2023-08-21T07:15:55Z</time>
      </trkpt>
      <trkpt lat="45.71388" lon="6.57882">
        <ele>745.6</ele>
        <time>2023-08-21T07:15:56Z</time>
      </trkpt>
      <trkpt lat="45.71385" lon="6.57884">
        <ele>745.8</ele>
        <time>2023-08-21T07:15:57Z</time>
      </trkpt>
      <trkpt lat="45.71382" lon="6.57887">
        <ele>745.8</ele>
        <time>2023-08-21T07:15:58Z</time>
      </trkpt>
      <trkpt lat="45.7138" lon="6.5789">
        <ele>745.8</ele>
        <time>2023-08-21T07:15:59Z</time>
      </trkpt>
      <trkpt lat="45.71378" lon="6.57893">
        <ele>746.4</ele>
        <time>2023-08-21T07:16:00Z</time>
      </trkpt>
      <trkpt lat="45.71376" lon="6.57896">
        <ele>746.4</ele>
        <time>2023-08-21T07:16:01Z</time>
      </trkpt>
      <trkpt lat="45.71374" lon="6.57899">
        <ele>746.8</ele>
        <time>2023-08-21T07:16:02Z</time>
      </trkpt>
      <trkpt lat="45.71371" lon="6.57901">
        <ele>746.8</ele>
        <time>2023-08-21T07:16:03Z</time>
      </trkpt>
      <trkpt lat="45.71369" lon="6.57904">
        <ele>746.8</ele>
        <time>2023-08-21T07:16:04Z</time>
      </trkpt>
      <trkpt lat="45.71367" lon="6.57907">
        <ele>747.2</ele>
        <time>2023-08-21T07:16:05Z</time>
      </trkpt>
      <trkpt lat="45.71365" lon="6.5791">
        <ele>747.4</ele>
        <time>2023-08-21T07:16:06Z</time>
      </trkpt>
      <trkpt lat="45.71363" lon="6.57913">
        <ele>747.4</ele>
        <time>2023-08-21T07:16:07Z</time>
      </trkpt>
      <trkpt lat="45.71361" lon="6.57915">
        <ele>747.4</ele>
        <time>2023-08-21T07:16:08Z</time>
      </trkpt>
      <trkpt lat="45.71359" lon="6.57918">
        <ele>748.2</ele>
        <time>2023-08-21T07:16:09Z</time>
      </trkpt>
      <trkpt lat="45.71356" lon="6.5792">
        <ele>748.2</ele>
        <time>2023-08-21T07:16:10Z</time>
      </trkpt>
      <trkpt lat="45.71354" lon="6.57923">
        <ele>748.2</ele>
        <time>2023-08-21T07:16:11Z</time>
      </trkpt>
      <trkpt lat="45.71351" lon="6.57924">
        <ele>748.2</ele>
        <time>2023-08-21T07:16:12Z</time>
      </trkpt>
      <trkpt lat="45.71348" lon="6.57926">
        <ele>748.2</ele>
        <time>2023-08-21T07:16:13Z</time>
      </trkpt>
      <trkpt lat="45.71344" lon="6.57927">
        <ele>748.2</ele>
        <time>2023-08-21T07:16:14Z</time>
      </trkpt>
      <trkpt lat="45.71342" lon="6.57929">
        <ele>748.2</ele>
        <time>2023-08-21T07:16:15Z</time>
      </trkpt>
      <trkpt lat="45.71341" lon="6.57932">
        <ele>748.8</ele>
        <time>2023-08-21T07:16:16Z</time>
      </trkpt>
      <trkpt lat="45.71339" lon="6.57935">
        <ele>748.8</ele>
        <time>2023-08-21T07:16:17Z</time>
      </trkpt>
      <trkpt lat="45.71336" lon="6.57937">
        <ele>748.8</ele>
        <time>2023-08-21T07:16:18Z</time>
      </trkpt>
      <trkpt lat="45.71333" lon="6.57938">
        <ele>749.6</ele>
        <time>2023-08-21T07:16:19Z</time>
      </trkpt>
      <trkpt lat="45.7133" lon="6.57941">
        <ele>749.8</ele>
        <time>2023-08-21T07:16:20Z</time>
      </trkpt>
      <trkpt lat="45.71327" lon="6.57943">
        <ele>749.8</ele>
        <time>2023-08-21T07:16:21Z</time>
      </trkpt>
      <trkpt lat="45.71325" lon="6.57946">
        <ele>749.8</ele>
        <time>2023-08-21T07:16:22Z</time>
      </trkpt>
      <trkpt lat="45.71323" lon="6.57949">
        <ele>750.4</ele>
        <time>2023-08-21T07:16:23Z</time>
      </trkpt>
      <trkpt lat="45.71323" lon="6.57953">
        <ele>750.4</ele>
        <time>2023-08-21T07:16:24Z</time>
      </trkpt>
      <trkpt lat="45.71322" lon="6.57958">
        <ele>750.6</ele>
        <time>2023-08-21T07:16:25Z</time>
      </trkpt>
      <trkpt lat="45.71322" lon="6.57962">
        <ele>750.6</ele>
        <time>2023-08-21T07:16:26Z</time>
      </trkpt>
      <trkpt lat="45.71321" lon="6.57966">
        <ele>750.6</ele>
        <time>2023-08-21T07:16:27Z</time>
      </trkpt>
      <trkpt lat="45.71321" lon="6.57971">
        <ele>751</ele>
        <time>2023-08-21T07:16:28Z</time>
      </trkpt>
      <trkpt lat="45.71321" lon="6.57976">
        <ele>751.4</ele>
        <time>2023-08-21T07:16:29Z</time>
      </trkpt>
      <trkpt lat="45.7132" lon="6.57981">
        <ele>751.4</ele>
        <time>2023-08-21T07:16:30Z</time>
      </trkpt>
      <trkpt lat="45.71321" lon="6.57985">
        <ele>751.4</ele>
        <time>2023-08-21T07:16:31Z</time>
      </trkpt>
      <trkpt lat="45.71322" lon="6.5799">
        <ele>751.4</ele>
        <time>2023-08-21T07:16:32Z</time>
      </trkpt>
      <trkpt lat="45.71321" lon="6.57994">
        <ele>751.4</ele>
        <time>2023-08-21T07:16:33Z</time>
      </trkpt>
      <trkpt lat="45.71321" lon="6.57998">
        <ele>752.2</ele>
        <time>2023-08-21T07:16:34Z</time>
      </trkpt>
      <trkpt lat="45.71321" lon="6.58002">
        <ele>752.2</ele>
        <time>2023-08-21T07:16:35Z</time>
      </trkpt>
      <trkpt lat="45.71322" lon="6.58006">
        <ele>752.2</ele>
        <time>2023-08-21T07:16:36Z</time>
      </trkpt>
      <trkpt lat="45.71323" lon="6.5801">
        <ele>753</ele>
        <time>2023-08-21T07:16:37Z</time>
      </trkpt>
      <trkpt lat="45.71323" lon="6.58014">
        <ele>753.4</ele>
        <time>2023-08-21T07:16:38Z</time>
      </trkpt>
      <trkpt lat="45.71323" lon="6.58018">
        <ele>753.4</ele>
        <time>2023-08-21T07:16:39Z</time>
      </trkpt>
      <trkpt lat="45.71323" lon="6.58022">
        <ele>753.4</ele>
        <time>2023-08-21T07:16:40Z</time>
      </trkpt>
      <trkpt lat="45.71324" lon="6.58026">
        <ele>754.2</ele>
        <time>2023-08-21T07:16:41Z</time>
      </trkpt>
      <trkpt lat="45.71324" lon="6.58029">
        <ele>754.4</ele>
        <time>2023-08-21T07:16:42Z</time>
      </trkpt>
      <trkpt lat="45.71324" lon="6.58033">
        <ele>754.4</ele>
        <time>2023-08-21T07:16:43Z</time>
      </trkpt>
      <trkpt lat="45.71325" lon="6.58037">
        <ele>754.4</ele>
        <time>2023-08-21T07:16:44Z</time>
      </trkpt>
      <trkpt lat="45.71324" lon="6.5804">
        <ele>754.4</ele>
        <time>2023-08-21T07:16:45Z</time>
      </trkpt>
      <trkpt lat="45.71324" lon="6.58043">
        <ele>755</ele>
        <time>2023-08-21T07:16:46Z</time>
      </trkpt>
      <trkpt lat="45.71323" lon="6.58046">
        <ele>755.4</ele>
        <time>2023-08-21T07:16:47Z</time>
      </trkpt>
      <trkpt lat="45.71327" lon="6.58049">
        <ele>755.4</ele>
        <time>2023-08-21T07:16:48Z</time>
      </trkpt>
      <trkpt lat="45.71327" lon="6.58052">
        <ele>755.4</ele>
        <time>2023-08-21T07:16:49Z</time>
      </trkpt>
      <trkpt lat="45.71327" lon="6.58056">
        <ele>756</ele>
        <time>2023-08-21T07:16:50Z</time>
      </trkpt>
      <trkpt lat="45.71326" lon="6.5806">
        <ele>756.4</ele>
        <time>2023-08-21T07:16:51Z</time>
      </trkpt>
      <trkpt lat="45.71325" lon="6.58063">
        <ele>756.4</ele>
        <time>2023-08-21T07:16:52Z</time>
      </trkpt>
      <trkpt lat="45.71324" lon="6.58066">
        <ele>756.4</ele>
        <time>2023-08-21T07:16:53Z</time>
      </trkpt>
      <trkpt lat="45.71325" lon="6.58069">
        <ele>756.4</ele>
        <time>2023-08-21T07:16:54Z</time>
      </trkpt>
      <trkpt lat="45.71324" lon="6.58072">
        <ele>757.2</ele>
        <time>2023-08-21T07:16:55Z</time>
      </trkpt>
      <trkpt lat="45.71323" lon="6.58075">
        <ele>757.4</ele>
        <time>2023-08-21T07:16:56Z</time>
      </trkpt>
      <trkpt lat="45.71321" lon="6.58078">
        <ele>757.4</ele>
        <time>2023-08-21T07:16:57Z</time>
      </trkpt>
      <trkpt lat="45.71321" lon="6.58081">
        <ele>757.4</ele>
        <time>2023-08-21T07:16:58Z</time>
      </trkpt>
      <trkpt lat="45.71321" lon="6.58084">
        <ele>758.2</ele>
        <time>2023-08-21T07:16:59Z</time>
      </trkpt>
      <trkpt lat="45.71321" lon="6.58088">
        <ele>758.2</ele>
        <time>2023-08-21T07:17:00Z</time>
      </trkpt>
      <trkpt lat="45.7132" lon="6.58092">
        <ele>758.4</ele>
        <time>2023-08-21T07:17:01Z</time>
      </trkpt>
      <trkpt lat="45.7132" lon="6.58095">
        <ele>758.4</ele>
        <time>2023-08-21T07:17:02Z</time>
      </trkpt>
      <trkpt lat="45.7132" lon="6.58098">
        <ele>758.4</ele>
        <time>2023-08-21T07:17:03Z</time>
      </trkpt>
      <trkpt lat="45.71319" lon="6.58101">
        <ele>759</ele>
        <time>2023-08-21T07:17:04Z</time>
      </trkpt>
      <trkpt lat="45.7132" lon="6.58104">
        <ele>759.2</ele>
        <time>2023-08-21T07:17:05Z</time>
      </trkpt>
      <trkpt lat="45.71318" lon="6.58106">
        <ele>759.2</ele>
        <time>2023-08-21T07:17:06Z</time>
      </trkpt>
      <trkpt lat="45.71318" lon="6.58109">
        <ele>759.2</ele>
        <time>2023-08-21T07:17:07Z</time>
      </trkpt>
      <trkpt lat="45.71317" lon="6.58111">
        <ele>759.2</ele>
        <time>2023-08-21T07:17:08Z</time>
      </trkpt>
      <trkpt lat="45.71315" lon="6.58114">
        <ele>760.2</ele>
        <time>2023-08-21T07:17:09Z</time>
      </trkpt>
      <trkpt lat="45.71314" lon="6.58116">
        <ele>760.2</ele>
        <time>2023-08-21T07:17:10Z</time>
      </trkpt>
      <trkpt lat="45.71313" lon="6.5812">
        <ele>760.2</ele>
        <time>2023-08-21T07:17:11Z</time>
      </trkpt>
      <trkpt lat="45.71312" lon="6.58123">
        <ele>760.2</ele>
        <time>2023-08-21T07:17:12Z</time>
      </trkpt>
      <trkpt lat="45.71309" lon="6.58126">
        <ele>761</ele>
        <time>2023-08-21T07:17:13Z</time>
      </trkpt>
      <trkpt lat="45.71307" lon="6.58129">
        <ele>761.2</ele>
        <time>2023-08-21T07:17:14Z</time>
      </trkpt>
      <trkpt lat="45.71306" lon="6.58133">
        <ele>761.2</ele>
        <time>2023-08-21T07:17:15Z</time>
      </trkpt>
      <trkpt lat="45.71306" lon="6.58136">
        <ele>761.2</ele>
        <time>2023-08-21T07:17:16Z</time>
      </trkpt>
      <trkpt lat="45.71306" lon="6.58139">
        <ele>761.2</ele>
        <time>2023-08-21T07:17:17Z</time>
      </trkpt>
      <trkpt lat="45.71305" lon="6.58142">
        <ele>761.8</ele>
        <time>2023-08-21T07:17:18Z</time>
      </trkpt>
      <trkpt lat="45.71305" lon="6.58146">
        <ele>762</ele>
        <time>2023-08-21T07:17:19Z</time>
      </trkpt>
      <trkpt lat="45.71305" lon="6.5815">
        <ele>762</ele>
        <time>2023-08-21T07:17:20Z</time>
      </trkpt>
      <trkpt lat="45.71304" lon="6.58153">
        <ele>762</ele>
        <time>2023-08-21T07:17:21Z</time>
      </trkpt>
      <trkpt lat="45.71304" lon="6.58156">
        <ele>762.8</ele>
        <time>2023-08-21T07:17:22Z</time>
      </trkpt>
      <trkpt lat="45.71305" lon="6.5816">
        <ele>763.2</ele>
        <time>2023-08-21T07:17:23Z</time>
      </trkpt>
      <trkpt lat="45.71305" lon="6.58163">
        <ele>763.2</ele>
        <time>2023-08-21T07:17:24Z</time>
      </trkpt>
      <trkpt lat="45.71304" lon="6.58166">
        <ele>763.2</ele>
        <time>2023-08-21T07:17:25Z</time>
      </trkpt>
      <trkpt lat="45.71305" lon="6.5817">
        <ele>763.2</ele>
        <time>2023-08-21T07:17:26Z</time>
      </trkpt>
      <trkpt lat="45.71304" lon="6.58173">
        <ele>764</ele>
        <time>2023-08-21T07:17:27Z</time>
      </trkpt>
      <trkpt lat="45.71304" lon="6.58177">
        <ele>764</ele>
        <time>2023-08-21T07:17:28Z</time>
      </trkpt>
      <trkpt lat="45.71303" lon="6.58181">
        <ele>764</ele>
        <time>2023-08-21T07:17:29Z</time>
      </trkpt>
      <trkpt lat="45.71303" lon="6.58185">
        <ele>764</ele>
        <time>2023-08-21T07:17:30Z</time>
      </trkpt>
      <trkpt lat="45.71303" lon="6.58188">
        <ele>764.6</ele>
        <time>2023-08-21T07:17:31Z</time>
      </trkpt>
      <trkpt lat="45.71303" lon="6.58191">
        <ele>764.8</ele>
        <time>2023-08-21T07:17:32Z</time>
      </trkpt>
      <trkpt lat="45.71302" lon="6.58195">
        <ele>764.8</ele>
        <time>2023-08-21T07:17:33Z</time>
      </trkpt>
      <trkpt lat="45.71302" lon="6.58198">
        <ele>764.8</ele>
        <time>2023-08-21T07:17:34Z</time>
      </trkpt>
      <trkpt lat="45.71301" lon="6.582">
        <ele>765.4</ele>
        <time>2023-08-21T07:17:35Z</time>
      </trkpt>
      <trkpt lat="45.713" lon="6.58204">
        <ele>765.6</ele>
        <time>2023-08-21T07:17:36Z</time>
      </trkpt>
      <trkpt lat="45.71298" lon="6.58206">
        <ele>765.6</ele>
        <time>2023-08-21T07:17:37Z</time>
      </trkpt>
      <trkpt lat="45.71297" lon="6.58209">
        <ele>765.6</ele>
        <time>2023-08-21T07:17:38Z</time>
      </trkpt>
      <trkpt lat="45.71296" lon="6.58212">
        <ele>765.6</ele>
        <time>2023-08-21T07:17:39Z</time>
      </trkpt>
      <trkpt lat="45.71295" lon="6.58215">
        <ele>765.6</ele>
        <time>2023-08-21T07:17:40Z</time>
      </trkpt>
      <trkpt lat="45.71295" lon="6.58218">
        <ele>766</ele>
        <time>2023-08-21T07:17:41Z</time>
      </trkpt>
      <trkpt lat="45.71294" lon="6.58222">
        <ele>766.4</ele>
        <time>2023-08-21T07:17:42Z</time>
      </trkpt>
      <trkpt lat="45.71293" lon="6.58225">
        <ele>766.4</ele>
        <time>2023-08-21T07:17:43Z</time>
      </trkpt>
      <trkpt lat="45.71293" lon="6.58229">
        <ele>766.4</ele>
        <time>2023-08-21T07:17:44Z</time>
      </trkpt>
      <trkpt lat="45.71293" lon="6.58232">
        <ele>767</ele>
        <time>2023-08-21T07:17:45Z</time>
      </trkpt>
      <trkpt lat="45.71293" lon="6.58235">
        <ele>767</ele>
        <time>2023-08-21T07:17:46Z</time>
      </trkpt>
      <trkpt lat="45.71291" lon="6.58238">
        <ele>767</ele>
        <time>2023-08-21T07:17:47Z</time>
      </trkpt>
      <trkpt lat="45.71289" lon="6.5824">
        <ele>767</ele>
        <time>2023-08-21T07:17:48Z</time>
      </trkpt>
      <trkpt lat="45.71289" lon="6.58243">
        <ele>767</ele>
        <time>2023-08-21T07:17:49Z</time>
      </trkpt>
      <trkpt lat="45.71288" lon="6.58246">
        <ele>767.6</ele>
        <time>2023-08-21T07:17:50Z</time>
      </trkpt>
      <trkpt lat="45.71285" lon="6.58249">
        <ele>767.8</ele>
        <time>2023-08-21T07:17:51Z</time>
      </trkpt>
      <trkpt lat="45.71284" lon="6.58252">
        <ele>767.8</ele>
        <time>2023-08-21T07:17:52Z</time>
      </trkpt>
      <trkpt lat="45.71283" lon="6.58254">
        <ele>767.8</ele>
        <time>2023-08-21T07:17:53Z</time>
      </trkpt>
      <trkpt lat="45.71281" lon="6.58256">
        <ele>768.4</ele>
        <time>2023-08-21T07:17:54Z</time>
      </trkpt>
      <trkpt lat="45.7128" lon="6.58259">
        <ele>768.6</ele>
        <time>2023-08-21T07:17:55Z</time>
      </trkpt>
      <trkpt lat="45.71279" lon="6.58262">
        <ele>768.6</ele>
        <time>2023-08-21T07:17:56Z</time>
      </trkpt>
      <trkpt lat="45.71277" lon="6.58265">
        <ele>768.6</ele>
        <time>2023-08-21T07:17:57Z</time>
      </trkpt>
      <trkpt lat="45.71275" lon="6.58267">
        <ele>768.6</ele>
        <time>2023-08-21T07:17:58Z</time>
      </trkpt>
      <trkpt lat="45.71273" lon="6.5827">
        <ele>769.2</ele>
        <time>2023-08-21T07:17:59Z</time>
      </trkpt>
      <trkpt lat="45.71271" lon="6.58272">
        <ele>769.2</ele>
        <time>2023-08-21T07:18:00Z</time>
      </trkpt>
      <trkpt lat="45.71269" lon="6.58272">
        <ele>769.2</ele>
        <time>2023-08-21T07:18:01Z</time>
      </trkpt>
      <trkpt lat="45.71266" lon="6.58273">
        <ele>769.2</ele>
        <time>2023-08-21T07:18:02Z</time>
      </trkpt>
      <trkpt lat="45.71264" lon="6.58275">
        <ele>769.6</ele>
        <time>2023-08-21T07:18:03Z</time>
      </trkpt>
      <trkpt lat="45.71261" lon="6.58276">
        <ele>770</ele>
        <time>2023-08-21T07:18:04Z</time>
      </trkpt>
      <trkpt lat="45.7126" lon="6.58279">
        <ele>770</ele>
        <time>2023-08-21T07:18:05Z</time>
      </trkpt>
      <trkpt lat="45.71258" lon="6.58282">
        <ele>770</ele>
        <time>2023-08-21T07:18:06Z</time>
      </trkpt>
      <trkpt lat="45.71258" lon="6.58287">
        <ele>770.4</ele>
        <time>2023-08-21T07:18:07Z</time>
      </trkpt>
      <trkpt lat="45.71256" lon="6.58288">
        <ele>770.6</ele>
        <time>2023-08-21T07:18:08Z</time>
      </trkpt>
      <trkpt lat="45.71254" lon="6.5829">
        <ele>770.6</ele>
        <time>2023-08-21T07:18:09Z</time>
      </trkpt>
      <trkpt lat="45.71252" lon="6.58292">
        <ele>770.6</ele>
        <time>2023-08-21T07:18:10Z</time>
      </trkpt>
      <trkpt lat="45.71249" lon="6.58294">
        <ele>770.6</ele>
        <time>2023-08-21T07:18:11Z</time>
      </trkpt>
      <trkpt lat="45.71246" lon="6.58294">
        <ele>770.6</ele>
        <time>2023-08-21T07:18:12Z</time>
      </trkpt>
      <trkpt lat="45.71243" lon="6.58295">
        <ele>771.2</ele>
        <time>2023-08-21T07:18:13Z</time>
      </trkpt>
      <trkpt lat="45.71242" lon="6.58298">
        <ele>771.2</ele>
        <time>2023-08-21T07:18:14Z</time>
      </trkpt>
      <trkpt lat="45.71241" lon="6.583">
        <ele>771.2</ele>
        <time>2023-08-21T07:18:15Z</time>
      </trkpt>
      <trkpt lat="45.7124" lon="6.58303">
        <ele>771.8</ele>
        <time>2023-08-21T07:18:16Z</time>
      </trkpt>
      <trkpt lat="45.71239" lon="6.58306">
        <ele>771.8</ele>
        <time>2023-08-21T07:18:17Z</time>
      </trkpt>
      <trkpt lat="45.71238" lon="6.58309">
        <ele>771.8</ele>
        <time>2023-08-21T07:18:18Z</time>
      </trkpt>
      <trkpt lat="45.71235" lon="6.58311">
        <ele>771.8</ele>
        <time>2023-08-21T07:18:19Z</time>
      </trkpt>
      <trkpt lat="45.71233" lon="6.58312">
        <ele>772.4</ele>
        <time>2023-08-21T07:18:20Z</time>
      </trkpt>
      <trkpt lat="45.7123" lon="6.58313">
        <ele>772.8</ele>
        <time>2023-08-21T07:18:21Z</time>
      </trkpt>
      <trkpt lat="45.71228" lon="6.58314">
        <ele>772.8</ele>
        <time>2023-08-21T07:18:22Z</time>
      </trkpt>
      <trkpt lat="45.71226" lon="6.58315">
        <ele>772.8</ele>
        <time>2023-08-21T07:18:23Z</time>
      </trkpt>
      <trkpt lat="45.71225" lon="6.58317">
        <ele>772.8</ele>
        <time>2023-08-21T07:18:24Z</time>
      </trkpt>
      <trkpt lat="45.71222" lon="6.58318">
        <ele>772.8</ele>
        <time>2023-08-21T07:18:25Z</time>
      </trkpt>
      <trkpt lat="45.7122" lon="6.58318">
        <ele>773.2</ele>
        <time>2023-08-21T07:18:26Z</time>
      </trkpt>
      <trkpt lat="45.71218" lon="6.5832">
        <ele>773.4</ele>
        <time>2023-08-21T07:18:27Z</time>
      </trkpt>
      <trkpt lat="45.71218" lon="6.58325">
        <ele>773.4</ele>
        <time>2023-08-21T07:18:28Z</time>
      </trkpt>
      <trkpt lat="45.71217" lon="6.58329">
        <ele>773.4</ele>
        <time>2023-08-21T07:18:29Z</time>
      </trkpt>
      <trkpt lat="45.71215" lon="6.58333">
        <ele>773.4</ele>
        <time>2023-08-21T07:18:30Z</time>
      </trkpt>
      <trkpt lat="45.71214" lon="6.58338">
        <ele>774.4</ele>
        <time>2023-08-21T07:18:31Z</time>
      </trkpt>
      <trkpt lat="45.71215" lon="6.58343">
        <ele>774.4</ele>
        <time>2023-08-21T07:18:32Z</time>
      </trkpt>
      <trkpt lat="45.71215" lon="6.58349">
        <ele>774.4</ele>
        <time>2023-08-21T07:18:33Z</time>
      </trkpt>
      <trkpt lat="45.71216" lon="6.58354">
        <ele>774.4</ele>
        <time>2023-08-21T07:18:34Z</time>
      </trkpt>
      <trkpt lat="45.71215" lon="6.58359">
        <ele>775</ele>
        <time>2023-08-21T07:18:35Z</time>
      </trkpt>
      <trkpt lat="45.71216" lon="6.58363">
        <ele>775.4</ele>
        <time>2023-08-21T07:18:36Z</time>
      </trkpt>
      <trkpt lat="45.71214" lon="6.58367">
        <ele>775.4</ele>
        <time>2023-08-21T07:18:37Z</time>
      </trkpt>
      <trkpt lat="45.71214" lon="6.58371">
        <ele>775.4</ele>
        <time>2023-08-21T07:18:38Z</time>
      </trkpt>
      <trkpt lat="45.71213" lon="6.58374">
        <ele>775.8</ele>
        <time>2023-08-21T07:18:39Z</time>
      </trkpt>
      <trkpt lat="45.71212" lon="6.58379">
        <ele>776</ele>
        <time>2023-08-21T07:18:40Z</time>
      </trkpt>
      <trkpt lat="45.71211" lon="6.58382">
        <ele>776</ele>
        <time>2023-08-21T07:18:41Z</time>
      </trkpt>
      <trkpt lat="45.7121" lon="6.58386">
        <ele>776</ele>
        <time>2023-08-21T07:18:42Z</time>
      </trkpt>
      <trkpt lat="45.71209" lon="6.58389">
        <ele>776</ele>
        <time>2023-08-21T07:18:43Z</time>
      </trkpt>
      <trkpt lat="45.71208" lon="6.58392">
        <ele>776.6</ele>
        <time>2023-08-21T07:18:44Z</time>
      </trkpt>
      <trkpt lat="45.71207" lon="6.58395">
        <ele>776.8</ele>
        <time>2023-08-21T07:18:45Z</time>
      </trkpt>
      <trkpt lat="45.71206" lon="6.58398">
        <ele>776.8</ele>
        <time>2023-08-21T07:18:46Z</time>
      </trkpt>
      <trkpt lat="45.71204" lon="6.58401">
        <ele>776.8</ele>
        <time>2023-08-21T07:18:47Z</time>
      </trkpt>
      <trkpt lat="45.71204" lon="6.58404">
        <ele>777.2</ele>
        <time>2023-08-21T07:18:48Z</time>
      </trkpt>
      <trkpt lat="45.71203" lon="6.58407">
        <ele>777.2</ele>
        <time>2023-08-21T07:18:49Z</time>
      </trkpt>
      <trkpt lat="45.71202" lon="6.5841">
        <ele>777.2</ele>
        <time>2023-08-21T07:18:50Z</time>
      </trkpt>
      <trkpt lat="45.71201" lon="6.58413">
        <ele>777.2</ele>
        <time>2023-08-21T07:18:51Z</time>
      </trkpt>
      <trkpt lat="45.712" lon="6.58416">
        <ele>778</ele>
        <time>2023-08-21T07:18:52Z</time>
      </trkpt>
      <trkpt lat="45.71199" lon="6.58419">
        <ele>778</ele>
        <time>2023-08-21T07:18:53Z</time>
      </trkpt>
      <trkpt lat="45.71198" lon="6.58422">
        <ele>778</ele>
        <time>2023-08-21T07:18:54Z</time>
      </trkpt>
      <trkpt lat="45.71197" lon="6.58426">
        <ele>778</ele>
        <time>2023-08-21T07:18:55Z</time>
      </trkpt>
      <trkpt lat="45.71196" lon="6.5843">
        <ele>778</ele>
        <time>2023-08-21T07:18:56Z</time>
      </trkpt>
      <trkpt lat="45.71195" lon="6.58433">
        <ele>778.6</ele>
        <time>2023-08-21T07:18:57Z</time>
      </trkpt>
      <trkpt lat="45.71194" lon="6.58437">
        <ele>778.6</ele>
        <time>2023-08-21T07:18:58Z</time>
      </trkpt>
      <trkpt lat="45.71194" lon="6.5844">
        <ele>778.6</ele>
        <time>2023-08-21T07:18:59Z</time>
      </trkpt>
      <trkpt lat="45.71194" lon="6.58444">
        <ele>778.6</ele>
        <time>2023-08-21T07:19:00Z</time>
      </trkpt>
      <trkpt lat="45.71193" lon="6.58447">
        <ele>779.2</ele>
        <time>2023-08-21T07:19:01Z</time>
      </trkpt>
      <trkpt lat="45.71193" lon="6.58451">
        <ele>779.2</ele>
        <time>2023-08-21T07:19:02Z</time>
      </trkpt>
      <trkpt lat="45.71193" lon="6.58455">
        <ele>779.2</ele>
        <time>2023-08-21T07:19:03Z</time>
      </trkpt>
      <trkpt lat="45.71193" lon="6.58458">
        <ele>779.2</ele>
        <time>2023-08-21T07:19:04Z</time>
      </trkpt>
      <trkpt lat="45.71192" lon="6.58462">
        <ele>779.2</ele>
        <time>2023-08-21T07:19:05Z</time>
      </trkpt>
      <trkpt lat="45.71192" lon="6.58465">
        <ele>779.2</ele>
        <time>2023-08-21T07:19:06Z</time>
      </trkpt>
      <trkpt lat="45.71193" lon="6.58469">
        <ele>779.8</ele>
        <time>2023-08-21T07:19:07Z</time>
      </trkpt>
      <trkpt lat="45.71193" lon="6.58473">
        <ele>780</ele>
        <time>2023-08-21T07:19:08Z</time>
      </trkpt>
      <trkpt lat="45.71192" lon="6.58477">
        <ele>780</ele>
        <time>2023-08-21T07:19:09Z</time>
      </trkpt>
      <trkpt lat="45.71193" lon="6.5848">
        <ele>780</ele>
        <time>2023-08-21T07:19:10Z</time>
      </trkpt>
      <trkpt lat="45.71192" lon="6.58484">
        <ele>780.4</ele>
        <time>2023-08-21T07:19:11Z</time>
      </trkpt>
      <trkpt lat="45.71192" lon="6.58487">
        <ele>780.6</ele>
        <time>2023-08-21T07:19:12Z</time>
      </trkpt>
      <trkpt lat="45.71192" lon="6.58491">
        <ele>780.6</ele>
        <time>2023-08-21T07:19:13Z</time>
      </trkpt>
      <trkpt lat="45.71193" lon="6.58495">
        <ele>780.6</ele>
        <time>2023-08-21T07:19:14Z</time>
      </trkpt>
      <trkpt lat="45.71193" lon="6.58498">
        <ele>780.6</ele>
        <time>2023-08-21T07:19:15Z</time>
      </trkpt>
      <trkpt lat="45.71192" lon="6.58502">
        <ele>781.2</ele>
        <time>2023-08-21T07:19:16Z</time>
      </trkpt>
      <trkpt lat="45.71192" lon="6.58506">
        <ele>781.2</ele>
        <time>2023-08-21T07:19:17Z</time>
      </trkpt>
      <trkpt lat="45.71191" lon="6.58509">
        <ele>781.2</ele>
        <time>2023-08-21T07:19:18Z</time>
      </trkpt>
      <trkpt lat="45.71191" lon="6.58513">
        <ele>781.2</ele>
        <time>2023-08-21T07:19:19Z</time>
      </trkpt>
      <trkpt lat="45.7119" lon="6.58517">
        <ele>781.8</ele>
        <time>2023-08-21T07:19:20Z</time>
      </trkpt>
      <trkpt lat="45.7119" lon="6.58521">
        <ele>782</ele>
        <time>2023-08-21T07:19:21Z</time>
      </trkpt>
      <trkpt lat="45.71189" lon="6.58525">
        <ele>782</ele>
        <time>2023-08-21T07:19:22Z</time>
      </trkpt>
      <trkpt lat="45.71188" lon="6.58529">
        <ele>782</ele>
        <time>2023-08-21T07:19:23Z</time>
      </trkpt>
      <trkpt lat="45.71187" lon="6.58532">
        <ele>782.4</ele>
        <time>2023-08-21T07:19:24Z</time>
      </trkpt>
      <trkpt lat="45.71187" lon="6.58536">
        <ele>782.6</ele>
        <time>2023-08-21T07:19:25Z</time>
      </trkpt>
      <trkpt lat="45.71186" lon="6.5854">
        <ele>782.6</ele>
        <time>2023-08-21T07:19:26Z</time>
      </trkpt>
      <trkpt lat="45.71186" lon="6.58544">
        <ele>782.6</ele>
        <time>2023-08-21T07:19:27Z</time>
      </trkpt>
      <trkpt lat="45.71185" lon="6.58548">
        <ele>782.6</ele>
        <time>2023-08-21T07:19:28Z</time>
      </trkpt>
      <trkpt lat="45.71184" lon="6.58552">
        <ele>783.2</ele>
        <time>2023-08-21T07:19:29Z</time>
      </trkpt>
      <trkpt lat="45.71184" lon="6.58556">
        <ele>783.4</ele>
        <time>2023-08-21T07:19:30Z</time>
      </trkpt>
      <trkpt lat="45.71184" lon="6.5856">
        <ele>783.4</ele>
        <time>2023-08-21T07:19:31Z</time>
      </trkpt>
      <trkpt lat="45.71184" lon="6.58564">
        <ele>783.4</ele>
        <time>2023-08-21T07:19:32Z</time>
      </trkpt>
      <trkpt lat="45.71184" lon="6.58568">
        <ele>783.8</ele>
        <time>2023-08-21T07:19:33Z</time>
      </trkpt>
      <trkpt lat="45.71185" lon="6.58572">
        <ele>783.8</ele>
        <time>2023-08-21T07:19:34Z</time>
      </trkpt>
      <trkpt lat="45.71185" lon="6.58576">
        <ele>783.8</ele>
        <time>2023-08-21T07:19:35Z</time>
      </trkpt>
      <trkpt lat="45.71184" lon="6.5858">
        <ele>783.8</ele>
        <time>2023-08-21T07:19:36Z</time>
      </trkpt>
      <trkpt lat="45.71184" lon="6.58584">
        <ele>783.8</ele>
        <time>2023-08-21T07:19:37Z</time>
      </trkpt>
      <trkpt lat="45.71184" lon="6.58588">
        <ele>784.4</ele>
        <time>2023-08-21T07:19:38Z</time>
      </trkpt>
      <trkpt lat="45.71184" lon="6.58592">
        <ele>784.6</ele>
        <time>2023-08-21T07:19:39Z</time>
      </trkpt>
      <trkpt lat="45.71184" lon="6.58595">
        <ele>784.6</ele>
        <time>2023-08-21T07:19:40Z</time>
      </trkpt>
      <trkpt lat="45.71184" lon="6.58599">
        <ele>784.6</ele>
        <time>2023-08-21T07:19:41Z</time>
      </trkpt>
      <trkpt lat="45.71184" lon="6.58603">
        <ele>785</ele>
        <time>2023-08-21T07:19:42Z</time>
      </trkpt>
      <trkpt lat="45.71184" lon="6.58607">
        <ele>785</ele>
        <time>2023-08-21T07:19:43Z</time>
      </trkpt>
      <trkpt lat="45.71184" lon="6.58611">
        <ele>785</ele>
        <time>2023-08-21T07:19:44Z</time>
      </trkpt>
      <trkpt lat="45.71184" lon="6.58615">
        <ele>785</ele>
        <time>2023-08-21T07:19:45Z</time>
      </trkpt>
      <trkpt lat="45.71184" lon="6.58618">
        <ele>785</ele>
        <time>2023-08-21T07:19:46Z</time>
      </trkpt>
      <trkpt lat="45.71184" lon="6.58622">
        <ele>785.8</ele>
        <time>2023-08-21T07:19:47Z</time>
      </trkpt>
      <trkpt lat="45.71184" lon="6.58626">
        <ele>785.8</ele>
        <time>2023-08-21T07:19:48Z</time>
      </trkpt>
      <trkpt lat="45.71183" lon="6.5863">
        <ele>786</ele>
        <time>2023-08-21T07:19:49Z</time>
      </trkpt>
      <trkpt lat="45.71183" lon="6.58633">
        <ele>786</ele>
        <time>2023-08-21T07:19:50Z</time>
      </trkpt>
      <trkpt lat="45.71182" lon="6.58637">
        <ele>786</ele>
        <time>2023-08-21T07:19:51Z</time>
      </trkpt>
      <trkpt lat="45.71182" lon="6.5864">
        <ele>786.6</ele>
        <time>2023-08-21T07:19:52Z</time>
      </trkpt>
      <trkpt lat="45.71181" lon="6.58644">
        <ele>786.6</ele>
        <time>2023-08-21T07:19:53Z</time>
      </trkpt>
      <trkpt lat="45.71181" lon="6.58647">
        <ele>786.6</ele>
        <time>2023-08-21T07:19:54Z</time>
      </trkpt>
      <trkpt lat="45.71182" lon="6.58651">
        <ele>786.6</ele>
        <time>2023-08-21T07:19:55Z</time>
      </trkpt>
      <trkpt lat="45.71181" lon="6.58654">
        <ele>787</ele>
        <time>2023-08-21T07:19:56Z</time>
      </trkpt>
      <trkpt lat="45.71181" lon="6.58658">
        <ele>787.6</ele>
        <time>2023-08-21T07:19:57Z</time>
      </trkpt>
      <trkpt lat="45.7118" lon="6.58661">
        <ele>787.6</ele>
        <time>2023-08-21T07:19:58Z</time>
      </trkpt>
      <trkpt lat="45.71179" lon="6.58664">
        <ele>787.6</ele>
        <time>2023-08-21T07:19:59Z</time>
      </trkpt>
      <trkpt lat="45.71178" lon="6.58667">
        <ele>787.8</ele>
        <time>2023-08-21T07:20:00Z</time>
      </trkpt>
      <trkpt lat="45.71177" lon="6.58671">
        <ele>787.8</ele>
        <time>2023-08-21T07:20:01Z</time>
      </trkpt>
      <trkpt lat="45.71176" lon="6.58674">
        <ele>788.4</ele>
        <time>2023-08-21T07:20:02Z</time>
      </trkpt>
      <trkpt lat="45.71174" lon="6.58678">
        <ele>788.4</ele>
        <time>2023-08-21T07:20:03Z</time>
      </trkpt>
      <trkpt lat="45.71172" lon="6.58682">
        <ele>788.4</ele>
        <time>2023-08-21T07:20:04Z</time>
      </trkpt>
      <trkpt lat="45.71171" lon="6.58685">
        <ele>789</ele>
        <time>2023-08-21T07:20:05Z</time>
      </trkpt>
      <trkpt lat="45.7117" lon="6.58688">
        <ele>789.2</ele>
        <time>2023-08-21T07:20:06Z</time>
      </trkpt>
      <trkpt lat="45.71168" lon="6.58691">
        <ele>789.2</ele>
        <time>2023-08-21T07:20:07Z</time>
      </trkpt>
      <trkpt lat="45.71167" lon="6.58694">
        <ele>789.2</ele>
        <time>2023-08-21T07:20:08Z</time>
      </trkpt>
      <trkpt lat="45.71166" lon="6.58696">
        <ele>789.8</ele>
        <time>2023-08-21T07:20:09Z</time>
      </trkpt>
      <trkpt lat="45.71165" lon="6.58699">
        <ele>790.2</ele>
        <time>2023-08-21T07:20:10Z</time>
      </trkpt>
      <trkpt lat="45.71164" lon="6.58702">
        <ele>790.2</ele>
        <time>2023-08-21T07:20:11Z</time>
      </trkpt>
      <trkpt lat="45.71162" lon="6.58705">
        <ele>790.2</ele>
        <time>2023-08-21T07:20:12Z</time>
      </trkpt>
      <trkpt lat="45.71161" lon="6.58708">
        <ele>790.2</ele>
        <time>2023-08-21T07:20:13Z</time>
      </trkpt>
      <trkpt lat="45.7116" lon="6.5871">
        <ele>790.2</ele>
        <time>2023-08-21T07:20:14Z</time>
      </trkpt>
      <trkpt lat="45.71159" lon="6.58713">
        <ele>791.2</ele>
        <time>2023-08-21T07:20:15Z</time>
      </trkpt>
      <trkpt lat="45.71159" lon="6.58716">
        <ele>791.2</ele>
        <time>2023-08-21T07:20:16Z</time>
      </trkpt>
      <trkpt lat="45.71158" lon="6.58718">
        <ele>791.2</ele>
        <time>2023-08-21T07:20:17Z</time>
      </trkpt>
      <trkpt lat="45.71156" lon="6.5872">
        <ele>791.6</ele>
        <time>2023-08-21T07:20:18Z</time>
      </trkpt>
      <trkpt lat="45.71155" lon="6.58723">
        <ele>792</ele>
        <time>2023-08-21T07:20:19Z</time>
      </trkpt>
      <trkpt lat="45.71155" lon="6.58726">
        <ele>792</ele>
        <time>2023-08-21T07:20:20Z</time>
      </trkpt>
      <trkpt lat="45.71154" lon="6.58728">
        <ele>792</ele>
        <time>2023-08-21T07:20:21Z</time>
      </trkpt>
      <trkpt lat="45.71153" lon="6.5873">
        <ele>792.6</ele>
        <time>2023-08-21T07:20:22Z</time>
      </trkpt>
      <trkpt lat="45.71152" lon="6.58732">
        <ele>793</ele>
        <time>2023-08-21T07:20:23Z</time>
      </trkpt>
      <trkpt lat="45.7115" lon="6.58734">
        <ele>793</ele>
        <time>2023-08-21T07:20:24Z</time>
      </trkpt>
      <trkpt lat="45.71148" lon="6.58737">
        <ele>793</ele>
        <time>2023-08-21T07:20:25Z</time>
      </trkpt>
      <trkpt lat="45.71146" lon="6.5874">
        <ele>793</ele>
        <time>2023-08-21T07:20:26Z</time>
      </trkpt>
      <trkpt lat="45.71146" lon="6.58743">
        <ele>793.4</ele>
        <time>2023-08-21T07:20:27Z</time>
      </trkpt>
      <trkpt lat="45.71145" lon="6.58746">
        <ele>793.4</ele>
        <time>2023-08-21T07:20:28Z</time>
      </trkpt>
      <trkpt lat="45.71144" lon="6.58749">
        <ele>793.4</ele>
        <time>2023-08-21T07:20:29Z</time>
      </trkpt>
      <trkpt lat="45.71143" lon="6.58753">
        <ele>793.4</ele>
        <time>2023-08-21T07:20:30Z</time>
      </trkpt>
      <trkpt lat="45.71142" lon="6.58756">
        <ele>793.4</ele>
        <time>2023-08-21T07:20:31Z</time>
      </trkpt>
      <trkpt lat="45.71141" lon="6.5876">
        <ele>794</ele>
        <time>2023-08-21T07:20:32Z</time>
      </trkpt>
      <trkpt lat="45.7114" lon="6.58763">
        <ele>794.2</ele>
        <time>2023-08-21T07:20:33Z</time>
      </trkpt>
      <trkpt lat="45.7114" lon="6.58767">
        <ele>794.2</ele>
        <time>2023-08-21T07:20:34Z</time>
      </trkpt>
      <trkpt lat="45.7114" lon="6.5877">
        <ele>794.2</ele>
        <time>2023-08-21T07:20:35Z</time>
      </trkpt>
      <trkpt lat="45.7114" lon="6.58774">
        <ele>794.8</ele>
        <time>2023-08-21T07:20:36Z</time>
      </trkpt>
      <trkpt lat="45.71139" lon="6.58777">
        <ele>795</ele>
        <time>2023-08-21T07:20:37Z</time>
      </trkpt>
      <trkpt lat="45.71138" lon="6.58781">
        <ele>795</ele>
        <time>2023-08-21T07:20:38Z</time>
      </trkpt>
      <trkpt lat="45.71138" lon="6.58784">
        <ele>795</ele>
        <time>2023-08-21T07:20:39Z</time>
      </trkpt>
      <trkpt lat="45.71137" lon="6.58787">
        <ele>795</ele>
        <time>2023-08-21T07:20:40Z</time>
      </trkpt>
      <trkpt lat="45.71138" lon="6.5879">
        <ele>795.4</ele>
        <time>2023-08-21T07:20:41Z</time>
      </trkpt>
      <trkpt lat="45.71138" lon="6.58794">
        <ele>795.8</ele>
        <time>2023-08-21T07:20:42Z</time>
      </trkpt>
      <trkpt lat="45.71137" lon="6.58797">
        <ele>795.8</ele>
        <time>2023-08-21T07:20:43Z</time>
      </trkpt>
      <trkpt lat="45.71137" lon="6.588">
        <ele>795.8</ele>
        <time>2023-08-21T07:20:44Z</time>
      </trkpt>
      <trkpt lat="45.71137" lon="6.58803">
        <ele>796.4</ele>
        <time>2023-08-21T07:20:45Z</time>
      </trkpt>
      <trkpt lat="45.71137" lon="6.58807">
        <ele>796.4</ele>
        <time>2023-08-21T07:20:46Z</time>
      </trkpt>
      <trkpt lat="45.71136" lon="6.5881">
        <ele>796.4</ele>
        <time>2023-08-21T07:20:47Z</time>
      </trkpt>
      <trkpt lat="45.71134" lon="6.58813">
        <ele>796.4</ele>
        <time>2023-08-21T07:20:48Z</time>
      </trkpt>
      <trkpt lat="45.71134" lon="6.58816">
        <ele>797</ele>
        <time>2023-08-21T07:20:49Z</time>
      </trkpt>
      <trkpt lat="45.71133" lon="6.58819">
        <ele>797.2</ele>
        <time>2023-08-21T07:20:50Z</time>
      </trkpt>
      <trkpt lat="45.71134" lon="6.58822">
        <ele>797.2</ele>
        <time>2023-08-21T07:20:51Z</time>
      </trkpt>
      <trkpt lat="45.71134" lon="6.58826">
        <ele>797.2</ele>
        <time>2023-08-21T07:20:52Z</time>
      </trkpt>
      <trkpt lat="45.71134" lon="6.58829">
        <ele>797.2</ele>
        <time>2023-08-21T07:20:53Z</time>
      </trkpt>
      <trkpt lat="45.71133" lon="6.58833">
        <ele>797.8</ele>
        <time>2023-08-21T07:20:54Z</time>
      </trkpt>
      <trkpt lat="45.71132" lon="6.58836">
        <ele>798</ele>
        <time>2023-08-21T07:20:55Z</time>
      </trkpt>
      <trkpt lat="45.71131" lon="6.58839">
        <ele>798</ele>
        <time>2023-08-21T07:20:56Z</time>
      </trkpt>
      <trkpt lat="45.71131" lon="6.58842">
        <ele>798</ele>
        <time>2023-08-21T07:20:57Z</time>
      </trkpt>
      <trkpt lat="45.7113" lon="6.58845">
        <ele>798.8</ele>
        <time>2023-08-21T07:20:58Z</time>
      </trkpt>
      <trkpt lat="45.71129" lon="6.58848">
        <ele>799</ele>
        <time>2023-08-21T07:20:59Z</time>
      </trkpt>
      <trkpt lat="45.71128" lon="6.5885">
        <ele>799</ele>
        <time>2023-08-21T07:21:00Z</time>
      </trkpt>
      <trkpt lat="45.71127" lon="6.58853">
        <ele>799</ele>
        <time>2023-08-21T07:21:01Z</time>
      </trkpt>
      <trkpt lat="45.71126" lon="6.58856">
        <ele>799</ele>
        <time>2023-08-21T07:21:02Z</time>
      </trkpt>
      <trkpt lat="45.71125" lon="6.58859">
        <ele>799.6</ele>
        <time>2023-08-21T07:21:03Z</time>
      </trkpt>
      <trkpt lat="45.71124" lon="6.58862">
        <ele>799.8</ele>
        <time>2023-08-21T07:21:04Z</time>
      </trkpt>
      <trkpt lat="45.71123" lon="6.58865">
        <ele>799.8</ele>
        <time>2023-08-21T07:21:05Z</time>
      </trkpt>
      <trkpt lat="45.71122" lon="6.58867">
        <ele>799.8</ele>
        <time>2023-08-21T07:21:06Z</time>
      </trkpt>
      <trkpt lat="45.71122" lon="6.5887">
        <ele>800.4</ele>
        <time>2023-08-21T07:21:07Z</time>
      </trkpt>
      <trkpt lat="45.71121" lon="6.58872">
        <ele>800.8</ele>
        <time>2023-08-21T07:21:08Z</time>
      </trkpt>
      <trkpt lat="45.7112" lon="6.58875">
        <ele>800.8</ele>
        <time>2023-08-21T07:21:09Z</time>
      </trkpt>
      <trkpt lat="45.71119" lon="6.58877">
        <ele>800.8</ele>
        <time>2023-08-21T07:21:10Z</time>
      </trkpt>
      <trkpt lat="45.71118" lon="6.58881">
        <ele>800.8</ele>
        <time>2023-08-21T07:21:11Z</time>
      </trkpt>
      <trkpt lat="45.71117" lon="6.58884">
        <ele>800.8</ele>
        <time>2023-08-21T07:21:12Z</time>
      </trkpt>
      <trkpt lat="45.71116" lon="6.58888">
        <ele>801.4</ele>
        <time>2023-08-21T07:21:13Z</time>
      </trkpt>
      <trkpt lat="45.71116" lon="6.58891">
        <ele>801.6</ele>
        <time>2023-08-21T07:21:14Z</time>
      </trkpt>
      <trkpt lat="45.71116" lon="6.58895">
        <ele>801.6</ele>
        <time>2023-08-21T07:21:15Z</time>
      </trkpt>
      <trkpt lat="45.71115" lon="6.58898">
        <ele>801.6</ele>
        <time>2023-08-21T07:21:16Z</time>
      </trkpt>
      <trkpt lat="45.71114" lon="6.58902">
        <ele>802.4</ele>
        <time>2023-08-21T07:21:17Z</time>
      </trkpt>
      <trkpt lat="45.71113" lon="6.58904">
        <ele>802.4</ele>
        <time>2023-08-21T07:21:18Z</time>
      </trkpt>
      <trkpt lat="45.71112" lon="6.58907">
        <ele>802.4</ele>
        <time>2023-08-21T07:21:19Z</time>
      </trkpt>
      <trkpt lat="45.71111" lon="6.58909">
        <ele>802.4</ele>
        <time>2023-08-21T07:21:20Z</time>
      </trkpt>
      <trkpt lat="45.7111" lon="6.58912">
        <ele>803</ele>
        <time>2023-08-21T07:21:21Z</time>
      </trkpt>
      <trkpt lat="45.71109" lon="6.58915">
        <ele>803.2</ele>
        <time>2023-08-21T07:21:22Z</time>
      </trkpt>
      <trkpt lat="45.71109" lon="6.58919">
        <ele>803.2</ele>
        <time>2023-08-21T07:21:23Z</time>
      </trkpt>
      <trkpt lat="45.71108" lon="6.58921">
        <ele>803.2</ele>
        <time>2023-08-21T07:21:24Z</time>
      </trkpt>
      <trkpt lat="45.71107" lon="6.58924">
        <ele>803.2</ele>
        <time>2023-08-21T07:21:25Z</time>
      </trkpt>
      <trkpt lat="45.71106" lon="6.58927">
        <ele>803.8</ele>
        <time>2023-08-21T07:21:26Z</time>
      </trkpt>
      <trkpt lat="45.71105" lon="6.58931">
        <ele>804.2</ele>
        <time>2023-08-21T07:21:27Z</time>
      </trkpt>
      <trkpt lat="45.71104" lon="6.58933">
        <ele>804.2</ele>
        <time>2023-08-21T07:21:28Z</time>
      </trkpt>
      <trkpt lat="45.71103" lon="6.58936">
        <ele>804.2</ele>
        <time>2023-08-21T07:21:29Z</time>
      </trkpt>
      <trkpt lat="45.71102" lon="6.58939">
        <ele>804.2</ele>
        <time>2023-08-21T07:21:30Z</time>
      </trkpt>
      <trkpt lat="45.71101" lon="6.58942">
        <ele>805.2</ele>
        <time>2023-08-21T07:21:31Z</time>
      </trkpt>
      <trkpt lat="45.71099" lon="6.58943">
        <ele>805.2</ele>
        <time>2023-08-21T07:21:32Z</time>
      </trkpt>
      <trkpt lat="45.71097" lon="6.58945">
        <ele>805.2</ele>
        <time>2023-08-21T07:21:33Z</time>
      </trkpt>
      <trkpt lat="45.71095" lon="6.58947">
        <ele>805.2</ele>
        <time>2023-08-21T07:21:34Z</time>
      </trkpt>
      <trkpt lat="45.71092" lon="6.58948">
        <ele>806.2</ele>
        <time>2023-08-21T07:21:35Z</time>
      </trkpt>
      <trkpt lat="45.7109" lon="6.5895">
        <ele>806.4</ele>
        <time>2023-08-21T07:21:36Z</time>
      </trkpt>
      <trkpt lat="45.71087" lon="6.58952">
        <ele>806.4</ele>
        <time>2023-08-21T07:21:37Z</time>
      </trkpt>
      <trkpt lat="45.71085" lon="6.58954">
        <ele>806.4</ele>
        <time>2023-08-21T07:21:38Z</time>
      </trkpt>
      <trkpt lat="45.71083" lon="6.58955">
        <ele>807.2</ele>
        <time>2023-08-21T07:21:39Z</time>
      </trkpt>
      <trkpt lat="45.71081" lon="6.58956">
        <ele>807.6</ele>
        <time>2023-08-21T07:21:40Z</time>
      </trkpt>
      <trkpt lat="45.71078" lon="6.58958">
        <ele>807.6</ele>
        <time>2023-08-21T07:21:41Z</time>
      </trkpt>
      <trkpt lat="45.71076" lon="6.58959">
        <ele>807.6</ele>
        <time>2023-08-21T07:21:42Z</time>
      </trkpt>
      <trkpt lat="45.71074" lon="6.5896">
        <ele>808</ele>
        <time>2023-08-21T07:21:43Z</time>
      </trkpt>
      <trkpt lat="45.71072" lon="6.58962">
        <ele>808</ele>
        <time>2023-08-21T07:21:44Z</time>
      </trkpt>
      <trkpt lat="45.7107" lon="6.58964">
        <ele>808</ele>
        <time>2023-08-21T07:21:45Z</time>
      </trkpt>
      <trkpt lat="45.71067" lon="6.58966">
        <ele>808</ele>
        <time>2023-08-21T07:21:46Z</time>
      </trkpt>
      <trkpt lat="45.71065" lon="6.58969">
        <ele>808</ele>
        <time>2023-08-21T07:21:47Z</time>
      </trkpt>
      <trkpt lat="45.71064" lon="6.58971">
        <ele>808.6</ele>
        <time>2023-08-21T07:21:48Z</time>
      </trkpt>
      <trkpt lat="45.71062" lon="6.58973">
        <ele>809</ele>
        <time>2023-08-21T07:21:49Z</time>
      </trkpt>
      <trkpt lat="45.71061" lon="6.58975">
        <ele>809</ele>
        <time>2023-08-21T07:21:50Z</time>
      </trkpt>
      <trkpt lat="45.71059" lon="6.58977">
        <ele>809</ele>
        <time>2023-08-21T07:21:51Z</time>
      </trkpt>
      <trkpt lat="45.71057" lon="6.58979">
        <ele>809</ele>
        <time>2023-08-21T07:21:52Z</time>
      </trkpt>
      <trkpt lat="45.71055" lon="6.58981">
        <ele>809.4</ele>
        <time>2023-08-21T07:21:53Z</time>
      </trkpt>
      <trkpt lat="45.71053" lon="6.58983">
        <ele>809.6</ele>
        <time>2023-08-21T07:21:54Z</time>
      </trkpt>
      <trkpt lat="45.7105" lon="6.58984">
        <ele>809.6</ele>
        <time>2023-08-21T07:21:55Z</time>
      </trkpt>
      <trkpt lat="45.71048" lon="6.58986">
        <ele>809.6</ele>
        <time>2023-08-21T07:21:56Z</time>
      </trkpt>
      <trkpt lat="45.71046" lon="6.58988">
        <ele>809.6</ele>
        <time>2023-08-21T07:21:57Z</time>
      </trkpt>
      <trkpt lat="45.71044" lon="6.58989">
        <ele>810.4</ele>
        <time>2023-08-21T07:21:58Z</time>
      </trkpt>
      <trkpt lat="45.71041" lon="6.58991">
        <ele>810.6</ele>
        <time>2023-08-21T07:21:59Z</time>
      </trkpt>
      <trkpt lat="45.7104" lon="6.58992">
        <ele>810.6</ele>
        <time>2023-08-21T07:22:00Z</time>
      </trkpt>
      <trkpt lat="45.71038" lon="6.58994">
        <ele>810.6</ele>
        <time>2023-08-21T07:22:01Z</time>
      </trkpt>
      <trkpt lat="45.71036" lon="6.58995">
        <ele>811.4</ele>
        <time>2023-08-21T07:22:02Z</time>
      </trkpt>
      <trkpt lat="45.71035" lon="6.58997">
        <ele>811.4</ele>
        <time>2023-08-21T07:22:03Z</time>
      </trkpt>
      <trkpt lat="45.71033" lon="6.58999">
        <ele>811.4</ele>
        <time>2023-08-21T07:22:04Z</time>
      </trkpt>
      <trkpt lat="45.71031" lon="6.59">
        <ele>811.4</ele>
        <time>2023-08-21T07:22:05Z</time>
      </trkpt>
      <trkpt lat="45.71029" lon="6.59002">
        <ele>811.4</ele>
        <time>2023-08-21T07:22:06Z</time>
      </trkpt>
      <trkpt lat="45.71027" lon="6.59004">
        <ele>812.2</ele>
        <time>2023-08-21T07:22:07Z</time>
      </trkpt>
      <trkpt lat="45.71026" lon="6.59005">
        <ele>812.6</ele>
        <time>2023-08-21T07:22:08Z</time>
      </trkpt>
      <trkpt lat="45.71024" lon="6.59007">
        <ele>812.6</ele>
        <time>2023-08-21T07:22:09Z</time>
      </trkpt>
      <trkpt lat="45.71023" lon="6.59009">
        <ele>812.6</ele>
        <time>2023-08-21T07:22:10Z</time>
      </trkpt>
      <trkpt lat="45.71021" lon="6.5901">
        <ele>813</ele>
        <time>2023-08-21T07:22:11Z</time>
      </trkpt>
      <trkpt lat="45.71019" lon="6.59011">
        <ele>813.2</ele>
        <time>2023-08-21T07:22:12Z</time>
      </trkpt>
      <trkpt lat="45.71017" lon="6.59013">
        <ele>813.2</ele>
        <time>2023-08-21T07:22:13Z</time>
      </trkpt>
      <trkpt lat="45.71014" lon="6.59014">
        <ele>813.2</ele>
        <time>2023-08-21T07:22:14Z</time>
      </trkpt>
      <trkpt lat="45.71012" lon="6.59016">
        <ele>813.2</ele>
        <time>2023-08-21T07:22:15Z</time>
      </trkpt>
      <trkpt lat="45.7101" lon="6.59017">
        <ele>813.8</ele>
        <time>2023-08-21T07:22:16Z</time>
      </trkpt>
      <trkpt lat="45.71008" lon="6.59018">
        <ele>814.2</ele>
        <time>2023-08-21T07:22:17Z</time>
      </trkpt>
      <trkpt lat="45.71006" lon="6.59019">
        <ele>814.2</ele>
        <time>2023-08-21T07:22:18Z</time>
      </trkpt>
      <trkpt lat="45.71004" lon="6.59019">
        <ele>814.2</ele>
        <time>2023-08-21T07:22:19Z</time>
      </trkpt>
      <trkpt lat="45.71001" lon="6.59018">
        <ele>814.8</ele>
        <time>2023-08-21T07:22:20Z</time>
      </trkpt>
      <trkpt lat="45.70999" lon="6.59016">
        <ele>815.2</ele>
        <time>2023-08-21T07:22:21Z</time>
      </trkpt>
      <trkpt lat="45.70996" lon="6.59015">
        <ele>815.2</ele>
        <time>2023-08-21T07:22:22Z</time>
      </trkpt>
      <trkpt lat="45.70994" lon="6.59012">
        <ele>815.2</ele>
        <time>2023-08-21T07:22:23Z</time>
      </trkpt>
      <trkpt lat="45.70993" lon="6.59009">
        <ele>815.8</ele>
        <time>2023-08-21T07:22:24Z</time>
      </trkpt>
      <trkpt lat="45.70993" lon="6.59006">
        <ele>815.8</ele>
        <time>2023-08-21T07:22:25Z</time>
      </trkpt>
      <trkpt lat="45.70994" lon="6.59003">
        <ele>816</ele>
        <time>2023-08-21T07:22:26Z</time>
      </trkpt>
      <trkpt lat="45.70997" lon="6.59">
        <ele>816</ele>
        <time>2023-08-21T07:22:27Z</time>
      </trkpt>
      <trkpt lat="45.71" lon="6.58998">
        <ele>816</ele>
        <time>2023-08-21T07:22:28Z</time>
      </trkpt>
      <trkpt lat="45.71003" lon="6.58996">
        <ele>816.8</ele>
        <time>2023-08-21T07:22:29Z</time>
      </trkpt>
      <trkpt lat="45.71006" lon="6.58995">
        <ele>817</ele>
        <time>2023-08-21T07:22:30Z</time>
      </trkpt>
      <trkpt lat="45.71009" lon="6.58994">
        <ele>817</ele>
        <time>2023-08-21T07:22:31Z</time>
      </trkpt>
      <trkpt lat="45.71012" lon="6.58993">
        <ele>817</ele>
        <time>2023-08-21T07:22:32Z</time>
      </trkpt>
      <trkpt lat="45.71014" lon="6.58991">
        <ele>817.4</ele>
        <time>2023-08-21T07:22:33Z</time>
      </trkpt>
      <trkpt lat="45.71017" lon="6.5899">
        <ele>817.6</ele>
        <time>2023-08-21T07:22:34Z</time>
      </trkpt>
      <trkpt lat="45.71019" lon="6.58988">
        <ele>817.6</ele>
        <time>2023-08-21T07:22:35Z</time>
      </trkpt>
      <trkpt lat="45.71021" lon="6.58985">
        <ele>817.6</ele>
        <time>2023-08-21T07:22:36Z</time>
      </trkpt>
      <trkpt lat="45.71023" lon="6.58982">
        <ele>817.6</ele>
        <time>2023-08-21T07:22:37Z</time>
      </trkpt>
      <trkpt lat="45.71024" lon="6.58979">
        <ele>817.6</ele>
        <time>2023-08-21T07:22:38Z</time>
      </trkpt>
      <trkpt lat="45.71026" lon="6.58976">
        <ele>817.8</ele>
        <time>2023-08-21T07:22:39Z</time>
      </trkpt>
      <trkpt lat="45.71027" lon="6.58973">
        <ele>818.2</ele>
        <time>2023-08-21T07:22:40Z</time>
      </trkpt>
      <trkpt lat="45.71029" lon="6.5897">
        <ele>818.2</ele>
        <time>2023-08-21T07:22:41Z</time>
      </trkpt>
      <trkpt lat="45.7103" lon="6.58967">
        <ele>818.2</ele>
        <time>2023-08-21T07:22:42Z</time>
      </trkpt>
      <trkpt lat="45.71031" lon="6.58964">
        <ele>818.8</ele>
        <time>2023-08-21T07:22:43Z</time>
      </trkpt>
      <trkpt lat="45.71032" lon="6.58961">
        <ele>819</ele>
        <time>2023-08-21T07:22:44Z</time>
      </trkpt>
      <trkpt lat="45.71033" lon="6.58958">
        <ele>819</ele>
        <time>2023-08-21T07:22:45Z</time>
      </trkpt>
      <trkpt lat="45.71033" lon="6.58955">
        <ele>819</ele>
        <time>2023-08-21T07:22:46Z</time>
      </trkpt>
      <trkpt lat="45.71033" lon="6.58951">
        <ele>819.6</ele>
        <time>2023-08-21T07:22:47Z</time>
      </trkpt>
      <trkpt lat="45.71033" lon="6.58948">
        <ele>819.8</ele>
        <time>2023-08-21T07:22:48Z</time>
      </trkpt>
      <trkpt lat="45.71033" lon="6.58945">
        <ele>819.8</ele>
        <time>2023-08-21T07:22:49Z</time>
      </trkpt>
      <trkpt lat="45.71033" lon="6.58942">
        <ele>819.8</ele>
        <time>2023-08-21T07:22:50Z</time>
      </trkpt>
      <trkpt lat="45.71032" lon="6.58938">
        <ele>819.8</ele>
        <time>2023-08-21T07:22:51Z</time>
      </trkpt>
      <trkpt lat="45.71032" lon="6.58936">
        <ele>820.2</ele>
        <time>2023-08-21T07:22:52Z</time>
      </trkpt>
      <trkpt lat="45.71031" lon="6.58933">
        <ele>820.4</ele>
        <time>2023-08-21T07:22:53Z</time>
      </trkpt>
      <trkpt lat="45.7103" lon="6.5893">
        <ele>820.4</ele>
        <time>2023-08-21T07:22:54Z</time>
      </trkpt>
      <trkpt lat="45.71029" lon="6.58928">
        <ele>820.4</ele>
        <time>2023-08-21T07:22:55Z</time>
      </trkpt>
      <trkpt lat="45.71026" lon="6.58927">
        <ele>821</ele>
        <time>2023-08-21T07:22:56Z</time>
      </trkpt>
      <trkpt lat="45.71024" lon="6.58926">
        <ele>821.2</ele>
        <time>2023-08-21T07:22:57Z</time>
      </trkpt>
      <trkpt lat="45.71022" lon="6.58926">
        <ele>821.2</ele>
        <time>2023-08-21T07:22:58Z</time>
      </trkpt>
      <trkpt lat="45.7102" lon="6.58927">
        <ele>821.2</ele>
        <time>2023-08-21T07:22:59Z</time>
      </trkpt>
      <trkpt lat="45.71017" lon="6.58929">
        <ele>821.8</ele>
        <time>2023-08-21T07:23:00Z</time>
      </trkpt>
      <trkpt lat="45.71015" lon="6.58931">
        <ele>821.8</ele>
        <time>2023-08-21T07:23:01Z</time>
      </trkpt>
      <trkpt lat="45.71013" lon="6.58933">
        <ele>821.8</ele>
        <time>2023-08-21T07:23:02Z</time>
      </trkpt>
      <trkpt lat="45.71011" lon="6.58935">
        <ele>821.8</ele>
        <time>2023-08-21T07:23:03Z</time>
      </trkpt>
      <trkpt lat="45.71009" lon="6.58937">
        <ele>821.8</ele>
        <time>2023-08-21T07:23:04Z</time>
      </trkpt>
      <trkpt lat="45.71007" lon="6.5894">
        <ele>822.4</ele>
        <time>2023-08-21T07:23:05Z</time>
      </trkpt>
      <trkpt lat="45.71006" lon="6.58942">
        <ele>822.8</ele>
        <time>2023-08-21T07:23:06Z</time>
      </trkpt>
      <trkpt lat="45.71005" lon="6.58945">
        <ele>822.8</ele>
        <time>2023-08-21T07:23:07Z</time>
      </trkpt>
      <trkpt lat="45.71003" lon="6.58947">
        <ele>822.8</ele>
        <time>2023-08-21T07:23:08Z</time>
      </trkpt>
      <trkpt lat="45.71001" lon="6.5895">
        <ele>823.4</ele>
        <time>2023-08-21T07:23:09Z</time>
      </trkpt>
      <trkpt lat="45.70999" lon="6.58953">
        <ele>823.6</ele>
        <time>2023-08-21T07:23:10Z</time>
      </trkpt>
      <trkpt lat="45.70997" lon="6.58955">
        <ele>823.6</ele>
        <time>2023-08-21T07:23:11Z</time>
      </trkpt>
      <trkpt lat="45.70996" lon="6.58958">
        <ele>823.6</ele>
        <time>2023-08-21T07:23:12Z</time>
      </trkpt>
      <trkpt lat="45.70994" lon="6.58961">
        <ele>823.6</ele>
        <time>2023-08-21T07:23:13Z</time>
      </trkpt>
      <trkpt lat="45.70993" lon="6.58963">
        <ele>824.2</ele>
        <time>2023-08-21T07:23:14Z</time>
      </trkpt>
      <trkpt lat="45.70991" lon="6.58966">
        <ele>824.6</ele>
        <time>2023-08-21T07:23:15Z</time>
      </trkpt>
      <trkpt lat="45.7099" lon="6.58968">
        <ele>824.6</ele>
        <time>2023-08-21T07:23:16Z</time>
      </trkpt>
      <trkpt lat="45.70989" lon="6.58971">
        <ele>824.6</ele>
        <time>2023-08-21T07:23:17Z</time>
      </trkpt>
      <trkpt lat="45.70987" lon="6.58973">
        <ele>824.6</ele>
        <time>2023-08-21T07:23:18Z</time>
      </trkpt>
      <trkpt lat="45.70985" lon="6.58975">
        <ele>825.2</ele>
        <time>2023-08-21T07:23:19Z</time>
      </trkpt>
      <trkpt lat="45.70983" lon="6.58976">
        <ele>825.4</ele>
        <time>2023-08-21T07:23:20Z</time>
      </trkpt>
      <trkpt lat="45.70981" lon="6.58978">
        <ele>825.4</ele>
        <time>2023-08-21T07:23:21Z</time>
      </trkpt>
      <trkpt lat="45.7098" lon="6.58979">
        <ele>825.4</ele>
        <time>2023-08-21T07:23:22Z</time>
      </trkpt>
      <trkpt lat="45.70978" lon="6.58981">
        <ele>826</ele>
        <time>2023-08-21T07:23:23Z</time>
      </trkpt>
      <trkpt lat="45.70976" lon="6.58982">
        <ele>826.4</ele>
        <time>2023-08-21T07:23:24Z</time>
      </trkpt>
      <trkpt lat="45.70974" lon="6.58983">
        <ele>826.4</ele>
        <time>2023-08-21T07:23:25Z</time>
      </trkpt>
      <trkpt lat="45.70972" lon="6.58984">
        <ele>826.4</ele>
        <time>2023-08-21T07:23:26Z</time>
      </trkpt>
      <trkpt lat="45.70971" lon="6.58986">
        <ele>826.8</ele>
        <time>2023-08-21T07:23:27Z</time>
      </trkpt>
      <trkpt lat="45.70969" lon="6.58987">
        <ele>826.8</ele>
        <time>2023-08-21T07:23:28Z</time>
      </trkpt>
      <trkpt lat="45.70967" lon="6.58988">
        <ele>827.2</ele>
        <time>2023-08-21T07:23:29Z</time>
      </trkpt>
      <trkpt lat="45.70965" lon="6.5899">
        <ele>827.2</ele>
        <time>2023-08-21T07:23:30Z</time>
      </trkpt>
      <trkpt lat="45.70963" lon="6.58992">
        <ele>827.2</ele>
        <time>2023-08-21T07:23:31Z</time>
      </trkpt>
      <trkpt lat="45.70961" lon="6.58995">
        <ele>827.8</ele>
        <time>2023-08-21T07:23:32Z</time>
      </trkpt>
      <trkpt lat="45.70959" lon="6.58997">
        <ele>828</ele>
        <time>2023-08-21T07:23:33Z</time>
      </trkpt>
      <trkpt lat="45.70957" lon="6.58999">
        <ele>828</ele>
        <time>2023-08-21T07:23:34Z</time>
      </trkpt>
      <trkpt lat="45.70954" lon="6.59002">
        <ele>828</ele>
        <time>2023-08-21T07:23:35Z</time>
      </trkpt>
      <trkpt lat="45.70951" lon="6.59004">
        <ele>828.6</ele>
        <time>2023-08-21T07:23:36Z</time>
      </trkpt>
      <trkpt lat="45.7095" lon="6.59007">
        <ele>828.8</ele>
        <time>2023-08-21T07:23:37Z</time>
      </trkpt>
      <trkpt lat="45.70949" lon="6.5901">
        <ele>828.8</ele>
        <time>2023-08-21T07:23:38Z</time>
      </trkpt>
      <trkpt lat="45.70948" lon="6.59012">
        <ele>828.8</ele>
        <time>2023-08-21T07:23:39Z</time>
      </trkpt>
      <trkpt lat="45.70946" lon="6.59015">
        <ele>828.8</ele>
        <time>2023-08-21T07:23:40Z</time>
      </trkpt>
      <trkpt lat="45.70945" lon="6.59017">
        <ele>829.4</ele>
        <time>2023-08-21T07:23:41Z</time>
      </trkpt>
      <trkpt lat="45.70944" lon="6.59019">
        <ele>829.8</ele>
        <time>2023-08-21T07:23:42Z</time>
      </trkpt>
      <trkpt lat="45.70943" lon="6.59021">
        <ele>829.8</ele>
        <time>2023-08-21T07:23:43Z</time>
      </trkpt>
      <trkpt lat="45.70942" lon="6.59024">
        <ele>829.8</ele>
        <time>2023-08-21T07:23:44Z</time>
      </trkpt>
      <trkpt lat="45.7094" lon="6.59026">
        <ele>830.4</ele>
        <time>2023-08-21T07:23:45Z</time>
      </trkpt>
      <trkpt lat="45.70939" lon="6.59028">
        <ele>830.6</ele>
        <time>2023-08-21T07:23:46Z</time>
      </trkpt>
      <trkpt lat="45.70937" lon="6.5903">
        <ele>830.6</ele>
        <time>2023-08-21T07:23:47Z</time>
      </trkpt>
      <trkpt lat="45.70936" lon="6.59032">
        <ele>830.6</ele>
        <time>2023-08-21T07:23:48Z</time>
      </trkpt>
      <trkpt lat="45.70935" lon="6.59034">
        <ele>831</ele>
        <time>2023-08-21T07:23:49Z</time>
      </trkpt>
      <trkpt lat="45.70934" lon="6.59037">
        <ele>831</ele>
        <time>2023-08-21T07:23:50Z</time>
      </trkpt>
      <trkpt lat="45.70933" lon="6.59039">
        <ele>831.2</ele>
        <time>2023-08-21T07:23:51Z</time>
      </trkpt>
      <trkpt lat="45.70932" lon="6.59042">
        <ele>831.2</ele>
        <time>2023-08-21T07:23:52Z</time>
      </trkpt>
      <trkpt lat="45.70931" lon="6.59044">
        <ele>831.2</ele>
        <time>2023-08-21T07:23:53Z</time>
      </trkpt>
      <trkpt lat="45.7093" lon="6.59046">
        <ele>831.6</ele>
        <time>2023-08-21T07:23:54Z</time>
      </trkpt>
      <trkpt lat="45.70928" lon="6.59048">
        <ele>831.8</ele>
        <time>2023-08-21T07:23:55Z</time>
      </trkpt>
      <trkpt lat="45.70926" lon="6.59051">
        <ele>831.8</ele>
        <time>2023-08-21T07:23:56Z</time>
      </trkpt>
      <trkpt lat="45.70925" lon="6.59054">
        <ele>831.8</ele>
        <time>2023-08-21T07:23:57Z</time>
      </trkpt>
      <trkpt lat="45.70923" lon="6.59056">
        <ele>832.6</ele>
        <time>2023-08-21T07:23:58Z</time>
      </trkpt>
      <trkpt lat="45.70922" lon="6.59059">
        <ele>832.8</ele>
        <time>2023-08-21T07:23:59Z</time>
      </trkpt>
      <trkpt lat="45.7092" lon="6.59061">
        <ele>832.8</ele>
        <time>2023-08-21T07:24:00Z</time>
      </trkpt>
      <trkpt lat="45.70919" lon="6.59063">
        <ele>832.8</ele>
        <time>2023-08-21T07:24:01Z</time>
      </trkpt>
      <trkpt lat="45.70918" lon="6.59066">
        <ele>832.8</ele>
        <time>2023-08-21T07:24:02Z</time>
      </trkpt>
      <trkpt lat="45.70917" lon="6.59069">
        <ele>833.6</ele>
        <time>2023-08-21T07:24:03Z</time>
      </trkpt>
      <trkpt lat="45.70916" lon="6.59071">
        <ele>833.6</ele>
        <time>2023-08-21T07:24:04Z</time>
      </trkpt>
      <trkpt lat="45.70915" lon="6.59073">
        <ele>833.6</ele>
        <time>2023-08-21T07:24:05Z</time>
      </trkpt>
      <trkpt lat="45.70913" lon="6.59075">
        <ele>833.6</ele>
        <time>2023-08-21T07:24:06Z</time>
      </trkpt>
      <trkpt lat="45.70911" lon="6.59077">
        <ele>834.4</ele>
        <time>2023-08-21T07:24:07Z</time>
      </trkpt>
      <trkpt lat="45.7091" lon="6.5908">
        <ele>834.4</ele>
        <time>2023-08-21T07:24:08Z</time>
      </trkpt>
      <trkpt lat="45.70909" lon="6.59083">
        <ele>834.4</ele>
        <time>2023-08-21T07:24:09Z</time>
      </trkpt>
      <trkpt lat="45.70907" lon="6.59085">
        <ele>834.4</ele>
        <time>2023-08-21T07:24:10Z</time>
      </trkpt>
      <trkpt lat="45.70906" lon="6.59088">
        <ele>834.4</ele>
        <time>2023-08-21T07:24:11Z</time>
      </trkpt>
      <trkpt lat="45.70905" lon="6.59091">
        <ele>835.2</ele>
        <time>2023-08-21T07:24:12Z</time>
      </trkpt>
      <trkpt lat="45.70903" lon="6.59093">
        <ele>835.2</ele>
        <time>2023-08-21T07:24:13Z</time>
      </trkpt>
      <trkpt lat="45.70902" lon="6.59095">
        <ele>835.2</ele>
        <time>2023-08-21T07:24:14Z</time>
      </trkpt>
      <trkpt lat="45.70901" lon="6.59097">
        <ele>835.2</ele>
        <time>2023-08-21T07:24:15Z</time>
      </trkpt>
      <trkpt lat="45.70899" lon="6.591">
        <ele>835.8</ele>
        <time>2023-08-21T07:24:16Z</time>
      </trkpt>
      <trkpt lat="45.70897" lon="6.59103">
        <ele>836</ele>
        <time>2023-08-21T07:24:17Z</time>
      </trkpt>
      <trkpt lat="45.70896" lon="6.59105">
        <ele>836</ele>
        <time>2023-08-21T07:24:18Z</time>
      </trkpt>
      <trkpt lat="45.70894" lon="6.59107">
        <ele>836</ele>
        <time>2023-08-21T07:24:19Z</time>
      </trkpt>
      <trkpt lat="45.70892" lon="6.59109">
        <ele>836</ele>
        <time>2023-08-21T07:24:20Z</time>
      </trkpt>
      <trkpt lat="45.7089" lon="6.59111">
        <ele>836</ele>
        <time>2023-08-21T07:24:21Z</time>
      </trkpt>
      <trkpt lat="45.70888" lon="6.59113">
        <ele>836.6</ele>
        <time>2023-08-21T07:24:22Z</time>
      </trkpt>
      <trkpt lat="45.70886" lon="6.59116">
        <ele>836.6</ele>
        <time>2023-08-21T07:24:23Z</time>
      </trkpt>
      <trkpt lat="45.70885" lon="6.59119">
        <ele>836.6</ele>
        <time>2023-08-21T07:24:24Z</time>
      </trkpt>
      <trkpt lat="45.70883" lon="6.59121">
        <ele>837.2</ele>
        <time>2023-08-21T07:24:25Z</time>
      </trkpt>
      <trkpt lat="45.70882" lon="6.59124">
        <ele>837.4</ele>
        <time>2023-08-21T07:24:26Z</time>
      </trkpt>
      <trkpt lat="45.7088" lon="6.59127">
        <ele>837.4</ele>
        <time>2023-08-21T07:24:27Z</time>
      </trkpt>
      <trkpt lat="45.70879" lon="6.59129">
        <ele>837.4</ele>
        <time>2023-08-21T07:24:28Z</time>
      </trkpt>
      <trkpt lat="45.70877" lon="6.59131">
        <ele>837.8</ele>
        <time>2023-08-21T07:24:29Z</time>
      </trkpt>
      <trkpt lat="45.70876" lon="6.59134">
        <ele>838.2</ele>
        <time>2023-08-21T07:24:30Z</time>
      </trkpt>
      <trkpt lat="45.70874" lon="6.59136">
        <ele>838.2</ele>
        <time>2023-08-21T07:24:31Z</time>
      </trkpt>
      <trkpt lat="45.70873" lon="6.59138">
        <ele>838.2</ele>
        <time>2023-08-21T07:24:32Z</time>
      </trkpt>
      <trkpt lat="45.70871" lon="6.5914">
        <ele>838.2</ele>
        <time>2023-08-21T07:24:33Z</time>
      </trkpt>
      <trkpt lat="45.70869" lon="6.59143">
        <ele>838.8</ele>
        <time>2023-08-21T07:24:34Z</time>
      </trkpt>
      <trkpt lat="45.70868" lon="6.59145">
        <ele>839</ele>
        <time>2023-08-21T07:24:35Z</time>
      </trkpt>
      <trkpt lat="45.70866" lon="6.59147">
        <ele>839</ele>
        <time>2023-08-21T07:24:36Z</time>
      </trkpt>
      <trkpt lat="45.70864" lon="6.59149">
        <ele>839</ele>
        <time>2023-08-21T07:24:37Z</time>
      </trkpt>
      <trkpt lat="45.70863" lon="6.59152">
        <ele>839.8</ele>
        <time>2023-08-21T07:24:38Z</time>
      </trkpt>
      <trkpt lat="45.70861" lon="6.59154">
        <ele>840</ele>
        <time>2023-08-21T07:24:39Z</time>
      </trkpt>
      <trkpt lat="45.7086" lon="6.59156">
        <ele>840</ele>
        <time>2023-08-21T07:24:40Z</time>
      </trkpt>
      <trkpt lat="45.70858" lon="6.59158">
        <ele>840</ele>
        <time>2023-08-21T07:24:41Z</time>
      </trkpt>
      <trkpt lat="45.70856" lon="6.59158">
        <ele>840</ele>
        <time>2023-08-21T07:24:42Z</time>
      </trkpt>
      <trkpt lat="45.70854" lon="6.59159">
        <ele>840</ele>
        <time>2023-08-21T07:24:43Z</time>
      </trkpt>
      <trkpt lat="45.70852" lon="6.59159">
        <ele>840.8</ele>
        <time>2023-08-21T07:24:44Z</time>
      </trkpt>
      <trkpt lat="45.7085" lon="6.59159">
        <ele>841</ele>
        <time>2023-08-21T07:24:45Z</time>
      </trkpt>
      <trkpt lat="45.70848" lon="6.59159">
        <ele>841</ele>
        <time>2023-08-21T07:24:46Z</time>
      </trkpt>
      <trkpt lat="45.70845" lon="6.59159">
        <ele>841</ele>
        <time>2023-08-21T07:24:47Z</time>
      </trkpt>
      <trkpt lat="45.70843" lon="6.59159">
        <ele>842</ele>
        <time>2023-08-21T07:24:48Z</time>
      </trkpt>
      <trkpt lat="45.70841" lon="6.59159">
        <ele>841.8</ele>
        <time>2023-08-21T07:24:49Z</time>
      </trkpt>
      <trkpt lat="45.70838" lon="6.59159">
        <ele>841.8</ele>
        <time>2023-08-21T07:24:50Z</time>
      </trkpt>
      <trkpt lat="45.70836" lon="6.5916">
        <ele>841.8</ele>
        <time>2023-08-21T07:24:51Z</time>
      </trkpt>
      <trkpt lat="45.70833" lon="6.5916">
        <ele>842.8</ele>
        <time>2023-08-21T07:24:52Z</time>
      </trkpt>
      <trkpt lat="45.70831" lon="6.59161">
        <ele>843</ele>
        <time>2023-08-21T07:24:53Z</time>
      </trkpt>
      <trkpt lat="45.70829" lon="6.59161">
        <ele>843</ele>
        <time>2023-08-21T07:24:54Z</time>
      </trkpt>
      <trkpt lat="45.70827" lon="6.59161">
        <ele>843</ele>
        <time>2023-08-21T07:24:55Z</time>
      </trkpt>
      <trkpt lat="45.70825" lon="6.59161">
        <ele>843</ele>
        <time>2023-08-21T07:24:56Z</time>
      </trkpt>
      <trkpt lat="45.70822" lon="6.59162">
        <ele>844</ele>
        <time>2023-08-21T07:24:57Z</time>
      </trkpt>
      <trkpt lat="45.7082" lon="6.59164">
        <ele>844.2</ele>
        <time>2023-08-21T07:24:58Z</time>
      </trkpt>
      <trkpt lat="45.70818" lon="6.59165">
        <ele>844.2</ele>
        <time>2023-08-21T07:24:59Z</time>
      </trkpt>
      <trkpt lat="45.70815" lon="6.59167">
        <ele>844.2</ele>
        <time>2023-08-21T07:25:00Z</time>
      </trkpt>
      <trkpt lat="45.70811" lon="6.59169">
        <ele>844.4</ele>
        <time>2023-08-21T07:25:01Z</time>
      </trkpt>
      <trkpt lat="45.70808" lon="6.59171">
        <ele>844.2</ele>
        <time>2023-08-21T07:25:02Z</time>
      </trkpt>
      <trkpt lat="45.70804" lon="6.59174">
        <ele>844.2</ele>
        <time>2023-08-21T07:25:03Z</time>
      </trkpt>
      <trkpt lat="45.708" lon="6.59177">
        <ele>844.2</ele>
        <time>2023-08-21T07:25:04Z</time>
      </trkpt>
      <trkpt lat="45.70797" lon="6.5918">
        <ele>844.2</ele>
        <time>2023-08-21T07:25:05Z</time>
      </trkpt>
      <trkpt lat="45.70794" lon="6.59183">
        <ele>844.6</ele>
        <time>2023-08-21T07:25:06Z</time>
      </trkpt>
      <trkpt lat="45.70792" lon="6.59186">
        <ele>844.8</ele>
        <time>2023-08-21T07:25:07Z</time>
      </trkpt>
      <trkpt lat="45.7079" lon="6.59188">
        <ele>844.8</ele>
        <time>2023-08-21T07:25:08Z</time>
      </trkpt>
      <trkpt lat="45.70788" lon="6.59191">
        <ele>844.8</ele>
        <time>2023-08-21T07:25:09Z</time>
      </trkpt>
      <trkpt lat="45.70786" lon="6.59193">
        <ele>845.8</ele>
        <time>2023-08-21T07:25:10Z</time>
      </trkpt>
      <trkpt lat="45.70785" lon="6.59195">
        <ele>845.6</ele>
        <time>2023-08-21T07:25:11Z</time>
      </trkpt>
      <trkpt lat="45.70784" lon="6.59197">
        <ele>845.6</ele>
        <time>2023-08-21T07:25:12Z</time>
      </trkpt>
      <trkpt lat="45.70782" lon="6.59199">
        <ele>845.6</ele>
        <time>2023-08-21T07:25:13Z</time>
      </trkpt>
      <trkpt lat="45.70781" lon="6.59202">
        <ele>845.6</ele>
        <time>2023-08-21T07:25:14Z</time>
      </trkpt>
      <trkpt lat="45.7078" lon="6.59204">
        <ele>846.6</ele>
        <time>2023-08-21T07:25:15Z</time>
      </trkpt>
      <trkpt lat="45.70778" lon="6.59207">
        <ele>846.6</ele>
        <time>2023-08-21T07:25:16Z</time>
      </trkpt>
      <trkpt lat="45.70777" lon="6.5921">
        <ele>846.6</ele>
        <time>2023-08-21T07:25:17Z</time>
      </trkpt>
      <trkpt lat="45.70776" lon="6.59213">
        <ele>846.6</ele>
        <time>2023-08-21T07:25:18Z</time>
      </trkpt>
      <trkpt lat="45.70775" lon="6.59216">
        <ele>847.2</ele>
        <time>2023-08-21T07:25:19Z</time>
      </trkpt>
      <trkpt lat="45.70775" lon="6.59219">
        <ele>847.6</ele>
        <time>2023-08-21T07:25:20Z</time>
      </trkpt>
      <trkpt lat="45.70774" lon="6.59222">
        <ele>847.6</ele>
        <time>2023-08-21T07:25:21Z</time>
      </trkpt>
      <trkpt lat="45.70774" lon="6.59225">
        <ele>847.6</ele>
        <time>2023-08-21T07:25:22Z</time>
      </trkpt>
      <trkpt lat="45.70773" lon="6.59228">
        <ele>847.6</ele>
        <time>2023-08-21T07:25:23Z</time>
      </trkpt>
      <trkpt lat="45.70772" lon="6.59231">
        <ele>848.6</ele>
        <time>2023-08-21T07:25:24Z</time>
      </trkpt>
      <trkpt lat="45.70772" lon="6.59234">
        <ele>848.6</ele>
        <time>2023-08-21T07:25:25Z</time>
      </trkpt>
      <trkpt lat="45.70771" lon="6.59238">
        <ele>848.6</ele>
        <time>2023-08-21T07:25:26Z</time>
      </trkpt>
      <trkpt lat="45.70771" lon="6.59241">
        <ele>848.6</ele>
        <time>2023-08-21T07:25:27Z</time>
      </trkpt>
      <trkpt lat="45.70771" lon="6.59244">
        <ele>848.6</ele>
        <time>2023-08-21T07:25:28Z</time>
      </trkpt>
      <trkpt lat="45.7077" lon="6.59247">
        <ele>849.2</ele>
        <time>2023-08-21T07:25:29Z</time>
      </trkpt>
      <trkpt lat="45.70769" lon="6.5925">
        <ele>849.4</ele>
        <time>2023-08-21T07:25:30Z</time>
      </trkpt>
      <trkpt lat="45.70769" lon="6.59253">
        <ele>849.4</ele>
        <time>2023-08-21T07:25:31Z</time>
      </trkpt>
      <trkpt lat="45.70769" lon="6.59256">
        <ele>849.4</ele>
        <time>2023-08-21T07:25:32Z</time>
      </trkpt>
      <trkpt lat="45.70768" lon="6.59259">
        <ele>850.2</ele>
        <time>2023-08-21T07:25:33Z</time>
      </trkpt>
      <trkpt lat="45.70768" lon="6.59262">
        <ele>850.6</ele>
        <time>2023-08-21T07:25:34Z</time>
      </trkpt>
      <trkpt lat="45.70767" lon="6.59265">
        <ele>850.6</ele>
        <time>2023-08-21T07:25:35Z</time>
      </trkpt>
      <trkpt lat="45.70766" lon="6.59268">
        <ele>850.6</ele>
        <time>2023-08-21T07:25:36Z</time>
      </trkpt>
      <trkpt lat="45.70766" lon="6.5927">
        <ele>851.2</ele>
        <time>2023-08-21T07:25:37Z</time>
      </trkpt>
      <trkpt lat="45.70765" lon="6.59273">
        <ele>851.4</ele>
        <time>2023-08-21T07:25:38Z</time>
      </trkpt>
      <trkpt lat="45.70764" lon="6.59276">
        <ele>851.4</ele>
        <time>2023-08-21T07:25:39Z</time>
      </trkpt>
      <trkpt lat="45.70763" lon="6.59279">
        <ele>851.4</ele>
        <time>2023-08-21T07:25:40Z</time>
      </trkpt>
      <trkpt lat="45.70762" lon="6.59282">
        <ele>851.4</ele>
        <time>2023-08-21T07:25:41Z</time>
      </trkpt>
      <trkpt lat="45.70761" lon="6.59285">
        <ele>852.2</ele>
        <time>2023-08-21T07:25:42Z</time>
      </trkpt>
      <trkpt lat="45.7076" lon="6.59289">
        <ele>852</ele>
        <time>2023-08-21T07:25:43Z</time>
      </trkpt>
      <trkpt lat="45.70759" lon="6.59291">
        <ele>852</ele>
        <time>2023-08-21T07:25:44Z</time>
      </trkpt>
      <trkpt lat="45.70758" lon="6.59294">
        <ele>852</ele>
        <time>2023-08-21T07:25:45Z</time>
      </trkpt>
      <trkpt lat="45.70756" lon="6.59297">
        <ele>852.8</ele>
        <time>2023-08-21T07:25:46Z</time>
      </trkpt>
      <trkpt lat="45.70755" lon="6.593">
        <ele>852.4</ele>
        <time>2023-08-21T07:25:47Z</time>
      </trkpt>
      <trkpt lat="45.70753" lon="6.59303">
        <ele>852.4</ele>
        <time>2023-08-21T07:25:48Z</time>
      </trkpt>
      <trkpt lat="45.70752" lon="6.59305">
        <ele>852.4</ele>
        <time>2023-08-21T07:25:49Z</time>
      </trkpt>
      <trkpt lat="45.7075" lon="6.59308">
        <ele>852.4</ele>
        <time>2023-08-21T07:25:50Z</time>
      </trkpt>
      <trkpt lat="45.70749" lon="6.59311">
        <ele>853.2</ele>
        <time>2023-08-21T07:25:51Z</time>
      </trkpt>
      <trkpt lat="45.70747" lon="6.59313">
        <ele>853.4</ele>
        <time>2023-08-21T07:25:52Z</time>
      </trkpt>
      <trkpt lat="45.70746" lon="6.59316">
        <ele>853.4</ele>
        <time>2023-08-21T07:25:53Z</time>
      </trkpt>
      <trkpt lat="45.70744" lon="6.59319">
        <ele>853.4</ele>
        <time>2023-08-21T07:25:54Z</time>
      </trkpt>
      <trkpt lat="45.70743" lon="6.59322">
        <ele>854</ele>
        <time>2023-08-21T07:25:55Z</time>
      </trkpt>
      <trkpt lat="45.70741" lon="6.59325">
        <ele>853.8</ele>
        <time>2023-08-21T07:25:56Z</time>
      </trkpt>
      <trkpt lat="45.70739" lon="6.59329">
        <ele>853.8</ele>
        <time>2023-08-21T07:25:57Z</time>
      </trkpt>
      <trkpt lat="45.70738" lon="6.59332">
        <ele>853.8</ele>
        <time>2023-08-21T07:25:58Z</time>
      </trkpt>
      <trkpt lat="45.70736" lon="6.59335">
        <ele>854.4</ele>
        <time>2023-08-21T07:25:59Z</time>
      </trkpt>
      <trkpt lat="45.70734" lon="6.59338">
        <ele>854.4</ele>
        <time>2023-08-21T07:26:00Z</time>
      </trkpt>
      <trkpt lat="45.70732" lon="6.59341">
        <ele>854.4</ele>
        <time>2023-08-21T07:26:01Z</time>
      </trkpt>
      <trkpt lat="45.70731" lon="6.59344">
        <ele>854.4</ele>
        <time>2023-08-21T07:26:02Z</time>
      </trkpt>
      <trkpt lat="45.7073" lon="6.59347">
        <ele>854.4</ele>
        <time>2023-08-21T07:26:03Z</time>
      </trkpt>
      <trkpt lat="45.70728" lon="6.5935">
        <ele>855.2</ele>
        <time>2023-08-21T07:26:04Z</time>
      </trkpt>
      <trkpt lat="45.70727" lon="6.59353">
        <ele>855.2</ele>
        <time>2023-08-21T07:26:05Z</time>
      </trkpt>
      <trkpt lat="45.70726" lon="6.59356">
        <ele>855.4</ele>
        <time>2023-08-21T07:26:06Z</time>
      </trkpt>
      <trkpt lat="45.70724" lon="6.59359">
        <ele>855.4</ele>
        <time>2023-08-21T07:26:07Z</time>
      </trkpt>
      <trkpt lat="45.70723" lon="6.59362">
        <ele>855.4</ele>
        <time>2023-08-21T07:26:08Z</time>
      </trkpt>
      <trkpt lat="45.70722" lon="6.59365">
        <ele>856.2</ele>
        <time>2023-08-21T07:26:09Z</time>
      </trkpt>
      <trkpt lat="45.7072" lon="6.59368">
        <ele>856.2</ele>
        <time>2023-08-21T07:26:10Z</time>
      </trkpt>
      <trkpt lat="45.70719" lon="6.59372">
        <ele>856.2</ele>
        <time>2023-08-21T07:26:11Z</time>
      </trkpt>
      <trkpt lat="45.70718" lon="6.59375">
        <ele>856.2</ele>
        <time>2023-08-21T07:26:12Z</time>
      </trkpt>
      <trkpt lat="45.70717" lon="6.59378">
        <ele>856.2</ele>
        <time>2023-08-21T07:26:13Z</time>
      </trkpt>
      <trkpt lat="45.70715" lon="6.59381">
        <ele>857</ele>
        <time>2023-08-21T07:26:14Z</time>
      </trkpt>
      <trkpt lat="45.70714" lon="6.59383">
        <ele>857.4</ele>
        <time>2023-08-21T07:26:15Z</time>
      </trkpt>
      <trkpt lat="45.70713" lon="6.59387">
        <ele>857.4</ele>
        <time>2023-08-21T07:26:16Z</time>
      </trkpt>
      <trkpt lat="45.70713" lon="6.59391">
        <ele>857.4</ele>
        <time>2023-08-21T07:26:17Z</time>
      </trkpt>
      <trkpt lat="45.70713" lon="6.59394">
        <ele>857.8</ele>
        <time>2023-08-21T07:26:18Z</time>
      </trkpt>
      <trkpt lat="45.70712" lon="6.59398">
        <ele>858.4</ele>
        <time>2023-08-21T07:26:19Z</time>
      </trkpt>
      <trkpt lat="45.70712" lon="6.59402">
        <ele>858.4</ele>
        <time>2023-08-21T07:26:20Z</time>
      </trkpt>
      <trkpt lat="45.70713" lon="6.59407">
        <ele>858.4</ele>
        <time>2023-08-21T07:26:21Z</time>
      </trkpt>
      <trkpt lat="45.70713" lon="6.5941">
        <ele>858.6</ele>
        <time>2023-08-21T07:26:22Z</time>
      </trkpt>
      <trkpt lat="45.70713" lon="6.59414">
        <ele>858.8</ele>
        <time>2023-08-21T07:26:23Z</time>
      </trkpt>
      <trkpt lat="45.70713" lon="6.59418">
        <ele>858.8</ele>
        <time>2023-08-21T07:26:24Z</time>
      </trkpt>
      <trkpt lat="45.70713" lon="6.59422">
        <ele>858.8</ele>
        <time>2023-08-21T07:26:25Z</time>
      </trkpt>
      <trkpt lat="45.70714" lon="6.59426">
        <ele>858.8</ele>
        <time>2023-08-21T07:26:26Z</time>
      </trkpt>
      <trkpt lat="45.70715" lon="6.5943">
        <ele>859.6</ele>
        <time>2023-08-21T07:26:27Z</time>
      </trkpt>
      <trkpt lat="45.70715" lon="6.59434">
        <ele>859.8</ele>
        <time>2023-08-21T07:26:28Z</time>
      </trkpt>
      <trkpt lat="45.70715" lon="6.59438">
        <ele>859.8</ele>
        <time>2023-08-21T07:26:29Z</time>
      </trkpt>
      <trkpt lat="45.70716" lon="6.59441">
        <ele>859.8</ele>
        <time>2023-08-21T07:26:30Z</time>
      </trkpt>
      <trkpt lat="45.70716" lon="6.59445">
        <ele>859.8</ele>
        <time>2023-08-21T07:26:31Z</time>
      </trkpt>
      <trkpt lat="45.70716" lon="6.59448">
        <ele>860.6</ele>
        <time>2023-08-21T07:26:32Z</time>
      </trkpt>
      <trkpt lat="45.70716" lon="6.59452">
        <ele>860.6</ele>
        <time>2023-08-21T07:26:33Z</time>
      </trkpt>
      <trkpt lat="45.70717" lon="6.59456">
        <ele>860.6</ele>
        <time>2023-08-21T07:26:34Z</time>
      </trkpt>
      <trkpt lat="45.70717" lon="6.59459">
        <ele>860.6</ele>
        <time>2023-08-21T07:26:35Z</time>
      </trkpt>
      <trkpt lat="45.70716" lon="6.59463">
        <ele>861.2</ele>
        <time>2023-08-21T07:26:36Z</time>
      </trkpt>
      <trkpt lat="45.70716" lon="6.59466">
        <ele>861.6</ele>
        <time>2023-08-21T07:26:37Z</time>
      </trkpt>
      <trkpt lat="45.70716" lon="6.5947">
        <ele>861.6</ele>
        <time>2023-08-21T07:26:38Z</time>
      </trkpt>
      <trkpt lat="45.70716" lon="6.59474">
        <ele>861.6</ele>
        <time>2023-08-21T07:26:39Z</time>
      </trkpt>
      <trkpt lat="45.70715" lon="6.59478">
        <ele>861.6</ele>
        <time>2023-08-21T07:26:40Z</time>
      </trkpt>
      <trkpt lat="45.70715" lon="6.59481">
        <ele>862.2</ele>
        <time>2023-08-21T07:26:41Z</time>
      </trkpt>
      <trkpt lat="45.70715" lon="6.59485">
        <ele>862.2</ele>
        <time>2023-08-21T07:26:42Z</time>
      </trkpt>
      <trkpt lat="45.70714" lon="6.59488">
        <ele>862.2</ele>
        <time>2023-08-21T07:26:43Z</time>
      </trkpt>
      <trkpt lat="45.70714" lon="6.59492">
        <ele>862.2</ele>
        <time>2023-08-21T07:26:44Z</time>
      </trkpt>
      <trkpt lat="45.70713" lon="6.59495">
        <ele>863</ele>
        <time>2023-08-21T07:26:45Z</time>
      </trkpt>
      <trkpt lat="45.70713" lon="6.59498">
        <ele>863</ele>
        <time>2023-08-21T07:26:46Z</time>
      </trkpt>
      <trkpt lat="45.70712" lon="6.59502">
        <ele>863</ele>
        <time>2023-08-21T07:26:47Z</time>
      </trkpt>
      <trkpt lat="45.70712" lon="6.59506">
        <ele>863</ele>
        <time>2023-08-21T07:26:48Z</time>
      </trkpt>
      <trkpt lat="45.70711" lon="6.59509">
        <ele>863</ele>
        <time>2023-08-21T07:26:49Z</time>
      </trkpt>
      <trkpt lat="45.7071" lon="6.59513">
        <ele>863.4</ele>
        <time>2023-08-21T07:26:50Z</time>
      </trkpt>
      <trkpt lat="45.7071" lon="6.59517">
        <ele>863.8</ele>
        <time>2023-08-21T07:26:51Z</time>
      </trkpt>
      <trkpt lat="45.7071" lon="6.5952">
        <ele>863.8</ele>
        <time>2023-08-21T07:26:52Z</time>
      </trkpt>
      <trkpt lat="45.70709" lon="6.59523">
        <ele>863.8</ele>
        <time>2023-08-21T07:26:53Z</time>
      </trkpt>
      <trkpt lat="45.70709" lon="6.59527">
        <ele>863.8</ele>
        <time>2023-08-21T07:26:54Z</time>
      </trkpt>
      <trkpt lat="45.70709" lon="6.5953">
        <ele>864.6</ele>
        <time>2023-08-21T07:26:55Z</time>
      </trkpt>
      <trkpt lat="45.70709" lon="6.59534">
        <ele>864.6</ele>
        <time>2023-08-21T07:26:56Z</time>
      </trkpt>
      <trkpt lat="45.70709" lon="6.59537">
        <ele>864.6</ele>
        <time>2023-08-21T07:26:57Z</time>
      </trkpt>
      <trkpt lat="45.70709" lon="6.59541">
        <ele>865.4</ele>
        <time>2023-08-21T07:26:58Z</time>
      </trkpt>
      <trkpt lat="45.70709" lon="6.59544">
        <ele>865.4</ele>
        <time>2023-08-21T07:26:59Z</time>
      </trkpt>
      <trkpt lat="45.70709" lon="6.59548">
        <ele>865.4</ele>
        <time>2023-08-21T07:27:00Z</time>
      </trkpt>
      <trkpt lat="45.7071" lon="6.59552">
        <ele>865.4</ele>
        <time>2023-08-21T07:27:01Z</time>
      </trkpt>
      <trkpt lat="45.7071" lon="6.59555">
        <ele>865.4</ele>
        <time>2023-08-21T07:27:02Z</time>
      </trkpt>
      <trkpt lat="45.7071" lon="6.59559">
        <ele>866</ele>
        <time>2023-08-21T07:27:03Z</time>
      </trkpt>
      <trkpt lat="45.70709" lon="6.59562">
        <ele>866.2</ele>
        <time>2023-08-21T07:27:04Z</time>
      </trkpt>
      <trkpt lat="45.7071" lon="6.59566">
        <ele>866.2</ele>
        <time>2023-08-21T07:27:05Z</time>
      </trkpt>
      <trkpt lat="45.7071" lon="6.5957">
        <ele>866.2</ele>
        <time>2023-08-21T07:27:06Z</time>
      </trkpt>
      <trkpt lat="45.7071" lon="6.59573">
        <ele>866.8</ele>
        <time>2023-08-21T07:27:07Z</time>
      </trkpt>
      <trkpt lat="45.7071" lon="6.59577">
        <ele>867</ele>
        <time>2023-08-21T07:27:08Z</time>
      </trkpt>
      <trkpt lat="45.70711" lon="6.5958">
        <ele>867</ele>
        <time>2023-08-21T07:27:09Z</time>
      </trkpt>
      <trkpt lat="45.70711" lon="6.59584">
        <ele>867</ele>
        <time>2023-08-21T07:27:10Z</time>
      </trkpt>
      <trkpt lat="45.70712" lon="6.59587">
        <ele>867.6</ele>
        <time>2023-08-21T07:27:11Z</time>
      </trkpt>
      <trkpt lat="45.70712" lon="6.59591">
        <ele>867.4</ele>
        <time>2023-08-21T07:27:12Z</time>
      </trkpt>
      <trkpt lat="45.70713" lon="6.59595">
        <ele>867.4</ele>
        <time>2023-08-21T07:27:13Z</time>
      </trkpt>
      <trkpt lat="45.70714" lon="6.59598">
        <ele>867.4</ele>
        <time>2023-08-21T07:27:14Z</time>
      </trkpt>
      <trkpt lat="45.70714" lon="6.59602">
        <ele>867.4</ele>
        <time>2023-08-21T07:27:15Z</time>
      </trkpt>
      <trkpt lat="45.70713" lon="6.59605">
        <ele>868.2</ele>
        <time>2023-08-21T07:27:16Z</time>
      </trkpt>
      <trkpt lat="45.70713" lon="6.59609">
        <ele>868.4</ele>
        <time>2023-08-21T07:27:17Z</time>
      </trkpt>
      <trkpt lat="45.70713" lon="6.59613">
        <ele>868.4</ele>
        <time>2023-08-21T07:27:18Z</time>
      </trkpt>
      <trkpt lat="45.70713" lon="6.59617">
        <ele>868.4</ele>
        <time>2023-08-21T07:27:19Z</time>
      </trkpt>
      <trkpt lat="45.70714" lon="6.5962">
        <ele>868.4</ele>
        <time>2023-08-21T07:27:20Z</time>
      </trkpt>
      <trkpt lat="45.70715" lon="6.59624">
        <ele>869</ele>
        <time>2023-08-21T07:27:21Z</time>
      </trkpt>
      <trkpt lat="45.70714" lon="6.59627">
        <ele>869</ele>
        <time>2023-08-21T07:27:22Z</time>
      </trkpt>
      <trkpt lat="45.70713" lon="6.59631">
        <ele>869</ele>
        <time>2023-08-21T07:27:23Z</time>
      </trkpt>
      <trkpt lat="45.70712" lon="6.59635">
        <ele>869.6</ele>
        <time>2023-08-21T07:27:24Z</time>
      </trkpt>
      <trkpt lat="45.70711" lon="6.59639">
        <ele>869.8</ele>
        <time>2023-08-21T07:27:25Z</time>
      </trkpt>
      <trkpt lat="45.7071" lon="6.59642">
        <ele>869.8</ele>
        <time>2023-08-21T07:27:26Z</time>
      </trkpt>
      <trkpt lat="45.7071" lon="6.59646">
        <ele>869.8</ele>
        <time>2023-08-21T07:27:27Z</time>
      </trkpt>
      <trkpt lat="45.7071" lon="6.59649">
        <ele>869.8</ele>
        <time>2023-08-21T07:27:28Z</time>
      </trkpt>
      <trkpt lat="45.7071" lon="6.59653">
        <ele>870</ele>
        <time>2023-08-21T07:27:29Z</time>
      </trkpt>
      <trkpt lat="45.7071" lon="6.59656">
        <ele>870</ele>
        <time>2023-08-21T07:27:30Z</time>
      </trkpt>
      <trkpt lat="45.70711" lon="6.5966">
        <ele>870.4</ele>
        <time>2023-08-21T07:27:31Z</time>
      </trkpt>
      <trkpt lat="45.70711" lon="6.59663">
        <ele>870.4</ele>
        <time>2023-08-21T07:27:32Z</time>
      </trkpt>
      <trkpt lat="45.70712" lon="6.59667">
        <ele>870.4</ele>
        <time>2023-08-21T07:27:33Z</time>
      </trkpt>
      <trkpt lat="45.70713" lon="6.5967">
        <ele>870.8</ele>
        <time>2023-08-21T07:27:34Z</time>
      </trkpt>
      <trkpt lat="45.70713" lon="6.59674">
        <ele>871.4</ele>
        <time>2023-08-21T07:27:35Z</time>
      </trkpt>
      <trkpt lat="45.70713" lon="6.59678">
        <ele>871.4</ele>
        <time>2023-08-21T07:27:36Z</time>
      </trkpt>
      <trkpt lat="45.70713" lon="6.59682">
        <ele>871.4</ele>
        <time>2023-08-21T07:27:37Z</time>
      </trkpt>
      <trkpt lat="45.70711" lon="6.59686">
        <ele>871.4</ele>
        <time>2023-08-21T07:27:38Z</time>
      </trkpt>
      <trkpt lat="45.70709" lon="6.5969">
        <ele>871.4</ele>
        <time>2023-08-21T07:27:39Z</time>
      </trkpt>
      <trkpt lat="45.7071" lon="6.59694">
        <ele>872</ele>
        <time>2023-08-21T07:27:40Z</time>
      </trkpt>
      <trkpt lat="45.70709" lon="6.59698">
        <ele>872</ele>
        <time>2023-08-21T07:27:41Z</time>
      </trkpt>
      <trkpt lat="45.70709" lon="6.59701">
        <ele>872</ele>
        <time>2023-08-21T07:27:42Z</time>
      </trkpt>
      <trkpt lat="45.70708" lon="6.59705">
        <ele>872.2</ele>
        <time>2023-08-21T07:27:43Z</time>
      </trkpt>
      <trkpt lat="45.70708" lon="6.59709">
        <ele>872.6</ele>
        <time>2023-08-21T07:27:44Z</time>
      </trkpt>
      <trkpt lat="45.70708" lon="6.59712">
        <ele>872.6</ele>
        <time>2023-08-21T07:27:45Z</time>
      </trkpt>
      <trkpt lat="45.70707" lon="6.59716">
        <ele>872.6</ele>
        <time>2023-08-21T07:27:46Z</time>
      </trkpt>
      <trkpt lat="45.70707" lon="6.59719">
        <ele>873.2</ele>
        <time>2023-08-21T07:27:47Z</time>
      </trkpt>
      <trkpt lat="45.70707" lon="6.59723">
        <ele>873.4</ele>
        <time>2023-08-21T07:27:48Z</time>
      </trkpt>
      <trkpt lat="45.70706" lon="6.59727">
        <ele>873.4</ele>
        <time>2023-08-21T07:27:49Z</time>
      </trkpt>
      <trkpt lat="45.70706" lon="6.59731">
        <ele>873.4</ele>
        <time>2023-08-21T07:27:50Z</time>
      </trkpt>
      <trkpt lat="45.70706" lon="6.59734">
        <ele>874.2</ele>
        <time>2023-08-21T07:27:51Z</time>
      </trkpt>
      <trkpt lat="45.70705" lon="6.59738">
        <ele>874.2</ele>
        <time>2023-08-21T07:27:52Z</time>
      </trkpt>
      <trkpt lat="45.70705" lon="6.59742">
        <ele>874.2</ele>
        <time>2023-08-21T07:27:53Z</time>
      </trkpt>
      <trkpt lat="45.70705" lon="6.59745">
        <ele>874.2</ele>
        <time>2023-08-21T07:27:54Z</time>
      </trkpt>
      <trkpt lat="45.70705" lon="6.59749">
        <ele>874.2</ele>
        <time>2023-08-21T07:27:55Z</time>
      </trkpt>
      <trkpt lat="45.70705" lon="6.59752">
        <ele>875</ele>
        <time>2023-08-21T07:27:56Z</time>
      </trkpt>
      <trkpt lat="45.70705" lon="6.59756">
        <ele>875</ele>
        <time>2023-08-21T07:27:57Z</time>
      </trkpt>
      <trkpt lat="45.70705" lon="6.59759">
        <ele>875</ele>
        <time>2023-08-21T07:27:58Z</time>
      </trkpt>
      <trkpt lat="45.70705" lon="6.59762">
        <ele>875</ele>
        <time>2023-08-21T07:27:59Z</time>
      </trkpt>
      <trkpt lat="45.70705" lon="6.59766">
        <ele>875.6</ele>
        <time>2023-08-21T07:28:00Z</time>
      </trkpt>
      <trkpt lat="45.70705" lon="6.59769">
        <ele>876</ele>
        <time>2023-08-21T07:28:01Z</time>
      </trkpt>
      <trkpt lat="45.70705" lon="6.59773">
        <ele>876</ele>
        <time>2023-08-21T07:28:02Z</time>
      </trkpt>
      <trkpt lat="45.70705" lon="6.59776">
        <ele>876</ele>
        <time>2023-08-21T07:28:03Z</time>
      </trkpt>
      <trkpt lat="45.70705" lon="6.59779">
        <ele>876</ele>
        <time>2023-08-21T07:28:04Z</time>
      </trkpt>
      <trkpt lat="45.70705" lon="6.59782">
        <ele>876.4</ele>
        <time>2023-08-21T07:28:05Z</time>
      </trkpt>
      <trkpt lat="45.70704" lon="6.59786">
        <ele>877</ele>
        <time>2023-08-21T07:28:06Z</time>
      </trkpt>
      <trkpt lat="45.70704" lon="6.59789">
        <ele>877</ele>
        <time>2023-08-21T07:28:07Z</time>
      </trkpt>
      <trkpt lat="45.70703" lon="6.59792">
        <ele>877</ele>
        <time>2023-08-21T07:28:08Z</time>
      </trkpt>
      <trkpt lat="45.70702" lon="6.59796">
        <ele>877.4</ele>
        <time>2023-08-21T07:28:09Z</time>
      </trkpt>
      <trkpt lat="45.70701" lon="6.59799">
        <ele>877.8</ele>
        <time>2023-08-21T07:28:10Z</time>
      </trkpt>
      <trkpt lat="45.707" lon="6.59802">
        <ele>877.8</ele>
        <time>2023-08-21T07:28:11Z</time>
      </trkpt>
      <trkpt lat="45.707" lon="6.59805">
        <ele>877.8</ele>
        <time>2023-08-21T07:28:12Z</time>
      </trkpt>
      <trkpt lat="45.70699" lon="6.59808">
        <ele>877.8</ele>
        <time>2023-08-21T07:28:13Z</time>
      </trkpt>
      <trkpt lat="45.70699" lon="6.59811">
        <ele>878.4</ele>
        <time>2023-08-21T07:28:14Z</time>
      </trkpt>
      <trkpt lat="45.70699" lon="6.59814">
        <ele>878.4</ele>
        <time>2023-08-21T07:28:15Z</time>
      </trkpt>
      <trkpt lat="45.70699" lon="6.59817">
        <ele>878.6</ele>
        <time>2023-08-21T07:28:16Z</time>
      </trkpt>
      <trkpt lat="45.70699" lon="6.5982">
        <ele>878.6</ele>
        <time>2023-08-21T07:28:17Z</time>
      </trkpt>
      <trkpt lat="45.70698" lon="6.59823">
        <ele>878.6</ele>
        <time>2023-08-21T07:28:18Z</time>
      </trkpt>
      <trkpt lat="45.70698" lon="6.59827">
        <ele>879.4</ele>
        <time>2023-08-21T07:28:19Z</time>
      </trkpt>
      <trkpt lat="45.70699" lon="6.5983">
        <ele>879.4</ele>
        <time>2023-08-21T07:28:20Z</time>
      </trkpt>
      <trkpt lat="45.70699" lon="6.59833">
        <ele>879.4</ele>
        <time>2023-08-21T07:28:21Z</time>
      </trkpt>
      <trkpt lat="45.70698" lon="6.59836">
        <ele>879.4</ele>
        <time>2023-08-21T07:28:22Z</time>
      </trkpt>
      <trkpt lat="45.70697" lon="6.5984">
        <ele>880</ele>
        <time>2023-08-21T07:28:23Z</time>
      </trkpt>
      <trkpt lat="45.70696" lon="6.59843">
        <ele>880.4</ele>
        <time>2023-08-21T07:28:24Z</time>
      </trkpt>
      <trkpt lat="45.70694" lon="6.59845">
        <ele>880.4</ele>
        <time>2023-08-21T07:28:25Z</time>
      </trkpt>
      <trkpt lat="45.70693" lon="6.59849">
        <ele>880.4</ele>
        <time>2023-08-21T07:28:26Z</time>
      </trkpt>
      <trkpt lat="45.70693" lon="6.59852">
        <ele>880.4</ele>
        <time>2023-08-21T07:28:27Z</time>
      </trkpt>
      <trkpt lat="45.70693" lon="6.59855">
        <ele>881</ele>
        <time>2023-08-21T07:28:28Z</time>
      </trkpt>
      <trkpt lat="45.70692" lon="6.59858">
        <ele>881.2</ele>
        <time>2023-08-21T07:28:29Z</time>
      </trkpt>
      <trkpt lat="45.70692" lon="6.59861">
        <ele>881.2</ele>
        <time>2023-08-21T07:28:30Z</time>
      </trkpt>
      <trkpt lat="45.70691" lon="6.59863">
        <ele>881.2</ele>
        <time>2023-08-21T07:28:31Z</time>
      </trkpt>
      <trkpt lat="45.7069" lon="6.59866">
        <ele>881.2</ele>
        <time>2023-08-21T07:28:32Z</time>
      </trkpt>
      <trkpt lat="45.7069" lon="6.5987">
        <ele>882</ele>
        <time>2023-08-21T07:28:33Z</time>
      </trkpt>
      <trkpt lat="45.70689" lon="6.59873">
        <ele>882</ele>
        <time>2023-08-21T07:28:34Z</time>
      </trkpt>
      <trkpt lat="45.70688" lon="6.59876">
        <ele>882</ele>
        <time>2023-08-21T07:28:35Z</time>
      </trkpt>
      <trkpt lat="45.70687" lon="6.59879">
        <ele>882.6</ele>
        <time>2023-08-21T07:28:36Z</time>
      </trkpt>
      <trkpt lat="45.70687" lon="6.59882">
        <ele>882.6</ele>
        <time>2023-08-21T07:28:37Z</time>
      </trkpt>
      <trkpt lat="45.70685" lon="6.59885">
        <ele>882.6</ele>
        <time>2023-08-21T07:28:38Z</time>
      </trkpt>
      <trkpt lat="45.70684" lon="6.59888">
        <ele>882.6</ele>
        <time>2023-08-21T07:28:39Z</time>
      </trkpt>
      <trkpt lat="45.70682" lon="6.59891">
        <ele>882.6</ele>
        <time>2023-08-21T07:28:40Z</time>
      </trkpt>
      <trkpt lat="45.70681" lon="6.59894">
        <ele>883.6</ele>
        <time>2023-08-21T07:28:41Z</time>
      </trkpt>
      <trkpt lat="45.7068" lon="6.59897">
        <ele>883.6</ele>
        <time>2023-08-21T07:28:42Z</time>
      </trkpt>
      <trkpt lat="45.70679" lon="6.599">
        <ele>883.6</ele>
        <time>2023-08-21T07:28:43Z</time>
      </trkpt>
      <trkpt lat="45.70681" lon="6.59902">
        <ele>883.6</ele>
        <time>2023-08-21T07:28:44Z</time>
      </trkpt>
      <trkpt lat="45.70681" lon="6.59906">
        <ele>884.4</ele>
        <time>2023-08-21T07:28:45Z</time>
      </trkpt>
      <trkpt lat="45.70681" lon="6.59909">
        <ele>884.4</ele>
        <time>2023-08-21T07:28:46Z</time>
      </trkpt>
      <trkpt lat="45.7068" lon="6.59912">
        <ele>884.4</ele>
        <time>2023-08-21T07:28:47Z</time>
      </trkpt>
      <trkpt lat="45.70678" lon="6.59915">
        <ele>884.4</ele>
        <time>2023-08-21T07:28:48Z</time>
      </trkpt>
      <trkpt lat="45.70678" lon="6.59919">
        <ele>885.4</ele>
        <time>2023-08-21T07:28:49Z</time>
      </trkpt>
      <trkpt lat="45.70677" lon="6.59922">
        <ele>885.4</ele>
        <time>2023-08-21T07:28:50Z</time>
      </trkpt>
      <trkpt lat="45.70675" lon="6.59925">
        <ele>885.4</ele>
        <time>2023-08-21T07:28:51Z</time>
      </trkpt>
      <trkpt lat="45.70675" lon="6.59928">
        <ele>885.4</ele>
        <time>2023-08-21T07:28:52Z</time>
      </trkpt>
      <trkpt lat="45.70675" lon="6.59931">
        <ele>885.4</ele>
        <time>2023-08-21T07:28:53Z</time>
      </trkpt>
      <trkpt lat="45.70674" lon="6.59935">
        <ele>885.4</ele>
        <time>2023-08-21T07:28:54Z</time>
      </trkpt>
      <trkpt lat="45.70674" lon="6.59938">
        <ele>886</ele>
        <time>2023-08-21T07:28:55Z</time>
      </trkpt>
      <trkpt lat="45.70673" lon="6.59941">
        <ele>886.4</ele>
        <time>2023-08-21T07:28:56Z</time>
      </trkpt>
      <trkpt lat="45.70672" lon="6.59945">
        <ele>886.4</ele>
        <time>2023-08-21T07:28:57Z</time>
      </trkpt>
      <trkpt lat="45.70673" lon="6.59948">
        <ele>886.4</ele>
        <time>2023-08-21T07:28:58Z</time>
      </trkpt>
      <trkpt lat="45.70673" lon="6.59952">
        <ele>886.8</ele>
        <time>2023-08-21T07:28:59Z</time>
      </trkpt>
      <trkpt lat="45.70673" lon="6.59955">
        <ele>887</ele>
        <time>2023-08-21T07:29:00Z</time>
      </trkpt>
      <trkpt lat="45.70673" lon="6.59958">
        <ele>887</ele>
        <time>2023-08-21T07:29:01Z</time>
      </trkpt>
      <trkpt lat="45.70673" lon="6.59961">
        <ele>887</ele>
        <time>2023-08-21T07:29:02Z</time>
      </trkpt>
      <trkpt lat="45.70673" lon="6.59964">
        <ele>887.8</ele>
        <time>2023-08-21T07:29:03Z</time>
      </trkpt>
      <trkpt lat="45.70674" lon="6.59967">
        <ele>887.8</ele>
        <time>2023-08-21T07:29:04Z</time>
      </trkpt>
      <trkpt lat="45.70675" lon="6.59971">
        <ele>888.2</ele>
        <time>2023-08-21T07:29:05Z</time>
      </trkpt>
      <trkpt lat="45.70675" lon="6.59974">
        <ele>888.2</ele>
        <time>2023-08-21T07:29:06Z</time>
      </trkpt>
      <trkpt lat="45.70675" lon="6.59977">
        <ele>888.2</ele>
        <time>2023-08-21T07:29:07Z</time>
      </trkpt>
      <trkpt lat="45.70676" lon="6.5998">
        <ele>888.6</ele>
        <time>2023-08-21T07:29:08Z</time>
      </trkpt>
      <trkpt lat="45.70671" lon="6.59983">
        <ele>888.8</ele>
        <time>2023-08-21T07:29:09Z</time>
      </trkpt>
      <trkpt lat="45.70671" lon="6.59986">
        <ele>888.8</ele>
        <time>2023-08-21T07:29:10Z</time>
      </trkpt>
      <trkpt lat="45.7067" lon="6.59989">
        <ele>888.8</ele>
        <time>2023-08-21T07:29:11Z</time>
      </trkpt>
      <trkpt lat="45.70671" lon="6.59993">
        <ele>889.6</ele>
        <time>2023-08-21T07:29:12Z</time>
      </trkpt>
      <trkpt lat="45.70671" lon="6.59997">
        <ele>889.6</ele>
        <time>2023-08-21T07:29:13Z</time>
      </trkpt>
      <trkpt lat="45.7067" lon="6.6">
        <ele>889.6</ele>
        <time>2023-08-21T07:29:14Z</time>
      </trkpt>
      <trkpt lat="45.70669" lon="6.60004">
        <ele>889.6</ele>
        <time>2023-08-21T07:29:15Z</time>
      </trkpt>
      <trkpt lat="45.7067" lon="6.60007">
        <ele>889.6</ele>
        <time>2023-08-21T07:29:16Z</time>
      </trkpt>
      <trkpt lat="45.70669" lon="6.6001">
        <ele>890.4</ele>
        <time>2023-08-21T07:29:17Z</time>
      </trkpt>
      <trkpt lat="45.7067" lon="6.60014">
        <ele>890.4</ele>
        <time>2023-08-21T07:29:18Z</time>
      </trkpt>
      <trkpt lat="45.70669" lon="6.60017">
        <ele>890.4</ele>
        <time>2023-08-21T07:29:19Z</time>
      </trkpt>
      <trkpt lat="45.70668" lon="6.6002">
        <ele>890.4</ele>
        <time>2023-08-21T07:29:20Z</time>
      </trkpt>
      <trkpt lat="45.70665" lon="6.60023">
        <ele>891.2</ele>
        <time>2023-08-21T07:29:21Z</time>
      </trkpt>
      <trkpt lat="45.70664" lon="6.60027">
        <ele>891.2</ele>
        <time>2023-08-21T07:29:22Z</time>
      </trkpt>
      <trkpt lat="45.70664" lon="6.6003">
        <ele>891.2</ele>
        <time>2023-08-21T07:29:23Z</time>
      </trkpt>
      <trkpt lat="45.70665" lon="6.60034">
        <ele>891.2</ele>
        <time>2023-08-21T07:29:24Z</time>
      </trkpt>
      <trkpt lat="45.70665" lon="6.60037">
        <ele>892</ele>
        <time>2023-08-21T07:29:25Z</time>
      </trkpt>
      <trkpt lat="45.70665" lon="6.6004">
        <ele>892</ele>
        <time>2023-08-21T07:29:26Z</time>
      </trkpt>
      <trkpt lat="45.70665" lon="6.60043">
        <ele>892</ele>
        <time>2023-08-21T07:29:27Z</time>
      </trkpt>
      <trkpt lat="45.70665" lon="6.60046">
        <ele>892</ele>
        <time>2023-08-21T07:29:28Z</time>
      </trkpt>
      <trkpt lat="45.70665" lon="6.6005">
        <ele>892</ele>
        <time>2023-08-21T07:29:29Z</time>
      </trkpt>
      <trkpt lat="45.70664" lon="6.60053">
        <ele>893</ele>
        <time>2023-08-21T07:29:30Z</time>
      </trkpt>
      <trkpt lat="45.70664" lon="6.60056">
        <ele>893.2</ele>
        <time>2023-08-21T07:29:31Z</time>
      </trkpt>
      <trkpt lat="45.70664" lon="6.60059">
        <ele>893.2</ele>
        <time>2023-08-21T07:29:32Z</time>
      </trkpt>
      <trkpt lat="45.70664" lon="6.60062">
        <ele>893.2</ele>
        <time>2023-08-21T07:29:33Z</time>
      </trkpt>
      <trkpt lat="45.70663" lon="6.60065">
        <ele>893.8</ele>
        <time>2023-08-21T07:29:34Z</time>
      </trkpt>
      <trkpt lat="45.70663" lon="6.60068">
        <ele>894</ele>
        <time>2023-08-21T07:29:35Z</time>
      </trkpt>
      <trkpt lat="45.70663" lon="6.60071">
        <ele>894</ele>
        <time>2023-08-21T07:29:36Z</time>
      </trkpt>
      <trkpt lat="45.70662" lon="6.60074">
        <ele>894</ele>
        <time>2023-08-21T07:29:37Z</time>
      </trkpt>
      <trkpt lat="45.70663" lon="6.60077">
        <ele>894</ele>
        <time>2023-08-21T07:29:38Z</time>
      </trkpt>
      <trkpt lat="45.70663" lon="6.6008">
        <ele>894</ele>
        <time>2023-08-21T07:29:39Z</time>
      </trkpt>
      <trkpt lat="45.70663" lon="6.60083">
        <ele>894.4</ele>
        <time>2023-08-21T07:29:40Z</time>
      </trkpt>
      <trkpt lat="45.70663" lon="6.60086">
        <ele>894.8</ele>
        <time>2023-08-21T07:29:41Z</time>
      </trkpt>
      <trkpt lat="45.70664" lon="6.60089">
        <ele>894.8</ele>
        <time>2023-08-21T07:29:42Z</time>
      </trkpt>
      <trkpt lat="45.70664" lon="6.60092">
        <ele>894.8</ele>
        <time>2023-08-21T07:29:43Z</time>
      </trkpt>
      <trkpt lat="45.70664" lon="6.60095">
        <ele>895.2</ele>
        <time>2023-08-21T07:29:44Z</time>
      </trkpt>
      <trkpt lat="45.70664" lon="6.60098">
        <ele>895.8</ele>
        <time>2023-08-21T07:29:45Z</time>
      </trkpt>
      <trkpt lat="45.70665" lon="6.60101">
        <ele>895.8</ele>
        <time>2023-08-21T07:29:46Z</time>
      </trkpt>
      <trkpt lat="45.70666" lon="6.60105">
        <ele>895.8</ele>
        <time>2023-08-21T07:29:47Z</time>
      </trkpt>
      <trkpt lat="45.70666" lon="6.60108">
        <ele>896.2</ele>
        <time>2023-08-21T07:29:48Z</time>
      </trkpt>
      <trkpt lat="45.70667" lon="6.60111">
        <ele>896.4</ele>
        <time>2023-08-21T07:29:49Z</time>
      </trkpt>
      <trkpt lat="45.70668" lon="6.60114">
        <ele>896.4</ele>
        <time>2023-08-21T07:29:50Z</time>
      </trkpt>
      <trkpt lat="45.70668" lon="6.60117">
        <ele>896.4</ele>
        <time>2023-08-21T07:29:51Z</time>
      </trkpt>
      <trkpt lat="45.70669" lon="6.6012">
        <ele>896.4</ele>
        <time>2023-08-21T07:29:52Z</time>
      </trkpt>
      <trkpt lat="45.7067" lon="6.60123">
        <ele>896.8</ele>
        <time>2023-08-21T07:29:53Z</time>
      </trkpt>
      <trkpt lat="45.7067" lon="6.60126">
        <ele>897</ele>
        <time>2023-08-21T07:29:54Z</time>
      </trkpt>
      <trkpt lat="45.70671" lon="6.60129">
        <ele>897</ele>
        <time>2023-08-21T07:29:55Z</time>
      </trkpt>
      <trkpt lat="45.70671" lon="6.60131">
        <ele>897</ele>
        <time>2023-08-21T07:29:56Z</time>
      </trkpt>
      <trkpt lat="45.70672" lon="6.60134">
        <ele>897.6</ele>
        <time>2023-08-21T07:29:57Z</time>
      </trkpt>
      <trkpt lat="45.70672" lon="6.60137">
        <ele>898</ele>
        <time>2023-08-21T07:29:58Z</time>
      </trkpt>
      <trkpt lat="45.70673" lon="6.6014">
        <ele>898</ele>
        <time>2023-08-21T07:29:59Z</time>
      </trkpt>
      <trkpt lat="45.70673" lon="6.60143">
        <ele>898</ele>
        <time>2023-08-21T07:30:00Z</time>
      </trkpt>
      <trkpt lat="45.70674" lon="6.60146">
        <ele>898</ele>
        <time>2023-08-21T07:30:01Z</time>
      </trkpt>
      <trkpt lat="45.70675" lon="6.60149">
        <ele>898.4</ele>
        <time>2023-08-21T07:30:02Z</time>
      </trkpt>
      <trkpt lat="45.70676" lon="6.60151">
        <ele>898.8</ele>
        <time>2023-08-21T07:30:03Z</time>
      </trkpt>
      <trkpt lat="45.70676" lon="6.60154">
        <ele>898.8</ele>
        <time>2023-08-21T07:30:04Z</time>
      </trkpt>
      <trkpt lat="45.70677" lon="6.60157">
        <ele>898.8</ele>
        <time>2023-08-21T07:30:05Z</time>
      </trkpt>
      <trkpt lat="45.70678" lon="6.6016">
        <ele>899.2</ele>
        <time>2023-08-21T07:30:06Z</time>
      </trkpt>
      <trkpt lat="45.70679" lon="6.60163">
        <ele>899.6</ele>
        <time>2023-08-21T07:30:07Z</time>
      </trkpt>
      <trkpt lat="45.7068" lon="6.60166">
        <ele>899.6</ele>
        <time>2023-08-21T07:30:08Z</time>
      </trkpt>
      <trkpt lat="45.70681" lon="6.60168">
        <ele>899.6</ele>
        <time>2023-08-21T07:30:09Z</time>
      </trkpt>
      <trkpt lat="45.70682" lon="6.60171">
        <ele>900.2</ele>
        <time>2023-08-21T07:30:10Z</time>
      </trkpt>
      <trkpt lat="45.70683" lon="6.60174">
        <ele>900.4</ele>
        <time>2023-08-21T07:30:11Z</time>
      </trkpt>
      <trkpt lat="45.70683" lon="6.60177">
        <ele>900.4</ele>
        <time>2023-08-21T07:30:12Z</time>
      </trkpt>
      <trkpt lat="45.70684" lon="6.60179">
        <ele>900.4</ele>
        <time>2023-08-21T07:30:13Z</time>
      </trkpt>
      <trkpt lat="45.70686" lon="6.60182">
        <ele>900.4</ele>
        <time>2023-08-21T07:30:14Z</time>
      </trkpt>
      <trkpt lat="45.70687" lon="6.60184">
        <ele>901</ele>
        <time>2023-08-21T07:30:15Z</time>
      </trkpt>
      <trkpt lat="45.70688" lon="6.60186">
        <ele>901.4</ele>
        <time>2023-08-21T07:30:16Z</time>
      </trkpt>
      <trkpt lat="45.70689" lon="6.60189">
        <ele>901.4</ele>
        <time>2023-08-21T07:30:17Z</time>
      </trkpt>
      <trkpt lat="45.7069" lon="6.60192">
        <ele>901.4</ele>
        <time>2023-08-21T07:30:18Z</time>
      </trkpt>
      <trkpt lat="45.7069" lon="6.60194">
        <ele>901.4</ele>
        <time>2023-08-21T07:30:19Z</time>
      </trkpt>
      <trkpt lat="45.70691" lon="6.60197">
        <ele>902</ele>
        <time>2023-08-21T07:30:20Z</time>
      </trkpt>
      <trkpt lat="45.70693" lon="6.602">
        <ele>902</ele>
        <time>2023-08-21T07:30:21Z</time>
      </trkpt>
      <trkpt lat="45.70693" lon="6.60202">
        <ele>902</ele>
        <time>2023-08-21T07:30:22Z</time>
      </trkpt>
      <trkpt lat="45.70694" lon="6.60204">
        <ele>902</ele>
        <time>2023-08-21T07:30:23Z</time>
      </trkpt>
      <trkpt lat="45.70695" lon="6.60207">
        <ele>902</ele>
        <time>2023-08-21T07:30:24Z</time>
      </trkpt>
      <trkpt lat="45.70695" lon="6.6021">
        <ele>902.4</ele>
        <time>2023-08-21T07:30:25Z</time>
      </trkpt>
      <trkpt lat="45.70696" lon="6.60213">
        <ele>902.8</ele>
        <time>2023-08-21T07:30:26Z</time>
      </trkpt>
      <trkpt lat="45.70696" lon="6.60216">
        <ele>902.8</ele>
        <time>2023-08-21T07:30:27Z</time>
      </trkpt>
      <trkpt lat="45.70697" lon="6.60218">
        <ele>902.8</ele>
        <time>2023-08-21T07:30:28Z</time>
      </trkpt>
      <trkpt lat="45.70698" lon="6.60221">
        <ele>903.4</ele>
        <time>2023-08-21T07:30:29Z</time>
      </trkpt>
      <trkpt lat="45.70698" lon="6.60224">
        <ele>903.6</ele>
        <time>2023-08-21T07:30:30Z</time>
      </trkpt>
      <trkpt lat="45.70698" lon="6.60227">
        <ele>903.6</ele>
        <time>2023-08-21T07:30:31Z</time>
      </trkpt>
      <trkpt lat="45.70699" lon="6.60229">
        <ele>903.6</ele>
        <time>2023-08-21T07:30:32Z</time>
      </trkpt>
      <trkpt lat="45.70699" lon="6.60232">
        <ele>904.2</ele>
        <time>2023-08-21T07:30:33Z</time>
      </trkpt>
      <trkpt lat="45.707" lon="6.60235">
        <ele>904.6</ele>
        <time>2023-08-21T07:30:34Z</time>
      </trkpt>
      <trkpt lat="45.70702" lon="6.60237">
        <ele>904.6</ele>
        <time>2023-08-21T07:30:35Z</time>
      </trkpt>
      <trkpt lat="45.70703" lon="6.6024">
        <ele>904.6</ele>
        <time>2023-08-21T07:30:36Z</time>
      </trkpt>
      <trkpt lat="45.70704" lon="6.60242">
        <ele>904.6</ele>
        <time>2023-08-21T07:30:37Z</time>
      </trkpt>
      <trkpt lat="45.70705" lon="6.60245">
        <ele>904.6</ele>
        <time>2023-08-21T07:30:38Z</time>
      </trkpt>
      <trkpt lat="45.70705" lon="6.60248">
        <ele>905.2</ele>
        <time>2023-08-21T07:30:39Z</time>
      </trkpt>
      <trkpt lat="45.70706" lon="6.60251">
        <ele>905.2</ele>
        <time>2023-08-21T07:30:40Z</time>
      </trkpt>
      <trkpt lat="45.70707" lon="6.60253">
        <ele>905.2</ele>
        <time>2023-08-21T07:30:41Z</time>
      </trkpt>
      <trkpt lat="45.70708" lon="6.60256">
        <ele>905.8</ele>
        <time>2023-08-21T07:30:42Z</time>
      </trkpt>
      <trkpt lat="45.70709" lon="6.60258">
        <ele>906.2</ele>
        <time>2023-08-21T07:30:43Z</time>
      </trkpt>
      <trkpt lat="45.7071" lon="6.6026">
        <ele>906.2</ele>
        <time>2023-08-21T07:30:44Z</time>
      </trkpt>
      <trkpt lat="45.70712" lon="6.60263">
        <ele>906.2</ele>
        <time>2023-08-21T07:30:45Z</time>
      </trkpt>
      <trkpt lat="45.70712" lon="6.60265">
        <ele>906.2</ele>
        <time>2023-08-21T07:30:46Z</time>
      </trkpt>
      <trkpt lat="45.70714" lon="6.60268">
        <ele>906.8</ele>
        <time>2023-08-21T07:30:47Z</time>
      </trkpt>
      <trkpt lat="45.70715" lon="6.6027">
        <ele>907</ele>
        <time>2023-08-21T07:30:48Z</time>
      </trkpt>
      <trkpt lat="45.70716" lon="6.60273">
        <ele>907</ele>
        <time>2023-08-21T07:30:49Z</time>
      </trkpt>
      <trkpt lat="45.70718" lon="6.60276">
        <ele>907</ele>
        <time>2023-08-21T07:30:50Z</time>
      </trkpt>
      <trkpt lat="45.7072" lon="6.60278">
        <ele>907.6</ele>
        <time>2023-08-21T07:30:51Z</time>
      </trkpt>
      <trkpt lat="45.70721" lon="6.6028">
        <ele>908</ele>
        <time>2023-08-21T07:30:52Z</time>
      </trkpt>
      <trkpt lat="45.70723" lon="6.60283">
        <ele>908</ele>
        <time>2023-08-21T07:30:53Z</time>
      </trkpt>
      <trkpt lat="45.70724" lon="6.60285">
        <ele>908</ele>
        <time>2023-08-21T07:30:54Z</time>
      </trkpt>
      <trkpt lat="45.70725" lon="6.60287">
        <ele>908</ele>
        <time>2023-08-21T07:30:55Z</time>
      </trkpt>
      <trkpt lat="45.70726" lon="6.60289">
        <ele>908.4</ele>
        <time>2023-08-21T07:30:56Z</time>
      </trkpt>
      <trkpt lat="45.70727" lon="6.60292">
        <ele>908.6</ele>
        <time>2023-08-21T07:30:57Z</time>
      </trkpt>
      <trkpt lat="45.70728" lon="6.60294">
        <ele>908.6</ele>
        <time>2023-08-21T07:30:58Z</time>
      </trkpt>
      <trkpt lat="45.70729" lon="6.60297">
        <ele>908.6</ele>
        <time>2023-08-21T07:30:59Z</time>
      </trkpt>
      <trkpt lat="45.7073" lon="6.60299">
        <ele>909.2</ele>
        <time>2023-08-21T07:31:00Z</time>
      </trkpt>
      <trkpt lat="45.7073" lon="6.60303">
        <ele>909.4</ele>
        <time>2023-08-21T07:31:01Z</time>
      </trkpt>
      <trkpt lat="45.70731" lon="6.60306">
        <ele>909.4</ele>
        <time>2023-08-21T07:31:02Z</time>
      </trkpt>
      <trkpt lat="45.70732" lon="6.6031">
        <ele>909.4</ele>
        <time>2023-08-21T07:31:03Z</time>
      </trkpt>
      <trkpt lat="45.70733" lon="6.60313">
        <ele>909.4</ele>
        <time>2023-08-21T07:31:04Z</time>
      </trkpt>
      <trkpt lat="45.70734" lon="6.60316">
        <ele>910</ele>
        <time>2023-08-21T07:31:05Z</time>
      </trkpt>
      <trkpt lat="45.70734" lon="6.60318">
        <ele>910</ele>
        <time>2023-08-21T07:31:06Z</time>
      </trkpt>
      <trkpt lat="45.70735" lon="6.60322">
        <ele>910.4</ele>
        <time>2023-08-21T07:31:07Z</time>
      </trkpt>
      <trkpt lat="45.70736" lon="6.60325">
        <ele>910.4</ele>
        <time>2023-08-21T07:31:08Z</time>
      </trkpt>
      <trkpt lat="45.70737" lon="6.60328">
        <ele>910.4</ele>
        <time>2023-08-21T07:31:09Z</time>
      </trkpt>
      <trkpt lat="45.70737" lon="6.60331">
        <ele>911</ele>
        <time>2023-08-21T07:31:10Z</time>
      </trkpt>
      <trkpt lat="45.70738" lon="6.60334">
        <ele>911</ele>
        <time>2023-08-21T07:31:11Z</time>
      </trkpt>
      <trkpt lat="45.70738" lon="6.60337">
        <ele>911</ele>
        <time>2023-08-21T07:31:12Z</time>
      </trkpt>
      <trkpt lat="45.70738" lon="6.6034">
        <ele>911</ele>
        <time>2023-08-21T07:31:13Z</time>
      </trkpt>
      <trkpt lat="45.70739" lon="6.60343">
        <ele>911.6</ele>
        <time>2023-08-21T07:31:14Z</time>
      </trkpt>
      <trkpt lat="45.70739" lon="6.60346">
        <ele>911.8</ele>
        <time>2023-08-21T07:31:15Z</time>
      </trkpt>
      <trkpt lat="45.70739" lon="6.60349">
        <ele>911.8</ele>
        <time>2023-08-21T07:31:16Z</time>
      </trkpt>
      <trkpt lat="45.70739" lon="6.60353">
        <ele>911.8</ele>
        <time>2023-08-21T07:31:17Z</time>
      </trkpt>
      <trkpt lat="45.7074" lon="6.60356">
        <ele>912.6</ele>
        <time>2023-08-21T07:31:18Z</time>
      </trkpt>
      <trkpt lat="45.7074" lon="6.60359">
        <ele>912.6</ele>
        <time>2023-08-21T07:31:19Z</time>
      </trkpt>
      <trkpt lat="45.70741" lon="6.60362">
        <ele>912.6</ele>
        <time>2023-08-21T07:31:20Z</time>
      </trkpt>
      <trkpt lat="45.70742" lon="6.60366">
        <ele>912.6</ele>
        <time>2023-08-21T07:31:21Z</time>
      </trkpt>
      <trkpt lat="45.70743" lon="6.60369">
        <ele>912.6</ele>
        <time>2023-08-21T07:31:22Z</time>
      </trkpt>
      <trkpt lat="45.70744" lon="6.60372">
        <ele>913.2</ele>
        <time>2023-08-21T07:31:23Z</time>
      </trkpt>
      <trkpt lat="45.70745" lon="6.60375">
        <ele>913.4</ele>
        <time>2023-08-21T07:31:24Z</time>
      </trkpt>
      <trkpt lat="45.70746" lon="6.60378">
        <ele>913.4</ele>
        <time>2023-08-21T07:31:25Z</time>
      </trkpt>
      <trkpt lat="45.70747" lon="6.60382">
        <ele>913.4</ele>
        <time>2023-08-21T07:31:26Z</time>
      </trkpt>
      <trkpt lat="45.70747" lon="6.60385">
        <ele>914</ele>
        <time>2023-08-21T07:31:27Z</time>
      </trkpt>
      <trkpt lat="45.70748" lon="6.60388">
        <ele>914</ele>
        <time>2023-08-21T07:31:28Z</time>
      </trkpt>
      <trkpt lat="45.70749" lon="6.60391">
        <ele>914.2</ele>
        <time>2023-08-21T07:31:29Z</time>
      </trkpt>
      <trkpt lat="45.70749" lon="6.60395">
        <ele>914.2</ele>
        <time>2023-08-21T07:31:30Z</time>
      </trkpt>
      <trkpt lat="45.7075" lon="6.60398">
        <ele>914.2</ele>
        <time>2023-08-21T07:31:31Z</time>
      </trkpt>
      <trkpt lat="45.70751" lon="6.60401">
        <ele>914.8</ele>
        <time>2023-08-21T07:31:32Z</time>
      </trkpt>
      <trkpt lat="45.70751" lon="6.60405">
        <ele>915</ele>
        <time>2023-08-21T07:31:33Z</time>
      </trkpt>
      <trkpt lat="45.70752" lon="6.60408">
        <ele>915</ele>
        <time>2023-08-21T07:31:34Z</time>
      </trkpt>
      <trkpt lat="45.70752" lon="6.60411">
        <ele>915</ele>
        <time>2023-08-21T07:31:35Z</time>
      </trkpt>
      <trkpt lat="45.70752" lon="6.60415">
        <ele>915.6</ele>
        <time>2023-08-21T07:31:36Z</time>
      </trkpt>
      <trkpt lat="45.70753" lon="6.60418">
        <ele>915.8</ele>
        <time>2023-08-21T07:31:37Z</time>
      </trkpt>
      <trkpt lat="45.70753" lon="6.60421">
        <ele>915.8</ele>
        <time>2023-08-21T07:31:38Z</time>
      </trkpt>
      <trkpt lat="45.70754" lon="6.60424">
        <ele>915.8</ele>
        <time>2023-08-21T07:31:39Z</time>
      </trkpt>
      <trkpt lat="45.70754" lon="6.60428">
        <ele>916.2</ele>
        <time>2023-08-21T07:31:40Z</time>
      </trkpt>
      <trkpt lat="45.70754" lon="6.60431">
        <ele>916.2</ele>
        <time>2023-08-21T07:31:41Z</time>
      </trkpt>
      <trkpt lat="45.70755" lon="6.60434">
        <ele>916.6</ele>
        <time>2023-08-21T07:31:42Z</time>
      </trkpt>
      <trkpt lat="45.70756" lon="6.60437">
        <ele>916.6</ele>
        <time>2023-08-21T07:31:43Z</time>
      </trkpt>
      <trkpt lat="45.70756" lon="6.6044">
        <ele>916.6</ele>
        <time>2023-08-21T07:31:44Z</time>
      </trkpt>
      <trkpt lat="45.70756" lon="6.60443">
        <ele>916.6</ele>
        <time>2023-08-21T07:31:45Z</time>
      </trkpt>
      <trkpt lat="45.70757" lon="6.60447">
        <ele>917.2</ele>
        <time>2023-08-21T07:31:46Z</time>
      </trkpt>
      <trkpt lat="45.70757" lon="6.6045">
        <ele>917.4</ele>
        <time>2023-08-21T07:31:47Z</time>
      </trkpt>
      <trkpt lat="45.70758" lon="6.60453">
        <ele>917.4</ele>
        <time>2023-08-21T07:31:48Z</time>
      </trkpt>
      <trkpt lat="45.70758" lon="6.60456">
        <ele>917.4</ele>
        <time>2023-08-21T07:31:49Z</time>
      </trkpt>
      <trkpt lat="45.70759" lon="6.6046">
        <ele>917.8</ele>
        <time>2023-08-21T07:31:50Z</time>
      </trkpt>
      <trkpt lat="45.70759" lon="6.60463">
        <ele>917.8</ele>
        <time>2023-08-21T07:31:51Z</time>
      </trkpt>
      <trkpt lat="45.70759" lon="6.60466">
        <ele>918</ele>
        <time>2023-08-21T07:31:52Z</time>
      </trkpt>
      <trkpt lat="45.70758" lon="6.6047">
        <ele>918</ele>
        <time>2023-08-21T07:31:53Z</time>
      </trkpt>
      <trkpt lat="45.70758" lon="6.60473">
        <ele>918</ele>
        <time>2023-08-21T07:31:54Z</time>
      </trkpt>
      <trkpt lat="45.70758" lon="6.60476">
        <ele>918.6</ele>
        <time>2023-08-21T07:31:55Z</time>
      </trkpt>
      <trkpt lat="45.70758" lon="6.60479">
        <ele>919</ele>
        <time>2023-08-21T07:31:56Z</time>
      </trkpt>
      <trkpt lat="45.70758" lon="6.60483">
        <ele>919</ele>
        <time>2023-08-21T07:31:57Z</time>
      </trkpt>
      <trkpt lat="45.70758" lon="6.60486">
        <ele>919</ele>
        <time>2023-08-21T07:31:58Z</time>
      </trkpt>
      <trkpt lat="45.70759" lon="6.60489">
        <ele>919.6</ele>
        <time>2023-08-21T07:31:59Z</time>
      </trkpt>
      <trkpt lat="45.70759" lon="6.60492">
        <ele>920</ele>
        <time>2023-08-21T07:32:00Z</time>
      </trkpt>
      <trkpt lat="45.70759" lon="6.60495">
        <ele>920</ele>
        <time>2023-08-21T07:32:01Z</time>
      </trkpt>
      <trkpt lat="45.70758" lon="6.60499">
        <ele>920</ele>
        <time>2023-08-21T07:32:02Z</time>
      </trkpt>
      <trkpt lat="45.70757" lon="6.60502">
        <ele>920</ele>
        <time>2023-08-21T07:32:03Z</time>
      </trkpt>
      <trkpt lat="45.70755" lon="6.60505">
        <ele>920.4</ele>
        <time>2023-08-21T07:32:04Z</time>
      </trkpt>
      <trkpt lat="45.70755" lon="6.60507">
        <ele>920.6</ele>
        <time>2023-08-21T07:32:05Z</time>
      </trkpt>
      <trkpt lat="45.70753" lon="6.6051">
        <ele>920.6</ele>
        <time>2023-08-21T07:32:06Z</time>
      </trkpt>
      <trkpt lat="45.70751" lon="6.60511">
        <ele>920.6</ele>
        <time>2023-08-21T07:32:07Z</time>
      </trkpt>
      <trkpt lat="45.70748" lon="6.60513">
        <ele>921.2</ele>
        <time>2023-08-21T07:32:08Z</time>
      </trkpt>
      <trkpt lat="45.70744" lon="6.60516">
        <ele>921.4</ele>
        <time>2023-08-21T07:32:09Z</time>
      </trkpt>
      <trkpt lat="45.70742" lon="6.60519">
        <ele>921.4</ele>
        <time>2023-08-21T07:32:10Z</time>
      </trkpt>
      <trkpt lat="45.7074" lon="6.60521">
        <ele>921.4</ele>
        <time>2023-08-21T07:32:11Z</time>
      </trkpt>
      <trkpt lat="45.70739" lon="6.60523">
        <ele>922.2</ele>
        <time>2023-08-21T07:32:12Z</time>
      </trkpt>
      <trkpt lat="45.70738" lon="6.60526">
        <ele>922.2</ele>
        <time>2023-08-21T07:32:13Z</time>
      </trkpt>
      <trkpt lat="45.70736" lon="6.60529">
        <ele>922.4</ele>
        <time>2023-08-21T07:32:14Z</time>
      </trkpt>
      <trkpt lat="45.70736" lon="6.60533">
        <ele>922.4</ele>
        <time>2023-08-21T07:32:15Z</time>
      </trkpt>
      <trkpt lat="45.70736" lon="6.60536">
        <ele>922.4</ele>
        <time>2023-08-21T07:32:16Z</time>
      </trkpt>
      <trkpt lat="45.70736" lon="6.60539">
        <ele>923</ele>
        <time>2023-08-21T07:32:17Z</time>
      </trkpt>
      <trkpt lat="45.70736" lon="6.60542">
        <ele>923.4</ele>
        <time>2023-08-21T07:32:18Z</time>
      </trkpt>
      <trkpt lat="45.70736" lon="6.60545">
        <ele>923.4</ele>
        <time>2023-08-21T07:32:19Z</time>
      </trkpt>
      <trkpt lat="45.70736" lon="6.60549">
        <ele>923.4</ele>
        <time>2023-08-21T07:32:20Z</time>
      </trkpt>
      <trkpt lat="45.70736" lon="6.60552">
        <ele>923.8</ele>
        <time>2023-08-21T07:32:21Z</time>
      </trkpt>
      <trkpt lat="45.70737" lon="6.60555">
        <ele>924.2</ele>
        <time>2023-08-21T07:32:22Z</time>
      </trkpt>
      <trkpt lat="45.70738" lon="6.60559">
        <ele>924.2</ele>
        <time>2023-08-21T07:32:23Z</time>
      </trkpt>
      <trkpt lat="45.70738" lon="6.60562">
        <ele>924.2</ele>
        <time>2023-08-21T07:32:24Z</time>
      </trkpt>
      <trkpt lat="45.70738" lon="6.60566">
        <ele>924.2</ele>
        <time>2023-08-21T07:32:25Z</time>
      </trkpt>
      <trkpt lat="45.70738" lon="6.60569">
        <ele>924.6</ele>
        <time>2023-08-21T07:32:26Z</time>
      </trkpt>
      <trkpt lat="45.70738" lon="6.60572">
        <ele>924.6</ele>
        <time>2023-08-21T07:32:27Z</time>
      </trkpt>
      <trkpt lat="45.70737" lon="6.60576">
        <ele>925</ele>
        <time>2023-08-21T07:32:28Z</time>
      </trkpt>
      <trkpt lat="45.70737" lon="6.60579">
        <ele>925</ele>
        <time>2023-08-21T07:32:29Z</time>
      </trkpt>
      <trkpt lat="45.70737" lon="6.60583">
        <ele>925</ele>
        <time>2023-08-21T07:32:30Z</time>
      </trkpt>
      <trkpt lat="45.70737" lon="6.60586">
        <ele>925.6</ele>
        <time>2023-08-21T07:32:31Z</time>
      </trkpt>
      <trkpt lat="45.70737" lon="6.6059">
        <ele>925.6</ele>
        <time>2023-08-21T07:32:32Z</time>
      </trkpt>
      <trkpt lat="45.70736" lon="6.60593">
        <ele>925.6</ele>
        <time>2023-08-21T07:32:33Z</time>
      </trkpt>
      <trkpt lat="45.70735" lon="6.60595">
        <ele>925.6</ele>
        <time>2023-08-21T07:32:34Z</time>
      </trkpt>
      <trkpt lat="45.70734" lon="6.60598">
        <ele>926.4</ele>
        <time>2023-08-21T07:32:35Z</time>
      </trkpt>
      <trkpt lat="45.70732" lon="6.60601">
        <ele>926.4</ele>
        <time>2023-08-21T07:32:36Z</time>
      </trkpt>
      <trkpt lat="45.7073" lon="6.60604">
        <ele>926.6</ele>
        <time>2023-08-21T07:32:37Z</time>
      </trkpt>
      <trkpt lat="45.70728" lon="6.60607">
        <ele>926.6</ele>
        <time>2023-08-21T07:32:38Z</time>
      </trkpt>
      <trkpt lat="45.70727" lon="6.6061">
        <ele>926.6</ele>
        <time>2023-08-21T07:32:39Z</time>
      </trkpt>
      <trkpt lat="45.70725" lon="6.60612">
        <ele>926.6</ele>
        <time>2023-08-21T07:32:40Z</time>
      </trkpt>
      <trkpt lat="45.70724" lon="6.60615">
        <ele>927.2</ele>
        <time>2023-08-21T07:32:41Z</time>
      </trkpt>
      <trkpt lat="45.70722" lon="6.60618">
        <ele>927.2</ele>
        <time>2023-08-21T07:32:42Z</time>
      </trkpt>
      <trkpt lat="45.70721" lon="6.6062">
        <ele>927.2</ele>
        <time>2023-08-21T07:32:43Z</time>
      </trkpt>
      <trkpt lat="45.70719" lon="6.60623">
        <ele>927.6</ele>
        <time>2023-08-21T07:32:44Z</time>
      </trkpt>
      <trkpt lat="45.70718" lon="6.60626">
        <ele>927.6</ele>
        <time>2023-08-21T07:32:45Z</time>
      </trkpt>
      <trkpt lat="45.70717" lon="6.60629">
        <ele>927.8</ele>
        <time>2023-08-21T07:32:46Z</time>
      </trkpt>
      <trkpt lat="45.70716" lon="6.60632">
        <ele>927.8</ele>
        <time>2023-08-21T07:32:47Z</time>
      </trkpt>
      <trkpt lat="45.70714" lon="6.60635">
        <ele>927.8</ele>
        <time>2023-08-21T07:32:48Z</time>
      </trkpt>
      <trkpt lat="45.70713" lon="6.60637">
        <ele>928.4</ele>
        <time>2023-08-21T07:32:49Z</time>
      </trkpt>
      <trkpt lat="45.70712" lon="6.6064">
        <ele>928.4</ele>
        <time>2023-08-21T07:32:50Z</time>
      </trkpt>
      <trkpt lat="45.7071" lon="6.60643">
        <ele>928.4</ele>
        <time>2023-08-21T07:32:51Z</time>
      </trkpt>
      <trkpt lat="45.70709" lon="6.60646">
        <ele>928.4</ele>
        <time>2023-08-21T07:32:52Z</time>
      </trkpt>
      <trkpt lat="45.70708" lon="6.60649">
        <ele>929.2</ele>
        <time>2023-08-21T07:32:53Z</time>
      </trkpt>
      <trkpt lat="45.70707" lon="6.60652">
        <ele>929.4</ele>
        <time>2023-08-21T07:32:54Z</time>
      </trkpt>
      <trkpt lat="45.70706" lon="6.60655">
        <ele>929.4</ele>
        <time>2023-08-21T07:32:55Z</time>
      </trkpt>
      <trkpt lat="45.70705" lon="6.60658">
        <ele>929.4</ele>
        <time>2023-08-21T07:32:56Z</time>
      </trkpt>
      <trkpt lat="45.70704" lon="6.60661">
        <ele>930.4</ele>
        <time>2023-08-21T07:32:57Z</time>
      </trkpt>
      <trkpt lat="45.70703" lon="6.60664">
        <ele>930.6</ele>
        <time>2023-08-21T07:32:58Z</time>
      </trkpt>
      <trkpt lat="45.70702" lon="6.60667">
        <ele>930.6</ele>
        <time>2023-08-21T07:32:59Z</time>
      </trkpt>
      <trkpt lat="45.70701" lon="6.60671">
        <ele>930.6</ele>
        <time>2023-08-21T07:33:00Z</time>
      </trkpt>
      <trkpt lat="45.70701" lon="6.60674">
        <ele>930.6</ele>
        <time>2023-08-21T07:33:01Z</time>
      </trkpt>
      <trkpt lat="45.707" lon="6.60676">
        <ele>931.2</ele>
        <time>2023-08-21T07:33:02Z</time>
      </trkpt>
      <trkpt lat="45.70699" lon="6.60679">
        <ele>931.6</ele>
        <time>2023-08-21T07:33:03Z</time>
      </trkpt>
      <trkpt lat="45.70698" lon="6.60682">
        <ele>931.6</ele>
        <time>2023-08-21T07:33:04Z</time>
      </trkpt>
      <trkpt lat="45.70698" lon="6.60685">
        <ele>931.6</ele>
        <time>2023-08-21T07:33:05Z</time>
      </trkpt>
      <trkpt lat="45.70697" lon="6.60687">
        <ele>932.4</ele>
        <time>2023-08-21T07:33:06Z</time>
      </trkpt>
      <trkpt lat="45.70697" lon="6.6069">
        <ele>932.6</ele>
        <time>2023-08-21T07:33:07Z</time>
      </trkpt>
      <trkpt lat="45.70696" lon="6.60693">
        <ele>932.6</ele>
        <time>2023-08-21T07:33:08Z</time>
      </trkpt>
      <trkpt lat="45.70696" lon="6.60696">
        <ele>932.6</ele>
        <time>2023-08-21T07:33:09Z</time>
      </trkpt>
      <trkpt lat="45.70695" lon="6.60699">
        <ele>932.6</ele>
        <time>2023-08-21T07:33:10Z</time>
      </trkpt>
      <trkpt lat="45.70695" lon="6.60702">
        <ele>932.6</ele>
        <time>2023-08-21T07:33:11Z</time>
      </trkpt>
      <trkpt lat="45.70695" lon="6.60705">
        <ele>933.4</ele>
        <time>2023-08-21T07:33:12Z</time>
      </trkpt>
      <trkpt lat="45.70695" lon="6.60707">
        <ele>933.6</ele>
        <time>2023-08-21T07:33:13Z</time>
      </trkpt>
      <trkpt lat="45.70695" lon="6.6071">
        <ele>933.6</ele>
        <time>2023-08-21T07:33:14Z</time>
      </trkpt>
      <trkpt lat="45.70694" lon="6.60713">
        <ele>933.6</ele>
        <time>2023-08-21T07:33:15Z</time>
      </trkpt>
      <trkpt lat="45.70694" lon="6.60714">
        <ele>934.2</ele>
        <time>2023-08-21T07:33:16Z</time>
      </trkpt>
      <trkpt lat="45.70693" lon="6.60716">
        <ele>934.4</ele>
        <time>2023-08-21T07:33:17Z</time>
      </trkpt>
      <trkpt lat="45.70692" lon="6.60716">
        <ele>934.4</ele>
        <time>2023-08-21T07:33:18Z</time>
      </trkpt>
      <trkpt lat="45.70691" lon="6.60717">
        <ele>934.4</ele>
        <time>2023-08-21T07:33:19Z</time>
      </trkpt>
      <trkpt lat="45.70691" lon="6.60719">
        <ele>935.2</ele>
        <time>2023-08-21T07:33:20Z</time>
      </trkpt>
      <trkpt lat="45.7069" lon="6.6072">
        <ele>935.2</ele>
        <time>2023-08-21T07:33:21Z</time>
      </trkpt>
      <trkpt lat="45.7069" lon="6.60724">
        <ele>935.4</ele>
        <time>2023-08-21T07:33:22Z</time>
      </trkpt>
      <trkpt lat="45.70691" lon="6.60726">
        <ele>935.4</ele>
        <time>2023-08-21T07:33:23Z</time>
      </trkpt>
      <trkpt lat="45.7069" lon="6.60728">
        <ele>935.4</ele>
        <time>2023-08-21T07:33:24Z</time>
      </trkpt>
      <trkpt lat="45.70694" lon="6.6073">
        <ele>936.2</ele>
        <time>2023-08-21T07:33:25Z</time>
      </trkpt>
      <trkpt lat="45.70696" lon="6.60733">
        <ele>936.2</ele>
        <time>2023-08-21T07:33:26Z</time>
      </trkpt>
      <trkpt lat="45.70698" lon="6.60738">
        <ele>936.2</ele>
        <time>2023-08-21T07:33:27Z</time>
      </trkpt>
      <trkpt lat="45.70702" lon="6.60742">
        <ele>936.2</ele>
        <time>2023-08-21T07:33:28Z</time>
      </trkpt>
      <trkpt lat="45.70705" lon="6.60747">
        <ele>936.8</ele>
        <time>2023-08-21T07:33:29Z</time>
      </trkpt>
      <trkpt lat="45.70707" lon="6.60752">
        <ele>937.2</ele>
        <time>2023-08-21T07:33:30Z</time>
      </trkpt>
      <trkpt lat="45.70709" lon="6.60755">
        <ele>937.2</ele>
        <time>2023-08-21T07:33:31Z</time>
      </trkpt>
      <trkpt lat="45.70709" lon="6.60759">
        <ele>937.2</ele>
        <time>2023-08-21T07:33:32Z</time>
      </trkpt>
      <trkpt lat="45.7071" lon="6.60762">
        <ele>937.8</ele>
        <time>2023-08-21T07:33:33Z</time>
      </trkpt>
      <trkpt lat="45.70711" lon="6.60766">
        <ele>937.8</ele>
        <time>2023-08-21T07:33:34Z</time>
      </trkpt>
      <trkpt lat="45.70712" lon="6.60769">
        <ele>938</ele>
        <time>2023-08-21T07:33:35Z</time>
      </trkpt>
      <trkpt lat="45.70713" lon="6.60773">
        <ele>938</ele>
        <time>2023-08-21T07:33:36Z</time>
      </trkpt>
      <trkpt lat="45.70714" lon="6.60776">
        <ele>938</ele>
        <time>2023-08-21T07:33:37Z</time>
      </trkpt>
      <trkpt lat="45.70716" lon="6.60778">
        <ele>938.6</ele>
        <time>2023-08-21T07:33:38Z</time>
      </trkpt>
      <trkpt lat="45.70717" lon="6.60781">
        <ele>938.8</ele>
        <time>2023-08-21T07:33:39Z</time>
      </trkpt>
      <trkpt lat="45.70719" lon="6.60784">
        <ele>938.8</ele>
        <time>2023-08-21T07:33:40Z</time>
      </trkpt>
      <trkpt lat="45.70719" lon="6.60787">
        <ele>938.8</ele>
        <time>2023-08-21T07:33:41Z</time>
      </trkpt>
      <trkpt lat="45.7072" lon="6.6079">
        <ele>939.4</ele>
        <time>2023-08-21T07:33:42Z</time>
      </trkpt>
      <trkpt lat="45.70721" lon="6.60793">
        <ele>939.6</ele>
        <time>2023-08-21T07:33:43Z</time>
      </trkpt>
      <trkpt lat="45.70721" lon="6.60795">
        <ele>939.6</ele>
        <time>2023-08-21T07:33:44Z</time>
      </trkpt>
      <trkpt lat="45.70722" lon="6.60798">
        <ele>939.6</ele>
        <time>2023-08-21T07:33:45Z</time>
      </trkpt>
      <trkpt lat="45.70722" lon="6.608">
        <ele>939.6</ele>
        <time>2023-08-21T07:33:46Z</time>
      </trkpt>
      <trkpt lat="45.70723" lon="6.60803">
        <ele>940.4</ele>
        <time>2023-08-21T07:33:47Z</time>
      </trkpt>
      <trkpt lat="45.70724" lon="6.60805">
        <ele>940.6</ele>
        <time>2023-08-21T07:33:48Z</time>
      </trkpt>
      <trkpt lat="45.70725" lon="6.60807">
        <ele>940.6</ele>
        <time>2023-08-21T07:33:49Z</time>
      </trkpt>
      <trkpt lat="45.70725" lon="6.60809">
        <ele>940.6</ele>
        <time>2023-08-21T07:33:50Z</time>
      </trkpt>
      <trkpt lat="45.70726" lon="6.60812">
        <ele>941.2</ele>
        <time>2023-08-21T07:33:51Z</time>
      </trkpt>
      <trkpt lat="45.70727" lon="6.60814">
        <ele>941.2</ele>
        <time>2023-08-21T07:33:52Z</time>
      </trkpt>
      <trkpt lat="45.70728" lon="6.60817">
        <ele>941.4</ele>
        <time>2023-08-21T07:33:53Z</time>
      </trkpt>
      <trkpt lat="45.70729" lon="6.60819">
        <ele>941.4</ele>
        <time>2023-08-21T07:33:54Z</time>
      </trkpt>
      <trkpt lat="45.7073" lon="6.60822">
        <ele>941.4</ele>
        <time>2023-08-21T07:33:55Z</time>
      </trkpt>
      <trkpt lat="45.7073" lon="6.60824">
        <ele>942.2</ele>
        <time>2023-08-21T07:33:56Z</time>
      </trkpt>
      <trkpt lat="45.70731" lon="6.60827">
        <ele>942.4</ele>
        <time>2023-08-21T07:33:57Z</time>
      </trkpt>
      <trkpt lat="45.70731" lon="6.60829">
        <ele>942.4</ele>
        <time>2023-08-21T07:33:58Z</time>
      </trkpt>
      <trkpt lat="45.70732" lon="6.60832">
        <ele>942.4</ele>
        <time>2023-08-21T07:33:59Z</time>
      </trkpt>
      <trkpt lat="45.70733" lon="6.60834">
        <ele>942.4</ele>
        <time>2023-08-21T07:34:00Z</time>
      </trkpt>
      <trkpt lat="45.70733" lon="6.60837">
        <ele>943</ele>
        <time>2023-08-21T07:34:01Z</time>
      </trkpt>
      <trkpt lat="45.70734" lon="6.6084">
        <ele>943.2</ele>
        <time>2023-08-21T07:34:02Z</time>
      </trkpt>
      <trkpt lat="45.70734" lon="6.60842">
        <ele>943.2</ele>
        <time>2023-08-21T07:34:03Z</time>
      </trkpt>
      <trkpt lat="45.70734" lon="6.60845">
        <ele>943.2</ele>
        <time>2023-08-21T07:34:04Z</time>
      </trkpt>
      <trkpt lat="45.70735" lon="6.60848">
        <ele>943.8</ele>
        <time>2023-08-21T07:34:05Z</time>
      </trkpt>
      <trkpt lat="45.70735" lon="6.6085">
        <ele>944</ele>
        <time>2023-08-21T07:34:06Z</time>
      </trkpt>
      <trkpt lat="45.70736" lon="6.60853">
        <ele>944</ele>
        <time>2023-08-21T07:34:07Z</time>
      </trkpt>
      <trkpt lat="45.70737" lon="6.60856">
        <ele>944</ele>
        <time>2023-08-21T07:34:08Z</time>
      </trkpt>
      <trkpt lat="45.70737" lon="6.60859">
        <ele>944</ele>
        <time>2023-08-21T07:34:09Z</time>
      </trkpt>
      <trkpt lat="45.70738" lon="6.60862">
        <ele>944.8</ele>
        <time>2023-08-21T07:34:10Z</time>
      </trkpt>
      <trkpt lat="45.70738" lon="6.60865">
        <ele>945</ele>
        <time>2023-08-21T07:34:11Z</time>
      </trkpt>
      <trkpt lat="45.70738" lon="6.60868">
        <ele>945</ele>
        <time>2023-08-21T07:34:12Z</time>
      </trkpt>
      <trkpt lat="45.70738" lon="6.60871">
        <ele>945</ele>
        <time>2023-08-21T07:34:13Z</time>
      </trkpt>
      <trkpt lat="45.70738" lon="6.60875">
        <ele>945.8</ele>
        <time>2023-08-21T07:34:14Z</time>
      </trkpt>
      <trkpt lat="45.70737" lon="6.60878">
        <ele>946</ele>
        <time>2023-08-21T07:34:15Z</time>
      </trkpt>
      <trkpt lat="45.70736" lon="6.60881">
        <ele>946</ele>
        <time>2023-08-21T07:34:16Z</time>
      </trkpt>
      <trkpt lat="45.70736" lon="6.60883">
        <ele>946</ele>
        <time>2023-08-21T07:34:17Z</time>
      </trkpt>
      <trkpt lat="45.70735" lon="6.60885">
        <ele>946</ele>
        <time>2023-08-21T07:34:18Z</time>
      </trkpt>
      <trkpt lat="45.70734" lon="6.60888">
        <ele>946.6</ele>
        <time>2023-08-21T07:34:19Z</time>
      </trkpt>
      <trkpt lat="45.70734" lon="6.60891">
        <ele>946.8</ele>
        <time>2023-08-21T07:34:20Z</time>
      </trkpt>
      <trkpt lat="45.70733" lon="6.60894">
        <ele>946.8</ele>
        <time>2023-08-21T07:34:21Z</time>
      </trkpt>
      <trkpt lat="45.70732" lon="6.60896">
        <ele>946.8</ele>
        <time>2023-08-21T07:34:22Z</time>
      </trkpt>
      <trkpt lat="45.70731" lon="6.60898">
        <ele>947.2</ele>
        <time>2023-08-21T07:34:23Z</time>
      </trkpt>
      <trkpt lat="45.7073" lon="6.60901">
        <ele>947.4</ele>
        <time>2023-08-21T07:34:24Z</time>
      </trkpt>
      <trkpt lat="45.70729" lon="6.60904">
        <ele>947.4</ele>
        <time>2023-08-21T07:34:25Z</time>
      </trkpt>
      <trkpt lat="45.70728" lon="6.60906">
        <ele>947.4</ele>
        <time>2023-08-21T07:34:26Z</time>
      </trkpt>
      <trkpt lat="45.70727" lon="6.60908">
        <ele>947.4</ele>
        <time>2023-08-21T07:34:27Z</time>
      </trkpt>
      <trkpt lat="45.70725" lon="6.60911">
        <ele>948</ele>
        <time>2023-08-21T07:34:28Z</time>
      </trkpt>
      <trkpt lat="45.70724" lon="6.60913">
        <ele>948</ele>
        <time>2023-08-21T07:34:29Z</time>
      </trkpt>
      <trkpt lat="45.70723" lon="6.60915">
        <ele>948</ele>
        <time>2023-08-21T07:34:30Z</time>
      </trkpt>
      <trkpt lat="45.70722" lon="6.60917">
        <ele>948.6</ele>
        <time>2023-08-21T07:34:31Z</time>
      </trkpt>
      <trkpt lat="45.7072" lon="6.60919">
        <ele>948.6</ele>
        <time>2023-08-21T07:34:32Z</time>
      </trkpt>
      <trkpt lat="45.70719" lon="6.60921">
        <ele>948.8</ele>
        <time>2023-08-21T07:34:33Z</time>
      </trkpt>
      <trkpt lat="45.70717" lon="6.60924">
        <ele>948.8</ele>
        <time>2023-08-21T07:34:34Z</time>
      </trkpt>
      <trkpt lat="45.70716" lon="6.60926">
        <ele>948.8</ele>
        <time>2023-08-21T07:34:35Z</time>
      </trkpt>
      <trkpt lat="45.70715" lon="6.60928">
        <ele>948.8</ele>
        <time>2023-08-21T07:34:36Z</time>
      </trkpt>
      <trkpt lat="45.70713" lon="6.60931">
        <ele>949.4</ele>
        <time>2023-08-21T07:34:37Z</time>
      </trkpt>
      <trkpt lat="45.70712" lon="6.60933">
        <ele>949.6</ele>
        <time>2023-08-21T07:34:38Z</time>
      </trkpt>
      <trkpt lat="45.7071" lon="6.60935">
        <ele>949.6</ele>
        <time>2023-08-21T07:34:39Z</time>
      </trkpt>
      <trkpt lat="45.70709" lon="6.60937">
        <ele>949.6</ele>
        <time>2023-08-21T07:34:40Z</time>
      </trkpt>
      <trkpt lat="45.70709" lon="6.6094">
        <ele>949.8</ele>
        <time>2023-08-21T07:34:41Z</time>
      </trkpt>
      <trkpt lat="45.70708" lon="6.60942">
        <ele>949.8</ele>
        <time>2023-08-21T07:34:42Z</time>
      </trkpt>
      <trkpt lat="45.70706" lon="6.60945">
        <ele>950</ele>
        <time>2023-08-21T07:34:43Z</time>
      </trkpt>
      <trkpt lat="45.70705" lon="6.60948">
        <ele>950</ele>
        <time>2023-08-21T07:34:44Z</time>
      </trkpt>
      <trkpt lat="45.70705" lon="6.6095">
        <ele>950</ele>
        <time>2023-08-21T07:34:45Z</time>
      </trkpt>
      <trkpt lat="45.70704" lon="6.60953">
        <ele>950.4</ele>
        <time>2023-08-21T07:34:46Z</time>
      </trkpt>
      <trkpt lat="45.70703" lon="6.60955">
        <ele>950.8</ele>
        <time>2023-08-21T07:34:47Z</time>
      </trkpt>
      <trkpt lat="45.70703" lon="6.60958">
        <ele>950.8</ele>
        <time>2023-08-21T07:34:48Z</time>
      </trkpt>
      <trkpt lat="45.70702" lon="6.6096">
        <ele>950.8</ele>
        <time>2023-08-21T07:34:49Z</time>
      </trkpt>
      <trkpt lat="45.70702" lon="6.60963">
        <ele>951.4</ele>
        <time>2023-08-21T07:34:50Z</time>
      </trkpt>
      <trkpt lat="45.70702" lon="6.60966">
        <ele>951.6</ele>
        <time>2023-08-21T07:34:51Z</time>
      </trkpt>
      <trkpt lat="45.70701" lon="6.60969">
        <ele>951.6</ele>
        <time>2023-08-21T07:34:52Z</time>
      </trkpt>
      <trkpt lat="45.70701" lon="6.60972">
        <ele>951.6</ele>
        <time>2023-08-21T07:34:53Z</time>
      </trkpt>
      <trkpt lat="45.70701" lon="6.60975">
        <ele>951.6</ele>
        <time>2023-08-21T07:34:54Z</time>
      </trkpt>
      <trkpt lat="45.707" lon="6.60978">
        <ele>952.2</ele>
        <time>2023-08-21T07:34:55Z</time>
      </trkpt>
      <trkpt lat="45.70699" lon="6.60981">
        <ele>952.2</ele>
        <time>2023-08-21T07:34:56Z</time>
      </trkpt>
      <trkpt lat="45.70699" lon="6.60984">
        <ele>952.2</ele>
        <time>2023-08-21T07:34:57Z</time>
      </trkpt>
      <trkpt lat="45.70698" lon="6.60987">
        <ele>952.2</ele>
        <time>2023-08-21T07:34:58Z</time>
      </trkpt>
      <trkpt lat="45.70698" lon="6.6099">
        <ele>952.8</ele>
        <time>2023-08-21T07:34:59Z</time>
      </trkpt>
      <trkpt lat="45.70697" lon="6.60993">
        <ele>953.2</ele>
        <time>2023-08-21T07:35:00Z</time>
      </trkpt>
      <trkpt lat="45.70697" lon="6.60996">
        <ele>953.2</ele>
        <time>2023-08-21T07:35:01Z</time>
      </trkpt>
      <trkpt lat="45.70696" lon="6.60999">
        <ele>953.2</ele>
        <time>2023-08-21T07:35:02Z</time>
      </trkpt>
      <trkpt lat="45.70695" lon="6.61001">
        <ele>953.2</ele>
        <time>2023-08-21T07:35:03Z</time>
      </trkpt>
      <trkpt lat="45.70694" lon="6.61003">
        <ele>954</ele>
        <time>2023-08-21T07:35:04Z</time>
      </trkpt>
      <trkpt lat="45.70693" lon="6.61005">
        <ele>954</ele>
        <time>2023-08-21T07:35:05Z</time>
      </trkpt>
      <trkpt lat="45.70693" lon="6.61008">
        <ele>954</ele>
        <time>2023-08-21T07:35:06Z</time>
      </trkpt>
      <trkpt lat="45.70692" lon="6.61011">
        <ele>954</ele>
        <time>2023-08-21T07:35:07Z</time>
      </trkpt>
      <trkpt lat="45.70692" lon="6.61014">
        <ele>954.8</ele>
        <time>2023-08-21T07:35:08Z</time>
      </trkpt>
      <trkpt lat="45.70691" lon="6.61017">
        <ele>955</ele>
        <time>2023-08-21T07:35:09Z</time>
      </trkpt>
      <trkpt lat="45.70691" lon="6.6102">
        <ele>955</ele>
        <time>2023-08-21T07:35:10Z</time>
      </trkpt>
      <trkpt lat="45.7069" lon="6.61023">
        <ele>955</ele>
        <time>2023-08-21T07:35:11Z</time>
      </trkpt>
      <trkpt lat="45.70689" lon="6.61025">
        <ele>955</ele>
        <time>2023-08-21T07:35:12Z</time>
      </trkpt>
      <trkpt lat="45.70689" lon="6.61028">
        <ele>956</ele>
        <time>2023-08-21T07:35:13Z</time>
      </trkpt>
      <trkpt lat="45.70688" lon="6.6103">
        <ele>956</ele>
        <time>2023-08-21T07:35:14Z</time>
      </trkpt>
      <trkpt lat="45.70687" lon="6.61033">
        <ele>956</ele>
        <time>2023-08-21T07:35:15Z</time>
      </trkpt>
      <trkpt lat="45.70687" lon="6.61035">
        <ele>956</ele>
        <time>2023-08-21T07:35:16Z</time>
      </trkpt>
      <trkpt lat="45.70687" lon="6.61038">
        <ele>956</ele>
        <time>2023-08-21T07:35:17Z</time>
      </trkpt>
      <trkpt lat="45.70686" lon="6.61041">
        <ele>956.4</ele>
        <time>2023-08-21T07:35:18Z</time>
      </trkpt>
      <trkpt lat="45.70686" lon="6.61044">
        <ele>956.8</ele>
        <time>2023-08-21T07:35:19Z</time>
      </trkpt>
      <trkpt lat="45.70685" lon="6.61046">
        <ele>956.8</ele>
        <time>2023-08-21T07:35:20Z</time>
      </trkpt>
      <trkpt lat="45.70685" lon="6.61049">
        <ele>956.8</ele>
        <time>2023-08-21T07:35:21Z</time>
      </trkpt>
      <trkpt lat="45.70684" lon="6.61051">
        <ele>957.4</ele>
        <time>2023-08-21T07:35:22Z</time>
      </trkpt>
      <trkpt lat="45.70684" lon="6.61054">
        <ele>957.4</ele>
        <time>2023-08-21T07:35:23Z</time>
      </trkpt>
      <trkpt lat="45.70683" lon="6.61056">
        <ele>957.4</ele>
        <time>2023-08-21T07:35:24Z</time>
      </trkpt>
      <trkpt lat="45.70682" lon="6.61058">
        <ele>957.4</ele>
        <time>2023-08-21T07:35:25Z</time>
      </trkpt>
      <trkpt lat="45.70682" lon="6.61061">
        <ele>957.4</ele>
        <time>2023-08-21T07:35:26Z</time>
      </trkpt>
      <trkpt lat="45.70681" lon="6.61063">
        <ele>958</ele>
        <time>2023-08-21T07:35:27Z</time>
      </trkpt>
      <trkpt lat="45.70681" lon="6.61066">
        <ele>958.4</ele>
        <time>2023-08-21T07:35:28Z</time>
      </trkpt>
      <trkpt lat="45.7068" lon="6.61068">
        <ele>958.4</ele>
        <time>2023-08-21T07:35:29Z</time>
      </trkpt>
      <trkpt lat="45.7068" lon="6.61071">
        <ele>958.4</ele>
        <time>2023-08-21T07:35:30Z</time>
      </trkpt>
      <trkpt lat="45.70679" lon="6.61073">
        <ele>959</ele>
        <time>2023-08-21T07:35:31Z</time>
      </trkpt>
      <trkpt lat="45.70678" lon="6.61076">
        <ele>959.2</ele>
        <time>2023-08-21T07:35:32Z</time>
      </trkpt>
      <trkpt lat="45.70678" lon="6.61079">
        <ele>959.2</ele>
        <time>2023-08-21T07:35:33Z</time>
      </trkpt>
      <trkpt lat="45.70678" lon="6.61082">
        <ele>959.2</ele>
        <time>2023-08-21T07:35:34Z</time>
      </trkpt>
      <trkpt lat="45.70677" lon="6.61085">
        <ele>959.8</ele>
        <time>2023-08-21T07:35:35Z</time>
      </trkpt>
      <trkpt lat="45.70677" lon="6.61088">
        <ele>959.8</ele>
        <time>2023-08-21T07:35:36Z</time>
      </trkpt>
      <trkpt lat="45.70677" lon="6.61091">
        <ele>960.2</ele>
        <time>2023-08-21T07:35:37Z</time>
      </trkpt>
      <trkpt lat="45.70677" lon="6.61094">
        <ele>960.2</ele>
        <time>2023-08-21T07:35:38Z</time>
      </trkpt>
      <trkpt lat="45.70676" lon="6.61097">
        <ele>960.2</ele>
        <time>2023-08-21T07:35:39Z</time>
      </trkpt>
      <trkpt lat="45.70676" lon="6.61099">
        <ele>960.8</ele>
        <time>2023-08-21T07:35:40Z</time>
      </trkpt>
      <trkpt lat="45.70676" lon="6.61102">
        <ele>961</ele>
        <time>2023-08-21T07:35:41Z</time>
      </trkpt>
      <trkpt lat="45.70677" lon="6.61105">
        <ele>961</ele>
        <time>2023-08-21T07:35:42Z</time>
      </trkpt>
      <trkpt lat="45.70677" lon="6.61108">
        <ele>961</ele>
        <time>2023-08-21T07:35:43Z</time>
      </trkpt>
      <trkpt lat="45.70677" lon="6.61111">
        <ele>961</ele>
        <time>2023-08-21T07:35:44Z</time>
      </trkpt>
      <trkpt lat="45.70678" lon="6.61114">
        <ele>961.6</ele>
        <time>2023-08-21T07:35:45Z</time>
      </trkpt>
      <trkpt lat="45.70678" lon="6.61117">
        <ele>961.8</ele>
        <time>2023-08-21T07:35:46Z</time>
      </trkpt>
      <trkpt lat="45.70678" lon="6.61119">
        <ele>961.8</ele>
        <time>2023-08-21T07:35:47Z</time>
      </trkpt>
      <trkpt lat="45.70679" lon="6.61122">
        <ele>961.8</ele>
        <time>2023-08-21T07:35:48Z</time>
      </trkpt>
      <trkpt lat="45.7068" lon="6.61125">
        <ele>962.4</ele>
        <time>2023-08-21T07:35:49Z</time>
      </trkpt>
      <trkpt lat="45.7068" lon="6.61128">
        <ele>962.8</ele>
        <time>2023-08-21T07:35:50Z</time>
      </trkpt>
      <trkpt lat="45.70681" lon="6.6113">
        <ele>962.8</ele>
        <time>2023-08-21T07:35:51Z</time>
      </trkpt>
      <trkpt lat="45.70682" lon="6.61133">
        <ele>962.8</ele>
        <time>2023-08-21T07:35:52Z</time>
      </trkpt>
      <trkpt lat="45.70683" lon="6.61135">
        <ele>963.4</ele>
        <time>2023-08-21T07:35:53Z</time>
      </trkpt>
      <trkpt lat="45.70684" lon="6.61137">
        <ele>963.6</ele>
        <time>2023-08-21T07:35:54Z</time>
      </trkpt>
      <trkpt lat="45.70686" lon="6.6114">
        <ele>963.6</ele>
        <time>2023-08-21T07:35:55Z</time>
      </trkpt>
      <trkpt lat="45.70687" lon="6.61142">
        <ele>963.6</ele>
        <time>2023-08-21T07:35:56Z</time>
      </trkpt>
      <trkpt lat="45.70689" lon="6.61144">
        <ele>963.6</ele>
        <time>2023-08-21T07:35:57Z</time>
      </trkpt>
      <trkpt lat="45.7069" lon="6.61147">
        <ele>964.2</ele>
        <time>2023-08-21T07:35:58Z</time>
      </trkpt>
      <trkpt lat="45.70692" lon="6.61149">
        <ele>964.2</ele>
        <time>2023-08-21T07:35:59Z</time>
      </trkpt>
      <trkpt lat="45.70694" lon="6.61151">
        <ele>964.4</ele>
        <time>2023-08-21T07:36:00Z</time>
      </trkpt>
      <trkpt lat="45.70695" lon="6.61153">
        <ele>964.4</ele>
        <time>2023-08-21T07:36:01Z</time>
      </trkpt>
      <trkpt lat="45.70697" lon="6.61154">
        <ele>964.4</ele>
        <time>2023-08-21T07:36:02Z</time>
      </trkpt>
      <trkpt lat="45.70699" lon="6.61156">
        <ele>965</ele>
        <time>2023-08-21T07:36:03Z</time>
      </trkpt>
      <trkpt lat="45.707" lon="6.61158">
        <ele>965</ele>
        <time>2023-08-21T07:36:04Z</time>
      </trkpt>
      <trkpt lat="45.70702" lon="6.61159">
        <ele>965.4</ele>
        <time>2023-08-21T07:36:05Z</time>
      </trkpt>
      <trkpt lat="45.70705" lon="6.61162">
        <ele>965.4</ele>
        <time>2023-08-21T07:36:06Z</time>
      </trkpt>
      <trkpt lat="45.70706" lon="6.61164">
        <ele>965.4</ele>
        <time>2023-08-21T07:36:07Z</time>
      </trkpt>
      <trkpt lat="45.70707" lon="6.61166">
        <ele>965.8</ele>
        <time>2023-08-21T07:36:08Z</time>
      </trkpt>
      <trkpt lat="45.70708" lon="6.61168">
        <ele>966</ele>
        <time>2023-08-21T07:36:09Z</time>
      </trkpt>
      <trkpt lat="45.70709" lon="6.61171">
        <ele>966</ele>
        <time>2023-08-21T07:36:10Z</time>
      </trkpt>
      <trkpt lat="45.7071" lon="6.61174">
        <ele>966</ele>
        <time>2023-08-21T07:36:11Z</time>
      </trkpt>
      <trkpt lat="45.70711" lon="6.61176">
        <ele>966.6</ele>
        <time>2023-08-21T07:36:12Z</time>
      </trkpt>
      <trkpt lat="45.70712" lon="6.61178">
        <ele>966.8</ele>
        <time>2023-08-21T07:36:13Z</time>
      </trkpt>
      <trkpt lat="45.70713" lon="6.61181">
        <ele>966.8</ele>
        <time>2023-08-21T07:36:14Z</time>
      </trkpt>
      <trkpt lat="45.70714" lon="6.61183">
        <ele>966.8</ele>
        <time>2023-08-21T07:36:15Z</time>
      </trkpt>
      <trkpt lat="45.70714" lon="6.61186">
        <ele>966.8</ele>
        <time>2023-08-21T07:36:16Z</time>
      </trkpt>
      <trkpt lat="45.70715" lon="6.61189">
        <ele>967.4</ele>
        <time>2023-08-21T07:36:17Z</time>
      </trkpt>
      <trkpt lat="45.70715" lon="6.61192">
        <ele>967.6</ele>
        <time>2023-08-21T07:36:18Z</time>
      </trkpt>
      <trkpt lat="45.70716" lon="6.61194">
        <ele>967.6</ele>
        <time>2023-08-21T07:36:19Z</time>
      </trkpt>
      <trkpt lat="45.70717" lon="6.61197">
        <ele>967.6</ele>
        <time>2023-08-21T07:36:20Z</time>
      </trkpt>
      <trkpt lat="45.70717" lon="6.612">
        <ele>968.2</ele>
        <time>2023-08-21T07:36:21Z</time>
      </trkpt>
      <trkpt lat="45.70718" lon="6.61203">
        <ele>968.6</ele>
        <time>2023-08-21T07:36:22Z</time>
      </trkpt>
      <trkpt lat="45.70718" lon="6.61206">
        <ele>968.6</ele>
        <time>2023-08-21T07:36:23Z</time>
      </trkpt>
      <trkpt lat="45.70718" lon="6.61209">
        <ele>968.6</ele>
        <time>2023-08-21T07:36:24Z</time>
      </trkpt>
      <trkpt lat="45.70718" lon="6.61211">
        <ele>968.6</ele>
        <time>2023-08-21T07:36:25Z</time>
      </trkpt>
      <trkpt lat="45.70718" lon="6.61213">
        <ele>969.4</ele>
        <time>2023-08-21T07:36:26Z</time>
      </trkpt>
      <trkpt lat="45.70717" lon="6.61216">
        <ele>969.2</ele>
        <time>2023-08-21T07:36:27Z</time>
      </trkpt>
      <trkpt lat="45.70717" lon="6.6122">
        <ele>969.2</ele>
        <time>2023-08-21T07:36:28Z</time>
      </trkpt>
      <trkpt lat="45.70716" lon="6.61222">
        <ele>969.2</ele>
        <time>2023-08-21T07:36:29Z</time>
      </trkpt>
      <trkpt lat="45.70714" lon="6.61225">
        <ele>970</ele>
        <time>2023-08-21T07:36:30Z</time>
      </trkpt>
      <trkpt lat="45.70713" lon="6.61228">
        <ele>970.6</ele>
        <time>2023-08-21T07:36:31Z</time>
      </trkpt>
      <trkpt lat="45.70712" lon="6.6123">
        <ele>970.6</ele>
        <time>2023-08-21T07:36:32Z</time>
      </trkpt>
      <trkpt lat="45.70711" lon="6.61233">
        <ele>970.6</ele>
        <time>2023-08-21T07:36:33Z</time>
      </trkpt>
      <trkpt lat="45.7071" lon="6.61235">
        <ele>971.2</ele>
        <time>2023-08-21T07:36:34Z</time>
      </trkpt>
      <trkpt lat="45.70709" lon="6.61237">
        <ele>971.4</ele>
        <time>2023-08-21T07:36:35Z</time>
      </trkpt>
      <trkpt lat="45.70708" lon="6.6124">
        <ele>971.4</ele>
        <time>2023-08-21T07:36:36Z</time>
      </trkpt>
      <trkpt lat="45.70708" lon="6.61242">
        <ele>971.4</ele>
        <time>2023-08-21T07:36:37Z</time>
      </trkpt>
      <trkpt lat="45.70707" lon="6.61245">
        <ele>971.4</ele>
        <time>2023-08-21T07:36:38Z</time>
      </trkpt>
      <trkpt lat="45.70707" lon="6.61247">
        <ele>971.8</ele>
        <time>2023-08-21T07:36:39Z</time>
      </trkpt>
      <trkpt lat="45.70707" lon="6.6125">
        <ele>972.2</ele>
        <time>2023-08-21T07:36:40Z</time>
      </trkpt>
      <trkpt lat="45.70707" lon="6.61253">
        <ele>972.2</ele>
        <time>2023-08-21T07:36:41Z</time>
      </trkpt>
      <trkpt lat="45.70707" lon="6.61256">
        <ele>972.2</ele>
        <time>2023-08-21T07:36:42Z</time>
      </trkpt>
      <trkpt lat="45.70707" lon="6.61259">
        <ele>972.2</ele>
        <time>2023-08-21T07:36:43Z</time>
      </trkpt>
      <trkpt lat="45.70707" lon="6.61262">
        <ele>972.8</ele>
        <time>2023-08-21T07:36:44Z</time>
      </trkpt>
      <trkpt lat="45.70708" lon="6.61265">
        <ele>973.2</ele>
        <time>2023-08-21T07:36:45Z</time>
      </trkpt>
      <trkpt lat="45.70709" lon="6.61268">
        <ele>973.2</ele>
        <time>2023-08-21T07:36:46Z</time>
      </trkpt>
      <trkpt lat="45.70709" lon="6.6127">
        <ele>973.2</ele>
        <time>2023-08-21T07:36:47Z</time>
      </trkpt>
      <trkpt lat="45.7071" lon="6.61273">
        <ele>973.8</ele>
        <time>2023-08-21T07:36:48Z</time>
      </trkpt>
      <trkpt lat="45.70711" lon="6.61275">
        <ele>973.8</ele>
        <time>2023-08-21T07:36:49Z</time>
      </trkpt>
      <trkpt lat="45.70712" lon="6.61278">
        <ele>974</ele>
        <time>2023-08-21T07:36:50Z</time>
      </trkpt>
      <trkpt lat="45.70713" lon="6.61281">
        <ele>974</ele>
        <time>2023-08-21T07:36:51Z</time>
      </trkpt>
      <trkpt lat="45.70714" lon="6.61283">
        <ele>974</ele>
        <time>2023-08-21T07:36:52Z</time>
      </trkpt>
      <trkpt lat="45.70714" lon="6.61286">
        <ele>974.6</ele>
        <time>2023-08-21T07:36:53Z</time>
      </trkpt>
      <trkpt lat="45.70714" lon="6.61289">
        <ele>974.8</ele>
        <time>2023-08-21T07:36:54Z</time>
      </trkpt>
      <trkpt lat="45.70715" lon="6.61292">
        <ele>974.8</ele>
        <time>2023-08-21T07:36:55Z</time>
      </trkpt>
      <trkpt lat="45.70715" lon="6.61295">
        <ele>974.8</ele>
        <time>2023-08-21T07:36:56Z</time>
      </trkpt>
      <trkpt lat="45.70715" lon="6.61298">
        <ele>975.4</ele>
        <time>2023-08-21T07:36:57Z</time>
      </trkpt>
      <trkpt lat="45.70715" lon="6.61301">
        <ele>975.6</ele>
        <time>2023-08-21T07:36:58Z</time>
      </trkpt>
      <trkpt lat="45.70714" lon="6.61304">
        <ele>975.6</ele>
        <time>2023-08-21T07:36:59Z</time>
      </trkpt>
      <trkpt lat="45.70713" lon="6.61307">
        <ele>975.6</ele>
        <time>2023-08-21T07:37:00Z</time>
      </trkpt>
      <trkpt lat="45.70712" lon="6.61309">
        <ele>975.6</ele>
        <time>2023-08-21T07:37:01Z</time>
      </trkpt>
      <trkpt lat="45.70711" lon="6.61312">
        <ele>976.6</ele>
        <time>2023-08-21T07:37:02Z</time>
      </trkpt>
      <trkpt lat="45.7071" lon="6.61314">
        <ele>976.8</ele>
        <time>2023-08-21T07:37:03Z</time>
      </trkpt>
      <trkpt lat="45.70709" lon="6.61315">
        <ele>976.8</ele>
        <time>2023-08-21T07:37:04Z</time>
      </trkpt>
      <trkpt lat="45.70707" lon="6.61317">
        <ele>976.8</ele>
        <time>2023-08-21T07:37:05Z</time>
      </trkpt>
      <trkpt lat="45.70705" lon="6.61319">
        <ele>976.8</ele>
        <time>2023-08-21T07:37:06Z</time>
      </trkpt>
      <trkpt lat="45.70704" lon="6.61321">
        <ele>977.6</ele>
        <time>2023-08-21T07:37:07Z</time>
      </trkpt>
      <trkpt lat="45.70702" lon="6.61323">
        <ele>977.6</ele>
        <time>2023-08-21T07:37:08Z</time>
      </trkpt>
      <trkpt lat="45.70701" lon="6.61325">
        <ele>977.6</ele>
        <time>2023-08-21T07:37:09Z</time>
      </trkpt>
      <trkpt lat="45.70699" lon="6.61326">
        <ele>977.6</ele>
        <time>2023-08-21T07:37:10Z</time>
      </trkpt>
      <trkpt lat="45.70697" lon="6.61328">
        <ele>978.2</ele>
        <time>2023-08-21T07:37:11Z</time>
      </trkpt>
      <trkpt lat="45.70696" lon="6.6133">
        <ele>978.6</ele>
        <time>2023-08-21T07:37:12Z</time>
      </trkpt>
      <trkpt lat="45.70695" lon="6.61332">
        <ele>978.6</ele>
        <time>2023-08-21T07:37:13Z</time>
      </trkpt>
      <trkpt lat="45.70693" lon="6.61334">
        <ele>978.6</ele>
        <time>2023-08-21T07:37:14Z</time>
      </trkpt>
      <trkpt lat="45.70691" lon="6.61336">
        <ele>979</ele>
        <time>2023-08-21T07:37:15Z</time>
      </trkpt>
      <trkpt lat="45.7069" lon="6.61338">
        <ele>979.2</ele>
        <time>2023-08-21T07:37:16Z</time>
      </trkpt>
      <trkpt lat="45.70689" lon="6.61341">
        <ele>979.2</ele>
        <time>2023-08-21T07:37:17Z</time>
      </trkpt>
      <trkpt lat="45.70689" lon="6.61343">
        <ele>979.2</ele>
        <time>2023-08-21T07:37:18Z</time>
      </trkpt>
      <trkpt lat="45.70689" lon="6.61345">
        <ele>979.6</ele>
        <time>2023-08-21T07:37:19Z</time>
      </trkpt>
      <trkpt lat="45.70687" lon="6.61348">
        <ele>979.8</ele>
        <time>2023-08-21T07:37:20Z</time>
      </trkpt>
      <trkpt lat="45.70686" lon="6.61349">
        <ele>979.8</ele>
        <time>2023-08-21T07:37:21Z</time>
      </trkpt>
      <trkpt lat="45.70684" lon="6.61351">
        <ele>979.8</ele>
        <time>2023-08-21T07:37:22Z</time>
      </trkpt>
      <trkpt lat="45.70683" lon="6.61353">
        <ele>979.8</ele>
        <time>2023-08-21T07:37:23Z</time>
      </trkpt>
      <trkpt lat="45.70682" lon="6.61355">
        <ele>980.4</ele>
        <time>2023-08-21T07:37:24Z</time>
      </trkpt>
      <trkpt lat="45.7068" lon="6.61357">
        <ele>980.4</ele>
        <time>2023-08-21T07:37:25Z</time>
      </trkpt>
      <trkpt lat="45.70679" lon="6.6136">
        <ele>980.2</ele>
        <time>2023-08-21T07:37:26Z</time>
      </trkpt>
      <trkpt lat="45.70678" lon="6.61363">
        <ele>980.2</ele>
        <time>2023-08-21T07:37:27Z</time>
      </trkpt>
      <trkpt lat="45.70677" lon="6.61366">
        <ele>980.2</ele>
        <time>2023-08-21T07:37:28Z</time>
      </trkpt>
      <trkpt lat="45.70676" lon="6.61369">
        <ele>980.2</ele>
        <time>2023-08-21T07:37:29Z</time>
      </trkpt>
      <trkpt lat="45.70675" lon="6.61372">
        <ele>980.6</ele>
        <time>2023-08-21T07:37:30Z</time>
      </trkpt>
      <trkpt lat="45.70673" lon="6.61376">
        <ele>980.6</ele>
        <time>2023-08-21T07:37:31Z</time>
      </trkpt>
      <trkpt lat="45.70672" lon="6.61379">
        <ele>980.6</ele>
        <time>2023-08-21T07:37:32Z</time>
      </trkpt>
      <trkpt lat="45.70671" lon="6.61383">
        <ele>980.6</ele>
        <time>2023-08-21T07:37:33Z</time>
      </trkpt>
      <trkpt lat="45.7067" lon="6.61387">
        <ele>981</ele>
        <time>2023-08-21T07:37:34Z</time>
      </trkpt>
      <trkpt lat="45.70669" lon="6.61391">
        <ele>981</ele>
        <time>2023-08-21T07:37:35Z</time>
      </trkpt>
      <trkpt lat="45.70667" lon="6.61394">
        <ele>981</ele>
        <time>2023-08-21T07:37:36Z</time>
      </trkpt>
      <trkpt lat="45.70666" lon="6.61398">
        <ele>981</ele>
        <time>2023-08-21T07:37:37Z</time>
      </trkpt>
      <trkpt lat="45.70665" lon="6.61402">
        <ele>981</ele>
        <time>2023-08-21T07:37:38Z</time>
      </trkpt>
      <trkpt lat="45.70663" lon="6.61406">
        <ele>981.4</ele>
        <time>2023-08-21T07:37:39Z</time>
      </trkpt>
      <trkpt lat="45.70662" lon="6.6141">
        <ele>981.4</ele>
        <time>2023-08-21T07:37:40Z</time>
      </trkpt>
      <trkpt lat="45.7066" lon="6.61414">
        <ele>981.4</ele>
        <time>2023-08-21T07:37:41Z</time>
      </trkpt>
      <trkpt lat="45.70659" lon="6.61419">
        <ele>981.4</ele>
        <time>2023-08-21T07:37:42Z</time>
      </trkpt>
      <trkpt lat="45.70657" lon="6.61423">
        <ele>981.8</ele>
        <time>2023-08-21T07:37:43Z</time>
      </trkpt>
      <trkpt lat="45.70656" lon="6.61427">
        <ele>981.8</ele>
        <time>2023-08-21T07:37:44Z</time>
      </trkpt>
      <trkpt lat="45.70654" lon="6.61432">
        <ele>981.8</ele>
        <time>2023-08-21T07:37:45Z</time>
      </trkpt>
      <trkpt lat="45.70653" lon="6.61437">
        <ele>981.8</ele>
        <time>2023-08-21T07:37:46Z</time>
      </trkpt>
      <trkpt lat="45.70651" lon="6.61441">
        <ele>982</ele>
        <time>2023-08-21T07:37:47Z</time>
      </trkpt>
      <trkpt lat="45.7065" lon="6.61446">
        <ele>982.2</ele>
        <time>2023-08-21T07:37:48Z</time>
      </trkpt>
      <trkpt lat="45.70649" lon="6.61451">
        <ele>982.2</ele>
        <time>2023-08-21T07:37:49Z</time>
      </trkpt>
      <trkpt lat="45.70647" lon="6.61457">
        <ele>982.2</ele>
        <time>2023-08-21T07:37:50Z</time>
      </trkpt>
      <trkpt lat="45.70645" lon="6.61462">
        <ele>982.2</ele>
        <time>2023-08-21T07:37:51Z</time>
      </trkpt>
      <trkpt lat="45.70644" lon="6.61467">
        <ele>982.4</ele>
        <time>2023-08-21T07:37:52Z</time>
      </trkpt>
      <trkpt lat="45.70642" lon="6.61473">
        <ele>982.4</ele>
        <time>2023-08-21T07:37:53Z</time>
      </trkpt>
      <trkpt lat="45.70641" lon="6.61479">
        <ele>982.4</ele>
        <time>2023-08-21T07:37:54Z</time>
      </trkpt>
      <trkpt lat="45.70641" lon="6.61485">
        <ele>982.4</ele>
        <time>2023-08-21T07:37:55Z</time>
      </trkpt>
      <trkpt lat="45.70641" lon="6.61491">
        <ele>982.4</ele>
        <time>2023-08-21T07:37:56Z</time>
      </trkpt>
      <trkpt lat="45.7064" lon="6.61497">
        <ele>982.6</ele>
        <time>2023-08-21T07:37:57Z</time>
      </trkpt>
      <trkpt lat="45.7064" lon="6.61502">
        <ele>982.6</ele>
        <time>2023-08-21T07:37:58Z</time>
      </trkpt>
      <trkpt lat="45.7064" lon="6.61508">
        <ele>982.6</ele>
        <time>2023-08-21T07:37:59Z</time>
      </trkpt>
      <trkpt lat="45.7064" lon="6.61514">
        <ele>983</ele>
        <time>2023-08-21T07:38:00Z</time>
      </trkpt>
      <trkpt lat="45.7064" lon="6.61519">
        <ele>983.2</ele>
        <time>2023-08-21T07:38:01Z</time>
      </trkpt>
      <trkpt lat="45.7064" lon="6.61525">
        <ele>983.2</ele>
        <time>2023-08-21T07:38:02Z</time>
      </trkpt>
      <trkpt lat="45.70641" lon="6.61531">
        <ele>983.2</ele>
        <time>2023-08-21T07:38:03Z</time>
      </trkpt>
      <trkpt lat="45.70641" lon="6.61537">
        <ele>983.4</ele>
        <time>2023-08-21T07:38:04Z</time>
      </trkpt>
      <trkpt lat="45.70642" lon="6.61543">
        <ele>983.4</ele>
        <time>2023-08-21T07:38:05Z</time>
      </trkpt>
      <trkpt lat="45.70642" lon="6.61549">
        <ele>983.4</ele>
        <time>2023-08-21T07:38:06Z</time>
      </trkpt>
      <trkpt lat="45.70642" lon="6.61555">
        <ele>983.4</ele>
        <time>2023-08-21T07:38:07Z</time>
      </trkpt>
      <trkpt lat="45.70642" lon="6.61562">
        <ele>983.4</ele>
        <time>2023-08-21T07:38:08Z</time>
      </trkpt>
      <trkpt lat="45.70643" lon="6.61568">
        <ele>983.4</ele>
        <time>2023-08-21T07:38:09Z</time>
      </trkpt>
      <trkpt lat="45.70643" lon="6.61574">
        <ele>984</ele>
        <time>2023-08-21T07:38:10Z</time>
      </trkpt>
      <trkpt lat="45.70643" lon="6.61579">
        <ele>983.8</ele>
        <time>2023-08-21T07:38:11Z</time>
      </trkpt>
      <trkpt lat="45.70643" lon="6.61585">
        <ele>983.8</ele>
        <time>2023-08-21T07:38:12Z</time>
      </trkpt>
      <trkpt lat="45.70643" lon="6.61591">
        <ele>983.8</ele>
        <time>2023-08-21T07:38:13Z</time>
      </trkpt>
      <trkpt lat="45.70643" lon="6.61597">
        <ele>984.4</ele>
        <time>2023-08-21T07:38:14Z</time>
      </trkpt>
      <trkpt lat="45.70642" lon="6.61602">
        <ele>984.4</ele>
        <time>2023-08-21T07:38:15Z</time>
      </trkpt>
      <trkpt lat="45.70642" lon="6.61608">
        <ele>984.4</ele>
        <time>2023-08-21T07:38:16Z</time>
      </trkpt>
      <trkpt lat="45.70642" lon="6.61613">
        <ele>984.4</ele>
        <time>2023-08-21T07:38:17Z</time>
      </trkpt>
      <trkpt lat="45.70642" lon="6.61619">
        <ele>984.4</ele>
        <time>2023-08-21T07:38:18Z</time>
      </trkpt>
      <trkpt lat="45.70643" lon="6.61625">
        <ele>984.8</ele>
        <time>2023-08-21T07:38:19Z</time>
      </trkpt>
      <trkpt lat="45.70643" lon="6.6163">
        <ele>984.8</ele>
        <time>2023-08-21T07:38:20Z</time>
      </trkpt>
      <trkpt lat="45.70645" lon="6.61635">
        <ele>984.8</ele>
        <time>2023-08-21T07:38:21Z</time>
      </trkpt>
      <trkpt lat="45.70644" lon="6.61641">
        <ele>984.8</ele>
        <time>2023-08-21T07:38:22Z</time>
      </trkpt>
      <trkpt lat="45.70644" lon="6.61646">
        <ele>985.2</ele>
        <time>2023-08-21T07:38:23Z</time>
      </trkpt>
      <trkpt lat="45.70643" lon="6.61652">
        <ele>985.2</ele>
        <time>2023-08-21T07:38:24Z</time>
      </trkpt>
      <trkpt lat="45.70643" lon="6.61657">
        <ele>985.2</ele>
        <time>2023-08-21T07:38:25Z</time>
      </trkpt>
      <trkpt lat="45.70643" lon="6.61663">
        <ele>985.2</ele>
        <time>2023-08-21T07:38:26Z</time>
      </trkpt>
      <trkpt lat="45.70642" lon="6.61668">
        <ele>985.6</ele>
        <time>2023-08-21T07:38:27Z</time>
      </trkpt>
      <trkpt lat="45.70642" lon="6.61674">
        <ele>985.6</ele>
        <time>2023-08-21T07:38:28Z</time>
      </trkpt>
      <trkpt lat="45.70641" lon="6.61679">
        <ele>985.6</ele>
        <time>2023-08-21T07:38:29Z</time>
      </trkpt>
      <trkpt lat="45.7064" lon="6.61684">
        <ele>985.6</ele>
        <time>2023-08-21T07:38:30Z</time>
      </trkpt>
      <trkpt lat="45.7064" lon="6.6169">
        <ele>985.6</ele>
        <time>2023-08-21T07:38:31Z</time>
      </trkpt>
      <trkpt lat="45.7064" lon="6.61695">
        <ele>986</ele>
        <time>2023-08-21T07:38:32Z</time>
      </trkpt>
      <trkpt lat="45.70639" lon="6.61701">
        <ele>986</ele>
        <time>2023-08-21T07:38:33Z</time>
      </trkpt>
      <trkpt lat="45.70638" lon="6.61706">
        <ele>986</ele>
        <time>2023-08-21T07:38:34Z</time>
      </trkpt>
      <trkpt lat="45.70638" lon="6.61711">
        <ele>986</ele>
        <time>2023-08-21T07:38:35Z</time>
      </trkpt>
      <trkpt lat="45.70637" lon="6.61716">
        <ele>986.4</ele>
        <time>2023-08-21T07:38:36Z</time>
      </trkpt>
      <trkpt lat="45.70637" lon="6.61722">
        <ele>986.6</ele>
        <time>2023-08-21T07:38:37Z</time>
      </trkpt>
      <trkpt lat="45.70636" lon="6.61727">
        <ele>986.6</ele>
        <time>2023-08-21T07:38:38Z</time>
      </trkpt>
      <trkpt lat="45.70636" lon="6.61732">
        <ele>986.6</ele>
        <time>2023-08-21T07:38:39Z</time>
      </trkpt>
      <trkpt lat="45.70635" lon="6.61737">
        <ele>986.6</ele>
        <time>2023-08-21T07:38:40Z</time>
      </trkpt>
      <trkpt lat="45.70635" lon="6.61743">
        <ele>986.6</ele>
        <time>2023-08-21T07:38:41Z</time>
      </trkpt>
      <trkpt lat="45.70634" lon="6.61748">
        <ele>986.6</ele>
        <time>2023-08-21T07:38:42Z</time>
      </trkpt>
      <trkpt lat="45.70634" lon="6.61753">
        <ele>986.6</ele>
        <time>2023-08-21T07:38:43Z</time>
      </trkpt>
      <trkpt lat="45.70633" lon="6.61759">
        <ele>986.6</ele>
        <time>2023-08-21T07:38:44Z</time>
      </trkpt>
      <trkpt lat="45.70632" lon="6.61765">
        <ele>986.6</ele>
        <time>2023-08-21T07:38:45Z</time>
      </trkpt>
      <trkpt lat="45.70632" lon="6.6177">
        <ele>987.2</ele>
        <time>2023-08-21T07:38:46Z</time>
      </trkpt>
      <trkpt lat="45.70631" lon="6.61776">
        <ele>987.2</ele>
        <time>2023-08-21T07:38:47Z</time>
      </trkpt>
      <trkpt lat="45.70631" lon="6.61781">
        <ele>987.2</ele>
        <time>2023-08-21T07:38:48Z</time>
      </trkpt>
      <trkpt lat="45.70631" lon="6.61787">
        <ele>987.8</ele>
        <time>2023-08-21T07:38:49Z</time>
      </trkpt>
      <trkpt lat="45.7063" lon="6.61792">
        <ele>987.8</ele>
        <time>2023-08-21T07:38:50Z</time>
      </trkpt>
      <trkpt lat="45.7063" lon="6.61798">
        <ele>987.8</ele>
        <time>2023-08-21T07:38:51Z</time>
      </trkpt>
      <trkpt lat="45.70629" lon="6.61803">
        <ele>987.8</ele>
        <time>2023-08-21T07:38:52Z</time>
      </trkpt>
      <trkpt lat="45.70629" lon="6.61808">
        <ele>987.8</ele>
        <time>2023-08-21T07:38:53Z</time>
      </trkpt>
      <trkpt lat="45.70628" lon="6.61813">
        <ele>987.8</ele>
        <time>2023-08-21T07:38:54Z</time>
      </trkpt>
      <trkpt lat="45.70627" lon="6.61818">
        <ele>987.8</ele>
        <time>2023-08-21T07:38:55Z</time>
      </trkpt>
      <trkpt lat="45.70626" lon="6.61823">
        <ele>988.6</ele>
        <time>2023-08-21T07:38:56Z</time>
      </trkpt>
      <trkpt lat="45.70625" lon="6.61828">
        <ele>988.6</ele>
        <time>2023-08-21T07:38:57Z</time>
      </trkpt>
      <trkpt lat="45.70624" lon="6.61832">
        <ele>988.6</ele>
        <time>2023-08-21T07:38:58Z</time>
      </trkpt>
      <trkpt lat="45.70623" lon="6.61837">
        <ele>989.2</ele>
        <time>2023-08-21T07:38:59Z</time>
      </trkpt>
      <trkpt lat="45.70622" lon="6.61841">
        <ele>989.4</ele>
        <time>2023-08-21T07:39:00Z</time>
      </trkpt>
      <trkpt lat="45.70621" lon="6.61846">
        <ele>989.4</ele>
        <time>2023-08-21T07:39:01Z</time>
      </trkpt>
      <trkpt lat="45.7062" lon="6.6185">
        <ele>989.4</ele>
        <time>2023-08-21T07:39:02Z</time>
      </trkpt>
      <trkpt lat="45.70619" lon="6.61855">
        <ele>989.4</ele>
        <time>2023-08-21T07:39:03Z</time>
      </trkpt>
      <trkpt lat="45.70618" lon="6.61859">
        <ele>989.6</ele>
        <time>2023-08-21T07:39:04Z</time>
      </trkpt>
      <trkpt lat="45.70616" lon="6.61863">
        <ele>989.8</ele>
        <time>2023-08-21T07:39:05Z</time>
      </trkpt>
      <trkpt lat="45.70615" lon="6.61868">
        <ele>989.8</ele>
        <time>2023-08-21T07:39:06Z</time>
      </trkpt>
      <trkpt lat="45.70613" lon="6.61872">
        <ele>989.8</ele>
        <time>2023-08-21T07:39:07Z</time>
      </trkpt>
      <trkpt lat="45.70611" lon="6.61876">
        <ele>990</ele>
        <time>2023-08-21T07:39:08Z</time>
      </trkpt>
      <trkpt lat="45.7061" lon="6.6188">
        <ele>990.2</ele>
        <time>2023-08-21T07:39:09Z</time>
      </trkpt>
      <trkpt lat="45.7061" lon="6.61884">
        <ele>990.2</ele>
        <time>2023-08-21T07:39:10Z</time>
      </trkpt>
      <trkpt lat="45.70608" lon="6.61889">
        <ele>990.2</ele>
        <time>2023-08-21T07:39:11Z</time>
      </trkpt>
      <trkpt lat="45.70608" lon="6.61892">
        <ele>991.2</ele>
        <time>2023-08-21T07:39:12Z</time>
      </trkpt>
      <trkpt lat="45.70606" lon="6.61896">
        <ele>991.2</ele>
        <time>2023-08-21T07:39:13Z</time>
      </trkpt>
      <trkpt lat="45.70605" lon="6.61899">
        <ele>991.2</ele>
        <time>2023-08-21T07:39:14Z</time>
      </trkpt>
      <trkpt lat="45.70604" lon="6.61902">
        <ele>991.2</ele>
        <time>2023-08-21T07:39:15Z</time>
      </trkpt>
      <trkpt lat="45.70602" lon="6.61905">
        <ele>991.2</ele>
        <time>2023-08-21T07:39:16Z</time>
      </trkpt>
      <trkpt lat="45.70601" lon="6.61908">
        <ele>991.8</ele>
        <time>2023-08-21T07:39:17Z</time>
      </trkpt>
      <trkpt lat="45.706" lon="6.61912">
        <ele>991.8</ele>
        <time>2023-08-21T07:39:18Z</time>
      </trkpt>
      <trkpt lat="45.70599" lon="6.61916">
        <ele>991.8</ele>
        <time>2023-08-21T07:39:19Z</time>
      </trkpt>
      <trkpt lat="45.70596" lon="6.6192">
        <ele>991.8</ele>
        <time>2023-08-21T07:39:20Z</time>
      </trkpt>
      <trkpt lat="45.70595" lon="6.61923">
        <ele>992.2</ele>
        <time>2023-08-21T07:39:21Z</time>
      </trkpt>
      <trkpt lat="45.70594" lon="6.61926">
        <ele>992.2</ele>
        <time>2023-08-21T07:39:22Z</time>
      </trkpt>
      <trkpt lat="45.70591" lon="6.6193">
        <ele>992.2</ele>
        <time>2023-08-21T07:39:23Z</time>
      </trkpt>
      <trkpt lat="45.70588" lon="6.61932">
        <ele>992.2</ele>
        <time>2023-08-21T07:39:24Z</time>
      </trkpt>
      <trkpt lat="45.70585" lon="6.61935">
        <ele>992.4</ele>
        <time>2023-08-21T07:39:25Z</time>
      </trkpt>
      <trkpt lat="45.70581" lon="6.61938">
        <ele>992.4</ele>
        <time>2023-08-21T07:39:26Z</time>
      </trkpt>
      <trkpt lat="45.70578" lon="6.61941">
        <ele>992.4</ele>
        <time>2023-08-21T07:39:27Z</time>
      </trkpt>
      <trkpt lat="45.70575" lon="6.61944">
        <ele>992.4</ele>
        <time>2023-08-21T07:39:28Z</time>
      </trkpt>
      <trkpt lat="45.70571" lon="6.61947">
        <ele>992.4</ele>
        <time>2023-08-21T07:39:29Z</time>
      </trkpt>
      <trkpt lat="45.70568" lon="6.6195">
        <ele>992.4</ele>
        <time>2023-08-21T07:39:30Z</time>
      </trkpt>
      <trkpt lat="45.70564" lon="6.61953">
        <ele>992.6</ele>
        <time>2023-08-21T07:39:31Z</time>
      </trkpt>
      <trkpt lat="45.7056" lon="6.61957">
        <ele>992.6</ele>
        <time>2023-08-21T07:39:32Z</time>
      </trkpt>
      <trkpt lat="45.70557" lon="6.61961">
        <ele>992.6</ele>
        <time>2023-08-21T07:39:33Z</time>
      </trkpt>
      <trkpt lat="45.70553" lon="6.61964">
        <ele>992.6</ele>
        <time>2023-08-21T07:39:34Z</time>
      </trkpt>
      <trkpt lat="45.7055" lon="6.61967">
        <ele>992.8</ele>
        <time>2023-08-21T07:39:35Z</time>
      </trkpt>
      <trkpt lat="45.70546" lon="6.6197">
        <ele>993</ele>
        <time>2023-08-21T07:39:36Z</time>
      </trkpt>
      <trkpt lat="45.70543" lon="6.61973">
        <ele>993</ele>
        <time>2023-08-21T07:39:37Z</time>
      </trkpt>
      <trkpt lat="45.70539" lon="6.61976">
        <ele>993</ele>
        <time>2023-08-21T07:39:38Z</time>
      </trkpt>
      <trkpt lat="45.70535" lon="6.61979">
        <ele>993</ele>
        <time>2023-08-21T07:39:39Z</time>
      </trkpt>
      <trkpt lat="45.70531" lon="6.61982">
        <ele>993</ele>
        <time>2023-08-21T07:39:40Z</time>
      </trkpt>
      <trkpt lat="45.70527" lon="6.61984">
        <ele>993</ele>
        <time>2023-08-21T07:39:41Z</time>
      </trkpt>
      <trkpt lat="45.70523" lon="6.61985">
        <ele>993</ele>
        <time>2023-08-21T07:39:42Z</time>
      </trkpt>
      <trkpt lat="45.7052" lon="6.61987">
        <ele>993</ele>
        <time>2023-08-21T07:39:43Z</time>
      </trkpt>
      <trkpt lat="45.70516" lon="6.61989">
        <ele>993</ele>
        <time>2023-08-21T07:39:44Z</time>
      </trkpt>
      <trkpt lat="45.70513" lon="6.61991">
        <ele>993.6</ele>
        <time>2023-08-21T07:39:45Z</time>
      </trkpt>
      <trkpt lat="45.70509" lon="6.61992">
        <ele>993.6</ele>
        <time>2023-08-21T07:39:46Z</time>
      </trkpt>
      <trkpt lat="45.70505" lon="6.61994">
        <ele>993.6</ele>
        <time>2023-08-21T07:39:47Z</time>
      </trkpt>
      <trkpt lat="45.70501" lon="6.61996">
        <ele>993.8</ele>
        <time>2023-08-21T07:39:48Z</time>
      </trkpt>
      <trkpt lat="45.70497" lon="6.61998">
        <ele>993.8</ele>
        <time>2023-08-21T07:39:49Z</time>
      </trkpt>
      <trkpt lat="45.70493" lon="6.62">
        <ele>993.8</ele>
        <time>2023-08-21T07:39:50Z</time>
      </trkpt>
      <trkpt lat="45.7049" lon="6.62002">
        <ele>993.8</ele>
        <time>2023-08-21T07:39:51Z</time>
      </trkpt>
      <trkpt lat="45.70486" lon="6.62004">
        <ele>993.8</ele>
        <time>2023-08-21T07:39:52Z</time>
      </trkpt>
      <trkpt lat="45.70482" lon="6.62005">
        <ele>994</ele>
        <time>2023-08-21T07:39:53Z</time>
      </trkpt>
      <trkpt lat="45.70478" lon="6.62008">
        <ele>994</ele>
        <time>2023-08-21T07:39:54Z</time>
      </trkpt>
      <trkpt lat="45.70474" lon="6.62011">
        <ele>994</ele>
        <time>2023-08-21T07:39:55Z</time>
      </trkpt>
      <trkpt lat="45.7047" lon="6.62014">
        <ele>994</ele>
        <time>2023-08-21T07:39:56Z</time>
      </trkpt>
      <trkpt lat="45.70467" lon="6.62016">
        <ele>994</ele>
        <time>2023-08-21T07:39:57Z</time>
      </trkpt>
      <trkpt lat="45.70463" lon="6.6202">
        <ele>994.2</ele>
        <time>2023-08-21T07:39:58Z</time>
      </trkpt>
      <trkpt lat="45.70459" lon="6.62021">
        <ele>994.2</ele>
        <time>2023-08-21T07:39:59Z</time>
      </trkpt>
      <trkpt lat="45.70456" lon="6.62023">
        <ele>994.2</ele>
        <time>2023-08-21T07:40:00Z</time>
      </trkpt>
      <trkpt lat="45.70452" lon="6.62024">
        <ele>994.2</ele>
        <time>2023-08-21T07:40:01Z</time>
      </trkpt>
      <trkpt lat="45.70449" lon="6.62026">
        <ele>995.2</ele>
        <time>2023-08-21T07:40:02Z</time>
      </trkpt>
      <trkpt lat="45.70445" lon="6.62027">
        <ele>995.2</ele>
        <time>2023-08-21T07:40:03Z</time>
      </trkpt>
      <trkpt lat="45.70442" lon="6.62028">
        <ele>995.2</ele>
        <time>2023-08-21T07:40:04Z</time>
      </trkpt>
      <trkpt lat="45.70439" lon="6.62029">
        <ele>995.2</ele>
        <time>2023-08-21T07:40:05Z</time>
      </trkpt>
      <trkpt lat="45.70436" lon="6.62031">
        <ele>995.2</ele>
        <time>2023-08-21T07:40:06Z</time>
      </trkpt>
      <trkpt lat="45.70432" lon="6.62034">
        <ele>995.4</ele>
        <time>2023-08-21T07:40:07Z</time>
      </trkpt>
      <trkpt lat="45.70429" lon="6.62035">
        <ele>995.4</ele>
        <time>2023-08-21T07:40:08Z</time>
      </trkpt>
      <trkpt lat="45.70425" lon="6.62037">
        <ele>995.4</ele>
        <time>2023-08-21T07:40:09Z</time>
      </trkpt>
      <trkpt lat="45.70422" lon="6.62039">
        <ele>995.8</ele>
        <time>2023-08-21T07:40:10Z</time>
      </trkpt>
      <trkpt lat="45.70419" lon="6.62041">
        <ele>996</ele>
        <time>2023-08-21T07:40:11Z</time>
      </trkpt>
      <trkpt lat="45.70416" lon="6.62043">
        <ele>996</ele>
        <time>2023-08-21T07:40:12Z</time>
      </trkpt>
      <trkpt lat="45.70413" lon="6.62044">
        <ele>996</ele>
        <time>2023-08-21T07:40:13Z</time>
      </trkpt>
      <trkpt lat="45.7041" lon="6.62046">
        <ele>996.6</ele>
        <time>2023-08-21T07:40:14Z</time>
      </trkpt>
      <trkpt lat="45.70407" lon="6.62047">
        <ele>996.6</ele>
        <time>2023-08-21T07:40:15Z</time>
      </trkpt>
      <trkpt lat="45.70405" lon="6.62048">
        <ele>996.8</ele>
        <time>2023-08-21T07:40:16Z</time>
      </trkpt>
      <trkpt lat="45.70402" lon="6.62049">
        <ele>996.8</ele>
        <time>2023-08-21T07:40:17Z</time>
      </trkpt>
      <trkpt lat="45.70399" lon="6.6205">
        <ele>996.8</ele>
        <time>2023-08-21T07:40:18Z</time>
      </trkpt>
      <trkpt lat="45.70396" lon="6.62052">
        <ele>996.8</ele>
        <time>2023-08-21T07:40:19Z</time>
      </trkpt>
      <trkpt lat="45.70392" lon="6.62053">
        <ele>997.4</ele>
        <time>2023-08-21T07:40:20Z</time>
      </trkpt>
      <trkpt lat="45.7039" lon="6.62055">
        <ele>997.6</ele>
        <time>2023-08-21T07:40:21Z</time>
      </trkpt>
      <trkpt lat="45.70387" lon="6.62057">
        <ele>997.6</ele>
        <time>2023-08-21T07:40:22Z</time>
      </trkpt>
      <trkpt lat="45.70384" lon="6.62059">
        <ele>997.6</ele>
        <time>2023-08-21T07:40:23Z</time>
      </trkpt>
      <trkpt lat="45.70381" lon="6.6206">
        <ele>998.2</ele>
        <time>2023-08-21T07:40:24Z</time>
      </trkpt>
      <trkpt lat="45.70379" lon="6.62062">
        <ele>998.4</ele>
        <time>2023-08-21T07:40:25Z</time>
      </trkpt>
      <trkpt lat="45.70376" lon="6.62063">
        <ele>998.4</ele>
        <time>2023-08-21T07:40:26Z</time>
      </trkpt>
      <trkpt lat="45.70373" lon="6.62065">
        <ele>998.4</ele>
        <time>2023-08-21T07:40:27Z</time>
      </trkpt>
      <trkpt lat="45.7037" lon="6.62066">
        <ele>998.4</ele>
        <time>2023-08-21T07:40:28Z</time>
      </trkpt>
      <trkpt lat="45.70367" lon="6.62067">
        <ele>999.2</ele>
        <time>2023-08-21T07:40:29Z</time>
      </trkpt>
      <trkpt lat="45.70365" lon="6.62069">
        <ele>999.4</ele>
        <time>2023-08-21T07:40:30Z</time>
      </trkpt>
      <trkpt lat="45.70362" lon="6.6207">
        <ele>999.4</ele>
        <time>2023-08-21T07:40:31Z</time>
      </trkpt>
      <trkpt lat="45.7036" lon="6.62072">
        <ele>999.4</ele>
        <time>2023-08-21T07:40:32Z</time>
      </trkpt>
      <trkpt lat="45.70358" lon="6.62074">
        <ele>1000</ele>
        <time>2023-08-21T07:40:33Z</time>
      </trkpt>
      <trkpt lat="45.70356" lon="6.62077">
        <ele>1000</ele>
        <time>2023-08-21T07:40:34Z</time>
      </trkpt>
      <trkpt lat="45.70354" lon="6.6208">
        <ele>1000</ele>
        <time>2023-08-21T07:40:35Z</time>
      </trkpt>
      <trkpt lat="45.70353" lon="6.62084">
        <ele>1000</ele>
        <time>2023-08-21T07:40:36Z</time>
      </trkpt>
      <trkpt lat="45.70352" lon="6.62086">
        <ele>1000.4</ele>
        <time>2023-08-21T07:40:37Z</time>
      </trkpt>
      <trkpt lat="45.7035" lon="6.62091">
        <ele>1000.4</ele>
        <time>2023-08-21T07:40:38Z</time>
      </trkpt>
      <trkpt lat="45.70349" lon="6.62096">
        <ele>1000.4</ele>
        <time>2023-08-21T07:40:39Z</time>
      </trkpt>
      <trkpt lat="45.70349" lon="6.62099">
        <ele>1000.4</ele>
        <time>2023-08-21T07:40:40Z</time>
      </trkpt>
      <trkpt lat="45.70349" lon="6.62104">
        <ele>1000.4</ele>
        <time>2023-08-21T07:40:41Z</time>
      </trkpt>
      <trkpt lat="45.7035" lon="6.62108">
        <ele>1000.8</ele>
        <time>2023-08-21T07:40:42Z</time>
      </trkpt>
      <trkpt lat="45.70351" lon="6.62113">
        <ele>1000.8</ele>
        <time>2023-08-21T07:40:43Z</time>
      </trkpt>
      <trkpt lat="45.70352" lon="6.62117">
        <ele>1000.8</ele>
        <time>2023-08-21T07:40:44Z</time>
      </trkpt>
      <trkpt lat="45.70354" lon="6.62121">
        <ele>1000.8</ele>
        <time>2023-08-21T07:40:45Z</time>
      </trkpt>
      <trkpt lat="45.70355" lon="6.62125">
        <ele>1001.4</ele>
        <time>2023-08-21T07:40:46Z</time>
      </trkpt>
      <trkpt lat="45.70357" lon="6.62129">
        <ele>1001.8</ele>
        <time>2023-08-21T07:40:47Z</time>
      </trkpt>
      <trkpt lat="45.70359" lon="6.62132">
        <ele>1001.8</ele>
        <time>2023-08-21T07:40:48Z</time>
      </trkpt>
      <trkpt lat="45.70361" lon="6.62135">
        <ele>1001.8</ele>
        <time>2023-08-21T07:40:49Z</time>
      </trkpt>
      <trkpt lat="45.70363" lon="6.62138">
        <ele>1002.2</ele>
        <time>2023-08-21T07:40:50Z</time>
      </trkpt>
      <trkpt lat="45.70365" lon="6.62141">
        <ele>1002.2</ele>
        <time>2023-08-21T07:40:51Z</time>
      </trkpt>
      <trkpt lat="45.70367" lon="6.62144">
        <ele>1002.2</ele>
        <time>2023-08-21T07:40:52Z</time>
      </trkpt>
      <trkpt lat="45.70369" lon="6.62147">
        <ele>1002.2</ele>
        <time>2023-08-21T07:40:53Z</time>
      </trkpt>
      <trkpt lat="45.7037" lon="6.6215">
        <ele>1002.2</ele>
        <time>2023-08-21T07:40:54Z</time>
      </trkpt>
      <trkpt lat="45.70371" lon="6.62154">
        <ele>1003.2</ele>
        <time>2023-08-21T07:40:55Z</time>
      </trkpt>
      <trkpt lat="45.70372" lon="6.62158">
        <ele>1003</ele>
        <time>2023-08-21T07:40:56Z</time>
      </trkpt>
      <trkpt lat="45.70373" lon="6.62161">
        <ele>1003</ele>
        <time>2023-08-21T07:40:57Z</time>
      </trkpt>
      <trkpt lat="45.70373" lon="6.62165">
        <ele>1003</ele>
        <time>2023-08-21T07:40:58Z</time>
      </trkpt>
      <trkpt lat="45.70374" lon="6.62168">
        <ele>1003</ele>
        <time>2023-08-21T07:40:59Z</time>
      </trkpt>
      <trkpt lat="45.70375" lon="6.62171">
        <ele>1003.8</ele>
        <time>2023-08-21T07:41:00Z</time>
      </trkpt>
      <trkpt lat="45.70376" lon="6.62174">
        <ele>1003.8</ele>
        <time>2023-08-21T07:41:01Z</time>
      </trkpt>
      <trkpt lat="45.70376" lon="6.62177">
        <ele>1003.8</ele>
        <time>2023-08-21T07:41:02Z</time>
      </trkpt>
      <trkpt lat="45.70376" lon="6.62181">
        <ele>1003.8</ele>
        <time>2023-08-21T07:41:03Z</time>
      </trkpt>
      <trkpt lat="45.70376" lon="6.62184">
        <ele>1003.8</ele>
        <time>2023-08-21T07:41:04Z</time>
      </trkpt>
      <trkpt lat="45.70376" lon="6.62188">
        <ele>1004.2</ele>
        <time>2023-08-21T07:41:05Z</time>
      </trkpt>
      <trkpt lat="45.70375" lon="6.62191">
        <ele>1004.6</ele>
        <time>2023-08-21T07:41:06Z</time>
      </trkpt>
      <trkpt lat="45.70375" lon="6.62194">
        <ele>1004.6</ele>
        <time>2023-08-21T07:41:07Z</time>
      </trkpt>
      <trkpt lat="45.70374" lon="6.62197">
        <ele>1004.6</ele>
        <time>2023-08-21T07:41:08Z</time>
      </trkpt>
      <trkpt lat="45.70374" lon="6.62201">
        <ele>1004.6</ele>
        <time>2023-08-21T07:41:09Z</time>
      </trkpt>
      <trkpt lat="45.70373" lon="6.62205">
        <ele>1005.4</ele>
        <time>2023-08-21T07:41:10Z</time>
      </trkpt>
      <trkpt lat="45.70373" lon="6.62208">
        <ele>1005.4</ele>
        <time>2023-08-21T07:41:11Z</time>
      </trkpt>
      <trkpt lat="45.70372" lon="6.62211">
        <ele>1005.4</ele>
        <time>2023-08-21T07:41:12Z</time>
      </trkpt>
      <trkpt lat="45.70372" lon="6.62215">
        <ele>1005.4</ele>
        <time>2023-08-21T07:41:13Z</time>
      </trkpt>
      <trkpt lat="45.70371" lon="6.62217">
        <ele>1006.2</ele>
        <time>2023-08-21T07:41:14Z</time>
      </trkpt>
      <trkpt lat="45.7037" lon="6.62221">
        <ele>1006.2</ele>
        <time>2023-08-21T07:41:15Z</time>
      </trkpt>
      <trkpt lat="45.7037" lon="6.62224">
        <ele>1006.2</ele>
        <time>2023-08-21T07:41:16Z</time>
      </trkpt>
      <trkpt lat="45.7037" lon="6.62228">
        <ele>1006.2</ele>
        <time>2023-08-21T07:41:17Z</time>
      </trkpt>
      <trkpt lat="45.7037" lon="6.62231">
        <ele>1006.8</ele>
        <time>2023-08-21T07:41:18Z</time>
      </trkpt>
      <trkpt lat="45.7037" lon="6.62235">
        <ele>1006.8</ele>
        <time>2023-08-21T07:41:19Z</time>
      </trkpt>
      <trkpt lat="45.70369" lon="6.62239">
        <ele>1006.8</ele>
        <time>2023-08-21T07:41:20Z</time>
      </trkpt>
      <trkpt lat="45.70369" lon="6.62242">
        <ele>1006.8</ele>
        <time>2023-08-21T07:41:21Z</time>
      </trkpt>
      <trkpt lat="45.70368" lon="6.62245">
        <ele>1007.6</ele>
        <time>2023-08-21T07:41:22Z</time>
      </trkpt>
      <trkpt lat="45.70368" lon="6.62248">
        <ele>1008</ele>
        <time>2023-08-21T07:41:23Z</time>
      </trkpt>
      <trkpt lat="45.70367" lon="6.62252">
        <ele>1008</ele>
        <time>2023-08-21T07:41:24Z</time>
      </trkpt>
      <trkpt lat="45.70367" lon="6.62255">
        <ele>1008</ele>
        <time>2023-08-21T07:41:25Z</time>
      </trkpt>
      <trkpt lat="45.70366" lon="6.62259">
        <ele>1008</ele>
        <time>2023-08-21T07:41:26Z</time>
      </trkpt>
      <trkpt lat="45.70366" lon="6.62262">
        <ele>1009</ele>
        <time>2023-08-21T07:41:27Z</time>
      </trkpt>
      <trkpt lat="45.70366" lon="6.62266">
        <ele>1009.4</ele>
        <time>2023-08-21T07:41:28Z</time>
      </trkpt>
      <trkpt lat="45.70366" lon="6.62269">
        <ele>1009.4</ele>
        <time>2023-08-21T07:41:29Z</time>
      </trkpt>
      <trkpt lat="45.70366" lon="6.62273">
        <ele>1009.4</ele>
        <time>2023-08-21T07:41:30Z</time>
      </trkpt>
      <trkpt lat="45.70365" lon="6.62277">
        <ele>1009.4</ele>
        <time>2023-08-21T07:41:31Z</time>
      </trkpt>
      <trkpt lat="45.70365" lon="6.62281">
        <ele>1010.4</ele>
        <time>2023-08-21T07:41:32Z</time>
      </trkpt>
      <trkpt lat="45.70366" lon="6.62284">
        <ele>1010.4</ele>
        <time>2023-08-21T07:41:33Z</time>
      </trkpt>
      <trkpt lat="45.70366" lon="6.62288">
        <ele>1010.4</ele>
        <time>2023-08-21T07:41:34Z</time>
      </trkpt>
      <trkpt lat="45.70366" lon="6.62291">
        <ele>1010.4</ele>
        <time>2023-08-21T07:41:35Z</time>
      </trkpt>
      <trkpt lat="45.70366" lon="6.62294">
        <ele>1011</ele>
        <time>2023-08-21T07:41:36Z</time>
      </trkpt>
      <trkpt lat="45.70366" lon="6.62298">
        <ele>1011.2</ele>
        <time>2023-08-21T07:41:37Z</time>
      </trkpt>
      <trkpt lat="45.70366" lon="6.62301">
        <ele>1011.2</ele>
        <time>2023-08-21T07:41:38Z</time>
      </trkpt>
      <trkpt lat="45.70367" lon="6.62304">
        <ele>1011.2</ele>
        <time>2023-08-21T07:41:39Z</time>
      </trkpt>
      <trkpt lat="45.70368" lon="6.62307">
        <ele>1011.2</ele>
        <time>2023-08-21T07:41:40Z</time>
      </trkpt>
      <trkpt lat="45.7037" lon="6.6231">
        <ele>1012</ele>
        <time>2023-08-21T07:41:41Z</time>
      </trkpt>
      <trkpt lat="45.7037" lon="6.62313">
        <ele>1012.2</ele>
        <time>2023-08-21T07:41:42Z</time>
      </trkpt>
      <trkpt lat="45.70371" lon="6.62316">
        <ele>1012.2</ele>
        <time>2023-08-21T07:41:43Z</time>
      </trkpt>
      <trkpt lat="45.70372" lon="6.62319">
        <ele>1012.2</ele>
        <time>2023-08-21T07:41:44Z</time>
      </trkpt>
      <trkpt lat="45.70373" lon="6.62321">
        <ele>1012.8</ele>
        <time>2023-08-21T07:41:45Z</time>
      </trkpt>
      <trkpt lat="45.70374" lon="6.62324">
        <ele>1012.8</ele>
        <time>2023-08-21T07:41:46Z</time>
      </trkpt>
      <trkpt lat="45.70375" lon="6.62327">
        <ele>1012.8</ele>
        <time>2023-08-21T07:41:47Z</time>
      </trkpt>
      <trkpt lat="45.70376" lon="6.62329">
        <ele>1012.8</ele>
        <time>2023-08-21T07:41:48Z</time>
      </trkpt>
      <trkpt lat="45.70378" lon="6.62332">
        <ele>1012.8</ele>
        <time>2023-08-21T07:41:49Z</time>
      </trkpt>
      <trkpt lat="45.70379" lon="6.62335">
        <ele>1013.4</ele>
        <time>2023-08-21T07:41:50Z</time>
      </trkpt>
      <trkpt lat="45.7038" lon="6.62337">
        <ele>1013.8</ele>
        <time>2023-08-21T07:41:51Z</time>
      </trkpt>
      <trkpt lat="45.70382" lon="6.6234">
        <ele>1013.8</ele>
        <time>2023-08-21T07:41:52Z</time>
      </trkpt>
      <trkpt lat="45.70384" lon="6.62342">
        <ele>1013.8</ele>
        <time>2023-08-21T07:41:53Z</time>
      </trkpt>
      <trkpt lat="45.70385" lon="6.62345">
        <ele>1014.4</ele>
        <time>2023-08-21T07:41:54Z</time>
      </trkpt>
      <trkpt lat="45.70387" lon="6.62348">
        <ele>1014.4</ele>
        <time>2023-08-21T07:41:55Z</time>
      </trkpt>
      <trkpt lat="45.70389" lon="6.6235">
        <ele>1014.4</ele>
        <time>2023-08-21T07:41:56Z</time>
      </trkpt>
      <trkpt lat="45.70391" lon="6.62352">
        <ele>1014.4</ele>
        <time>2023-08-21T07:41:57Z</time>
      </trkpt>
      <trkpt lat="45.70393" lon="6.62354">
        <ele>1014.4</ele>
        <time>2023-08-21T07:41:58Z</time>
      </trkpt>
      <trkpt lat="45.70395" lon="6.62357">
        <ele>1015.2</ele>
        <time>2023-08-21T07:41:59Z</time>
      </trkpt>
      <trkpt lat="45.70397" lon="6.62359">
        <ele>1015.4</ele>
        <time>2023-08-21T07:42:00Z</time>
      </trkpt>
      <trkpt lat="45.70399" lon="6.62361">
        <ele>1015.4</ele>
        <time>2023-08-21T07:42:01Z</time>
      </trkpt>
      <trkpt lat="45.70401" lon="6.62363">
        <ele>1015.4</ele>
        <time>2023-08-21T07:42:02Z</time>
      </trkpt>
      <trkpt lat="45.70402" lon="6.62365">
        <ele>1016</ele>
        <time>2023-08-21T07:42:03Z</time>
      </trkpt>
      <trkpt lat="45.70404" lon="6.62367">
        <ele>1016</ele>
        <time>2023-08-21T07:42:04Z</time>
      </trkpt>
      <trkpt lat="45.70405" lon="6.62368">
        <ele>1016</ele>
        <time>2023-08-21T07:42:05Z</time>
      </trkpt>
      <trkpt lat="45.70407" lon="6.6237">
        <ele>1016</ele>
        <time>2023-08-21T07:42:06Z</time>
      </trkpt>
      <trkpt lat="45.70408" lon="6.62371">
        <ele>1017</ele>
        <time>2023-08-21T07:42:07Z</time>
      </trkpt>
      <trkpt lat="45.7041" lon="6.62373">
        <ele>1017</ele>
        <time>2023-08-21T07:42:08Z</time>
      </trkpt>
      <trkpt lat="45.70412" lon="6.62375">
        <ele>1017</ele>
        <time>2023-08-21T07:42:09Z</time>
      </trkpt>
      <trkpt lat="45.70414" lon="6.62378">
        <ele>1017</ele>
        <time>2023-08-21T07:42:10Z</time>
      </trkpt>
      <trkpt lat="45.70416" lon="6.62379">
        <ele>1017.6</ele>
        <time>2023-08-21T07:42:11Z</time>
      </trkpt>
      <trkpt lat="45.70419" lon="6.62381">
        <ele>1017.6</ele>
        <time>2023-08-21T07:42:12Z</time>
      </trkpt>
      <trkpt lat="45.70421" lon="6.62383">
        <ele>1017.8</ele>
        <time>2023-08-21T07:42:13Z</time>
      </trkpt>
      <trkpt lat="45.70423" lon="6.62385">
        <ele>1017.8</ele>
        <time>2023-08-21T07:42:14Z</time>
      </trkpt>
      <trkpt lat="45.70424" lon="6.62386">
        <ele>1017.8</ele>
        <time>2023-08-21T07:42:15Z</time>
      </trkpt>
      <trkpt lat="45.70425" lon="6.62388">
        <ele>1018.4</ele>
        <time>2023-08-21T07:42:16Z</time>
      </trkpt>
      <trkpt lat="45.70426" lon="6.6239">
        <ele>1018.6</ele>
        <time>2023-08-21T07:42:17Z</time>
      </trkpt>
      <trkpt lat="45.70428" lon="6.62392">
        <ele>1018.6</ele>
        <time>2023-08-21T07:42:18Z</time>
      </trkpt>
      <trkpt lat="45.70429" lon="6.62394">
        <ele>1018.6</ele>
        <time>2023-08-21T07:42:19Z</time>
      </trkpt>
      <trkpt lat="45.7043" lon="6.62396">
        <ele>1019.2</ele>
        <time>2023-08-21T07:42:20Z</time>
      </trkpt>
      <trkpt lat="45.7043" lon="6.62397">
        <ele>1019.4</ele>
        <time>2023-08-21T07:42:21Z</time>
      </trkpt>
      <trkpt lat="45.70431" lon="6.62398">
        <ele>1019.4</ele>
        <time>2023-08-21T07:42:22Z</time>
      </trkpt>
      <trkpt lat="45.70433" lon="6.62398">
        <ele>1019.4</ele>
        <time>2023-08-21T07:42:23Z</time>
      </trkpt>
      <trkpt lat="45.70434" lon="6.624">
        <ele>1019.4</ele>
        <time>2023-08-21T07:42:24Z</time>
      </trkpt>
      <trkpt lat="45.70436" lon="6.62401">
        <ele>1019.4</ele>
        <time>2023-08-21T07:42:25Z</time>
      </trkpt>
      <trkpt lat="45.70438" lon="6.62404">
        <ele>1020.2</ele>
        <time>2023-08-21T07:42:26Z</time>
      </trkpt>
      <trkpt lat="45.7044" lon="6.62405">
        <ele>1020.4</ele>
        <time>2023-08-21T07:42:27Z</time>
      </trkpt>
      <trkpt lat="45.70442" lon="6.62407">
        <ele>1020.4</ele>
        <time>2023-08-21T07:42:28Z</time>
      </trkpt>
      <trkpt lat="45.70444" lon="6.62408">
        <ele>1020.4</ele>
        <time>2023-08-21T07:42:29Z</time>
      </trkpt>
      <trkpt lat="45.70446" lon="6.62409">
        <ele>1020.6</ele>
        <time>2023-08-21T07:42:30Z</time>
      </trkpt>
      <trkpt lat="45.70448" lon="6.6241">
        <ele>1021</ele>
        <time>2023-08-21T07:42:31Z</time>
      </trkpt>
      <trkpt lat="45.70451" lon="6.62411">
        <ele>1021</ele>
        <time>2023-08-21T07:42:32Z</time>
      </trkpt>
      <trkpt lat="45.70454" lon="6.62413">
        <ele>1021</ele>
        <time>2023-08-21T07:42:33Z</time>
      </trkpt>
      <trkpt lat="45.70456" lon="6.62414">
        <ele>1021.6</ele>
        <time>2023-08-21T07:42:34Z</time>
      </trkpt>
      <trkpt lat="45.70458" lon="6.62416">
        <ele>1021.6</ele>
        <time>2023-08-21T07:42:35Z</time>
      </trkpt>
      <trkpt lat="45.7046" lon="6.62417">
        <ele>1021.6</ele>
        <time>2023-08-21T07:42:36Z</time>
      </trkpt>
      <trkpt lat="45.70462" lon="6.62418">
        <ele>1021.6</ele>
        <time>2023-08-21T07:42:37Z</time>
      </trkpt>
      <trkpt lat="45.70464" lon="6.6242">
        <ele>1021.6</ele>
        <time>2023-08-21T07:42:38Z</time>
      </trkpt>
      <trkpt lat="45.70466" lon="6.62421">
        <ele>1022.2</ele>
        <time>2023-08-21T07:42:39Z</time>
      </trkpt>
      <trkpt lat="45.70469" lon="6.62423">
        <ele>1022.4</ele>
        <time>2023-08-21T07:42:40Z</time>
      </trkpt>
      <trkpt lat="45.70472" lon="6.62424">
        <ele>1022.4</ele>
        <time>2023-08-21T07:42:41Z</time>
      </trkpt>
      <trkpt lat="45.70475" lon="6.62425">
        <ele>1022.4</ele>
        <time>2023-08-21T07:42:42Z</time>
      </trkpt>
      <trkpt lat="45.70478" lon="6.62426">
        <ele>1022.8</ele>
        <time>2023-08-21T07:42:43Z</time>
      </trkpt>
      <trkpt lat="45.7048" lon="6.62427">
        <ele>1023</ele>
        <time>2023-08-21T07:42:44Z</time>
      </trkpt>
      <trkpt lat="45.70482" lon="6.62428">
        <ele>1023</ele>
        <time>2023-08-21T07:42:45Z</time>
      </trkpt>
      <trkpt lat="45.70485" lon="6.62429">
        <ele>1023</ele>
        <time>2023-08-21T07:42:46Z</time>
      </trkpt>
      <trkpt lat="45.70488" lon="6.62429">
        <ele>1023</ele>
        <time>2023-08-21T07:42:47Z</time>
      </trkpt>
      <trkpt lat="45.7049" lon="6.6243">
        <ele>1023.4</ele>
        <time>2023-08-21T07:42:48Z</time>
      </trkpt>
      <trkpt lat="45.70493" lon="6.6243">
        <ele>1023.8</ele>
        <time>2023-08-21T07:42:49Z</time>
      </trkpt>
      <trkpt lat="45.70495" lon="6.62431">
        <ele>1023.8</ele>
        <time>2023-08-21T07:42:50Z</time>
      </trkpt>
      <trkpt lat="45.70497" lon="6.62432">
        <ele>1023.8</ele>
        <time>2023-08-21T07:42:51Z</time>
      </trkpt>
      <trkpt lat="45.705" lon="6.62433">
        <ele>1023.8</ele>
        <time>2023-08-21T07:42:52Z</time>
      </trkpt>
      <trkpt lat="45.70502" lon="6.62433">
        <ele>1024.4</ele>
        <time>2023-08-21T07:42:53Z</time>
      </trkpt>
      <trkpt lat="45.70504" lon="6.62433">
        <ele>1024.4</ele>
        <time>2023-08-21T07:42:54Z</time>
      </trkpt>
      <trkpt lat="45.70506" lon="6.62434">
        <ele>1024.4</ele>
        <time>2023-08-21T07:42:55Z</time>
      </trkpt>
      <trkpt lat="45.70509" lon="6.62434">
        <ele>1024.6</ele>
        <time>2023-08-21T07:42:56Z</time>
      </trkpt>
      <trkpt lat="45.70512" lon="6.62434">
        <ele>1024.8</ele>
        <time>2023-08-21T07:42:57Z</time>
      </trkpt>
      <trkpt lat="45.70514" lon="6.62434">
        <ele>1024.8</ele>
        <time>2023-08-21T07:42:58Z</time>
      </trkpt>
      <trkpt lat="45.70516" lon="6.62435">
        <ele>1024.8</ele>
        <time>2023-08-21T07:42:59Z</time>
      </trkpt>
      <trkpt lat="45.70518" lon="6.62436">
        <ele>1024.8</ele>
        <time>2023-08-21T07:43:00Z</time>
      </trkpt>
      <trkpt lat="45.7052" lon="6.62437">
        <ele>1025.4</ele>
        <time>2023-08-21T07:43:01Z</time>
      </trkpt>
      <trkpt lat="45.70522" lon="6.62439">
        <ele>1025.4</ele>
        <time>2023-08-21T07:43:02Z</time>
      </trkpt>
      <trkpt lat="45.70524" lon="6.62441">
        <ele>1025.4</ele>
        <time>2023-08-21T07:43:03Z</time>
      </trkpt>
      <trkpt lat="45.70525" lon="6.62444">
        <ele>1025.4</ele>
        <time>2023-08-21T07:43:04Z</time>
      </trkpt>
      <trkpt lat="45.70526" lon="6.62447">
        <ele>1025.4</ele>
        <time>2023-08-21T07:43:05Z</time>
      </trkpt>
      <trkpt lat="45.70526" lon="6.6245">
        <ele>1026</ele>
        <time>2023-08-21T07:43:06Z</time>
      </trkpt>
      <trkpt lat="45.70524" lon="6.62453">
        <ele>1026.4</ele>
        <time>2023-08-21T07:43:07Z</time>
      </trkpt>
      <trkpt lat="45.70521" lon="6.62456">
        <ele>1026.4</ele>
        <time>2023-08-21T07:43:08Z</time>
      </trkpt>
      <trkpt lat="45.70518" lon="6.62458">
        <ele>1026.4</ele>
        <time>2023-08-21T07:43:09Z</time>
      </trkpt>
      <trkpt lat="45.70515" lon="6.62459">
        <ele>1027</ele>
        <time>2023-08-21T07:43:10Z</time>
      </trkpt>
      <trkpt lat="45.70512" lon="6.62458">
        <ele>1027.4</ele>
        <time>2023-08-21T07:43:11Z</time>
      </trkpt>
      <trkpt lat="45.7051" lon="6.62458">
        <ele>1027.4</ele>
        <time>2023-08-21T07:43:12Z</time>
      </trkpt>
      <trkpt lat="45.70509" lon="6.62458">
        <ele>1027.4</ele>
        <time>2023-08-21T07:43:13Z</time>
      </trkpt>
      <trkpt lat="45.70506" lon="6.62457">
        <ele>1027.4</ele>
        <time>2023-08-21T07:43:14Z</time>
      </trkpt>
      <trkpt lat="45.70504" lon="6.62456">
        <ele>1028.2</ele>
        <time>2023-08-21T07:43:15Z</time>
      </trkpt>
      <trkpt lat="45.70502" lon="6.62456">
        <ele>1028.6</ele>
        <time>2023-08-21T07:43:16Z</time>
      </trkpt>
      <trkpt lat="45.705" lon="6.62457">
        <ele>1028.6</ele>
        <time>2023-08-21T07:43:17Z</time>
      </trkpt>
      <trkpt lat="45.70497" lon="6.62457">
        <ele>1028.6</ele>
        <time>2023-08-21T07:43:18Z</time>
      </trkpt>
      <trkpt lat="45.70495" lon="6.62457">
        <ele>1029.2</ele>
        <time>2023-08-21T07:43:19Z</time>
      </trkpt>
      <trkpt lat="45.70493" lon="6.62456">
        <ele>1029.2</ele>
        <time>2023-08-21T07:43:20Z</time>
      </trkpt>
      <trkpt lat="45.7049" lon="6.62456">
        <ele>1029.6</ele>
        <time>2023-08-21T07:43:21Z</time>
      </trkpt>
      <trkpt lat="45.70488" lon="6.62456">
        <ele>1029.6</ele>
        <time>2023-08-21T07:43:22Z</time>
      </trkpt>
      <trkpt lat="45.70486" lon="6.62455">
        <ele>1030.4</ele>
        <time>2023-08-21T07:43:23Z</time>
      </trkpt>
      <trkpt lat="45.70484" lon="6.62455">
        <ele>1030.4</ele>
        <time>2023-08-21T07:43:24Z</time>
      </trkpt>
      <trkpt lat="45.70482" lon="6.62455">
        <ele>1030.6</ele>
        <time>2023-08-21T07:43:25Z</time>
      </trkpt>
      <trkpt lat="45.70479" lon="6.62454">
        <ele>1030.6</ele>
        <time>2023-08-21T07:43:26Z</time>
      </trkpt>
      <trkpt lat="45.70477" lon="6.62453">
        <ele>1030.6</ele>
        <time>2023-08-21T07:43:27Z</time>
      </trkpt>
      <trkpt lat="45.70475" lon="6.62452">
        <ele>1031.2</ele>
        <time>2023-08-21T07:43:28Z</time>
      </trkpt>
      <trkpt lat="45.70473" lon="6.62452">
        <ele>1031.4</ele>
        <time>2023-08-21T07:43:29Z</time>
      </trkpt>
      <trkpt lat="45.7047" lon="6.62452">
        <ele>1031.4</ele>
        <time>2023-08-21T07:43:30Z</time>
      </trkpt>
      <trkpt lat="45.70468" lon="6.62452">
        <ele>1031.4</ele>
        <time>2023-08-21T07:43:31Z</time>
      </trkpt>
      <trkpt lat="45.70466" lon="6.62452">
        <ele>1032</ele>
        <time>2023-08-21T07:43:32Z</time>
      </trkpt>
      <trkpt lat="45.70464" lon="6.62452">
        <ele>1032.2</ele>
        <time>2023-08-21T07:43:33Z</time>
      </trkpt>
      <trkpt lat="45.70463" lon="6.62451">
        <ele>1032.2</ele>
        <time>2023-08-21T07:43:34Z</time>
      </trkpt>
      <trkpt lat="45.70461" lon="6.62452">
        <ele>1032.2</ele>
        <time>2023-08-21T07:43:35Z</time>
      </trkpt>
      <trkpt lat="45.70459" lon="6.62451">
        <ele>1032.2</ele>
        <time>2023-08-21T07:43:36Z</time>
      </trkpt>
      <trkpt lat="45.70457" lon="6.62451">
        <ele>1033</ele>
        <time>2023-08-21T07:43:37Z</time>
      </trkpt>
      <trkpt lat="45.70455" lon="6.6245">
        <ele>1033.4</ele>
        <time>2023-08-21T07:43:38Z</time>
      </trkpt>
      <trkpt lat="45.70453" lon="6.6245">
        <ele>1033.4</ele>
        <time>2023-08-21T07:43:39Z</time>
      </trkpt>
      <trkpt lat="45.70452" lon="6.62449">
        <ele>1033.4</ele>
        <time>2023-08-21T07:43:40Z</time>
      </trkpt>
      <trkpt lat="45.70451" lon="6.62448">
        <ele>1034.2</ele>
        <time>2023-08-21T07:43:41Z</time>
      </trkpt>
      <trkpt lat="45.70448" lon="6.62446">
        <ele>1034.4</ele>
        <time>2023-08-21T07:43:42Z</time>
      </trkpt>
      <trkpt lat="45.70446" lon="6.62445">
        <ele>1034.4</ele>
        <time>2023-08-21T07:43:43Z</time>
      </trkpt>
      <trkpt lat="45.70443" lon="6.62444">
        <ele>1034.4</ele>
        <time>2023-08-21T07:43:44Z</time>
      </trkpt>
      <trkpt lat="45.7044" lon="6.62444">
        <ele>1034.4</ele>
        <time>2023-08-21T07:43:45Z</time>
      </trkpt>
      <trkpt lat="45.70436" lon="6.62443">
        <ele>1035.4</ele>
        <time>2023-08-21T07:43:46Z</time>
      </trkpt>
      <trkpt lat="45.70434" lon="6.62444">
        <ele>1035.4</ele>
        <time>2023-08-21T07:43:47Z</time>
      </trkpt>
      <trkpt lat="45.70432" lon="6.62444">
        <ele>1035.4</ele>
        <time>2023-08-21T07:43:48Z</time>
      </trkpt>
      <trkpt lat="45.7043" lon="6.62443">
        <ele>1035.4</ele>
        <time>2023-08-21T07:43:49Z</time>
      </trkpt>
      <trkpt lat="45.70428" lon="6.62442">
        <ele>1035.4</ele>
        <time>2023-08-21T07:43:50Z</time>
      </trkpt>
      <trkpt lat="45.70425" lon="6.6244">
        <ele>1036.2</ele>
        <time>2023-08-21T07:43:51Z</time>
      </trkpt>
      <trkpt lat="45.70422" lon="6.6244">
        <ele>1036.4</ele>
        <time>2023-08-21T07:43:52Z</time>
      </trkpt>
      <trkpt lat="45.70419" lon="6.6244">
        <ele>1036.4</ele>
        <time>2023-08-21T07:43:53Z</time>
      </trkpt>
      <trkpt lat="45.70417" lon="6.62441">
        <ele>1036.4</ele>
        <time>2023-08-21T07:43:54Z</time>
      </trkpt>
      <trkpt lat="45.70414" lon="6.62441">
        <ele>1037.2</ele>
        <time>2023-08-21T07:43:55Z</time>
      </trkpt>
      <trkpt lat="45.70412" lon="6.62442">
        <ele>1037.4</ele>
        <time>2023-08-21T07:43:56Z</time>
      </trkpt>
      <trkpt lat="45.70409" lon="6.62442">
        <ele>1037.4</ele>
        <time>2023-08-21T07:43:57Z</time>
      </trkpt>
      <trkpt lat="45.70406" lon="6.62442">
        <ele>1037.4</ele>
        <time>2023-08-21T07:43:58Z</time>
      </trkpt>
      <trkpt lat="45.70404" lon="6.62442">
        <ele>1038</ele>
        <time>2023-08-21T07:43:59Z</time>
      </trkpt>
      <trkpt lat="45.70402" lon="6.62442">
        <ele>1038</ele>
        <time>2023-08-21T07:44:00Z</time>
      </trkpt>
      <trkpt lat="45.704" lon="6.62441">
        <ele>1038.2</ele>
        <time>2023-08-21T07:44:01Z</time>
      </trkpt>
      <trkpt lat="45.70397" lon="6.62439">
        <ele>1038.2</ele>
        <time>2023-08-21T07:44:02Z</time>
      </trkpt>
      <trkpt lat="45.70395" lon="6.62437">
        <ele>1038.2</ele>
        <time>2023-08-21T07:44:03Z</time>
      </trkpt>
      <trkpt lat="45.70393" lon="6.62436">
        <ele>1039</ele>
        <time>2023-08-21T07:44:04Z</time>
      </trkpt>
      <trkpt lat="45.7039" lon="6.62435">
        <ele>1039.2</ele>
        <time>2023-08-21T07:44:05Z</time>
      </trkpt>
      <trkpt lat="45.70388" lon="6.62435">
        <ele>1039.2</ele>
        <time>2023-08-21T07:44:06Z</time>
      </trkpt>
      <trkpt lat="45.70386" lon="6.62434">
        <ele>1039.2</ele>
        <time>2023-08-21T07:44:07Z</time>
      </trkpt>
      <trkpt lat="45.70383" lon="6.62434">
        <ele>1039.2</ele>
        <time>2023-08-21T07:44:08Z</time>
      </trkpt>
      <trkpt lat="45.70381" lon="6.62433">
        <ele>1040.2</ele>
        <time>2023-08-21T07:44:09Z</time>
      </trkpt>
      <trkpt lat="45.70379" lon="6.62432">
        <ele>1040.2</ele>
        <time>2023-08-21T07:44:10Z</time>
      </trkpt>
      <trkpt lat="45.70377" lon="6.6243">
        <ele>1040.2</ele>
        <time>2023-08-21T07:44:11Z</time>
      </trkpt>
      <trkpt lat="45.70375" lon="6.62429">
        <ele>1040.2</ele>
        <time>2023-08-21T07:44:12Z</time>
      </trkpt>
      <trkpt lat="45.70373" lon="6.62427">
        <ele>1040.8</ele>
        <time>2023-08-21T07:44:13Z</time>
      </trkpt>
      <trkpt lat="45.70371" lon="6.62426">
        <ele>1041</ele>
        <time>2023-08-21T07:44:14Z</time>
      </trkpt>
      <trkpt lat="45.70369" lon="6.62425">
        <ele>1041</ele>
        <time>2023-08-21T07:44:15Z</time>
      </trkpt>
      <trkpt lat="45.70366" lon="6.62424">
        <ele>1041</ele>
        <time>2023-08-21T07:44:16Z</time>
      </trkpt>
      <trkpt lat="45.70364" lon="6.62423">
        <ele>1041.6</ele>
        <time>2023-08-21T07:44:17Z</time>
      </trkpt>
      <trkpt lat="45.70362" lon="6.62421">
        <ele>1041.8</ele>
        <time>2023-08-21T07:44:18Z</time>
      </trkpt>
      <trkpt lat="45.7036" lon="6.6242">
        <ele>1041.8</ele>
        <time>2023-08-21T07:44:19Z</time>
      </trkpt>
      <trkpt lat="45.70358" lon="6.62418">
        <ele>1041.8</ele>
        <time>2023-08-21T07:44:20Z</time>
      </trkpt>
      <trkpt lat="45.70357" lon="6.62417">
        <ele>1041.8</ele>
        <time>2023-08-21T07:44:21Z</time>
      </trkpt>
      <trkpt lat="45.70354" lon="6.62416">
        <ele>1042.4</ele>
        <time>2023-08-21T07:44:22Z</time>
      </trkpt>
      <trkpt lat="45.70352" lon="6.62415">
        <ele>1042.6</ele>
        <time>2023-08-21T07:44:23Z</time>
      </trkpt>
      <trkpt lat="45.7035" lon="6.62415">
        <ele>1042.6</ele>
        <time>2023-08-21T07:44:24Z</time>
      </trkpt>
      <trkpt lat="45.70348" lon="6.62414">
        <ele>1042.6</ele>
        <time>2023-08-21T07:44:25Z</time>
      </trkpt>
      <trkpt lat="45.70346" lon="6.62413">
        <ele>1043.2</ele>
        <time>2023-08-21T07:44:26Z</time>
      </trkpt>
      <trkpt lat="45.70345" lon="6.62412">
        <ele>1043.4</ele>
        <time>2023-08-21T07:44:27Z</time>
      </trkpt>
      <trkpt lat="45.70343" lon="6.6241">
        <ele>1043.4</ele>
        <time>2023-08-21T07:44:28Z</time>
      </trkpt>
      <trkpt lat="45.70342" lon="6.62409">
        <ele>1043.4</ele>
        <time>2023-08-21T07:44:29Z</time>
      </trkpt>
      <trkpt lat="45.7034" lon="6.62408">
        <ele>1044.2</ele>
        <time>2023-08-21T07:44:30Z</time>
      </trkpt>
      <trkpt lat="45.70338" lon="6.62407">
        <ele>1044.2</ele>
        <time>2023-08-21T07:44:31Z</time>
      </trkpt>
      <trkpt lat="45.70336" lon="6.62406">
        <ele>1044.2</ele>
        <time>2023-08-21T07:44:32Z</time>
      </trkpt>
      <trkpt lat="45.70334" lon="6.62405">
        <ele>1044.4</ele>
        <time>2023-08-21T07:44:33Z</time>
      </trkpt>
      <trkpt lat="45.70332" lon="6.62404">
        <ele>1044.4</ele>
        <time>2023-08-21T07:44:34Z</time>
      </trkpt>
      <trkpt lat="45.7033" lon="6.62403">
        <ele>1044.4</ele>
        <time>2023-08-21T07:44:35Z</time>
      </trkpt>
      <trkpt lat="45.70327" lon="6.62403">
        <ele>1045</ele>
        <time>2023-08-21T07:44:36Z</time>
      </trkpt>
      <trkpt lat="45.70326" lon="6.62401">
        <ele>1045</ele>
        <time>2023-08-21T07:44:37Z</time>
      </trkpt>
      <trkpt lat="45.70325" lon="6.624">
        <ele>1045</ele>
        <time>2023-08-21T07:44:38Z</time>
      </trkpt>
      <trkpt lat="45.70323" lon="6.62399">
        <ele>1045</ele>
        <time>2023-08-21T07:44:39Z</time>
      </trkpt>
      <trkpt lat="45.70322" lon="6.62398">
        <ele>1045.8</ele>
        <time>2023-08-21T07:44:40Z</time>
      </trkpt>
      <trkpt lat="45.7032" lon="6.62397">
        <ele>1046.2</ele>
        <time>2023-08-21T07:44:41Z</time>
      </trkpt>
      <trkpt lat="45.70318" lon="6.62395">
        <ele>1046.2</ele>
        <time>2023-08-21T07:44:42Z</time>
      </trkpt>
      <trkpt lat="45.70316" lon="6.62394">
        <ele>1046.2</ele>
        <time>2023-08-21T07:44:43Z</time>
      </trkpt>
      <trkpt lat="45.70314" lon="6.62393">
        <ele>1046.2</ele>
        <time>2023-08-21T07:44:44Z</time>
      </trkpt>
      <trkpt lat="45.70313" lon="6.62392">
        <ele>1046.6</ele>
        <time>2023-08-21T07:44:45Z</time>
      </trkpt>
      <trkpt lat="45.70311" lon="6.62391">
        <ele>1047</ele>
        <time>2023-08-21T07:44:46Z</time>
      </trkpt>
      <trkpt lat="45.7031" lon="6.6239">
        <ele>1047</ele>
        <time>2023-08-21T07:44:47Z</time>
      </trkpt>
      <trkpt lat="45.70309" lon="6.62389">
        <ele>1047</ele>
        <time>2023-08-21T07:44:48Z</time>
      </trkpt>
      <trkpt lat="45.70307" lon="6.62387">
        <ele>1047.6</ele>
        <time>2023-08-21T07:44:49Z</time>
      </trkpt>
      <trkpt lat="45.70305" lon="6.62387">
        <ele>1047.8</ele>
        <time>2023-08-21T07:44:50Z</time>
      </trkpt>
      <trkpt lat="45.70303" lon="6.62386">
        <ele>1047.8</ele>
        <time>2023-08-21T07:44:51Z</time>
      </trkpt>
      <trkpt lat="45.70301" lon="6.62385">
        <ele>1047.8</ele>
        <time>2023-08-21T07:44:52Z</time>
      </trkpt>
      <trkpt lat="45.70299" lon="6.62384">
        <ele>1048.4</ele>
        <time>2023-08-21T07:44:53Z</time>
      </trkpt>
      <trkpt lat="45.70297" lon="6.62382">
        <ele>1048.4</ele>
        <time>2023-08-21T07:44:54Z</time>
      </trkpt>
      <trkpt lat="45.70295" lon="6.62381">
        <ele>1048.6</ele>
        <time>2023-08-21T07:44:55Z</time>
      </trkpt>
      <trkpt lat="45.70294" lon="6.6238">
        <ele>1048.6</ele>
        <time>2023-08-21T07:44:56Z</time>
      </trkpt>
      <trkpt lat="45.70292" lon="6.62378">
        <ele>1048.6</ele>
        <time>2023-08-21T07:44:57Z</time>
      </trkpt>
      <trkpt lat="45.7029" lon="6.62377">
        <ele>1049.2</ele>
        <time>2023-08-21T07:44:58Z</time>
      </trkpt>
      <trkpt lat="45.70288" lon="6.62376">
        <ele>1049.6</ele>
        <time>2023-08-21T07:44:59Z</time>
      </trkpt>
      <trkpt lat="45.70286" lon="6.62374">
        <ele>1049.6</ele>
        <time>2023-08-21T07:45:00Z</time>
      </trkpt>
      <trkpt lat="45.70284" lon="6.62373">
        <ele>1049.6</ele>
        <time>2023-08-21T07:45:01Z</time>
      </trkpt>
      <trkpt lat="45.70282" lon="6.62371">
        <ele>1050</ele>
        <time>2023-08-21T07:45:02Z</time>
      </trkpt>
      <trkpt lat="45.7028" lon="6.6237">
        <ele>1050</ele>
        <time>2023-08-21T07:45:03Z</time>
      </trkpt>
      <trkpt lat="45.70278" lon="6.62369">
        <ele>1050.6</ele>
        <time>2023-08-21T07:45:04Z</time>
      </trkpt>
      <trkpt lat="45.70277" lon="6.62368">
        <ele>1050.6</ele>
        <time>2023-08-21T07:45:05Z</time>
      </trkpt>
      <trkpt lat="45.70275" lon="6.62367">
        <ele>1050.6</ele>
        <time>2023-08-21T07:45:06Z</time>
      </trkpt>
      <trkpt lat="45.70272" lon="6.62366">
        <ele>1051</ele>
        <time>2023-08-21T07:45:07Z</time>
      </trkpt>
      <trkpt lat="45.7027" lon="6.62365">
        <ele>1051.2</ele>
        <time>2023-08-21T07:45:08Z</time>
      </trkpt>
      <trkpt lat="45.70267" lon="6.62363">
        <ele>1051.2</ele>
        <time>2023-08-21T07:45:09Z</time>
      </trkpt>
      <trkpt lat="45.70265" lon="6.62362">
        <ele>1051.2</ele>
        <time>2023-08-21T07:45:10Z</time>
      </trkpt>
      <trkpt lat="45.70263" lon="6.6236">
        <ele>1051.8</ele>
        <time>2023-08-21T07:45:11Z</time>
      </trkpt>
      <trkpt lat="45.70261" lon="6.62358">
        <ele>1052.2</ele>
        <time>2023-08-21T07:45:12Z</time>
      </trkpt>
      <trkpt lat="45.70258" lon="6.62357">
        <ele>1052.2</ele>
        <time>2023-08-21T07:45:13Z</time>
      </trkpt>
      <trkpt lat="45.70257" lon="6.62355">
        <ele>1052.2</ele>
        <time>2023-08-21T07:45:14Z</time>
      </trkpt>
      <trkpt lat="45.70255" lon="6.62354">
        <ele>1052.2</ele>
        <time>2023-08-21T07:45:15Z</time>
      </trkpt>
      <trkpt lat="45.70254" lon="6.62353">
        <ele>1052.2</ele>
        <time>2023-08-21T07:45:16Z</time>
      </trkpt>
      <trkpt lat="45.70252" lon="6.62353">
        <ele>1052.6</ele>
        <time>2023-08-21T07:45:17Z</time>
      </trkpt>
      <trkpt lat="45.70251" lon="6.62352">
        <ele>1052.6</ele>
        <time>2023-08-21T07:45:18Z</time>
      </trkpt>
      <trkpt lat="45.70249" lon="6.6235">
        <ele>1052.6</ele>
        <time>2023-08-21T07:45:19Z</time>
      </trkpt>
      <trkpt lat="45.70248" lon="6.62349">
        <ele>1052.6</ele>
        <time>2023-08-21T07:45:20Z</time>
      </trkpt>
      <trkpt lat="45.70247" lon="6.62348">
        <ele>1053.4</ele>
        <time>2023-08-21T07:45:21Z</time>
      </trkpt>
      <trkpt lat="45.70246" lon="6.62347">
        <ele>1053.6</ele>
        <time>2023-08-21T07:45:22Z</time>
      </trkpt>
      <trkpt lat="45.70244" lon="6.62346">
        <ele>1053.6</ele>
        <time>2023-08-21T07:45:23Z</time>
      </trkpt>
      <trkpt lat="45.70243" lon="6.62346">
        <ele>1053.6</ele>
        <time>2023-08-21T07:45:24Z</time>
      </trkpt>
      <trkpt lat="45.70241" lon="6.62344">
        <ele>1054</ele>
        <time>2023-08-21T07:45:25Z</time>
      </trkpt>
      <trkpt lat="45.70239" lon="6.62343">
        <ele>1054.2</ele>
        <time>2023-08-21T07:45:26Z</time>
      </trkpt>
      <trkpt lat="45.70237" lon="6.62342">
        <ele>1054.2</ele>
        <time>2023-08-21T07:45:27Z</time>
      </trkpt>
      <trkpt lat="45.70236" lon="6.62343">
        <ele>1054.2</ele>
        <time>2023-08-21T07:45:28Z</time>
      </trkpt>
      <trkpt lat="45.70234" lon="6.62342">
        <ele>1054.2</ele>
        <time>2023-08-21T07:45:29Z</time>
      </trkpt>
      <trkpt lat="45.70233" lon="6.6234">
        <ele>1055</ele>
        <time>2023-08-21T07:45:30Z</time>
      </trkpt>
      <trkpt lat="45.70232" lon="6.62339">
        <ele>1055.2</ele>
        <time>2023-08-21T07:45:31Z</time>
      </trkpt>
      <trkpt lat="45.70231" lon="6.62337">
        <ele>1055.2</ele>
        <time>2023-08-21T07:45:32Z</time>
      </trkpt>
      <trkpt lat="45.70231" lon="6.62334">
        <ele>1055.2</ele>
        <time>2023-08-21T07:45:33Z</time>
      </trkpt>
      <trkpt lat="45.70229" lon="6.62332">
        <ele>1055.8</ele>
        <time>2023-08-21T07:45:34Z</time>
      </trkpt>
      <trkpt lat="45.70228" lon="6.6233">
        <ele>1056</ele>
        <time>2023-08-21T07:45:35Z</time>
      </trkpt>
      <trkpt lat="45.70225" lon="6.62329">
        <ele>1056</ele>
        <time>2023-08-21T07:45:36Z</time>
      </trkpt>
      <trkpt lat="45.70224" lon="6.62326">
        <ele>1056</ele>
        <time>2023-08-21T07:45:37Z</time>
      </trkpt>
      <trkpt lat="45.70223" lon="6.62323">
        <ele>1056</ele>
        <time>2023-08-21T07:45:38Z</time>
      </trkpt>
      <trkpt lat="45.70221" lon="6.62321">
        <ele>1056.6</ele>
        <time>2023-08-21T07:45:39Z</time>
      </trkpt>
      <trkpt lat="45.70218" lon="6.62319">
        <ele>1056.8</ele>
        <time>2023-08-21T07:45:40Z</time>
      </trkpt>
      <trkpt lat="45.70217" lon="6.62317">
        <ele>1056.8</ele>
        <time>2023-08-21T07:45:41Z</time>
      </trkpt>
      <trkpt lat="45.70216" lon="6.62315">
        <ele>1056.8</ele>
        <time>2023-08-21T07:45:42Z</time>
      </trkpt>
      <trkpt lat="45.70215" lon="6.62313">
        <ele>1057.4</ele>
        <time>2023-08-21T07:45:43Z</time>
      </trkpt>
      <trkpt lat="45.70214" lon="6.62311">
        <ele>1057.6</ele>
        <time>2023-08-21T07:45:44Z</time>
      </trkpt>
      <trkpt lat="45.70213" lon="6.62309">
        <ele>1057.6</ele>
        <time>2023-08-21T07:45:45Z</time>
      </trkpt>
      <trkpt lat="45.70212" lon="6.62307">
        <ele>1057.6</ele>
        <time>2023-08-21T07:45:46Z</time>
      </trkpt>
      <trkpt lat="45.70211" lon="6.62305">
        <ele>1057.6</ele>
        <time>2023-08-21T07:45:47Z</time>
      </trkpt>
      <trkpt lat="45.7021" lon="6.62304">
        <ele>1058.4</ele>
        <time>2023-08-21T07:45:48Z</time>
      </trkpt>
      <trkpt lat="45.70208" lon="6.62302">
        <ele>1058.4</ele>
        <time>2023-08-21T07:45:49Z</time>
      </trkpt>
      <trkpt lat="45.70206" lon="6.62299">
        <ele>1058.4</ele>
        <time>2023-08-21T07:45:50Z</time>
      </trkpt>
      <trkpt lat="45.70205" lon="6.62297">
        <ele>1058.4</ele>
        <time>2023-08-21T07:45:51Z</time>
      </trkpt>
      <trkpt lat="45.70204" lon="6.62295">
        <ele>1059</ele>
        <time>2023-08-21T07:45:52Z</time>
      </trkpt>
      <trkpt lat="45.70202" lon="6.62293">
        <ele>1059.4</ele>
        <time>2023-08-21T07:45:53Z</time>
      </trkpt>
      <trkpt lat="45.70201" lon="6.62291">
        <ele>1059.4</ele>
        <time>2023-08-21T07:45:54Z</time>
      </trkpt>
      <trkpt lat="45.702" lon="6.62288">
        <ele>1059.4</ele>
        <time>2023-08-21T07:45:55Z</time>
      </trkpt>
      <trkpt lat="45.70198" lon="6.62286">
        <ele>1060</ele>
        <time>2023-08-21T07:45:56Z</time>
      </trkpt>
      <trkpt lat="45.70197" lon="6.62284">
        <ele>1060</ele>
        <time>2023-08-21T07:45:57Z</time>
      </trkpt>
      <trkpt lat="45.70196" lon="6.62282">
        <ele>1060</ele>
        <time>2023-08-21T07:45:58Z</time>
      </trkpt>
      <trkpt lat="45.70195" lon="6.6228">
        <ele>1060.2</ele>
        <time>2023-08-21T07:45:59Z</time>
      </trkpt>
      <trkpt lat="45.70194" lon="6.62278">
        <ele>1060.2</ele>
        <time>2023-08-21T07:46:00Z</time>
      </trkpt>
      <trkpt lat="45.70193" lon="6.62275">
        <ele>1060.2</ele>
        <time>2023-08-21T07:46:01Z</time>
      </trkpt>
      <trkpt lat="45.70191" lon="6.62273">
        <ele>1060.8</ele>
        <time>2023-08-21T07:46:02Z</time>
      </trkpt>
      <trkpt lat="45.7019" lon="6.6227">
        <ele>1061</ele>
        <time>2023-08-21T07:46:03Z</time>
      </trkpt>
      <trkpt lat="45.70188" lon="6.62268">
        <ele>1061</ele>
        <time>2023-08-21T07:46:04Z</time>
      </trkpt>
      <trkpt lat="45.70187" lon="6.62265">
        <ele>1061</ele>
        <time>2023-08-21T07:46:05Z</time>
      </trkpt>
      <trkpt lat="45.70185" lon="6.62263">
        <ele>1061.8</ele>
        <time>2023-08-21T07:46:06Z</time>
      </trkpt>
      <trkpt lat="45.70185" lon="6.62261">
        <ele>1062</ele>
        <time>2023-08-21T07:46:07Z</time>
      </trkpt>
      <trkpt lat="45.70184" lon="6.62258">
        <ele>1062</ele>
        <time>2023-08-21T07:46:08Z</time>
      </trkpt>
      <trkpt lat="45.70184" lon="6.62256">
        <ele>1062</ele>
        <time>2023-08-21T07:46:09Z</time>
      </trkpt>
      <trkpt lat="45.70183" lon="6.62253">
        <ele>1062</ele>
        <time>2023-08-21T07:46:10Z</time>
      </trkpt>
      <trkpt lat="45.70182" lon="6.62252">
        <ele>1062.6</ele>
        <time>2023-08-21T07:46:11Z</time>
      </trkpt>
      <trkpt lat="45.70181" lon="6.62249">
        <ele>1062.8</ele>
        <time>2023-08-21T07:46:12Z</time>
      </trkpt>
      <trkpt lat="45.7018" lon="6.62247">
        <ele>1062.8</ele>
        <time>2023-08-21T07:46:13Z</time>
      </trkpt>
      <trkpt lat="45.70178" lon="6.62245">
        <ele>1062.8</ele>
        <time>2023-08-21T07:46:14Z</time>
      </trkpt>
      <trkpt lat="45.70176" lon="6.62242">
        <ele>1063.6</ele>
        <time>2023-08-21T07:46:15Z</time>
      </trkpt>
      <trkpt lat="45.70175" lon="6.6224">
        <ele>1063.8</ele>
        <time>2023-08-21T07:46:16Z</time>
      </trkpt>
      <trkpt lat="45.70173" lon="6.62237">
        <ele>1063.8</ele>
        <time>2023-08-21T07:46:17Z</time>
      </trkpt>
      <trkpt lat="45.70172" lon="6.62235">
        <ele>1063.8</ele>
        <time>2023-08-21T07:46:18Z</time>
      </trkpt>
      <trkpt lat="45.70171" lon="6.62232">
        <ele>1063.8</ele>
        <time>2023-08-21T07:46:19Z</time>
      </trkpt>
      <trkpt lat="45.7017" lon="6.62229">
        <ele>1064.4</ele>
        <time>2023-08-21T07:46:20Z</time>
      </trkpt>
      <trkpt lat="45.70169" lon="6.62227">
        <ele>1064.6</ele>
        <time>2023-08-21T07:46:21Z</time>
      </trkpt>
      <trkpt lat="45.70167" lon="6.62225">
        <ele>1064.6</ele>
        <time>2023-08-21T07:46:22Z</time>
      </trkpt>
      <trkpt lat="45.70166" lon="6.62223">
        <ele>1064.6</ele>
        <time>2023-08-21T07:46:23Z</time>
      </trkpt>
      <trkpt lat="45.70164" lon="6.6222">
        <ele>1065.4</ele>
        <time>2023-08-21T07:46:24Z</time>
      </trkpt>
      <trkpt lat="45.70163" lon="6.62218">
        <ele>1065.4</ele>
        <time>2023-08-21T07:46:25Z</time>
      </trkpt>
      <trkpt lat="45.70161" lon="6.62216">
        <ele>1065.4</ele>
        <time>2023-08-21T07:46:26Z</time>
      </trkpt>
      <trkpt lat="45.7016" lon="6.62214">
        <ele>1065.4</ele>
        <time>2023-08-21T07:46:27Z</time>
      </trkpt>
      <trkpt lat="45.70158" lon="6.62211">
        <ele>1066.2</ele>
        <time>2023-08-21T07:46:28Z</time>
      </trkpt>
      <trkpt lat="45.70157" lon="6.62208">
        <ele>1066.2</ele>
        <time>2023-08-21T07:46:29Z</time>
      </trkpt>
      <trkpt lat="45.70156" lon="6.62206">
        <ele>1066.4</ele>
        <time>2023-08-21T07:46:30Z</time>
      </trkpt>
      <trkpt lat="45.70155" lon="6.62204">
        <ele>1066.4</ele>
        <time>2023-08-21T07:46:31Z</time>
      </trkpt>
      <trkpt lat="45.70153" lon="6.62202">
        <ele>1066.4</ele>
        <time>2023-08-21T07:46:32Z</time>
      </trkpt>
      <trkpt lat="45.70152" lon="6.622">
        <ele>1067</ele>
        <time>2023-08-21T07:46:33Z</time>
      </trkpt>
      <trkpt lat="45.7015" lon="6.62197">
        <ele>1067</ele>
        <time>2023-08-21T07:46:34Z</time>
      </trkpt>
      <trkpt lat="45.70149" lon="6.62194">
        <ele>1067</ele>
        <time>2023-08-21T07:46:35Z</time>
      </trkpt>
      <trkpt lat="45.70148" lon="6.62192">
        <ele>1067</ele>
        <time>2023-08-21T07:46:36Z</time>
      </trkpt>
      <trkpt lat="45.70147" lon="6.62189">
        <ele>1068</ele>
        <time>2023-08-21T07:46:37Z</time>
      </trkpt>
      <trkpt lat="45.70145" lon="6.62187">
        <ele>1068</ele>
        <time>2023-08-21T07:46:38Z</time>
      </trkpt>
      <trkpt lat="45.70144" lon="6.62185">
        <ele>1068</ele>
        <time>2023-08-21T07:46:39Z</time>
      </trkpt>
      <trkpt lat="45.70143" lon="6.62183">
        <ele>1068</ele>
        <time>2023-08-21T07:46:40Z</time>
      </trkpt>
      <trkpt lat="45.70141" lon="6.62181">
        <ele>1068</ele>
        <time>2023-08-21T07:46:41Z</time>
      </trkpt>
      <trkpt lat="45.7014" lon="6.62179">
        <ele>1068</ele>
        <time>2023-08-21T07:46:42Z</time>
      </trkpt>
      <trkpt lat="45.70139" lon="6.62177">
        <ele>1068.6</ele>
        <time>2023-08-21T07:46:43Z</time>
      </trkpt>
      <trkpt lat="45.70138" lon="6.62175">
        <ele>1068.8</ele>
        <time>2023-08-21T07:46:44Z</time>
      </trkpt>
      <trkpt lat="45.70137" lon="6.62173">
        <ele>1068.8</ele>
        <time>2023-08-21T07:46:45Z</time>
      </trkpt>
      <trkpt lat="45.70136" lon="6.62171">
        <ele>1068.8</ele>
        <time>2023-08-21T07:46:46Z</time>
      </trkpt>
      <trkpt lat="45.70135" lon="6.62168">
        <ele>1069.6</ele>
        <time>2023-08-21T07:46:47Z</time>
      </trkpt>
      <trkpt lat="45.70134" lon="6.62166">
        <ele>1069.8</ele>
        <time>2023-08-21T07:46:48Z</time>
      </trkpt>
      <trkpt lat="45.70133" lon="6.62163">
        <ele>1069.8</ele>
        <time>2023-08-21T07:46:49Z</time>
      </trkpt>
      <trkpt lat="45.70131" lon="6.6216">
        <ele>1069.8</ele>
        <time>2023-08-21T07:46:50Z</time>
      </trkpt>
      <trkpt lat="45.7013" lon="6.62158">
        <ele>1069.8</ele>
        <time>2023-08-21T07:46:51Z</time>
      </trkpt>
      <trkpt lat="45.70129" lon="6.62156">
        <ele>1070.4</ele>
        <time>2023-08-21T07:46:52Z</time>
      </trkpt>
      <trkpt lat="45.70128" lon="6.62154">
        <ele>1070.6</ele>
        <time>2023-08-21T07:46:53Z</time>
      </trkpt>
      <trkpt lat="45.70128" lon="6.62152">
        <ele>1070.6</ele>
        <time>2023-08-21T07:46:54Z</time>
      </trkpt>
      <trkpt lat="45.70127" lon="6.62149">
        <ele>1070.6</ele>
        <time>2023-08-21T07:46:55Z</time>
      </trkpt>
      <trkpt lat="45.70125" lon="6.62147">
        <ele>1071.2</ele>
        <time>2023-08-21T07:46:56Z</time>
      </trkpt>
      <trkpt lat="45.70125" lon="6.62145">
        <ele>1071.4</ele>
        <time>2023-08-21T07:46:57Z</time>
      </trkpt>
      <trkpt lat="45.70124" lon="6.62142">
        <ele>1071.4</ele>
        <time>2023-08-21T07:46:58Z</time>
      </trkpt>
      <trkpt lat="45.70123" lon="6.6214">
        <ele>1071.4</ele>
        <time>2023-08-21T07:46:59Z</time>
      </trkpt>
      <trkpt lat="45.70123" lon="6.62137">
        <ele>1072.2</ele>
        <time>2023-08-21T07:47:00Z</time>
      </trkpt>
      <trkpt lat="45.70122" lon="6.62135">
        <ele>1072.2</ele>
        <time>2023-08-21T07:47:01Z</time>
      </trkpt>
      <trkpt lat="45.7012" lon="6.62132">
        <ele>1072.2</ele>
        <time>2023-08-21T07:47:02Z</time>
      </trkpt>
      <trkpt lat="45.70119" lon="6.62129">
        <ele>1072.2</ele>
        <time>2023-08-21T07:47:03Z</time>
      </trkpt>
      <trkpt lat="45.70118" lon="6.62126">
        <ele>1072.2</ele>
        <time>2023-08-21T07:47:04Z</time>
      </trkpt>
      <trkpt lat="45.70116" lon="6.62123">
        <ele>1073</ele>
        <time>2023-08-21T07:47:05Z</time>
      </trkpt>
      <trkpt lat="45.70115" lon="6.62121">
        <ele>1073</ele>
        <time>2023-08-21T07:47:06Z</time>
      </trkpt>
      <trkpt lat="45.70114" lon="6.62118">
        <ele>1073</ele>
        <time>2023-08-21T07:47:07Z</time>
      </trkpt>
      <trkpt lat="45.70115" lon="6.62115">
        <ele>1073</ele>
        <time>2023-08-21T07:47:08Z</time>
      </trkpt>
      <trkpt lat="45.70115" lon="6.62113">
        <ele>1073.8</ele>
        <time>2023-08-21T07:47:09Z</time>
      </trkpt>
      <trkpt lat="45.70114" lon="6.6211">
        <ele>1074</ele>
        <time>2023-08-21T07:47:10Z</time>
      </trkpt>
      <trkpt lat="45.70114" lon="6.62107">
        <ele>1074</ele>
        <time>2023-08-21T07:47:11Z</time>
      </trkpt>
      <trkpt lat="45.70114" lon="6.62104">
        <ele>1074</ele>
        <time>2023-08-21T07:47:12Z</time>
      </trkpt>
      <trkpt lat="45.70113" lon="6.621">
        <ele>1074</ele>
        <time>2023-08-21T07:47:13Z</time>
      </trkpt>
      <trkpt lat="45.70113" lon="6.62097">
        <ele>1074.6</ele>
        <time>2023-08-21T07:47:14Z</time>
      </trkpt>
      <trkpt lat="45.70112" lon="6.62094">
        <ele>1075</ele>
        <time>2023-08-21T07:47:15Z</time>
      </trkpt>
      <trkpt lat="45.70111" lon="6.6209">
        <ele>1075</ele>
        <time>2023-08-21T07:47:16Z</time>
      </trkpt>
      <trkpt lat="45.70111" lon="6.62087">
        <ele>1075</ele>
        <time>2023-08-21T07:47:17Z</time>
      </trkpt>
      <trkpt lat="45.7011" lon="6.62084">
        <ele>1075.6</ele>
        <time>2023-08-21T07:47:18Z</time>
      </trkpt>
      <trkpt lat="45.70109" lon="6.62082">
        <ele>1076</ele>
        <time>2023-08-21T07:47:19Z</time>
      </trkpt>
      <trkpt lat="45.70108" lon="6.6208">
        <ele>1076</ele>
        <time>2023-08-21T07:47:20Z</time>
      </trkpt>
      <trkpt lat="45.70107" lon="6.62078">
        <ele>1076</ele>
        <time>2023-08-21T07:47:21Z</time>
      </trkpt>
      <trkpt lat="45.70106" lon="6.62077">
        <ele>1076</ele>
        <time>2023-08-21T07:47:22Z</time>
      </trkpt>
      <trkpt lat="45.70106" lon="6.62075">
        <ele>1076</ele>
        <time>2023-08-21T07:47:23Z</time>
      </trkpt>
      <trkpt lat="45.70104" lon="6.62073">
        <ele>1076.6</ele>
        <time>2023-08-21T07:47:24Z</time>
      </trkpt>
      <trkpt lat="45.70104" lon="6.62071">
        <ele>1076.8</ele>
        <time>2023-08-21T07:47:25Z</time>
      </trkpt>
      <trkpt lat="45.70105" lon="6.62069">
        <ele>1076.8</ele>
        <time>2023-08-21T07:47:26Z</time>
      </trkpt>
      <trkpt lat="45.70104" lon="6.62066">
        <ele>1076.8</ele>
        <time>2023-08-21T07:47:27Z</time>
      </trkpt>
      <trkpt lat="45.70103" lon="6.62063">
        <ele>1077.8</ele>
        <time>2023-08-21T07:47:28Z</time>
      </trkpt>
      <trkpt lat="45.70103" lon="6.62059">
        <ele>1077.8</ele>
        <time>2023-08-21T07:47:29Z</time>
      </trkpt>
      <trkpt lat="45.70102" lon="6.62056">
        <ele>1077.8</ele>
        <time>2023-08-21T07:47:30Z</time>
      </trkpt>
      <trkpt lat="45.70101" lon="6.62053">
        <ele>1077.8</ele>
        <time>2023-08-21T07:47:31Z</time>
      </trkpt>
      <trkpt lat="45.70101" lon="6.62051">
        <ele>1078.6</ele>
        <time>2023-08-21T07:47:32Z</time>
      </trkpt>
      <trkpt lat="45.701" lon="6.62048">
        <ele>1078.6</ele>
        <time>2023-08-21T07:47:33Z</time>
      </trkpt>
      <trkpt lat="45.70099" lon="6.62045">
        <ele>1078.6</ele>
        <time>2023-08-21T07:47:34Z</time>
      </trkpt>
      <trkpt lat="45.70098" lon="6.62043">
        <ele>1078.6</ele>
        <time>2023-08-21T07:47:35Z</time>
      </trkpt>
      <trkpt lat="45.70097" lon="6.6204">
        <ele>1078.6</ele>
        <time>2023-08-21T07:47:36Z</time>
      </trkpt>
      <trkpt lat="45.70096" lon="6.62037">
        <ele>1079.2</ele>
        <time>2023-08-21T07:47:37Z</time>
      </trkpt>
      <trkpt lat="45.70094" lon="6.62034">
        <ele>1079.6</ele>
        <time>2023-08-21T07:47:38Z</time>
      </trkpt>
      <trkpt lat="45.70093" lon="6.6203">
        <ele>1079.6</ele>
        <time>2023-08-21T07:47:39Z</time>
      </trkpt>
      <trkpt lat="45.70092" lon="6.62028">
        <ele>1079.6</ele>
        <time>2023-08-21T07:47:40Z</time>
      </trkpt>
      <trkpt lat="45.70091" lon="6.62025">
        <ele>1080</ele>
        <time>2023-08-21T07:47:41Z</time>
      </trkpt>
      <trkpt lat="45.7009" lon="6.62021">
        <ele>1080.2</ele>
        <time>2023-08-21T07:47:42Z</time>
      </trkpt>
      <trkpt lat="45.70088" lon="6.62017">
        <ele>1080.2</ele>
        <time>2023-08-21T07:47:43Z</time>
      </trkpt>
      <trkpt lat="45.70087" lon="6.62013">
        <ele>1080.2</ele>
        <time>2023-08-21T07:47:44Z</time>
      </trkpt>
      <trkpt lat="45.70086" lon="6.6201">
        <ele>1080.2</ele>
        <time>2023-08-21T07:47:45Z</time>
      </trkpt>
      <trkpt lat="45.70086" lon="6.62007">
        <ele>1080.6</ele>
        <time>2023-08-21T07:47:46Z</time>
      </trkpt>
      <trkpt lat="45.70086" lon="6.62004">
        <ele>1081</ele>
        <time>2023-08-21T07:47:47Z</time>
      </trkpt>
      <trkpt lat="45.70085" lon="6.62001">
        <ele>1081</ele>
        <time>2023-08-21T07:47:48Z</time>
      </trkpt>
      <trkpt lat="45.70085" lon="6.61998">
        <ele>1081</ele>
        <time>2023-08-21T07:47:49Z</time>
      </trkpt>
      <trkpt lat="45.70086" lon="6.61995">
        <ele>1081.6</ele>
        <time>2023-08-21T07:47:50Z</time>
      </trkpt>
      <trkpt lat="45.70086" lon="6.61992">
        <ele>1082</ele>
        <time>2023-08-21T07:47:51Z</time>
      </trkpt>
      <trkpt lat="45.70087" lon="6.61989">
        <ele>1082</ele>
        <time>2023-08-21T07:47:52Z</time>
      </trkpt>
      <trkpt lat="45.70087" lon="6.61986">
        <ele>1082</ele>
        <time>2023-08-21T07:47:53Z</time>
      </trkpt>
      <trkpt lat="45.70087" lon="6.61983">
        <ele>1082</ele>
        <time>2023-08-21T07:47:54Z</time>
      </trkpt>
      <trkpt lat="45.70087" lon="6.6198">
        <ele>1083</ele>
        <time>2023-08-21T07:47:55Z</time>
      </trkpt>
      <trkpt lat="45.70087" lon="6.61978">
        <ele>1083</ele>
        <time>2023-08-21T07:47:56Z</time>
      </trkpt>
      <trkpt lat="45.70087" lon="6.61976">
        <ele>1083</ele>
        <time>2023-08-21T07:47:57Z</time>
      </trkpt>
      <trkpt lat="45.70086" lon="6.61973">
        <ele>1083</ele>
        <time>2023-08-21T07:47:58Z</time>
      </trkpt>
      <trkpt lat="45.70085" lon="6.61971">
        <ele>1083.8</ele>
        <time>2023-08-21T07:47:59Z</time>
      </trkpt>
      <trkpt lat="45.70085" lon="6.61969">
        <ele>1084</ele>
        <time>2023-08-21T07:48:00Z</time>
      </trkpt>
      <trkpt lat="45.70084" lon="6.61966">
        <ele>1084</ele>
        <time>2023-08-21T07:48:01Z</time>
      </trkpt>
      <trkpt lat="45.70083" lon="6.61964">
        <ele>1084</ele>
        <time>2023-08-21T07:48:02Z</time>
      </trkpt>
      <trkpt lat="45.70082" lon="6.61961">
        <ele>1084.6</ele>
        <time>2023-08-21T07:48:03Z</time>
      </trkpt>
      <trkpt lat="45.70083" lon="6.61959">
        <ele>1084.6</ele>
        <time>2023-08-21T07:48:04Z</time>
      </trkpt>
      <trkpt lat="45.70084" lon="6.61956">
        <ele>1084.8</ele>
        <time>2023-08-21T07:48:05Z</time>
      </trkpt>
      <trkpt lat="45.70084" lon="6.61953">
        <ele>1084.8</ele>
        <time>2023-08-21T07:48:06Z</time>
      </trkpt>
      <trkpt lat="45.70084" lon="6.61951">
        <ele>1084.8</ele>
        <time>2023-08-21T07:48:07Z</time>
      </trkpt>
      <trkpt lat="45.70084" lon="6.61948">
        <ele>1085.2</ele>
        <time>2023-08-21T07:48:08Z</time>
      </trkpt>
      <trkpt lat="45.70085" lon="6.61945">
        <ele>1085.4</ele>
        <time>2023-08-21T07:48:09Z</time>
      </trkpt>
      <trkpt lat="45.70085" lon="6.61942">
        <ele>1085.4</ele>
        <time>2023-08-21T07:48:10Z</time>
      </trkpt>
      <trkpt lat="45.70085" lon="6.61939">
        <ele>1085.4</ele>
        <time>2023-08-21T07:48:11Z</time>
      </trkpt>
      <trkpt lat="45.70085" lon="6.61936">
        <ele>1085.4</ele>
        <time>2023-08-21T07:48:12Z</time>
      </trkpt>
      <trkpt lat="45.70084" lon="6.61934">
        <ele>1086</ele>
        <time>2023-08-21T07:48:13Z</time>
      </trkpt>
      <trkpt lat="45.70084" lon="6.61931">
        <ele>1086</ele>
        <time>2023-08-21T07:48:14Z</time>
      </trkpt>
      <trkpt lat="45.70083" lon="6.61929">
        <ele>1086</ele>
        <time>2023-08-21T07:48:15Z</time>
      </trkpt>
      <trkpt lat="45.70083" lon="6.61927">
        <ele>1086</ele>
        <time>2023-08-21T07:48:16Z</time>
      </trkpt>
      <trkpt lat="45.70082" lon="6.61925">
        <ele>1086.8</ele>
        <time>2023-08-21T07:48:17Z</time>
      </trkpt>
      <trkpt lat="45.70082" lon="6.61923">
        <ele>1087</ele>
        <time>2023-08-21T07:48:18Z</time>
      </trkpt>
      <trkpt lat="45.70081" lon="6.61921">
        <ele>1087</ele>
        <time>2023-08-21T07:48:19Z</time>
      </trkpt>
      <trkpt lat="45.70082" lon="6.61919">
        <ele>1087</ele>
        <time>2023-08-21T07:48:20Z</time>
      </trkpt>
      <trkpt lat="45.70082" lon="6.61918">
        <ele>1087</ele>
        <time>2023-08-21T07:48:21Z</time>
      </trkpt>
      <trkpt lat="45.70081" lon="6.61915">
        <ele>1087.8</ele>
        <time>2023-08-21T07:48:22Z</time>
      </trkpt>
      <trkpt lat="45.7008" lon="6.61913">
        <ele>1087.8</ele>
        <time>2023-08-21T07:48:23Z</time>
      </trkpt>
      <trkpt lat="45.70079" lon="6.6191">
        <ele>1087.8</ele>
        <time>2023-08-21T07:48:24Z</time>
      </trkpt>
      <trkpt lat="45.70078" lon="6.61909">
        <ele>1087.8</ele>
        <time>2023-08-21T07:48:25Z</time>
      </trkpt>
      <trkpt lat="45.70076" lon="6.61907">
        <ele>1088.4</ele>
        <time>2023-08-21T07:48:26Z</time>
      </trkpt>
      <trkpt lat="45.70076" lon="6.61906">
        <ele>1088.6</ele>
        <time>2023-08-21T07:48:27Z</time>
      </trkpt>
      <trkpt lat="45.70076" lon="6.61904">
        <ele>1088.6</ele>
        <time>2023-08-21T07:48:28Z</time>
      </trkpt>
      <trkpt lat="45.70074" lon="6.61902">
        <ele>1088.6</ele>
        <time>2023-08-21T07:48:29Z</time>
      </trkpt>
      <trkpt lat="45.70072" lon="6.619">
        <ele>1088.6</ele>
        <time>2023-08-21T07:48:30Z</time>
      </trkpt>
      <trkpt lat="45.7007" lon="6.61898">
        <ele>1089.2</ele>
        <time>2023-08-21T07:48:31Z</time>
      </trkpt>
      <trkpt lat="45.70068" lon="6.61896">
        <ele>1089.2</ele>
        <time>2023-08-21T07:48:32Z</time>
      </trkpt>
      <trkpt lat="45.70066" lon="6.61895">
        <ele>1089.2</ele>
        <time>2023-08-21T07:48:33Z</time>
      </trkpt>
      <trkpt lat="45.70064" lon="6.61893">
        <ele>1089.2</ele>
        <time>2023-08-21T07:48:34Z</time>
      </trkpt>
      <trkpt lat="45.70062" lon="6.61892">
        <ele>1090</ele>
        <time>2023-08-21T07:48:35Z</time>
      </trkpt>
      <trkpt lat="45.7006" lon="6.6189">
        <ele>1090.2</ele>
        <time>2023-08-21T07:48:36Z</time>
      </trkpt>
      <trkpt lat="45.70058" lon="6.61888">
        <ele>1090.2</ele>
        <time>2023-08-21T07:48:37Z</time>
      </trkpt>
      <trkpt lat="45.70056" lon="6.61887">
        <ele>1090.2</ele>
        <time>2023-08-21T07:48:38Z</time>
      </trkpt>
      <trkpt lat="45.70055" lon="6.61886">
        <ele>1090.8</ele>
        <time>2023-08-21T07:48:39Z</time>
      </trkpt>
      <trkpt lat="45.70053" lon="6.61885">
        <ele>1090.8</ele>
        <time>2023-08-21T07:48:40Z</time>
      </trkpt>
      <trkpt lat="45.70051" lon="6.61884">
        <ele>1090.8</ele>
        <time>2023-08-21T07:48:41Z</time>
      </trkpt>
      <trkpt lat="45.70049" lon="6.61883">
        <ele>1090.8</ele>
        <time>2023-08-21T07:48:42Z</time>
      </trkpt>
      <trkpt lat="45.70047" lon="6.61882">
        <ele>1091.6</ele>
        <time>2023-08-21T07:48:43Z</time>
      </trkpt>
      <trkpt lat="45.70046" lon="6.61881">
        <ele>1091.6</ele>
        <time>2023-08-21T07:48:44Z</time>
      </trkpt>
      <trkpt lat="45.70044" lon="6.61879">
        <ele>1091.8</ele>
        <time>2023-08-21T07:48:45Z</time>
      </trkpt>
      <trkpt lat="45.70042" lon="6.61878">
        <ele>1091.8</ele>
        <time>2023-08-21T07:48:46Z</time>
      </trkpt>
      <trkpt lat="45.7004" lon="6.61877">
        <ele>1091.8</ele>
        <time>2023-08-21T07:48:47Z</time>
      </trkpt>
      <trkpt lat="45.70038" lon="6.61876">
        <ele>1091.8</ele>
        <time>2023-08-21T07:48:48Z</time>
      </trkpt>
      <trkpt lat="45.70036" lon="6.61875">
        <ele>1092.4</ele>
        <time>2023-08-21T07:48:49Z</time>
      </trkpt>
      <trkpt lat="45.70034" lon="6.61874">
        <ele>1092.8</ele>
        <time>2023-08-21T07:48:50Z</time>
      </trkpt>
      <trkpt lat="45.70032" lon="6.61874">
        <ele>1092.8</ele>
        <time>2023-08-21T07:48:51Z</time>
      </trkpt>
      <trkpt lat="45.7003" lon="6.61873">
        <ele>1092.8</ele>
        <time>2023-08-21T07:48:52Z</time>
      </trkpt>
      <trkpt lat="45.70029" lon="6.61873">
        <ele>1093.4</ele>
        <time>2023-08-21T07:48:53Z</time>
      </trkpt>
      <trkpt lat="45.70027" lon="6.61872">
        <ele>1093.6</ele>
        <time>2023-08-21T07:48:54Z</time>
      </trkpt>
      <trkpt lat="45.70025" lon="6.61871">
        <ele>1093.6</ele>
        <time>2023-08-21T07:48:55Z</time>
      </trkpt>
      <trkpt lat="45.70024" lon="6.6187">
        <ele>1093.6</ele>
        <time>2023-08-21T07:48:56Z</time>
      </trkpt>
      <trkpt lat="45.70022" lon="6.61869">
        <ele>1093.6</ele>
        <time>2023-08-21T07:48:57Z</time>
      </trkpt>
      <trkpt lat="45.7002" lon="6.61868">
        <ele>1094</ele>
        <time>2023-08-21T07:48:58Z</time>
      </trkpt>
      <trkpt lat="45.70019" lon="6.61867">
        <ele>1094.2</ele>
        <time>2023-08-21T07:48:59Z</time>
      </trkpt>
      <trkpt lat="45.70017" lon="6.61866">
        <ele>1094.2</ele>
        <time>2023-08-21T07:49:00Z</time>
      </trkpt>
      <trkpt lat="45.70016" lon="6.61865">
        <ele>1094.2</ele>
        <time>2023-08-21T07:49:01Z</time>
      </trkpt>
      <trkpt lat="45.70014" lon="6.61864">
        <ele>1094.8</ele>
        <time>2023-08-21T07:49:02Z</time>
      </trkpt>
      <trkpt lat="45.70011" lon="6.61862">
        <ele>1095.2</ele>
        <time>2023-08-21T07:49:03Z</time>
      </trkpt>
      <trkpt lat="45.70009" lon="6.6186">
        <ele>1095.2</ele>
        <time>2023-08-21T07:49:04Z</time>
      </trkpt>
      <trkpt lat="45.70007" lon="6.61859">
        <ele>1095.2</ele>
        <time>2023-08-21T07:49:05Z</time>
      </trkpt>
      <trkpt lat="45.70005" lon="6.61858">
        <ele>1095.8</ele>
        <time>2023-08-21T07:49:06Z</time>
      </trkpt>
      <trkpt lat="45.70003" lon="6.61857">
        <ele>1095.8</ele>
        <time>2023-08-21T07:49:07Z</time>
      </trkpt>
      <trkpt lat="45.70002" lon="6.61856">
        <ele>1095.8</ele>
        <time>2023-08-21T07:49:08Z</time>
      </trkpt>
      <trkpt lat="45.7" lon="6.61855">
        <ele>1095.8</ele>
        <time>2023-08-21T07:49:09Z</time>
      </trkpt>
      <trkpt lat="45.69998" lon="6.61854">
        <ele>1095.8</ele>
        <time>2023-08-21T07:49:10Z</time>
      </trkpt>
      <trkpt lat="45.69996" lon="6.61853">
        <ele>1096.6</ele>
        <time>2023-08-21T07:49:11Z</time>
      </trkpt>
      <trkpt lat="45.69994" lon="6.61851">
        <ele>1096.8</ele>
        <time>2023-08-21T07:49:12Z</time>
      </trkpt>
      <trkpt lat="45.69992" lon="6.61851">
        <ele>1096.8</ele>
        <time>2023-08-21T07:49:13Z</time>
      </trkpt>
      <trkpt lat="45.6999" lon="6.6185">
        <ele>1096.8</ele>
        <time>2023-08-21T07:49:14Z</time>
      </trkpt>
      <trkpt lat="45.69988" lon="6.61849">
        <ele>1097.4</ele>
        <time>2023-08-21T07:49:15Z</time>
      </trkpt>
      <trkpt lat="45.69986" lon="6.61849">
        <ele>1097.4</ele>
        <time>2023-08-21T07:49:16Z</time>
      </trkpt>
      <trkpt lat="45.69985" lon="6.61848">
        <ele>1097.4</ele>
        <time>2023-08-21T07:49:17Z</time>
      </trkpt>
      <trkpt lat="45.69983" lon="6.61847">
        <ele>1097.4</ele>
        <time>2023-08-21T07:49:18Z</time>
      </trkpt>
      <trkpt lat="45.69981" lon="6.61846">
        <ele>1097.4</ele>
        <time>2023-08-21T07:49:19Z</time>
      </trkpt>
      <trkpt lat="45.6998" lon="6.61845">
        <ele>1098.4</ele>
        <time>2023-08-21T07:49:20Z</time>
      </trkpt>
      <trkpt lat="45.69978" lon="6.61844">
        <ele>1098.6</ele>
        <time>2023-08-21T07:49:21Z</time>
      </trkpt>
      <trkpt lat="45.69976" lon="6.61842">
        <ele>1098.6</ele>
        <time>2023-08-21T07:49:22Z</time>
      </trkpt>
      <trkpt lat="45.69974" lon="6.61841">
        <ele>1098.6</ele>
        <time>2023-08-21T07:49:23Z</time>
      </trkpt>
      <trkpt lat="45.69973" lon="6.6184">
        <ele>1099.2</ele>
        <time>2023-08-21T07:49:24Z</time>
      </trkpt>
      <trkpt lat="45.69971" lon="6.61838">
        <ele>1099.6</ele>
        <time>2023-08-21T07:49:25Z</time>
      </trkpt>
      <trkpt lat="45.69969" lon="6.61837">
        <ele>1099.6</ele>
        <time>2023-08-21T07:49:26Z</time>
      </trkpt>
      <trkpt lat="45.69968" lon="6.61835">
        <ele>1099.6</ele>
        <time>2023-08-21T07:49:27Z</time>
      </trkpt>
      <trkpt lat="45.69966" lon="6.61833">
        <ele>1100</ele>
        <time>2023-08-21T07:49:28Z</time>
      </trkpt>
      <trkpt lat="45.69965" lon="6.61832">
        <ele>1100</ele>
        <time>2023-08-21T07:49:29Z</time>
      </trkpt>
      <trkpt lat="45.69964" lon="6.6183">
        <ele>1100.2</ele>
        <time>2023-08-21T07:49:30Z</time>
      </trkpt>
      <trkpt lat="45.69962" lon="6.61829">
        <ele>1100.2</ele>
        <time>2023-08-21T07:49:31Z</time>
      </trkpt>
      <trkpt lat="45.69961" lon="6.61827">
        <ele>1100.2</ele>
        <time>2023-08-21T07:49:32Z</time>
      </trkpt>
      <trkpt lat="45.6996" lon="6.61825">
        <ele>1100.2</ele>
        <time>2023-08-21T07:49:33Z</time>
      </trkpt>
      <trkpt lat="45.69959" lon="6.61823">
        <ele>1100.8</ele>
        <time>2023-08-21T07:49:34Z</time>
      </trkpt>
      <trkpt lat="45.69958" lon="6.61821">
        <ele>1101.2</ele>
        <time>2023-08-21T07:49:35Z</time>
      </trkpt>
      <trkpt lat="45.69957" lon="6.61819">
        <ele>1101.2</ele>
        <time>2023-08-21T07:49:36Z</time>
      </trkpt>
      <trkpt lat="45.69956" lon="6.61817">
        <ele>1101.2</ele>
        <time>2023-08-21T07:49:37Z</time>
      </trkpt>
      <trkpt lat="45.69955" lon="6.61815">
        <ele>1102</ele>
        <time>2023-08-21T07:49:38Z</time>
      </trkpt>
      <trkpt lat="45.69953" lon="6.61813">
        <ele>1102</ele>
        <time>2023-08-21T07:49:39Z</time>
      </trkpt>
      <trkpt lat="45.69951" lon="6.6181">
        <ele>1102</ele>
        <time>2023-08-21T07:49:40Z</time>
      </trkpt>
      <trkpt lat="45.6995" lon="6.61808">
        <ele>1102</ele>
        <time>2023-08-21T07:49:41Z</time>
      </trkpt>
      <trkpt lat="45.69949" lon="6.61807">
        <ele>1102.4</ele>
        <time>2023-08-21T07:49:42Z</time>
      </trkpt>
      <trkpt lat="45.69948" lon="6.61805">
        <ele>1102.6</ele>
        <time>2023-08-21T07:49:43Z</time>
      </trkpt>
      <trkpt lat="45.69947" lon="6.61804">
        <ele>1102.6</ele>
        <time>2023-08-21T07:49:44Z</time>
      </trkpt>
      <trkpt lat="45.69946" lon="6.61802">
        <ele>1102.6</ele>
        <time>2023-08-21T07:49:45Z</time>
      </trkpt>
      <trkpt lat="45.69946" lon="6.618">
        <ele>1102.6</ele>
        <time>2023-08-21T07:49:46Z</time>
      </trkpt>
      <trkpt lat="45.69944" lon="6.61798">
        <ele>1103.2</ele>
        <time>2023-08-21T07:49:47Z</time>
      </trkpt>
      <trkpt lat="45.69943" lon="6.61797">
        <ele>1103.4</ele>
        <time>2023-08-21T07:49:48Z</time>
      </trkpt>
      <trkpt lat="45.69942" lon="6.61795">
        <ele>1103.4</ele>
        <time>2023-08-21T07:49:49Z</time>
      </trkpt>
      <trkpt lat="45.69941" lon="6.61794">
        <ele>1103.4</ele>
        <time>2023-08-21T07:49:50Z</time>
      </trkpt>
      <trkpt lat="45.6994" lon="6.61792">
        <ele>1104</ele>
        <time>2023-08-21T07:49:51Z</time>
      </trkpt>
      <trkpt lat="45.69938" lon="6.6179">
        <ele>1104.2</ele>
        <time>2023-08-21T07:49:52Z</time>
      </trkpt>
      <trkpt lat="45.69937" lon="6.61788">
        <ele>1104.2</ele>
        <time>2023-08-21T07:49:53Z</time>
      </trkpt>
      <trkpt lat="45.69936" lon="6.61786">
        <ele>1104.2</ele>
        <time>2023-08-21T07:49:54Z</time>
      </trkpt>
      <trkpt lat="45.69934" lon="6.61785">
        <ele>1104.8</ele>
        <time>2023-08-21T07:49:55Z</time>
      </trkpt>
      <trkpt lat="45.69933" lon="6.61782">
        <ele>1105.2</ele>
        <time>2023-08-21T07:49:56Z</time>
      </trkpt>
      <trkpt lat="45.69933" lon="6.61781">
        <ele>1105.2</ele>
        <time>2023-08-21T07:49:57Z</time>
      </trkpt>
      <trkpt lat="45.69931" lon="6.61778">
        <ele>1105.2</ele>
        <time>2023-08-21T07:49:58Z</time>
      </trkpt>
      <trkpt lat="45.6993" lon="6.61776">
        <ele>1105.2</ele>
        <time>2023-08-21T07:49:59Z</time>
      </trkpt>
      <trkpt lat="45.6993" lon="6.61773">
        <ele>1105.6</ele>
        <time>2023-08-21T07:50:00Z</time>
      </trkpt>
      <trkpt lat="45.69929" lon="6.61771">
        <ele>1105.8</ele>
        <time>2023-08-21T07:50:01Z</time>
      </trkpt>
      <trkpt lat="45.69928" lon="6.61768">
        <ele>1105.8</ele>
        <time>2023-08-21T07:50:02Z</time>
      </trkpt>
      <trkpt lat="45.69927" lon="6.61767">
        <ele>1105.8</ele>
        <time>2023-08-21T07:50:03Z</time>
      </trkpt>
      <trkpt lat="45.69927" lon="6.61765">
        <ele>1106.2</ele>
        <time>2023-08-21T07:50:04Z</time>
      </trkpt>
      <trkpt lat="45.69926" lon="6.61763">
        <ele>1106.6</ele>
        <time>2023-08-21T07:50:05Z</time>
      </trkpt>
      <trkpt lat="45.69926" lon="6.61761">
        <ele>1106.6</ele>
        <time>2023-08-21T07:50:06Z</time>
      </trkpt>
      <trkpt lat="45.69925" lon="6.61759">
        <ele>1106.6</ele>
        <time>2023-08-21T07:50:07Z</time>
      </trkpt>
      <trkpt lat="45.69925" lon="6.61757">
        <ele>1106.6</ele>
        <time>2023-08-21T07:50:08Z</time>
      </trkpt>
      <trkpt lat="45.69924" lon="6.61754">
        <ele>1106.8</ele>
        <time>2023-08-21T07:50:09Z</time>
      </trkpt>
      <trkpt lat="45.69923" lon="6.61752">
        <ele>1107</ele>
        <time>2023-08-21T07:50:10Z</time>
      </trkpt>
      <trkpt lat="45.69922" lon="6.61751">
        <ele>1107</ele>
        <time>2023-08-21T07:50:11Z</time>
      </trkpt>
      <trkpt lat="45.69921" lon="6.61749">
        <ele>1107</ele>
        <time>2023-08-21T07:50:12Z</time>
      </trkpt>
      <trkpt lat="45.6992" lon="6.61747">
        <ele>1107</ele>
        <time>2023-08-21T07:50:13Z</time>
      </trkpt>
      <trkpt lat="45.69919" lon="6.61745">
        <ele>1107.8</ele>
        <time>2023-08-21T07:50:14Z</time>
      </trkpt>
      <trkpt lat="45.69918" lon="6.61744">
        <ele>1108</ele>
        <time>2023-08-21T07:50:15Z</time>
      </trkpt>
      <trkpt lat="45.69915" lon="6.61743">
        <ele>1108</ele>
        <time>2023-08-21T07:50:16Z</time>
      </trkpt>
      <trkpt lat="45.69913" lon="6.61741">
        <ele>1108</ele>
        <time>2023-08-21T07:50:17Z</time>
      </trkpt>
      <trkpt lat="45.69912" lon="6.61738">
        <ele>1108</ele>
        <time>2023-08-21T07:50:18Z</time>
      </trkpt>
      <trkpt lat="45.69911" lon="6.61736">
        <ele>1108</ele>
        <time>2023-08-21T07:50:19Z</time>
      </trkpt>
      <trkpt lat="45.69911" lon="6.61733">
        <ele>1108.8</ele>
        <time>2023-08-21T07:50:20Z</time>
      </trkpt>
      <trkpt lat="45.69911" lon="6.61731">
        <ele>1108.8</ele>
        <time>2023-08-21T07:50:21Z</time>
      </trkpt>
      <trkpt lat="45.69911" lon="6.61729">
        <ele>1108.8</ele>
        <time>2023-08-21T07:50:22Z</time>
      </trkpt>
      <trkpt lat="45.6991" lon="6.61726">
        <ele>1109.6</ele>
        <time>2023-08-21T07:50:23Z</time>
      </trkpt>
      <trkpt lat="45.69909" lon="6.61723">
        <ele>1109.4</ele>
        <time>2023-08-21T07:50:24Z</time>
      </trkpt>
      <trkpt lat="45.69908" lon="6.61722">
        <ele>1109.4</ele>
        <time>2023-08-21T07:50:25Z</time>
      </trkpt>
      <trkpt lat="45.69907" lon="6.6172">
        <ele>1109.4</ele>
        <time>2023-08-21T07:50:26Z</time>
      </trkpt>
      <trkpt lat="45.69907" lon="6.6172">
        <ele>1110.2</ele>
        <time>2023-08-21T07:50:27Z</time>
      </trkpt>
      <trkpt lat="45.69906" lon="6.61717">
        <ele>1110.6</ele>
        <time>2023-08-21T07:50:28Z</time>
      </trkpt>
      <trkpt lat="45.69906" lon="6.61717">
        <ele>1110.6</ele>
        <time>2023-08-21T07:50:29Z</time>
      </trkpt>
      <trkpt lat="45.69903" lon="6.61705">
        <ele>1110.6</ele>
        <time>2023-08-21T07:50:30Z</time>
      </trkpt>
      <trkpt lat="45.69901" lon="6.61701">
        <ele>1110.6</ele>
        <time>2023-08-21T07:50:31Z</time>
      </trkpt>
      <trkpt lat="45.699" lon="6.61698">
        <ele>1111</ele>
        <time>2023-08-21T07:50:32Z</time>
      </trkpt>
      <trkpt lat="45.69899" lon="6.61696">
        <ele>1111.2</ele>
        <time>2023-08-21T07:50:33Z</time>
      </trkpt>
      <trkpt lat="45.69898" lon="6.61692">
        <ele>1111.2</ele>
        <time>2023-08-21T07:50:34Z</time>
      </trkpt>
      <trkpt lat="45.69898" lon="6.61689">
        <ele>1111.2</ele>
        <time>2023-08-21T07:50:35Z</time>
      </trkpt>
      <trkpt lat="45.69898" lon="6.61686">
        <ele>1111.4</ele>
        <time>2023-08-21T07:50:36Z</time>
      </trkpt>
      <trkpt lat="45.69897" lon="6.61682">
        <ele>1111.6</ele>
        <time>2023-08-21T07:50:37Z</time>
      </trkpt>
      <trkpt lat="45.69896" lon="6.61678">
        <ele>1111.6</ele>
        <time>2023-08-21T07:50:38Z</time>
      </trkpt>
      <trkpt lat="45.69895" lon="6.61674">
        <ele>1111.6</ele>
        <time>2023-08-21T07:50:39Z</time>
      </trkpt>
      <trkpt lat="45.69894" lon="6.6167">
        <ele>1111.6</ele>
        <time>2023-08-21T07:50:40Z</time>
      </trkpt>
      <trkpt lat="45.69893" lon="6.61668">
        <ele>1112.4</ele>
        <time>2023-08-21T07:50:41Z</time>
      </trkpt>
      <trkpt lat="45.69893" lon="6.61665">
        <ele>1112.6</ele>
        <time>2023-08-21T07:50:42Z</time>
      </trkpt>
      <trkpt lat="45.69892" lon="6.61662">
        <ele>1112.6</ele>
        <time>2023-08-21T07:50:43Z</time>
      </trkpt>
      <trkpt lat="45.69891" lon="6.61659">
        <ele>1112.6</ele>
        <time>2023-08-21T07:50:44Z</time>
      </trkpt>
      <trkpt lat="45.6989" lon="6.61657">
        <ele>1113.2</ele>
        <time>2023-08-21T07:50:45Z</time>
      </trkpt>
      <trkpt lat="45.6989" lon="6.61655">
        <ele>1113.4</ele>
        <time>2023-08-21T07:50:46Z</time>
      </trkpt>
      <trkpt lat="45.6989" lon="6.61653">
        <ele>1113.4</ele>
        <time>2023-08-21T07:50:47Z</time>
      </trkpt>
      <trkpt lat="45.69889" lon="6.6165">
        <ele>1113.4</ele>
        <time>2023-08-21T07:50:48Z</time>
      </trkpt>
      <trkpt lat="45.69888" lon="6.61645">
        <ele>1114.2</ele>
        <time>2023-08-21T07:50:49Z</time>
      </trkpt>
      <trkpt lat="45.69888" lon="6.61642">
        <ele>1114.2</ele>
        <time>2023-08-21T07:50:50Z</time>
      </trkpt>
      <trkpt lat="45.69886" lon="6.6164">
        <ele>1114.2</ele>
        <time>2023-08-21T07:50:51Z</time>
      </trkpt>
      <trkpt lat="45.69886" lon="6.61638">
        <ele>1114.2</ele>
        <time>2023-08-21T07:50:52Z</time>
      </trkpt>
      <trkpt lat="45.69887" lon="6.61636">
        <ele>1114.8</ele>
        <time>2023-08-21T07:50:53Z</time>
      </trkpt>
      <trkpt lat="45.69887" lon="6.61633">
        <ele>1114.8</ele>
        <time>2023-08-21T07:50:54Z</time>
      </trkpt>
      <trkpt lat="45.69886" lon="6.6163">
        <ele>1114.8</ele>
        <time>2023-08-21T07:50:55Z</time>
      </trkpt>
      <trkpt lat="45.69885" lon="6.61628">
        <ele>1115</ele>
        <time>2023-08-21T07:50:56Z</time>
      </trkpt>
      <trkpt lat="45.69885" lon="6.61625">
        <ele>1115</ele>
        <time>2023-08-21T07:50:57Z</time>
      </trkpt>
      <trkpt lat="45.69884" lon="6.61622">
        <ele>1115</ele>
        <time>2023-08-21T07:50:58Z</time>
      </trkpt>
      <trkpt lat="45.69884" lon="6.61618">
        <ele>1115</ele>
        <time>2023-08-21T07:50:59Z</time>
      </trkpt>
      <trkpt lat="45.69884" lon="6.61615">
        <ele>1115.4</ele>
        <time>2023-08-21T07:51:00Z</time>
      </trkpt>
      <trkpt lat="45.69883" lon="6.61612">
        <ele>1115.4</ele>
        <time>2023-08-21T07:51:01Z</time>
      </trkpt>
      <trkpt lat="45.69882" lon="6.61609">
        <ele>1115.4</ele>
        <time>2023-08-21T07:51:02Z</time>
      </trkpt>
      <trkpt lat="45.69881" lon="6.61606">
        <ele>1115.8</ele>
        <time>2023-08-21T07:51:03Z</time>
      </trkpt>
      <trkpt lat="45.69881" lon="6.61602">
        <ele>1116</ele>
        <time>2023-08-21T07:51:04Z</time>
      </trkpt>
      <trkpt lat="45.69881" lon="6.616">
        <ele>1116</ele>
        <time>2023-08-21T07:51:05Z</time>
      </trkpt>
      <trkpt lat="45.6988" lon="6.61597">
        <ele>1116</ele>
        <time>2023-08-21T07:51:06Z</time>
      </trkpt>
      <trkpt lat="45.69879" lon="6.61593">
        <ele>1116</ele>
        <time>2023-08-21T07:51:07Z</time>
      </trkpt>
      <trkpt lat="45.69877" lon="6.6159">
        <ele>1116.4</ele>
        <time>2023-08-21T07:51:08Z</time>
      </trkpt>
      <trkpt lat="45.69876" lon="6.61587">
        <ele>1116.6</ele>
        <time>2023-08-21T07:51:09Z</time>
      </trkpt>
      <trkpt lat="45.69876" lon="6.61584">
        <ele>1116.6</ele>
        <time>2023-08-21T07:51:10Z</time>
      </trkpt>
      <trkpt lat="45.69873" lon="6.61581">
        <ele>1116.6</ele>
        <time>2023-08-21T07:51:11Z</time>
      </trkpt>
      <trkpt lat="45.6987" lon="6.61577">
        <ele>1117.2</ele>
        <time>2023-08-21T07:51:12Z</time>
      </trkpt>
      <trkpt lat="45.69869" lon="6.61574">
        <ele>1117.4</ele>
        <time>2023-08-21T07:51:13Z</time>
      </trkpt>
      <trkpt lat="45.69868" lon="6.61571">
        <ele>1117.4</ele>
        <time>2023-08-21T07:51:14Z</time>
      </trkpt>
      <trkpt lat="45.69867" lon="6.61567">
        <ele>1117.4</ele>
        <time>2023-08-21T07:51:15Z</time>
      </trkpt>
      <trkpt lat="45.69866" lon="6.61564">
        <ele>1117.6</ele>
        <time>2023-08-21T07:51:16Z</time>
      </trkpt>
      <trkpt lat="45.69866" lon="6.61562">
        <ele>1117.6</ele>
        <time>2023-08-21T07:51:17Z</time>
      </trkpt>
      <trkpt lat="45.69866" lon="6.61559">
        <ele>1117.6</ele>
        <time>2023-08-21T07:51:18Z</time>
      </trkpt>
      <trkpt lat="45.69866" lon="6.61556">
        <ele>1117.6</ele>
        <time>2023-08-21T07:51:19Z</time>
      </trkpt>
      <trkpt lat="45.69864" lon="6.61552">
        <ele>1117.6</ele>
        <time>2023-08-21T07:51:20Z</time>
      </trkpt>
      <trkpt lat="45.69864" lon="6.6155">
        <ele>1118.2</ele>
        <time>2023-08-21T07:51:21Z</time>
      </trkpt>
      <trkpt lat="45.69863" lon="6.61546">
        <ele>1118</ele>
        <time>2023-08-21T07:51:22Z</time>
      </trkpt>
      <trkpt lat="45.69862" lon="6.61543">
        <ele>1118</ele>
        <time>2023-08-21T07:51:23Z</time>
      </trkpt>
      <trkpt lat="45.69862" lon="6.61539">
        <ele>1118</ele>
        <time>2023-08-21T07:51:24Z</time>
      </trkpt>
      <trkpt lat="45.69862" lon="6.61535">
        <ele>1118.6</ele>
        <time>2023-08-21T07:51:25Z</time>
      </trkpt>
      <trkpt lat="45.69862" lon="6.61532">
        <ele>1118.8</ele>
        <time>2023-08-21T07:51:26Z</time>
      </trkpt>
      <trkpt lat="45.69861" lon="6.61528">
        <ele>1118.8</ele>
        <time>2023-08-21T07:51:27Z</time>
      </trkpt>
      <trkpt lat="45.69861" lon="6.61524">
        <ele>1118.8</ele>
        <time>2023-08-21T07:51:28Z</time>
      </trkpt>
      <trkpt lat="45.6986" lon="6.6152">
        <ele>1118.8</ele>
        <time>2023-08-21T07:51:29Z</time>
      </trkpt>
      <trkpt lat="45.69859" lon="6.61515">
        <ele>1119</ele>
        <time>2023-08-21T07:51:30Z</time>
      </trkpt>
      <trkpt lat="45.69858" lon="6.6151">
        <ele>1119</ele>
        <time>2023-08-21T07:51:31Z</time>
      </trkpt>
      <trkpt lat="45.69856" lon="6.61506">
        <ele>1119</ele>
        <time>2023-08-21T07:51:32Z</time>
      </trkpt>
      <trkpt lat="45.69855" lon="6.61503">
        <ele>1119</ele>
        <time>2023-08-21T07:51:33Z</time>
      </trkpt>
      <trkpt lat="45.69852" lon="6.615">
        <ele>1119.2</ele>
        <time>2023-08-21T07:51:34Z</time>
      </trkpt>
      <trkpt lat="45.69849" lon="6.61496">
        <ele>1119.4</ele>
        <time>2023-08-21T07:51:35Z</time>
      </trkpt>
      <trkpt lat="45.69847" lon="6.61492">
        <ele>1119.4</ele>
        <time>2023-08-21T07:51:36Z</time>
      </trkpt>
      <trkpt lat="45.69844" lon="6.61489">
        <ele>1119.4</ele>
        <time>2023-08-21T07:51:37Z</time>
      </trkpt>
      <trkpt lat="45.69843" lon="6.61487">
        <ele>1119.4</ele>
        <time>2023-08-21T07:51:38Z</time>
      </trkpt>
      <trkpt lat="45.6984" lon="6.61484">
        <ele>1119.6</ele>
        <time>2023-08-21T07:51:39Z</time>
      </trkpt>
      <trkpt lat="45.69838" lon="6.61482">
        <ele>1119.6</ele>
        <time>2023-08-21T07:51:40Z</time>
      </trkpt>
      <trkpt lat="45.69836" lon="6.61482">
        <ele>1119.6</ele>
        <time>2023-08-21T07:51:41Z</time>
      </trkpt>
      <trkpt lat="45.69834" lon="6.61481">
        <ele>1119.6</ele>
        <time>2023-08-21T07:51:42Z</time>
      </trkpt>
      <trkpt lat="45.69832" lon="6.61481">
        <ele>1119.6</ele>
        <time>2023-08-21T07:51:43Z</time>
      </trkpt>
      <trkpt lat="45.69831" lon="6.61481">
        <ele>1119.6</ele>
        <time>2023-08-21T07:51:44Z</time>
      </trkpt>
      <trkpt lat="45.69828" lon="6.61479">
        <ele>1120.2</ele>
        <time>2023-08-21T07:51:45Z</time>
      </trkpt>
      <trkpt lat="45.69826" lon="6.61477">
        <ele>1120.2</ele>
        <time>2023-08-21T07:51:46Z</time>
      </trkpt>
      <trkpt lat="45.69823" lon="6.61475">
        <ele>1120.2</ele>
        <time>2023-08-21T07:51:47Z</time>
      </trkpt>
      <trkpt lat="45.69821" lon="6.61474">
        <ele>1120.6</ele>
        <time>2023-08-21T07:51:48Z</time>
      </trkpt>
      <trkpt lat="45.69818" lon="6.61472">
        <ele>1121</ele>
        <time>2023-08-21T07:51:49Z</time>
      </trkpt>
      <trkpt lat="45.69816" lon="6.61471">
        <ele>1121</ele>
        <time>2023-08-21T07:51:50Z</time>
      </trkpt>
      <trkpt lat="45.69814" lon="6.61469">
        <ele>1121</ele>
        <time>2023-08-21T07:51:51Z</time>
      </trkpt>
      <trkpt lat="45.69811" lon="6.61467">
        <ele>1121</ele>
        <time>2023-08-21T07:51:52Z</time>
      </trkpt>
      <trkpt lat="45.69809" lon="6.61465">
        <ele>1121.8</ele>
        <time>2023-08-21T07:51:53Z</time>
      </trkpt>
      <trkpt lat="45.69806" lon="6.61464">
        <ele>1121.8</ele>
        <time>2023-08-21T07:51:54Z</time>
      </trkpt>
      <trkpt lat="45.69804" lon="6.61464">
        <ele>1121.8</ele>
        <time>2023-08-21T07:51:55Z</time>
      </trkpt>
      <trkpt lat="45.69802" lon="6.61464">
        <ele>1121.8</ele>
        <time>2023-08-21T07:51:56Z</time>
      </trkpt>
      <trkpt lat="45.698" lon="6.61463">
        <ele>1122.4</ele>
        <time>2023-08-21T07:51:57Z</time>
      </trkpt>
      <trkpt lat="45.69798" lon="6.61462">
        <ele>1122.6</ele>
        <time>2023-08-21T07:51:58Z</time>
      </trkpt>
      <trkpt lat="45.69797" lon="6.61462">
        <ele>1122.6</ele>
        <time>2023-08-21T07:51:59Z</time>
      </trkpt>
      <trkpt lat="45.69795" lon="6.61462">
        <ele>1122.6</ele>
        <time>2023-08-21T07:52:00Z</time>
      </trkpt>
      <trkpt lat="45.69793" lon="6.61462">
        <ele>1123.2</ele>
        <time>2023-08-21T07:52:01Z</time>
      </trkpt>
      <trkpt lat="45.69791" lon="6.6146">
        <ele>1123.2</ele>
        <time>2023-08-21T07:52:02Z</time>
      </trkpt>
      <trkpt lat="45.69789" lon="6.6146">
        <ele>1123.4</ele>
        <time>2023-08-21T07:52:03Z</time>
      </trkpt>
      <trkpt lat="45.69787" lon="6.6146">
        <ele>1123.4</ele>
        <time>2023-08-21T07:52:04Z</time>
      </trkpt>
      <trkpt lat="45.69785" lon="6.61459">
        <ele>1123.4</ele>
        <time>2023-08-21T07:52:05Z</time>
      </trkpt>
      <trkpt lat="45.69784" lon="6.61459">
        <ele>1124.2</ele>
        <time>2023-08-21T07:52:06Z</time>
      </trkpt>
      <trkpt lat="45.69782" lon="6.61459">
        <ele>1124.2</ele>
        <time>2023-08-21T07:52:07Z</time>
      </trkpt>
      <trkpt lat="45.69779" lon="6.61459">
        <ele>1124.2</ele>
        <time>2023-08-21T07:52:08Z</time>
      </trkpt>
      <trkpt lat="45.69777" lon="6.61458">
        <ele>1124.2</ele>
        <time>2023-08-21T07:52:09Z</time>
      </trkpt>
      <trkpt lat="45.69775" lon="6.61457">
        <ele>1124.8</ele>
        <time>2023-08-21T07:52:10Z</time>
      </trkpt>
      <trkpt lat="45.69773" lon="6.61456">
        <ele>1125</ele>
        <time>2023-08-21T07:52:11Z</time>
      </trkpt>
      <trkpt lat="45.69771" lon="6.61455">
        <ele>1125</ele>
        <time>2023-08-21T07:52:12Z</time>
      </trkpt>
      <trkpt lat="45.69769" lon="6.61455">
        <ele>1125</ele>
        <time>2023-08-21T07:52:13Z</time>
      </trkpt>
      <trkpt lat="45.69768" lon="6.61455">
        <ele>1125</ele>
        <time>2023-08-21T07:52:14Z</time>
      </trkpt>
      <trkpt lat="45.69766" lon="6.61455">
        <ele>1125.6</ele>
        <time>2023-08-21T07:52:15Z</time>
      </trkpt>
      <trkpt lat="45.69764" lon="6.61455">
        <ele>1125.8</ele>
        <time>2023-08-21T07:52:16Z</time>
      </trkpt>
      <trkpt lat="45.69762" lon="6.61454">
        <ele>1125.8</ele>
        <time>2023-08-21T07:52:17Z</time>
      </trkpt>
      <trkpt lat="45.6976" lon="6.61453">
        <ele>1125.8</ele>
        <time>2023-08-21T07:52:18Z</time>
      </trkpt>
      <trkpt lat="45.69758" lon="6.61452">
        <ele>1126.4</ele>
        <time>2023-08-21T07:52:19Z</time>
      </trkpt>
      <trkpt lat="45.69756" lon="6.61451">
        <ele>1126.4</ele>
        <time>2023-08-21T07:52:20Z</time>
      </trkpt>
      <trkpt lat="45.69754" lon="6.6145">
        <ele>1126.6</ele>
        <time>2023-08-21T07:52:21Z</time>
      </trkpt>
      <trkpt lat="45.69752" lon="6.61449">
        <ele>1126.6</ele>
        <time>2023-08-21T07:52:22Z</time>
      </trkpt>
      <trkpt lat="45.6975" lon="6.61448">
        <ele>1126.6</ele>
        <time>2023-08-21T07:52:23Z</time>
      </trkpt>
      <trkpt lat="45.69747" lon="6.61448">
        <ele>1127.2</ele>
        <time>2023-08-21T07:52:24Z</time>
      </trkpt>
      <trkpt lat="45.69746" lon="6.61447">
        <ele>1127.2</ele>
        <time>2023-08-21T07:52:25Z</time>
      </trkpt>
      <trkpt lat="45.69745" lon="6.61446">
        <ele>1127.2</ele>
        <time>2023-08-21T07:52:26Z</time>
      </trkpt>
      <trkpt lat="45.69744" lon="6.61445">
        <ele>1127.2</ele>
        <time>2023-08-21T07:52:27Z</time>
      </trkpt>
      <trkpt lat="45.69741" lon="6.61444">
        <ele>1127.2</ele>
        <time>2023-08-21T07:52:28Z</time>
      </trkpt>
      <trkpt lat="45.69739" lon="6.61443">
        <ele>1128</ele>
        <time>2023-08-21T07:52:29Z</time>
      </trkpt>
      <trkpt lat="45.69735" lon="6.61442">
        <ele>1128</ele>
        <time>2023-08-21T07:52:30Z</time>
      </trkpt>
      <trkpt lat="45.69733" lon="6.6144">
        <ele>1128</ele>
        <time>2023-08-21T07:52:31Z</time>
      </trkpt>
      <trkpt lat="45.6973" lon="6.61439">
        <ele>1128</ele>
        <time>2023-08-21T07:52:32Z</time>
      </trkpt>
      <trkpt lat="45.69727" lon="6.61437">
        <ele>1128.4</ele>
        <time>2023-08-21T07:52:33Z</time>
      </trkpt>
      <trkpt lat="45.69725" lon="6.61436">
        <ele>1128.6</ele>
        <time>2023-08-21T07:52:34Z</time>
      </trkpt>
      <trkpt lat="45.69723" lon="6.61433">
        <ele>1128.6</ele>
        <time>2023-08-21T07:52:35Z</time>
      </trkpt>
      <trkpt lat="45.69722" lon="6.61429">
        <ele>1128.6</ele>
        <time>2023-08-21T07:52:36Z</time>
      </trkpt>
      <trkpt lat="45.6972" lon="6.61427">
        <ele>1129.2</ele>
        <time>2023-08-21T07:52:37Z</time>
      </trkpt>
      <trkpt lat="45.69719" lon="6.61424">
        <ele>1129.2</ele>
        <time>2023-08-21T07:52:38Z</time>
      </trkpt>
      <trkpt lat="45.69717" lon="6.61422">
        <ele>1129.4</ele>
        <time>2023-08-21T07:52:39Z</time>
      </trkpt>
      <trkpt lat="45.69715" lon="6.6142">
        <ele>1129.4</ele>
        <time>2023-08-21T07:52:40Z</time>
      </trkpt>
      <trkpt lat="45.69713" lon="6.61418">
        <ele>1129.4</ele>
        <time>2023-08-21T07:52:41Z</time>
      </trkpt>
      <trkpt lat="45.69711" lon="6.61416">
        <ele>1129.8</ele>
        <time>2023-08-21T07:52:42Z</time>
      </trkpt>
      <trkpt lat="45.69709" lon="6.61415">
        <ele>1130</ele>
        <time>2023-08-21T07:52:43Z</time>
      </trkpt>
      <trkpt lat="45.69707" lon="6.61415">
        <ele>1130</ele>
        <time>2023-08-21T07:52:44Z</time>
      </trkpt>
      <trkpt lat="45.69706" lon="6.61416">
        <ele>1130</ele>
        <time>2023-08-21T07:52:45Z</time>
      </trkpt>
      <trkpt lat="45.69704" lon="6.61417">
        <ele>1130.8</ele>
        <time>2023-08-21T07:52:46Z</time>
      </trkpt>
      <trkpt lat="45.69702" lon="6.61418">
        <ele>1130.8</ele>
        <time>2023-08-21T07:52:47Z</time>
      </trkpt>
      <trkpt lat="45.697" lon="6.61419">
        <ele>1130.6</ele>
        <time>2023-08-21T07:52:48Z</time>
      </trkpt>
      <trkpt lat="45.69698" lon="6.6142">
        <ele>1130.6</ele>
        <time>2023-08-21T07:52:49Z</time>
      </trkpt>
      <trkpt lat="45.69696" lon="6.61423">
        <ele>1130.6</ele>
        <time>2023-08-21T07:52:50Z</time>
      </trkpt>
      <trkpt lat="45.69693" lon="6.61425">
        <ele>1131.4</ele>
        <time>2023-08-21T07:52:51Z</time>
      </trkpt>
      <trkpt lat="45.69692" lon="6.61427">
        <ele>1131.4</ele>
        <time>2023-08-21T07:52:52Z</time>
      </trkpt>
      <trkpt lat="45.69691" lon="6.6143">
        <ele>1131.4</ele>
        <time>2023-08-21T07:52:53Z</time>
      </trkpt>
      <trkpt lat="45.69691" lon="6.61433">
        <ele>1131.4</ele>
        <time>2023-08-21T07:52:54Z</time>
      </trkpt>
      <trkpt lat="45.69691" lon="6.61437">
        <ele>1131.8</ele>
        <time>2023-08-21T07:52:55Z</time>
      </trkpt>
      <trkpt lat="45.69692" lon="6.61441">
        <ele>1132</ele>
        <time>2023-08-21T07:52:56Z</time>
      </trkpt>
      <trkpt lat="45.69693" lon="6.61444">
        <ele>1132</ele>
        <time>2023-08-21T07:52:57Z</time>
      </trkpt>
      <trkpt lat="45.69695" lon="6.61447">
        <ele>1132</ele>
        <time>2023-08-21T07:52:58Z</time>
      </trkpt>
      <trkpt lat="45.69697" lon="6.61449">
        <ele>1132</ele>
        <time>2023-08-21T07:52:59Z</time>
      </trkpt>
      <trkpt lat="45.69699" lon="6.61451">
        <ele>1132.4</ele>
        <time>2023-08-21T07:53:00Z</time>
      </trkpt>
      <trkpt lat="45.69701" lon="6.61453">
        <ele>1132.4</ele>
        <time>2023-08-21T07:53:01Z</time>
      </trkpt>
      <trkpt lat="45.69704" lon="6.61455">
        <ele>1132.4</ele>
        <time>2023-08-21T07:53:02Z</time>
      </trkpt>
      <trkpt lat="45.69706" lon="6.61457">
        <ele>1132.4</ele>
        <time>2023-08-21T07:53:03Z</time>
      </trkpt>
      <trkpt lat="45.69708" lon="6.61459">
        <ele>1132.4</ele>
        <time>2023-08-21T07:53:04Z</time>
      </trkpt>
      <trkpt lat="45.6971" lon="6.61461">
        <ele>1132.4</ele>
        <time>2023-08-21T07:53:05Z</time>
      </trkpt>
      <trkpt lat="45.69712" lon="6.61462">
        <ele>1133</ele>
        <time>2023-08-21T07:53:06Z</time>
      </trkpt>
      <trkpt lat="45.69714" lon="6.61464">
        <ele>1133</ele>
        <time>2023-08-21T07:53:07Z</time>
      </trkpt>
      <trkpt lat="45.69716" lon="6.61465">
        <ele>1133</ele>
        <time>2023-08-21T07:53:08Z</time>
      </trkpt>
      <trkpt lat="45.69719" lon="6.61467">
        <ele>1133.6</ele>
        <time>2023-08-21T07:53:09Z</time>
      </trkpt>
      <trkpt lat="45.69721" lon="6.61469">
        <ele>1133.6</ele>
        <time>2023-08-21T07:53:10Z</time>
      </trkpt>
      <trkpt lat="45.69722" lon="6.6147">
        <ele>1133.6</ele>
        <time>2023-08-21T07:53:11Z</time>
      </trkpt>
      <trkpt lat="45.69724" lon="6.61471">
        <ele>1133.6</ele>
        <time>2023-08-21T07:53:12Z</time>
      </trkpt>
      <trkpt lat="45.69726" lon="6.61474">
        <ele>1133.6</ele>
        <time>2023-08-21T07:53:13Z</time>
      </trkpt>
      <trkpt lat="45.69728" lon="6.61475">
        <ele>1134</ele>
        <time>2023-08-21T07:53:14Z</time>
      </trkpt>
      <trkpt lat="45.6973" lon="6.61477">
        <ele>1134.6</ele>
        <time>2023-08-21T07:53:15Z</time>
      </trkpt>
      <trkpt lat="45.69732" lon="6.61479">
        <ele>1134.6</ele>
        <time>2023-08-21T07:53:16Z</time>
      </trkpt>
      <trkpt lat="45.69734" lon="6.61481">
        <ele>1134.6</ele>
        <time>2023-08-21T07:53:17Z</time>
      </trkpt>
      <trkpt lat="45.69736" lon="6.61483">
        <ele>1135.2</ele>
        <time>2023-08-21T07:53:18Z</time>
      </trkpt>
      <trkpt lat="45.69738" lon="6.61485">
        <ele>1135.2</ele>
        <time>2023-08-21T07:53:19Z</time>
      </trkpt>
      <trkpt lat="45.6974" lon="6.61486">
        <ele>1135.2</ele>
        <time>2023-08-21T07:53:20Z</time>
      </trkpt>
      <trkpt lat="45.69742" lon="6.61489">
        <ele>1135.2</ele>
        <time>2023-08-21T07:53:21Z</time>
      </trkpt>
      <trkpt lat="45.69743" lon="6.61491">
        <ele>1136.2</ele>
        <time>2023-08-21T07:53:22Z</time>
      </trkpt>
      <trkpt lat="45.69745" lon="6.61492">
        <ele>1136.2</ele>
        <time>2023-08-21T07:53:23Z</time>
      </trkpt>
      <trkpt lat="45.69745" lon="6.61494">
        <ele>1136.2</ele>
        <time>2023-08-21T07:53:24Z</time>
      </trkpt>
      <trkpt lat="45.69747" lon="6.61495">
        <ele>1136.2</ele>
        <time>2023-08-21T07:53:25Z</time>
      </trkpt>
      <trkpt lat="45.69748" lon="6.61497">
        <ele>1136.2</ele>
        <time>2023-08-21T07:53:26Z</time>
      </trkpt>
      <trkpt lat="45.6975" lon="6.61499">
        <ele>1136.8</ele>
        <time>2023-08-21T07:53:27Z</time>
      </trkpt>
      <trkpt lat="45.69751" lon="6.61503">
        <ele>1137.2</ele>
        <time>2023-08-21T07:53:28Z</time>
      </trkpt>
      <trkpt lat="45.69753" lon="6.61505">
        <ele>1137.2</ele>
        <time>2023-08-21T07:53:29Z</time>
      </trkpt>
      <trkpt lat="45.69754" lon="6.61508">
        <ele>1137.2</ele>
        <time>2023-08-21T07:53:30Z</time>
      </trkpt>
      <trkpt lat="45.69756" lon="6.61511">
        <ele>1137.2</ele>
        <time>2023-08-21T07:53:31Z</time>
      </trkpt>
      <trkpt lat="45.69757" lon="6.61513">
        <ele>1137.8</ele>
        <time>2023-08-21T07:53:32Z</time>
      </trkpt>
      <trkpt lat="45.69758" lon="6.61515">
        <ele>1137.6</ele>
        <time>2023-08-21T07:53:33Z</time>
      </trkpt>
      <trkpt lat="45.69759" lon="6.61518">
        <ele>1137.6</ele>
        <time>2023-08-21T07:53:34Z</time>
      </trkpt>
      <trkpt lat="45.69761" lon="6.6152">
        <ele>1137.6</ele>
        <time>2023-08-21T07:53:35Z</time>
      </trkpt>
      <trkpt lat="45.69762" lon="6.61522">
        <ele>1138.4</ele>
        <time>2023-08-21T07:53:36Z</time>
      </trkpt>
      <trkpt lat="45.69764" lon="6.61525">
        <ele>1138.6</ele>
        <time>2023-08-21T07:53:37Z</time>
      </trkpt>
      <trkpt lat="45.69766" lon="6.61527">
        <ele>1138.6</ele>
        <time>2023-08-21T07:53:38Z</time>
      </trkpt>
      <trkpt lat="45.69767" lon="6.61529">
        <ele>1138.6</ele>
        <time>2023-08-21T07:53:39Z</time>
      </trkpt>
      <trkpt lat="45.69769" lon="6.61531">
        <ele>1139.4</ele>
        <time>2023-08-21T07:53:40Z</time>
      </trkpt>
      <trkpt lat="45.6977" lon="6.61534">
        <ele>1139.4</ele>
        <time>2023-08-21T07:53:41Z</time>
      </trkpt>
      <trkpt lat="45.6977" lon="6.61536">
        <ele>1139.4</ele>
        <time>2023-08-21T07:53:42Z</time>
      </trkpt>
      <trkpt lat="45.69772" lon="6.61539">
        <ele>1139.4</ele>
        <time>2023-08-21T07:53:43Z</time>
      </trkpt>
      <trkpt lat="45.69773" lon="6.61541">
        <ele>1140</ele>
        <time>2023-08-21T07:53:44Z</time>
      </trkpt>
      <trkpt lat="45.69775" lon="6.61543">
        <ele>1140.2</ele>
        <time>2023-08-21T07:53:45Z</time>
      </trkpt>
      <trkpt lat="45.69777" lon="6.61545">
        <ele>1140.2</ele>
        <time>2023-08-21T07:53:46Z</time>
      </trkpt>
      <trkpt lat="45.69779" lon="6.61548">
        <ele>1140.2</ele>
        <time>2023-08-21T07:53:47Z</time>
      </trkpt>
      <trkpt lat="45.6978" lon="6.6155">
        <ele>1140.2</ele>
        <time>2023-08-21T07:53:48Z</time>
      </trkpt>
      <trkpt lat="45.69781" lon="6.61552">
        <ele>1140.2</ele>
        <time>2023-08-21T07:53:49Z</time>
      </trkpt>
      <trkpt lat="45.69782" lon="6.61554">
        <ele>1140.8</ele>
        <time>2023-08-21T07:53:50Z</time>
      </trkpt>
      <trkpt lat="45.69784" lon="6.61556">
        <ele>1141</ele>
        <time>2023-08-21T07:53:51Z</time>
      </trkpt>
      <trkpt lat="45.69785" lon="6.61559">
        <ele>1141</ele>
        <time>2023-08-21T07:53:52Z</time>
      </trkpt>
      <trkpt lat="45.69786" lon="6.61561">
        <ele>1141</ele>
        <time>2023-08-21T07:53:53Z</time>
      </trkpt>
      <trkpt lat="45.69787" lon="6.61564">
        <ele>1141.4</ele>
        <time>2023-08-21T07:53:54Z</time>
      </trkpt>
      <trkpt lat="45.69787" lon="6.61566">
        <ele>1141.6</ele>
        <time>2023-08-21T07:53:55Z</time>
      </trkpt>
      <trkpt lat="45.69788" lon="6.61569">
        <ele>1141.6</ele>
        <time>2023-08-21T07:53:56Z</time>
      </trkpt>
      <trkpt lat="45.69788" lon="6.61571">
        <ele>1141.6</ele>
        <time>2023-08-21T07:53:57Z</time>
      </trkpt>
      <trkpt lat="45.69789" lon="6.61574">
        <ele>1142.2</ele>
        <time>2023-08-21T07:53:58Z</time>
      </trkpt>
      <trkpt lat="45.69791" lon="6.61576">
        <ele>1142.4</ele>
        <time>2023-08-21T07:53:59Z</time>
      </trkpt>
      <trkpt lat="45.69792" lon="6.61578">
        <ele>1142.4</ele>
        <time>2023-08-21T07:54:00Z</time>
      </trkpt>
      <trkpt lat="45.69794" lon="6.6158">
        <ele>1142.4</ele>
        <time>2023-08-21T07:54:01Z</time>
      </trkpt>
      <trkpt lat="45.69795" lon="6.61583">
        <ele>1142.4</ele>
        <time>2023-08-21T07:54:02Z</time>
      </trkpt>
      <trkpt lat="45.69797" lon="6.61585">
        <ele>1143</ele>
        <time>2023-08-21T07:54:03Z</time>
      </trkpt>
      <trkpt lat="45.69799" lon="6.61588">
        <ele>1143.4</ele>
        <time>2023-08-21T07:54:04Z</time>
      </trkpt>
      <trkpt lat="45.69799" lon="6.61591">
        <ele>1143.4</ele>
        <time>2023-08-21T07:54:05Z</time>
      </trkpt>
      <trkpt lat="45.69801" lon="6.61594">
        <ele>1143.4</ele>
        <time>2023-08-21T07:54:06Z</time>
      </trkpt>
      <trkpt lat="45.69802" lon="6.61596">
        <ele>1143.6</ele>
        <time>2023-08-21T07:54:07Z</time>
      </trkpt>
      <trkpt lat="45.69804" lon="6.61599">
        <ele>1143.8</ele>
        <time>2023-08-21T07:54:08Z</time>
      </trkpt>
      <trkpt lat="45.69805" lon="6.61601">
        <ele>1143.8</ele>
        <time>2023-08-21T07:54:09Z</time>
      </trkpt>
      <trkpt lat="45.69806" lon="6.61604">
        <ele>1143.8</ele>
        <time>2023-08-21T07:54:10Z</time>
      </trkpt>
      <trkpt lat="45.69807" lon="6.61606">
        <ele>1144.2</ele>
        <time>2023-08-21T07:54:11Z</time>
      </trkpt>
      <trkpt lat="45.69807" lon="6.61609">
        <ele>1144.2</ele>
        <time>2023-08-21T07:54:12Z</time>
      </trkpt>
      <trkpt lat="45.69808" lon="6.61611">
        <ele>1144.4</ele>
        <time>2023-08-21T07:54:13Z</time>
      </trkpt>
      <trkpt lat="45.69808" lon="6.61614">
        <ele>1144.4</ele>
        <time>2023-08-21T07:54:14Z</time>
      </trkpt>
      <trkpt lat="45.69806" lon="6.61616">
        <ele>1144.4</ele>
        <time>2023-08-21T07:54:15Z</time>
      </trkpt>
      <trkpt lat="45.69805" lon="6.61619">
        <ele>1145</ele>
        <time>2023-08-21T07:54:16Z</time>
      </trkpt>
      <trkpt lat="45.69805" lon="6.61622">
        <ele>1145</ele>
        <time>2023-08-21T07:54:17Z</time>
      </trkpt>
      <trkpt lat="45.69804" lon="6.61625">
        <ele>1145</ele>
        <time>2023-08-21T07:54:18Z</time>
      </trkpt>
      <trkpt lat="45.69805" lon="6.61628">
        <ele>1145</ele>
        <time>2023-08-21T07:54:19Z</time>
      </trkpt>
      <trkpt lat="45.69805" lon="6.61631">
        <ele>1146</ele>
        <time>2023-08-21T07:54:20Z</time>
      </trkpt>
      <trkpt lat="45.69805" lon="6.61634">
        <ele>1146</ele>
        <time>2023-08-21T07:54:21Z</time>
      </trkpt>
      <trkpt lat="45.69805" lon="6.61637">
        <ele>1146</ele>
        <time>2023-08-21T07:54:22Z</time>
      </trkpt>
      <trkpt lat="45.69805" lon="6.61639">
        <ele>1146</ele>
        <time>2023-08-21T07:54:23Z</time>
      </trkpt>
      <trkpt lat="45.69805" lon="6.61642">
        <ele>1146</ele>
        <time>2023-08-21T07:54:24Z</time>
      </trkpt>
      <trkpt lat="45.69805" lon="6.61645">
        <ele>1146.6</ele>
        <time>2023-08-21T07:54:25Z</time>
      </trkpt>
      <trkpt lat="45.69805" lon="6.61648">
        <ele>1147</ele>
        <time>2023-08-21T07:54:26Z</time>
      </trkpt>
      <trkpt lat="45.69806" lon="6.61651">
        <ele>1147</ele>
        <time>2023-08-21T07:54:27Z</time>
      </trkpt>
      <trkpt lat="45.69806" lon="6.61653">
        <ele>1147</ele>
        <time>2023-08-21T07:54:28Z</time>
      </trkpt>
      <trkpt lat="45.69805" lon="6.61656">
        <ele>1147</ele>
        <time>2023-08-21T07:54:29Z</time>
      </trkpt>
      <trkpt lat="45.69805" lon="6.61658">
        <ele>1147.2</ele>
        <time>2023-08-21T07:54:30Z</time>
      </trkpt>
      <trkpt lat="45.69805" lon="6.61661">
        <ele>1147.4</ele>
        <time>2023-08-21T07:54:31Z</time>
      </trkpt>
      <trkpt lat="45.69805" lon="6.61663">
        <ele>1147.4</ele>
        <time>2023-08-21T07:54:32Z</time>
      </trkpt>
      <trkpt lat="45.69805" lon="6.61665">
        <ele>1147.4</ele>
        <time>2023-08-21T07:54:33Z</time>
      </trkpt>
      <trkpt lat="45.69805" lon="6.61668">
        <ele>1148.2</ele>
        <time>2023-08-21T07:54:34Z</time>
      </trkpt>
      <trkpt lat="45.69804" lon="6.6167">
        <ele>1148.2</ele>
        <time>2023-08-21T07:54:35Z</time>
      </trkpt>
      <trkpt lat="45.69803" lon="6.61673">
        <ele>1148.2</ele>
        <time>2023-08-21T07:54:36Z</time>
      </trkpt>
      <trkpt lat="45.69803" lon="6.61675">
        <ele>1148.2</ele>
        <time>2023-08-21T07:54:37Z</time>
      </trkpt>
      <trkpt lat="45.69803" lon="6.61678">
        <ele>1148.2</ele>
        <time>2023-08-21T07:54:38Z</time>
      </trkpt>
      <trkpt lat="45.69803" lon="6.6168">
        <ele>1149</ele>
        <time>2023-08-21T07:54:39Z</time>
      </trkpt>
      <trkpt lat="45.69803" lon="6.61682">
        <ele>1149</ele>
        <time>2023-08-21T07:54:40Z</time>
      </trkpt>
      <trkpt lat="45.69803" lon="6.61685">
        <ele>1149</ele>
        <time>2023-08-21T07:54:41Z</time>
      </trkpt>
      <trkpt lat="45.69803" lon="6.61688">
        <ele>1149</ele>
        <time>2023-08-21T07:54:42Z</time>
      </trkpt>
      <trkpt lat="45.69801" lon="6.61691">
        <ele>1149.6</ele>
        <time>2023-08-21T07:54:43Z</time>
      </trkpt>
      <trkpt lat="45.69801" lon="6.61693">
        <ele>1149.6</ele>
        <time>2023-08-21T07:54:44Z</time>
      </trkpt>
      <trkpt lat="45.698" lon="6.61696">
        <ele>1150</ele>
        <time>2023-08-21T07:54:45Z</time>
      </trkpt>
      <trkpt lat="45.698" lon="6.61699">
        <ele>1150</ele>
        <time>2023-08-21T07:54:46Z</time>
      </trkpt>
      <trkpt lat="45.698" lon="6.61701">
        <ele>1150</ele>
        <time>2023-08-21T07:54:47Z</time>
      </trkpt>
      <trkpt lat="45.69801" lon="6.61704">
        <ele>1150.6</ele>
        <time>2023-08-21T07:54:48Z</time>
      </trkpt>
      <trkpt lat="45.69801" lon="6.61706">
        <ele>1150.8</ele>
        <time>2023-08-21T07:54:49Z</time>
      </trkpt>
      <trkpt lat="45.69801" lon="6.61708">
        <ele>1150.8</ele>
        <time>2023-08-21T07:54:50Z</time>
      </trkpt>
      <trkpt lat="45.698" lon="6.61711">
        <ele>1150.8</ele>
        <time>2023-08-21T07:54:51Z</time>
      </trkpt>
      <trkpt lat="45.69801" lon="6.61714">
        <ele>1151.6</ele>
        <time>2023-08-21T07:54:52Z</time>
      </trkpt>
      <trkpt lat="45.698" lon="6.61716">
        <ele>1151.6</ele>
        <time>2023-08-21T07:54:53Z</time>
      </trkpt>
      <trkpt lat="45.69799" lon="6.61719">
        <ele>1151.6</ele>
        <time>2023-08-21T07:54:54Z</time>
      </trkpt>
      <trkpt lat="45.69798" lon="6.61722">
        <ele>1151.6</ele>
        <time>2023-08-21T07:54:55Z</time>
      </trkpt>
      <trkpt lat="45.69798" lon="6.61724">
        <ele>1151.6</ele>
        <time>2023-08-21T07:54:56Z</time>
      </trkpt>
      <trkpt lat="45.69798" lon="6.61727">
        <ele>1152</ele>
        <time>2023-08-21T07:54:57Z</time>
      </trkpt>
      <trkpt lat="45.69798" lon="6.61729">
        <ele>1152.4</ele>
        <time>2023-08-21T07:54:58Z</time>
      </trkpt>
      <trkpt lat="45.69798" lon="6.61732">
        <ele>1152.4</ele>
        <time>2023-08-21T07:54:59Z</time>
      </trkpt>
      <trkpt lat="45.69799" lon="6.61735">
        <ele>1152.4</ele>
        <time>2023-08-21T07:55:00Z</time>
      </trkpt>
      <trkpt lat="45.69799" lon="6.61738">
        <ele>1152.8</ele>
        <time>2023-08-21T07:55:01Z</time>
      </trkpt>
      <trkpt lat="45.69799" lon="6.61741">
        <ele>1153.2</ele>
        <time>2023-08-21T07:55:02Z</time>
      </trkpt>
      <trkpt lat="45.69799" lon="6.61744">
        <ele>1153.2</ele>
        <time>2023-08-21T07:55:03Z</time>
      </trkpt>
      <trkpt lat="45.69798" lon="6.61747">
        <ele>1153.2</ele>
        <time>2023-08-21T07:55:04Z</time>
      </trkpt>
      <trkpt lat="45.69799" lon="6.6175">
        <ele>1153.2</ele>
        <time>2023-08-21T07:55:05Z</time>
      </trkpt>
      <trkpt lat="45.69799" lon="6.61753">
        <ele>1153.2</ele>
        <time>2023-08-21T07:55:06Z</time>
      </trkpt>
      <trkpt lat="45.69799" lon="6.61756">
        <ele>1153.8</ele>
        <time>2023-08-21T07:55:07Z</time>
      </trkpt>
      <trkpt lat="45.698" lon="6.61759">
        <ele>1153.8</ele>
        <time>2023-08-21T07:55:08Z</time>
      </trkpt>
      <trkpt lat="45.698" lon="6.61762">
        <ele>1153.8</ele>
        <time>2023-08-21T07:55:09Z</time>
      </trkpt>
      <trkpt lat="45.69801" lon="6.61765">
        <ele>1154.4</ele>
        <time>2023-08-21T07:55:10Z</time>
      </trkpt>
      <trkpt lat="45.69801" lon="6.61768">
        <ele>1154.4</ele>
        <time>2023-08-21T07:55:11Z</time>
      </trkpt>
      <trkpt lat="45.69801" lon="6.61771">
        <ele>1154.4</ele>
        <time>2023-08-21T07:55:12Z</time>
      </trkpt>
      <trkpt lat="45.69801" lon="6.61774">
        <ele>1154.4</ele>
        <time>2023-08-21T07:55:13Z</time>
      </trkpt>
      <trkpt lat="45.69801" lon="6.61777">
        <ele>1154.4</ele>
        <time>2023-08-21T07:55:14Z</time>
      </trkpt>
      <trkpt lat="45.698" lon="6.6178">
        <ele>1155.2</ele>
        <time>2023-08-21T07:55:15Z</time>
      </trkpt>
      <trkpt lat="45.698" lon="6.61783">
        <ele>1155.2</ele>
        <time>2023-08-21T07:55:16Z</time>
      </trkpt>
      <trkpt lat="45.698" lon="6.61785">
        <ele>1155.2</ele>
        <time>2023-08-21T07:55:17Z</time>
      </trkpt>
      <trkpt lat="45.69801" lon="6.61788">
        <ele>1155.2</ele>
        <time>2023-08-21T07:55:18Z</time>
      </trkpt>
      <trkpt lat="45.69801" lon="6.61791">
        <ele>1155.2</ele>
        <time>2023-08-21T07:55:19Z</time>
      </trkpt>
      <trkpt lat="45.69801" lon="6.61794">
        <ele>1155.8</ele>
        <time>2023-08-21T07:55:20Z</time>
      </trkpt>
      <trkpt lat="45.69802" lon="6.61797">
        <ele>1156</ele>
        <time>2023-08-21T07:55:21Z</time>
      </trkpt>
      <trkpt lat="45.69803" lon="6.618">
        <ele>1156</ele>
        <time>2023-08-21T07:55:22Z</time>
      </trkpt>
      <trkpt lat="45.69804" lon="6.61802">
        <ele>1156</ele>
        <time>2023-08-21T07:55:23Z</time>
      </trkpt>
      <trkpt lat="45.69804" lon="6.61805">
        <ele>1156.6</ele>
        <time>2023-08-21T07:55:24Z</time>
      </trkpt>
      <trkpt lat="45.69805" lon="6.61808">
        <ele>1156.6</ele>
        <time>2023-08-21T07:55:25Z</time>
      </trkpt>
      <trkpt lat="45.69805" lon="6.61811">
        <ele>1156.6</ele>
        <time>2023-08-21T07:55:26Z</time>
      </trkpt>
      <trkpt lat="45.69806" lon="6.61813">
        <ele>1156.6</ele>
        <time>2023-08-21T07:55:27Z</time>
      </trkpt>
      <trkpt lat="45.69806" lon="6.61816">
        <ele>1157.4</ele>
        <time>2023-08-21T07:55:28Z</time>
      </trkpt>
      <trkpt lat="45.69806" lon="6.6182">
        <ele>1157.6</ele>
        <time>2023-08-21T07:55:29Z</time>
      </trkpt>
      <trkpt lat="45.69806" lon="6.61822">
        <ele>1157.6</ele>
        <time>2023-08-21T07:55:30Z</time>
      </trkpt>
      <trkpt lat="45.69805" lon="6.61825">
        <ele>1157.6</ele>
        <time>2023-08-21T07:55:31Z</time>
      </trkpt>
      <trkpt lat="45.69805" lon="6.61828">
        <ele>1157.6</ele>
        <time>2023-08-21T07:55:32Z</time>
      </trkpt>
      <trkpt lat="45.69805" lon="6.6183">
        <ele>1158</ele>
        <time>2023-08-21T07:55:33Z</time>
      </trkpt>
      <trkpt lat="45.69805" lon="6.61833">
        <ele>1158.2</ele>
        <time>2023-08-21T07:55:34Z</time>
      </trkpt>
      <trkpt lat="45.69806" lon="6.61836">
        <ele>1158.2</ele>
        <time>2023-08-21T07:55:35Z</time>
      </trkpt>
      <trkpt lat="45.69806" lon="6.61838">
        <ele>1158.2</ele>
        <time>2023-08-21T07:55:36Z</time>
      </trkpt>
      <trkpt lat="45.69806" lon="6.61841">
        <ele>1158.6</ele>
        <time>2023-08-21T07:55:37Z</time>
      </trkpt>
      <trkpt lat="45.69806" lon="6.61844">
        <ele>1158.8</ele>
        <time>2023-08-21T07:55:38Z</time>
      </trkpt>
      <trkpt lat="45.69806" lon="6.61846">
        <ele>1158.8</ele>
        <time>2023-08-21T07:55:39Z</time>
      </trkpt>
      <trkpt lat="45.69806" lon="6.61849">
        <ele>1158.8</ele>
        <time>2023-08-21T07:55:40Z</time>
      </trkpt>
      <trkpt lat="45.69805" lon="6.61852">
        <ele>1159.2</ele>
        <time>2023-08-21T07:55:41Z</time>
      </trkpt>
      <trkpt lat="45.69805" lon="6.61854">
        <ele>1159.2</ele>
        <time>2023-08-21T07:55:42Z</time>
      </trkpt>
      <trkpt lat="45.69805" lon="6.61857">
        <ele>1159.6</ele>
        <time>2023-08-21T07:55:43Z</time>
      </trkpt>
      <trkpt lat="45.69805" lon="6.6186">
        <ele>1159.6</ele>
        <time>2023-08-21T07:55:44Z</time>
      </trkpt>
      <trkpt lat="45.69806" lon="6.61863">
        <ele>1159.6</ele>
        <time>2023-08-21T07:55:45Z</time>
      </trkpt>
      <trkpt lat="45.69806" lon="6.61866">
        <ele>1160</ele>
        <time>2023-08-21T07:55:46Z</time>
      </trkpt>
      <trkpt lat="45.69807" lon="6.61869">
        <ele>1160.2</ele>
        <time>2023-08-21T07:55:47Z</time>
      </trkpt>
      <trkpt lat="45.69807" lon="6.61871">
        <ele>1160.2</ele>
        <time>2023-08-21T07:55:48Z</time>
      </trkpt>
      <trkpt lat="45.69807" lon="6.61874">
        <ele>1160.2</ele>
        <time>2023-08-21T07:55:49Z</time>
      </trkpt>
      <trkpt lat="45.69807" lon="6.61876">
        <ele>1160.6</ele>
        <time>2023-08-21T07:55:50Z</time>
      </trkpt>
      <trkpt lat="45.69808" lon="6.61879">
        <ele>1161</ele>
        <time>2023-08-21T07:55:51Z</time>
      </trkpt>
      <trkpt lat="45.69808" lon="6.61882">
        <ele>1161</ele>
        <time>2023-08-21T07:55:52Z</time>
      </trkpt>
      <trkpt lat="45.69809" lon="6.61885">
        <ele>1161</ele>
        <time>2023-08-21T07:55:53Z</time>
      </trkpt>
      <trkpt lat="45.6981" lon="6.61887">
        <ele>1161</ele>
        <time>2023-08-21T07:55:54Z</time>
      </trkpt>
      <trkpt lat="45.6981" lon="6.6189">
        <ele>1161.6</ele>
        <time>2023-08-21T07:55:55Z</time>
      </trkpt>
      <trkpt lat="45.6981" lon="6.61894">
        <ele>1161.6</ele>
        <time>2023-08-21T07:55:56Z</time>
      </trkpt>
      <trkpt lat="45.69811" lon="6.61897">
        <ele>1161.6</ele>
        <time>2023-08-21T07:55:57Z</time>
      </trkpt>
      <trkpt lat="45.69811" lon="6.619">
        <ele>1161.6</ele>
        <time>2023-08-21T07:55:58Z</time>
      </trkpt>
      <trkpt lat="45.69811" lon="6.61902">
        <ele>1161.6</ele>
        <time>2023-08-21T07:55:59Z</time>
      </trkpt>
      <trkpt lat="45.69811" lon="6.61905">
        <ele>1162</ele>
        <time>2023-08-21T07:56:00Z</time>
      </trkpt>
      <trkpt lat="45.69812" lon="6.61907">
        <ele>1162.4</ele>
        <time>2023-08-21T07:56:01Z</time>
      </trkpt>
      <trkpt lat="45.69813" lon="6.6191">
        <ele>1162.4</ele>
        <time>2023-08-21T07:56:02Z</time>
      </trkpt>
      <trkpt lat="45.69814" lon="6.61912">
        <ele>1162.4</ele>
        <time>2023-08-21T07:56:03Z</time>
      </trkpt>
      <trkpt lat="45.69815" lon="6.61915">
        <ele>1162.6</ele>
        <time>2023-08-21T07:56:04Z</time>
      </trkpt>
      <trkpt lat="45.69817" lon="6.61917">
        <ele>1163</ele>
        <time>2023-08-21T07:56:05Z</time>
      </trkpt>
      <trkpt lat="45.69818" lon="6.61919">
        <ele>1163</ele>
        <time>2023-08-21T07:56:06Z</time>
      </trkpt>
      <trkpt lat="45.69818" lon="6.61922">
        <ele>1163</ele>
        <time>2023-08-21T07:56:07Z</time>
      </trkpt>
      <trkpt lat="45.69819" lon="6.61925">
        <ele>1163</ele>
        <time>2023-08-21T07:56:08Z</time>
      </trkpt>
      <trkpt lat="45.6982" lon="6.61928">
        <ele>1163.6</ele>
        <time>2023-08-21T07:56:09Z</time>
      </trkpt>
      <trkpt lat="45.69821" lon="6.6193">
        <ele>1163.8</ele>
        <time>2023-08-21T07:56:10Z</time>
      </trkpt>
      <trkpt lat="45.69822" lon="6.61933">
        <ele>1163.8</ele>
        <time>2023-08-21T07:56:11Z</time>
      </trkpt>
      <trkpt lat="45.69823" lon="6.61935">
        <ele>1163.8</ele>
        <time>2023-08-21T07:56:12Z</time>
      </trkpt>
      <trkpt lat="45.69824" lon="6.61938">
        <ele>1164</ele>
        <time>2023-08-21T07:56:13Z</time>
      </trkpt>
      <trkpt lat="45.69826" lon="6.6194">
        <ele>1164.2</ele>
        <time>2023-08-21T07:56:14Z</time>
      </trkpt>
      <trkpt lat="45.69827" lon="6.61942">
        <ele>1164.2</ele>
        <time>2023-08-21T07:56:15Z</time>
      </trkpt>
      <trkpt lat="45.69828" lon="6.61945">
        <ele>1164.2</ele>
        <time>2023-08-21T07:56:16Z</time>
      </trkpt>
      <trkpt lat="45.69829" lon="6.61947">
        <ele>1164.8</ele>
        <time>2023-08-21T07:56:17Z</time>
      </trkpt>
      <trkpt lat="45.6983" lon="6.6195">
        <ele>1165</ele>
        <time>2023-08-21T07:56:18Z</time>
      </trkpt>
      <trkpt lat="45.6983" lon="6.61952">
        <ele>1165</ele>
        <time>2023-08-21T07:56:19Z</time>
      </trkpt>
      <trkpt lat="45.69831" lon="6.61954">
        <ele>1165</ele>
        <time>2023-08-21T07:56:20Z</time>
      </trkpt>
      <trkpt lat="45.69832" lon="6.61957">
        <ele>1165</ele>
        <time>2023-08-21T07:56:21Z</time>
      </trkpt>
      <trkpt lat="45.69833" lon="6.61959">
        <ele>1165.6</ele>
        <time>2023-08-21T07:56:22Z</time>
      </trkpt>
      <trkpt lat="45.69835" lon="6.61961">
        <ele>1165.8</ele>
        <time>2023-08-21T07:56:23Z</time>
      </trkpt>
      <trkpt lat="45.69836" lon="6.61963">
        <ele>1165.8</ele>
        <time>2023-08-21T07:56:24Z</time>
      </trkpt>
      <trkpt lat="45.69838" lon="6.61965">
        <ele>1165.8</ele>
        <time>2023-08-21T07:56:25Z</time>
      </trkpt>
      <trkpt lat="45.69839" lon="6.61968">
        <ele>1166.2</ele>
        <time>2023-08-21T07:56:26Z</time>
      </trkpt>
      <trkpt lat="45.6984" lon="6.6197">
        <ele>1166.4</ele>
        <time>2023-08-21T07:56:27Z</time>
      </trkpt>
      <trkpt lat="45.69842" lon="6.61972">
        <ele>1166.4</ele>
        <time>2023-08-21T07:56:28Z</time>
      </trkpt>
      <trkpt lat="45.69844" lon="6.61974">
        <ele>1166.4</ele>
        <time>2023-08-21T07:56:29Z</time>
      </trkpt>
      <trkpt lat="45.69845" lon="6.61976">
        <ele>1166.8</ele>
        <time>2023-08-21T07:56:30Z</time>
      </trkpt>
      <trkpt lat="45.69847" lon="6.61978">
        <ele>1167.2</ele>
        <time>2023-08-21T07:56:31Z</time>
      </trkpt>
      <trkpt lat="45.69848" lon="6.6198">
        <ele>1167.2</ele>
        <time>2023-08-21T07:56:32Z</time>
      </trkpt>
      <trkpt lat="45.69849" lon="6.61982">
        <ele>1167.2</ele>
        <time>2023-08-21T07:56:33Z</time>
      </trkpt>
      <trkpt lat="45.6985" lon="6.61983">
        <ele>1167.2</ele>
        <time>2023-08-21T07:56:34Z</time>
      </trkpt>
      <trkpt lat="45.69852" lon="6.61985">
        <ele>1167.6</ele>
        <time>2023-08-21T07:56:35Z</time>
      </trkpt>
      <trkpt lat="45.69853" lon="6.61987">
        <ele>1168</ele>
        <time>2023-08-21T07:56:36Z</time>
      </trkpt>
      <trkpt lat="45.69855" lon="6.61989">
        <ele>1168</ele>
        <time>2023-08-21T07:56:37Z</time>
      </trkpt>
      <trkpt lat="45.69856" lon="6.61992">
        <ele>1168</ele>
        <time>2023-08-21T07:56:38Z</time>
      </trkpt>
      <trkpt lat="45.69858" lon="6.61994">
        <ele>1168</ele>
        <time>2023-08-21T07:56:39Z</time>
      </trkpt>
      <trkpt lat="45.69859" lon="6.61996">
        <ele>1168.4</ele>
        <time>2023-08-21T07:56:40Z</time>
      </trkpt>
      <trkpt lat="45.6986" lon="6.61999">
        <ele>1168.8</ele>
        <time>2023-08-21T07:56:41Z</time>
      </trkpt>
      <trkpt lat="45.69859" lon="6.62003">
        <ele>1168.8</ele>
        <time>2023-08-21T07:56:42Z</time>
      </trkpt>
      <trkpt lat="45.69858" lon="6.62006">
        <ele>1168.8</ele>
        <time>2023-08-21T07:56:43Z</time>
      </trkpt>
      <trkpt lat="45.69857" lon="6.62008">
        <ele>1168.8</ele>
        <time>2023-08-21T07:56:44Z</time>
      </trkpt>
      <trkpt lat="45.69854" lon="6.62008">
        <ele>1169.4</ele>
        <time>2023-08-21T07:56:45Z</time>
      </trkpt>
      <trkpt lat="45.69852" lon="6.62007">
        <ele>1169.4</ele>
        <time>2023-08-21T07:56:46Z</time>
      </trkpt>
      <trkpt lat="45.69848" lon="6.62006">
        <ele>1169.4</ele>
        <time>2023-08-21T07:56:47Z</time>
      </trkpt>
      <trkpt lat="45.69846" lon="6.62004">
        <ele>1169.4</ele>
        <time>2023-08-21T07:56:48Z</time>
      </trkpt>
      <trkpt lat="45.69844" lon="6.62001">
        <ele>1170</ele>
        <time>2023-08-21T07:56:49Z</time>
      </trkpt>
      <trkpt lat="45.69842" lon="6.61998">
        <ele>1170.4</ele>
        <time>2023-08-21T07:56:50Z</time>
      </trkpt>
      <trkpt lat="45.69841" lon="6.61995">
        <ele>1170.4</ele>
        <time>2023-08-21T07:56:51Z</time>
      </trkpt>
      <trkpt lat="45.69839" lon="6.61992">
        <ele>1170.4</ele>
        <time>2023-08-21T07:56:52Z</time>
      </trkpt>
      <trkpt lat="45.69837" lon="6.61989">
        <ele>1171</ele>
        <time>2023-08-21T07:56:53Z</time>
      </trkpt>
      <trkpt lat="45.69836" lon="6.61987">
        <ele>1171.2</ele>
        <time>2023-08-21T07:56:54Z</time>
      </trkpt>
      <trkpt lat="45.69834" lon="6.61984">
        <ele>1171.2</ele>
        <time>2023-08-21T07:56:55Z</time>
      </trkpt>
      <trkpt lat="45.69833" lon="6.6198">
        <ele>1171.2</ele>
        <time>2023-08-21T07:56:56Z</time>
      </trkpt>
      <trkpt lat="45.69832" lon="6.61978">
        <ele>1171.2</ele>
        <time>2023-08-21T07:56:57Z</time>
      </trkpt>
      <trkpt lat="45.6983" lon="6.61975">
        <ele>1171.8</ele>
        <time>2023-08-21T07:56:58Z</time>
      </trkpt>
      <trkpt lat="45.69829" lon="6.61972">
        <ele>1171.8</ele>
        <time>2023-08-21T07:56:59Z</time>
      </trkpt>
      <trkpt lat="45.69828" lon="6.6197">
        <ele>1171.8</ele>
        <time>2023-08-21T07:57:00Z</time>
      </trkpt>
      <trkpt lat="45.69827" lon="6.61968">
        <ele>1171.8</ele>
        <time>2023-08-21T07:57:01Z</time>
      </trkpt>
      <trkpt lat="45.69825" lon="6.61966">
        <ele>1172.2</ele>
        <time>2023-08-21T07:57:02Z</time>
      </trkpt>
      <trkpt lat="45.69824" lon="6.61963">
        <ele>1172.6</ele>
        <time>2023-08-21T07:57:03Z</time>
      </trkpt>
      <trkpt lat="45.69823" lon="6.6196">
        <ele>1172.6</ele>
        <time>2023-08-21T07:57:04Z</time>
      </trkpt>
      <trkpt lat="45.69822" lon="6.61958">
        <ele>1172.6</ele>
        <time>2023-08-21T07:57:05Z</time>
      </trkpt>
      <trkpt lat="45.6982" lon="6.61955">
        <ele>1173</ele>
        <time>2023-08-21T07:57:06Z</time>
      </trkpt>
      <trkpt lat="45.69819" lon="6.61953">
        <ele>1173.2</ele>
        <time>2023-08-21T07:57:07Z</time>
      </trkpt>
      <trkpt lat="45.69818" lon="6.61951">
        <ele>1173.2</ele>
        <time>2023-08-21T07:57:08Z</time>
      </trkpt>
      <trkpt lat="45.69817" lon="6.61949">
        <ele>1173.2</ele>
        <time>2023-08-21T07:57:09Z</time>
      </trkpt>
      <trkpt lat="45.69815" lon="6.61946">
        <ele>1173.2</ele>
        <time>2023-08-21T07:57:10Z</time>
      </trkpt>
      <trkpt lat="45.69815" lon="6.61944">
        <ele>1174</ele>
        <time>2023-08-21T07:57:11Z</time>
      </trkpt>
      <trkpt lat="45.69814" lon="6.61942">
        <ele>1174</ele>
        <time>2023-08-21T07:57:12Z</time>
      </trkpt>
      <trkpt lat="45.69812" lon="6.61939">
        <ele>1174</ele>
        <time>2023-08-21T07:57:13Z</time>
      </trkpt>
      <trkpt lat="45.69811" lon="6.61937">
        <ele>1174</ele>
        <time>2023-08-21T07:57:14Z</time>
      </trkpt>
      <trkpt lat="45.6981" lon="6.61935">
        <ele>1174.6</ele>
        <time>2023-08-21T07:57:15Z</time>
      </trkpt>
      <trkpt lat="45.69809" lon="6.61933">
        <ele>1174.8</ele>
        <time>2023-08-21T07:57:16Z</time>
      </trkpt>
      <trkpt lat="45.69807" lon="6.61931">
        <ele>1174.8</ele>
        <time>2023-08-21T07:57:17Z</time>
      </trkpt>
      <trkpt lat="45.69806" lon="6.61929">
        <ele>1174.8</ele>
        <time>2023-08-21T07:57:18Z</time>
      </trkpt>
      <trkpt lat="45.69805" lon="6.61926">
        <ele>1174.8</ele>
        <time>2023-08-21T07:57:19Z</time>
      </trkpt>
      <trkpt lat="45.69804" lon="6.61924">
        <ele>1175.4</ele>
        <time>2023-08-21T07:57:20Z</time>
      </trkpt>
      <trkpt lat="45.69802" lon="6.61921">
        <ele>1175.4</ele>
        <time>2023-08-21T07:57:21Z</time>
      </trkpt>
      <trkpt lat="45.69801" lon="6.61919">
        <ele>1175.4</ele>
        <time>2023-08-21T07:57:22Z</time>
      </trkpt>
      <trkpt lat="45.698" lon="6.61917">
        <ele>1175.4</ele>
        <time>2023-08-21T07:57:23Z</time>
      </trkpt>
      <trkpt lat="45.69799" lon="6.61915">
        <ele>1175.4</ele>
        <time>2023-08-21T07:57:24Z</time>
      </trkpt>
      <trkpt lat="45.69798" lon="6.61912">
        <ele>1176</ele>
        <time>2023-08-21T07:57:25Z</time>
      </trkpt>
      <trkpt lat="45.69797" lon="6.6191">
        <ele>1176.4</ele>
        <time>2023-08-21T07:57:26Z</time>
      </trkpt>
      <trkpt lat="45.69795" lon="6.61908">
        <ele>1176.4</ele>
        <time>2023-08-21T07:57:27Z</time>
      </trkpt>
      <trkpt lat="45.69794" lon="6.61905">
        <ele>1176.4</ele>
        <time>2023-08-21T07:57:28Z</time>
      </trkpt>
      <trkpt lat="45.69793" lon="6.61903">
        <ele>1176.6</ele>
        <time>2023-08-21T07:57:29Z</time>
      </trkpt>
      <trkpt lat="45.69791" lon="6.61901">
        <ele>1177</ele>
        <time>2023-08-21T07:57:30Z</time>
      </trkpt>
      <trkpt lat="45.69789" lon="6.619">
        <ele>1177</ele>
        <time>2023-08-21T07:57:31Z</time>
      </trkpt>
      <trkpt lat="45.69788" lon="6.61897">
        <ele>1177</ele>
        <time>2023-08-21T07:57:32Z</time>
      </trkpt>
      <trkpt lat="45.69787" lon="6.61895">
        <ele>1177.6</ele>
        <time>2023-08-21T07:57:33Z</time>
      </trkpt>
      <trkpt lat="45.69786" lon="6.61893">
        <ele>1177.6</ele>
        <time>2023-08-21T07:57:34Z</time>
      </trkpt>
      <trkpt lat="45.69785" lon="6.61892">
        <ele>1177.6</ele>
        <time>2023-08-21T07:57:35Z</time>
      </trkpt>
      <trkpt lat="45.69784" lon="6.61889">
        <ele>1177.6</ele>
        <time>2023-08-21T07:57:36Z</time>
      </trkpt>
      <trkpt lat="45.69783" lon="6.61886">
        <ele>1177.6</ele>
        <time>2023-08-21T07:57:37Z</time>
      </trkpt>
      <trkpt lat="45.69782" lon="6.61883">
        <ele>1178.2</ele>
        <time>2023-08-21T07:57:38Z</time>
      </trkpt>
      <trkpt lat="45.6978" lon="6.6188">
        <ele>1178.6</ele>
        <time>2023-08-21T07:57:39Z</time>
      </trkpt>
      <trkpt lat="45.69779" lon="6.61878">
        <ele>1178.6</ele>
        <time>2023-08-21T07:57:40Z</time>
      </trkpt>
      <trkpt lat="45.69777" lon="6.61876">
        <ele>1178.6</ele>
        <time>2023-08-21T07:57:41Z</time>
      </trkpt>
      <trkpt lat="45.69775" lon="6.61873">
        <ele>1179.2</ele>
        <time>2023-08-21T07:57:42Z</time>
      </trkpt>
      <trkpt lat="45.69775" lon="6.61871">
        <ele>1179.4</ele>
        <time>2023-08-21T07:57:43Z</time>
      </trkpt>
      <trkpt lat="45.69774" lon="6.61868">
        <ele>1179.4</ele>
        <time>2023-08-21T07:57:44Z</time>
      </trkpt>
      <trkpt lat="45.69772" lon="6.61866">
        <ele>1179.4</ele>
        <time>2023-08-21T07:57:45Z</time>
      </trkpt>
      <trkpt lat="45.69772" lon="6.61864">
        <ele>1179.4</ele>
        <time>2023-08-21T07:57:46Z</time>
      </trkpt>
      <trkpt lat="45.69771" lon="6.61861">
        <ele>1179.4</ele>
        <time>2023-08-21T07:57:47Z</time>
      </trkpt>
      <trkpt lat="45.6977" lon="6.61858">
        <ele>1180</ele>
        <time>2023-08-21T07:57:48Z</time>
      </trkpt>
      <trkpt lat="45.69769" lon="6.61855">
        <ele>1180</ele>
        <time>2023-08-21T07:57:49Z</time>
      </trkpt>
      <trkpt lat="45.69768" lon="6.61852">
        <ele>1180</ele>
        <time>2023-08-21T07:57:50Z</time>
      </trkpt>
      <trkpt lat="45.69766" lon="6.61849">
        <ele>1180.6</ele>
        <time>2023-08-21T07:57:51Z</time>
      </trkpt>
      <trkpt lat="45.69765" lon="6.61847">
        <ele>1180.4</ele>
        <time>2023-08-21T07:57:52Z</time>
      </trkpt>
      <trkpt lat="45.69764" lon="6.61844">
        <ele>1180.4</ele>
        <time>2023-08-21T07:57:53Z</time>
      </trkpt>
      <trkpt lat="45.69762" lon="6.6184">
        <ele>1180.4</ele>
        <time>2023-08-21T07:57:54Z</time>
      </trkpt>
      <trkpt lat="45.69762" lon="6.61837">
        <ele>1181.2</ele>
        <time>2023-08-21T07:57:55Z</time>
      </trkpt>
      <trkpt lat="45.6976" lon="6.61835">
        <ele>1181.4</ele>
        <time>2023-08-21T07:57:56Z</time>
      </trkpt>
      <trkpt lat="45.6976" lon="6.61831">
        <ele>1181.4</ele>
        <time>2023-08-21T07:57:57Z</time>
      </trkpt>
      <trkpt lat="45.69759" lon="6.61828">
        <ele>1181.4</ele>
        <time>2023-08-21T07:57:58Z</time>
      </trkpt>
      <trkpt lat="45.69758" lon="6.61825">
        <ele>1182</ele>
        <time>2023-08-21T07:57:59Z</time>
      </trkpt>
      <trkpt lat="45.69758" lon="6.61822">
        <ele>1182.2</ele>
        <time>2023-08-21T07:58:00Z</time>
      </trkpt>
      <trkpt lat="45.69757" lon="6.6182">
        <ele>1182.2</ele>
        <time>2023-08-21T07:58:01Z</time>
      </trkpt>
      <trkpt lat="45.69757" lon="6.61817">
        <ele>1182.2</ele>
        <time>2023-08-21T07:58:02Z</time>
      </trkpt>
      <trkpt lat="45.69757" lon="6.61814">
        <ele>1182.2</ele>
        <time>2023-08-21T07:58:03Z</time>
      </trkpt>
      <trkpt lat="45.69756" lon="6.61811">
        <ele>1182.2</ele>
        <time>2023-08-21T07:58:04Z</time>
      </trkpt>
      <trkpt lat="45.69756" lon="6.6181">
        <ele>1182.2</ele>
        <time>2023-08-21T07:58:05Z</time>
      </trkpt>
      <trkpt lat="45.69756" lon="6.61809">
        <ele>1182.6</ele>
        <time>2023-08-21T07:58:06Z</time>
      </trkpt>
      <trkpt lat="45.69756" lon="6.61809">
        <ele>1182.6</ele>
        <time>2023-08-21T07:58:07Z</time>
      </trkpt>
      <trkpt lat="45.69762" lon="6.61803">
        <ele>1186</ele>
        <time>2023-08-21T07:59:07Z</time>
      </trkpt>
      <trkpt lat="45.69762" lon="6.61801">
        <ele>1186</ele>
        <time>2023-08-21T07:59:08Z</time>
      </trkpt>
      <trkpt lat="45.69762" lon="6.61801">
        <ele>1186</ele>
        <time>2023-08-21T07:59:09Z</time>
      </trkpt>
      <trkpt lat="45.69755" lon="6.61797">
        <ele>1183.2</ele>
        <time>2023-08-21T08:01:50Z</time>
      </trkpt>
      <trkpt lat="45.69754" lon="6.61796">
        <ele>1183.2</ele>
        <time>2023-08-21T08:01:51Z</time>
      </trkpt>
      <trkpt lat="45.69753" lon="6.61794">
        <ele>1183.2</ele>
        <time>2023-08-21T08:01:52Z</time>
      </trkpt>
      <trkpt lat="45.69751" lon="6.61793">
        <ele>1183.2</ele>
        <time>2023-08-21T08:01:53Z</time>
      </trkpt>
      <trkpt lat="45.6975" lon="6.6179">
        <ele>1183.2</ele>
        <time>2023-08-21T08:01:54Z</time>
      </trkpt>
      <trkpt lat="45.69749" lon="6.61788">
        <ele>1183.2</ele>
        <time>2023-08-21T08:01:55Z</time>
      </trkpt>
      <trkpt lat="45.69748" lon="6.61786">
        <ele>1183.2</ele>
        <time>2023-08-21T08:01:56Z</time>
      </trkpt>
      <trkpt lat="45.69747" lon="6.61784">
        <ele>1183.8</ele>
        <time>2023-08-21T08:01:57Z</time>
      </trkpt>
      <trkpt lat="45.69746" lon="6.61783">
        <ele>1183.8</ele>
        <time>2023-08-21T08:01:58Z</time>
      </trkpt>
      <trkpt lat="45.69746" lon="6.61781">
        <ele>1183.8</ele>
        <time>2023-08-21T08:01:59Z</time>
      </trkpt>
      <trkpt lat="45.69745" lon="6.61778">
        <ele>1183.8</ele>
        <time>2023-08-21T08:02:00Z</time>
      </trkpt>
      <trkpt lat="45.69743" lon="6.61777">
        <ele>1183.8</ele>
        <time>2023-08-21T08:02:01Z</time>
      </trkpt>
      <trkpt lat="45.69743" lon="6.61775">
        <ele>1184.6</ele>
        <time>2023-08-21T08:02:02Z</time>
      </trkpt>
      <trkpt lat="45.69743" lon="6.61773">
        <ele>1184.6</ele>
        <time>2023-08-21T08:02:03Z</time>
      </trkpt>
      <trkpt lat="45.69742" lon="6.61771">
        <ele>1184.6</ele>
        <time>2023-08-21T08:02:04Z</time>
      </trkpt>
      <trkpt lat="45.69741" lon="6.61768">
        <ele>1184.6</ele>
        <time>2023-08-21T08:02:05Z</time>
      </trkpt>
      <trkpt lat="45.69741" lon="6.61766">
        <ele>1185.4</ele>
        <time>2023-08-21T08:02:06Z</time>
      </trkpt>
      <trkpt lat="45.6974" lon="6.61763">
        <ele>1185.4</ele>
        <time>2023-08-21T08:02:07Z</time>
      </trkpt>
      <trkpt lat="45.69739" lon="6.61761">
        <ele>1185.6</ele>
        <time>2023-08-21T08:02:08Z</time>
      </trkpt>
      <trkpt lat="45.69738" lon="6.61759">
        <ele>1185.6</ele>
        <time>2023-08-21T08:02:09Z</time>
      </trkpt>
      <trkpt lat="45.69738" lon="6.61757">
        <ele>1186</ele>
        <time>2023-08-21T08:02:10Z</time>
      </trkpt>
      <trkpt lat="45.69737" lon="6.61753">
        <ele>1186.4</ele>
        <time>2023-08-21T08:02:11Z</time>
      </trkpt>
      <trkpt lat="45.69736" lon="6.61752">
        <ele>1186.4</ele>
        <time>2023-08-21T08:02:12Z</time>
      </trkpt>
      <trkpt lat="45.69736" lon="6.61749">
        <ele>1186.4</ele>
        <time>2023-08-21T08:02:13Z</time>
      </trkpt>
      <trkpt lat="45.69735" lon="6.61747">
        <ele>1186.4</ele>
        <time>2023-08-21T08:02:14Z</time>
      </trkpt>
      <trkpt lat="45.69734" lon="6.61744">
        <ele>1186.6</ele>
        <time>2023-08-21T08:02:15Z</time>
      </trkpt>
      <trkpt lat="45.69731" lon="6.61741">
        <ele>1186.8</ele>
        <time>2023-08-21T08:02:16Z</time>
      </trkpt>
      <trkpt lat="45.6973" lon="6.61738">
        <ele>1186.8</ele>
        <time>2023-08-21T08:02:17Z</time>
      </trkpt>
      <trkpt lat="45.69729" lon="6.61735">
        <ele>1186.8</ele>
        <time>2023-08-21T08:02:18Z</time>
      </trkpt>
      <trkpt lat="45.69727" lon="6.61732">
        <ele>1187.2</ele>
        <time>2023-08-21T08:02:19Z</time>
      </trkpt>
      <trkpt lat="45.69725" lon="6.61729">
        <ele>1187.6</ele>
        <time>2023-08-21T08:02:20Z</time>
      </trkpt>
      <trkpt lat="45.69724" lon="6.61726">
        <ele>1187.6</ele>
        <time>2023-08-21T08:02:21Z</time>
      </trkpt>
      <trkpt lat="45.69722" lon="6.61724">
        <ele>1187.6</ele>
        <time>2023-08-21T08:02:22Z</time>
      </trkpt>
      <trkpt lat="45.6972" lon="6.6172">
        <ele>1187.6</ele>
        <time>2023-08-21T08:02:23Z</time>
      </trkpt>
      <trkpt lat="45.69719" lon="6.61718">
        <ele>1188</ele>
        <time>2023-08-21T08:02:24Z</time>
      </trkpt>
      <trkpt lat="45.69718" lon="6.61714">
        <ele>1188</ele>
        <time>2023-08-21T08:02:25Z</time>
      </trkpt>
      <trkpt lat="45.69717" lon="6.61711">
        <ele>1188</ele>
        <time>2023-08-21T08:02:26Z</time>
      </trkpt>
      <trkpt lat="45.69716" lon="6.61709">
        <ele>1188</ele>
        <time>2023-08-21T08:02:27Z</time>
      </trkpt>
      <trkpt lat="45.69715" lon="6.61705">
        <ele>1188</ele>
        <time>2023-08-21T08:02:28Z</time>
      </trkpt>
      <trkpt lat="45.69714" lon="6.61703">
        <ele>1188.6</ele>
        <time>2023-08-21T08:02:29Z</time>
      </trkpt>
      <trkpt lat="45.69714" lon="6.61701">
        <ele>1188.6</ele>
        <time>2023-08-21T08:02:30Z</time>
      </trkpt>
      <trkpt lat="45.69713" lon="6.61698">
        <ele>1188.6</ele>
        <time>2023-08-21T08:02:31Z</time>
      </trkpt>
      <trkpt lat="45.69712" lon="6.61696">
        <ele>1188.6</ele>
        <time>2023-08-21T08:02:32Z</time>
      </trkpt>
      <trkpt lat="45.6971" lon="6.61693">
        <ele>1188.6</ele>
        <time>2023-08-21T08:02:33Z</time>
      </trkpt>
      <trkpt lat="45.69709" lon="6.61691">
        <ele>1189.2</ele>
        <time>2023-08-21T08:02:34Z</time>
      </trkpt>
      <trkpt lat="45.69707" lon="6.61687">
        <ele>1189.2</ele>
        <time>2023-08-21T08:02:35Z</time>
      </trkpt>
      <trkpt lat="45.69705" lon="6.61684">
        <ele>1189.2</ele>
        <time>2023-08-21T08:02:36Z</time>
      </trkpt>
      <trkpt lat="45.69704" lon="6.61681">
        <ele>1189.2</ele>
        <time>2023-08-21T08:02:37Z</time>
      </trkpt>
      <trkpt lat="45.69702" lon="6.61678">
        <ele>1189.6</ele>
        <time>2023-08-21T08:02:38Z</time>
      </trkpt>
      <trkpt lat="45.69701" lon="6.61676">
        <ele>1189.6</ele>
        <time>2023-08-21T08:02:39Z</time>
      </trkpt>
      <trkpt lat="45.697" lon="6.61674">
        <ele>1189.6</ele>
        <time>2023-08-21T08:02:40Z</time>
      </trkpt>
      <trkpt lat="45.69699" lon="6.61672">
        <ele>1189.6</ele>
        <time>2023-08-21T08:02:41Z</time>
      </trkpt>
      <trkpt lat="45.69698" lon="6.6167">
        <ele>1190.2</ele>
        <time>2023-08-21T08:02:42Z</time>
      </trkpt>
      <trkpt lat="45.69696" lon="6.61668">
        <ele>1190.2</ele>
        <time>2023-08-21T08:02:43Z</time>
      </trkpt>
      <trkpt lat="45.69695" lon="6.61667">
        <ele>1190.2</ele>
        <time>2023-08-21T08:02:44Z</time>
      </trkpt>
      <trkpt lat="45.69694" lon="6.61667">
        <ele>1190.2</ele>
        <time>2023-08-21T08:02:45Z</time>
      </trkpt>
      <trkpt lat="45.69692" lon="6.61667">
        <ele>1191</ele>
        <time>2023-08-21T08:02:46Z</time>
      </trkpt>
      <trkpt lat="45.6969" lon="6.61668">
        <ele>1191</ele>
        <time>2023-08-21T08:02:47Z</time>
      </trkpt>
      <trkpt lat="45.69688" lon="6.61669">
        <ele>1191</ele>
        <time>2023-08-21T08:02:48Z</time>
      </trkpt>
      <trkpt lat="45.69687" lon="6.6167">
        <ele>1191</ele>
        <time>2023-08-21T08:02:49Z</time>
      </trkpt>
      <trkpt lat="45.69686" lon="6.61672">
        <ele>1191</ele>
        <time>2023-08-21T08:02:50Z</time>
      </trkpt>
      <trkpt lat="45.69684" lon="6.61675">
        <ele>1191.6</ele>
        <time>2023-08-21T08:02:51Z</time>
      </trkpt>
      <trkpt lat="45.69683" lon="6.61678">
        <ele>1191.6</ele>
        <time>2023-08-21T08:02:52Z</time>
      </trkpt>
      <trkpt lat="45.69683" lon="6.61681">
        <ele>1191.6</ele>
        <time>2023-08-21T08:02:53Z</time>
      </trkpt>
      <trkpt lat="45.69682" lon="6.61683">
        <ele>1191.6</ele>
        <time>2023-08-21T08:02:54Z</time>
      </trkpt>
      <trkpt lat="45.69682" lon="6.61686">
        <ele>1192.2</ele>
        <time>2023-08-21T08:02:55Z</time>
      </trkpt>
      <trkpt lat="45.69681" lon="6.61689">
        <ele>1192.4</ele>
        <time>2023-08-21T08:02:56Z</time>
      </trkpt>
      <trkpt lat="45.69681" lon="6.61693">
        <ele>1192.4</ele>
        <time>2023-08-21T08:02:57Z</time>
      </trkpt>
      <trkpt lat="45.69683" lon="6.61696">
        <ele>1192.4</ele>
        <time>2023-08-21T08:02:58Z</time>
      </trkpt>
      <trkpt lat="45.69683" lon="6.61698">
        <ele>1192.4</ele>
        <time>2023-08-21T08:02:59Z</time>
      </trkpt>
      <trkpt lat="45.69684" lon="6.617">
        <ele>1193</ele>
        <time>2023-08-21T08:03:00Z</time>
      </trkpt>
      <trkpt lat="45.69685" lon="6.61703">
        <ele>1193</ele>
        <time>2023-08-21T08:03:01Z</time>
      </trkpt>
      <trkpt lat="45.69686" lon="6.61706">
        <ele>1193</ele>
        <time>2023-08-21T08:03:02Z</time>
      </trkpt>
      <trkpt lat="45.69686" lon="6.61708">
        <ele>1193</ele>
        <time>2023-08-21T08:03:03Z</time>
      </trkpt>
      <trkpt lat="45.69687" lon="6.6171">
        <ele>1193.6</ele>
        <time>2023-08-21T08:03:04Z</time>
      </trkpt>
      <trkpt lat="45.69688" lon="6.61713">
        <ele>1193.8</ele>
        <time>2023-08-21T08:03:05Z</time>
      </trkpt>
      <trkpt lat="45.69688" lon="6.61715">
        <ele>1193.8</ele>
        <time>2023-08-21T08:03:06Z</time>
      </trkpt>
      <trkpt lat="45.69689" lon="6.61717">
        <ele>1193.8</ele>
        <time>2023-08-21T08:03:07Z</time>
      </trkpt>
      <trkpt lat="45.69689" lon="6.6172">
        <ele>1193.8</ele>
        <time>2023-08-21T08:03:08Z</time>
      </trkpt>
      <trkpt lat="45.69689" lon="6.61722">
        <ele>1194.2</ele>
        <time>2023-08-21T08:03:09Z</time>
      </trkpt>
      <trkpt lat="45.6969" lon="6.61725">
        <ele>1194.6</ele>
        <time>2023-08-21T08:03:10Z</time>
      </trkpt>
      <trkpt lat="45.69691" lon="6.61727">
        <ele>1194.6</ele>
        <time>2023-08-21T08:03:11Z</time>
      </trkpt>
      <trkpt lat="45.69692" lon="6.6173">
        <ele>1194.6</ele>
        <time>2023-08-21T08:03:12Z</time>
      </trkpt>
      <trkpt lat="45.69692" lon="6.61733">
        <ele>1195.2</ele>
        <time>2023-08-21T08:03:13Z</time>
      </trkpt>
      <trkpt lat="45.69693" lon="6.61736">
        <ele>1195.4</ele>
        <time>2023-08-21T08:03:14Z</time>
      </trkpt>
      <trkpt lat="45.69694" lon="6.61739">
        <ele>1195.4</ele>
        <time>2023-08-21T08:03:15Z</time>
      </trkpt>
      <trkpt lat="45.69695" lon="6.61741">
        <ele>1195.4</ele>
        <time>2023-08-21T08:03:16Z</time>
      </trkpt>
      <trkpt lat="45.69695" lon="6.61744">
        <ele>1195.4</ele>
        <time>2023-08-21T08:03:17Z</time>
      </trkpt>
      <trkpt lat="45.69696" lon="6.61746">
        <ele>1196</ele>
        <time>2023-08-21T08:03:18Z</time>
      </trkpt>
      <trkpt lat="45.69698" lon="6.61749">
        <ele>1196</ele>
        <time>2023-08-21T08:03:19Z</time>
      </trkpt>
      <trkpt lat="45.69699" lon="6.61752">
        <ele>1196</ele>
        <time>2023-08-21T08:03:20Z</time>
      </trkpt>
      <trkpt lat="45.69699" lon="6.61755">
        <ele>1196</ele>
        <time>2023-08-21T08:03:21Z</time>
      </trkpt>
      <trkpt lat="45.697" lon="6.61757">
        <ele>1196.6</ele>
        <time>2023-08-21T08:03:22Z</time>
      </trkpt>
      <trkpt lat="45.69701" lon="6.6176">
        <ele>1196.8</ele>
        <time>2023-08-21T08:03:23Z</time>
      </trkpt>
      <trkpt lat="45.69701" lon="6.61763">
        <ele>1196.8</ele>
        <time>2023-08-21T08:03:24Z</time>
      </trkpt>
      <trkpt lat="45.69701" lon="6.61766">
        <ele>1196.8</ele>
        <time>2023-08-21T08:03:25Z</time>
      </trkpt>
      <trkpt lat="45.69702" lon="6.61768">
        <ele>1197.2</ele>
        <time>2023-08-21T08:03:26Z</time>
      </trkpt>
      <trkpt lat="45.69702" lon="6.61771">
        <ele>1197.8</ele>
        <time>2023-08-21T08:03:27Z</time>
      </trkpt>
      <trkpt lat="45.69702" lon="6.61774">
        <ele>1197.8</ele>
        <time>2023-08-21T08:03:28Z</time>
      </trkpt>
      <trkpt lat="45.69703" lon="6.61777">
        <ele>1197.8</ele>
        <time>2023-08-21T08:03:29Z</time>
      </trkpt>
      <trkpt lat="45.69703" lon="6.6178">
        <ele>1197.8</ele>
        <time>2023-08-21T08:03:30Z</time>
      </trkpt>
      <trkpt lat="45.69704" lon="6.61783">
        <ele>1198.4</ele>
        <time>2023-08-21T08:03:31Z</time>
      </trkpt>
      <trkpt lat="45.69704" lon="6.61786">
        <ele>1198.2</ele>
        <time>2023-08-21T08:03:32Z</time>
      </trkpt>
      <trkpt lat="45.69705" lon="6.61789">
        <ele>1198.2</ele>
        <time>2023-08-21T08:03:33Z</time>
      </trkpt>
      <trkpt lat="45.69706" lon="6.61792">
        <ele>1198.2</ele>
        <time>2023-08-21T08:03:34Z</time>
      </trkpt>
      <trkpt lat="45.69707" lon="6.61794">
        <ele>1198.8</ele>
        <time>2023-08-21T08:03:35Z</time>
      </trkpt>
      <trkpt lat="45.69707" lon="6.61797">
        <ele>1199.2</ele>
        <time>2023-08-21T08:03:36Z</time>
      </trkpt>
      <trkpt lat="45.69708" lon="6.61799">
        <ele>1199.2</ele>
        <time>2023-08-21T08:03:37Z</time>
      </trkpt>
      <trkpt lat="45.69709" lon="6.61802">
        <ele>1199.2</ele>
        <time>2023-08-21T08:03:38Z</time>
      </trkpt>
      <trkpt lat="45.6971" lon="6.61804">
        <ele>1199.8</ele>
        <time>2023-08-21T08:03:39Z</time>
      </trkpt>
      <trkpt lat="45.69711" lon="6.61807">
        <ele>1200</ele>
        <time>2023-08-21T08:03:40Z</time>
      </trkpt>
      <trkpt lat="45.69711" lon="6.61809">
        <ele>1200</ele>
        <time>2023-08-21T08:03:41Z</time>
      </trkpt>
      <trkpt lat="45.69712" lon="6.61812">
        <ele>1200</ele>
        <time>2023-08-21T08:03:42Z</time>
      </trkpt>
      <trkpt lat="45.69712" lon="6.61814">
        <ele>1200</ele>
        <time>2023-08-21T08:03:43Z</time>
      </trkpt>
      <trkpt lat="45.69713" lon="6.61817">
        <ele>1200.8</ele>
        <time>2023-08-21T08:03:44Z</time>
      </trkpt>
      <trkpt lat="45.69713" lon="6.61819">
        <ele>1200.8</ele>
        <time>2023-08-21T08:03:45Z</time>
      </trkpt>
      <trkpt lat="45.69713" lon="6.61822">
        <ele>1200.8</ele>
        <time>2023-08-21T08:03:46Z</time>
      </trkpt>
      <trkpt lat="45.69713" lon="6.61825">
        <ele>1200.8</ele>
        <time>2023-08-21T08:03:47Z</time>
      </trkpt>
      <trkpt lat="45.69714" lon="6.61828">
        <ele>1201.4</ele>
        <time>2023-08-21T08:03:48Z</time>
      </trkpt>
      <trkpt lat="45.69714" lon="6.6183">
        <ele>1201.4</ele>
        <time>2023-08-21T08:03:49Z</time>
      </trkpt>
      <trkpt lat="45.69715" lon="6.61833">
        <ele>1201.6</ele>
        <time>2023-08-21T08:03:50Z</time>
      </trkpt>
      <trkpt lat="45.69716" lon="6.61836">
        <ele>1201.6</ele>
        <time>2023-08-21T08:03:51Z</time>
      </trkpt>
      <trkpt lat="45.69717" lon="6.61838">
        <ele>1201.6</ele>
        <time>2023-08-21T08:03:52Z</time>
      </trkpt>
      <trkpt lat="45.69718" lon="6.61841">
        <ele>1202.2</ele>
        <time>2023-08-21T08:03:53Z</time>
      </trkpt>
      <trkpt lat="45.69719" lon="6.61843">
        <ele>1202.6</ele>
        <time>2023-08-21T08:03:54Z</time>
      </trkpt>
      <trkpt lat="45.69719" lon="6.61846">
        <ele>1202.6</ele>
        <time>2023-08-21T08:03:55Z</time>
      </trkpt>
      <trkpt lat="45.69719" lon="6.61849">
        <ele>1202.6</ele>
        <time>2023-08-21T08:03:56Z</time>
      </trkpt>
      <trkpt lat="45.6972" lon="6.61851">
        <ele>1202.6</ele>
        <time>2023-08-21T08:03:57Z</time>
      </trkpt>
      <trkpt lat="45.6972" lon="6.61854">
        <ele>1202.6</ele>
        <time>2023-08-21T08:03:58Z</time>
      </trkpt>
      <trkpt lat="45.69721" lon="6.61856">
        <ele>1203.2</ele>
        <time>2023-08-21T08:03:59Z</time>
      </trkpt>
      <trkpt lat="45.69722" lon="6.61859">
        <ele>1203.2</ele>
        <time>2023-08-21T08:04:00Z</time>
      </trkpt>
      <trkpt lat="45.69722" lon="6.61862">
        <ele>1203.2</ele>
        <time>2023-08-21T08:04:01Z</time>
      </trkpt>
      <trkpt lat="45.69722" lon="6.61865">
        <ele>1203.6</ele>
        <time>2023-08-21T08:04:02Z</time>
      </trkpt>
      <trkpt lat="45.69723" lon="6.61868">
        <ele>1204.2</ele>
        <time>2023-08-21T08:04:03Z</time>
      </trkpt>
      <trkpt lat="45.69723" lon="6.61871">
        <ele>1204.2</ele>
        <time>2023-08-21T08:04:04Z</time>
      </trkpt>
      <trkpt lat="45.69724" lon="6.61873">
        <ele>1204.2</ele>
        <time>2023-08-21T08:04:05Z</time>
      </trkpt>
      <trkpt lat="45.69724" lon="6.61876">
        <ele>1204.2</ele>
        <time>2023-08-21T08:04:06Z</time>
      </trkpt>
      <trkpt lat="45.69724" lon="6.61879">
        <ele>1204.6</ele>
        <time>2023-08-21T08:04:07Z</time>
      </trkpt>
      <trkpt lat="45.69724" lon="6.61882">
        <ele>1204.6</ele>
        <time>2023-08-21T08:04:08Z</time>
      </trkpt>
      <trkpt lat="45.69725" lon="6.61884">
        <ele>1204.6</ele>
        <time>2023-08-21T08:04:09Z</time>
      </trkpt>
      <trkpt lat="45.69726" lon="6.61887">
        <ele>1204.6</ele>
        <time>2023-08-21T08:04:10Z</time>
      </trkpt>
      <trkpt lat="45.69727" lon="6.61889">
        <ele>1205.4</ele>
        <time>2023-08-21T08:04:11Z</time>
      </trkpt>
      <trkpt lat="45.69727" lon="6.61892">
        <ele>1205.6</ele>
        <time>2023-08-21T08:04:12Z</time>
      </trkpt>
      <trkpt lat="45.69728" lon="6.61895">
        <ele>1205.6</ele>
        <time>2023-08-21T08:04:13Z</time>
      </trkpt>
      <trkpt lat="45.6973" lon="6.61897">
        <ele>1205.6</ele>
        <time>2023-08-21T08:04:14Z</time>
      </trkpt>
      <trkpt lat="45.69731" lon="6.619">
        <ele>1206</ele>
        <time>2023-08-21T08:04:15Z</time>
      </trkpt>
      <trkpt lat="45.69731" lon="6.61902">
        <ele>1206.4</ele>
        <time>2023-08-21T08:04:16Z</time>
      </trkpt>
      <trkpt lat="45.69732" lon="6.61904">
        <ele>1206.4</ele>
        <time>2023-08-21T08:04:17Z</time>
      </trkpt>
      <trkpt lat="45.69733" lon="6.61907">
        <ele>1206.4</ele>
        <time>2023-08-21T08:04:18Z</time>
      </trkpt>
      <trkpt lat="45.69734" lon="6.61909">
        <ele>1206.6</ele>
        <time>2023-08-21T08:04:19Z</time>
      </trkpt>
      <trkpt lat="45.69735" lon="6.61912">
        <ele>1207</ele>
        <time>2023-08-21T08:04:20Z</time>
      </trkpt>
      <trkpt lat="45.69737" lon="6.61914">
        <ele>1207</ele>
        <time>2023-08-21T08:04:21Z</time>
      </trkpt>
      <trkpt lat="45.69738" lon="6.61916">
        <ele>1207</ele>
        <time>2023-08-21T08:04:22Z</time>
      </trkpt>
      <trkpt lat="45.69739" lon="6.61918">
        <ele>1207</ele>
        <time>2023-08-21T08:04:23Z</time>
      </trkpt>
      <trkpt lat="45.69741" lon="6.61921">
        <ele>1207.4</ele>
        <time>2023-08-21T08:04:24Z</time>
      </trkpt>
      <trkpt lat="45.69742" lon="6.61923">
        <ele>1207.8</ele>
        <time>2023-08-21T08:04:25Z</time>
      </trkpt>
      <trkpt lat="45.69743" lon="6.61925">
        <ele>1207.8</ele>
        <time>2023-08-21T08:04:26Z</time>
      </trkpt>
      <trkpt lat="45.69744" lon="6.61927">
        <ele>1207.8</ele>
        <time>2023-08-21T08:04:27Z</time>
      </trkpt>
      <trkpt lat="45.69746" lon="6.61929">
        <ele>1208.2</ele>
        <time>2023-08-21T08:04:28Z</time>
      </trkpt>
      <trkpt lat="45.69748" lon="6.6193">
        <ele>1208.6</ele>
        <time>2023-08-21T08:04:29Z</time>
      </trkpt>
      <trkpt lat="45.69749" lon="6.61932">
        <ele>1208.6</ele>
        <time>2023-08-21T08:04:30Z</time>
      </trkpt>
      <trkpt lat="45.69751" lon="6.61934">
        <ele>1208.6</ele>
        <time>2023-08-21T08:04:31Z</time>
      </trkpt>
      <trkpt lat="45.69752" lon="6.61936">
        <ele>1208.6</ele>
        <time>2023-08-21T08:04:32Z</time>
      </trkpt>
      <trkpt lat="45.69754" lon="6.61938">
        <ele>1208.6</ele>
        <time>2023-08-21T08:04:33Z</time>
      </trkpt>
      <trkpt lat="45.69755" lon="6.61941">
        <ele>1209.2</ele>
        <time>2023-08-21T08:04:34Z</time>
      </trkpt>
      <trkpt lat="45.69757" lon="6.61943">
        <ele>1209.2</ele>
        <time>2023-08-21T08:04:35Z</time>
      </trkpt>
      <trkpt lat="45.69759" lon="6.61945">
        <ele>1209.2</ele>
        <time>2023-08-21T08:04:36Z</time>
      </trkpt>
      <trkpt lat="45.6976" lon="6.61947">
        <ele>1209.2</ele>
        <time>2023-08-21T08:04:37Z</time>
      </trkpt>
      <trkpt lat="45.69762" lon="6.61949">
        <ele>1209.6</ele>
        <time>2023-08-21T08:04:38Z</time>
      </trkpt>
      <trkpt lat="45.69764" lon="6.61951">
        <ele>1210</ele>
        <time>2023-08-21T08:04:39Z</time>
      </trkpt>
      <trkpt lat="45.69765" lon="6.61954">
        <ele>1210</ele>
        <time>2023-08-21T08:04:40Z</time>
      </trkpt>
      <trkpt lat="45.69766" lon="6.61956">
        <ele>1210</ele>
        <time>2023-08-21T08:04:41Z</time>
      </trkpt>
      <trkpt lat="45.69767" lon="6.61959">
        <ele>1210.4</ele>
        <time>2023-08-21T08:04:42Z</time>
      </trkpt>
      <trkpt lat="45.69768" lon="6.61961">
        <ele>1210.6</ele>
        <time>2023-08-21T08:04:43Z</time>
      </trkpt>
      <trkpt lat="45.69769" lon="6.61963">
        <ele>1210.6</ele>
        <time>2023-08-21T08:04:44Z</time>
      </trkpt>
      <trkpt lat="45.6977" lon="6.61966">
        <ele>1210.6</ele>
        <time>2023-08-21T08:04:45Z</time>
      </trkpt>
      <trkpt lat="45.69771" lon="6.61968">
        <ele>1210.6</ele>
        <time>2023-08-21T08:04:46Z</time>
      </trkpt>
      <trkpt lat="45.69772" lon="6.6197">
        <ele>1211.2</ele>
        <time>2023-08-21T08:04:47Z</time>
      </trkpt>
      <trkpt lat="45.69773" lon="6.61973">
        <ele>1211.4</ele>
        <time>2023-08-21T08:04:48Z</time>
      </trkpt>
      <trkpt lat="45.69774" lon="6.61975">
        <ele>1211.4</ele>
        <time>2023-08-21T08:04:49Z</time>
      </trkpt>
      <trkpt lat="45.69774" lon="6.61978">
        <ele>1211.4</ele>
        <time>2023-08-21T08:04:50Z</time>
      </trkpt>
      <trkpt lat="45.69775" lon="6.6198">
        <ele>1212</ele>
        <time>2023-08-21T08:04:51Z</time>
      </trkpt>
      <trkpt lat="45.69775" lon="6.61983">
        <ele>1212.2</ele>
        <time>2023-08-21T08:04:52Z</time>
      </trkpt>
      <trkpt lat="45.69775" lon="6.61985">
        <ele>1212.2</ele>
        <time>2023-08-21T08:04:53Z</time>
      </trkpt>
      <trkpt lat="45.69775" lon="6.61988">
        <ele>1212.2</ele>
        <time>2023-08-21T08:04:54Z</time>
      </trkpt>
      <trkpt lat="45.69776" lon="6.61992">
        <ele>1212.8</ele>
        <time>2023-08-21T08:04:55Z</time>
      </trkpt>
      <trkpt lat="45.69776" lon="6.61994">
        <ele>1212.8</ele>
        <time>2023-08-21T08:04:56Z</time>
      </trkpt>
      <trkpt lat="45.69778" lon="6.61997">
        <ele>1212.8</ele>
        <time>2023-08-21T08:04:57Z</time>
      </trkpt>
      <trkpt lat="45.69779" lon="6.61999">
        <ele>1212.8</ele>
        <time>2023-08-21T08:04:58Z</time>
      </trkpt>
      <trkpt lat="45.6978" lon="6.62002">
        <ele>1212.8</ele>
        <time>2023-08-21T08:04:59Z</time>
      </trkpt>
      <trkpt lat="45.69781" lon="6.62005">
        <ele>1213.8</ele>
        <time>2023-08-21T08:05:00Z</time>
      </trkpt>
      <trkpt lat="45.69781" lon="6.62008">
        <ele>1213.8</ele>
        <time>2023-08-21T08:05:01Z</time>
      </trkpt>
      <trkpt lat="45.69782" lon="6.6201">
        <ele>1213.8</ele>
        <time>2023-08-21T08:05:02Z</time>
      </trkpt>
      <trkpt lat="45.69782" lon="6.62013">
        <ele>1213.8</ele>
        <time>2023-08-21T08:05:03Z</time>
      </trkpt>
      <trkpt lat="45.69783" lon="6.62016">
        <ele>1214.4</ele>
        <time>2023-08-21T08:05:04Z</time>
      </trkpt>
      <trkpt lat="45.69783" lon="6.62019">
        <ele>1214.6</ele>
        <time>2023-08-21T08:05:05Z</time>
      </trkpt>
      <trkpt lat="45.69784" lon="6.62021">
        <ele>1214.6</ele>
        <time>2023-08-21T08:05:06Z</time>
      </trkpt>
      <trkpt lat="45.69784" lon="6.62023">
        <ele>1214.6</ele>
        <time>2023-08-21T08:05:07Z</time>
      </trkpt>
      <trkpt lat="45.69785" lon="6.62026">
        <ele>1214.6</ele>
        <time>2023-08-21T08:05:08Z</time>
      </trkpt>
      <trkpt lat="45.69786" lon="6.62028">
        <ele>1215</ele>
        <time>2023-08-21T08:05:09Z</time>
      </trkpt>
      <trkpt lat="45.69786" lon="6.62031">
        <ele>1215.4</ele>
        <time>2023-08-21T08:05:10Z</time>
      </trkpt>
      <trkpt lat="45.69787" lon="6.62033">
        <ele>1215.4</ele>
        <time>2023-08-21T08:05:11Z</time>
      </trkpt>
      <trkpt lat="45.69787" lon="6.62035">
        <ele>1215.4</ele>
        <time>2023-08-21T08:05:12Z</time>
      </trkpt>
      <trkpt lat="45.69788" lon="6.62038">
        <ele>1216</ele>
        <time>2023-08-21T08:05:13Z</time>
      </trkpt>
      <trkpt lat="45.69789" lon="6.62041">
        <ele>1216.2</ele>
        <time>2023-08-21T08:05:14Z</time>
      </trkpt>
      <trkpt lat="45.6979" lon="6.62043">
        <ele>1216.2</ele>
        <time>2023-08-21T08:05:15Z</time>
      </trkpt>
      <trkpt lat="45.69791" lon="6.62045">
        <ele>1216.2</ele>
        <time>2023-08-21T08:05:16Z</time>
      </trkpt>
      <trkpt lat="45.69792" lon="6.62047">
        <ele>1216.2</ele>
        <time>2023-08-21T08:05:17Z</time>
      </trkpt>
      <trkpt lat="45.69794" lon="6.6205">
        <ele>1216.8</ele>
        <time>2023-08-21T08:05:18Z</time>
      </trkpt>
      <trkpt lat="45.69795" lon="6.62052">
        <ele>1217</ele>
        <time>2023-08-21T08:05:19Z</time>
      </trkpt>
      <trkpt lat="45.69796" lon="6.62055">
        <ele>1217</ele>
        <time>2023-08-21T08:05:20Z</time>
      </trkpt>
      <trkpt lat="45.69798" lon="6.62057">
        <ele>1217</ele>
        <time>2023-08-21T08:05:21Z</time>
      </trkpt>
      <trkpt lat="45.69799" lon="6.6206">
        <ele>1217</ele>
        <time>2023-08-21T08:05:22Z</time>
      </trkpt>
      <trkpt lat="45.698" lon="6.62062">
        <ele>1217.4</ele>
        <time>2023-08-21T08:05:23Z</time>
      </trkpt>
      <trkpt lat="45.69802" lon="6.62065">
        <ele>1217.8</ele>
        <time>2023-08-21T08:05:24Z</time>
      </trkpt>
      <trkpt lat="45.69803" lon="6.62067">
        <ele>1217.8</ele>
        <time>2023-08-21T08:05:25Z</time>
      </trkpt>
      <trkpt lat="45.69805" lon="6.62069">
        <ele>1217.8</ele>
        <time>2023-08-21T08:05:26Z</time>
      </trkpt>
      <trkpt lat="45.69806" lon="6.62072">
        <ele>1218.2</ele>
        <time>2023-08-21T08:05:27Z</time>
      </trkpt>
      <trkpt lat="45.69808" lon="6.62073">
        <ele>1218.4</ele>
        <time>2023-08-21T08:05:28Z</time>
      </trkpt>
      <trkpt lat="45.69809" lon="6.62075">
        <ele>1218.4</ele>
        <time>2023-08-21T08:05:29Z</time>
      </trkpt>
      <trkpt lat="45.69811" lon="6.62077">
        <ele>1218.4</ele>
        <time>2023-08-21T08:05:30Z</time>
      </trkpt>
      <trkpt lat="45.69812" lon="6.62078">
        <ele>1218.4</ele>
        <time>2023-08-21T08:05:31Z</time>
      </trkpt>
      <trkpt lat="45.69814" lon="6.6208">
        <ele>1219</ele>
        <time>2023-08-21T08:05:32Z</time>
      </trkpt>
      <trkpt lat="45.69816" lon="6.62082">
        <ele>1219</ele>
        <time>2023-08-21T08:05:33Z</time>
      </trkpt>
      <trkpt lat="45.69818" lon="6.62083">
        <ele>1219</ele>
        <time>2023-08-21T08:05:34Z</time>
      </trkpt>
      <trkpt lat="45.6982" lon="6.62084">
        <ele>1219</ele>
        <time>2023-08-21T08:05:35Z</time>
      </trkpt>
      <trkpt lat="45.69822" lon="6.62086">
        <ele>1219.4</ele>
        <time>2023-08-21T08:05:36Z</time>
      </trkpt>
      <trkpt lat="45.69823" lon="6.62088">
        <ele>1219.6</ele>
        <time>2023-08-21T08:05:37Z</time>
      </trkpt>
      <trkpt lat="45.69825" lon="6.62089">
        <ele>1219.6</ele>
        <time>2023-08-21T08:05:38Z</time>
      </trkpt>
      <trkpt lat="45.69828" lon="6.6209">
        <ele>1219.6</ele>
        <time>2023-08-21T08:05:39Z</time>
      </trkpt>
      <trkpt lat="45.6983" lon="6.62092">
        <ele>1220</ele>
        <time>2023-08-21T08:05:40Z</time>
      </trkpt>
      <trkpt lat="45.69831" lon="6.62093">
        <ele>1220.2</ele>
        <time>2023-08-21T08:05:41Z</time>
      </trkpt>
      <trkpt lat="45.69833" lon="6.62096">
        <ele>1220.2</ele>
        <time>2023-08-21T08:05:42Z</time>
      </trkpt>
      <trkpt lat="45.69834" lon="6.62098">
        <ele>1220.2</ele>
        <time>2023-08-21T08:05:43Z</time>
      </trkpt>
      <trkpt lat="45.69836" lon="6.621">
        <ele>1220.2</ele>
        <time>2023-08-21T08:05:44Z</time>
      </trkpt>
      <trkpt lat="45.69837" lon="6.62102">
        <ele>1220.6</ele>
        <time>2023-08-21T08:05:45Z</time>
      </trkpt>
      <trkpt lat="45.69838" lon="6.62105">
        <ele>1220.8</ele>
        <time>2023-08-21T08:05:46Z</time>
      </trkpt>
      <trkpt lat="45.69839" lon="6.62108">
        <ele>1220.8</ele>
        <time>2023-08-21T08:05:47Z</time>
      </trkpt>
      <trkpt lat="45.6984" lon="6.6211">
        <ele>1220.8</ele>
        <time>2023-08-21T08:05:48Z</time>
      </trkpt>
      <trkpt lat="45.69841" lon="6.62113">
        <ele>1221.4</ele>
        <time>2023-08-21T08:05:49Z</time>
      </trkpt>
      <trkpt lat="45.69841" lon="6.62116">
        <ele>1221.4</ele>
        <time>2023-08-21T08:05:50Z</time>
      </trkpt>
      <trkpt lat="45.69842" lon="6.62119">
        <ele>1221.4</ele>
        <time>2023-08-21T08:05:51Z</time>
      </trkpt>
      <trkpt lat="45.69842" lon="6.62122">
        <ele>1221.4</ele>
        <time>2023-08-21T08:05:52Z</time>
      </trkpt>
      <trkpt lat="45.69843" lon="6.62125">
        <ele>1222</ele>
        <time>2023-08-21T08:05:53Z</time>
      </trkpt>
      <trkpt lat="45.69843" lon="6.62127">
        <ele>1222.2</ele>
        <time>2023-08-21T08:05:54Z</time>
      </trkpt>
      <trkpt lat="45.69843" lon="6.6213">
        <ele>1222.2</ele>
        <time>2023-08-21T08:05:55Z</time>
      </trkpt>
      <trkpt lat="45.69843" lon="6.62134">
        <ele>1222.2</ele>
        <time>2023-08-21T08:05:56Z</time>
      </trkpt>
      <trkpt lat="45.69843" lon="6.62136">
        <ele>1222.2</ele>
        <time>2023-08-21T08:05:57Z</time>
      </trkpt>
      <trkpt lat="45.69843" lon="6.62139">
        <ele>1222.6</ele>
        <time>2023-08-21T08:05:58Z</time>
      </trkpt>
      <trkpt lat="45.69843" lon="6.62142">
        <ele>1222.6</ele>
        <time>2023-08-21T08:05:59Z</time>
      </trkpt>
      <trkpt lat="45.69842" lon="6.62146">
        <ele>1222.6</ele>
        <time>2023-08-21T08:06:00Z</time>
      </trkpt>
      <trkpt lat="45.69843" lon="6.62149">
        <ele>1222.6</ele>
        <time>2023-08-21T08:06:01Z</time>
      </trkpt>
      <trkpt lat="45.69842" lon="6.62152">
        <ele>1222.6</ele>
        <time>2023-08-21T08:06:02Z</time>
      </trkpt>
      <trkpt lat="45.69842" lon="6.62155">
        <ele>1223.2</ele>
        <time>2023-08-21T08:06:03Z</time>
      </trkpt>
      <trkpt lat="45.69842" lon="6.62158">
        <ele>1223.2</ele>
        <time>2023-08-21T08:06:04Z</time>
      </trkpt>
      <trkpt lat="45.69842" lon="6.62161">
        <ele>1223.2</ele>
        <time>2023-08-21T08:06:05Z</time>
      </trkpt>
      <trkpt lat="45.69841" lon="6.62165">
        <ele>1223.2</ele>
        <time>2023-08-21T08:06:06Z</time>
      </trkpt>
      <trkpt lat="45.69841" lon="6.62168">
        <ele>1223.8</ele>
        <time>2023-08-21T08:06:07Z</time>
      </trkpt>
      <trkpt lat="45.69841" lon="6.62171">
        <ele>1223.8</ele>
        <time>2023-08-21T08:06:08Z</time>
      </trkpt>
      <trkpt lat="45.69841" lon="6.62174">
        <ele>1223.8</ele>
        <time>2023-08-21T08:06:09Z</time>
      </trkpt>
      <trkpt lat="45.69841" lon="6.62177">
        <ele>1223.8</ele>
        <time>2023-08-21T08:06:10Z</time>
      </trkpt>
      <trkpt lat="45.69842" lon="6.6218">
        <ele>1223.8</ele>
        <time>2023-08-21T08:06:11Z</time>
      </trkpt>
      <trkpt lat="45.69842" lon="6.62183">
        <ele>1224.4</ele>
        <time>2023-08-21T08:06:12Z</time>
      </trkpt>
      <trkpt lat="45.69842" lon="6.62186">
        <ele>1224.8</ele>
        <time>2023-08-21T08:06:13Z</time>
      </trkpt>
      <trkpt lat="45.69843" lon="6.6219">
        <ele>1224.8</ele>
        <time>2023-08-21T08:06:14Z</time>
      </trkpt>
      <trkpt lat="45.69843" lon="6.62193">
        <ele>1224.8</ele>
        <time>2023-08-21T08:06:15Z</time>
      </trkpt>
      <trkpt lat="45.69843" lon="6.62196">
        <ele>1224.8</ele>
        <time>2023-08-21T08:06:16Z</time>
      </trkpt>
      <trkpt lat="45.69844" lon="6.62199">
        <ele>1225.2</ele>
        <time>2023-08-21T08:06:17Z</time>
      </trkpt>
      <trkpt lat="45.69844" lon="6.62203">
        <ele>1225.2</ele>
        <time>2023-08-21T08:06:18Z</time>
      </trkpt>
      <trkpt lat="45.69844" lon="6.62206">
        <ele>1225.2</ele>
        <time>2023-08-21T08:06:19Z</time>
      </trkpt>
      <trkpt lat="45.69845" lon="6.62208">
        <ele>1225.6</ele>
        <time>2023-08-21T08:06:20Z</time>
      </trkpt>
      <trkpt lat="45.69846" lon="6.62211">
        <ele>1225.8</ele>
        <time>2023-08-21T08:06:21Z</time>
      </trkpt>
      <trkpt lat="45.69847" lon="6.62214">
        <ele>1225.8</ele>
        <time>2023-08-21T08:06:22Z</time>
      </trkpt>
      <trkpt lat="45.69847" lon="6.62216">
        <ele>1225.8</ele>
        <time>2023-08-21T08:06:23Z</time>
      </trkpt>
      <trkpt lat="45.69849" lon="6.62219">
        <ele>1225.8</ele>
        <time>2023-08-21T08:06:24Z</time>
      </trkpt>
      <trkpt lat="45.69849" lon="6.62222">
        <ele>1226.2</ele>
        <time>2023-08-21T08:06:25Z</time>
      </trkpt>
      <trkpt lat="45.6985" lon="6.62225">
        <ele>1226.6</ele>
        <time>2023-08-21T08:06:26Z</time>
      </trkpt>
      <trkpt lat="45.69852" lon="6.62229">
        <ele>1226.6</ele>
        <time>2023-08-21T08:06:27Z</time>
      </trkpt>
      <trkpt lat="45.69853" lon="6.62232">
        <ele>1226.6</ele>
        <time>2023-08-21T08:06:28Z</time>
      </trkpt>
      <trkpt lat="45.69854" lon="6.62235">
        <ele>1227</ele>
        <time>2023-08-21T08:06:29Z</time>
      </trkpt>
      <trkpt lat="45.69855" lon="6.62238">
        <ele>1227</ele>
        <time>2023-08-21T08:06:30Z</time>
      </trkpt>
      <trkpt lat="45.69856" lon="6.62241">
        <ele>1227</ele>
        <time>2023-08-21T08:06:31Z</time>
      </trkpt>
      <trkpt lat="45.69858" lon="6.62244">
        <ele>1227</ele>
        <time>2023-08-21T08:06:32Z</time>
      </trkpt>
      <trkpt lat="45.69859" lon="6.62247">
        <ele>1227.6</ele>
        <time>2023-08-21T08:06:33Z</time>
      </trkpt>
      <trkpt lat="45.6986" lon="6.6225">
        <ele>1227.6</ele>
        <time>2023-08-21T08:06:34Z</time>
      </trkpt>
      <trkpt lat="45.69862" lon="6.62253">
        <ele>1227.6</ele>
        <time>2023-08-21T08:06:35Z</time>
      </trkpt>
      <trkpt lat="45.69863" lon="6.62255">
        <ele>1227.6</ele>
        <time>2023-08-21T08:06:36Z</time>
      </trkpt>
      <trkpt lat="45.69864" lon="6.62258">
        <ele>1227.6</ele>
        <time>2023-08-21T08:06:37Z</time>
      </trkpt>
      <trkpt lat="45.69865" lon="6.62262">
        <ele>1228.4</ele>
        <time>2023-08-21T08:06:38Z</time>
      </trkpt>
      <trkpt lat="45.69866" lon="6.62265">
        <ele>1228.4</ele>
        <time>2023-08-21T08:06:39Z</time>
      </trkpt>
      <trkpt lat="45.69868" lon="6.62268">
        <ele>1228.6</ele>
        <time>2023-08-21T08:06:40Z</time>
      </trkpt>
      <trkpt lat="45.69869" lon="6.6227">
        <ele>1228.6</ele>
        <time>2023-08-21T08:06:41Z</time>
      </trkpt>
      <trkpt lat="45.69871" lon="6.62273">
        <ele>1228.6</ele>
        <time>2023-08-21T08:06:42Z</time>
      </trkpt>
      <trkpt lat="45.69872" lon="6.62276">
        <ele>1229</ele>
        <time>2023-08-21T08:06:43Z</time>
      </trkpt>
      <trkpt lat="45.69872" lon="6.62279">
        <ele>1229.2</ele>
        <time>2023-08-21T08:06:44Z</time>
      </trkpt>
      <trkpt lat="45.69873" lon="6.62282">
        <ele>1229.2</ele>
        <time>2023-08-21T08:06:45Z</time>
      </trkpt>
      <trkpt lat="45.69874" lon="6.62285">
        <ele>1229.2</ele>
        <time>2023-08-21T08:06:46Z</time>
      </trkpt>
      <trkpt lat="45.69875" lon="6.62287">
        <ele>1229.2</ele>
        <time>2023-08-21T08:06:47Z</time>
      </trkpt>
      <trkpt lat="45.69876" lon="6.6229">
        <ele>1229.8</ele>
        <time>2023-08-21T08:06:48Z</time>
      </trkpt>
      <trkpt lat="45.69877" lon="6.62293">
        <ele>1230</ele>
        <time>2023-08-21T08:06:49Z</time>
      </trkpt>
      <trkpt lat="45.69878" lon="6.62296">
        <ele>1230</ele>
        <time>2023-08-21T08:06:50Z</time>
      </trkpt>
      <trkpt lat="45.69879" lon="6.62299">
        <ele>1230</ele>
        <time>2023-08-21T08:06:51Z</time>
      </trkpt>
      <trkpt lat="45.6988" lon="6.62302">
        <ele>1230.6</ele>
        <time>2023-08-21T08:06:52Z</time>
      </trkpt>
      <trkpt lat="45.69881" lon="6.62305">
        <ele>1230.6</ele>
        <time>2023-08-21T08:06:53Z</time>
      </trkpt>
      <trkpt lat="45.69881" lon="6.62308">
        <ele>1230.6</ele>
        <time>2023-08-21T08:06:54Z</time>
      </trkpt>
      <trkpt lat="45.69882" lon="6.62311">
        <ele>1230.6</ele>
        <time>2023-08-21T08:06:55Z</time>
      </trkpt>
      <trkpt lat="45.69883" lon="6.62314">
        <ele>1231.2</ele>
        <time>2023-08-21T08:06:56Z</time>
      </trkpt>
      <trkpt lat="45.69884" lon="6.62316">
        <ele>1231.4</ele>
        <time>2023-08-21T08:06:57Z</time>
      </trkpt>
      <trkpt lat="45.69884" lon="6.62319">
        <ele>1231.4</ele>
        <time>2023-08-21T08:06:58Z</time>
      </trkpt>
      <trkpt lat="45.69885" lon="6.62322">
        <ele>1231.4</ele>
        <time>2023-08-21T08:06:59Z</time>
      </trkpt>
      <trkpt lat="45.69886" lon="6.62325">
        <ele>1232</ele>
        <time>2023-08-21T08:07:00Z</time>
      </trkpt>
      <trkpt lat="45.69887" lon="6.62328">
        <ele>1232.2</ele>
        <time>2023-08-21T08:07:01Z</time>
      </trkpt>
      <trkpt lat="45.69887" lon="6.62331">
        <ele>1232.2</ele>
        <time>2023-08-21T08:07:02Z</time>
      </trkpt>
      <trkpt lat="45.69888" lon="6.62333">
        <ele>1232.2</ele>
        <time>2023-08-21T08:07:03Z</time>
      </trkpt>
      <trkpt lat="45.69889" lon="6.62336">
        <ele>1232.2</ele>
        <time>2023-08-21T08:07:04Z</time>
      </trkpt>
      <trkpt lat="45.6989" lon="6.62339">
        <ele>1232.6</ele>
        <time>2023-08-21T08:07:05Z</time>
      </trkpt>
      <trkpt lat="45.69891" lon="6.62342">
        <ele>1233</ele>
        <time>2023-08-21T08:07:06Z</time>
      </trkpt>
      <trkpt lat="45.69892" lon="6.62345">
        <ele>1233</ele>
        <time>2023-08-21T08:07:07Z</time>
      </trkpt>
      <trkpt lat="45.69892" lon="6.62348">
        <ele>1233</ele>
        <time>2023-08-21T08:07:08Z</time>
      </trkpt>
      <trkpt lat="45.69892" lon="6.62351">
        <ele>1233.4</ele>
        <time>2023-08-21T08:07:09Z</time>
      </trkpt>
      <trkpt lat="45.69893" lon="6.62354">
        <ele>1233.8</ele>
        <time>2023-08-21T08:07:10Z</time>
      </trkpt>
      <trkpt lat="45.69894" lon="6.62357">
        <ele>1233.8</ele>
        <time>2023-08-21T08:07:11Z</time>
      </trkpt>
      <trkpt lat="45.69895" lon="6.6236">
        <ele>1233.8</ele>
        <time>2023-08-21T08:07:12Z</time>
      </trkpt>
      <trkpt lat="45.69896" lon="6.62363">
        <ele>1233.8</ele>
        <time>2023-08-21T08:07:13Z</time>
      </trkpt>
      <trkpt lat="45.69896" lon="6.62366">
        <ele>1234.4</ele>
        <time>2023-08-21T08:07:14Z</time>
      </trkpt>
      <trkpt lat="45.69897" lon="6.62369">
        <ele>1234.4</ele>
        <time>2023-08-21T08:07:15Z</time>
      </trkpt>
      <trkpt lat="45.69898" lon="6.62372">
        <ele>1234.4</ele>
        <time>2023-08-21T08:07:16Z</time>
      </trkpt>
      <trkpt lat="45.69898" lon="6.62376">
        <ele>1234.4</ele>
        <time>2023-08-21T08:07:17Z</time>
      </trkpt>
      <trkpt lat="45.69898" lon="6.62379">
        <ele>1235</ele>
        <time>2023-08-21T08:07:18Z</time>
      </trkpt>
      <trkpt lat="45.69898" lon="6.62382">
        <ele>1235.2</ele>
        <time>2023-08-21T08:07:19Z</time>
      </trkpt>
      <trkpt lat="45.69898" lon="6.62385">
        <ele>1235.2</ele>
        <time>2023-08-21T08:07:20Z</time>
      </trkpt>
      <trkpt lat="45.69899" lon="6.62388">
        <ele>1235.2</ele>
        <time>2023-08-21T08:07:21Z</time>
      </trkpt>
      <trkpt lat="45.699" lon="6.62392">
        <ele>1235.8</ele>
        <time>2023-08-21T08:07:22Z</time>
      </trkpt>
      <trkpt lat="45.699" lon="6.62395">
        <ele>1236</ele>
        <time>2023-08-21T08:07:23Z</time>
      </trkpt>
      <trkpt lat="45.69901" lon="6.62398">
        <ele>1236</ele>
        <time>2023-08-21T08:07:24Z</time>
      </trkpt>
      <trkpt lat="45.69901" lon="6.62401">
        <ele>1236</ele>
        <time>2023-08-21T08:07:25Z</time>
      </trkpt>
      <trkpt lat="45.69902" lon="6.62404">
        <ele>1236</ele>
        <time>2023-08-21T08:07:26Z</time>
      </trkpt>
      <trkpt lat="45.69902" lon="6.62407">
        <ele>1236.8</ele>
        <time>2023-08-21T08:07:27Z</time>
      </trkpt>
      <trkpt lat="45.69902" lon="6.6241">
        <ele>1236.8</ele>
        <time>2023-08-21T08:07:28Z</time>
      </trkpt>
      <trkpt lat="45.69903" lon="6.62413">
        <ele>1236.8</ele>
        <time>2023-08-21T08:07:29Z</time>
      </trkpt>
      <trkpt lat="45.69904" lon="6.62416">
        <ele>1236.8</ele>
        <time>2023-08-21T08:07:30Z</time>
      </trkpt>
      <trkpt lat="45.69904" lon="6.62419">
        <ele>1236.8</ele>
        <time>2023-08-21T08:07:31Z</time>
      </trkpt>
      <trkpt lat="45.69904" lon="6.62422">
        <ele>1237.4</ele>
        <time>2023-08-21T08:07:32Z</time>
      </trkpt>
      <trkpt lat="45.69905" lon="6.62424">
        <ele>1237.8</ele>
        <time>2023-08-21T08:07:33Z</time>
      </trkpt>
      <trkpt lat="45.69905" lon="6.62427">
        <ele>1237.8</ele>
        <time>2023-08-21T08:07:34Z</time>
      </trkpt>
      <trkpt lat="45.69905" lon="6.62431">
        <ele>1237.8</ele>
        <time>2023-08-21T08:07:35Z</time>
      </trkpt>
      <trkpt lat="45.69906" lon="6.62433">
        <ele>1237.8</ele>
        <time>2023-08-21T08:07:36Z</time>
      </trkpt>
      <trkpt lat="45.69906" lon="6.62436">
        <ele>1238.2</ele>
        <time>2023-08-21T08:07:37Z</time>
      </trkpt>
      <trkpt lat="45.69907" lon="6.62439">
        <ele>1238.2</ele>
        <time>2023-08-21T08:07:38Z</time>
      </trkpt>
      <trkpt lat="45.69907" lon="6.62442">
        <ele>1238.2</ele>
        <time>2023-08-21T08:07:39Z</time>
      </trkpt>
      <trkpt lat="45.69907" lon="6.62445">
        <ele>1238.2</ele>
        <time>2023-08-21T08:07:40Z</time>
      </trkpt>
      <trkpt lat="45.69908" lon="6.62449">
        <ele>1239</ele>
        <time>2023-08-21T08:07:41Z</time>
      </trkpt>
      <trkpt lat="45.69908" lon="6.62451">
        <ele>1239</ele>
        <time>2023-08-21T08:07:42Z</time>
      </trkpt>
      <trkpt lat="45.69909" lon="6.62455">
        <ele>1239</ele>
        <time>2023-08-21T08:07:43Z</time>
      </trkpt>
      <trkpt lat="45.69909" lon="6.62458">
        <ele>1239</ele>
        <time>2023-08-21T08:07:44Z</time>
      </trkpt>
      <trkpt lat="45.6991" lon="6.6246">
        <ele>1239.8</ele>
        <time>2023-08-21T08:07:45Z</time>
      </trkpt>
      <trkpt lat="45.69911" lon="6.62463">
        <ele>1239.8</ele>
        <time>2023-08-21T08:07:46Z</time>
      </trkpt>
      <trkpt lat="45.69912" lon="6.62466">
        <ele>1239.8</ele>
        <time>2023-08-21T08:07:47Z</time>
      </trkpt>
      <trkpt lat="45.69913" lon="6.62469">
        <ele>1239.8</ele>
        <time>2023-08-21T08:07:48Z</time>
      </trkpt>
      <trkpt lat="45.69914" lon="6.62472">
        <ele>1240.4</ele>
        <time>2023-08-21T08:07:49Z</time>
      </trkpt>
      <trkpt lat="45.69914" lon="6.62475">
        <ele>1240.4</ele>
        <time>2023-08-21T08:07:50Z</time>
      </trkpt>
      <trkpt lat="45.69915" lon="6.62477">
        <ele>1240.6</ele>
        <time>2023-08-21T08:07:51Z</time>
      </trkpt>
      <trkpt lat="45.69916" lon="6.6248">
        <ele>1240.6</ele>
        <time>2023-08-21T08:07:52Z</time>
      </trkpt>
      <trkpt lat="45.69917" lon="6.62483">
        <ele>1240.6</ele>
        <time>2023-08-21T08:07:53Z</time>
      </trkpt>
      <trkpt lat="45.69918" lon="6.62486">
        <ele>1241</ele>
        <time>2023-08-21T08:07:54Z</time>
      </trkpt>
      <trkpt lat="45.69917" lon="6.62489">
        <ele>1241.4</ele>
        <time>2023-08-21T08:07:55Z</time>
      </trkpt>
      <trkpt lat="45.69918" lon="6.62492">
        <ele>1241.4</ele>
        <time>2023-08-21T08:07:56Z</time>
      </trkpt>
      <trkpt lat="45.69918" lon="6.62495">
        <ele>1241.4</ele>
        <time>2023-08-21T08:07:57Z</time>
      </trkpt>
      <trkpt lat="45.69919" lon="6.62498">
        <ele>1241.8</ele>
        <time>2023-08-21T08:07:58Z</time>
      </trkpt>
      <trkpt lat="45.69919" lon="6.62501">
        <ele>1242</ele>
        <time>2023-08-21T08:07:59Z</time>
      </trkpt>
      <trkpt lat="45.6992" lon="6.62504">
        <ele>1242</ele>
        <time>2023-08-21T08:08:00Z</time>
      </trkpt>
      <trkpt lat="45.6992" lon="6.62507">
        <ele>1242</ele>
        <time>2023-08-21T08:08:01Z</time>
      </trkpt>
      <trkpt lat="45.69922" lon="6.6251">
        <ele>1242.6</ele>
        <time>2023-08-21T08:08:02Z</time>
      </trkpt>
      <trkpt lat="45.69923" lon="6.62513">
        <ele>1242.6</ele>
        <time>2023-08-21T08:08:03Z</time>
      </trkpt>
      <trkpt lat="45.69923" lon="6.62516">
        <ele>1242.6</ele>
        <time>2023-08-21T08:08:04Z</time>
      </trkpt>
      <trkpt lat="45.69923" lon="6.62519">
        <ele>1242.6</ele>
        <time>2023-08-21T08:08:05Z</time>
      </trkpt>
      <trkpt lat="45.69924" lon="6.62522">
        <ele>1242.6</ele>
        <time>2023-08-21T08:08:06Z</time>
      </trkpt>
      <trkpt lat="45.69924" lon="6.62525">
        <ele>1242.6</ele>
        <time>2023-08-21T08:08:07Z</time>
      </trkpt>
      <trkpt lat="45.69925" lon="6.62528">
        <ele>1243.2</ele>
        <time>2023-08-21T08:08:08Z</time>
      </trkpt>
      <trkpt lat="45.69926" lon="6.62531">
        <ele>1243.4</ele>
        <time>2023-08-21T08:08:09Z</time>
      </trkpt>
      <trkpt lat="45.69927" lon="6.62534">
        <ele>1243.4</ele>
        <time>2023-08-21T08:08:10Z</time>
      </trkpt>
      <trkpt lat="45.69928" lon="6.62537">
        <ele>1243.4</ele>
        <time>2023-08-21T08:08:11Z</time>
      </trkpt>
      <trkpt lat="45.69928" lon="6.6254">
        <ele>1244</ele>
        <time>2023-08-21T08:08:12Z</time>
      </trkpt>
      <trkpt lat="45.69929" lon="6.62542">
        <ele>1244.2</ele>
        <time>2023-08-21T08:08:13Z</time>
      </trkpt>
      <trkpt lat="45.6993" lon="6.62545">
        <ele>1244.2</ele>
        <time>2023-08-21T08:08:14Z</time>
      </trkpt>
      <trkpt lat="45.6993" lon="6.62548">
        <ele>1244.2</ele>
        <time>2023-08-21T08:08:15Z</time>
      </trkpt>
      <trkpt lat="45.69931" lon="6.62551">
        <ele>1244.2</ele>
        <time>2023-08-21T08:08:16Z</time>
      </trkpt>
      <trkpt lat="45.69931" lon="6.62554">
        <ele>1244.8</ele>
        <time>2023-08-21T08:08:17Z</time>
      </trkpt>
      <trkpt lat="45.69931" lon="6.62557">
        <ele>1244.8</ele>
        <time>2023-08-21T08:08:18Z</time>
      </trkpt>
      <trkpt lat="45.69932" lon="6.6256">
        <ele>1244.8</ele>
        <time>2023-08-21T08:08:19Z</time>
      </trkpt>
      <trkpt lat="45.69932" lon="6.62563">
        <ele>1244.8</ele>
        <time>2023-08-21T08:08:20Z</time>
      </trkpt>
      <trkpt lat="45.69933" lon="6.62565">
        <ele>1244.8</ele>
        <time>2023-08-21T08:08:21Z</time>
      </trkpt>
      <trkpt lat="45.69934" lon="6.62568">
        <ele>1245.6</ele>
        <time>2023-08-21T08:08:22Z</time>
      </trkpt>
      <trkpt lat="45.69934" lon="6.62571">
        <ele>1245.6</ele>
        <time>2023-08-21T08:08:23Z</time>
      </trkpt>
      <trkpt lat="45.69934" lon="6.62575">
        <ele>1245.6</ele>
        <time>2023-08-21T08:08:24Z</time>
      </trkpt>
      <trkpt lat="45.69935" lon="6.62578">
        <ele>1246.2</ele>
        <time>2023-08-21T08:08:25Z</time>
      </trkpt>
      <trkpt lat="45.69936" lon="6.62581">
        <ele>1246.2</ele>
        <time>2023-08-21T08:08:26Z</time>
      </trkpt>
      <trkpt lat="45.69936" lon="6.62584">
        <ele>1246.2</ele>
        <time>2023-08-21T08:08:27Z</time>
      </trkpt>
      <trkpt lat="45.69937" lon="6.62587">
        <ele>1246.2</ele>
        <time>2023-08-21T08:08:28Z</time>
      </trkpt>
      <trkpt lat="45.69938" lon="6.6259">
        <ele>1246.2</ele>
        <time>2023-08-21T08:08:29Z</time>
      </trkpt>
      <trkpt lat="45.69939" lon="6.62592">
        <ele>1246.8</ele>
        <time>2023-08-21T08:08:30Z</time>
      </trkpt>
      <trkpt lat="45.6994" lon="6.62595">
        <ele>1247</ele>
        <time>2023-08-21T08:08:31Z</time>
      </trkpt>
      <trkpt lat="45.69941" lon="6.62598">
        <ele>1247</ele>
        <time>2023-08-21T08:08:32Z</time>
      </trkpt>
      <trkpt lat="45.69942" lon="6.626">
        <ele>1247</ele>
        <time>2023-08-21T08:08:33Z</time>
      </trkpt>
      <trkpt lat="45.69943" lon="6.62603">
        <ele>1247</ele>
        <time>2023-08-21T08:08:34Z</time>
      </trkpt>
      <trkpt lat="45.69945" lon="6.62606">
        <ele>1247.8</ele>
        <time>2023-08-21T08:08:35Z</time>
      </trkpt>
      <trkpt lat="45.69946" lon="6.62608">
        <ele>1247.8</ele>
        <time>2023-08-21T08:08:36Z</time>
      </trkpt>
      <trkpt lat="45.69947" lon="6.62611">
        <ele>1247.8</ele>
        <time>2023-08-21T08:08:37Z</time>
      </trkpt>
      <trkpt lat="45.69948" lon="6.62614">
        <ele>1248.2</ele>
        <time>2023-08-21T08:08:38Z</time>
      </trkpt>
      <trkpt lat="45.6995" lon="6.62616">
        <ele>1248.4</ele>
        <time>2023-08-21T08:08:39Z</time>
      </trkpt>
      <trkpt lat="45.69951" lon="6.62619">
        <ele>1248.4</ele>
        <time>2023-08-21T08:08:40Z</time>
      </trkpt>
      <trkpt lat="45.69953" lon="6.62621">
        <ele>1248.4</ele>
        <time>2023-08-21T08:08:41Z</time>
      </trkpt>
      <trkpt lat="45.69955" lon="6.62624">
        <ele>1248.4</ele>
        <time>2023-08-21T08:08:42Z</time>
      </trkpt>
      <trkpt lat="45.69956" lon="6.62626">
        <ele>1249</ele>
        <time>2023-08-21T08:08:43Z</time>
      </trkpt>
      <trkpt lat="45.69957" lon="6.62629">
        <ele>1249.2</ele>
        <time>2023-08-21T08:08:44Z</time>
      </trkpt>
      <trkpt lat="45.69959" lon="6.62631">
        <ele>1249.2</ele>
        <time>2023-08-21T08:08:45Z</time>
      </trkpt>
      <trkpt lat="45.69961" lon="6.62633">
        <ele>1249.2</ele>
        <time>2023-08-21T08:08:46Z</time>
      </trkpt>
      <trkpt lat="45.69963" lon="6.62635">
        <ele>1249.8</ele>
        <time>2023-08-21T08:08:47Z</time>
      </trkpt>
      <trkpt lat="45.69964" lon="6.62638">
        <ele>1250</ele>
        <time>2023-08-21T08:08:48Z</time>
      </trkpt>
      <trkpt lat="45.69965" lon="6.6264">
        <ele>1250</ele>
        <time>2023-08-21T08:08:49Z</time>
      </trkpt>
      <trkpt lat="45.69967" lon="6.62642">
        <ele>1250</ele>
        <time>2023-08-21T08:08:50Z</time>
      </trkpt>
      <trkpt lat="45.69968" lon="6.62644">
        <ele>1250</ele>
        <time>2023-08-21T08:08:51Z</time>
      </trkpt>
      <trkpt lat="45.69969" lon="6.62647">
        <ele>1250.6</ele>
        <time>2023-08-21T08:08:52Z</time>
      </trkpt>
      <trkpt lat="45.6997" lon="6.62649">
        <ele>1250.6</ele>
        <time>2023-08-21T08:08:53Z</time>
      </trkpt>
      <trkpt lat="45.69972" lon="6.62651">
        <ele>1250.6</ele>
        <time>2023-08-21T08:08:54Z</time>
      </trkpt>
      <trkpt lat="45.69974" lon="6.62653">
        <ele>1250.6</ele>
        <time>2023-08-21T08:08:55Z</time>
      </trkpt>
      <trkpt lat="45.69976" lon="6.62655">
        <ele>1250.6</ele>
        <time>2023-08-21T08:08:56Z</time>
      </trkpt>
      <trkpt lat="45.69977" lon="6.62657">
        <ele>1251.2</ele>
        <time>2023-08-21T08:08:57Z</time>
      </trkpt>
      <trkpt lat="45.69979" lon="6.62659">
        <ele>1251.6</ele>
        <time>2023-08-21T08:08:58Z</time>
      </trkpt>
      <trkpt lat="45.69981" lon="6.62661">
        <ele>1251.6</ele>
        <time>2023-08-21T08:08:59Z</time>
      </trkpt>
      <trkpt lat="45.69982" lon="6.62664">
        <ele>1251.6</ele>
        <time>2023-08-21T08:09:00Z</time>
      </trkpt>
      <trkpt lat="45.69984" lon="6.62666">
        <ele>1252.2</ele>
        <time>2023-08-21T08:09:01Z</time>
      </trkpt>
      <trkpt lat="45.69985" lon="6.62668">
        <ele>1252.4</ele>
        <time>2023-08-21T08:09:02Z</time>
      </trkpt>
      <trkpt lat="45.69987" lon="6.6267">
        <ele>1252.4</ele>
        <time>2023-08-21T08:09:03Z</time>
      </trkpt>
      <trkpt lat="45.69988" lon="6.62672">
        <ele>1252.4</ele>
        <time>2023-08-21T08:09:04Z</time>
      </trkpt>
      <trkpt lat="45.6999" lon="6.62674">
        <ele>1252.8</ele>
        <time>2023-08-21T08:09:05Z</time>
      </trkpt>
      <trkpt lat="45.69991" lon="6.62676">
        <ele>1253</ele>
        <time>2023-08-21T08:09:06Z</time>
      </trkpt>
      <trkpt lat="45.69993" lon="6.62678">
        <ele>1253</ele>
        <time>2023-08-21T08:09:07Z</time>
      </trkpt>
      <trkpt lat="45.69994" lon="6.6268">
        <ele>1253</ele>
        <time>2023-08-21T08:09:08Z</time>
      </trkpt>
      <trkpt lat="45.69995" lon="6.62682">
        <ele>1253</ele>
        <time>2023-08-21T08:09:09Z</time>
      </trkpt>
      <trkpt lat="45.69997" lon="6.62684">
        <ele>1253.8</ele>
        <time>2023-08-21T08:09:10Z</time>
      </trkpt>
      <trkpt lat="45.69998" lon="6.62686">
        <ele>1253.8</ele>
        <time>2023-08-21T08:09:11Z</time>
      </trkpt>
      <trkpt lat="45.69999" lon="6.62688">
        <ele>1253.8</ele>
        <time>2023-08-21T08:09:12Z</time>
      </trkpt>
      <trkpt lat="45.70001" lon="6.6269">
        <ele>1253.8</ele>
        <time>2023-08-21T08:09:13Z</time>
      </trkpt>
      <trkpt lat="45.70003" lon="6.62692">
        <ele>1254.4</ele>
        <time>2023-08-21T08:09:14Z</time>
      </trkpt>
      <trkpt lat="45.70005" lon="6.62695">
        <ele>1254.6</ele>
        <time>2023-08-21T08:09:15Z</time>
      </trkpt>
      <trkpt lat="45.70007" lon="6.62697">
        <ele>1254.6</ele>
        <time>2023-08-21T08:09:16Z</time>
      </trkpt>
      <trkpt lat="45.70008" lon="6.627">
        <ele>1254.6</ele>
        <time>2023-08-21T08:09:17Z</time>
      </trkpt>
      <trkpt lat="45.7001" lon="6.62701">
        <ele>1254.6</ele>
        <time>2023-08-21T08:09:18Z</time>
      </trkpt>
      <trkpt lat="45.70012" lon="6.62703">
        <ele>1255.2</ele>
        <time>2023-08-21T08:09:19Z</time>
      </trkpt>
      <trkpt lat="45.70014" lon="6.62704">
        <ele>1255.4</ele>
        <time>2023-08-21T08:09:20Z</time>
      </trkpt>
      <trkpt lat="45.70016" lon="6.62706">
        <ele>1255.4</ele>
        <time>2023-08-21T08:09:21Z</time>
      </trkpt>
      <trkpt lat="45.70017" lon="6.62708">
        <ele>1255.4</ele>
        <time>2023-08-21T08:09:22Z</time>
      </trkpt>
      <trkpt lat="45.7002" lon="6.62709">
        <ele>1255.8</ele>
        <time>2023-08-21T08:09:23Z</time>
      </trkpt>
      <trkpt lat="45.70022" lon="6.62711">
        <ele>1256</ele>
        <time>2023-08-21T08:09:24Z</time>
      </trkpt>
      <trkpt lat="45.70023" lon="6.62713">
        <ele>1256</ele>
        <time>2023-08-21T08:09:25Z</time>
      </trkpt>
      <trkpt lat="45.70024" lon="6.62715">
        <ele>1256</ele>
        <time>2023-08-21T08:09:26Z</time>
      </trkpt>
      <trkpt lat="45.70026" lon="6.62717">
        <ele>1256.8</ele>
        <time>2023-08-21T08:09:27Z</time>
      </trkpt>
      <trkpt lat="45.70027" lon="6.62719">
        <ele>1257</ele>
        <time>2023-08-21T08:09:28Z</time>
      </trkpt>
      <trkpt lat="45.70029" lon="6.62721">
        <ele>1257</ele>
        <time>2023-08-21T08:09:29Z</time>
      </trkpt>
      <trkpt lat="45.7003" lon="6.62723">
        <ele>1257</ele>
        <time>2023-08-21T08:09:30Z</time>
      </trkpt>
      <trkpt lat="45.70032" lon="6.62724">
        <ele>1257</ele>
        <time>2023-08-21T08:09:31Z</time>
      </trkpt>
      <trkpt lat="45.70034" lon="6.62726">
        <ele>1257.4</ele>
        <time>2023-08-21T08:09:32Z</time>
      </trkpt>
      <trkpt lat="45.70036" lon="6.62728">
        <ele>1257.4</ele>
        <time>2023-08-21T08:09:33Z</time>
      </trkpt>
      <trkpt lat="45.70037" lon="6.6273">
        <ele>1257.4</ele>
        <time>2023-08-21T08:09:34Z</time>
      </trkpt>
      <trkpt lat="45.70039" lon="6.62732">
        <ele>1257.4</ele>
        <time>2023-08-21T08:09:35Z</time>
      </trkpt>
      <trkpt lat="45.70041" lon="6.62735">
        <ele>1257.4</ele>
        <time>2023-08-21T08:09:36Z</time>
      </trkpt>
      <trkpt lat="45.70043" lon="6.62737">
        <ele>1257.4</ele>
        <time>2023-08-21T08:09:37Z</time>
      </trkpt>
      <trkpt lat="45.70044" lon="6.62739">
        <ele>1258.6</ele>
        <time>2023-08-21T08:09:38Z</time>
      </trkpt>
      <trkpt lat="45.70046" lon="6.62741">
        <ele>1258.6</ele>
        <time>2023-08-21T08:09:39Z</time>
      </trkpt>
      <trkpt lat="45.70048" lon="6.62742">
        <ele>1258.6</ele>
        <time>2023-08-21T08:09:40Z</time>
      </trkpt>
      <trkpt lat="45.7005" lon="6.62743">
        <ele>1258.6</ele>
        <time>2023-08-21T08:09:41Z</time>
      </trkpt>
      <trkpt lat="45.70052" lon="6.62745">
        <ele>1259</ele>
        <time>2023-08-21T08:09:42Z</time>
      </trkpt>
      <trkpt lat="45.70054" lon="6.62747">
        <ele>1259</ele>
        <time>2023-08-21T08:09:43Z</time>
      </trkpt>
      <trkpt lat="45.70055" lon="6.62748">
        <ele>1259</ele>
        <time>2023-08-21T08:09:44Z</time>
      </trkpt>
      <trkpt lat="45.70057" lon="6.6275">
        <ele>1259</ele>
        <time>2023-08-21T08:09:45Z</time>
      </trkpt>
      <trkpt lat="45.70058" lon="6.62752">
        <ele>1259.6</ele>
        <time>2023-08-21T08:09:46Z</time>
      </trkpt>
      <trkpt lat="45.7006" lon="6.62754">
        <ele>1259.6</ele>
        <time>2023-08-21T08:09:47Z</time>
      </trkpt>
      <trkpt lat="45.70061" lon="6.62756">
        <ele>1259.6</ele>
        <time>2023-08-21T08:09:48Z</time>
      </trkpt>
      <trkpt lat="45.70063" lon="6.62758">
        <ele>1259.6</ele>
        <time>2023-08-21T08:09:49Z</time>
      </trkpt>
      <trkpt lat="45.70064" lon="6.62761">
        <ele>1260.2</ele>
        <time>2023-08-21T08:09:50Z</time>
      </trkpt>
      <trkpt lat="45.70065" lon="6.62763">
        <ele>1260.6</ele>
        <time>2023-08-21T08:09:51Z</time>
      </trkpt>
      <trkpt lat="45.70067" lon="6.62765">
        <ele>1260.6</ele>
        <time>2023-08-21T08:09:52Z</time>
      </trkpt>
      <trkpt lat="45.70068" lon="6.62768">
        <ele>1260.6</ele>
        <time>2023-08-21T08:09:53Z</time>
      </trkpt>
      <trkpt lat="45.7007" lon="6.62771">
        <ele>1260.8</ele>
        <time>2023-08-21T08:09:54Z</time>
      </trkpt>
      <trkpt lat="45.70071" lon="6.62773">
        <ele>1261</ele>
        <time>2023-08-21T08:09:55Z</time>
      </trkpt>
      <trkpt lat="45.70073" lon="6.62775">
        <ele>1261</ele>
        <time>2023-08-21T08:09:56Z</time>
      </trkpt>
      <trkpt lat="45.70075" lon="6.62778">
        <ele>1261</ele>
        <time>2023-08-21T08:09:57Z</time>
      </trkpt>
      <trkpt lat="45.70076" lon="6.6278">
        <ele>1261</ele>
        <time>2023-08-21T08:09:58Z</time>
      </trkpt>
      <trkpt lat="45.70077" lon="6.62783">
        <ele>1261.6</ele>
        <time>2023-08-21T08:09:59Z</time>
      </trkpt>
      <trkpt lat="45.70078" lon="6.62785">
        <ele>1261.6</ele>
        <time>2023-08-21T08:10:00Z</time>
      </trkpt>
      <trkpt lat="45.70079" lon="6.62788">
        <ele>1261.6</ele>
        <time>2023-08-21T08:10:01Z</time>
      </trkpt>
      <trkpt lat="45.70081" lon="6.6279">
        <ele>1261.6</ele>
        <time>2023-08-21T08:10:02Z</time>
      </trkpt>
      <trkpt lat="45.70083" lon="6.62793">
        <ele>1261.6</ele>
        <time>2023-08-21T08:10:03Z</time>
      </trkpt>
      <trkpt lat="45.70084" lon="6.62795">
        <ele>1262.6</ele>
        <time>2023-08-21T08:10:04Z</time>
      </trkpt>
      <trkpt lat="45.70085" lon="6.62798">
        <ele>1262.6</ele>
        <time>2023-08-21T08:10:05Z</time>
      </trkpt>
      <trkpt lat="45.70087" lon="6.628">
        <ele>1262.6</ele>
        <time>2023-08-21T08:10:06Z</time>
      </trkpt>
      <trkpt lat="45.70088" lon="6.62803">
        <ele>1263.2</ele>
        <time>2023-08-21T08:10:07Z</time>
      </trkpt>
      <trkpt lat="45.7009" lon="6.62806">
        <ele>1263.2</ele>
        <time>2023-08-21T08:10:08Z</time>
      </trkpt>
      <trkpt lat="45.70091" lon="6.62808">
        <ele>1263.2</ele>
        <time>2023-08-21T08:10:09Z</time>
      </trkpt>
      <trkpt lat="45.70093" lon="6.6281">
        <ele>1263.2</ele>
        <time>2023-08-21T08:10:10Z</time>
      </trkpt>
      <trkpt lat="45.70094" lon="6.62812">
        <ele>1263.2</ele>
        <time>2023-08-21T08:10:11Z</time>
      </trkpt>
      <trkpt lat="45.70096" lon="6.62814">
        <ele>1264</ele>
        <time>2023-08-21T08:10:12Z</time>
      </trkpt>
      <trkpt lat="45.70098" lon="6.62816">
        <ele>1264</ele>
        <time>2023-08-21T08:10:13Z</time>
      </trkpt>
      <trkpt lat="45.701" lon="6.62818">
        <ele>1264.2</ele>
        <time>2023-08-21T08:10:14Z</time>
      </trkpt>
      <trkpt lat="45.70101" lon="6.6282">
        <ele>1264.2</ele>
        <time>2023-08-21T08:10:15Z</time>
      </trkpt>
      <trkpt lat="45.70103" lon="6.62821">
        <ele>1264.2</ele>
        <time>2023-08-21T08:10:16Z</time>
      </trkpt>
      <trkpt lat="45.70104" lon="6.62823">
        <ele>1264.8</ele>
        <time>2023-08-21T08:10:17Z</time>
      </trkpt>
      <trkpt lat="45.70106" lon="6.62825">
        <ele>1264.8</ele>
        <time>2023-08-21T08:10:18Z</time>
      </trkpt>
      <trkpt lat="45.70108" lon="6.62827">
        <ele>1264.8</ele>
        <time>2023-08-21T08:10:19Z</time>
      </trkpt>
      <trkpt lat="45.7011" lon="6.62828">
        <ele>1264.8</ele>
        <time>2023-08-21T08:10:20Z</time>
      </trkpt>
      <trkpt lat="45.70112" lon="6.6283">
        <ele>1264.8</ele>
        <time>2023-08-21T08:10:21Z</time>
      </trkpt>
      <trkpt lat="45.70114" lon="6.62831">
        <ele>1265.6</ele>
        <time>2023-08-21T08:10:22Z</time>
      </trkpt>
      <trkpt lat="45.70115" lon="6.62833">
        <ele>1265.8</ele>
        <time>2023-08-21T08:10:23Z</time>
      </trkpt>
      <trkpt lat="45.70117" lon="6.62834">
        <ele>1265.8</ele>
        <time>2023-08-21T08:10:24Z</time>
      </trkpt>
      <trkpt lat="45.70119" lon="6.62836">
        <ele>1265.8</ele>
        <time>2023-08-21T08:10:25Z</time>
      </trkpt>
      <trkpt lat="45.70121" lon="6.62837">
        <ele>1266.4</ele>
        <time>2023-08-21T08:10:26Z</time>
      </trkpt>
      <trkpt lat="45.70122" lon="6.62838">
        <ele>1266.8</ele>
        <time>2023-08-21T08:10:27Z</time>
      </trkpt>
      <trkpt lat="45.70124" lon="6.62838">
        <ele>1266.8</ele>
        <time>2023-08-21T08:10:28Z</time>
      </trkpt>
      <trkpt lat="45.70126" lon="6.62839">
        <ele>1266.8</ele>
        <time>2023-08-21T08:10:29Z</time>
      </trkpt>
      <trkpt lat="45.70129" lon="6.6284">
        <ele>1266.8</ele>
        <time>2023-08-21T08:10:30Z</time>
      </trkpt>
      <trkpt lat="45.70131" lon="6.6284">
        <ele>1266.8</ele>
        <time>2023-08-21T08:10:31Z</time>
      </trkpt>
      <trkpt lat="45.70133" lon="6.62841">
        <ele>1267.4</ele>
        <time>2023-08-21T08:10:32Z</time>
      </trkpt>
      <trkpt lat="45.70135" lon="6.62841">
        <ele>1267.4</ele>
        <time>2023-08-21T08:10:33Z</time>
      </trkpt>
      <trkpt lat="45.70137" lon="6.62841">
        <ele>1267.4</ele>
        <time>2023-08-21T08:10:34Z</time>
      </trkpt>
      <trkpt lat="45.70139" lon="6.62842">
        <ele>1268</ele>
        <time>2023-08-21T08:10:35Z</time>
      </trkpt>
      <trkpt lat="45.70141" lon="6.62843">
        <ele>1268.2</ele>
        <time>2023-08-21T08:10:36Z</time>
      </trkpt>
      <trkpt lat="45.70143" lon="6.62843">
        <ele>1268.2</ele>
        <time>2023-08-21T08:10:37Z</time>
      </trkpt>
      <trkpt lat="45.70145" lon="6.62844">
        <ele>1268.2</ele>
        <time>2023-08-21T08:10:38Z</time>
      </trkpt>
      <trkpt lat="45.70147" lon="6.62844">
        <ele>1268.8</ele>
        <time>2023-08-21T08:10:39Z</time>
      </trkpt>
      <trkpt lat="45.70148" lon="6.62845">
        <ele>1268.8</ele>
        <time>2023-08-21T08:10:40Z</time>
      </trkpt>
      <trkpt lat="45.7015" lon="6.62846">
        <ele>1268.8</ele>
        <time>2023-08-21T08:10:41Z</time>
      </trkpt>
      <trkpt lat="45.70152" lon="6.62847">
        <ele>1268.8</ele>
        <time>2023-08-21T08:10:42Z</time>
      </trkpt>
      <trkpt lat="45.70154" lon="6.62849">
        <ele>1268.8</ele>
        <time>2023-08-21T08:10:43Z</time>
      </trkpt>
      <trkpt lat="45.70156" lon="6.62851">
        <ele>1269.6</ele>
        <time>2023-08-21T08:10:44Z</time>
      </trkpt>
      <trkpt lat="45.70159" lon="6.62853">
        <ele>1270</ele>
        <time>2023-08-21T08:10:45Z</time>
      </trkpt>
      <trkpt lat="45.70161" lon="6.62854">
        <ele>1270</ele>
        <time>2023-08-21T08:10:46Z</time>
      </trkpt>
      <trkpt lat="45.70163" lon="6.62855">
        <ele>1270</ele>
        <time>2023-08-21T08:10:47Z</time>
      </trkpt>
      <trkpt lat="45.70165" lon="6.62856">
        <ele>1270.8</ele>
        <time>2023-08-21T08:10:48Z</time>
      </trkpt>
      <trkpt lat="45.70166" lon="6.62858">
        <ele>1271</ele>
        <time>2023-08-21T08:10:49Z</time>
      </trkpt>
      <trkpt lat="45.70168" lon="6.6286">
        <ele>1271</ele>
        <time>2023-08-21T08:10:50Z</time>
      </trkpt>
      <trkpt lat="45.7017" lon="6.62862">
        <ele>1271</ele>
        <time>2023-08-21T08:10:51Z</time>
      </trkpt>
      <trkpt lat="45.70171" lon="6.62864">
        <ele>1271</ele>
        <time>2023-08-21T08:10:52Z</time>
      </trkpt>
      <trkpt lat="45.70173" lon="6.62866">
        <ele>1271</ele>
        <time>2023-08-21T08:10:53Z</time>
      </trkpt>
      <trkpt lat="45.70175" lon="6.62868">
        <ele>1271.4</ele>
        <time>2023-08-21T08:10:54Z</time>
      </trkpt>
      <trkpt lat="45.70177" lon="6.6287">
        <ele>1271.4</ele>
        <time>2023-08-21T08:10:55Z</time>
      </trkpt>
      <trkpt lat="45.70178" lon="6.62871">
        <ele>1271.4</ele>
        <time>2023-08-21T08:10:56Z</time>
      </trkpt>
      <trkpt lat="45.7018" lon="6.62873">
        <ele>1271.4</ele>
        <time>2023-08-21T08:10:57Z</time>
      </trkpt>
      <trkpt lat="45.70182" lon="6.62874">
        <ele>1271.4</ele>
        <time>2023-08-21T08:10:58Z</time>
      </trkpt>
      <trkpt lat="45.70184" lon="6.62875">
        <ele>1272.2</ele>
        <time>2023-08-21T08:10:59Z</time>
      </trkpt>
      <trkpt lat="45.70186" lon="6.62876">
        <ele>1272.2</ele>
        <time>2023-08-21T08:11:00Z</time>
      </trkpt>
      <trkpt lat="45.70188" lon="6.62878">
        <ele>1272.2</ele>
        <time>2023-08-21T08:11:01Z</time>
      </trkpt>
      <trkpt lat="45.70189" lon="6.62879">
        <ele>1272.2</ele>
        <time>2023-08-21T08:11:02Z</time>
      </trkpt>
      <trkpt lat="45.70191" lon="6.62881">
        <ele>1273</ele>
        <time>2023-08-21T08:11:03Z</time>
      </trkpt>
      <trkpt lat="45.70193" lon="6.62882">
        <ele>1273</ele>
        <time>2023-08-21T08:11:04Z</time>
      </trkpt>
      <trkpt lat="45.70195" lon="6.62884">
        <ele>1273</ele>
        <time>2023-08-21T08:11:05Z</time>
      </trkpt>
      <trkpt lat="45.70197" lon="6.62886">
        <ele>1273</ele>
        <time>2023-08-21T08:11:06Z</time>
      </trkpt>
      <trkpt lat="45.70199" lon="6.62887">
        <ele>1273.6</ele>
        <time>2023-08-21T08:11:07Z</time>
      </trkpt>
      <trkpt lat="45.70201" lon="6.62889">
        <ele>1273.8</ele>
        <time>2023-08-21T08:11:08Z</time>
      </trkpt>
      <trkpt lat="45.70203" lon="6.6289">
        <ele>1273.8</ele>
        <time>2023-08-21T08:11:09Z</time>
      </trkpt>
      <trkpt lat="45.70205" lon="6.62891">
        <ele>1273.8</ele>
        <time>2023-08-21T08:11:10Z</time>
      </trkpt>
      <trkpt lat="45.70207" lon="6.62893">
        <ele>1274.4</ele>
        <time>2023-08-21T08:11:11Z</time>
      </trkpt>
      <trkpt lat="45.70208" lon="6.62895">
        <ele>1274.6</ele>
        <time>2023-08-21T08:11:12Z</time>
      </trkpt>
      <trkpt lat="45.70211" lon="6.62896">
        <ele>1274.6</ele>
        <time>2023-08-21T08:11:13Z</time>
      </trkpt>
      <trkpt lat="45.70213" lon="6.62898">
        <ele>1274.6</ele>
        <time>2023-08-21T08:11:14Z</time>
      </trkpt>
      <trkpt lat="45.70215" lon="6.629">
        <ele>1274.6</ele>
        <time>2023-08-21T08:11:15Z</time>
      </trkpt>
      <trkpt lat="45.70217" lon="6.62901">
        <ele>1275.2</ele>
        <time>2023-08-21T08:11:16Z</time>
      </trkpt>
      <trkpt lat="45.7022" lon="6.62903">
        <ele>1275.4</ele>
        <time>2023-08-21T08:11:17Z</time>
      </trkpt>
      <trkpt lat="45.70221" lon="6.62905">
        <ele>1275.4</ele>
        <time>2023-08-21T08:11:18Z</time>
      </trkpt>
      <trkpt lat="45.70223" lon="6.62907">
        <ele>1275.4</ele>
        <time>2023-08-21T08:11:19Z</time>
      </trkpt>
      <trkpt lat="45.70224" lon="6.62908">
        <ele>1276</ele>
        <time>2023-08-21T08:11:20Z</time>
      </trkpt>
      <trkpt lat="45.70226" lon="6.6291">
        <ele>1276.2</ele>
        <time>2023-08-21T08:11:21Z</time>
      </trkpt>
      <trkpt lat="45.70227" lon="6.62912">
        <ele>1276.2</ele>
        <time>2023-08-21T08:11:22Z</time>
      </trkpt>
      <trkpt lat="45.70229" lon="6.62913">
        <ele>1276.2</ele>
        <time>2023-08-21T08:11:23Z</time>
      </trkpt>
      <trkpt lat="45.7023" lon="6.62914">
        <ele>1276.8</ele>
        <time>2023-08-21T08:11:24Z</time>
      </trkpt>
      <trkpt lat="45.70232" lon="6.62915">
        <ele>1277</ele>
        <time>2023-08-21T08:11:25Z</time>
      </trkpt>
      <trkpt lat="45.70234" lon="6.62917">
        <ele>1277</ele>
        <time>2023-08-21T08:11:26Z</time>
      </trkpt>
      <trkpt lat="45.70236" lon="6.62918">
        <ele>1277</ele>
        <time>2023-08-21T08:11:27Z</time>
      </trkpt>
      <trkpt lat="45.70238" lon="6.6292">
        <ele>1277.4</ele>
        <time>2023-08-21T08:11:28Z</time>
      </trkpt>
      <trkpt lat="45.7024" lon="6.62921">
        <ele>1277.4</ele>
        <time>2023-08-21T08:11:29Z</time>
      </trkpt>
      <trkpt lat="45.70243" lon="6.62922">
        <ele>1277.6</ele>
        <time>2023-08-21T08:11:30Z</time>
      </trkpt>
      <trkpt lat="45.70245" lon="6.62924">
        <ele>1277.6</ele>
        <time>2023-08-21T08:11:31Z</time>
      </trkpt>
      <trkpt lat="45.70247" lon="6.62926">
        <ele>1277.6</ele>
        <time>2023-08-21T08:11:32Z</time>
      </trkpt>
      <trkpt lat="45.70248" lon="6.62927">
        <ele>1278.2</ele>
        <time>2023-08-21T08:11:33Z</time>
      </trkpt>
      <trkpt lat="45.7025" lon="6.62928">
        <ele>1278.4</ele>
        <time>2023-08-21T08:11:34Z</time>
      </trkpt>
      <trkpt lat="45.70252" lon="6.6293">
        <ele>1278.4</ele>
        <time>2023-08-21T08:11:35Z</time>
      </trkpt>
      <trkpt lat="45.70254" lon="6.62931">
        <ele>1278.4</ele>
        <time>2023-08-21T08:11:36Z</time>
      </trkpt>
      <trkpt lat="45.70257" lon="6.62932">
        <ele>1278.4</ele>
        <time>2023-08-21T08:11:37Z</time>
      </trkpt>
      <trkpt lat="45.70259" lon="6.62934">
        <ele>1279.2</ele>
        <time>2023-08-21T08:11:38Z</time>
      </trkpt>
      <trkpt lat="45.7026" lon="6.62935">
        <ele>1279.2</ele>
        <time>2023-08-21T08:11:39Z</time>
      </trkpt>
      <trkpt lat="45.70262" lon="6.62937">
        <ele>1279.2</ele>
        <time>2023-08-21T08:11:40Z</time>
      </trkpt>
      <trkpt lat="45.70264" lon="6.62938">
        <ele>1279.2</ele>
        <time>2023-08-21T08:11:41Z</time>
      </trkpt>
      <trkpt lat="45.70265" lon="6.6294">
        <ele>1279.2</ele>
        <time>2023-08-21T08:11:42Z</time>
      </trkpt>
      <trkpt lat="45.70267" lon="6.62942">
        <ele>1279.8</ele>
        <time>2023-08-21T08:11:43Z</time>
      </trkpt>
      <trkpt lat="45.70269" lon="6.62943">
        <ele>1280</ele>
        <time>2023-08-21T08:11:44Z</time>
      </trkpt>
      <trkpt lat="45.70271" lon="6.62945">
        <ele>1280</ele>
        <time>2023-08-21T08:11:45Z</time>
      </trkpt>
      <trkpt lat="45.70273" lon="6.62946">
        <ele>1280</ele>
        <time>2023-08-21T08:11:46Z</time>
      </trkpt>
      <trkpt lat="45.70275" lon="6.62947">
        <ele>1280.6</ele>
        <time>2023-08-21T08:11:47Z</time>
      </trkpt>
      <trkpt lat="45.70277" lon="6.62948">
        <ele>1280.8</ele>
        <time>2023-08-21T08:11:48Z</time>
      </trkpt>
      <trkpt lat="45.70279" lon="6.62949">
        <ele>1280.8</ele>
        <time>2023-08-21T08:11:49Z</time>
      </trkpt>
      <trkpt lat="45.70282" lon="6.6295">
        <ele>1280.8</ele>
        <time>2023-08-21T08:11:50Z</time>
      </trkpt>
      <trkpt lat="45.70284" lon="6.62951">
        <ele>1280.8</ele>
        <time>2023-08-21T08:11:51Z</time>
      </trkpt>
      <trkpt lat="45.70286" lon="6.62952">
        <ele>1281.6</ele>
        <time>2023-08-21T08:11:52Z</time>
      </trkpt>
      <trkpt lat="45.70288" lon="6.62953">
        <ele>1281.6</ele>
        <time>2023-08-21T08:11:53Z</time>
      </trkpt>
      <trkpt lat="45.70289" lon="6.62953">
        <ele>1281.6</ele>
        <time>2023-08-21T08:11:54Z</time>
      </trkpt>
      <trkpt lat="45.70291" lon="6.62953">
        <ele>1281.6</ele>
        <time>2023-08-21T08:11:55Z</time>
      </trkpt>
      <trkpt lat="45.70293" lon="6.62954">
        <ele>1282.2</ele>
        <time>2023-08-21T08:11:56Z</time>
      </trkpt>
      <trkpt lat="45.70294" lon="6.62955">
        <ele>1282.4</ele>
        <time>2023-08-21T08:11:57Z</time>
      </trkpt>
      <trkpt lat="45.70296" lon="6.62956">
        <ele>1282.4</ele>
        <time>2023-08-21T08:11:58Z</time>
      </trkpt>
      <trkpt lat="45.70297" lon="6.62956">
        <ele>1282.4</ele>
        <time>2023-08-21T08:11:59Z</time>
      </trkpt>
      <trkpt lat="45.703" lon="6.62956">
        <ele>1282.4</ele>
        <time>2023-08-21T08:12:00Z</time>
      </trkpt>
      <trkpt lat="45.70302" lon="6.62957">
        <ele>1283.2</ele>
        <time>2023-08-21T08:12:01Z</time>
      </trkpt>
      <trkpt lat="45.70304" lon="6.62957">
        <ele>1283.2</ele>
        <time>2023-08-21T08:12:02Z</time>
      </trkpt>
      <trkpt lat="45.70306" lon="6.62957">
        <ele>1283.2</ele>
        <time>2023-08-21T08:12:03Z</time>
      </trkpt>
      <trkpt lat="45.70308" lon="6.62958">
        <ele>1283.6</ele>
        <time>2023-08-21T08:12:04Z</time>
      </trkpt>
      <trkpt lat="45.70311" lon="6.62958">
        <ele>1283.6</ele>
        <time>2023-08-21T08:12:05Z</time>
      </trkpt>
      <trkpt lat="45.70313" lon="6.62958">
        <ele>1284</ele>
        <time>2023-08-21T08:12:06Z</time>
      </trkpt>
      <trkpt lat="45.70316" lon="6.62958">
        <ele>1284</ele>
        <time>2023-08-21T08:12:07Z</time>
      </trkpt>
      <trkpt lat="45.70318" lon="6.62957">
        <ele>1284</ele>
        <time>2023-08-21T08:12:08Z</time>
      </trkpt>
      <trkpt lat="45.7032" lon="6.62957">
        <ele>1284.6</ele>
        <time>2023-08-21T08:12:09Z</time>
      </trkpt>
      <trkpt lat="45.70323" lon="6.62957">
        <ele>1284.8</ele>
        <time>2023-08-21T08:12:10Z</time>
      </trkpt>
      <trkpt lat="45.70325" lon="6.62957">
        <ele>1284.8</ele>
        <time>2023-08-21T08:12:11Z</time>
      </trkpt>
      <trkpt lat="45.70327" lon="6.62957">
        <ele>1284.8</ele>
        <time>2023-08-21T08:12:12Z</time>
      </trkpt>
      <trkpt lat="45.7033" lon="6.62956">
        <ele>1285.4</ele>
        <time>2023-08-21T08:12:13Z</time>
      </trkpt>
      <trkpt lat="45.70333" lon="6.62956">
        <ele>1285.6</ele>
        <time>2023-08-21T08:12:14Z</time>
      </trkpt>
      <trkpt lat="45.70335" lon="6.62957">
        <ele>1285.6</ele>
        <time>2023-08-21T08:12:15Z</time>
      </trkpt>
      <trkpt lat="45.70338" lon="6.62957">
        <ele>1285.6</ele>
        <time>2023-08-21T08:12:16Z</time>
      </trkpt>
      <trkpt lat="45.7034" lon="6.62957">
        <ele>1285.6</ele>
        <time>2023-08-21T08:12:17Z</time>
      </trkpt>
      <trkpt lat="45.70342" lon="6.62956">
        <ele>1286.2</ele>
        <time>2023-08-21T08:12:18Z</time>
      </trkpt>
      <trkpt lat="45.70344" lon="6.62956">
        <ele>1286.2</ele>
        <time>2023-08-21T08:12:19Z</time>
      </trkpt>
      <trkpt lat="45.70346" lon="6.62956">
        <ele>1286.2</ele>
        <time>2023-08-21T08:12:20Z</time>
      </trkpt>
      <trkpt lat="45.70348" lon="6.62956">
        <ele>1286.2</ele>
        <time>2023-08-21T08:12:21Z</time>
      </trkpt>
      <trkpt lat="45.7035" lon="6.62956">
        <ele>1287</ele>
        <time>2023-08-21T08:12:22Z</time>
      </trkpt>
      <trkpt lat="45.70352" lon="6.62956">
        <ele>1287</ele>
        <time>2023-08-21T08:12:23Z</time>
      </trkpt>
      <trkpt lat="45.70355" lon="6.62956">
        <ele>1287</ele>
        <time>2023-08-21T08:12:24Z</time>
      </trkpt>
      <trkpt lat="45.70357" lon="6.62956">
        <ele>1287</ele>
        <time>2023-08-21T08:12:25Z</time>
      </trkpt>
      <trkpt lat="45.70359" lon="6.62956">
        <ele>1287</ele>
        <time>2023-08-21T08:12:26Z</time>
      </trkpt>
      <trkpt lat="45.70362" lon="6.62955">
        <ele>1287.6</ele>
        <time>2023-08-21T08:12:27Z</time>
      </trkpt>
      <trkpt lat="45.70365" lon="6.62955">
        <ele>1287.6</ele>
        <time>2023-08-21T08:12:28Z</time>
      </trkpt>
      <trkpt lat="45.70367" lon="6.62954">
        <ele>1287.8</ele>
        <time>2023-08-21T08:12:29Z</time>
      </trkpt>
      <trkpt lat="45.70369" lon="6.62954">
        <ele>1287.8</ele>
        <time>2023-08-21T08:12:30Z</time>
      </trkpt>
      <trkpt lat="45.70371" lon="6.62954">
        <ele>1287.8</ele>
        <time>2023-08-21T08:12:31Z</time>
      </trkpt>
      <trkpt lat="45.70373" lon="6.62954">
        <ele>1287.8</ele>
        <time>2023-08-21T08:12:32Z</time>
      </trkpt>
      <trkpt lat="45.70375" lon="6.62953">
        <ele>1288.6</ele>
        <time>2023-08-21T08:12:33Z</time>
      </trkpt>
      <trkpt lat="45.70378" lon="6.62953">
        <ele>1288.6</ele>
        <time>2023-08-21T08:12:34Z</time>
      </trkpt>
      <trkpt lat="45.70381" lon="6.62954">
        <ele>1288.6</ele>
        <time>2023-08-21T08:12:35Z</time>
      </trkpt>
      <trkpt lat="45.70383" lon="6.62954">
        <ele>1289</ele>
        <time>2023-08-21T08:12:36Z</time>
      </trkpt>
      <trkpt lat="45.70385" lon="6.62953">
        <ele>1289.4</ele>
        <time>2023-08-21T08:12:37Z</time>
      </trkpt>
      <trkpt lat="45.70388" lon="6.62953">
        <ele>1289.4</ele>
        <time>2023-08-21T08:12:38Z</time>
      </trkpt>
      <trkpt lat="45.70389" lon="6.62952">
        <ele>1289.4</ele>
        <time>2023-08-21T08:12:39Z</time>
      </trkpt>
      <trkpt lat="45.70391" lon="6.62951">
        <ele>1289.4</ele>
        <time>2023-08-21T08:12:40Z</time>
      </trkpt>
      <trkpt lat="45.70393" lon="6.62949">
        <ele>1290</ele>
        <time>2023-08-21T08:12:41Z</time>
      </trkpt>
      <trkpt lat="45.70395" lon="6.62948">
        <ele>1290.2</ele>
        <time>2023-08-21T08:12:42Z</time>
      </trkpt>
      <trkpt lat="45.70397" lon="6.62947">
        <ele>1290.2</ele>
        <time>2023-08-21T08:12:43Z</time>
      </trkpt>
      <trkpt lat="45.70399" lon="6.62947">
        <ele>1290.2</ele>
        <time>2023-08-21T08:12:44Z</time>
      </trkpt>
      <trkpt lat="45.70402" lon="6.62946">
        <ele>1290.2</ele>
        <time>2023-08-21T08:12:45Z</time>
      </trkpt>
      <trkpt lat="45.70404" lon="6.62945">
        <ele>1290.2</ele>
        <time>2023-08-21T08:12:46Z</time>
      </trkpt>
      <trkpt lat="45.70406" lon="6.62944">
        <ele>1290.8</ele>
        <time>2023-08-21T08:12:47Z</time>
      </trkpt>
      <trkpt lat="45.70407" lon="6.62942">
        <ele>1290.8</ele>
        <time>2023-08-21T08:12:48Z</time>
      </trkpt>
      <trkpt lat="45.70408" lon="6.62941">
        <ele>1291.4</ele>
        <time>2023-08-21T08:12:49Z</time>
      </trkpt>
      <trkpt lat="45.70411" lon="6.6294">
        <ele>1291.6</ele>
        <time>2023-08-21T08:12:50Z</time>
      </trkpt>
      <trkpt lat="45.70413" lon="6.6294">
        <ele>1291.6</ele>
        <time>2023-08-21T08:12:51Z</time>
      </trkpt>
      <trkpt lat="45.70415" lon="6.6294">
        <ele>1291.6</ele>
        <time>2023-08-21T08:12:52Z</time>
      </trkpt>
      <trkpt lat="45.70417" lon="6.6294">
        <ele>1291.6</ele>
        <time>2023-08-21T08:12:53Z</time>
      </trkpt>
      <trkpt lat="45.70419" lon="6.6294">
        <ele>1292.2</ele>
        <time>2023-08-21T08:12:54Z</time>
      </trkpt>
      <trkpt lat="45.70421" lon="6.62939">
        <ele>1292.2</ele>
        <time>2023-08-21T08:12:55Z</time>
      </trkpt>
      <trkpt lat="45.70424" lon="6.6294">
        <ele>1292.2</ele>
        <time>2023-08-21T08:12:56Z</time>
      </trkpt>
      <trkpt lat="45.70426" lon="6.6294">
        <ele>1292.2</ele>
        <time>2023-08-21T08:12:57Z</time>
      </trkpt>
      <trkpt lat="45.70429" lon="6.6294">
        <ele>1292.2</ele>
        <time>2023-08-21T08:12:58Z</time>
      </trkpt>
      <trkpt lat="45.70431" lon="6.6294">
        <ele>1293</ele>
        <time>2023-08-21T08:12:59Z</time>
      </trkpt>
      <trkpt lat="45.70433" lon="6.6294">
        <ele>1293</ele>
        <time>2023-08-21T08:13:00Z</time>
      </trkpt>
      <trkpt lat="45.70436" lon="6.62942">
        <ele>1293</ele>
        <time>2023-08-21T08:13:01Z</time>
      </trkpt>
      <trkpt lat="45.70438" lon="6.62943">
        <ele>1293</ele>
        <time>2023-08-21T08:13:02Z</time>
      </trkpt>
      <trkpt lat="45.70441" lon="6.62943">
        <ele>1293.6</ele>
        <time>2023-08-21T08:13:03Z</time>
      </trkpt>
      <trkpt lat="45.70443" lon="6.62944">
        <ele>1293.6</ele>
        <time>2023-08-21T08:13:04Z</time>
      </trkpt>
      <trkpt lat="45.70445" lon="6.62944">
        <ele>1293.6</ele>
        <time>2023-08-21T08:13:05Z</time>
      </trkpt>
      <trkpt lat="45.70448" lon="6.62945">
        <ele>1293.6</ele>
        <time>2023-08-21T08:13:06Z</time>
      </trkpt>
      <trkpt lat="45.70451" lon="6.62945">
        <ele>1293.6</ele>
        <time>2023-08-21T08:13:07Z</time>
      </trkpt>
      <trkpt lat="45.70453" lon="6.62945">
        <ele>1294.2</ele>
        <time>2023-08-21T08:13:08Z</time>
      </trkpt>
      <trkpt lat="45.70456" lon="6.62946">
        <ele>1294.2</ele>
        <time>2023-08-21T08:13:09Z</time>
      </trkpt>
      <trkpt lat="45.70459" lon="6.62946">
        <ele>1294.4</ele>
        <time>2023-08-21T08:13:10Z</time>
      </trkpt>
      <trkpt lat="45.70461" lon="6.62946">
        <ele>1294.4</ele>
        <time>2023-08-21T08:13:11Z</time>
      </trkpt>
      <trkpt lat="45.70463" lon="6.62947">
        <ele>1294.8</ele>
        <time>2023-08-21T08:13:12Z</time>
      </trkpt>
      <trkpt lat="45.70466" lon="6.62947">
        <ele>1295</ele>
        <time>2023-08-21T08:13:13Z</time>
      </trkpt>
      <trkpt lat="45.70468" lon="6.62947">
        <ele>1295</ele>
        <time>2023-08-21T08:13:14Z</time>
      </trkpt>
      <trkpt lat="45.70471" lon="6.62948">
        <ele>1295</ele>
        <time>2023-08-21T08:13:15Z</time>
      </trkpt>
      <trkpt lat="45.70473" lon="6.62948">
        <ele>1295.6</ele>
        <time>2023-08-21T08:13:16Z</time>
      </trkpt>
      <trkpt lat="45.70475" lon="6.62948">
        <ele>1295.8</ele>
        <time>2023-08-21T08:13:17Z</time>
      </trkpt>
      <trkpt lat="45.70478" lon="6.62948">
        <ele>1295.8</ele>
        <time>2023-08-21T08:13:18Z</time>
      </trkpt>
      <trkpt lat="45.7048" lon="6.62948">
        <ele>1295.8</ele>
        <time>2023-08-21T08:13:19Z</time>
      </trkpt>
      <trkpt lat="45.70483" lon="6.62948">
        <ele>1295.8</ele>
        <time>2023-08-21T08:13:20Z</time>
      </trkpt>
      <trkpt lat="45.70486" lon="6.62949">
        <ele>1296.4</ele>
        <time>2023-08-21T08:13:21Z</time>
      </trkpt>
      <trkpt lat="45.70488" lon="6.6295">
        <ele>1296.8</ele>
        <time>2023-08-21T08:13:22Z</time>
      </trkpt>
      <trkpt lat="45.70491" lon="6.6295">
        <ele>1296.8</ele>
        <time>2023-08-21T08:13:23Z</time>
      </trkpt>
      <trkpt lat="45.70493" lon="6.62951">
        <ele>1296.8</ele>
        <time>2023-08-21T08:13:24Z</time>
      </trkpt>
      <trkpt lat="45.70495" lon="6.62952">
        <ele>1297.4</ele>
        <time>2023-08-21T08:13:25Z</time>
      </trkpt>
      <trkpt lat="45.70498" lon="6.62952">
        <ele>1297.4</ele>
        <time>2023-08-21T08:13:26Z</time>
      </trkpt>
      <trkpt lat="45.705" lon="6.62953">
        <ele>1297.4</ele>
        <time>2023-08-21T08:13:27Z</time>
      </trkpt>
      <trkpt lat="45.70502" lon="6.62954">
        <ele>1297.4</ele>
        <time>2023-08-21T08:13:28Z</time>
      </trkpt>
      <trkpt lat="45.70504" lon="6.62955">
        <ele>1297.4</ele>
        <time>2023-08-21T08:13:29Z</time>
      </trkpt>
      <trkpt lat="45.70506" lon="6.62956">
        <ele>1298.2</ele>
        <time>2023-08-21T08:13:30Z</time>
      </trkpt>
      <trkpt lat="45.70508" lon="6.62957">
        <ele>1298.4</ele>
        <time>2023-08-21T08:13:31Z</time>
      </trkpt>
      <trkpt lat="45.7051" lon="6.62958">
        <ele>1298.4</ele>
        <time>2023-08-21T08:13:32Z</time>
      </trkpt>
      <trkpt lat="45.70512" lon="6.62959">
        <ele>1298.4</ele>
        <time>2023-08-21T08:13:33Z</time>
      </trkpt>
      <trkpt lat="45.70514" lon="6.6296">
        <ele>1298.4</ele>
        <time>2023-08-21T08:13:34Z</time>
      </trkpt>
      <trkpt lat="45.70516" lon="6.62961">
        <ele>1299.2</ele>
        <time>2023-08-21T08:13:35Z</time>
      </trkpt>
      <trkpt lat="45.70517" lon="6.62963">
        <ele>1299.2</ele>
        <time>2023-08-21T08:13:36Z</time>
      </trkpt>
      <trkpt lat="45.70518" lon="6.62965">
        <ele>1299.2</ele>
        <time>2023-08-21T08:13:37Z</time>
      </trkpt>
      <trkpt lat="45.7052" lon="6.62967">
        <ele>1299.2</ele>
        <time>2023-08-21T08:13:38Z</time>
      </trkpt>
      <trkpt lat="45.70521" lon="6.62969">
        <ele>1300.2</ele>
        <time>2023-08-21T08:13:39Z</time>
      </trkpt>
      <trkpt lat="45.70522" lon="6.62971">
        <ele>1300.2</ele>
        <time>2023-08-21T08:13:40Z</time>
      </trkpt>
      <trkpt lat="45.70524" lon="6.62973">
        <ele>1300.2</ele>
        <time>2023-08-21T08:13:41Z</time>
      </trkpt>
      <trkpt lat="45.70525" lon="6.62974">
        <ele>1300.2</ele>
        <time>2023-08-21T08:13:42Z</time>
      </trkpt>
      <trkpt lat="45.70527" lon="6.62976">
        <ele>1300.6</ele>
        <time>2023-08-21T08:13:43Z</time>
      </trkpt>
      <trkpt lat="45.70528" lon="6.62978">
        <ele>1300.6</ele>
        <time>2023-08-21T08:13:44Z</time>
      </trkpt>
      <trkpt lat="45.7053" lon="6.62979">
        <ele>1300.6</ele>
        <time>2023-08-21T08:13:45Z</time>
      </trkpt>
      <trkpt lat="45.70531" lon="6.62981">
        <ele>1300.6</ele>
        <time>2023-08-21T08:13:46Z</time>
      </trkpt>
      <trkpt lat="45.70533" lon="6.62983">
        <ele>1300.6</ele>
        <time>2023-08-21T08:13:47Z</time>
      </trkpt>
      <trkpt lat="45.70535" lon="6.62984">
        <ele>1301.2</ele>
        <time>2023-08-21T08:13:48Z</time>
      </trkpt>
      <trkpt lat="45.70536" lon="6.62986">
        <ele>1301.4</ele>
        <time>2023-08-21T08:13:49Z</time>
      </trkpt>
      <trkpt lat="45.70538" lon="6.62988">
        <ele>1301.4</ele>
        <time>2023-08-21T08:13:50Z</time>
      </trkpt>
      <trkpt lat="45.70539" lon="6.62989">
        <ele>1301.4</ele>
        <time>2023-08-21T08:13:51Z</time>
      </trkpt>
      <trkpt lat="45.70541" lon="6.62991">
        <ele>1302</ele>
        <time>2023-08-21T08:13:52Z</time>
      </trkpt>
      <trkpt lat="45.70542" lon="6.62992">
        <ele>1302.2</ele>
        <time>2023-08-21T08:13:53Z</time>
      </trkpt>
      <trkpt lat="45.70543" lon="6.62993">
        <ele>1302.2</ele>
        <time>2023-08-21T08:13:54Z</time>
      </trkpt>
      <trkpt lat="45.70545" lon="6.62995">
        <ele>1302.2</ele>
        <time>2023-08-21T08:13:55Z</time>
      </trkpt>
      <trkpt lat="45.70546" lon="6.62996">
        <ele>1303.2</ele>
        <time>2023-08-21T08:13:56Z</time>
      </trkpt>
      <trkpt lat="45.70548" lon="6.62998">
        <ele>1303.2</ele>
        <time>2023-08-21T08:13:57Z</time>
      </trkpt>
      <trkpt lat="45.7055" lon="6.62999">
        <ele>1303.4</ele>
        <time>2023-08-21T08:13:58Z</time>
      </trkpt>
      <trkpt lat="45.70551" lon="6.63001">
        <ele>1303.4</ele>
        <time>2023-08-21T08:13:59Z</time>
      </trkpt>
      <trkpt lat="45.70553" lon="6.63002">
        <ele>1303.4</ele>
        <time>2023-08-21T08:14:00Z</time>
      </trkpt>
      <trkpt lat="45.70554" lon="6.63003">
        <ele>1303.4</ele>
        <time>2023-08-21T08:14:01Z</time>
      </trkpt>
      <trkpt lat="45.70556" lon="6.63004">
        <ele>1304.2</ele>
        <time>2023-08-21T08:14:02Z</time>
      </trkpt>
      <trkpt lat="45.70557" lon="6.63006">
        <ele>1304.2</ele>
        <time>2023-08-21T08:14:03Z</time>
      </trkpt>
      <trkpt lat="45.70559" lon="6.63007">
        <ele>1304.2</ele>
        <time>2023-08-21T08:14:04Z</time>
      </trkpt>
      <trkpt lat="45.7056" lon="6.63007">
        <ele>1304.8</ele>
        <time>2023-08-21T08:14:05Z</time>
      </trkpt>
      <trkpt lat="45.70562" lon="6.63008">
        <ele>1305</ele>
        <time>2023-08-21T08:14:06Z</time>
      </trkpt>
      <trkpt lat="45.70563" lon="6.63009">
        <ele>1305</ele>
        <time>2023-08-21T08:14:07Z</time>
      </trkpt>
      <trkpt lat="45.70565" lon="6.6301">
        <ele>1305</ele>
        <time>2023-08-21T08:14:08Z</time>
      </trkpt>
      <trkpt lat="45.70567" lon="6.63011">
        <ele>1305.4</ele>
        <time>2023-08-21T08:14:09Z</time>
      </trkpt>
      <trkpt lat="45.70569" lon="6.63012">
        <ele>1305.8</ele>
        <time>2023-08-21T08:14:10Z</time>
      </trkpt>
      <trkpt lat="45.70571" lon="6.63013">
        <ele>1305.8</ele>
        <time>2023-08-21T08:14:11Z</time>
      </trkpt>
      <trkpt lat="45.70573" lon="6.63014">
        <ele>1305.8</ele>
        <time>2023-08-21T08:14:12Z</time>
      </trkpt>
      <trkpt lat="45.70575" lon="6.63015">
        <ele>1305.8</ele>
        <time>2023-08-21T08:14:13Z</time>
      </trkpt>
      <trkpt lat="45.70577" lon="6.63015">
        <ele>1306.2</ele>
        <time>2023-08-21T08:14:14Z</time>
      </trkpt>
      <trkpt lat="45.70579" lon="6.63016">
        <ele>1306.6</ele>
        <time>2023-08-21T08:14:15Z</time>
      </trkpt>
      <trkpt lat="45.70581" lon="6.63017">
        <ele>1306.6</ele>
        <time>2023-08-21T08:14:16Z</time>
      </trkpt>
      <trkpt lat="45.70583" lon="6.63018">
        <ele>1306.6</ele>
        <time>2023-08-21T08:14:17Z</time>
      </trkpt>
      <trkpt lat="45.70585" lon="6.63019">
        <ele>1306.6</ele>
        <time>2023-08-21T08:14:18Z</time>
      </trkpt>
      <trkpt lat="45.70587" lon="6.6302">
        <ele>1307.2</ele>
        <time>2023-08-21T08:14:19Z</time>
      </trkpt>
      <trkpt lat="45.70589" lon="6.63021">
        <ele>1307.2</ele>
        <time>2023-08-21T08:14:20Z</time>
      </trkpt>
      <trkpt lat="45.7059" lon="6.63022">
        <ele>1307.2</ele>
        <time>2023-08-21T08:14:21Z</time>
      </trkpt>
      <trkpt lat="45.70592" lon="6.63023">
        <ele>1307.2</ele>
        <time>2023-08-21T08:14:22Z</time>
      </trkpt>
      <trkpt lat="45.70594" lon="6.63023">
        <ele>1307.8</ele>
        <time>2023-08-21T08:14:23Z</time>
      </trkpt>
      <trkpt lat="45.70596" lon="6.63024">
        <ele>1308</ele>
        <time>2023-08-21T08:14:24Z</time>
      </trkpt>
      <trkpt lat="45.70598" lon="6.63025">
        <ele>1308</ele>
        <time>2023-08-21T08:14:25Z</time>
      </trkpt>
      <trkpt lat="45.70601" lon="6.63026">
        <ele>1308</ele>
        <time>2023-08-21T08:14:26Z</time>
      </trkpt>
      <trkpt lat="45.70602" lon="6.63027">
        <ele>1308.8</ele>
        <time>2023-08-21T08:14:27Z</time>
      </trkpt>
      <trkpt lat="45.70604" lon="6.63028">
        <ele>1308.8</ele>
        <time>2023-08-21T08:14:28Z</time>
      </trkpt>
      <trkpt lat="45.70606" lon="6.63029">
        <ele>1308.8</ele>
        <time>2023-08-21T08:14:29Z</time>
      </trkpt>
      <trkpt lat="45.70608" lon="6.6303">
        <ele>1308.8</ele>
        <time>2023-08-21T08:14:30Z</time>
      </trkpt>
      <trkpt lat="45.7061" lon="6.63031">
        <ele>1309.2</ele>
        <time>2023-08-21T08:14:31Z</time>
      </trkpt>
      <trkpt lat="45.70612" lon="6.63032">
        <ele>1309.2</ele>
        <time>2023-08-21T08:14:32Z</time>
      </trkpt>
      <trkpt lat="45.70614" lon="6.63033">
        <ele>1309.2</ele>
        <time>2023-08-21T08:14:33Z</time>
      </trkpt>
      <trkpt lat="45.70616" lon="6.63034">
        <ele>1309.4</ele>
        <time>2023-08-21T08:14:34Z</time>
      </trkpt>
      <trkpt lat="45.70617" lon="6.63035">
        <ele>1309.4</ele>
        <time>2023-08-21T08:14:35Z</time>
      </trkpt>
      <trkpt lat="45.70619" lon="6.63036">
        <ele>1309.4</ele>
        <time>2023-08-21T08:14:36Z</time>
      </trkpt>
      <trkpt lat="45.70621" lon="6.63038">
        <ele>1310</ele>
        <time>2023-08-21T08:14:37Z</time>
      </trkpt>
      <trkpt lat="45.70623" lon="6.63039">
        <ele>1310.2</ele>
        <time>2023-08-21T08:14:38Z</time>
      </trkpt>
      <trkpt lat="45.70624" lon="6.63041">
        <ele>1310.2</ele>
        <time>2023-08-21T08:14:39Z</time>
      </trkpt>
      <trkpt lat="45.70626" lon="6.63042">
        <ele>1310.2</ele>
        <time>2023-08-21T08:14:40Z</time>
      </trkpt>
      <trkpt lat="45.70628" lon="6.63043">
        <ele>1310.6</ele>
        <time>2023-08-21T08:14:41Z</time>
      </trkpt>
      <trkpt lat="45.7063" lon="6.63045">
        <ele>1310.8</ele>
        <time>2023-08-21T08:14:42Z</time>
      </trkpt>
      <trkpt lat="45.70632" lon="6.63046">
        <ele>1310.8</ele>
        <time>2023-08-21T08:14:43Z</time>
      </trkpt>
      <trkpt lat="45.70634" lon="6.63047">
        <ele>1310.8</ele>
        <time>2023-08-21T08:14:44Z</time>
      </trkpt>
      <trkpt lat="45.70636" lon="6.63049">
        <ele>1310.8</ele>
        <time>2023-08-21T08:14:45Z</time>
      </trkpt>
      <trkpt lat="45.70639" lon="6.6305">
        <ele>1311.4</ele>
        <time>2023-08-21T08:14:46Z</time>
      </trkpt>
      <trkpt lat="45.70641" lon="6.63051">
        <ele>1311.6</ele>
        <time>2023-08-21T08:14:47Z</time>
      </trkpt>
      <trkpt lat="45.70643" lon="6.63052">
        <ele>1311.6</ele>
        <time>2023-08-21T08:14:48Z</time>
      </trkpt>
      <trkpt lat="45.70645" lon="6.63054">
        <ele>1311.6</ele>
        <time>2023-08-21T08:14:49Z</time>
      </trkpt>
      <trkpt lat="45.70647" lon="6.63055">
        <ele>1312</ele>
        <time>2023-08-21T08:14:50Z</time>
      </trkpt>
      <trkpt lat="45.70649" lon="6.63057">
        <ele>1312.4</ele>
        <time>2023-08-21T08:14:51Z</time>
      </trkpt>
      <trkpt lat="45.70651" lon="6.63058">
        <ele>1312.4</ele>
        <time>2023-08-21T08:14:52Z</time>
      </trkpt>
      <trkpt lat="45.70653" lon="6.6306">
        <ele>1312.4</ele>
        <time>2023-08-21T08:14:53Z</time>
      </trkpt>
      <trkpt lat="45.70655" lon="6.63061">
        <ele>1312.8</ele>
        <time>2023-08-21T08:14:54Z</time>
      </trkpt>
      <trkpt lat="45.70657" lon="6.63062">
        <ele>1313</ele>
        <time>2023-08-21T08:14:55Z</time>
      </trkpt>
      <trkpt lat="45.70659" lon="6.63064">
        <ele>1313</ele>
        <time>2023-08-21T08:14:56Z</time>
      </trkpt>
      <trkpt lat="45.7066" lon="6.63065">
        <ele>1313</ele>
        <time>2023-08-21T08:14:57Z</time>
      </trkpt>
      <trkpt lat="45.70662" lon="6.63066">
        <ele>1313</ele>
        <time>2023-08-21T08:14:58Z</time>
      </trkpt>
      <trkpt lat="45.70664" lon="6.63067">
        <ele>1313.6</ele>
        <time>2023-08-21T08:14:59Z</time>
      </trkpt>
      <trkpt lat="45.70666" lon="6.63069">
        <ele>1313.8</ele>
        <time>2023-08-21T08:15:00Z</time>
      </trkpt>
      <trkpt lat="45.70668" lon="6.6307">
        <ele>1313.8</ele>
        <time>2023-08-21T08:15:01Z</time>
      </trkpt>
      <trkpt lat="45.7067" lon="6.63071">
        <ele>1313.8</ele>
        <time>2023-08-21T08:15:02Z</time>
      </trkpt>
      <trkpt lat="45.70672" lon="6.63072">
        <ele>1313.8</ele>
        <time>2023-08-21T08:15:03Z</time>
      </trkpt>
      <trkpt lat="45.70675" lon="6.63073">
        <ele>1314.6</ele>
        <time>2023-08-21T08:15:04Z</time>
      </trkpt>
      <trkpt lat="45.70677" lon="6.63075">
        <ele>1314.6</ele>
        <time>2023-08-21T08:15:05Z</time>
      </trkpt>
      <trkpt lat="45.70679" lon="6.63076">
        <ele>1314.6</ele>
        <time>2023-08-21T08:15:06Z</time>
      </trkpt>
      <trkpt lat="45.70681" lon="6.63077">
        <ele>1314.6</ele>
        <time>2023-08-21T08:15:07Z</time>
      </trkpt>
      <trkpt lat="45.70683" lon="6.63078">
        <ele>1315</ele>
        <time>2023-08-21T08:15:08Z</time>
      </trkpt>
      <trkpt lat="45.70686" lon="6.63079">
        <ele>1315</ele>
        <time>2023-08-21T08:15:09Z</time>
      </trkpt>
      <trkpt lat="45.70688" lon="6.6308">
        <ele>1315.4</ele>
        <time>2023-08-21T08:15:10Z</time>
      </trkpt>
      <trkpt lat="45.7069" lon="6.63081">
        <ele>1315.4</ele>
        <time>2023-08-21T08:15:11Z</time>
      </trkpt>
      <trkpt lat="45.70692" lon="6.63082">
        <ele>1316</ele>
        <time>2023-08-21T08:15:12Z</time>
      </trkpt>
      <trkpt lat="45.70694" lon="6.63083">
        <ele>1316</ele>
        <time>2023-08-21T08:15:13Z</time>
      </trkpt>
      <trkpt lat="45.70696" lon="6.63084">
        <ele>1316</ele>
        <time>2023-08-21T08:15:14Z</time>
      </trkpt>
      <trkpt lat="45.70699" lon="6.63084">
        <ele>1316</ele>
        <time>2023-08-21T08:15:15Z</time>
      </trkpt>
      <trkpt lat="45.70701" lon="6.63084">
        <ele>1316</ele>
        <time>2023-08-21T08:15:16Z</time>
      </trkpt>
      <trkpt lat="45.70703" lon="6.63085">
        <ele>1316</ele>
        <time>2023-08-21T08:15:17Z</time>
      </trkpt>
      <trkpt lat="45.70705" lon="6.63085">
        <ele>1316</ele>
        <time>2023-08-21T08:15:18Z</time>
      </trkpt>
      <trkpt lat="45.70707" lon="6.63085">
        <ele>1316.8</ele>
        <time>2023-08-21T08:15:19Z</time>
      </trkpt>
      <trkpt lat="45.7071" lon="6.63085">
        <ele>1316.8</ele>
        <time>2023-08-21T08:15:20Z</time>
      </trkpt>
      <trkpt lat="45.70712" lon="6.63085">
        <ele>1316.8</ele>
        <time>2023-08-21T08:15:21Z</time>
      </trkpt>
      <trkpt lat="45.70714" lon="6.63086">
        <ele>1317.4</ele>
        <time>2023-08-21T08:15:22Z</time>
      </trkpt>
      <trkpt lat="45.70716" lon="6.63086">
        <ele>1317.6</ele>
        <time>2023-08-21T08:15:23Z</time>
      </trkpt>
      <trkpt lat="45.70718" lon="6.63086">
        <ele>1317.6</ele>
        <time>2023-08-21T08:15:24Z</time>
      </trkpt>
      <trkpt lat="45.7072" lon="6.63086">
        <ele>1317.6</ele>
        <time>2023-08-21T08:15:25Z</time>
      </trkpt>
      <trkpt lat="45.70723" lon="6.63085">
        <ele>1318.2</ele>
        <time>2023-08-21T08:15:26Z</time>
      </trkpt>
      <trkpt lat="45.70725" lon="6.63085">
        <ele>1318.2</ele>
        <time>2023-08-21T08:15:27Z</time>
      </trkpt>
      <trkpt lat="45.70726" lon="6.63085">
        <ele>1318.4</ele>
        <time>2023-08-21T08:15:28Z</time>
      </trkpt>
      <trkpt lat="45.70729" lon="6.63086">
        <ele>1318.4</ele>
        <time>2023-08-21T08:15:29Z</time>
      </trkpt>
      <trkpt lat="45.70731" lon="6.63086">
        <ele>1318.4</ele>
        <time>2023-08-21T08:15:30Z</time>
      </trkpt>
      <trkpt lat="45.70733" lon="6.63087">
        <ele>1318.8</ele>
        <time>2023-08-21T08:15:31Z</time>
      </trkpt>
      <trkpt lat="45.70735" lon="6.63087">
        <ele>1319.2</ele>
        <time>2023-08-21T08:15:32Z</time>
      </trkpt>
      <trkpt lat="45.70737" lon="6.63087">
        <ele>1319.2</ele>
        <time>2023-08-21T08:15:33Z</time>
      </trkpt>
      <trkpt lat="45.70739" lon="6.63087">
        <ele>1319.2</ele>
        <time>2023-08-21T08:15:34Z</time>
      </trkpt>
      <trkpt lat="45.70741" lon="6.63088">
        <ele>1319.8</ele>
        <time>2023-08-21T08:15:35Z</time>
      </trkpt>
      <trkpt lat="45.70743" lon="6.6309">
        <ele>1319.8</ele>
        <time>2023-08-21T08:15:36Z</time>
      </trkpt>
      <trkpt lat="45.70744" lon="6.63092">
        <ele>1319.8</ele>
        <time>2023-08-21T08:15:37Z</time>
      </trkpt>
      <trkpt lat="45.70745" lon="6.63094">
        <ele>1319.8</ele>
        <time>2023-08-21T08:15:38Z</time>
      </trkpt>
      <trkpt lat="45.70746" lon="6.63097">
        <ele>1320.4</ele>
        <time>2023-08-21T08:15:39Z</time>
      </trkpt>
      <trkpt lat="45.70746" lon="6.63101">
        <ele>1320.6</ele>
        <time>2023-08-21T08:15:40Z</time>
      </trkpt>
      <trkpt lat="45.70746" lon="6.63104">
        <ele>1320.6</ele>
        <time>2023-08-21T08:15:41Z</time>
      </trkpt>
      <trkpt lat="45.70745" lon="6.63107">
        <ele>1320.6</ele>
        <time>2023-08-21T08:15:42Z</time>
      </trkpt>
      <trkpt lat="45.70743" lon="6.63109">
        <ele>1320.6</ele>
        <time>2023-08-21T08:15:43Z</time>
      </trkpt>
      <trkpt lat="45.70742" lon="6.6311">
        <ele>1320.6</ele>
        <time>2023-08-21T08:15:44Z</time>
      </trkpt>
      <trkpt lat="45.7074" lon="6.6311">
        <ele>1321.6</ele>
        <time>2023-08-21T08:15:45Z</time>
      </trkpt>
      <trkpt lat="45.70738" lon="6.6311">
        <ele>1321.6</ele>
        <time>2023-08-21T08:15:46Z</time>
      </trkpt>
      <trkpt lat="45.70735" lon="6.6311">
        <ele>1321.6</ele>
        <time>2023-08-21T08:15:47Z</time>
      </trkpt>
      <trkpt lat="45.70733" lon="6.6311">
        <ele>1321.6</ele>
        <time>2023-08-21T08:15:48Z</time>
      </trkpt>
      <trkpt lat="45.7073" lon="6.63109">
        <ele>1322.4</ele>
        <time>2023-08-21T08:15:49Z</time>
      </trkpt>
      <trkpt lat="45.70728" lon="6.63109">
        <ele>1322.4</ele>
        <time>2023-08-21T08:15:50Z</time>
      </trkpt>
      <trkpt lat="45.70726" lon="6.63108">
        <ele>1322.4</ele>
        <time>2023-08-21T08:15:51Z</time>
      </trkpt>
      <trkpt lat="45.70723" lon="6.63108">
        <ele>1322.4</ele>
        <time>2023-08-21T08:15:52Z</time>
      </trkpt>
      <trkpt lat="45.70721" lon="6.63108">
        <ele>1323</ele>
        <time>2023-08-21T08:15:53Z</time>
      </trkpt>
      <trkpt lat="45.70719" lon="6.63108">
        <ele>1323.2</ele>
        <time>2023-08-21T08:15:54Z</time>
      </trkpt>
      <trkpt lat="45.70716" lon="6.63107">
        <ele>1323.2</ele>
        <time>2023-08-21T08:15:55Z</time>
      </trkpt>
      <trkpt lat="45.70714" lon="6.63107">
        <ele>1323.2</ele>
        <time>2023-08-21T08:15:56Z</time>
      </trkpt>
      <trkpt lat="45.70712" lon="6.63106">
        <ele>1323.2</ele>
        <time>2023-08-21T08:15:57Z</time>
      </trkpt>
      <trkpt lat="45.7071" lon="6.63106">
        <ele>1323.2</ele>
        <time>2023-08-21T08:15:58Z</time>
      </trkpt>
      <trkpt lat="45.70707" lon="6.63105">
        <ele>1324</ele>
        <time>2023-08-21T08:15:59Z</time>
      </trkpt>
      <trkpt lat="45.70705" lon="6.63105">
        <ele>1324</ele>
        <time>2023-08-21T08:16:00Z</time>
      </trkpt>
      <trkpt lat="45.70703" lon="6.63104">
        <ele>1324</ele>
        <time>2023-08-21T08:16:01Z</time>
      </trkpt>
      <trkpt lat="45.70701" lon="6.63104">
        <ele>1324</ele>
        <time>2023-08-21T08:16:02Z</time>
      </trkpt>
      <trkpt lat="45.70699" lon="6.63102">
        <ele>1324.6</ele>
        <time>2023-08-21T08:16:03Z</time>
      </trkpt>
      <trkpt lat="45.70697" lon="6.63102">
        <ele>1324.8</ele>
        <time>2023-08-21T08:16:04Z</time>
      </trkpt>
      <trkpt lat="45.70696" lon="6.63101">
        <ele>1324.8</ele>
        <time>2023-08-21T08:16:05Z</time>
      </trkpt>
      <trkpt lat="45.70693" lon="6.63101">
        <ele>1324.8</ele>
        <time>2023-08-21T08:16:06Z</time>
      </trkpt>
      <trkpt lat="45.70691" lon="6.631">
        <ele>1325.4</ele>
        <time>2023-08-21T08:16:07Z</time>
      </trkpt>
      <trkpt lat="45.70689" lon="6.63099">
        <ele>1325.4</ele>
        <time>2023-08-21T08:16:08Z</time>
      </trkpt>
      <trkpt lat="45.70687" lon="6.63098">
        <ele>1325.4</ele>
        <time>2023-08-21T08:16:09Z</time>
      </trkpt>
      <trkpt lat="45.70685" lon="6.63098">
        <ele>1325.4</ele>
        <time>2023-08-21T08:16:10Z</time>
      </trkpt>
      <trkpt lat="45.70683" lon="6.63097">
        <ele>1326.2</ele>
        <time>2023-08-21T08:16:11Z</time>
      </trkpt>
      <trkpt lat="45.70681" lon="6.63096">
        <ele>1326.2</ele>
        <time>2023-08-21T08:16:12Z</time>
      </trkpt>
      <trkpt lat="45.70679" lon="6.63096">
        <ele>1326.2</ele>
        <time>2023-08-21T08:16:13Z</time>
      </trkpt>
      <trkpt lat="45.70677" lon="6.63095">
        <ele>1326.2</ele>
        <time>2023-08-21T08:16:14Z</time>
      </trkpt>
      <trkpt lat="45.70675" lon="6.63094">
        <ele>1326.2</ele>
        <time>2023-08-21T08:16:15Z</time>
      </trkpt>
      <trkpt lat="45.70672" lon="6.63093">
        <ele>1326.8</ele>
        <time>2023-08-21T08:16:16Z</time>
      </trkpt>
      <trkpt lat="45.7067" lon="6.63093">
        <ele>1327.2</ele>
        <time>2023-08-21T08:16:17Z</time>
      </trkpt>
      <trkpt lat="45.70668" lon="6.63092">
        <ele>1327.2</ele>
        <time>2023-08-21T08:16:18Z</time>
      </trkpt>
      <trkpt lat="45.70665" lon="6.63091">
        <ele>1327.2</ele>
        <time>2023-08-21T08:16:19Z</time>
      </trkpt>
      <trkpt lat="45.70663" lon="6.6309">
        <ele>1327.8</ele>
        <time>2023-08-21T08:16:20Z</time>
      </trkpt>
      <trkpt lat="45.70661" lon="6.6309">
        <ele>1327.8</ele>
        <time>2023-08-21T08:16:21Z</time>
      </trkpt>
      <trkpt lat="45.7066" lon="6.63089">
        <ele>1327.8</ele>
        <time>2023-08-21T08:16:22Z</time>
      </trkpt>
      <trkpt lat="45.70658" lon="6.63088">
        <ele>1327.8</ele>
        <time>2023-08-21T08:16:23Z</time>
      </trkpt>
      <trkpt lat="45.70656" lon="6.63088">
        <ele>1327.8</ele>
        <time>2023-08-21T08:16:24Z</time>
      </trkpt>
      <trkpt lat="45.70655" lon="6.63088">
        <ele>1328.2</ele>
        <time>2023-08-21T08:16:25Z</time>
      </trkpt>
      <trkpt lat="45.70653" lon="6.63088">
        <ele>1328.6</ele>
        <time>2023-08-21T08:16:26Z</time>
      </trkpt>
      <trkpt lat="45.70651" lon="6.63088">
        <ele>1328.6</ele>
        <time>2023-08-21T08:16:27Z</time>
      </trkpt>
      <trkpt lat="45.70649" lon="6.63087">
        <ele>1328.6</ele>
        <time>2023-08-21T08:16:28Z</time>
      </trkpt>
      <trkpt lat="45.70646" lon="6.63087">
        <ele>1329</ele>
        <time>2023-08-21T08:16:29Z</time>
      </trkpt>
      <trkpt lat="45.70644" lon="6.63086">
        <ele>1329</ele>
        <time>2023-08-21T08:16:30Z</time>
      </trkpt>
      <trkpt lat="45.70642" lon="6.63085">
        <ele>1329.2</ele>
        <time>2023-08-21T08:16:31Z</time>
      </trkpt>
      <trkpt lat="45.7064" lon="6.63085">
        <ele>1329.2</ele>
        <time>2023-08-21T08:16:32Z</time>
      </trkpt>
      <trkpt lat="45.70637" lon="6.63085">
        <ele>1329.2</ele>
        <time>2023-08-21T08:16:33Z</time>
      </trkpt>
      <trkpt lat="45.70635" lon="6.63084">
        <ele>1329.8</ele>
        <time>2023-08-21T08:16:34Z</time>
      </trkpt>
      <trkpt lat="45.70633" lon="6.63083">
        <ele>1329.8</ele>
        <time>2023-08-21T08:16:35Z</time>
      </trkpt>
      <trkpt lat="45.70631" lon="6.63082">
        <ele>1330.2</ele>
        <time>2023-08-21T08:16:36Z</time>
      </trkpt>
      <trkpt lat="45.70629" lon="6.63082">
        <ele>1330.2</ele>
        <time>2023-08-21T08:16:37Z</time>
      </trkpt>
      <trkpt lat="45.70627" lon="6.63081">
        <ele>1330.8</ele>
        <time>2023-08-21T08:16:38Z</time>
      </trkpt>
      <trkpt lat="45.70625" lon="6.6308">
        <ele>1330.8</ele>
        <time>2023-08-21T08:16:39Z</time>
      </trkpt>
      <trkpt lat="45.70623" lon="6.6308">
        <ele>1331</ele>
        <time>2023-08-21T08:16:40Z</time>
      </trkpt>
      <trkpt lat="45.7062" lon="6.63079">
        <ele>1331</ele>
        <time>2023-08-21T08:16:41Z</time>
      </trkpt>
      <trkpt lat="45.70618" lon="6.63079">
        <ele>1331</ele>
        <time>2023-08-21T08:16:42Z</time>
      </trkpt>
      <trkpt lat="45.70616" lon="6.63079">
        <ele>1331.6</ele>
        <time>2023-08-21T08:16:43Z</time>
      </trkpt>
      <trkpt lat="45.70614" lon="6.63078">
        <ele>1331.6</ele>
        <time>2023-08-21T08:16:44Z</time>
      </trkpt>
      <trkpt lat="45.70611" lon="6.63078">
        <ele>1331.8</ele>
        <time>2023-08-21T08:16:45Z</time>
      </trkpt>
      <trkpt lat="45.70609" lon="6.63078">
        <ele>1331.8</ele>
        <time>2023-08-21T08:16:46Z</time>
      </trkpt>
      <trkpt lat="45.70607" lon="6.63077">
        <ele>1331.8</ele>
        <time>2023-08-21T08:16:47Z</time>
      </trkpt>
      <trkpt lat="45.70604" lon="6.63077">
        <ele>1332.6</ele>
        <time>2023-08-21T08:16:48Z</time>
      </trkpt>
      <trkpt lat="45.70602" lon="6.63077">
        <ele>1332.8</ele>
        <time>2023-08-21T08:16:49Z</time>
      </trkpt>
      <trkpt lat="45.706" lon="6.63077">
        <ele>1332.8</ele>
        <time>2023-08-21T08:16:50Z</time>
      </trkpt>
      <trkpt lat="45.70598" lon="6.63077">
        <ele>1332.8</ele>
        <time>2023-08-21T08:16:51Z</time>
      </trkpt>
      <trkpt lat="45.70596" lon="6.63076">
        <ele>1333.4</ele>
        <time>2023-08-21T08:16:52Z</time>
      </trkpt>
      <trkpt lat="45.70593" lon="6.63077">
        <ele>1333.6</ele>
        <time>2023-08-21T08:16:53Z</time>
      </trkpt>
      <trkpt lat="45.70591" lon="6.63078">
        <ele>1333.6</ele>
        <time>2023-08-21T08:16:54Z</time>
      </trkpt>
      <trkpt lat="45.70589" lon="6.6308">
        <ele>1333.6</ele>
        <time>2023-08-21T08:16:55Z</time>
      </trkpt>
      <trkpt lat="45.70587" lon="6.63081">
        <ele>1334.2</ele>
        <time>2023-08-21T08:16:56Z</time>
      </trkpt>
      <trkpt lat="45.70585" lon="6.63083">
        <ele>1334.2</ele>
        <time>2023-08-21T08:16:57Z</time>
      </trkpt>
      <trkpt lat="45.70583" lon="6.63084">
        <ele>1334.4</ele>
        <time>2023-08-21T08:16:58Z</time>
      </trkpt>
      <trkpt lat="45.70581" lon="6.63085">
        <ele>1334.4</ele>
        <time>2023-08-21T08:16:59Z</time>
      </trkpt>
      <trkpt lat="45.70579" lon="6.63086">
        <ele>1334.4</ele>
        <time>2023-08-21T08:17:00Z</time>
      </trkpt>
      <trkpt lat="45.70576" lon="6.63086">
        <ele>1335</ele>
        <time>2023-08-21T08:17:01Z</time>
      </trkpt>
      <trkpt lat="45.70574" lon="6.63087">
        <ele>1335.2</ele>
        <time>2023-08-21T08:17:02Z</time>
      </trkpt>
      <trkpt lat="45.70571" lon="6.63087">
        <ele>1335.2</ele>
        <time>2023-08-21T08:17:03Z</time>
      </trkpt>
      <trkpt lat="45.70569" lon="6.63087">
        <ele>1335.2</ele>
        <time>2023-08-21T08:17:04Z</time>
      </trkpt>
      <trkpt lat="45.70567" lon="6.63087">
        <ele>1336</ele>
        <time>2023-08-21T08:17:05Z</time>
      </trkpt>
      <trkpt lat="45.70564" lon="6.63087">
        <ele>1336.2</ele>
        <time>2023-08-21T08:17:06Z</time>
      </trkpt>
      <trkpt lat="45.70562" lon="6.63087">
        <ele>1336.2</ele>
        <time>2023-08-21T08:17:07Z</time>
      </trkpt>
      <trkpt lat="45.7056" lon="6.63086">
        <ele>1336.2</ele>
        <time>2023-08-21T08:17:08Z</time>
      </trkpt>
      <trkpt lat="45.70557" lon="6.63085">
        <ele>1336.2</ele>
        <time>2023-08-21T08:17:09Z</time>
      </trkpt>
      <trkpt lat="45.70555" lon="6.63085">
        <ele>1336.6</ele>
        <time>2023-08-21T08:17:10Z</time>
      </trkpt>
      <trkpt lat="45.70553" lon="6.63085">
        <ele>1336.8</ele>
        <time>2023-08-21T08:17:11Z</time>
      </trkpt>
      <trkpt lat="45.7055" lon="6.63084">
        <ele>1336.8</ele>
        <time>2023-08-21T08:17:12Z</time>
      </trkpt>
      <trkpt lat="45.70548" lon="6.63084">
        <ele>1336.8</ele>
        <time>2023-08-21T08:17:13Z</time>
      </trkpt>
      <trkpt lat="45.70546" lon="6.63084">
        <ele>1337.4</ele>
        <time>2023-08-21T08:17:14Z</time>
      </trkpt>
      <trkpt lat="45.70544" lon="6.63084">
        <ele>1337.4</ele>
        <time>2023-08-21T08:17:15Z</time>
      </trkpt>
      <trkpt lat="45.70542" lon="6.63083">
        <ele>1337.4</ele>
        <time>2023-08-21T08:17:16Z</time>
      </trkpt>
      <trkpt lat="45.70539" lon="6.63082">
        <ele>1337.4</ele>
        <time>2023-08-21T08:17:17Z</time>
      </trkpt>
      <trkpt lat="45.70537" lon="6.6308">
        <ele>1337.4</ele>
        <time>2023-08-21T08:17:18Z</time>
      </trkpt>
      <trkpt lat="45.70536" lon="6.63079">
        <ele>1338.2</ele>
        <time>2023-08-21T08:17:19Z</time>
      </trkpt>
      <trkpt lat="45.70534" lon="6.63077">
        <ele>1338.2</ele>
        <time>2023-08-21T08:17:20Z</time>
      </trkpt>
      <trkpt lat="45.70532" lon="6.63075">
        <ele>1338.2</ele>
        <time>2023-08-21T08:17:21Z</time>
      </trkpt>
      <trkpt lat="45.7053" lon="6.63073">
        <ele>1338.2</ele>
        <time>2023-08-21T08:17:22Z</time>
      </trkpt>
      <trkpt lat="45.70528" lon="6.63071">
        <ele>1338.8</ele>
        <time>2023-08-21T08:17:23Z</time>
      </trkpt>
      <trkpt lat="45.70526" lon="6.63069">
        <ele>1338.8</ele>
        <time>2023-08-21T08:17:24Z</time>
      </trkpt>
      <trkpt lat="45.70525" lon="6.63068">
        <ele>1339</ele>
        <time>2023-08-21T08:17:25Z</time>
      </trkpt>
      <trkpt lat="45.70523" lon="6.63067">
        <ele>1339</ele>
        <time>2023-08-21T08:17:26Z</time>
      </trkpt>
      <trkpt lat="45.70522" lon="6.63066">
        <ele>1339</ele>
        <time>2023-08-21T08:17:27Z</time>
      </trkpt>
      <trkpt lat="45.7052" lon="6.63065">
        <ele>1339.8</ele>
        <time>2023-08-21T08:17:28Z</time>
      </trkpt>
      <trkpt lat="45.70518" lon="6.63064">
        <ele>1340.2</ele>
        <time>2023-08-21T08:17:29Z</time>
      </trkpt>
      <trkpt lat="45.70515" lon="6.63064">
        <ele>1340.2</ele>
        <time>2023-08-21T08:17:30Z</time>
      </trkpt>
      <trkpt lat="45.70513" lon="6.63063">
        <ele>1340.2</ele>
        <time>2023-08-21T08:17:31Z</time>
      </trkpt>
      <trkpt lat="45.70511" lon="6.63062">
        <ele>1340.8</ele>
        <time>2023-08-21T08:17:32Z</time>
      </trkpt>
      <trkpt lat="45.70509" lon="6.63062">
        <ele>1341.2</ele>
        <time>2023-08-21T08:17:33Z</time>
      </trkpt>
      <trkpt lat="45.70506" lon="6.63062">
        <ele>1341.2</ele>
        <time>2023-08-21T08:17:34Z</time>
      </trkpt>
      <trkpt lat="45.70503" lon="6.63062">
        <ele>1341.2</ele>
        <time>2023-08-21T08:17:35Z</time>
      </trkpt>
      <trkpt lat="45.70501" lon="6.63062">
        <ele>1341.2</ele>
        <time>2023-08-21T08:17:36Z</time>
      </trkpt>
      <trkpt lat="45.70498" lon="6.63063">
        <ele>1341.8</ele>
        <time>2023-08-21T08:17:37Z</time>
      </trkpt>
      <trkpt lat="45.70496" lon="6.63064">
        <ele>1341.8</ele>
        <time>2023-08-21T08:17:38Z</time>
      </trkpt>
      <trkpt lat="45.70494" lon="6.63064">
        <ele>1342</ele>
        <time>2023-08-21T08:17:39Z</time>
      </trkpt>
      <trkpt lat="45.70492" lon="6.63065">
        <ele>1342</ele>
        <time>2023-08-21T08:17:40Z</time>
      </trkpt>
      <trkpt lat="45.7049" lon="6.63066">
        <ele>1342.6</ele>
        <time>2023-08-21T08:17:41Z</time>
      </trkpt>
      <trkpt lat="45.70488" lon="6.63067">
        <ele>1342.8</ele>
        <time>2023-08-21T08:17:42Z</time>
      </trkpt>
      <trkpt lat="45.70485" lon="6.63068">
        <ele>1342.8</ele>
        <time>2023-08-21T08:17:43Z</time>
      </trkpt>
      <trkpt lat="45.70483" lon="6.63068">
        <ele>1342.8</ele>
        <time>2023-08-21T08:17:44Z</time>
      </trkpt>
      <trkpt lat="45.70482" lon="6.6307">
        <ele>1343.2</ele>
        <time>2023-08-21T08:17:45Z</time>
      </trkpt>
      <trkpt lat="45.7048" lon="6.63071">
        <ele>1343.4</ele>
        <time>2023-08-21T08:17:46Z</time>
      </trkpt>
      <trkpt lat="45.70478" lon="6.63073">
        <ele>1343.4</ele>
        <time>2023-08-21T08:17:47Z</time>
      </trkpt>
      <trkpt lat="45.70476" lon="6.63074">
        <ele>1343.4</ele>
        <time>2023-08-21T08:17:48Z</time>
      </trkpt>
      <trkpt lat="45.70473" lon="6.63075">
        <ele>1343.4</ele>
        <time>2023-08-21T08:17:49Z</time>
      </trkpt>
      <trkpt lat="45.70471" lon="6.63077">
        <ele>1344</ele>
        <time>2023-08-21T08:17:50Z</time>
      </trkpt>
      <trkpt lat="45.70469" lon="6.63078">
        <ele>1344.2</ele>
        <time>2023-08-21T08:17:51Z</time>
      </trkpt>
      <trkpt lat="45.70467" lon="6.63078">
        <ele>1344.2</ele>
        <time>2023-08-21T08:17:52Z</time>
      </trkpt>
      <trkpt lat="45.70464" lon="6.63078">
        <ele>1344.2</ele>
        <time>2023-08-21T08:17:53Z</time>
      </trkpt>
      <trkpt lat="45.70462" lon="6.63078">
        <ele>1344.8</ele>
        <time>2023-08-21T08:17:54Z</time>
      </trkpt>
      <trkpt lat="45.7046" lon="6.63079">
        <ele>1344.8</ele>
        <time>2023-08-21T08:17:55Z</time>
      </trkpt>
      <trkpt lat="45.70458" lon="6.63079">
        <ele>1344.8</ele>
        <time>2023-08-21T08:17:56Z</time>
      </trkpt>
      <trkpt lat="45.70456" lon="6.63079">
        <ele>1344.8</ele>
        <time>2023-08-21T08:17:57Z</time>
      </trkpt>
      <trkpt lat="45.70454" lon="6.6308">
        <ele>1344.8</ele>
        <time>2023-08-21T08:17:58Z</time>
      </trkpt>
      <trkpt lat="45.70452" lon="6.6308">
        <ele>1345.8</ele>
        <time>2023-08-21T08:17:59Z</time>
      </trkpt>
      <trkpt lat="45.7045" lon="6.63081">
        <ele>1345.8</ele>
        <time>2023-08-21T08:18:00Z</time>
      </trkpt>
      <trkpt lat="45.70448" lon="6.63081">
        <ele>1345.8</ele>
        <time>2023-08-21T08:18:01Z</time>
      </trkpt>
      <trkpt lat="45.70446" lon="6.63081">
        <ele>1345.8</ele>
        <time>2023-08-21T08:18:02Z</time>
      </trkpt>
      <trkpt lat="45.70444" lon="6.63081">
        <ele>1346.4</ele>
        <time>2023-08-21T08:18:03Z</time>
      </trkpt>
      <trkpt lat="45.70442" lon="6.63081">
        <ele>1346.4</ele>
        <time>2023-08-21T08:18:04Z</time>
      </trkpt>
      <trkpt lat="45.70441" lon="6.63082">
        <ele>1346.6</ele>
        <time>2023-08-21T08:18:05Z</time>
      </trkpt>
      <trkpt lat="45.70439" lon="6.63081">
        <ele>1346.6</ele>
        <time>2023-08-21T08:18:06Z</time>
      </trkpt>
      <trkpt lat="45.70437" lon="6.63081">
        <ele>1346.6</ele>
        <time>2023-08-21T08:18:07Z</time>
      </trkpt>
      <trkpt lat="45.70435" lon="6.63082">
        <ele>1347.2</ele>
        <time>2023-08-21T08:18:08Z</time>
      </trkpt>
      <trkpt lat="45.70433" lon="6.63081">
        <ele>1347.6</ele>
        <time>2023-08-21T08:18:09Z</time>
      </trkpt>
      <trkpt lat="45.7043" lon="6.63081">
        <ele>1347.6</ele>
        <time>2023-08-21T08:18:10Z</time>
      </trkpt>
      <trkpt lat="45.70428" lon="6.63082">
        <ele>1347.6</ele>
        <time>2023-08-21T08:18:11Z</time>
      </trkpt>
      <trkpt lat="45.70426" lon="6.63082">
        <ele>1347.6</ele>
        <time>2023-08-21T08:18:12Z</time>
      </trkpt>
      <trkpt lat="45.70424" lon="6.63082">
        <ele>1348.2</ele>
        <time>2023-08-21T08:18:13Z</time>
      </trkpt>
      <trkpt lat="45.70422" lon="6.63083">
        <ele>1348.8</ele>
        <time>2023-08-21T08:18:14Z</time>
      </trkpt>
      <trkpt lat="45.7042" lon="6.63083">
        <ele>1348.8</ele>
        <time>2023-08-21T08:18:15Z</time>
      </trkpt>
      <trkpt lat="45.70418" lon="6.63084">
        <ele>1348.8</ele>
        <time>2023-08-21T08:18:16Z</time>
      </trkpt>
      <trkpt lat="45.70416" lon="6.63085">
        <ele>1349.2</ele>
        <time>2023-08-21T08:18:17Z</time>
      </trkpt>
      <trkpt lat="45.70414" lon="6.63085">
        <ele>1349.4</ele>
        <time>2023-08-21T08:18:18Z</time>
      </trkpt>
      <trkpt lat="45.70412" lon="6.63085">
        <ele>1349.4</ele>
        <time>2023-08-21T08:18:19Z</time>
      </trkpt>
      <trkpt lat="45.7041" lon="6.63084">
        <ele>1349.4</ele>
        <time>2023-08-21T08:18:20Z</time>
      </trkpt>
      <trkpt lat="45.70408" lon="6.63084">
        <ele>1349.4</ele>
        <time>2023-08-21T08:18:21Z</time>
      </trkpt>
      <trkpt lat="45.70406" lon="6.63084">
        <ele>1350</ele>
        <time>2023-08-21T08:18:22Z</time>
      </trkpt>
      <trkpt lat="45.70404" lon="6.63084">
        <ele>1350.2</ele>
        <time>2023-08-21T08:18:23Z</time>
      </trkpt>
      <trkpt lat="45.70402" lon="6.63084">
        <ele>1350.2</ele>
        <time>2023-08-21T08:18:24Z</time>
      </trkpt>
      <trkpt lat="45.704" lon="6.63085">
        <ele>1350.2</ele>
        <time>2023-08-21T08:18:25Z</time>
      </trkpt>
      <trkpt lat="45.70399" lon="6.63085">
        <ele>1350.8</ele>
        <time>2023-08-21T08:18:26Z</time>
      </trkpt>
      <trkpt lat="45.70397" lon="6.63085">
        <ele>1351</ele>
        <time>2023-08-21T08:18:27Z</time>
      </trkpt>
      <trkpt lat="45.70395" lon="6.63085">
        <ele>1351</ele>
        <time>2023-08-21T08:18:28Z</time>
      </trkpt>
      <trkpt lat="45.70393" lon="6.63085">
        <ele>1351</ele>
        <time>2023-08-21T08:18:29Z</time>
      </trkpt>
      <trkpt lat="45.70391" lon="6.63085">
        <ele>1351</ele>
        <time>2023-08-21T08:18:30Z</time>
      </trkpt>
      <trkpt lat="45.70389" lon="6.63085">
        <ele>1351.6</ele>
        <time>2023-08-21T08:18:31Z</time>
      </trkpt>
      <trkpt lat="45.70387" lon="6.63086">
        <ele>1351.6</ele>
        <time>2023-08-21T08:18:32Z</time>
      </trkpt>
      <trkpt lat="45.70385" lon="6.63086">
        <ele>1351.6</ele>
        <time>2023-08-21T08:18:33Z</time>
      </trkpt>
      <trkpt lat="45.70384" lon="6.63087">
        <ele>1351.6</ele>
        <time>2023-08-21T08:18:34Z</time>
      </trkpt>
      <trkpt lat="45.70382" lon="6.63088">
        <ele>1352.4</ele>
        <time>2023-08-21T08:18:35Z</time>
      </trkpt>
      <trkpt lat="45.7038" lon="6.63089">
        <ele>1352.6</ele>
        <time>2023-08-21T08:18:36Z</time>
      </trkpt>
      <trkpt lat="45.70378" lon="6.6309">
        <ele>1352.6</ele>
        <time>2023-08-21T08:18:37Z</time>
      </trkpt>
      <trkpt lat="45.70377" lon="6.6309">
        <ele>1352.6</ele>
        <time>2023-08-21T08:18:38Z</time>
      </trkpt>
      <trkpt lat="45.70375" lon="6.63091">
        <ele>1352.6</ele>
        <time>2023-08-21T08:18:39Z</time>
      </trkpt>
      <trkpt lat="45.70374" lon="6.63091">
        <ele>1353</ele>
        <time>2023-08-21T08:18:40Z</time>
      </trkpt>
      <trkpt lat="45.70372" lon="6.63092">
        <ele>1353</ele>
        <time>2023-08-21T08:18:41Z</time>
      </trkpt>
      <trkpt lat="45.7037" lon="6.63092">
        <ele>1353</ele>
        <time>2023-08-21T08:18:42Z</time>
      </trkpt>
      <trkpt lat="45.70369" lon="6.63092">
        <ele>1353</ele>
        <time>2023-08-21T08:18:43Z</time>
      </trkpt>
      <trkpt lat="45.70367" lon="6.63093">
        <ele>1353.8</ele>
        <time>2023-08-21T08:18:44Z</time>
      </trkpt>
      <trkpt lat="45.70366" lon="6.63094">
        <ele>1353.8</ele>
        <time>2023-08-21T08:18:45Z</time>
      </trkpt>
      <trkpt lat="45.70364" lon="6.63093">
        <ele>1353.8</ele>
        <time>2023-08-21T08:18:46Z</time>
      </trkpt>
      <trkpt lat="45.70362" lon="6.63093">
        <ele>1353.8</ele>
        <time>2023-08-21T08:18:47Z</time>
      </trkpt>
      <trkpt lat="45.70359" lon="6.63094">
        <ele>1354.4</ele>
        <time>2023-08-21T08:18:48Z</time>
      </trkpt>
      <trkpt lat="45.70358" lon="6.63094">
        <ele>1354.4</ele>
        <time>2023-08-21T08:18:49Z</time>
      </trkpt>
      <trkpt lat="45.70356" lon="6.63095">
        <ele>1354.4</ele>
        <time>2023-08-21T08:18:50Z</time>
      </trkpt>
      <trkpt lat="45.70354" lon="6.63095">
        <ele>1354.6</ele>
        <time>2023-08-21T08:18:51Z</time>
      </trkpt>
      <trkpt lat="45.70351" lon="6.63096">
        <ele>1354.6</ele>
        <time>2023-08-21T08:18:52Z</time>
      </trkpt>
      <trkpt lat="45.70349" lon="6.63097">
        <ele>1355.2</ele>
        <time>2023-08-21T08:18:53Z</time>
      </trkpt>
      <trkpt lat="45.70347" lon="6.63098">
        <ele>1355.2</ele>
        <time>2023-08-21T08:18:54Z</time>
      </trkpt>
      <trkpt lat="45.70345" lon="6.63099">
        <ele>1355.6</ele>
        <time>2023-08-21T08:18:55Z</time>
      </trkpt>
      <trkpt lat="45.70343" lon="6.63099">
        <ele>1355.6</ele>
        <time>2023-08-21T08:18:56Z</time>
      </trkpt>
      <trkpt lat="45.70341" lon="6.631">
        <ele>1355.6</ele>
        <time>2023-08-21T08:18:57Z</time>
      </trkpt>
      <trkpt lat="45.70339" lon="6.63102">
        <ele>1355.6</ele>
        <time>2023-08-21T08:18:58Z</time>
      </trkpt>
      <trkpt lat="45.70338" lon="6.63103">
        <ele>1356.2</ele>
        <time>2023-08-21T08:18:59Z</time>
      </trkpt>
      <trkpt lat="45.70336" lon="6.63104">
        <ele>1356.2</ele>
        <time>2023-08-21T08:19:00Z</time>
      </trkpt>
      <trkpt lat="45.70334" lon="6.63104">
        <ele>1356.2</ele>
        <time>2023-08-21T08:19:01Z</time>
      </trkpt>
      <trkpt lat="45.70332" lon="6.63105">
        <ele>1356.2</ele>
        <time>2023-08-21T08:19:02Z</time>
      </trkpt>
      <trkpt lat="45.7033" lon="6.63106">
        <ele>1357</ele>
        <time>2023-08-21T08:19:03Z</time>
      </trkpt>
      <trkpt lat="45.70328" lon="6.63107">
        <ele>1357</ele>
        <time>2023-08-21T08:19:04Z</time>
      </trkpt>
      <trkpt lat="45.70327" lon="6.63107">
        <ele>1357</ele>
        <time>2023-08-21T08:19:05Z</time>
      </trkpt>
      <trkpt lat="45.70325" lon="6.63107">
        <ele>1357</ele>
        <time>2023-08-21T08:19:06Z</time>
      </trkpt>
      <trkpt lat="45.70323" lon="6.63108">
        <ele>1357.6</ele>
        <time>2023-08-21T08:19:07Z</time>
      </trkpt>
      <trkpt lat="45.70321" lon="6.6311">
        <ele>1357.6</ele>
        <time>2023-08-21T08:19:08Z</time>
      </trkpt>
      <trkpt lat="45.70319" lon="6.6311">
        <ele>1357.6</ele>
        <time>2023-08-21T08:19:09Z</time>
      </trkpt>
      <trkpt lat="45.70317" lon="6.63111">
        <ele>1357.6</ele>
        <time>2023-08-21T08:19:10Z</time>
      </trkpt>
      <trkpt lat="45.70316" lon="6.63112">
        <ele>1358.2</ele>
        <time>2023-08-21T08:19:11Z</time>
      </trkpt>
      <trkpt lat="45.70314" lon="6.63112">
        <ele>1358.2</ele>
        <time>2023-08-21T08:19:12Z</time>
      </trkpt>
      <trkpt lat="45.70312" lon="6.63113">
        <ele>1358.2</ele>
        <time>2023-08-21T08:19:13Z</time>
      </trkpt>
      <trkpt lat="45.7031" lon="6.63113">
        <ele>1358.2</ele>
        <time>2023-08-21T08:19:14Z</time>
      </trkpt>
      <trkpt lat="45.70308" lon="6.63114">
        <ele>1358.8</ele>
        <time>2023-08-21T08:19:15Z</time>
      </trkpt>
      <trkpt lat="45.70306" lon="6.63115">
        <ele>1359</ele>
        <time>2023-08-21T08:19:16Z</time>
      </trkpt>
      <trkpt lat="45.70304" lon="6.63116">
        <ele>1359</ele>
        <time>2023-08-21T08:19:17Z</time>
      </trkpt>
      <trkpt lat="45.70302" lon="6.63117">
        <ele>1359</ele>
        <time>2023-08-21T08:19:18Z</time>
      </trkpt>
      <trkpt lat="45.703" lon="6.63117">
        <ele>1359</ele>
        <time>2023-08-21T08:19:19Z</time>
      </trkpt>
      <trkpt lat="45.70298" lon="6.63118">
        <ele>1359.4</ele>
        <time>2023-08-21T08:19:20Z</time>
      </trkpt>
      <trkpt lat="45.70297" lon="6.63117">
        <ele>1359.6</ele>
        <time>2023-08-21T08:19:21Z</time>
      </trkpt>
      <trkpt lat="45.70295" lon="6.63117">
        <ele>1359.6</ele>
        <time>2023-08-21T08:19:22Z</time>
      </trkpt>
      <trkpt lat="45.70293" lon="6.63117">
        <ele>1359.6</ele>
        <time>2023-08-21T08:19:23Z</time>
      </trkpt>
      <trkpt lat="45.70291" lon="6.63118">
        <ele>1360.2</ele>
        <time>2023-08-21T08:19:24Z</time>
      </trkpt>
      <trkpt lat="45.70289" lon="6.63119">
        <ele>1360.6</ele>
        <time>2023-08-21T08:19:25Z</time>
      </trkpt>
      <trkpt lat="45.70287" lon="6.6312">
        <ele>1360.6</ele>
        <time>2023-08-21T08:19:26Z</time>
      </trkpt>
      <trkpt lat="45.70285" lon="6.63121">
        <ele>1360.6</ele>
        <time>2023-08-21T08:19:27Z</time>
      </trkpt>
      <trkpt lat="45.70283" lon="6.63121">
        <ele>1360.6</ele>
        <time>2023-08-21T08:19:28Z</time>
      </trkpt>
      <trkpt lat="45.70281" lon="6.63121">
        <ele>1360.8</ele>
        <time>2023-08-21T08:19:29Z</time>
      </trkpt>
      <trkpt lat="45.70279" lon="6.63121">
        <ele>1360.8</ele>
        <time>2023-08-21T08:19:30Z</time>
      </trkpt>
      <trkpt lat="45.70277" lon="6.63122">
        <ele>1361.2</ele>
        <time>2023-08-21T08:19:31Z</time>
      </trkpt>
      <trkpt lat="45.70275" lon="6.63122">
        <ele>1361.2</ele>
        <time>2023-08-21T08:19:32Z</time>
      </trkpt>
      <trkpt lat="45.70273" lon="6.63122">
        <ele>1361.2</ele>
        <time>2023-08-21T08:19:33Z</time>
      </trkpt>
      <trkpt lat="45.70272" lon="6.63123">
        <ele>1361.2</ele>
        <time>2023-08-21T08:19:34Z</time>
      </trkpt>
      <trkpt lat="45.7027" lon="6.63122">
        <ele>1361.8</ele>
        <time>2023-08-21T08:19:35Z</time>
      </trkpt>
      <trkpt lat="45.70268" lon="6.63122">
        <ele>1361.8</ele>
        <time>2023-08-21T08:19:36Z</time>
      </trkpt>
      <trkpt lat="45.70266" lon="6.63122">
        <ele>1361.8</ele>
        <time>2023-08-21T08:19:37Z</time>
      </trkpt>
      <trkpt lat="45.70264" lon="6.63121">
        <ele>1362.4</ele>
        <time>2023-08-21T08:19:38Z</time>
      </trkpt>
      <trkpt lat="45.70262" lon="6.63122">
        <ele>1362.4</ele>
        <time>2023-08-21T08:19:39Z</time>
      </trkpt>
      <trkpt lat="45.7026" lon="6.63122">
        <ele>1362.6</ele>
        <time>2023-08-21T08:19:40Z</time>
      </trkpt>
      <trkpt lat="45.70258" lon="6.63123">
        <ele>1362.6</ele>
        <time>2023-08-21T08:19:41Z</time>
      </trkpt>
      <trkpt lat="45.70256" lon="6.63123">
        <ele>1362.6</ele>
        <time>2023-08-21T08:19:42Z</time>
      </trkpt>
      <trkpt lat="45.70254" lon="6.63124">
        <ele>1363.2</ele>
        <time>2023-08-21T08:19:43Z</time>
      </trkpt>
      <trkpt lat="45.70252" lon="6.63125">
        <ele>1363.4</ele>
        <time>2023-08-21T08:19:44Z</time>
      </trkpt>
      <trkpt lat="45.7025" lon="6.63125">
        <ele>1363.4</ele>
        <time>2023-08-21T08:19:45Z</time>
      </trkpt>
      <trkpt lat="45.70248" lon="6.63124">
        <ele>1363.4</ele>
        <time>2023-08-21T08:19:46Z</time>
      </trkpt>
      <trkpt lat="45.70246" lon="6.63123">
        <ele>1364</ele>
        <time>2023-08-21T08:19:47Z</time>
      </trkpt>
      <trkpt lat="45.70244" lon="6.63122">
        <ele>1364</ele>
        <time>2023-08-21T08:19:48Z</time>
      </trkpt>
      <trkpt lat="45.70242" lon="6.63122">
        <ele>1364.2</ele>
        <time>2023-08-21T08:19:49Z</time>
      </trkpt>
      <trkpt lat="45.7024" lon="6.63122">
        <ele>1364.2</ele>
        <time>2023-08-21T08:19:50Z</time>
      </trkpt>
      <trkpt lat="45.70238" lon="6.63122">
        <ele>1364.2</ele>
        <time>2023-08-21T08:19:51Z</time>
      </trkpt>
      <trkpt lat="45.70236" lon="6.63122">
        <ele>1364.8</ele>
        <time>2023-08-21T08:19:52Z</time>
      </trkpt>
      <trkpt lat="45.70234" lon="6.63122">
        <ele>1365</ele>
        <time>2023-08-21T08:19:53Z</time>
      </trkpt>
      <trkpt lat="45.70232" lon="6.63122">
        <ele>1365</ele>
        <time>2023-08-21T08:19:54Z</time>
      </trkpt>
      <trkpt lat="45.70229" lon="6.63123">
        <ele>1365</ele>
        <time>2023-08-21T08:19:55Z</time>
      </trkpt>
      <trkpt lat="45.70227" lon="6.63124">
        <ele>1365.8</ele>
        <time>2023-08-21T08:19:56Z</time>
      </trkpt>
      <trkpt lat="45.70226" lon="6.63126">
        <ele>1366</ele>
        <time>2023-08-21T08:19:57Z</time>
      </trkpt>
      <trkpt lat="45.70225" lon="6.63128">
        <ele>1366</ele>
        <time>2023-08-21T08:19:58Z</time>
      </trkpt>
      <trkpt lat="45.70223" lon="6.63129">
        <ele>1366</ele>
        <time>2023-08-21T08:19:59Z</time>
      </trkpt>
      <trkpt lat="45.70221" lon="6.63131">
        <ele>1366</ele>
        <time>2023-08-21T08:20:00Z</time>
      </trkpt>
      <trkpt lat="45.7022" lon="6.63133">
        <ele>1366.6</ele>
        <time>2023-08-21T08:20:01Z</time>
      </trkpt>
      <trkpt lat="45.70218" lon="6.63134">
        <ele>1366.6</ele>
        <time>2023-08-21T08:20:02Z</time>
      </trkpt>
      <trkpt lat="45.70216" lon="6.63135">
        <ele>1366.6</ele>
        <time>2023-08-21T08:20:03Z</time>
      </trkpt>
      <trkpt lat="45.70215" lon="6.63137">
        <ele>1366.6</ele>
        <time>2023-08-21T08:20:04Z</time>
      </trkpt>
      <trkpt lat="45.70214" lon="6.63137">
        <ele>1367</ele>
        <time>2023-08-21T08:20:05Z</time>
      </trkpt>
      <trkpt lat="45.70212" lon="6.63137">
        <ele>1367.2</ele>
        <time>2023-08-21T08:20:06Z</time>
      </trkpt>
      <trkpt lat="45.7021" lon="6.63138">
        <ele>1367.2</ele>
        <time>2023-08-21T08:20:07Z</time>
      </trkpt>
      <trkpt lat="45.70208" lon="6.63139">
        <ele>1367.2</ele>
        <time>2023-08-21T08:20:08Z</time>
      </trkpt>
      <trkpt lat="45.70206" lon="6.63139">
        <ele>1367.2</ele>
        <time>2023-08-21T08:20:09Z</time>
      </trkpt>
      <trkpt lat="45.70203" lon="6.6314">
        <ele>1368</ele>
        <time>2023-08-21T08:20:10Z</time>
      </trkpt>
      <trkpt lat="45.70201" lon="6.6314">
        <ele>1368</ele>
        <time>2023-08-21T08:20:11Z</time>
      </trkpt>
      <trkpt lat="45.70199" lon="6.63139">
        <ele>1368</ele>
        <time>2023-08-21T08:20:12Z</time>
      </trkpt>
      <trkpt lat="45.70197" lon="6.63139">
        <ele>1368</ele>
        <time>2023-08-21T08:20:13Z</time>
      </trkpt>
      <trkpt lat="45.70195" lon="6.63138">
        <ele>1368.8</ele>
        <time>2023-08-21T08:20:14Z</time>
      </trkpt>
      <trkpt lat="45.70193" lon="6.63138">
        <ele>1368.8</ele>
        <time>2023-08-21T08:20:15Z</time>
      </trkpt>
      <trkpt lat="45.70192" lon="6.63138">
        <ele>1368.8</ele>
        <time>2023-08-21T08:20:16Z</time>
      </trkpt>
      <trkpt lat="45.70189" lon="6.63138">
        <ele>1368.8</ele>
        <time>2023-08-21T08:20:17Z</time>
      </trkpt>
      <trkpt lat="45.70187" lon="6.63137">
        <ele>1368.8</ele>
        <time>2023-08-21T08:20:18Z</time>
      </trkpt>
      <trkpt lat="45.70185" lon="6.63137">
        <ele>1369.4</ele>
        <time>2023-08-21T08:20:19Z</time>
      </trkpt>
      <trkpt lat="45.70183" lon="6.63138">
        <ele>1369.4</ele>
        <time>2023-08-21T08:20:20Z</time>
      </trkpt>
      <trkpt lat="45.70181" lon="6.63137">
        <ele>1369.6</ele>
        <time>2023-08-21T08:20:21Z</time>
      </trkpt>
      <trkpt lat="45.70179" lon="6.63137">
        <ele>1369.6</ele>
        <time>2023-08-21T08:20:22Z</time>
      </trkpt>
      <trkpt lat="45.70178" lon="6.63136">
        <ele>1370.2</ele>
        <time>2023-08-21T08:20:23Z</time>
      </trkpt>
      <trkpt lat="45.70176" lon="6.63135">
        <ele>1370.2</ele>
        <time>2023-08-21T08:20:24Z</time>
      </trkpt>
      <trkpt lat="45.70174" lon="6.63134">
        <ele>1370.4</ele>
        <time>2023-08-21T08:20:25Z</time>
      </trkpt>
      <trkpt lat="45.70171" lon="6.63133">
        <ele>1370.4</ele>
        <time>2023-08-21T08:20:26Z</time>
      </trkpt>
      <trkpt lat="45.7017" lon="6.63131">
        <ele>1370.4</ele>
        <time>2023-08-21T08:20:27Z</time>
      </trkpt>
      <trkpt lat="45.70167" lon="6.63129">
        <ele>1370.4</ele>
        <time>2023-08-21T08:20:28Z</time>
      </trkpt>
      <trkpt lat="45.70165" lon="6.63128">
        <ele>1370.8</ele>
        <time>2023-08-21T08:20:29Z</time>
      </trkpt>
      <trkpt lat="45.70163" lon="6.63127">
        <ele>1370.8</ele>
        <time>2023-08-21T08:20:30Z</time>
      </trkpt>
      <trkpt lat="45.70162" lon="6.63126">
        <ele>1370.8</ele>
        <time>2023-08-21T08:20:31Z</time>
      </trkpt>
      <trkpt lat="45.7016" lon="6.63125">
        <ele>1371.4</ele>
        <time>2023-08-21T08:20:32Z</time>
      </trkpt>
      <trkpt lat="45.70158" lon="6.63124">
        <ele>1371.8</ele>
        <time>2023-08-21T08:20:33Z</time>
      </trkpt>
      <trkpt lat="45.70156" lon="6.63122">
        <ele>1371.8</ele>
        <time>2023-08-21T08:20:34Z</time>
      </trkpt>
      <trkpt lat="45.70154" lon="6.63121">
        <ele>1371.8</ele>
        <time>2023-08-21T08:20:35Z</time>
      </trkpt>
      <trkpt lat="45.70152" lon="6.6312">
        <ele>1372.2</ele>
        <time>2023-08-21T08:20:36Z</time>
      </trkpt>
      <trkpt lat="45.7015" lon="6.63119">
        <ele>1372.4</ele>
        <time>2023-08-21T08:20:37Z</time>
      </trkpt>
      <trkpt lat="45.70148" lon="6.63118">
        <ele>1372.4</ele>
        <time>2023-08-21T08:20:38Z</time>
      </trkpt>
      <trkpt lat="45.70146" lon="6.63117">
        <ele>1372.4</ele>
        <time>2023-08-21T08:20:39Z</time>
      </trkpt>
      <trkpt lat="45.70143" lon="6.63116">
        <ele>1372.4</ele>
        <time>2023-08-21T08:20:40Z</time>
      </trkpt>
      <trkpt lat="45.70141" lon="6.63115">
        <ele>1373</ele>
        <time>2023-08-21T08:20:41Z</time>
      </trkpt>
      <trkpt lat="45.7014" lon="6.63114">
        <ele>1373</ele>
        <time>2023-08-21T08:20:42Z</time>
      </trkpt>
      <trkpt lat="45.70138" lon="6.63115">
        <ele>1373</ele>
        <time>2023-08-21T08:20:43Z</time>
      </trkpt>
      <trkpt lat="45.70136" lon="6.63114">
        <ele>1373</ele>
        <time>2023-08-21T08:20:44Z</time>
      </trkpt>
      <trkpt lat="45.70134" lon="6.63114">
        <ele>1373.6</ele>
        <time>2023-08-21T08:20:45Z</time>
      </trkpt>
      <trkpt lat="45.70132" lon="6.63114">
        <ele>1373.6</ele>
        <time>2023-08-21T08:20:46Z</time>
      </trkpt>
      <trkpt lat="45.70129" lon="6.63113">
        <ele>1373.8</ele>
        <time>2023-08-21T08:20:47Z</time>
      </trkpt>
      <trkpt lat="45.70127" lon="6.63112">
        <ele>1373.8</ele>
        <time>2023-08-21T08:20:48Z</time>
      </trkpt>
      <trkpt lat="45.70125" lon="6.63112">
        <ele>1374.4</ele>
        <time>2023-08-21T08:20:49Z</time>
      </trkpt>
      <trkpt lat="45.70123" lon="6.63111">
        <ele>1374.6</ele>
        <time>2023-08-21T08:20:50Z</time>
      </trkpt>
      <trkpt lat="45.70121" lon="6.63111">
        <ele>1374.6</ele>
        <time>2023-08-21T08:20:51Z</time>
      </trkpt>
      <trkpt lat="45.70119" lon="6.6311">
        <ele>1374.6</ele>
        <time>2023-08-21T08:20:52Z</time>
      </trkpt>
      <trkpt lat="45.70117" lon="6.6311">
        <ele>1374.6</ele>
        <time>2023-08-21T08:20:53Z</time>
      </trkpt>
      <trkpt lat="45.70115" lon="6.6311">
        <ele>1375.2</ele>
        <time>2023-08-21T08:20:54Z</time>
      </trkpt>
      <trkpt lat="45.70113" lon="6.63109">
        <ele>1375.4</ele>
        <time>2023-08-21T08:20:55Z</time>
      </trkpt>
      <trkpt lat="45.70111" lon="6.63108">
        <ele>1375.4</ele>
        <time>2023-08-21T08:20:56Z</time>
      </trkpt>
      <trkpt lat="45.70109" lon="6.63107">
        <ele>1375.4</ele>
        <time>2023-08-21T08:20:57Z</time>
      </trkpt>
      <trkpt lat="45.70108" lon="6.63106">
        <ele>1375.4</ele>
        <time>2023-08-21T08:20:58Z</time>
      </trkpt>
      <trkpt lat="45.70106" lon="6.63106">
        <ele>1375.4</ele>
        <time>2023-08-21T08:20:59Z</time>
      </trkpt>
      <trkpt lat="45.70104" lon="6.63105">
        <ele>1376.2</ele>
        <time>2023-08-21T08:21:00Z</time>
      </trkpt>
      <trkpt lat="45.70102" lon="6.63104">
        <ele>1376.2</ele>
        <time>2023-08-21T08:21:01Z</time>
      </trkpt>
      <trkpt lat="45.70099" lon="6.63103">
        <ele>1376.2</ele>
        <time>2023-08-21T08:21:02Z</time>
      </trkpt>
      <trkpt lat="45.70097" lon="6.63102">
        <ele>1376.2</ele>
        <time>2023-08-21T08:21:03Z</time>
      </trkpt>
      <trkpt lat="45.70095" lon="6.63102">
        <ele>1377</ele>
        <time>2023-08-21T08:21:04Z</time>
      </trkpt>
      <trkpt lat="45.70093" lon="6.63101">
        <ele>1377</ele>
        <time>2023-08-21T08:21:05Z</time>
      </trkpt>
      <trkpt lat="45.70091" lon="6.63099">
        <ele>1377</ele>
        <time>2023-08-21T08:21:06Z</time>
      </trkpt>
      <trkpt lat="45.70089" lon="6.63098">
        <ele>1377</ele>
        <time>2023-08-21T08:21:07Z</time>
      </trkpt>
      <trkpt lat="45.70087" lon="6.63097">
        <ele>1377.6</ele>
        <time>2023-08-21T08:21:08Z</time>
      </trkpt>
      <trkpt lat="45.70085" lon="6.63096">
        <ele>1377.6</ele>
        <time>2023-08-21T08:21:09Z</time>
      </trkpt>
      <trkpt lat="45.70083" lon="6.63096">
        <ele>1377.6</ele>
        <time>2023-08-21T08:21:10Z</time>
      </trkpt>
      <trkpt lat="45.70081" lon="6.63096">
        <ele>1377.6</ele>
        <time>2023-08-21T08:21:11Z</time>
      </trkpt>
      <trkpt lat="45.70079" lon="6.63096">
        <ele>1378.4</ele>
        <time>2023-08-21T08:21:12Z</time>
      </trkpt>
      <trkpt lat="45.70077" lon="6.63096">
        <ele>1378.4</ele>
        <time>2023-08-21T08:21:13Z</time>
      </trkpt>
      <trkpt lat="45.70075" lon="6.63095">
        <ele>1378.6</ele>
        <time>2023-08-21T08:21:14Z</time>
      </trkpt>
      <trkpt lat="45.70073" lon="6.63094">
        <ele>1378.6</ele>
        <time>2023-08-21T08:21:15Z</time>
      </trkpt>
      <trkpt lat="45.70071" lon="6.63093">
        <ele>1378.6</ele>
        <time>2023-08-21T08:21:16Z</time>
      </trkpt>
      <trkpt lat="45.70069" lon="6.63092">
        <ele>1379</ele>
        <time>2023-08-21T08:21:17Z</time>
      </trkpt>
      <trkpt lat="45.70067" lon="6.63091">
        <ele>1379</ele>
        <time>2023-08-21T08:21:18Z</time>
      </trkpt>
      <trkpt lat="45.70064" lon="6.6309">
        <ele>1379.2</ele>
        <time>2023-08-21T08:21:19Z</time>
      </trkpt>
      <trkpt lat="45.70062" lon="6.63089">
        <ele>1379.2</ele>
        <time>2023-08-21T08:21:20Z</time>
      </trkpt>
      <trkpt lat="45.7006" lon="6.63088">
        <ele>1379.2</ele>
        <time>2023-08-21T08:21:21Z</time>
      </trkpt>
      <trkpt lat="45.70058" lon="6.63087">
        <ele>1379.8</ele>
        <time>2023-08-21T08:21:22Z</time>
      </trkpt>
      <trkpt lat="45.70056" lon="6.63085">
        <ele>1379.8</ele>
        <time>2023-08-21T08:21:23Z</time>
      </trkpt>
      <trkpt lat="45.70054" lon="6.63083">
        <ele>1379.8</ele>
        <time>2023-08-21T08:21:24Z</time>
      </trkpt>
      <trkpt lat="45.70052" lon="6.63082">
        <ele>1380.4</ele>
        <time>2023-08-21T08:21:25Z</time>
      </trkpt>
      <trkpt lat="45.7005" lon="6.63081">
        <ele>1380.4</ele>
        <time>2023-08-21T08:21:26Z</time>
      </trkpt>
      <trkpt lat="45.70048" lon="6.63079">
        <ele>1380.8</ele>
        <time>2023-08-21T08:21:27Z</time>
      </trkpt>
      <trkpt lat="45.70046" lon="6.63077">
        <ele>1380.8</ele>
        <time>2023-08-21T08:21:28Z</time>
      </trkpt>
      <trkpt lat="45.70044" lon="6.63076">
        <ele>1380.8</ele>
        <time>2023-08-21T08:21:29Z</time>
      </trkpt>
      <trkpt lat="45.70043" lon="6.63074">
        <ele>1380.8</ele>
        <time>2023-08-21T08:21:30Z</time>
      </trkpt>
      <trkpt lat="45.70041" lon="6.63073">
        <ele>1381.4</ele>
        <time>2023-08-21T08:21:31Z</time>
      </trkpt>
      <trkpt lat="45.70039" lon="6.63071">
        <ele>1381.4</ele>
        <time>2023-08-21T08:21:32Z</time>
      </trkpt>
      <trkpt lat="45.70038" lon="6.6307">
        <ele>1381.4</ele>
        <time>2023-08-21T08:21:33Z</time>
      </trkpt>
      <trkpt lat="45.70036" lon="6.63068">
        <ele>1382</ele>
        <time>2023-08-21T08:21:34Z</time>
      </trkpt>
      <trkpt lat="45.70035" lon="6.63066">
        <ele>1382</ele>
        <time>2023-08-21T08:21:35Z</time>
      </trkpt>
      <trkpt lat="45.70033" lon="6.63065">
        <ele>1382.4</ele>
        <time>2023-08-21T08:21:36Z</time>
      </trkpt>
      <trkpt lat="45.70031" lon="6.63063">
        <ele>1382.4</ele>
        <time>2023-08-21T08:21:37Z</time>
      </trkpt>
      <trkpt lat="45.70029" lon="6.63062">
        <ele>1382.8</ele>
        <time>2023-08-21T08:21:38Z</time>
      </trkpt>
      <trkpt lat="45.70028" lon="6.63061">
        <ele>1382.8</ele>
        <time>2023-08-21T08:21:39Z</time>
      </trkpt>
      <trkpt lat="45.70026" lon="6.6306">
        <ele>1383.2</ele>
        <time>2023-08-21T08:21:40Z</time>
      </trkpt>
      <trkpt lat="45.70025" lon="6.6306">
        <ele>1383.2</ele>
        <time>2023-08-21T08:21:41Z</time>
      </trkpt>
      <trkpt lat="45.70023" lon="6.63061">
        <ele>1383.2</ele>
        <time>2023-08-21T08:21:42Z</time>
      </trkpt>
      <trkpt lat="45.70021" lon="6.63061">
        <ele>1383.2</ele>
        <time>2023-08-21T08:21:43Z</time>
      </trkpt>
      <trkpt lat="45.7002" lon="6.63063">
        <ele>1383.2</ele>
        <time>2023-08-21T08:21:44Z</time>
      </trkpt>
      <trkpt lat="45.70019" lon="6.63065">
        <ele>1383.6</ele>
        <time>2023-08-21T08:21:45Z</time>
      </trkpt>
      <trkpt lat="45.70018" lon="6.63068">
        <ele>1383.6</ele>
        <time>2023-08-21T08:21:46Z</time>
      </trkpt>
      <trkpt lat="45.70017" lon="6.63071">
        <ele>1383.6</ele>
        <time>2023-08-21T08:21:47Z</time>
      </trkpt>
      <trkpt lat="45.70017" lon="6.63075">
        <ele>1384.2</ele>
        <time>2023-08-21T08:21:48Z</time>
      </trkpt>
      <trkpt lat="45.70017" lon="6.63078">
        <ele>1384.4</ele>
        <time>2023-08-21T08:21:49Z</time>
      </trkpt>
      <trkpt lat="45.70017" lon="6.63081">
        <ele>1384.4</ele>
        <time>2023-08-21T08:21:50Z</time>
      </trkpt>
      <trkpt lat="45.70018" lon="6.63085">
        <ele>1384.4</ele>
        <time>2023-08-21T08:21:51Z</time>
      </trkpt>
      <trkpt lat="45.70019" lon="6.63087">
        <ele>1385</ele>
        <time>2023-08-21T08:21:52Z</time>
      </trkpt>
      <trkpt lat="45.7002" lon="6.6309">
        <ele>1385</ele>
        <time>2023-08-21T08:21:53Z</time>
      </trkpt>
      <trkpt lat="45.70021" lon="6.63093">
        <ele>1385</ele>
        <time>2023-08-21T08:21:54Z</time>
      </trkpt>
      <trkpt lat="45.70022" lon="6.63095">
        <ele>1385</ele>
        <time>2023-08-21T08:21:55Z</time>
      </trkpt>
      <trkpt lat="45.70023" lon="6.63097">
        <ele>1385</ele>
        <time>2023-08-21T08:21:56Z</time>
      </trkpt>
      <trkpt lat="45.70025" lon="6.63099">
        <ele>1385.6</ele>
        <time>2023-08-21T08:21:57Z</time>
      </trkpt>
      <trkpt lat="45.70027" lon="6.63101">
        <ele>1385.8</ele>
        <time>2023-08-21T08:21:58Z</time>
      </trkpt>
      <trkpt lat="45.70028" lon="6.63103">
        <ele>1385.8</ele>
        <time>2023-08-21T08:21:59Z</time>
      </trkpt>
      <trkpt lat="45.7003" lon="6.63105">
        <ele>1385.8</ele>
        <time>2023-08-21T08:22:00Z</time>
      </trkpt>
      <trkpt lat="45.70031" lon="6.63106">
        <ele>1385.8</ele>
        <time>2023-08-21T08:22:01Z</time>
      </trkpt>
      <trkpt lat="45.70033" lon="6.63108">
        <ele>1386.4</ele>
        <time>2023-08-21T08:22:02Z</time>
      </trkpt>
      <trkpt lat="45.70035" lon="6.63109">
        <ele>1386.4</ele>
        <time>2023-08-21T08:22:03Z</time>
      </trkpt>
      <trkpt lat="45.70037" lon="6.6311">
        <ele>1386.4</ele>
        <time>2023-08-21T08:22:04Z</time>
      </trkpt>
      <trkpt lat="45.70039" lon="6.63111">
        <ele>1386.4</ele>
        <time>2023-08-21T08:22:05Z</time>
      </trkpt>
      <trkpt lat="45.7004" lon="6.63113">
        <ele>1386.8</ele>
        <time>2023-08-21T08:22:06Z</time>
      </trkpt>
      <trkpt lat="45.70041" lon="6.63114">
        <ele>1387.2</ele>
        <time>2023-08-21T08:22:07Z</time>
      </trkpt>
      <trkpt lat="45.70043" lon="6.63115">
        <ele>1387.2</ele>
        <time>2023-08-21T08:22:08Z</time>
      </trkpt>
      <trkpt lat="45.70045" lon="6.63116">
        <ele>1387.2</ele>
        <time>2023-08-21T08:22:09Z</time>
      </trkpt>
      <trkpt lat="45.70047" lon="6.63117">
        <ele>1387.8</ele>
        <time>2023-08-21T08:22:10Z</time>
      </trkpt>
      <trkpt lat="45.70048" lon="6.63118">
        <ele>1388</ele>
        <time>2023-08-21T08:22:11Z</time>
      </trkpt>
      <trkpt lat="45.7005" lon="6.63119">
        <ele>1388</ele>
        <time>2023-08-21T08:22:12Z</time>
      </trkpt>
      <trkpt lat="45.70051" lon="6.6312">
        <ele>1388</ele>
        <time>2023-08-21T08:22:13Z</time>
      </trkpt>
      <trkpt lat="45.70053" lon="6.63121">
        <ele>1388.6</ele>
        <time>2023-08-21T08:22:14Z</time>
      </trkpt>
      <trkpt lat="45.70054" lon="6.63122">
        <ele>1388.8</ele>
        <time>2023-08-21T08:22:15Z</time>
      </trkpt>
      <trkpt lat="45.70057" lon="6.63123">
        <ele>1388.8</ele>
        <time>2023-08-21T08:22:16Z</time>
      </trkpt>
      <trkpt lat="45.70059" lon="6.63125">
        <ele>1388.8</ele>
        <time>2023-08-21T08:22:17Z</time>
      </trkpt>
      <trkpt lat="45.70061" lon="6.63127">
        <ele>1388.8</ele>
        <time>2023-08-21T08:22:18Z</time>
      </trkpt>
      <trkpt lat="45.70062" lon="6.63127">
        <ele>1389.2</ele>
        <time>2023-08-21T08:22:19Z</time>
      </trkpt>
      <trkpt lat="45.70064" lon="6.63129">
        <ele>1389.4</ele>
        <time>2023-08-21T08:22:20Z</time>
      </trkpt>
      <trkpt lat="45.70065" lon="6.63131">
        <ele>1389.4</ele>
        <time>2023-08-21T08:22:21Z</time>
      </trkpt>
      <trkpt lat="45.70067" lon="6.63133">
        <ele>1389.4</ele>
        <time>2023-08-21T08:22:22Z</time>
      </trkpt>
      <trkpt lat="45.70068" lon="6.63134">
        <ele>1389.4</ele>
        <time>2023-08-21T08:22:23Z</time>
      </trkpt>
      <trkpt lat="45.70069" lon="6.63134">
        <ele>1389.4</ele>
        <time>2023-08-21T08:22:24Z</time>
      </trkpt>
      <trkpt lat="45.7007" lon="6.63135">
        <ele>1390.2</ele>
        <time>2023-08-21T08:22:25Z</time>
      </trkpt>
      <trkpt lat="45.70072" lon="6.63138">
        <ele>1390.2</ele>
        <time>2023-08-21T08:22:26Z</time>
      </trkpt>
      <trkpt lat="45.70073" lon="6.6314">
        <ele>1390.2</ele>
        <time>2023-08-21T08:22:27Z</time>
      </trkpt>
      <trkpt lat="45.70074" lon="6.63142">
        <ele>1390.8</ele>
        <time>2023-08-21T08:22:28Z</time>
      </trkpt>
      <trkpt lat="45.70075" lon="6.63143">
        <ele>1390.8</ele>
        <time>2023-08-21T08:22:29Z</time>
      </trkpt>
      <trkpt lat="45.70076" lon="6.63146">
        <ele>1391</ele>
        <time>2023-08-21T08:22:30Z</time>
      </trkpt>
      <trkpt lat="45.70078" lon="6.63148">
        <ele>1391</ele>
        <time>2023-08-21T08:22:31Z</time>
      </trkpt>
      <trkpt lat="45.70079" lon="6.6315">
        <ele>1391</ele>
        <time>2023-08-21T08:22:32Z</time>
      </trkpt>
      <trkpt lat="45.70081" lon="6.63153">
        <ele>1391.8</ele>
        <time>2023-08-21T08:22:33Z</time>
      </trkpt>
      <trkpt lat="45.70082" lon="6.63155">
        <ele>1391.8</ele>
        <time>2023-08-21T08:22:34Z</time>
      </trkpt>
      <trkpt lat="45.70084" lon="6.63156">
        <ele>1391.8</ele>
        <time>2023-08-21T08:22:35Z</time>
      </trkpt>
      <trkpt lat="45.70085" lon="6.63158">
        <ele>1391.8</ele>
        <time>2023-08-21T08:22:36Z</time>
      </trkpt>
      <trkpt lat="45.70087" lon="6.63159">
        <ele>1392.4</ele>
        <time>2023-08-21T08:22:37Z</time>
      </trkpt>
      <trkpt lat="45.70088" lon="6.63162">
        <ele>1392.6</ele>
        <time>2023-08-21T08:22:38Z</time>
      </trkpt>
      <trkpt lat="45.7009" lon="6.63163">
        <ele>1392.6</ele>
        <time>2023-08-21T08:22:39Z</time>
      </trkpt>
      <trkpt lat="45.70091" lon="6.63165">
        <ele>1392.6</ele>
        <time>2023-08-21T08:22:40Z</time>
      </trkpt>
      <trkpt lat="45.70092" lon="6.63166">
        <ele>1392.6</ele>
        <time>2023-08-21T08:22:41Z</time>
      </trkpt>
      <trkpt lat="45.70093" lon="6.63167">
        <ele>1393.2</ele>
        <time>2023-08-21T08:22:42Z</time>
      </trkpt>
      <trkpt lat="45.70095" lon="6.63168">
        <ele>1393.6</ele>
        <time>2023-08-21T08:22:43Z</time>
      </trkpt>
      <trkpt lat="45.70096" lon="6.63169">
        <ele>1393.6</ele>
        <time>2023-08-21T08:22:44Z</time>
      </trkpt>
      <trkpt lat="45.70098" lon="6.6317">
        <ele>1393.6</ele>
        <time>2023-08-21T08:22:45Z</time>
      </trkpt>
      <trkpt lat="45.70099" lon="6.6317">
        <ele>1393.6</ele>
        <time>2023-08-21T08:22:46Z</time>
      </trkpt>
      <trkpt lat="45.70101" lon="6.63171">
        <ele>1394.2</ele>
        <time>2023-08-21T08:22:47Z</time>
      </trkpt>
      <trkpt lat="45.70103" lon="6.63172">
        <ele>1394.2</ele>
        <time>2023-08-21T08:22:48Z</time>
      </trkpt>
      <trkpt lat="45.70105" lon="6.63173">
        <ele>1394.2</ele>
        <time>2023-08-21T08:22:49Z</time>
      </trkpt>
      <trkpt lat="45.70107" lon="6.63174">
        <ele>1394.8</ele>
        <time>2023-08-21T08:22:50Z</time>
      </trkpt>
      <trkpt lat="45.70109" lon="6.63175">
        <ele>1394.8</ele>
        <time>2023-08-21T08:22:51Z</time>
      </trkpt>
      <trkpt lat="45.70111" lon="6.63175">
        <ele>1394.8</ele>
        <time>2023-08-21T08:22:52Z</time>
      </trkpt>
      <trkpt lat="45.70113" lon="6.63176">
        <ele>1394.8</ele>
        <time>2023-08-21T08:22:53Z</time>
      </trkpt>
      <trkpt lat="45.70115" lon="6.63176">
        <ele>1394.8</ele>
        <time>2023-08-21T08:22:54Z</time>
      </trkpt>
      <trkpt lat="45.70117" lon="6.63176">
        <ele>1394.8</ele>
        <time>2023-08-21T08:22:55Z</time>
      </trkpt>
      <trkpt lat="45.70119" lon="6.63177">
        <ele>1395.6</ele>
        <time>2023-08-21T08:22:56Z</time>
      </trkpt>
      <trkpt lat="45.70121" lon="6.63178">
        <ele>1395.6</ele>
        <time>2023-08-21T08:22:57Z</time>
      </trkpt>
      <trkpt lat="45.70123" lon="6.63179">
        <ele>1395.6</ele>
        <time>2023-08-21T08:22:58Z</time>
      </trkpt>
      <trkpt lat="45.70125" lon="6.6318">
        <ele>1395.6</ele>
        <time>2023-08-21T08:22:59Z</time>
      </trkpt>
      <trkpt lat="45.70128" lon="6.63181">
        <ele>1395.6</ele>
        <time>2023-08-21T08:23:00Z</time>
      </trkpt>
      <trkpt lat="45.7013" lon="6.63182">
        <ele>1396</ele>
        <time>2023-08-21T08:23:01Z</time>
      </trkpt>
      <trkpt lat="45.70132" lon="6.63184">
        <ele>1396</ele>
        <time>2023-08-21T08:23:02Z</time>
      </trkpt>
      <trkpt lat="45.70134" lon="6.63184">
        <ele>1396.8</ele>
        <time>2023-08-21T08:23:03Z</time>
      </trkpt>
      <trkpt lat="45.70136" lon="6.63186">
        <ele>1396.8</ele>
        <time>2023-08-21T08:23:04Z</time>
      </trkpt>
      <trkpt lat="45.70138" lon="6.63188">
        <ele>1396.8</ele>
        <time>2023-08-21T08:23:05Z</time>
      </trkpt>
      <trkpt lat="45.70139" lon="6.63189">
        <ele>1396.8</ele>
        <time>2023-08-21T08:23:06Z</time>
      </trkpt>
      <trkpt lat="45.70141" lon="6.63191">
        <ele>1396.8</ele>
        <time>2023-08-21T08:23:07Z</time>
      </trkpt>
      <trkpt lat="45.70143" lon="6.63192">
        <ele>1396.8</ele>
        <time>2023-08-21T08:23:08Z</time>
      </trkpt>
      <trkpt lat="45.70145" lon="6.63192">
        <ele>1396.8</ele>
        <time>2023-08-21T08:23:09Z</time>
      </trkpt>
      <trkpt lat="45.70147" lon="6.63193">
        <ele>1397.6</ele>
        <time>2023-08-21T08:23:10Z</time>
      </trkpt>
      <trkpt lat="45.70149" lon="6.63194">
        <ele>1397.6</ele>
        <time>2023-08-21T08:23:11Z</time>
      </trkpt>
      <trkpt lat="45.7015" lon="6.63195">
        <ele>1397.6</ele>
        <time>2023-08-21T08:23:12Z</time>
      </trkpt>
      <trkpt lat="45.70152" lon="6.63196">
        <ele>1398</ele>
        <time>2023-08-21T08:23:13Z</time>
      </trkpt>
      <trkpt lat="45.70153" lon="6.63197">
        <ele>1398</ele>
        <time>2023-08-21T08:23:14Z</time>
      </trkpt>
      <trkpt lat="45.70155" lon="6.63199">
        <ele>1398</ele>
        <time>2023-08-21T08:23:15Z</time>
      </trkpt>
      <trkpt lat="45.70157" lon="6.632">
        <ele>1398.4</ele>
        <time>2023-08-21T08:23:16Z</time>
      </trkpt>
      <trkpt lat="45.70159" lon="6.63201">
        <ele>1398.4</ele>
        <time>2023-08-21T08:23:17Z</time>
      </trkpt>
      <trkpt lat="45.70161" lon="6.63202">
        <ele>1398.8</ele>
        <time>2023-08-21T08:23:18Z</time>
      </trkpt>
      <trkpt lat="45.70162" lon="6.63202">
        <ele>1399</ele>
        <time>2023-08-21T08:23:19Z</time>
      </trkpt>
      <trkpt lat="45.70164" lon="6.63203">
        <ele>1399</ele>
        <time>2023-08-21T08:23:20Z</time>
      </trkpt>
      <trkpt lat="45.70166" lon="6.63204">
        <ele>1399</ele>
        <time>2023-08-21T08:23:21Z</time>
      </trkpt>
      <trkpt lat="45.70168" lon="6.63205">
        <ele>1399</ele>
        <time>2023-08-21T08:23:22Z</time>
      </trkpt>
      <trkpt lat="45.7017" lon="6.63206">
        <ele>1399.4</ele>
        <time>2023-08-21T08:23:23Z</time>
      </trkpt>
      <trkpt lat="45.70172" lon="6.63206">
        <ele>1399.4</ele>
        <time>2023-08-21T08:23:24Z</time>
      </trkpt>
      <trkpt lat="45.70174" lon="6.63207">
        <ele>1399.4</ele>
        <time>2023-08-21T08:23:25Z</time>
      </trkpt>
      <trkpt lat="45.70176" lon="6.63207">
        <ele>1400.2</ele>
        <time>2023-08-21T08:23:26Z</time>
      </trkpt>
      <trkpt lat="45.70177" lon="6.63209">
        <ele>1400.2</ele>
        <time>2023-08-21T08:23:27Z</time>
      </trkpt>
      <trkpt lat="45.70179" lon="6.6321">
        <ele>1400.4</ele>
        <time>2023-08-21T08:23:28Z</time>
      </trkpt>
      <trkpt lat="45.70181" lon="6.6321">
        <ele>1400.4</ele>
        <time>2023-08-21T08:23:29Z</time>
      </trkpt>
      <trkpt lat="45.70184" lon="6.63211">
        <ele>1400.4</ele>
        <time>2023-08-21T08:23:30Z</time>
      </trkpt>
      <trkpt lat="45.70185" lon="6.63211">
        <ele>1401</ele>
        <time>2023-08-21T08:23:31Z</time>
      </trkpt>
      <trkpt lat="45.70187" lon="6.63212">
        <ele>1401</ele>
        <time>2023-08-21T08:23:32Z</time>
      </trkpt>
      <trkpt lat="45.70189" lon="6.63213">
        <ele>1401</ele>
        <time>2023-08-21T08:23:33Z</time>
      </trkpt>
      <trkpt lat="45.70191" lon="6.63214">
        <ele>1401</ele>
        <time>2023-08-21T08:23:34Z</time>
      </trkpt>
      <trkpt lat="45.70193" lon="6.63214">
        <ele>1401.6</ele>
        <time>2023-08-21T08:23:35Z</time>
      </trkpt>
      <trkpt lat="45.70195" lon="6.63215">
        <ele>1401.8</ele>
        <time>2023-08-21T08:23:36Z</time>
      </trkpt>
      <trkpt lat="45.70196" lon="6.63214">
        <ele>1401.8</ele>
        <time>2023-08-21T08:23:37Z</time>
      </trkpt>
      <trkpt lat="45.70199" lon="6.63215">
        <ele>1401.8</ele>
        <time>2023-08-21T08:23:38Z</time>
      </trkpt>
      <trkpt lat="45.70201" lon="6.63214">
        <ele>1401.8</ele>
        <time>2023-08-21T08:23:39Z</time>
      </trkpt>
      <trkpt lat="45.70202" lon="6.63214">
        <ele>1402.4</ele>
        <time>2023-08-21T08:23:40Z</time>
      </trkpt>
      <trkpt lat="45.70204" lon="6.63214">
        <ele>1402.4</ele>
        <time>2023-08-21T08:23:41Z</time>
      </trkpt>
      <trkpt lat="45.70206" lon="6.63215">
        <ele>1402.4</ele>
        <time>2023-08-21T08:23:42Z</time>
      </trkpt>
      <trkpt lat="45.70208" lon="6.63215">
        <ele>1402.4</ele>
        <time>2023-08-21T08:23:43Z</time>
      </trkpt>
      <trkpt lat="45.7021" lon="6.63216">
        <ele>1403</ele>
        <time>2023-08-21T08:23:44Z</time>
      </trkpt>
      <trkpt lat="45.70212" lon="6.63216">
        <ele>1403.2</ele>
        <time>2023-08-21T08:23:45Z</time>
      </trkpt>
      <trkpt lat="45.70213" lon="6.63217">
        <ele>1403.2</ele>
        <time>2023-08-21T08:23:46Z</time>
      </trkpt>
      <trkpt lat="45.70215" lon="6.63218">
        <ele>1403.2</ele>
        <time>2023-08-21T08:23:47Z</time>
      </trkpt>
      <trkpt lat="45.70216" lon="6.63219">
        <ele>1403.2</ele>
        <time>2023-08-21T08:23:48Z</time>
      </trkpt>
      <trkpt lat="45.70218" lon="6.6322">
        <ele>1403.8</ele>
        <time>2023-08-21T08:23:49Z</time>
      </trkpt>
      <trkpt lat="45.7022" lon="6.63222">
        <ele>1403.8</ele>
        <time>2023-08-21T08:23:50Z</time>
      </trkpt>
      <trkpt lat="45.70222" lon="6.63223">
        <ele>1403.8</ele>
        <time>2023-08-21T08:23:51Z</time>
      </trkpt>
      <trkpt lat="45.70224" lon="6.63223">
        <ele>1403.8</ele>
        <time>2023-08-21T08:23:52Z</time>
      </trkpt>
      <trkpt lat="45.70226" lon="6.63223">
        <ele>1403.8</ele>
        <time>2023-08-21T08:23:53Z</time>
      </trkpt>
      <trkpt lat="45.70228" lon="6.63224">
        <ele>1404.4</ele>
        <time>2023-08-21T08:23:54Z</time>
      </trkpt>
      <trkpt lat="45.70229" lon="6.63225">
        <ele>1404.4</ele>
        <time>2023-08-21T08:23:55Z</time>
      </trkpt>
      <trkpt lat="45.70231" lon="6.63226">
        <ele>1404.4</ele>
        <time>2023-08-21T08:23:56Z</time>
      </trkpt>
      <trkpt lat="45.70233" lon="6.63226">
        <ele>1404.4</ele>
        <time>2023-08-21T08:23:57Z</time>
      </trkpt>
      <trkpt lat="45.70235" lon="6.63227">
        <ele>1405.2</ele>
        <time>2023-08-21T08:23:58Z</time>
      </trkpt>
      <trkpt lat="45.70237" lon="6.63227">
        <ele>1405.2</ele>
        <time>2023-08-21T08:23:59Z</time>
      </trkpt>
      <trkpt lat="45.70239" lon="6.63228">
        <ele>1405</ele>
        <time>2023-08-21T08:24:00Z</time>
      </trkpt>
      <trkpt lat="45.70241" lon="6.63228">
        <ele>1405</ele>
        <time>2023-08-21T08:24:01Z</time>
      </trkpt>
      <trkpt lat="45.70243" lon="6.63228">
        <ele>1405.6</ele>
        <time>2023-08-21T08:24:02Z</time>
      </trkpt>
      <trkpt lat="45.70245" lon="6.63229">
        <ele>1405.8</ele>
        <time>2023-08-21T08:24:03Z</time>
      </trkpt>
      <trkpt lat="45.70247" lon="6.6323">
        <ele>1405.8</ele>
        <time>2023-08-21T08:24:04Z</time>
      </trkpt>
      <trkpt lat="45.70249" lon="6.63229">
        <ele>1405.8</ele>
        <time>2023-08-21T08:24:05Z</time>
      </trkpt>
      <trkpt lat="45.70251" lon="6.63229">
        <ele>1405.8</ele>
        <time>2023-08-21T08:24:06Z</time>
      </trkpt>
      <trkpt lat="45.70253" lon="6.63228">
        <ele>1406.6</ele>
        <time>2023-08-21T08:24:07Z</time>
      </trkpt>
      <trkpt lat="45.70255" lon="6.63228">
        <ele>1406.6</ele>
        <time>2023-08-21T08:24:08Z</time>
      </trkpt>
      <trkpt lat="45.70257" lon="6.63227">
        <ele>1406.6</ele>
        <time>2023-08-21T08:24:09Z</time>
      </trkpt>
      <trkpt lat="45.70259" lon="6.63227">
        <ele>1406.6</ele>
        <time>2023-08-21T08:24:10Z</time>
      </trkpt>
      <trkpt lat="45.70261" lon="6.63228">
        <ele>1406.6</ele>
        <time>2023-08-21T08:24:11Z</time>
      </trkpt>
      <trkpt lat="45.70263" lon="6.63227">
        <ele>1407.2</ele>
        <time>2023-08-21T08:24:12Z</time>
      </trkpt>
      <trkpt lat="45.70265" lon="6.63226">
        <ele>1407.2</ele>
        <time>2023-08-21T08:24:13Z</time>
      </trkpt>
      <trkpt lat="45.70267" lon="6.63226">
        <ele>1407.2</ele>
        <time>2023-08-21T08:24:14Z</time>
      </trkpt>
      <trkpt lat="45.70269" lon="6.63227">
        <ele>1407.2</ele>
        <time>2023-08-21T08:24:15Z</time>
      </trkpt>
      <trkpt lat="45.7027" lon="6.63227">
        <ele>1407.8</ele>
        <time>2023-08-21T08:24:16Z</time>
      </trkpt>
      <trkpt lat="45.70272" lon="6.63227">
        <ele>1408</ele>
        <time>2023-08-21T08:24:17Z</time>
      </trkpt>
      <trkpt lat="45.70274" lon="6.63227">
        <ele>1408</ele>
        <time>2023-08-21T08:24:18Z</time>
      </trkpt>
      <trkpt lat="45.70276" lon="6.63227">
        <ele>1408</ele>
        <time>2023-08-21T08:24:19Z</time>
      </trkpt>
      <trkpt lat="45.70278" lon="6.63228">
        <ele>1408.6</ele>
        <time>2023-08-21T08:24:20Z</time>
      </trkpt>
      <trkpt lat="45.7028" lon="6.63228">
        <ele>1408.8</ele>
        <time>2023-08-21T08:24:21Z</time>
      </trkpt>
      <trkpt lat="45.70282" lon="6.63228">
        <ele>1408.8</ele>
        <time>2023-08-21T08:24:22Z</time>
      </trkpt>
      <trkpt lat="45.70285" lon="6.63228">
        <ele>1408.8</ele>
        <time>2023-08-21T08:24:23Z</time>
      </trkpt>
      <trkpt lat="45.70287" lon="6.63227">
        <ele>1408.8</ele>
        <time>2023-08-21T08:24:24Z</time>
      </trkpt>
      <trkpt lat="45.70289" lon="6.63227">
        <ele>1409.2</ele>
        <time>2023-08-21T08:24:25Z</time>
      </trkpt>
      <trkpt lat="45.70291" lon="6.63226">
        <ele>1409.4</ele>
        <time>2023-08-21T08:24:26Z</time>
      </trkpt>
      <trkpt lat="45.70293" lon="6.63227">
        <ele>1409.4</ele>
        <time>2023-08-21T08:24:27Z</time>
      </trkpt>
      <trkpt lat="45.70295" lon="6.63226">
        <ele>1409.4</ele>
        <time>2023-08-21T08:24:28Z</time>
      </trkpt>
      <trkpt lat="45.70297" lon="6.63226">
        <ele>1409.4</ele>
        <time>2023-08-21T08:24:29Z</time>
      </trkpt>
      <trkpt lat="45.70299" lon="6.63226">
        <ele>1410.2</ele>
        <time>2023-08-21T08:24:30Z</time>
      </trkpt>
      <trkpt lat="45.70301" lon="6.63227">
        <ele>1410.2</ele>
        <time>2023-08-21T08:24:31Z</time>
      </trkpt>
      <trkpt lat="45.70304" lon="6.63227">
        <ele>1410.2</ele>
        <time>2023-08-21T08:24:32Z</time>
      </trkpt>
      <trkpt lat="45.70305" lon="6.63226">
        <ele>1410.2</ele>
        <time>2023-08-21T08:24:33Z</time>
      </trkpt>
      <trkpt lat="45.70307" lon="6.63226">
        <ele>1410.6</ele>
        <time>2023-08-21T08:24:34Z</time>
      </trkpt>
      <trkpt lat="45.70309" lon="6.63225">
        <ele>1410.8</ele>
        <time>2023-08-21T08:24:35Z</time>
      </trkpt>
      <trkpt lat="45.70311" lon="6.63225">
        <ele>1410.8</ele>
        <time>2023-08-21T08:24:36Z</time>
      </trkpt>
      <trkpt lat="45.70313" lon="6.63224">
        <ele>1410.8</ele>
        <time>2023-08-21T08:24:37Z</time>
      </trkpt>
      <trkpt lat="45.70315" lon="6.63223">
        <ele>1410.8</ele>
        <time>2023-08-21T08:24:38Z</time>
      </trkpt>
      <trkpt lat="45.70317" lon="6.63223">
        <ele>1411.2</ele>
        <time>2023-08-21T08:24:39Z</time>
      </trkpt>
      <trkpt lat="45.7032" lon="6.63223">
        <ele>1411.2</ele>
        <time>2023-08-21T08:24:40Z</time>
      </trkpt>
      <trkpt lat="45.70321" lon="6.63222">
        <ele>1411.2</ele>
        <time>2023-08-21T08:24:41Z</time>
      </trkpt>
      <trkpt lat="45.70323" lon="6.6322">
        <ele>1411.2</ele>
        <time>2023-08-21T08:24:42Z</time>
      </trkpt>
      <trkpt lat="45.70325" lon="6.63219">
        <ele>1412</ele>
        <time>2023-08-21T08:24:43Z</time>
      </trkpt>
      <trkpt lat="45.70327" lon="6.63219">
        <ele>1412.2</ele>
        <time>2023-08-21T08:24:44Z</time>
      </trkpt>
      <trkpt lat="45.70329" lon="6.63218">
        <ele>1412.2</ele>
        <time>2023-08-21T08:24:45Z</time>
      </trkpt>
      <trkpt lat="45.70331" lon="6.63218">
        <ele>1412.2</ele>
        <time>2023-08-21T08:24:46Z</time>
      </trkpt>
      <trkpt lat="45.70333" lon="6.63217">
        <ele>1412.2</ele>
        <time>2023-08-21T08:24:47Z</time>
      </trkpt>
      <trkpt lat="45.70335" lon="6.63216">
        <ele>1412.8</ele>
        <time>2023-08-21T08:24:48Z</time>
      </trkpt>
      <trkpt lat="45.70337" lon="6.63215">
        <ele>1413</ele>
        <time>2023-08-21T08:24:49Z</time>
      </trkpt>
      <trkpt lat="45.70339" lon="6.63215">
        <ele>1413</ele>
        <time>2023-08-21T08:24:50Z</time>
      </trkpt>
      <trkpt lat="45.70341" lon="6.63214">
        <ele>1413</ele>
        <time>2023-08-21T08:24:51Z</time>
      </trkpt>
      <trkpt lat="45.70343" lon="6.63214">
        <ele>1413.6</ele>
        <time>2023-08-21T08:24:52Z</time>
      </trkpt>
      <trkpt lat="45.70346" lon="6.63213">
        <ele>1413.8</ele>
        <time>2023-08-21T08:24:53Z</time>
      </trkpt>
      <trkpt lat="45.70348" lon="6.63212">
        <ele>1413.8</ele>
        <time>2023-08-21T08:24:54Z</time>
      </trkpt>
      <trkpt lat="45.7035" lon="6.63212">
        <ele>1413.8</ele>
        <time>2023-08-21T08:24:55Z</time>
      </trkpt>
      <trkpt lat="45.70353" lon="6.63213">
        <ele>1414.4</ele>
        <time>2023-08-21T08:24:56Z</time>
      </trkpt>
      <trkpt lat="45.70354" lon="6.63212">
        <ele>1414.4</ele>
        <time>2023-08-21T08:24:57Z</time>
      </trkpt>
      <trkpt lat="45.70356" lon="6.63212">
        <ele>1414.6</ele>
        <time>2023-08-21T08:24:58Z</time>
      </trkpt>
      <trkpt lat="45.70358" lon="6.63212">
        <ele>1414.6</ele>
        <time>2023-08-21T08:24:59Z</time>
      </trkpt>
      <trkpt lat="45.7036" lon="6.63212">
        <ele>1414.6</ele>
        <time>2023-08-21T08:25:00Z</time>
      </trkpt>
      <trkpt lat="45.70362" lon="6.63212">
        <ele>1415.2</ele>
        <time>2023-08-21T08:25:01Z</time>
      </trkpt>
      <trkpt lat="45.70365" lon="6.63211">
        <ele>1415.4</ele>
        <time>2023-08-21T08:25:02Z</time>
      </trkpt>
      <trkpt lat="45.70367" lon="6.63212">
        <ele>1415.4</ele>
        <time>2023-08-21T08:25:03Z</time>
      </trkpt>
      <trkpt lat="45.70369" lon="6.63213">
        <ele>1415.4</ele>
        <time>2023-08-21T08:25:04Z</time>
      </trkpt>
      <trkpt lat="45.70371" lon="6.63214">
        <ele>1416</ele>
        <time>2023-08-21T08:25:05Z</time>
      </trkpt>
      <trkpt lat="45.70373" lon="6.63215">
        <ele>1416.2</ele>
        <time>2023-08-21T08:25:06Z</time>
      </trkpt>
      <trkpt lat="45.70375" lon="6.63216">
        <ele>1416.2</ele>
        <time>2023-08-21T08:25:07Z</time>
      </trkpt>
      <trkpt lat="45.70376" lon="6.63216">
        <ele>1416.2</ele>
        <time>2023-08-21T08:25:08Z</time>
      </trkpt>
      <trkpt lat="45.70377" lon="6.63217">
        <ele>1416.2</ele>
        <time>2023-08-21T08:25:09Z</time>
      </trkpt>
      <trkpt lat="45.70379" lon="6.63218">
        <ele>1417</ele>
        <time>2023-08-21T08:25:10Z</time>
      </trkpt>
      <trkpt lat="45.70381" lon="6.63219">
        <ele>1417</ele>
        <time>2023-08-21T08:25:11Z</time>
      </trkpt>
      <trkpt lat="45.70383" lon="6.63221">
        <ele>1417</ele>
        <time>2023-08-21T08:25:12Z</time>
      </trkpt>
      <trkpt lat="45.70384" lon="6.63223">
        <ele>1417</ele>
        <time>2023-08-21T08:25:13Z</time>
      </trkpt>
      <trkpt lat="45.70386" lon="6.63224">
        <ele>1417.8</ele>
        <time>2023-08-21T08:25:14Z</time>
      </trkpt>
      <trkpt lat="45.70388" lon="6.63226">
        <ele>1417.8</ele>
        <time>2023-08-21T08:25:15Z</time>
      </trkpt>
      <trkpt lat="45.7039" lon="6.63227">
        <ele>1417.8</ele>
        <time>2023-08-21T08:25:16Z</time>
      </trkpt>
      <trkpt lat="45.70392" lon="6.63229">
        <ele>1418</ele>
        <time>2023-08-21T08:25:17Z</time>
      </trkpt>
      <trkpt lat="45.70394" lon="6.63231">
        <ele>1418</ele>
        <time>2023-08-21T08:25:18Z</time>
      </trkpt>
      <trkpt lat="45.70395" lon="6.63232">
        <ele>1418.6</ele>
        <time>2023-08-21T08:25:19Z</time>
      </trkpt>
      <trkpt lat="45.70397" lon="6.63233">
        <ele>1418.6</ele>
        <time>2023-08-21T08:25:20Z</time>
      </trkpt>
      <trkpt lat="45.70399" lon="6.63235">
        <ele>1418.8</ele>
        <time>2023-08-21T08:25:21Z</time>
      </trkpt>
      <trkpt lat="45.70401" lon="6.63236">
        <ele>1418.8</ele>
        <time>2023-08-21T08:25:22Z</time>
      </trkpt>
      <trkpt lat="45.70402" lon="6.63238">
        <ele>1418.8</ele>
        <time>2023-08-21T08:25:23Z</time>
      </trkpt>
      <trkpt lat="45.70404" lon="6.63239">
        <ele>1418.8</ele>
        <time>2023-08-21T08:25:24Z</time>
      </trkpt>
      <trkpt lat="45.70406" lon="6.63241">
        <ele>1419.6</ele>
        <time>2023-08-21T08:25:25Z</time>
      </trkpt>
      <trkpt lat="45.70408" lon="6.63242">
        <ele>1419.6</ele>
        <time>2023-08-21T08:25:26Z</time>
      </trkpt>
      <trkpt lat="45.7041" lon="6.63243">
        <ele>1419.6</ele>
        <time>2023-08-21T08:25:27Z</time>
      </trkpt>
      <trkpt lat="45.70412" lon="6.63243">
        <ele>1419.6</ele>
        <time>2023-08-21T08:25:28Z</time>
      </trkpt>
      <trkpt lat="45.70414" lon="6.63244">
        <ele>1420.4</ele>
        <time>2023-08-21T08:25:29Z</time>
      </trkpt>
      <trkpt lat="45.70415" lon="6.63244">
        <ele>1420.4</ele>
        <time>2023-08-21T08:25:30Z</time>
      </trkpt>
      <trkpt lat="45.70417" lon="6.63244">
        <ele>1420.4</ele>
        <time>2023-08-21T08:25:31Z</time>
      </trkpt>
      <trkpt lat="45.7042" lon="6.63244">
        <ele>1421</ele>
        <time>2023-08-21T08:25:32Z</time>
      </trkpt>
      <trkpt lat="45.70422" lon="6.63244">
        <ele>1421.2</ele>
        <time>2023-08-21T08:25:33Z</time>
      </trkpt>
      <trkpt lat="45.70424" lon="6.63245">
        <ele>1421.2</ele>
        <time>2023-08-21T08:25:34Z</time>
      </trkpt>
      <trkpt lat="45.70426" lon="6.63245">
        <ele>1421.2</ele>
        <time>2023-08-21T08:25:35Z</time>
      </trkpt>
      <trkpt lat="45.70429" lon="6.63245">
        <ele>1421.2</ele>
        <time>2023-08-21T08:25:36Z</time>
      </trkpt>
      <trkpt lat="45.70431" lon="6.63245">
        <ele>1421.6</ele>
        <time>2023-08-21T08:25:37Z</time>
      </trkpt>
      <trkpt lat="45.70433" lon="6.63246">
        <ele>1422</ele>
        <time>2023-08-21T08:25:38Z</time>
      </trkpt>
      <trkpt lat="45.70434" lon="6.63246">
        <ele>1422</ele>
        <time>2023-08-21T08:25:39Z</time>
      </trkpt>
      <trkpt lat="45.70436" lon="6.63246">
        <ele>1422</ele>
        <time>2023-08-21T08:25:40Z</time>
      </trkpt>
      <trkpt lat="45.70438" lon="6.63247">
        <ele>1422.6</ele>
        <time>2023-08-21T08:25:41Z</time>
      </trkpt>
      <trkpt lat="45.7044" lon="6.63248">
        <ele>1422.6</ele>
        <time>2023-08-21T08:25:42Z</time>
      </trkpt>
      <trkpt lat="45.70442" lon="6.63248">
        <ele>1422.8</ele>
        <time>2023-08-21T08:25:43Z</time>
      </trkpt>
      <trkpt lat="45.70444" lon="6.63248">
        <ele>1422.8</ele>
        <time>2023-08-21T08:25:44Z</time>
      </trkpt>
      <trkpt lat="45.70446" lon="6.63248">
        <ele>1423.4</ele>
        <time>2023-08-21T08:25:45Z</time>
      </trkpt>
      <trkpt lat="45.70448" lon="6.63248">
        <ele>1423.4</ele>
        <time>2023-08-21T08:25:46Z</time>
      </trkpt>
      <trkpt lat="45.7045" lon="6.63249">
        <ele>1423.8</ele>
        <time>2023-08-21T08:25:47Z</time>
      </trkpt>
      <trkpt lat="45.70452" lon="6.6325">
        <ele>1423.8</ele>
        <time>2023-08-21T08:25:48Z</time>
      </trkpt>
      <trkpt lat="45.70454" lon="6.63251">
        <ele>1423.8</ele>
        <time>2023-08-21T08:25:49Z</time>
      </trkpt>
      <trkpt lat="45.70456" lon="6.6325">
        <ele>1424.2</ele>
        <time>2023-08-21T08:25:50Z</time>
      </trkpt>
      <trkpt lat="45.70459" lon="6.63251">
        <ele>1424.2</ele>
        <time>2023-08-21T08:25:51Z</time>
      </trkpt>
      <trkpt lat="45.70461" lon="6.63253">
        <ele>1424.4</ele>
        <time>2023-08-21T08:25:52Z</time>
      </trkpt>
      <trkpt lat="45.70463" lon="6.63255">
        <ele>1424.4</ele>
        <time>2023-08-21T08:25:53Z</time>
      </trkpt>
      <trkpt lat="45.70465" lon="6.63257">
        <ele>1425</ele>
        <time>2023-08-21T08:25:54Z</time>
      </trkpt>
      <trkpt lat="45.70467" lon="6.63259">
        <ele>1425</ele>
        <time>2023-08-21T08:25:55Z</time>
      </trkpt>
      <trkpt lat="45.70469" lon="6.63261">
        <ele>1425.2</ele>
        <time>2023-08-21T08:25:56Z</time>
      </trkpt>
      <trkpt lat="45.7047" lon="6.63263">
        <ele>1425.2</ele>
        <time>2023-08-21T08:25:57Z</time>
      </trkpt>
      <trkpt lat="45.70472" lon="6.63265">
        <ele>1425.2</ele>
        <time>2023-08-21T08:25:58Z</time>
      </trkpt>
      <trkpt lat="45.70474" lon="6.63267">
        <ele>1425.2</ele>
        <time>2023-08-21T08:25:59Z</time>
      </trkpt>
      <trkpt lat="45.70476" lon="6.63268">
        <ele>1426</ele>
        <time>2023-08-21T08:26:00Z</time>
      </trkpt>
      <trkpt lat="45.70478" lon="6.6327">
        <ele>1426.2</ele>
        <time>2023-08-21T08:26:01Z</time>
      </trkpt>
      <trkpt lat="45.70479" lon="6.63272">
        <ele>1426.2</ele>
        <time>2023-08-21T08:26:02Z</time>
      </trkpt>
      <trkpt lat="45.70481" lon="6.63274">
        <ele>1426.2</ele>
        <time>2023-08-21T08:26:03Z</time>
      </trkpt>
      <trkpt lat="45.70483" lon="6.63276">
        <ele>1426.8</ele>
        <time>2023-08-21T08:26:04Z</time>
      </trkpt>
      <trkpt lat="45.70484" lon="6.63277">
        <ele>1427</ele>
        <time>2023-08-21T08:26:05Z</time>
      </trkpt>
      <trkpt lat="45.70486" lon="6.63279">
        <ele>1427</ele>
        <time>2023-08-21T08:26:06Z</time>
      </trkpt>
      <trkpt lat="45.70488" lon="6.6328">
        <ele>1427</ele>
        <time>2023-08-21T08:26:07Z</time>
      </trkpt>
      <trkpt lat="45.70489" lon="6.63282">
        <ele>1427.4</ele>
        <time>2023-08-21T08:26:08Z</time>
      </trkpt>
      <trkpt lat="45.70491" lon="6.63284">
        <ele>1427.4</ele>
        <time>2023-08-21T08:26:09Z</time>
      </trkpt>
      <trkpt lat="45.70493" lon="6.63285">
        <ele>1427.6</ele>
        <time>2023-08-21T08:26:10Z</time>
      </trkpt>
      <trkpt lat="45.70495" lon="6.63287">
        <ele>1427.6</ele>
        <time>2023-08-21T08:26:11Z</time>
      </trkpt>
      <trkpt lat="45.70497" lon="6.63289">
        <ele>1427.6</ele>
        <time>2023-08-21T08:26:12Z</time>
      </trkpt>
      <trkpt lat="45.70499" lon="6.6329">
        <ele>1428.2</ele>
        <time>2023-08-21T08:26:13Z</time>
      </trkpt>
      <trkpt lat="45.70502" lon="6.63291">
        <ele>1428.2</ele>
        <time>2023-08-21T08:26:14Z</time>
      </trkpt>
      <trkpt lat="45.70504" lon="6.63293">
        <ele>1428.4</ele>
        <time>2023-08-21T08:26:15Z</time>
      </trkpt>
      <trkpt lat="45.70506" lon="6.63295">
        <ele>1428.4</ele>
        <time>2023-08-21T08:26:16Z</time>
      </trkpt>
      <trkpt lat="45.70508" lon="6.63296">
        <ele>1428.8</ele>
        <time>2023-08-21T08:26:17Z</time>
      </trkpt>
      <trkpt lat="45.7051" lon="6.63298">
        <ele>1428.8</ele>
        <time>2023-08-21T08:26:18Z</time>
      </trkpt>
      <trkpt lat="45.70512" lon="6.63299">
        <ele>1429.2</ele>
        <time>2023-08-21T08:26:19Z</time>
      </trkpt>
      <trkpt lat="45.70514" lon="6.633">
        <ele>1429.2</ele>
        <time>2023-08-21T08:26:20Z</time>
      </trkpt>
      <trkpt lat="45.70516" lon="6.63301">
        <ele>1429.2</ele>
        <time>2023-08-21T08:26:21Z</time>
      </trkpt>
      <trkpt lat="45.70518" lon="6.63301">
        <ele>1429.4</ele>
        <time>2023-08-21T08:26:22Z</time>
      </trkpt>
      <trkpt lat="45.7052" lon="6.63302">
        <ele>1429.8</ele>
        <time>2023-08-21T08:26:23Z</time>
      </trkpt>
      <trkpt lat="45.70522" lon="6.63302">
        <ele>1429.8</ele>
        <time>2023-08-21T08:26:24Z</time>
      </trkpt>
      <trkpt lat="45.70524" lon="6.63302">
        <ele>1429.8</ele>
        <time>2023-08-21T08:26:25Z</time>
      </trkpt>
      <trkpt lat="45.70526" lon="6.63302">
        <ele>1429.8</ele>
        <time>2023-08-21T08:26:26Z</time>
      </trkpt>
      <trkpt lat="45.70528" lon="6.63302">
        <ele>1430.6</ele>
        <time>2023-08-21T08:26:27Z</time>
      </trkpt>
      <trkpt lat="45.7053" lon="6.63303">
        <ele>1430.6</ele>
        <time>2023-08-21T08:26:28Z</time>
      </trkpt>
      <trkpt lat="45.70532" lon="6.63304">
        <ele>1430.6</ele>
        <time>2023-08-21T08:26:29Z</time>
      </trkpt>
      <trkpt lat="45.70534" lon="6.63304">
        <ele>1430.6</ele>
        <time>2023-08-21T08:26:30Z</time>
      </trkpt>
      <trkpt lat="45.70536" lon="6.63304">
        <ele>1431.2</ele>
        <time>2023-08-21T08:26:31Z</time>
      </trkpt>
      <trkpt lat="45.70538" lon="6.63304">
        <ele>1431.2</ele>
        <time>2023-08-21T08:26:32Z</time>
      </trkpt>
      <trkpt lat="45.7054" lon="6.63305">
        <ele>1431.2</ele>
        <time>2023-08-21T08:26:33Z</time>
      </trkpt>
      <trkpt lat="45.70542" lon="6.63305">
        <ele>1431.2</ele>
        <time>2023-08-21T08:26:34Z</time>
      </trkpt>
      <trkpt lat="45.70544" lon="6.63305">
        <ele>1431.8</ele>
        <time>2023-08-21T08:26:35Z</time>
      </trkpt>
      <trkpt lat="45.70546" lon="6.63305">
        <ele>1431.8</ele>
        <time>2023-08-21T08:26:36Z</time>
      </trkpt>
      <trkpt lat="45.70548" lon="6.63305">
        <ele>1432</ele>
        <time>2023-08-21T08:26:37Z</time>
      </trkpt>
      <trkpt lat="45.7055" lon="6.63305">
        <ele>1432</ele>
        <time>2023-08-21T08:26:38Z</time>
      </trkpt>
      <trkpt lat="45.70552" lon="6.63305">
        <ele>1432.6</ele>
        <time>2023-08-21T08:26:39Z</time>
      </trkpt>
      <trkpt lat="45.70555" lon="6.63305">
        <ele>1432.6</ele>
        <time>2023-08-21T08:26:40Z</time>
      </trkpt>
      <trkpt lat="45.70557" lon="6.63305">
        <ele>1432.6</ele>
        <time>2023-08-21T08:26:41Z</time>
      </trkpt>
      <trkpt lat="45.7056" lon="6.63305">
        <ele>1433</ele>
        <time>2023-08-21T08:26:42Z</time>
      </trkpt>
      <trkpt lat="45.70562" lon="6.63306">
        <ele>1433</ele>
        <time>2023-08-21T08:26:43Z</time>
      </trkpt>
      <trkpt lat="45.70564" lon="6.63306">
        <ele>1433</ele>
        <time>2023-08-21T08:26:44Z</time>
      </trkpt>
      <trkpt lat="45.70566" lon="6.63306">
        <ele>1433</ele>
        <time>2023-08-21T08:26:45Z</time>
      </trkpt>
      <trkpt lat="45.70569" lon="6.63307">
        <ele>1433.6</ele>
        <time>2023-08-21T08:26:46Z</time>
      </trkpt>
      <trkpt lat="45.70571" lon="6.63307">
        <ele>1433.6</ele>
        <time>2023-08-21T08:26:47Z</time>
      </trkpt>
      <trkpt lat="45.70573" lon="6.63307">
        <ele>1433.6</ele>
        <time>2023-08-21T08:26:48Z</time>
      </trkpt>
      <trkpt lat="45.70574" lon="6.63308">
        <ele>1434.2</ele>
        <time>2023-08-21T08:26:49Z</time>
      </trkpt>
      <trkpt lat="45.70576" lon="6.63309">
        <ele>1434.6</ele>
        <time>2023-08-21T08:26:50Z</time>
      </trkpt>
      <trkpt lat="45.70578" lon="6.63309">
        <ele>1434.6</ele>
        <time>2023-08-21T08:26:51Z</time>
      </trkpt>
      <trkpt lat="45.7058" lon="6.63309">
        <ele>1434.6</ele>
        <time>2023-08-21T08:26:52Z</time>
      </trkpt>
      <trkpt lat="45.70583" lon="6.63309">
        <ele>1434.6</ele>
        <time>2023-08-21T08:26:53Z</time>
      </trkpt>
      <trkpt lat="45.70585" lon="6.63309">
        <ele>1435</ele>
        <time>2023-08-21T08:26:54Z</time>
      </trkpt>
      <trkpt lat="45.70587" lon="6.63309">
        <ele>1435.4</ele>
        <time>2023-08-21T08:26:55Z</time>
      </trkpt>
      <trkpt lat="45.70589" lon="6.6331">
        <ele>1435.4</ele>
        <time>2023-08-21T08:26:56Z</time>
      </trkpt>
      <trkpt lat="45.70591" lon="6.6331">
        <ele>1435.4</ele>
        <time>2023-08-21T08:26:57Z</time>
      </trkpt>
      <trkpt lat="45.70592" lon="6.63309">
        <ele>1435.8</ele>
        <time>2023-08-21T08:26:58Z</time>
      </trkpt>
      <trkpt lat="45.70594" lon="6.6331">
        <ele>1435.6</ele>
        <time>2023-08-21T08:26:59Z</time>
      </trkpt>
      <trkpt lat="45.70596" lon="6.6331">
        <ele>1435.6</ele>
        <time>2023-08-21T08:27:00Z</time>
      </trkpt>
      <trkpt lat="45.70598" lon="6.63311">
        <ele>1435.6</ele>
        <time>2023-08-21T08:27:01Z</time>
      </trkpt>
      <trkpt lat="45.70599" lon="6.63311">
        <ele>1436.6</ele>
        <time>2023-08-21T08:27:02Z</time>
      </trkpt>
      <trkpt lat="45.70601" lon="6.63311">
        <ele>1436.6</ele>
        <time>2023-08-21T08:27:03Z</time>
      </trkpt>
      <trkpt lat="45.70603" lon="6.63312">
        <ele>1436.6</ele>
        <time>2023-08-21T08:27:04Z</time>
      </trkpt>
      <trkpt lat="45.70605" lon="6.63313">
        <ele>1436.6</ele>
        <time>2023-08-21T08:27:05Z</time>
      </trkpt>
      <trkpt lat="45.70607" lon="6.63313">
        <ele>1436.6</ele>
        <time>2023-08-21T08:27:06Z</time>
      </trkpt>
      <trkpt lat="45.70609" lon="6.63313">
        <ele>1437.2</ele>
        <time>2023-08-21T08:27:07Z</time>
      </trkpt>
      <trkpt lat="45.70611" lon="6.63314">
        <ele>1437.6</ele>
        <time>2023-08-21T08:27:08Z</time>
      </trkpt>
      <trkpt lat="45.70612" lon="6.63315">
        <ele>1437.6</ele>
        <time>2023-08-21T08:27:09Z</time>
      </trkpt>
      <trkpt lat="45.70614" lon="6.63314">
        <ele>1437.6</ele>
        <time>2023-08-21T08:27:10Z</time>
      </trkpt>
      <trkpt lat="45.70617" lon="6.63315">
        <ele>1437.6</ele>
        <time>2023-08-21T08:27:11Z</time>
      </trkpt>
      <trkpt lat="45.70619" lon="6.63316">
        <ele>1438.2</ele>
        <time>2023-08-21T08:27:12Z</time>
      </trkpt>
      <trkpt lat="45.70622" lon="6.63316">
        <ele>1438.2</ele>
        <time>2023-08-21T08:27:13Z</time>
      </trkpt>
      <trkpt lat="45.70624" lon="6.63316">
        <ele>1438.2</ele>
        <time>2023-08-21T08:27:14Z</time>
      </trkpt>
      <trkpt lat="45.70626" lon="6.63315">
        <ele>1438.2</ele>
        <time>2023-08-21T08:27:15Z</time>
      </trkpt>
      <trkpt lat="45.70628" lon="6.63316">
        <ele>1438.2</ele>
        <time>2023-08-21T08:27:16Z</time>
      </trkpt>
      <trkpt lat="45.70631" lon="6.63316">
        <ele>1438.8</ele>
        <time>2023-08-21T08:27:17Z</time>
      </trkpt>
      <trkpt lat="45.70633" lon="6.63316">
        <ele>1438.8</ele>
        <time>2023-08-21T08:27:18Z</time>
      </trkpt>
      <trkpt lat="45.70635" lon="6.63315">
        <ele>1438.8</ele>
        <time>2023-08-21T08:27:19Z</time>
      </trkpt>
      <trkpt lat="45.70637" lon="6.63316">
        <ele>1439.4</ele>
        <time>2023-08-21T08:27:20Z</time>
      </trkpt>
      <trkpt lat="45.70639" lon="6.63315">
        <ele>1439.4</ele>
        <time>2023-08-21T08:27:21Z</time>
      </trkpt>
      <trkpt lat="45.70641" lon="6.63313">
        <ele>1439.4</ele>
        <time>2023-08-21T08:27:22Z</time>
      </trkpt>
      <trkpt lat="45.70643" lon="6.63313">
        <ele>1439.4</ele>
        <time>2023-08-21T08:27:23Z</time>
      </trkpt>
      <trkpt lat="45.70645" lon="6.63312">
        <ele>1439.4</ele>
        <time>2023-08-21T08:27:24Z</time>
      </trkpt>
      <trkpt lat="45.70647" lon="6.63311">
        <ele>1439.4</ele>
        <time>2023-08-21T08:27:25Z</time>
      </trkpt>
      <trkpt lat="45.70649" lon="6.63309">
        <ele>1440.4</ele>
        <time>2023-08-21T08:27:26Z</time>
      </trkpt>
      <trkpt lat="45.70651" lon="6.63309">
        <ele>1440.4</ele>
        <time>2023-08-21T08:27:27Z</time>
      </trkpt>
      <trkpt lat="45.70653" lon="6.63308">
        <ele>1440.4</ele>
        <time>2023-08-21T08:27:28Z</time>
      </trkpt>
      <trkpt lat="45.70655" lon="6.63307">
        <ele>1440.4</ele>
        <time>2023-08-21T08:27:29Z</time>
      </trkpt>
      <trkpt lat="45.70657" lon="6.63306">
        <ele>1440.8</ele>
        <time>2023-08-21T08:27:30Z</time>
      </trkpt>
      <trkpt lat="45.70659" lon="6.63305">
        <ele>1440.8</ele>
        <time>2023-08-21T08:27:31Z</time>
      </trkpt>
      <trkpt lat="45.70661" lon="6.63304">
        <ele>1440.8</ele>
        <time>2023-08-21T08:27:32Z</time>
      </trkpt>
      <trkpt lat="45.70663" lon="6.63304">
        <ele>1440.8</ele>
        <time>2023-08-21T08:27:33Z</time>
      </trkpt>
      <trkpt lat="45.70665" lon="6.63303">
        <ele>1441.2</ele>
        <time>2023-08-21T08:27:34Z</time>
      </trkpt>
      <trkpt lat="45.70667" lon="6.63302">
        <ele>1441.2</ele>
        <time>2023-08-21T08:27:35Z</time>
      </trkpt>
      <trkpt lat="45.7067" lon="6.63301">
        <ele>1441.2</ele>
        <time>2023-08-21T08:27:36Z</time>
      </trkpt>
      <trkpt lat="45.70672" lon="6.633">
        <ele>1441.2</ele>
        <time>2023-08-21T08:27:37Z</time>
      </trkpt>
      <trkpt lat="45.70674" lon="6.63299">
        <ele>1441.2</ele>
        <time>2023-08-21T08:27:38Z</time>
      </trkpt>
      <trkpt lat="45.70676" lon="6.63298">
        <ele>1441.8</ele>
        <time>2023-08-21T08:27:39Z</time>
      </trkpt>
      <trkpt lat="45.70678" lon="6.63297">
        <ele>1442</ele>
        <time>2023-08-21T08:27:40Z</time>
      </trkpt>
      <trkpt lat="45.7068" lon="6.63296">
        <ele>1442</ele>
        <time>2023-08-21T08:27:41Z</time>
      </trkpt>
      <trkpt lat="45.70682" lon="6.63295">
        <ele>1442</ele>
        <time>2023-08-21T08:27:42Z</time>
      </trkpt>
      <trkpt lat="45.70683" lon="6.63294">
        <ele>1442.4</ele>
        <time>2023-08-21T08:27:43Z</time>
      </trkpt>
      <trkpt lat="45.70685" lon="6.63293">
        <ele>1442.4</ele>
        <time>2023-08-21T08:27:44Z</time>
      </trkpt>
      <trkpt lat="45.70687" lon="6.63292">
        <ele>1442.4</ele>
        <time>2023-08-21T08:27:45Z</time>
      </trkpt>
      <trkpt lat="45.70689" lon="6.63291">
        <ele>1442.4</ele>
        <time>2023-08-21T08:27:46Z</time>
      </trkpt>
      <trkpt lat="45.70691" lon="6.63292">
        <ele>1442.8</ele>
        <time>2023-08-21T08:27:47Z</time>
      </trkpt>
      <trkpt lat="45.70694" lon="6.63293">
        <ele>1443.2</ele>
        <time>2023-08-21T08:27:48Z</time>
      </trkpt>
      <trkpt lat="45.70695" lon="6.63295">
        <ele>1443.2</ele>
        <time>2023-08-21T08:27:49Z</time>
      </trkpt>
      <trkpt lat="45.70697" lon="6.63297">
        <ele>1443.2</ele>
        <time>2023-08-21T08:27:50Z</time>
      </trkpt>
      <trkpt lat="45.70698" lon="6.633">
        <ele>1443.8</ele>
        <time>2023-08-21T08:27:51Z</time>
      </trkpt>
      <trkpt lat="45.70698" lon="6.63303">
        <ele>1443.8</ele>
        <time>2023-08-21T08:27:52Z</time>
      </trkpt>
      <trkpt lat="45.70697" lon="6.63304">
        <ele>1444.2</ele>
        <time>2023-08-21T08:27:53Z</time>
      </trkpt>
      <trkpt lat="45.70695" lon="6.63306">
        <ele>1444.2</ele>
        <time>2023-08-21T08:27:54Z</time>
      </trkpt>
      <trkpt lat="45.70693" lon="6.63308">
        <ele>1444.2</ele>
        <time>2023-08-21T08:27:55Z</time>
      </trkpt>
      <trkpt lat="45.70691" lon="6.63309">
        <ele>1444.8</ele>
        <time>2023-08-21T08:27:56Z</time>
      </trkpt>
      <trkpt lat="45.70688" lon="6.63309">
        <ele>1444.8</ele>
        <time>2023-08-21T08:27:57Z</time>
      </trkpt>
      <trkpt lat="45.70686" lon="6.63309">
        <ele>1445</ele>
        <time>2023-08-21T08:27:58Z</time>
      </trkpt>
      <trkpt lat="45.70684" lon="6.63308">
        <ele>1445</ele>
        <time>2023-08-21T08:27:59Z</time>
      </trkpt>
      <trkpt lat="45.70682" lon="6.63308">
        <ele>1445.4</ele>
        <time>2023-08-21T08:28:00Z</time>
      </trkpt>
      <trkpt lat="45.7068" lon="6.63308">
        <ele>1445.4</ele>
        <time>2023-08-21T08:28:01Z</time>
      </trkpt>
      <trkpt lat="45.70678" lon="6.63308">
        <ele>1445.6</ele>
        <time>2023-08-21T08:28:02Z</time>
      </trkpt>
      <trkpt lat="45.70676" lon="6.63308">
        <ele>1445.6</ele>
        <time>2023-08-21T08:28:03Z</time>
      </trkpt>
      <trkpt lat="45.70674" lon="6.63308">
        <ele>1445.6</ele>
        <time>2023-08-21T08:28:04Z</time>
      </trkpt>
      <trkpt lat="45.70672" lon="6.63309">
        <ele>1445.6</ele>
        <time>2023-08-21T08:28:05Z</time>
      </trkpt>
      <trkpt lat="45.70671" lon="6.63309">
        <ele>1446.4</ele>
        <time>2023-08-21T08:28:06Z</time>
      </trkpt>
      <trkpt lat="45.70668" lon="6.6331">
        <ele>1446.6</ele>
        <time>2023-08-21T08:28:07Z</time>
      </trkpt>
      <trkpt lat="45.70666" lon="6.6331">
        <ele>1446.6</ele>
        <time>2023-08-21T08:28:08Z</time>
      </trkpt>
      <trkpt lat="45.70664" lon="6.63311">
        <ele>1446.6</ele>
        <time>2023-08-21T08:28:09Z</time>
      </trkpt>
      <trkpt lat="45.70662" lon="6.63311">
        <ele>1447</ele>
        <time>2023-08-21T08:28:10Z</time>
      </trkpt>
      <trkpt lat="45.70659" lon="6.63311">
        <ele>1447.2</ele>
        <time>2023-08-21T08:28:11Z</time>
      </trkpt>
      <trkpt lat="45.70657" lon="6.63311">
        <ele>1447.2</ele>
        <time>2023-08-21T08:28:12Z</time>
      </trkpt>
      <trkpt lat="45.70655" lon="6.63311">
        <ele>1447.2</ele>
        <time>2023-08-21T08:28:13Z</time>
      </trkpt>
      <trkpt lat="45.70653" lon="6.63312">
        <ele>1447.2</ele>
        <time>2023-08-21T08:28:14Z</time>
      </trkpt>
      <trkpt lat="45.70651" lon="6.63312">
        <ele>1447.6</ele>
        <time>2023-08-21T08:28:15Z</time>
      </trkpt>
      <trkpt lat="45.70649" lon="6.63313">
        <ele>1447.6</ele>
        <time>2023-08-21T08:28:16Z</time>
      </trkpt>
      <trkpt lat="45.70647" lon="6.63314">
        <ele>1447.6</ele>
        <time>2023-08-21T08:28:17Z</time>
      </trkpt>
      <trkpt lat="45.70645" lon="6.63315">
        <ele>1447.6</ele>
        <time>2023-08-21T08:28:18Z</time>
      </trkpt>
      <trkpt lat="45.70643" lon="6.63316">
        <ele>1448.4</ele>
        <time>2023-08-21T08:28:19Z</time>
      </trkpt>
      <trkpt lat="45.70642" lon="6.63317">
        <ele>1448.4</ele>
        <time>2023-08-21T08:28:20Z</time>
      </trkpt>
      <trkpt lat="45.7064" lon="6.63317">
        <ele>1448.4</ele>
        <time>2023-08-21T08:28:21Z</time>
      </trkpt>
      <trkpt lat="45.70638" lon="6.63318">
        <ele>1448.4</ele>
        <time>2023-08-21T08:28:22Z</time>
      </trkpt>
      <trkpt lat="45.70636" lon="6.63319">
        <ele>1449</ele>
        <time>2023-08-21T08:28:23Z</time>
      </trkpt>
      <trkpt lat="45.70635" lon="6.6332">
        <ele>1449</ele>
        <time>2023-08-21T08:28:24Z</time>
      </trkpt>
      <trkpt lat="45.70633" lon="6.63321">
        <ele>1449.2</ele>
        <time>2023-08-21T08:28:25Z</time>
      </trkpt>
      <trkpt lat="45.70631" lon="6.63322">
        <ele>1449.2</ele>
        <time>2023-08-21T08:28:26Z</time>
      </trkpt>
      <trkpt lat="45.7063" lon="6.63323">
        <ele>1449.2</ele>
        <time>2023-08-21T08:28:27Z</time>
      </trkpt>
      <trkpt lat="45.70628" lon="6.63323">
        <ele>1449.6</ele>
        <time>2023-08-21T08:28:28Z</time>
      </trkpt>
      <trkpt lat="45.70626" lon="6.63324">
        <ele>1449.6</ele>
        <time>2023-08-21T08:28:29Z</time>
      </trkpt>
      <trkpt lat="45.70624" lon="6.63325">
        <ele>1450</ele>
        <time>2023-08-21T08:28:30Z</time>
      </trkpt>
      <trkpt lat="45.70622" lon="6.63325">
        <ele>1450</ele>
        <time>2023-08-21T08:28:31Z</time>
      </trkpt>
      <trkpt lat="45.7062" lon="6.63326">
        <ele>1450.4</ele>
        <time>2023-08-21T08:28:32Z</time>
      </trkpt>
      <trkpt lat="45.70618" lon="6.63327">
        <ele>1450.8</ele>
        <time>2023-08-21T08:28:33Z</time>
      </trkpt>
      <trkpt lat="45.70616" lon="6.63327">
        <ele>1450.8</ele>
        <time>2023-08-21T08:28:34Z</time>
      </trkpt>
      <trkpt lat="45.70613" lon="6.63327">
        <ele>1450.8</ele>
        <time>2023-08-21T08:28:35Z</time>
      </trkpt>
      <trkpt lat="45.70611" lon="6.63328">
        <ele>1450.8</ele>
        <time>2023-08-21T08:28:36Z</time>
      </trkpt>
      <trkpt lat="45.70609" lon="6.63329">
        <ele>1451.8</ele>
        <time>2023-08-21T08:28:37Z</time>
      </trkpt>
      <trkpt lat="45.70607" lon="6.63329">
        <ele>1451.8</ele>
        <time>2023-08-21T08:28:38Z</time>
      </trkpt>
      <trkpt lat="45.70606" lon="6.63329">
        <ele>1451.8</ele>
        <time>2023-08-21T08:28:39Z</time>
      </trkpt>
      <trkpt lat="45.70604" lon="6.63329">
        <ele>1451.8</ele>
        <time>2023-08-21T08:28:40Z</time>
      </trkpt>
      <trkpt lat="45.70602" lon="6.6333">
        <ele>1451.8</ele>
        <time>2023-08-21T08:28:41Z</time>
      </trkpt>
      <trkpt lat="45.706" lon="6.6333">
        <ele>1452.6</ele>
        <time>2023-08-21T08:28:42Z</time>
      </trkpt>
      <trkpt lat="45.70598" lon="6.63331">
        <ele>1452.6</ele>
        <time>2023-08-21T08:28:43Z</time>
      </trkpt>
      <trkpt lat="45.70596" lon="6.63331">
        <ele>1452.6</ele>
        <time>2023-08-21T08:28:44Z</time>
      </trkpt>
      <trkpt lat="45.70594" lon="6.63332">
        <ele>1452.6</ele>
        <time>2023-08-21T08:28:45Z</time>
      </trkpt>
      <trkpt lat="45.70592" lon="6.63333">
        <ele>1452.6</ele>
        <time>2023-08-21T08:28:46Z</time>
      </trkpt>
      <trkpt lat="45.7059" lon="6.63334">
        <ele>1453.2</ele>
        <time>2023-08-21T08:28:47Z</time>
      </trkpt>
      <trkpt lat="45.70588" lon="6.63335">
        <ele>1453.2</ele>
        <time>2023-08-21T08:28:48Z</time>
      </trkpt>
      <trkpt lat="45.70586" lon="6.63335">
        <ele>1453.2</ele>
        <time>2023-08-21T08:28:49Z</time>
      </trkpt>
      <trkpt lat="45.70584" lon="6.63336">
        <ele>1453.8</ele>
        <time>2023-08-21T08:28:50Z</time>
      </trkpt>
      <trkpt lat="45.70583" lon="6.63336">
        <ele>1454</ele>
        <time>2023-08-21T08:28:51Z</time>
      </trkpt>
      <trkpt lat="45.70581" lon="6.63336">
        <ele>1454</ele>
        <time>2023-08-21T08:28:52Z</time>
      </trkpt>
      <trkpt lat="45.70579" lon="6.63336">
        <ele>1454</ele>
        <time>2023-08-21T08:28:53Z</time>
      </trkpt>
      <trkpt lat="45.70577" lon="6.63336">
        <ele>1454</ele>
        <time>2023-08-21T08:28:54Z</time>
      </trkpt>
      <trkpt lat="45.70575" lon="6.63336">
        <ele>1454</ele>
        <time>2023-08-21T08:28:55Z</time>
      </trkpt>
      <trkpt lat="45.70574" lon="6.63336">
        <ele>1454</ele>
        <time>2023-08-21T08:28:56Z</time>
      </trkpt>
      <trkpt lat="45.70572" lon="6.63337">
        <ele>1454.6</ele>
        <time>2023-08-21T08:28:57Z</time>
      </trkpt>
      <trkpt lat="45.7057" lon="6.63337">
        <ele>1454.6</ele>
        <time>2023-08-21T08:28:58Z</time>
      </trkpt>
      <trkpt lat="45.70568" lon="6.63338">
        <ele>1455.4</ele>
        <time>2023-08-21T08:28:59Z</time>
      </trkpt>
      <trkpt lat="45.70566" lon="6.63338">
        <ele>1455.4</ele>
        <time>2023-08-21T08:29:00Z</time>
      </trkpt>
      <trkpt lat="45.70565" lon="6.63339">
        <ele>1455.4</ele>
        <time>2023-08-21T08:29:01Z</time>
      </trkpt>
      <trkpt lat="45.70563" lon="6.6334">
        <ele>1455.4</ele>
        <time>2023-08-21T08:29:02Z</time>
      </trkpt>
      <trkpt lat="45.70561" lon="6.63341">
        <ele>1455.4</ele>
        <time>2023-08-21T08:29:03Z</time>
      </trkpt>
      <trkpt lat="45.7056" lon="6.63341">
        <ele>1456</ele>
        <time>2023-08-21T08:29:04Z</time>
      </trkpt>
      <trkpt lat="45.70558" lon="6.63341">
        <ele>1456.2</ele>
        <time>2023-08-21T08:29:05Z</time>
      </trkpt>
      <trkpt lat="45.70556" lon="6.63342">
        <ele>1456.2</ele>
        <time>2023-08-21T08:29:06Z</time>
      </trkpt>
      <trkpt lat="45.70554" lon="6.63342">
        <ele>1456.2</ele>
        <time>2023-08-21T08:29:07Z</time>
      </trkpt>
      <trkpt lat="45.70553" lon="6.63343">
        <ele>1456.8</ele>
        <time>2023-08-21T08:29:08Z</time>
      </trkpt>
      <trkpt lat="45.70551" lon="6.63343">
        <ele>1457</ele>
        <time>2023-08-21T08:29:09Z</time>
      </trkpt>
      <trkpt lat="45.70549" lon="6.63343">
        <ele>1457</ele>
        <time>2023-08-21T08:29:10Z</time>
      </trkpt>
      <trkpt lat="45.70548" lon="6.63343">
        <ele>1457</ele>
        <time>2023-08-21T08:29:11Z</time>
      </trkpt>
      <trkpt lat="45.70546" lon="6.63344">
        <ele>1457</ele>
        <time>2023-08-21T08:29:12Z</time>
      </trkpt>
      <trkpt lat="45.70545" lon="6.63344">
        <ele>1457.6</ele>
        <time>2023-08-21T08:29:13Z</time>
      </trkpt>
      <trkpt lat="45.70543" lon="6.63345">
        <ele>1457.6</ele>
        <time>2023-08-21T08:29:14Z</time>
      </trkpt>
      <trkpt lat="45.70541" lon="6.63345">
        <ele>1457.6</ele>
        <time>2023-08-21T08:29:15Z</time>
      </trkpt>
      <trkpt lat="45.70539" lon="6.63346">
        <ele>1457.6</ele>
        <time>2023-08-21T08:29:16Z</time>
      </trkpt>
      <trkpt lat="45.70537" lon="6.63346">
        <ele>1458.2</ele>
        <time>2023-08-21T08:29:17Z</time>
      </trkpt>
      <trkpt lat="45.70535" lon="6.63346">
        <ele>1458.2</ele>
        <time>2023-08-21T08:29:18Z</time>
      </trkpt>
      <trkpt lat="45.70533" lon="6.63346">
        <ele>1458.2</ele>
        <time>2023-08-21T08:29:19Z</time>
      </trkpt>
      <trkpt lat="45.70531" lon="6.63347">
        <ele>1458.2</ele>
        <time>2023-08-21T08:29:20Z</time>
      </trkpt>
      <trkpt lat="45.70529" lon="6.63347">
        <ele>1458.8</ele>
        <time>2023-08-21T08:29:21Z</time>
      </trkpt>
      <trkpt lat="45.70527" lon="6.63348">
        <ele>1459.2</ele>
        <time>2023-08-21T08:29:22Z</time>
      </trkpt>
      <trkpt lat="45.70525" lon="6.63348">
        <ele>1459.2</ele>
        <time>2023-08-21T08:29:23Z</time>
      </trkpt>
      <trkpt lat="45.70524" lon="6.63348">
        <ele>1459.2</ele>
        <time>2023-08-21T08:29:24Z</time>
      </trkpt>
      <trkpt lat="45.70522" lon="6.63348">
        <ele>1459.2</ele>
        <time>2023-08-21T08:29:25Z</time>
      </trkpt>
      <trkpt lat="45.7052" lon="6.63348">
        <ele>1459.8</ele>
        <time>2023-08-21T08:29:26Z</time>
      </trkpt>
      <trkpt lat="45.70518" lon="6.63348">
        <ele>1459.8</ele>
        <time>2023-08-21T08:29:27Z</time>
      </trkpt>
      <trkpt lat="45.70516" lon="6.63348">
        <ele>1459.8</ele>
        <time>2023-08-21T08:29:28Z</time>
      </trkpt>
      <trkpt lat="45.70514" lon="6.63348">
        <ele>1459.8</ele>
        <time>2023-08-21T08:29:29Z</time>
      </trkpt>
      <trkpt lat="45.70513" lon="6.63348">
        <ele>1460.4</ele>
        <time>2023-08-21T08:29:30Z</time>
      </trkpt>
      <trkpt lat="45.70511" lon="6.63348">
        <ele>1460.4</ele>
        <time>2023-08-21T08:29:31Z</time>
      </trkpt>
      <trkpt lat="45.70509" lon="6.63348">
        <ele>1460.4</ele>
        <time>2023-08-21T08:29:32Z</time>
      </trkpt>
      <trkpt lat="45.70507" lon="6.63348">
        <ele>1460.4</ele>
        <time>2023-08-21T08:29:33Z</time>
      </trkpt>
      <trkpt lat="45.70505" lon="6.63348">
        <ele>1460.4</ele>
        <time>2023-08-21T08:29:34Z</time>
      </trkpt>
      <trkpt lat="45.70503" lon="6.63348">
        <ele>1460.4</ele>
        <time>2023-08-21T08:29:35Z</time>
      </trkpt>
      <trkpt lat="45.70501" lon="6.63348">
        <ele>1461</ele>
        <time>2023-08-21T08:29:36Z</time>
      </trkpt>
      <trkpt lat="45.70499" lon="6.63348">
        <ele>1461</ele>
        <time>2023-08-21T08:29:37Z</time>
      </trkpt>
      <trkpt lat="45.70498" lon="6.63348">
        <ele>1461</ele>
        <time>2023-08-21T08:29:38Z</time>
      </trkpt>
      <trkpt lat="45.70496" lon="6.63348">
        <ele>1461</ele>
        <time>2023-08-21T08:29:39Z</time>
      </trkpt>
      <trkpt lat="45.70494" lon="6.63349">
        <ele>1461.6</ele>
        <time>2023-08-21T08:29:40Z</time>
      </trkpt>
      <trkpt lat="45.70492" lon="6.63349">
        <ele>1461.6</ele>
        <time>2023-08-21T08:29:41Z</time>
      </trkpt>
      <trkpt lat="45.7049" lon="6.6335">
        <ele>1461.6</ele>
        <time>2023-08-21T08:29:42Z</time>
      </trkpt>
      <trkpt lat="45.70489" lon="6.6335">
        <ele>1461.6</ele>
        <time>2023-08-21T08:29:43Z</time>
      </trkpt>
      <trkpt lat="45.70486" lon="6.6335">
        <ele>1462.2</ele>
        <time>2023-08-21T08:29:44Z</time>
      </trkpt>
      <trkpt lat="45.70484" lon="6.63351">
        <ele>1462.2</ele>
        <time>2023-08-21T08:29:45Z</time>
      </trkpt>
      <trkpt lat="45.70482" lon="6.63351">
        <ele>1462.2</ele>
        <time>2023-08-21T08:29:46Z</time>
      </trkpt>
      <trkpt lat="45.7048" lon="6.63351">
        <ele>1462.2</ele>
        <time>2023-08-21T08:29:47Z</time>
      </trkpt>
      <trkpt lat="45.70478" lon="6.63351">
        <ele>1462.8</ele>
        <time>2023-08-21T08:29:48Z</time>
      </trkpt>
      <trkpt lat="45.70476" lon="6.63351">
        <ele>1463</ele>
        <time>2023-08-21T08:29:49Z</time>
      </trkpt>
      <trkpt lat="45.70474" lon="6.63351">
        <ele>1463</ele>
        <time>2023-08-21T08:29:50Z</time>
      </trkpt>
      <trkpt lat="45.70472" lon="6.63351">
        <ele>1463</ele>
        <time>2023-08-21T08:29:51Z</time>
      </trkpt>
      <trkpt lat="45.7047" lon="6.63351">
        <ele>1463</ele>
        <time>2023-08-21T08:29:52Z</time>
      </trkpt>
      <trkpt lat="45.70468" lon="6.63351">
        <ele>1463.6</ele>
        <time>2023-08-21T08:29:53Z</time>
      </trkpt>
      <trkpt lat="45.70466" lon="6.63351">
        <ele>1463.8</ele>
        <time>2023-08-21T08:29:54Z</time>
      </trkpt>
      <trkpt lat="45.70465" lon="6.63351">
        <ele>1463.8</ele>
        <time>2023-08-21T08:29:55Z</time>
      </trkpt>
      <trkpt lat="45.70463" lon="6.63351">
        <ele>1463.8</ele>
        <time>2023-08-21T08:29:56Z</time>
      </trkpt>
      <trkpt lat="45.70461" lon="6.63351">
        <ele>1464.4</ele>
        <time>2023-08-21T08:29:57Z</time>
      </trkpt>
      <trkpt lat="45.70459" lon="6.6335">
        <ele>1464.4</ele>
        <time>2023-08-21T08:29:58Z</time>
      </trkpt>
      <trkpt lat="45.70457" lon="6.6335">
        <ele>1464.4</ele>
        <time>2023-08-21T08:29:59Z</time>
      </trkpt>
      <trkpt lat="45.70455" lon="6.6335">
        <ele>1464.4</ele>
        <time>2023-08-21T08:30:00Z</time>
      </trkpt>
      <trkpt lat="45.70453" lon="6.6335">
        <ele>1465</ele>
        <time>2023-08-21T08:30:01Z</time>
      </trkpt>
      <trkpt lat="45.70451" lon="6.6335">
        <ele>1465</ele>
        <time>2023-08-21T08:30:02Z</time>
      </trkpt>
      <trkpt lat="45.70449" lon="6.6335">
        <ele>1465</ele>
        <time>2023-08-21T08:30:03Z</time>
      </trkpt>
      <trkpt lat="45.70448" lon="6.6335">
        <ele>1465</ele>
        <time>2023-08-21T08:30:04Z</time>
      </trkpt>
      <trkpt lat="45.70446" lon="6.63349">
        <ele>1465</ele>
        <time>2023-08-21T08:30:05Z</time>
      </trkpt>
      <trkpt lat="45.70444" lon="6.63349">
        <ele>1465.6</ele>
        <time>2023-08-21T08:30:06Z</time>
      </trkpt>
      <trkpt lat="45.70443" lon="6.63348">
        <ele>1465.8</ele>
        <time>2023-08-21T08:30:07Z</time>
      </trkpt>
      <trkpt lat="45.70441" lon="6.63347">
        <ele>1465.8</ele>
        <time>2023-08-21T08:30:08Z</time>
      </trkpt>
      <trkpt lat="45.70439" lon="6.63346">
        <ele>1465.8</ele>
        <time>2023-08-21T08:30:09Z</time>
      </trkpt>
      <trkpt lat="45.70437" lon="6.63345">
        <ele>1466.4</ele>
        <time>2023-08-21T08:30:10Z</time>
      </trkpt>
      <trkpt lat="45.70435" lon="6.63344">
        <ele>1466.6</ele>
        <time>2023-08-21T08:30:11Z</time>
      </trkpt>
      <trkpt lat="45.70434" lon="6.63342">
        <ele>1466.6</ele>
        <time>2023-08-21T08:30:12Z</time>
      </trkpt>
      <trkpt lat="45.70432" lon="6.63341">
        <ele>1466.6</ele>
        <time>2023-08-21T08:30:13Z</time>
      </trkpt>
      <trkpt lat="45.7043" lon="6.6334">
        <ele>1466.6</ele>
        <time>2023-08-21T08:30:14Z</time>
      </trkpt>
      <trkpt lat="45.70428" lon="6.6334">
        <ele>1466.6</ele>
        <time>2023-08-21T08:30:15Z</time>
      </trkpt>
      <trkpt lat="45.70426" lon="6.63339">
        <ele>1467.4</ele>
        <time>2023-08-21T08:30:16Z</time>
      </trkpt>
      <trkpt lat="45.70424" lon="6.63338">
        <ele>1467.6</ele>
        <time>2023-08-21T08:30:17Z</time>
      </trkpt>
      <trkpt lat="45.70422" lon="6.63337">
        <ele>1467.6</ele>
        <time>2023-08-21T08:30:18Z</time>
      </trkpt>
      <trkpt lat="45.7042" lon="6.63337">
        <ele>1467.6</ele>
        <time>2023-08-21T08:30:19Z</time>
      </trkpt>
      <trkpt lat="45.70419" lon="6.63337">
        <ele>1468</ele>
        <time>2023-08-21T08:30:20Z</time>
      </trkpt>
      <trkpt lat="45.70417" lon="6.63338">
        <ele>1468.2</ele>
        <time>2023-08-21T08:30:21Z</time>
      </trkpt>
      <trkpt lat="45.70415" lon="6.63338">
        <ele>1468.2</ele>
        <time>2023-08-21T08:30:22Z</time>
      </trkpt>
      <trkpt lat="45.70413" lon="6.63339">
        <ele>1468.2</ele>
        <time>2023-08-21T08:30:23Z</time>
      </trkpt>
      <trkpt lat="45.70411" lon="6.6334">
        <ele>1469</ele>
        <time>2023-08-21T08:30:24Z</time>
      </trkpt>
      <trkpt lat="45.70409" lon="6.6334">
        <ele>1469</ele>
        <time>2023-08-21T08:30:25Z</time>
      </trkpt>
      <trkpt lat="45.70407" lon="6.6334">
        <ele>1469</ele>
        <time>2023-08-21T08:30:26Z</time>
      </trkpt>
      <trkpt lat="45.70405" lon="6.63341">
        <ele>1469</ele>
        <time>2023-08-21T08:30:27Z</time>
      </trkpt>
      <trkpt lat="45.70403" lon="6.63341">
        <ele>1469.4</ele>
        <time>2023-08-21T08:30:28Z</time>
      </trkpt>
      <trkpt lat="45.70402" lon="6.63342">
        <ele>1469.4</ele>
        <time>2023-08-21T08:30:29Z</time>
      </trkpt>
      <trkpt lat="45.704" lon="6.63343">
        <ele>1469.8</ele>
        <time>2023-08-21T08:30:30Z</time>
      </trkpt>
      <trkpt lat="45.70398" lon="6.63344">
        <ele>1469.8</ele>
        <time>2023-08-21T08:30:31Z</time>
      </trkpt>
      <trkpt lat="45.70396" lon="6.63345">
        <ele>1469.8</ele>
        <time>2023-08-21T08:30:32Z</time>
      </trkpt>
      <trkpt lat="45.70394" lon="6.63346">
        <ele>1470</ele>
        <time>2023-08-21T08:30:33Z</time>
      </trkpt>
      <trkpt lat="45.70393" lon="6.63346">
        <ele>1470.4</ele>
        <time>2023-08-21T08:30:34Z</time>
      </trkpt>
      <trkpt lat="45.70391" lon="6.63347">
        <ele>1470.4</ele>
        <time>2023-08-21T08:30:35Z</time>
      </trkpt>
      <trkpt lat="45.70389" lon="6.63348">
        <ele>1470.4</ele>
        <time>2023-08-21T08:30:36Z</time>
      </trkpt>
      <trkpt lat="45.70387" lon="6.63348">
        <ele>1470.4</ele>
        <time>2023-08-21T08:30:37Z</time>
      </trkpt>
      <trkpt lat="45.70385" lon="6.63348">
        <ele>1470.8</ele>
        <time>2023-08-21T08:30:38Z</time>
      </trkpt>
      <trkpt lat="45.70383" lon="6.63349">
        <ele>1470.8</ele>
        <time>2023-08-21T08:30:39Z</time>
      </trkpt>
      <trkpt lat="45.70381" lon="6.6335">
        <ele>1470.8</ele>
        <time>2023-08-21T08:30:40Z</time>
      </trkpt>
      <trkpt lat="45.70379" lon="6.6335">
        <ele>1470.8</ele>
        <time>2023-08-21T08:30:41Z</time>
      </trkpt>
      <trkpt lat="45.70377" lon="6.63351">
        <ele>1471.4</ele>
        <time>2023-08-21T08:30:42Z</time>
      </trkpt>
      <trkpt lat="45.70375" lon="6.63351">
        <ele>1471.6</ele>
        <time>2023-08-21T08:30:43Z</time>
      </trkpt>
      <trkpt lat="45.70374" lon="6.63351">
        <ele>1471.6</ele>
        <time>2023-08-21T08:30:44Z</time>
      </trkpt>
      <trkpt lat="45.70372" lon="6.63351">
        <ele>1471.6</ele>
        <time>2023-08-21T08:30:45Z</time>
      </trkpt>
      <trkpt lat="45.7037" lon="6.6335">
        <ele>1471.6</ele>
        <time>2023-08-21T08:30:46Z</time>
      </trkpt>
      <trkpt lat="45.70368" lon="6.6335">
        <ele>1472.2</ele>
        <time>2023-08-21T08:30:47Z</time>
      </trkpt>
      <trkpt lat="45.70366" lon="6.63351">
        <ele>1472.2</ele>
        <time>2023-08-21T08:30:48Z</time>
      </trkpt>
      <trkpt lat="45.70364" lon="6.63351">
        <ele>1472.2</ele>
        <time>2023-08-21T08:30:49Z</time>
      </trkpt>
      <trkpt lat="45.70362" lon="6.6335">
        <ele>1473</ele>
        <time>2023-08-21T08:30:50Z</time>
      </trkpt>
      <trkpt lat="45.70359" lon="6.63349">
        <ele>1473</ele>
        <time>2023-08-21T08:30:51Z</time>
      </trkpt>
      <trkpt lat="45.70357" lon="6.63348">
        <ele>1473.2</ele>
        <time>2023-08-21T08:30:52Z</time>
      </trkpt>
      <trkpt lat="45.70355" lon="6.63347">
        <ele>1473.2</ele>
        <time>2023-08-21T08:30:53Z</time>
      </trkpt>
      <trkpt lat="45.70353" lon="6.63345">
        <ele>1473.2</ele>
        <time>2023-08-21T08:30:54Z</time>
      </trkpt>
      <trkpt lat="45.70351" lon="6.63344">
        <ele>1473.2</ele>
        <time>2023-08-21T08:30:55Z</time>
      </trkpt>
      <trkpt lat="45.70349" lon="6.63342">
        <ele>1474.2</ele>
        <time>2023-08-21T08:30:56Z</time>
      </trkpt>
      <trkpt lat="45.70348" lon="6.63341">
        <ele>1474.2</ele>
        <time>2023-08-21T08:30:57Z</time>
      </trkpt>
      <trkpt lat="45.70346" lon="6.63341">
        <ele>1474.2</ele>
        <time>2023-08-21T08:30:58Z</time>
      </trkpt>
      <trkpt lat="45.70344" lon="6.63341">
        <ele>1474.2</ele>
        <time>2023-08-21T08:30:59Z</time>
      </trkpt>
      <trkpt lat="45.70343" lon="6.6334">
        <ele>1474.2</ele>
        <time>2023-08-21T08:31:00Z</time>
      </trkpt>
      <trkpt lat="45.70341" lon="6.6334">
        <ele>1474.8</ele>
        <time>2023-08-21T08:31:01Z</time>
      </trkpt>
      <trkpt lat="45.70339" lon="6.63339">
        <ele>1474.8</ele>
        <time>2023-08-21T08:31:02Z</time>
      </trkpt>
      <trkpt lat="45.70337" lon="6.63338">
        <ele>1474.8</ele>
        <time>2023-08-21T08:31:03Z</time>
      </trkpt>
      <trkpt lat="45.70335" lon="6.63338">
        <ele>1474.8</ele>
        <time>2023-08-21T08:31:04Z</time>
      </trkpt>
      <trkpt lat="45.70333" lon="6.63337">
        <ele>1475.4</ele>
        <time>2023-08-21T08:31:05Z</time>
      </trkpt>
      <trkpt lat="45.70331" lon="6.63336">
        <ele>1475.6</ele>
        <time>2023-08-21T08:31:06Z</time>
      </trkpt>
      <trkpt lat="45.70329" lon="6.63336">
        <ele>1475.6</ele>
        <time>2023-08-21T08:31:07Z</time>
      </trkpt>
      <trkpt lat="45.70327" lon="6.63335">
        <ele>1475.6</ele>
        <time>2023-08-21T08:31:08Z</time>
      </trkpt>
      <trkpt lat="45.70326" lon="6.63335">
        <ele>1476.2</ele>
        <time>2023-08-21T08:31:09Z</time>
      </trkpt>
      <trkpt lat="45.70324" lon="6.63334">
        <ele>1476.4</ele>
        <time>2023-08-21T08:31:10Z</time>
      </trkpt>
      <trkpt lat="45.70322" lon="6.63333">
        <ele>1476.4</ele>
        <time>2023-08-21T08:31:11Z</time>
      </trkpt>
      <trkpt lat="45.7032" lon="6.63333">
        <ele>1476.4</ele>
        <time>2023-08-21T08:31:12Z</time>
      </trkpt>
      <trkpt lat="45.70318" lon="6.63333">
        <ele>1476.4</ele>
        <time>2023-08-21T08:31:13Z</time>
      </trkpt>
      <trkpt lat="45.70317" lon="6.63333">
        <ele>1477</ele>
        <time>2023-08-21T08:31:14Z</time>
      </trkpt>
      <trkpt lat="45.70315" lon="6.63333">
        <ele>1477</ele>
        <time>2023-08-21T08:31:15Z</time>
      </trkpt>
      <trkpt lat="45.70313" lon="6.63333">
        <ele>1477</ele>
        <time>2023-08-21T08:31:16Z</time>
      </trkpt>
      <trkpt lat="45.70311" lon="6.63333">
        <ele>1477</ele>
        <time>2023-08-21T08:31:17Z</time>
      </trkpt>
      <trkpt lat="45.70309" lon="6.63333">
        <ele>1477.6</ele>
        <time>2023-08-21T08:31:18Z</time>
      </trkpt>
      <trkpt lat="45.70307" lon="6.63334">
        <ele>1477.8</ele>
        <time>2023-08-21T08:31:19Z</time>
      </trkpt>
      <trkpt lat="45.70306" lon="6.63334">
        <ele>1477.8</ele>
        <time>2023-08-21T08:31:20Z</time>
      </trkpt>
      <trkpt lat="45.70304" lon="6.63335">
        <ele>1477.8</ele>
        <time>2023-08-21T08:31:21Z</time>
      </trkpt>
      <trkpt lat="45.70302" lon="6.63336">
        <ele>1478.2</ele>
        <time>2023-08-21T08:31:22Z</time>
      </trkpt>
      <trkpt lat="45.703" lon="6.63336">
        <ele>1478.4</ele>
        <time>2023-08-21T08:31:23Z</time>
      </trkpt>
      <trkpt lat="45.70298" lon="6.63336">
        <ele>1478.4</ele>
        <time>2023-08-21T08:31:24Z</time>
      </trkpt>
      <trkpt lat="45.70297" lon="6.63336">
        <ele>1478.4</ele>
        <time>2023-08-21T08:31:25Z</time>
      </trkpt>
      <trkpt lat="45.70295" lon="6.63336">
        <ele>1478.4</ele>
        <time>2023-08-21T08:31:26Z</time>
      </trkpt>
      <trkpt lat="45.70293" lon="6.63337">
        <ele>1479</ele>
        <time>2023-08-21T08:31:27Z</time>
      </trkpt>
      <trkpt lat="45.70291" lon="6.63338">
        <ele>1479</ele>
        <time>2023-08-21T08:31:28Z</time>
      </trkpt>
      <trkpt lat="45.70289" lon="6.6334">
        <ele>1479</ele>
        <time>2023-08-21T08:31:29Z</time>
      </trkpt>
      <trkpt lat="45.70287" lon="6.63341">
        <ele>1479</ele>
        <time>2023-08-21T08:31:30Z</time>
      </trkpt>
      <trkpt lat="45.70285" lon="6.63342">
        <ele>1479.6</ele>
        <time>2023-08-21T08:31:31Z</time>
      </trkpt>
      <trkpt lat="45.70283" lon="6.63343">
        <ele>1480</ele>
        <time>2023-08-21T08:31:32Z</time>
      </trkpt>
      <trkpt lat="45.70281" lon="6.63344">
        <ele>1480</ele>
        <time>2023-08-21T08:31:33Z</time>
      </trkpt>
      <trkpt lat="45.70279" lon="6.63344">
        <ele>1480</ele>
        <time>2023-08-21T08:31:34Z</time>
      </trkpt>
      <trkpt lat="45.70277" lon="6.63345">
        <ele>1480.4</ele>
        <time>2023-08-21T08:31:35Z</time>
      </trkpt>
      <trkpt lat="45.70275" lon="6.63347">
        <ele>1480.4</ele>
        <time>2023-08-21T08:31:36Z</time>
      </trkpt>
      <trkpt lat="45.70273" lon="6.63348">
        <ele>1480.6</ele>
        <time>2023-08-21T08:31:37Z</time>
      </trkpt>
      <trkpt lat="45.70271" lon="6.63348">
        <ele>1480.6</ele>
        <time>2023-08-21T08:31:38Z</time>
      </trkpt>
      <trkpt lat="45.70269" lon="6.63348">
        <ele>1480.6</ele>
        <time>2023-08-21T08:31:39Z</time>
      </trkpt>
      <trkpt lat="45.70267" lon="6.63349">
        <ele>1481.4</ele>
        <time>2023-08-21T08:31:40Z</time>
      </trkpt>
      <trkpt lat="45.70265" lon="6.6335">
        <ele>1481.4</ele>
        <time>2023-08-21T08:31:41Z</time>
      </trkpt>
      <trkpt lat="45.70263" lon="6.6335">
        <ele>1481.4</ele>
        <time>2023-08-21T08:31:42Z</time>
      </trkpt>
      <trkpt lat="45.70262" lon="6.63351">
        <ele>1481.4</ele>
        <time>2023-08-21T08:31:43Z</time>
      </trkpt>
      <trkpt lat="45.7026" lon="6.63351">
        <ele>1481.4</ele>
        <time>2023-08-21T08:31:44Z</time>
      </trkpt>
      <trkpt lat="45.70258" lon="6.63351">
        <ele>1482</ele>
        <time>2023-08-21T08:31:45Z</time>
      </trkpt>
      <trkpt lat="45.70256" lon="6.63351">
        <ele>1482</ele>
        <time>2023-08-21T08:31:46Z</time>
      </trkpt>
      <trkpt lat="45.70254" lon="6.63351">
        <ele>1482</ele>
        <time>2023-08-21T08:31:47Z</time>
      </trkpt>
      <trkpt lat="45.70252" lon="6.63351">
        <ele>1482</ele>
        <time>2023-08-21T08:31:48Z</time>
      </trkpt>
      <trkpt lat="45.7025" lon="6.63351">
        <ele>1482</ele>
        <time>2023-08-21T08:31:49Z</time>
      </trkpt>
      <trkpt lat="45.70248" lon="6.63352">
        <ele>1482</ele>
        <time>2023-08-21T08:31:50Z</time>
      </trkpt>
      <trkpt lat="45.70246" lon="6.63352">
        <ele>1482.8</ele>
        <time>2023-08-21T08:31:51Z</time>
      </trkpt>
      <trkpt lat="45.70244" lon="6.63352">
        <ele>1482.8</ele>
        <time>2023-08-21T08:31:52Z</time>
      </trkpt>
      <trkpt lat="45.70243" lon="6.63353">
        <ele>1482.8</ele>
        <time>2023-08-21T08:31:53Z</time>
      </trkpt>
      <trkpt lat="45.70241" lon="6.63353">
        <ele>1482.8</ele>
        <time>2023-08-21T08:31:54Z</time>
      </trkpt>
      <trkpt lat="45.70239" lon="6.63353">
        <ele>1483.6</ele>
        <time>2023-08-21T08:31:55Z</time>
      </trkpt>
      <trkpt lat="45.70237" lon="6.63354">
        <ele>1483.6</ele>
        <time>2023-08-21T08:31:56Z</time>
      </trkpt>
      <trkpt lat="45.70236" lon="6.63355">
        <ele>1483.6</ele>
        <time>2023-08-21T08:31:57Z</time>
      </trkpt>
      <trkpt lat="45.70234" lon="6.63355">
        <ele>1484.2</ele>
        <time>2023-08-21T08:31:58Z</time>
      </trkpt>
      <trkpt lat="45.70232" lon="6.63356">
        <ele>1484.4</ele>
        <time>2023-08-21T08:31:59Z</time>
      </trkpt>
      <trkpt lat="45.7023" lon="6.63356">
        <ele>1484.4</ele>
        <time>2023-08-21T08:32:00Z</time>
      </trkpt>
      <trkpt lat="45.70228" lon="6.63356">
        <ele>1484.4</ele>
        <time>2023-08-21T08:32:01Z</time>
      </trkpt>
      <trkpt lat="45.70226" lon="6.63357">
        <ele>1484.4</ele>
        <time>2023-08-21T08:32:02Z</time>
      </trkpt>
      <trkpt lat="45.70224" lon="6.63358">
        <ele>1485</ele>
        <time>2023-08-21T08:32:03Z</time>
      </trkpt>
      <trkpt lat="45.70222" lon="6.63359">
        <ele>1485</ele>
        <time>2023-08-21T08:32:04Z</time>
      </trkpt>
      <trkpt lat="45.7022" lon="6.63359">
        <ele>1485</ele>
        <time>2023-08-21T08:32:05Z</time>
      </trkpt>
      <trkpt lat="45.70218" lon="6.6336">
        <ele>1485</ele>
        <time>2023-08-21T08:32:06Z</time>
      </trkpt>
      <trkpt lat="45.70216" lon="6.63361">
        <ele>1485.6</ele>
        <time>2023-08-21T08:32:07Z</time>
      </trkpt>
      <trkpt lat="45.70214" lon="6.63361">
        <ele>1485.8</ele>
        <time>2023-08-21T08:32:08Z</time>
      </trkpt>
      <trkpt lat="45.70212" lon="6.63362">
        <ele>1485.8</ele>
        <time>2023-08-21T08:32:09Z</time>
      </trkpt>
      <trkpt lat="45.7021" lon="6.63362">
        <ele>1485.8</ele>
        <time>2023-08-21T08:32:10Z</time>
      </trkpt>
      <trkpt lat="45.70208" lon="6.63362">
        <ele>1485.8</ele>
        <time>2023-08-21T08:32:11Z</time>
      </trkpt>
      <trkpt lat="45.70206" lon="6.63363">
        <ele>1486.4</ele>
        <time>2023-08-21T08:32:12Z</time>
      </trkpt>
      <trkpt lat="45.70204" lon="6.63363">
        <ele>1486.6</ele>
        <time>2023-08-21T08:32:13Z</time>
      </trkpt>
      <trkpt lat="45.70202" lon="6.63364">
        <ele>1486.6</ele>
        <time>2023-08-21T08:32:14Z</time>
      </trkpt>
      <trkpt lat="45.70201" lon="6.63364">
        <ele>1486.6</ele>
        <time>2023-08-21T08:32:15Z</time>
      </trkpt>
      <trkpt lat="45.70199" lon="6.63365">
        <ele>1487</ele>
        <time>2023-08-21T08:32:16Z</time>
      </trkpt>
      <trkpt lat="45.70197" lon="6.63365">
        <ele>1487.4</ele>
        <time>2023-08-21T08:32:17Z</time>
      </trkpt>
      <trkpt lat="45.70195" lon="6.63365">
        <ele>1487.4</ele>
        <time>2023-08-21T08:32:18Z</time>
      </trkpt>
      <trkpt lat="45.70193" lon="6.63365">
        <ele>1487.4</ele>
        <time>2023-08-21T08:32:19Z</time>
      </trkpt>
      <trkpt lat="45.70191" lon="6.63365">
        <ele>1487.8</ele>
        <time>2023-08-21T08:32:20Z</time>
      </trkpt>
      <trkpt lat="45.70189" lon="6.63366">
        <ele>1487.8</ele>
        <time>2023-08-21T08:32:21Z</time>
      </trkpt>
      <trkpt lat="45.70187" lon="6.63366">
        <ele>1488</ele>
        <time>2023-08-21T08:32:22Z</time>
      </trkpt>
      <trkpt lat="45.70185" lon="6.63366">
        <ele>1488</ele>
        <time>2023-08-21T08:32:23Z</time>
      </trkpt>
      <trkpt lat="45.70184" lon="6.63366">
        <ele>1488</ele>
        <time>2023-08-21T08:32:24Z</time>
      </trkpt>
      <trkpt lat="45.70181" lon="6.63366">
        <ele>1488</ele>
        <time>2023-08-21T08:32:25Z</time>
      </trkpt>
      <trkpt lat="45.70179" lon="6.63367">
        <ele>1488</ele>
        <time>2023-08-21T08:32:26Z</time>
      </trkpt>
      <trkpt lat="45.70177" lon="6.63367">
        <ele>1487.6</ele>
        <time>2023-08-21T08:32:27Z</time>
      </trkpt>
      <trkpt lat="45.70176" lon="6.63368">
        <ele>1487.6</ele>
        <time>2023-08-21T08:32:28Z</time>
      </trkpt>
      <trkpt lat="45.70174" lon="6.63368">
        <ele>1487.6</ele>
        <time>2023-08-21T08:32:29Z</time>
      </trkpt>
      <trkpt lat="45.70172" lon="6.63368">
        <ele>1487.6</ele>
        <time>2023-08-21T08:32:30Z</time>
      </trkpt>
      <trkpt lat="45.7017" lon="6.63369">
        <ele>1489.2</ele>
        <time>2023-08-21T08:32:31Z</time>
      </trkpt>
      <trkpt lat="45.70169" lon="6.6337">
        <ele>1489.2</ele>
        <time>2023-08-21T08:32:32Z</time>
      </trkpt>
      <trkpt lat="45.70167" lon="6.6337">
        <ele>1489.2</ele>
        <time>2023-08-21T08:32:33Z</time>
      </trkpt>
      <trkpt lat="45.70165" lon="6.63371">
        <ele>1490.2</ele>
        <time>2023-08-21T08:32:34Z</time>
      </trkpt>
      <trkpt lat="45.70163" lon="6.63371">
        <ele>1490.4</ele>
        <time>2023-08-21T08:32:35Z</time>
      </trkpt>
      <trkpt lat="45.70162" lon="6.63371">
        <ele>1490.4</ele>
        <time>2023-08-21T08:32:36Z</time>
      </trkpt>
      <trkpt lat="45.7016" lon="6.6337">
        <ele>1490.4</ele>
        <time>2023-08-21T08:32:37Z</time>
      </trkpt>
      <trkpt lat="45.70157" lon="6.6337">
        <ele>1490.4</ele>
        <time>2023-08-21T08:32:38Z</time>
      </trkpt>
      <trkpt lat="45.70155" lon="6.63369">
        <ele>1491</ele>
        <time>2023-08-21T08:32:39Z</time>
      </trkpt>
      <trkpt lat="45.70154" lon="6.63369">
        <ele>1491</ele>
        <time>2023-08-21T08:32:40Z</time>
      </trkpt>
      <trkpt lat="45.70152" lon="6.63369">
        <ele>1491</ele>
        <time>2023-08-21T08:32:41Z</time>
      </trkpt>
      <trkpt lat="45.7015" lon="6.63369">
        <ele>1491</ele>
        <time>2023-08-21T08:32:42Z</time>
      </trkpt>
      <trkpt lat="45.70148" lon="6.63369">
        <ele>1491.6</ele>
        <time>2023-08-21T08:32:43Z</time>
      </trkpt>
      <trkpt lat="45.70146" lon="6.63369">
        <ele>1491.8</ele>
        <time>2023-08-21T08:32:44Z</time>
      </trkpt>
      <trkpt lat="45.70145" lon="6.63369">
        <ele>1491.8</ele>
        <time>2023-08-21T08:32:45Z</time>
      </trkpt>
      <trkpt lat="45.70143" lon="6.6337">
        <ele>1491.8</ele>
        <time>2023-08-21T08:32:46Z</time>
      </trkpt>
      <trkpt lat="45.70141" lon="6.6337">
        <ele>1492.4</ele>
        <time>2023-08-21T08:32:47Z</time>
      </trkpt>
      <trkpt lat="45.70139" lon="6.63369">
        <ele>1492.4</ele>
        <time>2023-08-21T08:32:48Z</time>
      </trkpt>
      <trkpt lat="45.70137" lon="6.63369">
        <ele>1492.4</ele>
        <time>2023-08-21T08:32:49Z</time>
      </trkpt>
      <trkpt lat="45.70135" lon="6.6337">
        <ele>1492.4</ele>
        <time>2023-08-21T08:32:50Z</time>
      </trkpt>
      <trkpt lat="45.70133" lon="6.6337">
        <ele>1492.4</ele>
        <time>2023-08-21T08:32:51Z</time>
      </trkpt>
      <trkpt lat="45.70131" lon="6.6337">
        <ele>1493</ele>
        <time>2023-08-21T08:32:52Z</time>
      </trkpt>
      <trkpt lat="45.70129" lon="6.6337">
        <ele>1493</ele>
        <time>2023-08-21T08:32:53Z</time>
      </trkpt>
      <trkpt lat="45.70127" lon="6.6337">
        <ele>1493.2</ele>
        <time>2023-08-21T08:32:54Z</time>
      </trkpt>
      <trkpt lat="45.70126" lon="6.63371">
        <ele>1493.2</ele>
        <time>2023-08-21T08:32:55Z</time>
      </trkpt>
      <trkpt lat="45.70124" lon="6.63371">
        <ele>1493.6</ele>
        <time>2023-08-21T08:32:56Z</time>
      </trkpt>
      <trkpt lat="45.70122" lon="6.63372">
        <ele>1493.6</ele>
        <time>2023-08-21T08:32:57Z</time>
      </trkpt>
      <trkpt lat="45.7012" lon="6.63372">
        <ele>1493.6</ele>
        <time>2023-08-21T08:32:58Z</time>
      </trkpt>
      <trkpt lat="45.70119" lon="6.63372">
        <ele>1494</ele>
        <time>2023-08-21T08:32:59Z</time>
      </trkpt>
      <trkpt lat="45.70116" lon="6.63373">
        <ele>1494</ele>
        <time>2023-08-21T08:33:00Z</time>
      </trkpt>
      <trkpt lat="45.70114" lon="6.63373">
        <ele>1494</ele>
        <time>2023-08-21T08:33:01Z</time>
      </trkpt>
      <trkpt lat="45.70112" lon="6.63373">
        <ele>1494</ele>
        <time>2023-08-21T08:33:02Z</time>
      </trkpt>
      <trkpt lat="45.7011" lon="6.63374">
        <ele>1494.4</ele>
        <time>2023-08-21T08:33:03Z</time>
      </trkpt>
      <trkpt lat="45.70108" lon="6.63374">
        <ele>1494.4</ele>
        <time>2023-08-21T08:33:04Z</time>
      </trkpt>
      <trkpt lat="45.70106" lon="6.63374">
        <ele>1494.4</ele>
        <time>2023-08-21T08:33:05Z</time>
      </trkpt>
      <trkpt lat="45.70104" lon="6.63374">
        <ele>1494.4</ele>
        <time>2023-08-21T08:33:06Z</time>
      </trkpt>
      <trkpt lat="45.70102" lon="6.63374">
        <ele>1495.2</ele>
        <time>2023-08-21T08:33:07Z</time>
      </trkpt>
      <trkpt lat="45.70099" lon="6.63374">
        <ele>1495.2</ele>
        <time>2023-08-21T08:33:08Z</time>
      </trkpt>
      <trkpt lat="45.70097" lon="6.63374">
        <ele>1495.2</ele>
        <time>2023-08-21T08:33:09Z</time>
      </trkpt>
      <trkpt lat="45.70095" lon="6.63374">
        <ele>1495.2</ele>
        <time>2023-08-21T08:33:10Z</time>
      </trkpt>
      <trkpt lat="45.70093" lon="6.63374">
        <ele>1495.6</ele>
        <time>2023-08-21T08:33:11Z</time>
      </trkpt>
      <trkpt lat="45.70091" lon="6.63374">
        <ele>1495.8</ele>
        <time>2023-08-21T08:33:12Z</time>
      </trkpt>
      <trkpt lat="45.70089" lon="6.63375">
        <ele>1495.8</ele>
        <time>2023-08-21T08:33:13Z</time>
      </trkpt>
      <trkpt lat="45.70086" lon="6.63375">
        <ele>1495.8</ele>
        <time>2023-08-21T08:33:14Z</time>
      </trkpt>
      <trkpt lat="45.70084" lon="6.63375">
        <ele>1496.6</ele>
        <time>2023-08-21T08:33:15Z</time>
      </trkpt>
      <trkpt lat="45.70082" lon="6.63375">
        <ele>1496.8</ele>
        <time>2023-08-21T08:33:16Z</time>
      </trkpt>
      <trkpt lat="45.70081" lon="6.63375">
        <ele>1496.8</ele>
        <time>2023-08-21T08:33:17Z</time>
      </trkpt>
      <trkpt lat="45.70079" lon="6.63375">
        <ele>1496.8</ele>
        <time>2023-08-21T08:33:18Z</time>
      </trkpt>
      <trkpt lat="45.70077" lon="6.63375">
        <ele>1497.4</ele>
        <time>2023-08-21T08:33:19Z</time>
      </trkpt>
      <trkpt lat="45.70074" lon="6.63375">
        <ele>1497.4</ele>
        <time>2023-08-21T08:33:20Z</time>
      </trkpt>
      <trkpt lat="45.70072" lon="6.63376">
        <ele>1497.4</ele>
        <time>2023-08-21T08:33:21Z</time>
      </trkpt>
      <trkpt lat="45.70069" lon="6.63376">
        <ele>1497.4</ele>
        <time>2023-08-21T08:33:22Z</time>
      </trkpt>
      <trkpt lat="45.70067" lon="6.63377">
        <ele>1497.4</ele>
        <time>2023-08-21T08:33:23Z</time>
      </trkpt>
      <trkpt lat="45.70065" lon="6.63378">
        <ele>1498.2</ele>
        <time>2023-08-21T08:33:24Z</time>
      </trkpt>
      <trkpt lat="45.70062" lon="6.63378">
        <ele>1498.4</ele>
        <time>2023-08-21T08:33:25Z</time>
      </trkpt>
      <trkpt lat="45.7006" lon="6.63379">
        <ele>1498.4</ele>
        <time>2023-08-21T08:33:26Z</time>
      </trkpt>
      <trkpt lat="45.70058" lon="6.63379">
        <ele>1498.4</ele>
        <time>2023-08-21T08:33:27Z</time>
      </trkpt>
      <trkpt lat="45.70056" lon="6.63379">
        <ele>1499.4</ele>
        <time>2023-08-21T08:33:28Z</time>
      </trkpt>
      <trkpt lat="45.70053" lon="6.6338">
        <ele>1499.2</ele>
        <time>2023-08-21T08:33:29Z</time>
      </trkpt>
      <trkpt lat="45.7005" lon="6.6338">
        <ele>1499.2</ele>
        <time>2023-08-21T08:33:30Z</time>
      </trkpt>
      <trkpt lat="45.70047" lon="6.63381">
        <ele>1499.2</ele>
        <time>2023-08-21T08:33:31Z</time>
      </trkpt>
      <trkpt lat="45.70045" lon="6.63381">
        <ele>1499.2</ele>
        <time>2023-08-21T08:33:32Z</time>
      </trkpt>
      <trkpt lat="45.70042" lon="6.6338">
        <ele>1500.2</ele>
        <time>2023-08-21T08:33:33Z</time>
      </trkpt>
      <trkpt lat="45.7004" lon="6.6338">
        <ele>1500.4</ele>
        <time>2023-08-21T08:33:34Z</time>
      </trkpt>
      <trkpt lat="45.70038" lon="6.6338">
        <ele>1500.4</ele>
        <time>2023-08-21T08:33:35Z</time>
      </trkpt>
      <trkpt lat="45.70036" lon="6.6338">
        <ele>1500.4</ele>
        <time>2023-08-21T08:33:36Z</time>
      </trkpt>
      <trkpt lat="45.70034" lon="6.6338">
        <ele>1501</ele>
        <time>2023-08-21T08:33:37Z</time>
      </trkpt>
      <trkpt lat="45.70032" lon="6.63379">
        <ele>1501</ele>
        <time>2023-08-21T08:33:38Z</time>
      </trkpt>
      <trkpt lat="45.7003" lon="6.63378">
        <ele>1501</ele>
        <time>2023-08-21T08:33:39Z</time>
      </trkpt>
      <trkpt lat="45.70028" lon="6.63377">
        <ele>1501</ele>
        <time>2023-08-21T08:33:40Z</time>
      </trkpt>
      <trkpt lat="45.70026" lon="6.63377">
        <ele>1501</ele>
        <time>2023-08-21T08:33:41Z</time>
      </trkpt>
      <trkpt lat="45.70024" lon="6.63377">
        <ele>1501</ele>
        <time>2023-08-21T08:33:42Z</time>
      </trkpt>
      <trkpt lat="45.70022" lon="6.63377">
        <ele>1501.4</ele>
        <time>2023-08-21T08:33:43Z</time>
      </trkpt>
      <trkpt lat="45.7002" lon="6.63377">
        <ele>1501.6</ele>
        <time>2023-08-21T08:33:44Z</time>
      </trkpt>
      <trkpt lat="45.70018" lon="6.63376">
        <ele>1501.6</ele>
        <time>2023-08-21T08:33:45Z</time>
      </trkpt>
      <trkpt lat="45.70016" lon="6.63376">
        <ele>1501.6</ele>
        <time>2023-08-21T08:33:46Z</time>
      </trkpt>
      <trkpt lat="45.70014" lon="6.63376">
        <ele>1502.2</ele>
        <time>2023-08-21T08:33:47Z</time>
      </trkpt>
      <trkpt lat="45.70012" lon="6.63376">
        <ele>1502.4</ele>
        <time>2023-08-21T08:33:48Z</time>
      </trkpt>
      <trkpt lat="45.7001" lon="6.63377">
        <ele>1502.4</ele>
        <time>2023-08-21T08:33:49Z</time>
      </trkpt>
      <trkpt lat="45.70008" lon="6.63377">
        <ele>1502.4</ele>
        <time>2023-08-21T08:33:50Z</time>
      </trkpt>
      <trkpt lat="45.70006" lon="6.63377">
        <ele>1502.4</ele>
        <time>2023-08-21T08:33:51Z</time>
      </trkpt>
      <trkpt lat="45.70004" lon="6.63377">
        <ele>1502.8</ele>
        <time>2023-08-21T08:33:52Z</time>
      </trkpt>
      <trkpt lat="45.70003" lon="6.63377">
        <ele>1503</ele>
        <time>2023-08-21T08:33:53Z</time>
      </trkpt>
      <trkpt lat="45.70001" lon="6.63377">
        <ele>1503</ele>
        <time>2023-08-21T08:33:54Z</time>
      </trkpt>
      <trkpt lat="45.69998" lon="6.63376">
        <ele>1503</ele>
        <time>2023-08-21T08:33:55Z</time>
      </trkpt>
      <trkpt lat="45.69996" lon="6.63376">
        <ele>1503.6</ele>
        <time>2023-08-21T08:33:56Z</time>
      </trkpt>
      <trkpt lat="45.69994" lon="6.63375">
        <ele>1503.8</ele>
        <time>2023-08-21T08:33:57Z</time>
      </trkpt>
      <trkpt lat="45.69992" lon="6.63375">
        <ele>1503.8</ele>
        <time>2023-08-21T08:33:58Z</time>
      </trkpt>
      <trkpt lat="45.6999" lon="6.63375">
        <ele>1503.8</ele>
        <time>2023-08-21T08:33:59Z</time>
      </trkpt>
      <trkpt lat="45.69989" lon="6.63375">
        <ele>1504.6</ele>
        <time>2023-08-21T08:34:00Z</time>
      </trkpt>
      <trkpt lat="45.69987" lon="6.63375">
        <ele>1504.8</ele>
        <time>2023-08-21T08:34:01Z</time>
      </trkpt>
      <trkpt lat="45.69985" lon="6.63375">
        <ele>1504.8</ele>
        <time>2023-08-21T08:34:02Z</time>
      </trkpt>
      <trkpt lat="45.69983" lon="6.63375">
        <ele>1504.8</ele>
        <time>2023-08-21T08:34:03Z</time>
      </trkpt>
      <trkpt lat="45.69981" lon="6.63375">
        <ele>1504.8</ele>
        <time>2023-08-21T08:34:04Z</time>
      </trkpt>
      <trkpt lat="45.6998" lon="6.63375">
        <ele>1504.8</ele>
        <time>2023-08-21T08:34:05Z</time>
      </trkpt>
      <trkpt lat="45.69978" lon="6.63375">
        <ele>1505.6</ele>
        <time>2023-08-21T08:34:06Z</time>
      </trkpt>
      <trkpt lat="45.69976" lon="6.63375">
        <ele>1505.6</ele>
        <time>2023-08-21T08:34:07Z</time>
      </trkpt>
      <trkpt lat="45.69974" lon="6.63375">
        <ele>1505.6</ele>
        <time>2023-08-21T08:34:08Z</time>
      </trkpt>
      <trkpt lat="45.69972" lon="6.63375">
        <ele>1506</ele>
        <time>2023-08-21T08:34:09Z</time>
      </trkpt>
      <trkpt lat="45.6997" lon="6.63375">
        <ele>1506</ele>
        <time>2023-08-21T08:34:10Z</time>
      </trkpt>
      <trkpt lat="45.69968" lon="6.63375">
        <ele>1506</ele>
        <time>2023-08-21T08:34:11Z</time>
      </trkpt>
      <trkpt lat="45.69966" lon="6.63375">
        <ele>1506</ele>
        <time>2023-08-21T08:34:12Z</time>
      </trkpt>
      <trkpt lat="45.69964" lon="6.63375">
        <ele>1506.8</ele>
        <time>2023-08-21T08:34:13Z</time>
      </trkpt>
      <trkpt lat="45.69962" lon="6.63375">
        <ele>1507</ele>
        <time>2023-08-21T08:34:14Z</time>
      </trkpt>
      <trkpt lat="45.6996" lon="6.63375">
        <ele>1507</ele>
        <time>2023-08-21T08:34:15Z</time>
      </trkpt>
      <trkpt lat="45.69958" lon="6.63375">
        <ele>1507</ele>
        <time>2023-08-21T08:34:16Z</time>
      </trkpt>
      <trkpt lat="45.69956" lon="6.63375">
        <ele>1507</ele>
        <time>2023-08-21T08:34:17Z</time>
      </trkpt>
      <trkpt lat="45.69954" lon="6.63375">
        <ele>1507.4</ele>
        <time>2023-08-21T08:34:18Z</time>
      </trkpt>
      <trkpt lat="45.69953" lon="6.63376">
        <ele>1507.4</ele>
        <time>2023-08-21T08:34:19Z</time>
      </trkpt>
      <trkpt lat="45.69951" lon="6.63376">
        <ele>1507.4</ele>
        <time>2023-08-21T08:34:20Z</time>
      </trkpt>
      <trkpt lat="45.69949" lon="6.63377">
        <ele>1507.4</ele>
        <time>2023-08-21T08:34:21Z</time>
      </trkpt>
      <trkpt lat="45.69947" lon="6.63378">
        <ele>1508</ele>
        <time>2023-08-21T08:34:22Z</time>
      </trkpt>
      <trkpt lat="45.69945" lon="6.63379">
        <ele>1508</ele>
        <time>2023-08-21T08:34:23Z</time>
      </trkpt>
      <trkpt lat="45.69944" lon="6.6338">
        <ele>1508</ele>
        <time>2023-08-21T08:34:24Z</time>
      </trkpt>
      <trkpt lat="45.69942" lon="6.63382">
        <ele>1508.2</ele>
        <time>2023-08-21T08:34:25Z</time>
      </trkpt>
      <trkpt lat="45.6994" lon="6.63383">
        <ele>1508.2</ele>
        <time>2023-08-21T08:34:26Z</time>
      </trkpt>
      <trkpt lat="45.69938" lon="6.63384">
        <ele>1508.4</ele>
        <time>2023-08-21T08:34:27Z</time>
      </trkpt>
      <trkpt lat="45.69936" lon="6.63386">
        <ele>1508.4</ele>
        <time>2023-08-21T08:34:28Z</time>
      </trkpt>
      <trkpt lat="45.69934" lon="6.63388">
        <ele>1508.6</ele>
        <time>2023-08-21T08:34:29Z</time>
      </trkpt>
      <trkpt lat="45.69932" lon="6.63389">
        <ele>1508.6</ele>
        <time>2023-08-21T08:34:30Z</time>
      </trkpt>
      <trkpt lat="45.6993" lon="6.63391">
        <ele>1508.6</ele>
        <time>2023-08-21T08:34:31Z</time>
      </trkpt>
      <trkpt lat="45.69928" lon="6.63392">
        <ele>1508.6</ele>
        <time>2023-08-21T08:34:32Z</time>
      </trkpt>
      <trkpt lat="45.69926" lon="6.63394">
        <ele>1508.8</ele>
        <time>2023-08-21T08:34:33Z</time>
      </trkpt>
      <trkpt lat="45.69924" lon="6.63395">
        <ele>1508.8</ele>
        <time>2023-08-21T08:34:34Z</time>
      </trkpt>
      <trkpt lat="45.69922" lon="6.63396">
        <ele>1508.8</ele>
        <time>2023-08-21T08:34:35Z</time>
      </trkpt>
      <trkpt lat="45.6992" lon="6.63397">
        <ele>1508.8</ele>
        <time>2023-08-21T08:34:36Z</time>
      </trkpt>
      <trkpt lat="45.69918" lon="6.63398">
        <ele>1510</ele>
        <time>2023-08-21T08:34:37Z</time>
      </trkpt>
      <trkpt lat="45.69915" lon="6.63399">
        <ele>1510</ele>
        <time>2023-08-21T08:34:38Z</time>
      </trkpt>
      <trkpt lat="45.69913" lon="6.634">
        <ele>1510</ele>
        <time>2023-08-21T08:34:39Z</time>
      </trkpt>
      <trkpt lat="45.69911" lon="6.63401">
        <ele>1510</ele>
        <time>2023-08-21T08:34:40Z</time>
      </trkpt>
      <trkpt lat="45.6991" lon="6.63401">
        <ele>1510</ele>
        <time>2023-08-21T08:34:41Z</time>
      </trkpt>
      <trkpt lat="45.69907" lon="6.63402">
        <ele>1510.8</ele>
        <time>2023-08-21T08:34:42Z</time>
      </trkpt>
      <trkpt lat="45.69905" lon="6.63403">
        <ele>1510.8</ele>
        <time>2023-08-21T08:34:43Z</time>
      </trkpt>
      <trkpt lat="45.69903" lon="6.63403">
        <ele>1510.8</ele>
        <time>2023-08-21T08:34:44Z</time>
      </trkpt>
      <trkpt lat="45.69901" lon="6.63404">
        <ele>1511.2</ele>
        <time>2023-08-21T08:34:45Z</time>
      </trkpt>
      <trkpt lat="45.69899" lon="6.63404">
        <ele>1511.6</ele>
        <time>2023-08-21T08:34:46Z</time>
      </trkpt>
      <trkpt lat="45.69896" lon="6.63405">
        <ele>1511.6</ele>
        <time>2023-08-21T08:34:47Z</time>
      </trkpt>
      <trkpt lat="45.69894" lon="6.63406">
        <ele>1511.6</ele>
        <time>2023-08-21T08:34:48Z</time>
      </trkpt>
      <trkpt lat="45.69892" lon="6.63406">
        <ele>1512.4</ele>
        <time>2023-08-21T08:34:49Z</time>
      </trkpt>
      <trkpt lat="45.6989" lon="6.63406">
        <ele>1512.6</ele>
        <time>2023-08-21T08:34:50Z</time>
      </trkpt>
      <trkpt lat="45.69888" lon="6.63406">
        <ele>1512.6</ele>
        <time>2023-08-21T08:34:51Z</time>
      </trkpt>
      <trkpt lat="45.69886" lon="6.63406">
        <ele>1512.6</ele>
        <time>2023-08-21T08:34:52Z</time>
      </trkpt>
      <trkpt lat="45.69884" lon="6.63406">
        <ele>1512.6</ele>
        <time>2023-08-21T08:34:53Z</time>
      </trkpt>
      <trkpt lat="45.69882" lon="6.63406">
        <ele>1513.2</ele>
        <time>2023-08-21T08:34:54Z</time>
      </trkpt>
      <trkpt lat="45.6988" lon="6.63406">
        <ele>1513.2</ele>
        <time>2023-08-21T08:34:55Z</time>
      </trkpt>
      <trkpt lat="45.69878" lon="6.63406">
        <ele>1513.6</ele>
        <time>2023-08-21T08:34:56Z</time>
      </trkpt>
      <trkpt lat="45.69876" lon="6.63407">
        <ele>1513.6</ele>
        <time>2023-08-21T08:34:57Z</time>
      </trkpt>
      <trkpt lat="45.69874" lon="6.63407">
        <ele>1513.6</ele>
        <time>2023-08-21T08:34:58Z</time>
      </trkpt>
      <trkpt lat="45.69872" lon="6.63407">
        <ele>1514.2</ele>
        <time>2023-08-21T08:34:59Z</time>
      </trkpt>
      <trkpt lat="45.6987" lon="6.63407">
        <ele>1514.2</ele>
        <time>2023-08-21T08:35:00Z</time>
      </trkpt>
      <trkpt lat="45.69868" lon="6.63407">
        <ele>1514.2</ele>
        <time>2023-08-21T08:35:01Z</time>
      </trkpt>
      <trkpt lat="45.69865" lon="6.63407">
        <ele>1514.2</ele>
        <time>2023-08-21T08:35:02Z</time>
      </trkpt>
      <trkpt lat="45.69863" lon="6.63408">
        <ele>1515.2</ele>
        <time>2023-08-21T08:35:03Z</time>
      </trkpt>
      <trkpt lat="45.69861" lon="6.63408">
        <ele>1515.2</ele>
        <time>2023-08-21T08:35:04Z</time>
      </trkpt>
      <trkpt lat="45.69859" lon="6.63408">
        <ele>1515.2</ele>
        <time>2023-08-21T08:35:05Z</time>
      </trkpt>
      <trkpt lat="45.69856" lon="6.63408">
        <ele>1515.2</ele>
        <time>2023-08-21T08:35:06Z</time>
      </trkpt>
      <trkpt lat="45.69854" lon="6.63409">
        <ele>1515.2</ele>
        <time>2023-08-21T08:35:07Z</time>
      </trkpt>
      <trkpt lat="45.69852" lon="6.63409">
        <ele>1515.8</ele>
        <time>2023-08-21T08:35:08Z</time>
      </trkpt>
      <trkpt lat="45.6985" lon="6.63409">
        <ele>1515.8</ele>
        <time>2023-08-21T08:35:09Z</time>
      </trkpt>
      <trkpt lat="45.69848" lon="6.63408">
        <ele>1516</ele>
        <time>2023-08-21T08:35:10Z</time>
      </trkpt>
      <trkpt lat="45.69846" lon="6.63408">
        <ele>1516</ele>
        <time>2023-08-21T08:35:11Z</time>
      </trkpt>
      <trkpt lat="45.69844" lon="6.63408">
        <ele>1516.6</ele>
        <time>2023-08-21T08:35:12Z</time>
      </trkpt>
      <trkpt lat="45.69842" lon="6.63408">
        <ele>1516.8</ele>
        <time>2023-08-21T08:35:13Z</time>
      </trkpt>
      <trkpt lat="45.6984" lon="6.63408">
        <ele>1516.8</ele>
        <time>2023-08-21T08:35:14Z</time>
      </trkpt>
      <trkpt lat="45.69838" lon="6.63407">
        <ele>1516.8</ele>
        <time>2023-08-21T08:35:15Z</time>
      </trkpt>
      <trkpt lat="45.69836" lon="6.63406">
        <ele>1516.8</ele>
        <time>2023-08-21T08:35:16Z</time>
      </trkpt>
      <trkpt lat="45.69834" lon="6.63405">
        <ele>1517.2</ele>
        <time>2023-08-21T08:35:17Z</time>
      </trkpt>
      <trkpt lat="45.69831" lon="6.63404">
        <ele>1517.4</ele>
        <time>2023-08-21T08:35:18Z</time>
      </trkpt>
      <trkpt lat="45.6983" lon="6.63404">
        <ele>1517.4</ele>
        <time>2023-08-21T08:35:19Z</time>
      </trkpt>
      <trkpt lat="45.69828" lon="6.63403">
        <ele>1517.4</ele>
        <time>2023-08-21T08:35:20Z</time>
      </trkpt>
      <trkpt lat="45.69826" lon="6.63401">
        <ele>1517.4</ele>
        <time>2023-08-21T08:35:21Z</time>
      </trkpt>
      <trkpt lat="45.69824" lon="6.63399">
        <ele>1518.4</ele>
        <time>2023-08-21T08:35:22Z</time>
      </trkpt>
      <trkpt lat="45.69822" lon="6.63397">
        <ele>1518.4</ele>
        <time>2023-08-21T08:35:23Z</time>
      </trkpt>
      <trkpt lat="45.6982" lon="6.63395">
        <ele>1518.4</ele>
        <time>2023-08-21T08:35:24Z</time>
      </trkpt>
      <trkpt lat="45.69818" lon="6.63394">
        <ele>1519</ele>
        <time>2023-08-21T08:35:25Z</time>
      </trkpt>
      <trkpt lat="45.69817" lon="6.63393">
        <ele>1519</ele>
        <time>2023-08-21T08:35:26Z</time>
      </trkpt>
      <trkpt lat="45.69815" lon="6.63391">
        <ele>1519.4</ele>
        <time>2023-08-21T08:35:27Z</time>
      </trkpt>
      <trkpt lat="45.69813" lon="6.6339">
        <ele>1519.4</ele>
        <time>2023-08-21T08:35:28Z</time>
      </trkpt>
      <trkpt lat="45.69811" lon="6.63388">
        <ele>1519.4</ele>
        <time>2023-08-21T08:35:29Z</time>
      </trkpt>
      <trkpt lat="45.69809" lon="6.63387">
        <ele>1520.2</ele>
        <time>2023-08-21T08:35:30Z</time>
      </trkpt>
      <trkpt lat="45.69806" lon="6.63385">
        <ele>1520.2</ele>
        <time>2023-08-21T08:35:31Z</time>
      </trkpt>
      <trkpt lat="45.69804" lon="6.63382">
        <ele>1520.2</ele>
        <time>2023-08-21T08:35:32Z</time>
      </trkpt>
      <trkpt lat="45.69802" lon="6.63381">
        <ele>1520.2</ele>
        <time>2023-08-21T08:35:33Z</time>
      </trkpt>
      <trkpt lat="45.69799" lon="6.6338">
        <ele>1521</ele>
        <time>2023-08-21T08:35:34Z</time>
      </trkpt>
      <trkpt lat="45.69797" lon="6.63378">
        <ele>1521.2</ele>
        <time>2023-08-21T08:35:35Z</time>
      </trkpt>
      <trkpt lat="45.69795" lon="6.63377">
        <ele>1521.2</ele>
        <time>2023-08-21T08:35:36Z</time>
      </trkpt>
      <trkpt lat="45.69793" lon="6.63376">
        <ele>1521.2</ele>
        <time>2023-08-21T08:35:37Z</time>
      </trkpt>
      <trkpt lat="45.69791" lon="6.63375">
        <ele>1521.2</ele>
        <time>2023-08-21T08:35:38Z</time>
      </trkpt>
      <trkpt lat="45.69788" lon="6.63374">
        <ele>1521.8</ele>
        <time>2023-08-21T08:35:39Z</time>
      </trkpt>
      <trkpt lat="45.69786" lon="6.63374">
        <ele>1522.2</ele>
        <time>2023-08-21T08:35:40Z</time>
      </trkpt>
      <trkpt lat="45.69784" lon="6.63373">
        <ele>1522.2</ele>
        <time>2023-08-21T08:35:41Z</time>
      </trkpt>
      <trkpt lat="45.69782" lon="6.63373">
        <ele>1522.2</ele>
        <time>2023-08-21T08:35:42Z</time>
      </trkpt>
      <trkpt lat="45.69779" lon="6.63372">
        <ele>1522.4</ele>
        <time>2023-08-21T08:35:43Z</time>
      </trkpt>
      <trkpt lat="45.69777" lon="6.63373">
        <ele>1522.4</ele>
        <time>2023-08-21T08:35:44Z</time>
      </trkpt>
      <trkpt lat="45.69774" lon="6.63373">
        <ele>1522.6</ele>
        <time>2023-08-21T08:35:45Z</time>
      </trkpt>
      <trkpt lat="45.69772" lon="6.63374">
        <ele>1522.6</ele>
        <time>2023-08-21T08:35:46Z</time>
      </trkpt>
      <trkpt lat="45.69769" lon="6.63374">
        <ele>1523</ele>
        <time>2023-08-21T08:35:47Z</time>
      </trkpt>
      <trkpt lat="45.69767" lon="6.63374">
        <ele>1523</ele>
        <time>2023-08-21T08:35:48Z</time>
      </trkpt>
      <trkpt lat="45.69764" lon="6.63375">
        <ele>1523.2</ele>
        <time>2023-08-21T08:35:49Z</time>
      </trkpt>
      <trkpt lat="45.69762" lon="6.63375">
        <ele>1523.2</ele>
        <time>2023-08-21T08:35:50Z</time>
      </trkpt>
      <trkpt lat="45.6976" lon="6.63376">
        <ele>1523.2</ele>
        <time>2023-08-21T08:35:51Z</time>
      </trkpt>
      <trkpt lat="45.69757" lon="6.63376">
        <ele>1523.2</ele>
        <time>2023-08-21T08:35:52Z</time>
      </trkpt>
      <trkpt lat="45.69755" lon="6.63377">
        <ele>1523.2</ele>
        <time>2023-08-21T08:35:53Z</time>
      </trkpt>
      <trkpt lat="45.69752" lon="6.63377">
        <ele>1523.6</ele>
        <time>2023-08-21T08:35:54Z</time>
      </trkpt>
      <trkpt lat="45.6975" lon="6.63378">
        <ele>1523.6</ele>
        <time>2023-08-21T08:35:55Z</time>
      </trkpt>
      <trkpt lat="45.69747" lon="6.63379">
        <ele>1523.6</ele>
        <time>2023-08-21T08:35:56Z</time>
      </trkpt>
      <trkpt lat="45.69745" lon="6.6338">
        <ele>1523.6</ele>
        <time>2023-08-21T08:35:57Z</time>
      </trkpt>
      <trkpt lat="45.69742" lon="6.63381">
        <ele>1524</ele>
        <time>2023-08-21T08:35:58Z</time>
      </trkpt>
      <trkpt lat="45.69739" lon="6.63382">
        <ele>1524</ele>
        <time>2023-08-21T08:35:59Z</time>
      </trkpt>
      <trkpt lat="45.69737" lon="6.63382">
        <ele>1524</ele>
        <time>2023-08-21T08:36:00Z</time>
      </trkpt>
      <trkpt lat="45.69734" lon="6.63382">
        <ele>1524</ele>
        <time>2023-08-21T08:36:01Z</time>
      </trkpt>
      <trkpt lat="45.69731" lon="6.63382">
        <ele>1524.6</ele>
        <time>2023-08-21T08:36:02Z</time>
      </trkpt>
      <trkpt lat="45.69728" lon="6.63382">
        <ele>1524.6</ele>
        <time>2023-08-21T08:36:03Z</time>
      </trkpt>
      <trkpt lat="45.69726" lon="6.63381">
        <ele>1524.6</ele>
        <time>2023-08-21T08:36:04Z</time>
      </trkpt>
      <trkpt lat="45.69723" lon="6.63381">
        <ele>1524.6</ele>
        <time>2023-08-21T08:36:05Z</time>
      </trkpt>
      <trkpt lat="45.69721" lon="6.6338">
        <ele>1525.2</ele>
        <time>2023-08-21T08:36:06Z</time>
      </trkpt>
      <trkpt lat="45.69718" lon="6.63379">
        <ele>1525.4</ele>
        <time>2023-08-21T08:36:07Z</time>
      </trkpt>
      <trkpt lat="45.69716" lon="6.63379">
        <ele>1525.4</ele>
        <time>2023-08-21T08:36:08Z</time>
      </trkpt>
      <trkpt lat="45.69713" lon="6.63378">
        <ele>1525.4</ele>
        <time>2023-08-21T08:36:09Z</time>
      </trkpt>
      <trkpt lat="45.69711" lon="6.63376">
        <ele>1526.2</ele>
        <time>2023-08-21T08:36:10Z</time>
      </trkpt>
      <trkpt lat="45.69708" lon="6.63375">
        <ele>1526.2</ele>
        <time>2023-08-21T08:36:11Z</time>
      </trkpt>
      <trkpt lat="45.69705" lon="6.63375">
        <ele>1526.2</ele>
        <time>2023-08-21T08:36:12Z</time>
      </trkpt>
      <trkpt lat="45.69703" lon="6.63375">
        <ele>1526.2</ele>
        <time>2023-08-21T08:36:13Z</time>
      </trkpt>
      <trkpt lat="45.697" lon="6.63374">
        <ele>1526.2</ele>
        <time>2023-08-21T08:36:14Z</time>
      </trkpt>
      <trkpt lat="45.69697" lon="6.63373">
        <ele>1526.8</ele>
        <time>2023-08-21T08:36:15Z</time>
      </trkpt>
      <trkpt lat="45.69695" lon="6.63373">
        <ele>1527.2</ele>
        <time>2023-08-21T08:36:16Z</time>
      </trkpt>
      <trkpt lat="45.69693" lon="6.63371">
        <ele>1527.2</ele>
        <time>2023-08-21T08:36:17Z</time>
      </trkpt>
      <trkpt lat="45.6969" lon="6.6337">
        <ele>1527.2</ele>
        <time>2023-08-21T08:36:18Z</time>
      </trkpt>
      <trkpt lat="45.69688" lon="6.63369">
        <ele>1527.4</ele>
        <time>2023-08-21T08:36:19Z</time>
      </trkpt>
      <trkpt lat="45.69685" lon="6.63368">
        <ele>1527.6</ele>
        <time>2023-08-21T08:36:20Z</time>
      </trkpt>
      <trkpt lat="45.69683" lon="6.63367">
        <ele>1527.6</ele>
        <time>2023-08-21T08:36:21Z</time>
      </trkpt>
      <trkpt lat="45.6968" lon="6.63365">
        <ele>1527.6</ele>
        <time>2023-08-21T08:36:22Z</time>
      </trkpt>
      <trkpt lat="45.69678" lon="6.63364">
        <ele>1528.2</ele>
        <time>2023-08-21T08:36:23Z</time>
      </trkpt>
      <trkpt lat="45.69676" lon="6.63362">
        <ele>1528.4</ele>
        <time>2023-08-21T08:36:24Z</time>
      </trkpt>
      <trkpt lat="45.69673" lon="6.63361">
        <ele>1528.4</ele>
        <time>2023-08-21T08:36:25Z</time>
      </trkpt>
      <trkpt lat="45.69671" lon="6.6336">
        <ele>1528.4</ele>
        <time>2023-08-21T08:36:26Z</time>
      </trkpt>
      <trkpt lat="45.69668" lon="6.63358">
        <ele>1528.4</ele>
        <time>2023-08-21T08:36:27Z</time>
      </trkpt>
      <trkpt lat="45.69666" lon="6.63357">
        <ele>1529</ele>
        <time>2023-08-21T08:36:28Z</time>
      </trkpt>
      <trkpt lat="45.69664" lon="6.63355">
        <ele>1529</ele>
        <time>2023-08-21T08:36:29Z</time>
      </trkpt>
      <trkpt lat="45.69662" lon="6.63354">
        <ele>1529</ele>
        <time>2023-08-21T08:36:30Z</time>
      </trkpt>
      <trkpt lat="45.6966" lon="6.63352">
        <ele>1529</ele>
        <time>2023-08-21T08:36:31Z</time>
      </trkpt>
      <trkpt lat="45.69658" lon="6.6335">
        <ele>1529</ele>
        <time>2023-08-21T08:36:32Z</time>
      </trkpt>
      <trkpt lat="45.69656" lon="6.63349">
        <ele>1529</ele>
        <time>2023-08-21T08:36:33Z</time>
      </trkpt>
      <trkpt lat="45.69654" lon="6.63347">
        <ele>1529.8</ele>
        <time>2023-08-21T08:36:34Z</time>
      </trkpt>
      <trkpt lat="45.69652" lon="6.63346">
        <ele>1529.8</ele>
        <time>2023-08-21T08:36:35Z</time>
      </trkpt>
      <trkpt lat="45.69649" lon="6.63345">
        <ele>1529.8</ele>
        <time>2023-08-21T08:36:36Z</time>
      </trkpt>
      <trkpt lat="45.69647" lon="6.63344">
        <ele>1530.4</ele>
        <time>2023-08-21T08:36:37Z</time>
      </trkpt>
      <trkpt lat="45.69645" lon="6.63343">
        <ele>1530.4</ele>
        <time>2023-08-21T08:36:38Z</time>
      </trkpt>
      <trkpt lat="45.69643" lon="6.63343">
        <ele>1530.4</ele>
        <time>2023-08-21T08:36:39Z</time>
      </trkpt>
      <trkpt lat="45.6964" lon="6.63342">
        <ele>1530.6</ele>
        <time>2023-08-21T08:36:40Z</time>
      </trkpt>
      <trkpt lat="45.69638" lon="6.63341">
        <ele>1530.6</ele>
        <time>2023-08-21T08:36:41Z</time>
      </trkpt>
      <trkpt lat="45.69635" lon="6.63341">
        <ele>1531.2</ele>
        <time>2023-08-21T08:36:42Z</time>
      </trkpt>
      <trkpt lat="45.69633" lon="6.6334">
        <ele>1531.2</ele>
        <time>2023-08-21T08:36:43Z</time>
      </trkpt>
      <trkpt lat="45.69631" lon="6.63339">
        <ele>1531.4</ele>
        <time>2023-08-21T08:36:44Z</time>
      </trkpt>
      <trkpt lat="45.69628" lon="6.63338">
        <ele>1531.4</ele>
        <time>2023-08-21T08:36:45Z</time>
      </trkpt>
      <trkpt lat="45.69626" lon="6.63338">
        <ele>1531.8</ele>
        <time>2023-08-21T08:36:46Z</time>
      </trkpt>
      <trkpt lat="45.69623" lon="6.63337">
        <ele>1531.8</ele>
        <time>2023-08-21T08:36:47Z</time>
      </trkpt>
      <trkpt lat="45.69621" lon="6.63336">
        <ele>1531.8</ele>
        <time>2023-08-21T08:36:48Z</time>
      </trkpt>
      <trkpt lat="45.69618" lon="6.63335">
        <ele>1531.8</ele>
        <time>2023-08-21T08:36:49Z</time>
      </trkpt>
      <trkpt lat="45.69616" lon="6.63334">
        <ele>1531.8</ele>
        <time>2023-08-21T08:36:50Z</time>
      </trkpt>
      <trkpt lat="45.69614" lon="6.63334">
        <ele>1532.4</ele>
        <time>2023-08-21T08:36:51Z</time>
      </trkpt>
      <trkpt lat="45.69611" lon="6.63333">
        <ele>1532.6</ele>
        <time>2023-08-21T08:36:52Z</time>
      </trkpt>
      <trkpt lat="45.69609" lon="6.63332">
        <ele>1532.6</ele>
        <time>2023-08-21T08:36:53Z</time>
      </trkpt>
      <trkpt lat="45.69606" lon="6.63331">
        <ele>1532.6</ele>
        <time>2023-08-21T08:36:54Z</time>
      </trkpt>
      <trkpt lat="45.69604" lon="6.6333">
        <ele>1533.2</ele>
        <time>2023-08-21T08:36:55Z</time>
      </trkpt>
      <trkpt lat="45.69602" lon="6.63329">
        <ele>1533.2</ele>
        <time>2023-08-21T08:36:56Z</time>
      </trkpt>
      <trkpt lat="45.696" lon="6.63328">
        <ele>1533.2</ele>
        <time>2023-08-21T08:36:57Z</time>
      </trkpt>
      <trkpt lat="45.69598" lon="6.63327">
        <ele>1533.2</ele>
        <time>2023-08-21T08:36:58Z</time>
      </trkpt>
      <trkpt lat="45.69595" lon="6.63326">
        <ele>1534</ele>
        <time>2023-08-21T08:36:59Z</time>
      </trkpt>
      <trkpt lat="45.69593" lon="6.63325">
        <ele>1534</ele>
        <time>2023-08-21T08:37:00Z</time>
      </trkpt>
      <trkpt lat="45.69591" lon="6.63324">
        <ele>1534</ele>
        <time>2023-08-21T08:37:01Z</time>
      </trkpt>
      <trkpt lat="45.69589" lon="6.63322">
        <ele>1534</ele>
        <time>2023-08-21T08:37:02Z</time>
      </trkpt>
      <trkpt lat="45.69587" lon="6.63321">
        <ele>1534</ele>
        <time>2023-08-21T08:37:03Z</time>
      </trkpt>
      <trkpt lat="45.69585" lon="6.63319">
        <ele>1534.6</ele>
        <time>2023-08-21T08:37:04Z</time>
      </trkpt>
      <trkpt lat="45.69583" lon="6.63318">
        <ele>1534.8</ele>
        <time>2023-08-21T08:37:05Z</time>
      </trkpt>
      <trkpt lat="45.6958" lon="6.63317">
        <ele>1534.8</ele>
        <time>2023-08-21T08:37:06Z</time>
      </trkpt>
      <trkpt lat="45.69578" lon="6.63315">
        <ele>1534.8</ele>
        <time>2023-08-21T08:37:07Z</time>
      </trkpt>
      <trkpt lat="45.69576" lon="6.63313">
        <ele>1535.4</ele>
        <time>2023-08-21T08:37:08Z</time>
      </trkpt>
      <trkpt lat="45.69574" lon="6.63312">
        <ele>1535.6</ele>
        <time>2023-08-21T08:37:09Z</time>
      </trkpt>
      <trkpt lat="45.69572" lon="6.6331">
        <ele>1535.6</ele>
        <time>2023-08-21T08:37:10Z</time>
      </trkpt>
      <trkpt lat="45.6957" lon="6.63309">
        <ele>1535.6</ele>
        <time>2023-08-21T08:37:11Z</time>
      </trkpt>
      <trkpt lat="45.69568" lon="6.63307">
        <ele>1535.6</ele>
        <time>2023-08-21T08:37:12Z</time>
      </trkpt>
      <trkpt lat="45.69566" lon="6.63305">
        <ele>1535.6</ele>
        <time>2023-08-21T08:37:13Z</time>
      </trkpt>
      <trkpt lat="45.69563" lon="6.63303">
        <ele>1536.2</ele>
        <time>2023-08-21T08:37:14Z</time>
      </trkpt>
      <trkpt lat="45.69561" lon="6.63302">
        <ele>1536.2</ele>
        <time>2023-08-21T08:37:15Z</time>
      </trkpt>
      <trkpt lat="45.69558" lon="6.63301">
        <ele>1536.2</ele>
        <time>2023-08-21T08:37:16Z</time>
      </trkpt>
      <trkpt lat="45.69556" lon="6.633">
        <ele>1536.2</ele>
        <time>2023-08-21T08:37:17Z</time>
      </trkpt>
      <trkpt lat="45.69554" lon="6.63299">
        <ele>1536.8</ele>
        <time>2023-08-21T08:37:18Z</time>
      </trkpt>
      <trkpt lat="45.69551" lon="6.63298">
        <ele>1537</ele>
        <time>2023-08-21T08:37:19Z</time>
      </trkpt>
      <trkpt lat="45.69549" lon="6.63297">
        <ele>1537</ele>
        <time>2023-08-21T08:37:20Z</time>
      </trkpt>
      <trkpt lat="45.69546" lon="6.63296">
        <ele>1537</ele>
        <time>2023-08-21T08:37:21Z</time>
      </trkpt>
      <trkpt lat="45.69544" lon="6.63295">
        <ele>1537.2</ele>
        <time>2023-08-21T08:37:22Z</time>
      </trkpt>
      <trkpt lat="45.69541" lon="6.63295">
        <ele>1537.2</ele>
        <time>2023-08-21T08:37:23Z</time>
      </trkpt>
      <trkpt lat="45.69539" lon="6.63294">
        <ele>1537.2</ele>
        <time>2023-08-21T08:37:24Z</time>
      </trkpt>
      <trkpt lat="45.69536" lon="6.63294">
        <ele>1537.2</ele>
        <time>2023-08-21T08:37:25Z</time>
      </trkpt>
      <trkpt lat="45.69534" lon="6.63293">
        <ele>1537.2</ele>
        <time>2023-08-21T08:37:26Z</time>
      </trkpt>
      <trkpt lat="45.69531" lon="6.63293">
        <ele>1537.6</ele>
        <time>2023-08-21T08:37:27Z</time>
      </trkpt>
      <trkpt lat="45.69528" lon="6.63293">
        <ele>1537.6</ele>
        <time>2023-08-21T08:37:28Z</time>
      </trkpt>
      <trkpt lat="45.69526" lon="6.63293">
        <ele>1537.6</ele>
        <time>2023-08-21T08:37:29Z</time>
      </trkpt>
      <trkpt lat="45.69523" lon="6.63294">
        <ele>1537.6</ele>
        <time>2023-08-21T08:37:30Z</time>
      </trkpt>
      <trkpt lat="45.69521" lon="6.63295">
        <ele>1538</ele>
        <time>2023-08-21T08:37:31Z</time>
      </trkpt>
      <trkpt lat="45.69519" lon="6.63296">
        <ele>1538.2</ele>
        <time>2023-08-21T08:37:32Z</time>
      </trkpt>
      <trkpt lat="45.69516" lon="6.63297">
        <ele>1538.2</ele>
        <time>2023-08-21T08:37:33Z</time>
      </trkpt>
      <trkpt lat="45.69514" lon="6.63298">
        <ele>1538.2</ele>
        <time>2023-08-21T08:37:34Z</time>
      </trkpt>
      <trkpt lat="45.69512" lon="6.633">
        <ele>1538.2</ele>
        <time>2023-08-21T08:37:35Z</time>
      </trkpt>
      <trkpt lat="45.6951" lon="6.63302">
        <ele>1538.6</ele>
        <time>2023-08-21T08:37:36Z</time>
      </trkpt>
      <trkpt lat="45.69508" lon="6.63305">
        <ele>1538.6</ele>
        <time>2023-08-21T08:37:37Z</time>
      </trkpt>
      <trkpt lat="45.69506" lon="6.63307">
        <ele>1538.4</ele>
        <time>2023-08-21T08:37:38Z</time>
      </trkpt>
      <trkpt lat="45.69504" lon="6.6331">
        <ele>1538.4</ele>
        <time>2023-08-21T08:37:39Z</time>
      </trkpt>
      <trkpt lat="45.69502" lon="6.63313">
        <ele>1538.4</ele>
        <time>2023-08-21T08:37:40Z</time>
      </trkpt>
      <trkpt lat="45.695" lon="6.63316">
        <ele>1538.6</ele>
        <time>2023-08-21T08:37:41Z</time>
      </trkpt>
      <trkpt lat="45.69498" lon="6.6332">
        <ele>1538.6</ele>
        <time>2023-08-21T08:37:42Z</time>
      </trkpt>
      <trkpt lat="45.69496" lon="6.63323">
        <ele>1538.6</ele>
        <time>2023-08-21T08:37:43Z</time>
      </trkpt>
      <trkpt lat="45.69495" lon="6.63327">
        <ele>1539</ele>
        <time>2023-08-21T08:37:44Z</time>
      </trkpt>
      <trkpt lat="45.69494" lon="6.6333">
        <ele>1539</ele>
        <time>2023-08-21T08:37:45Z</time>
      </trkpt>
      <trkpt lat="45.69492" lon="6.63334">
        <ele>1539.2</ele>
        <time>2023-08-21T08:37:46Z</time>
      </trkpt>
      <trkpt lat="45.69491" lon="6.63338">
        <ele>1539.2</ele>
        <time>2023-08-21T08:37:47Z</time>
      </trkpt>
      <trkpt lat="45.6949" lon="6.63342">
        <ele>1539.2</ele>
        <time>2023-08-21T08:37:48Z</time>
      </trkpt>
      <trkpt lat="45.6949" lon="6.63347">
        <ele>1539.2</ele>
        <time>2023-08-21T08:37:49Z</time>
      </trkpt>
      <trkpt lat="45.69489" lon="6.63351">
        <ele>1539.2</ele>
        <time>2023-08-21T08:37:50Z</time>
      </trkpt>
      <trkpt lat="45.69488" lon="6.63355">
        <ele>1539.2</ele>
        <time>2023-08-21T08:37:51Z</time>
      </trkpt>
      <trkpt lat="45.69487" lon="6.63359">
        <ele>1539.2</ele>
        <time>2023-08-21T08:37:52Z</time>
      </trkpt>
      <trkpt lat="45.69487" lon="6.63363">
        <ele>1539.2</ele>
        <time>2023-08-21T08:37:53Z</time>
      </trkpt>
      <trkpt lat="45.69487" lon="6.63367">
        <ele>1539.6</ele>
        <time>2023-08-21T08:37:54Z</time>
      </trkpt>
      <trkpt lat="45.69487" lon="6.63371">
        <ele>1539.6</ele>
        <time>2023-08-21T08:37:55Z</time>
      </trkpt>
      <trkpt lat="45.69488" lon="6.63375">
        <ele>1539.6</ele>
        <time>2023-08-21T08:37:56Z</time>
      </trkpt>
      <trkpt lat="45.69488" lon="6.63379">
        <ele>1539.6</ele>
        <time>2023-08-21T08:37:57Z</time>
      </trkpt>
      <trkpt lat="45.69489" lon="6.63383">
        <ele>1539.6</ele>
        <time>2023-08-21T08:37:58Z</time>
      </trkpt>
      <trkpt lat="45.69489" lon="6.63387">
        <ele>1540</ele>
        <time>2023-08-21T08:37:59Z</time>
      </trkpt>
      <trkpt lat="45.69489" lon="6.63391">
        <ele>1540</ele>
        <time>2023-08-21T08:38:00Z</time>
      </trkpt>
      <trkpt lat="45.69489" lon="6.63396">
        <ele>1540.2</ele>
        <time>2023-08-21T08:38:01Z</time>
      </trkpt>
      <trkpt lat="45.6949" lon="6.634">
        <ele>1540.2</ele>
        <time>2023-08-21T08:38:02Z</time>
      </trkpt>
      <trkpt lat="45.6949" lon="6.63404">
        <ele>1540.6</ele>
        <time>2023-08-21T08:38:03Z</time>
      </trkpt>
      <trkpt lat="45.6949" lon="6.63409">
        <ele>1540.6</ele>
        <time>2023-08-21T08:38:04Z</time>
      </trkpt>
      <trkpt lat="45.69491" lon="6.63412">
        <ele>1540.6</ele>
        <time>2023-08-21T08:38:05Z</time>
      </trkpt>
      <trkpt lat="45.69491" lon="6.63416">
        <ele>1540.6</ele>
        <time>2023-08-21T08:38:06Z</time>
      </trkpt>
      <trkpt lat="45.69492" lon="6.6342">
        <ele>1540.6</ele>
        <time>2023-08-21T08:38:07Z</time>
      </trkpt>
      <trkpt lat="45.69492" lon="6.63424">
        <ele>1540.6</ele>
        <time>2023-08-21T08:38:08Z</time>
      </trkpt>
      <trkpt lat="45.69492" lon="6.63427">
        <ele>1541</ele>
        <time>2023-08-21T08:38:09Z</time>
      </trkpt>
      <trkpt lat="45.69493" lon="6.63431">
        <ele>1541</ele>
        <time>2023-08-21T08:38:10Z</time>
      </trkpt>
      <trkpt lat="45.69494" lon="6.63434">
        <ele>1541</ele>
        <time>2023-08-21T08:38:11Z</time>
      </trkpt>
      <trkpt lat="45.69495" lon="6.63438">
        <ele>1541.6</ele>
        <time>2023-08-21T08:38:12Z</time>
      </trkpt>
      <trkpt lat="45.69495" lon="6.63442">
        <ele>1541.6</ele>
        <time>2023-08-21T08:38:13Z</time>
      </trkpt>
      <trkpt lat="45.69496" lon="6.63445">
        <ele>1541.6</ele>
        <time>2023-08-21T08:38:14Z</time>
      </trkpt>
      <trkpt lat="45.69497" lon="6.63449">
        <ele>1541.6</ele>
        <time>2023-08-21T08:38:15Z</time>
      </trkpt>
      <trkpt lat="45.69497" lon="6.63453">
        <ele>1541.6</ele>
        <time>2023-08-21T08:38:16Z</time>
      </trkpt>
      <trkpt lat="45.69498" lon="6.63457">
        <ele>1541.4</ele>
        <time>2023-08-21T08:38:17Z</time>
      </trkpt>
      <trkpt lat="45.69499" lon="6.63461">
        <ele>1541.4</ele>
        <time>2023-08-21T08:38:18Z</time>
      </trkpt>
      <trkpt lat="45.695" lon="6.63465">
        <ele>1541.4</ele>
        <time>2023-08-21T08:38:19Z</time>
      </trkpt>
      <trkpt lat="45.69502" lon="6.63469">
        <ele>1541.4</ele>
        <time>2023-08-21T08:38:20Z</time>
      </trkpt>
      <trkpt lat="45.69503" lon="6.63474">
        <ele>1541.4</ele>
        <time>2023-08-21T08:38:21Z</time>
      </trkpt>
      <trkpt lat="45.69505" lon="6.63478">
        <ele>1541.2</ele>
        <time>2023-08-21T08:38:22Z</time>
      </trkpt>
      <trkpt lat="45.69506" lon="6.63483">
        <ele>1541.2</ele>
        <time>2023-08-21T08:38:23Z</time>
      </trkpt>
      <trkpt lat="45.69508" lon="6.63487">
        <ele>1541.2</ele>
        <time>2023-08-21T08:38:24Z</time>
      </trkpt>
      <trkpt lat="45.6951" lon="6.6349">
        <ele>1541.2</ele>
        <time>2023-08-21T08:38:25Z</time>
      </trkpt>
      <trkpt lat="45.6951" lon="6.63493">
        <ele>1541</ele>
        <time>2023-08-21T08:38:26Z</time>
      </trkpt>
      <trkpt lat="45.6951" lon="6.63495">
        <ele>1541</ele>
        <time>2023-08-21T08:38:27Z</time>
      </trkpt>
      <trkpt lat="45.6951" lon="6.63497">
        <ele>1541</ele>
        <time>2023-08-21T08:38:28Z</time>
      </trkpt>
      <trkpt lat="45.6951" lon="6.63499">
        <ele>1541</ele>
        <time>2023-08-21T08:38:29Z</time>
      </trkpt>
      <trkpt lat="45.69509" lon="6.63501">
        <ele>1540.8</ele>
        <time>2023-08-21T08:38:30Z</time>
      </trkpt>
      <trkpt lat="45.69507" lon="6.63502">
        <ele>1540.8</ele>
        <time>2023-08-21T08:38:31Z</time>
      </trkpt>
      <trkpt lat="45.69505" lon="6.63503">
        <ele>1540.8</ele>
        <time>2023-08-21T08:38:32Z</time>
      </trkpt>
      <trkpt lat="45.69504" lon="6.63503">
        <ele>1540.8</ele>
        <time>2023-08-21T08:38:33Z</time>
      </trkpt>
      <trkpt lat="45.69503" lon="6.63504">
        <ele>1540.8</ele>
        <time>2023-08-21T08:38:34Z</time>
      </trkpt>
      <trkpt lat="45.69502" lon="6.63504">
        <ele>1540.6</ele>
        <time>2023-08-21T08:38:35Z</time>
      </trkpt>
      <trkpt lat="45.69501" lon="6.63504">
        <ele>1540.6</ele>
        <time>2023-08-21T08:38:36Z</time>
      </trkpt>
      <trkpt lat="45.69501" lon="6.63504">
        <ele>1540.6</ele>
        <time>2023-08-21T08:38:37Z</time>
      </trkpt>
      <trkpt lat="45.69501" lon="6.63504">
        <ele>1540.6</ele>
        <time>2023-08-21T08:38:38Z</time>
      </trkpt>
      <trkpt lat="45.69501" lon="6.63504">
        <ele>1540.6</ele>
        <time>2023-08-21T08:38:39Z</time>
      </trkpt>
      <trkpt lat="45.69509" lon="6.63503">
        <ele>1540.4</ele>
        <time>2023-08-21T08:40:02Z</time>
      </trkpt>
      <trkpt lat="45.6951" lon="6.63504">
        <ele>1540.4</ele>
        <time>2023-08-21T08:40:03Z</time>
      </trkpt>
      <trkpt lat="45.69512" lon="6.63505">
        <ele>1540.4</ele>
        <time>2023-08-21T08:40:04Z</time>
      </trkpt>
      <trkpt lat="45.69513" lon="6.63507">
        <ele>1540</ele>
        <time>2023-08-21T08:40:05Z</time>
      </trkpt>
      <trkpt lat="45.69516" lon="6.63509">
        <ele>1540</ele>
        <time>2023-08-21T08:40:06Z</time>
      </trkpt>
      <trkpt lat="45.69517" lon="6.63513">
        <ele>1540</ele>
        <time>2023-08-21T08:40:07Z</time>
      </trkpt>
      <trkpt lat="45.69519" lon="6.63516">
        <ele>1540</ele>
        <time>2023-08-21T08:40:08Z</time>
      </trkpt>
      <trkpt lat="45.69521" lon="6.6352">
        <ele>1540</ele>
        <time>2023-08-21T08:40:09Z</time>
      </trkpt>
      <trkpt lat="45.69523" lon="6.63524">
        <ele>1540</ele>
        <time>2023-08-21T08:40:10Z</time>
      </trkpt>
      <trkpt lat="45.69525" lon="6.63528">
        <ele>1540</ele>
        <time>2023-08-21T08:40:11Z</time>
      </trkpt>
      <trkpt lat="45.69528" lon="6.63533">
        <ele>1539.4</ele>
        <time>2023-08-21T08:40:12Z</time>
      </trkpt>
      <trkpt lat="45.6953" lon="6.63538">
        <ele>1539.4</ele>
        <time>2023-08-21T08:40:13Z</time>
      </trkpt>
      <trkpt lat="45.69533" lon="6.63543">
        <ele>1539.2</ele>
        <time>2023-08-21T08:40:14Z</time>
      </trkpt>
      <trkpt lat="45.69537" lon="6.63548">
        <ele>1539.2</ele>
        <time>2023-08-21T08:40:15Z</time>
      </trkpt>
      <trkpt lat="45.6954" lon="6.63554">
        <ele>1539.2</ele>
        <time>2023-08-21T08:40:16Z</time>
      </trkpt>
      <trkpt lat="45.69544" lon="6.63561">
        <ele>1539.2</ele>
        <time>2023-08-21T08:40:17Z</time>
      </trkpt>
      <trkpt lat="45.69547" lon="6.63567">
        <ele>1538.2</ele>
        <time>2023-08-21T08:40:18Z</time>
      </trkpt>
      <trkpt lat="45.69552" lon="6.63573">
        <ele>1538.2</ele>
        <time>2023-08-21T08:40:19Z</time>
      </trkpt>
      <trkpt lat="45.69556" lon="6.6358">
        <ele>1538.2</ele>
        <time>2023-08-21T08:40:20Z</time>
      </trkpt>
      <trkpt lat="45.69561" lon="6.63587">
        <ele>1537.2</ele>
        <time>2023-08-21T08:40:21Z</time>
      </trkpt>
      <trkpt lat="45.69565" lon="6.63595">
        <ele>1536.6</ele>
        <time>2023-08-21T08:40:22Z</time>
      </trkpt>
      <trkpt lat="45.6957" lon="6.63603">
        <ele>1536.6</ele>
        <time>2023-08-21T08:40:23Z</time>
      </trkpt>
      <trkpt lat="45.69575" lon="6.6361">
        <ele>1536.6</ele>
        <time>2023-08-21T08:40:24Z</time>
      </trkpt>
      <trkpt lat="45.6958" lon="6.63618">
        <ele>1536.6</ele>
        <time>2023-08-21T08:40:25Z</time>
      </trkpt>
      <trkpt lat="45.69586" lon="6.63624">
        <ele>1535.8</ele>
        <time>2023-08-21T08:40:26Z</time>
      </trkpt>
      <trkpt lat="45.69591" lon="6.6363">
        <ele>1536</ele>
        <time>2023-08-21T08:40:27Z</time>
      </trkpt>
      <trkpt lat="45.69597" lon="6.63635">
        <ele>1536</ele>
        <time>2023-08-21T08:40:28Z</time>
      </trkpt>
      <trkpt lat="45.69603" lon="6.6364">
        <ele>1536</ele>
        <time>2023-08-21T08:40:29Z</time>
      </trkpt>
      <trkpt lat="45.69609" lon="6.63644">
        <ele>1535.2</ele>
        <time>2023-08-21T08:40:30Z</time>
      </trkpt>
      <trkpt lat="45.69615" lon="6.6365">
        <ele>1535.4</ele>
        <time>2023-08-21T08:40:31Z</time>
      </trkpt>
      <trkpt lat="45.6962" lon="6.63655">
        <ele>1535.4</ele>
        <time>2023-08-21T08:40:32Z</time>
      </trkpt>
      <trkpt lat="45.69625" lon="6.6366">
        <ele>1535.4</ele>
        <time>2023-08-21T08:40:33Z</time>
      </trkpt>
      <trkpt lat="45.6963" lon="6.63665">
        <ele>1535.4</ele>
        <time>2023-08-21T08:40:34Z</time>
      </trkpt>
      <trkpt lat="45.69634" lon="6.63671">
        <ele>1535.4</ele>
        <time>2023-08-21T08:40:35Z</time>
      </trkpt>
      <trkpt lat="45.69638" lon="6.63676">
        <ele>1535.4</ele>
        <time>2023-08-21T08:40:36Z</time>
      </trkpt>
      <trkpt lat="45.69642" lon="6.63682">
        <ele>1535.4</ele>
        <time>2023-08-21T08:40:37Z</time>
      </trkpt>
      <trkpt lat="45.69646" lon="6.63687">
        <ele>1535.4</ele>
        <time>2023-08-21T08:40:38Z</time>
      </trkpt>
      <trkpt lat="45.69649" lon="6.63694">
        <ele>1535.4</ele>
        <time>2023-08-21T08:40:39Z</time>
      </trkpt>
      <trkpt lat="45.69652" lon="6.63699">
        <ele>1536</ele>
        <time>2023-08-21T08:40:40Z</time>
      </trkpt>
      <trkpt lat="45.69655" lon="6.63705">
        <ele>1536</ele>
        <time>2023-08-21T08:40:41Z</time>
      </trkpt>
      <trkpt lat="45.69658" lon="6.63712">
        <ele>1536</ele>
        <time>2023-08-21T08:40:42Z</time>
      </trkpt>
      <trkpt lat="45.69661" lon="6.63718">
        <ele>1536</ele>
        <time>2023-08-21T08:40:43Z</time>
      </trkpt>
      <trkpt lat="45.69663" lon="6.63724">
        <ele>1536</ele>
        <time>2023-08-21T08:40:44Z</time>
      </trkpt>
      <trkpt lat="45.69665" lon="6.6373">
        <ele>1536</ele>
        <time>2023-08-21T08:40:45Z</time>
      </trkpt>
      <trkpt lat="45.69668" lon="6.63735">
        <ele>1536.2</ele>
        <time>2023-08-21T08:40:46Z</time>
      </trkpt>
      <trkpt lat="45.6967" lon="6.6374">
        <ele>1536.2</ele>
        <time>2023-08-21T08:40:47Z</time>
      </trkpt>
      <trkpt lat="45.69673" lon="6.63744">
        <ele>1536.6</ele>
        <time>2023-08-21T08:40:48Z</time>
      </trkpt>
      <trkpt lat="45.69676" lon="6.63749">
        <ele>1536.6</ele>
        <time>2023-08-21T08:40:49Z</time>
      </trkpt>
      <trkpt lat="45.69678" lon="6.63754">
        <ele>1536.6</ele>
        <time>2023-08-21T08:40:50Z</time>
      </trkpt>
      <trkpt lat="45.69682" lon="6.63758">
        <ele>1536.6</ele>
        <time>2023-08-21T08:40:51Z</time>
      </trkpt>
      <trkpt lat="45.69685" lon="6.63763">
        <ele>1536.6</ele>
        <time>2023-08-21T08:40:52Z</time>
      </trkpt>
      <trkpt lat="45.69688" lon="6.63767">
        <ele>1536.6</ele>
        <time>2023-08-21T08:40:53Z</time>
      </trkpt>
      <trkpt lat="45.69691" lon="6.63771">
        <ele>1536.6</ele>
        <time>2023-08-21T08:40:54Z</time>
      </trkpt>
      <trkpt lat="45.69694" lon="6.63775">
        <ele>1536.6</ele>
        <time>2023-08-21T08:40:55Z</time>
      </trkpt>
      <trkpt lat="45.69697" lon="6.63778">
        <ele>1536.6</ele>
        <time>2023-08-21T08:40:56Z</time>
      </trkpt>
      <trkpt lat="45.69701" lon="6.63782">
        <ele>1536.6</ele>
        <time>2023-08-21T08:40:57Z</time>
      </trkpt>
      <trkpt lat="45.69704" lon="6.63786">
        <ele>1536.8</ele>
        <time>2023-08-21T08:40:58Z</time>
      </trkpt>
      <trkpt lat="45.69708" lon="6.63789">
        <ele>1536.8</ele>
        <time>2023-08-21T08:40:59Z</time>
      </trkpt>
      <trkpt lat="45.69711" lon="6.63793">
        <ele>1536.8</ele>
        <time>2023-08-21T08:41:00Z</time>
      </trkpt>
      <trkpt lat="45.69715" lon="6.63796">
        <ele>1536.8</ele>
        <time>2023-08-21T08:41:01Z</time>
      </trkpt>
      <trkpt lat="45.69719" lon="6.63798">
        <ele>1536.8</ele>
        <time>2023-08-21T08:41:02Z</time>
      </trkpt>
      <trkpt lat="45.69722" lon="6.63801">
        <ele>1536.6</ele>
        <time>2023-08-21T08:41:03Z</time>
      </trkpt>
      <trkpt lat="45.69725" lon="6.63804">
        <ele>1536.6</ele>
        <time>2023-08-21T08:41:04Z</time>
      </trkpt>
      <trkpt lat="45.69729" lon="6.63806">
        <ele>1536.6</ele>
        <time>2023-08-21T08:41:05Z</time>
      </trkpt>
      <trkpt lat="45.69732" lon="6.63808">
        <ele>1537</ele>
        <time>2023-08-21T08:41:06Z</time>
      </trkpt>
      <trkpt lat="45.69735" lon="6.6381">
        <ele>1537</ele>
        <time>2023-08-21T08:41:07Z</time>
      </trkpt>
      <trkpt lat="45.69738" lon="6.63812">
        <ele>1537</ele>
        <time>2023-08-21T08:41:08Z</time>
      </trkpt>
      <trkpt lat="45.69741" lon="6.63813">
        <ele>1537</ele>
        <time>2023-08-21T08:41:09Z</time>
      </trkpt>
      <trkpt lat="45.69743" lon="6.63815">
        <ele>1537</ele>
        <time>2023-08-21T08:41:10Z</time>
      </trkpt>
      <trkpt lat="45.69746" lon="6.63817">
        <ele>1537</ele>
        <time>2023-08-21T08:41:11Z</time>
      </trkpt>
      <trkpt lat="45.69748" lon="6.63818">
        <ele>1537.2</ele>
        <time>2023-08-21T08:41:12Z</time>
      </trkpt>
      <trkpt lat="45.6975" lon="6.63819">
        <ele>1537.2</ele>
        <time>2023-08-21T08:41:13Z</time>
      </trkpt>
      <trkpt lat="45.69753" lon="6.63821">
        <ele>1537.2</ele>
        <time>2023-08-21T08:41:14Z</time>
      </trkpt>
      <trkpt lat="45.69755" lon="6.63822">
        <ele>1537.2</ele>
        <time>2023-08-21T08:41:15Z</time>
      </trkpt>
      <trkpt lat="45.69758" lon="6.63823">
        <ele>1537.2</ele>
        <time>2023-08-21T08:41:16Z</time>
      </trkpt>
      <trkpt lat="45.69761" lon="6.63825">
        <ele>1537.2</ele>
        <time>2023-08-21T08:41:17Z</time>
      </trkpt>
      <trkpt lat="45.69764" lon="6.63827">
        <ele>1537.2</ele>
        <time>2023-08-21T08:41:18Z</time>
      </trkpt>
      <trkpt lat="45.69767" lon="6.63829">
        <ele>1537.2</ele>
        <time>2023-08-21T08:41:19Z</time>
      </trkpt>
      <trkpt lat="45.6977" lon="6.6383">
        <ele>1537.2</ele>
        <time>2023-08-21T08:41:20Z</time>
      </trkpt>
      <trkpt lat="45.69772" lon="6.63832">
        <ele>1537.2</ele>
        <time>2023-08-21T08:41:21Z</time>
      </trkpt>
      <trkpt lat="45.69775" lon="6.63834">
        <ele>1537.2</ele>
        <time>2023-08-21T08:41:22Z</time>
      </trkpt>
      <trkpt lat="45.69777" lon="6.63835">
        <ele>1537.2</ele>
        <time>2023-08-21T08:41:23Z</time>
      </trkpt>
      <trkpt lat="45.69779" lon="6.63838">
        <ele>1537.4</ele>
        <time>2023-08-21T08:41:24Z</time>
      </trkpt>
      <trkpt lat="45.69781" lon="6.6384">
        <ele>1537.4</ele>
        <time>2023-08-21T08:41:25Z</time>
      </trkpt>
      <trkpt lat="45.69783" lon="6.63841">
        <ele>1537.4</ele>
        <time>2023-08-21T08:41:26Z</time>
      </trkpt>
      <trkpt lat="45.69784" lon="6.63843">
        <ele>1537.4</ele>
        <time>2023-08-21T08:41:27Z</time>
      </trkpt>
      <trkpt lat="45.69784" lon="6.63844">
        <ele>1537.4</ele>
        <time>2023-08-21T08:41:28Z</time>
      </trkpt>
      <trkpt lat="45.69784" lon="6.63845">
        <ele>1537.4</ele>
        <time>2023-08-21T08:41:29Z</time>
      </trkpt>
      <trkpt lat="45.69784" lon="6.63846">
        <ele>1537.4</ele>
        <time>2023-08-21T08:41:30Z</time>
      </trkpt>
      <trkpt lat="45.69784" lon="6.63846">
        <ele>1537.6</ele>
        <time>2023-08-21T08:41:31Z</time>
      </trkpt>
      <trkpt lat="45.69778" lon="6.63839">
        <ele>1536.8</ele>
        <time>2023-08-21T08:41:55Z</time>
      </trkpt>
      <trkpt lat="45.69776" lon="6.63838">
        <ele>1536.8</ele>
        <time>2023-08-21T08:41:56Z</time>
      </trkpt>
      <trkpt lat="45.69774" lon="6.63837">
        <ele>1537</ele>
        <time>2023-08-21T08:41:57Z</time>
      </trkpt>
      <trkpt lat="45.69773" lon="6.63836">
        <ele>1537</ele>
        <time>2023-08-21T08:41:58Z</time>
      </trkpt>
      <trkpt lat="45.69772" lon="6.63836">
        <ele>1537</ele>
        <time>2023-08-21T08:41:59Z</time>
      </trkpt>
      <trkpt lat="45.69771" lon="6.63836">
        <ele>1537</ele>
        <time>2023-08-21T08:42:00Z</time>
      </trkpt>
      <trkpt lat="45.69771" lon="6.63836">
        <ele>1536.8</ele>
        <time>2023-08-21T08:42:01Z</time>
      </trkpt>
      <trkpt lat="45.69771" lon="6.63836">
        <ele>1536.8</ele>
        <time>2023-08-21T08:42:02Z</time>
      </trkpt>
      <trkpt lat="45.69771" lon="6.63834">
        <ele>1537.6</ele>
        <time>2023-08-21T08:46:47Z</time>
      </trkpt>
      <trkpt lat="45.69772" lon="6.63834">
        <ele>1537.6</ele>
        <time>2023-08-21T08:46:48Z</time>
      </trkpt>
      <trkpt lat="45.69773" lon="6.63835">
        <ele>1537.6</ele>
        <time>2023-08-21T08:46:49Z</time>
      </trkpt>
      <trkpt lat="45.69775" lon="6.63835">
        <ele>1537.6</ele>
        <time>2023-08-21T08:46:50Z</time>
      </trkpt>
      <trkpt lat="45.69776" lon="6.63836">
        <ele>1537.6</ele>
        <time>2023-08-21T08:46:51Z</time>
      </trkpt>
      <trkpt lat="45.69778" lon="6.63836">
        <ele>1537.6</ele>
        <time>2023-08-21T08:46:52Z</time>
      </trkpt>
      <trkpt lat="45.6978" lon="6.63837">
        <ele>1538.2</ele>
        <time>2023-08-21T08:46:53Z</time>
      </trkpt>
      <trkpt lat="45.69782" lon="6.63839">
        <ele>1538.2</ele>
        <time>2023-08-21T08:46:54Z</time>
      </trkpt>
      <trkpt lat="45.69784" lon="6.6384">
        <ele>1538</ele>
        <time>2023-08-21T08:46:55Z</time>
      </trkpt>
      <trkpt lat="45.69786" lon="6.63842">
        <ele>1538</ele>
        <time>2023-08-21T08:46:56Z</time>
      </trkpt>
      <trkpt lat="45.69789" lon="6.63843">
        <ele>1538</ele>
        <time>2023-08-21T08:46:57Z</time>
      </trkpt>
      <trkpt lat="45.69791" lon="6.63844">
        <ele>1538.4</ele>
        <time>2023-08-21T08:46:58Z</time>
      </trkpt>
      <trkpt lat="45.69793" lon="6.63846">
        <ele>1538.8</ele>
        <time>2023-08-21T08:46:59Z</time>
      </trkpt>
      <trkpt lat="45.69795" lon="6.63848">
        <ele>1538.8</ele>
        <time>2023-08-21T08:47:00Z</time>
      </trkpt>
      <trkpt lat="45.69798" lon="6.63851">
        <ele>1538.8</ele>
        <time>2023-08-21T08:47:01Z</time>
      </trkpt>
      <trkpt lat="45.698" lon="6.63854">
        <ele>1538.8</ele>
        <time>2023-08-21T08:47:02Z</time>
      </trkpt>
      <trkpt lat="45.69802" lon="6.63856">
        <ele>1539</ele>
        <time>2023-08-21T08:47:03Z</time>
      </trkpt>
      <trkpt lat="45.69804" lon="6.63859">
        <ele>1539</ele>
        <time>2023-08-21T08:47:04Z</time>
      </trkpt>
      <trkpt lat="45.69807" lon="6.63862">
        <ele>1539</ele>
        <time>2023-08-21T08:47:05Z</time>
      </trkpt>
      <trkpt lat="45.69809" lon="6.63865">
        <ele>1539</ele>
        <time>2023-08-21T08:47:06Z</time>
      </trkpt>
      <trkpt lat="45.69811" lon="6.63868">
        <ele>1539</ele>
        <time>2023-08-21T08:47:07Z</time>
      </trkpt>
      <trkpt lat="45.69813" lon="6.63872">
        <ele>1539.2</ele>
        <time>2023-08-21T08:47:08Z</time>
      </trkpt>
      <trkpt lat="45.69816" lon="6.63875">
        <ele>1539.4</ele>
        <time>2023-08-21T08:47:09Z</time>
      </trkpt>
      <trkpt lat="45.69819" lon="6.63879">
        <ele>1539.4</ele>
        <time>2023-08-21T08:47:10Z</time>
      </trkpt>
      <trkpt lat="45.69821" lon="6.63882">
        <ele>1539.4</ele>
        <time>2023-08-21T08:47:11Z</time>
      </trkpt>
      <trkpt lat="45.69824" lon="6.63886">
        <ele>1539.4</ele>
        <time>2023-08-21T08:47:12Z</time>
      </trkpt>
      <trkpt lat="45.69826" lon="6.6389">
        <ele>1539.4</ele>
        <time>2023-08-21T08:47:13Z</time>
      </trkpt>
      <trkpt lat="45.69829" lon="6.63893">
        <ele>1539.8</ele>
        <time>2023-08-21T08:47:14Z</time>
      </trkpt>
      <trkpt lat="45.69832" lon="6.63897">
        <ele>1539.8</ele>
        <time>2023-08-21T08:47:15Z</time>
      </trkpt>
      <trkpt lat="45.69835" lon="6.639">
        <ele>1539.8</ele>
        <time>2023-08-21T08:47:16Z</time>
      </trkpt>
      <trkpt lat="45.69837" lon="6.63904">
        <ele>1540</ele>
        <time>2023-08-21T08:47:17Z</time>
      </trkpt>
      <trkpt lat="45.6984" lon="6.63907">
        <ele>1540</ele>
        <time>2023-08-21T08:47:18Z</time>
      </trkpt>
      <trkpt lat="45.69843" lon="6.63911">
        <ele>1540</ele>
        <time>2023-08-21T08:47:19Z</time>
      </trkpt>
      <trkpt lat="45.69846" lon="6.63915">
        <ele>1540</ele>
        <time>2023-08-21T08:47:20Z</time>
      </trkpt>
      <trkpt lat="45.69848" lon="6.63918">
        <ele>1540</ele>
        <time>2023-08-21T08:47:21Z</time>
      </trkpt>
      <trkpt lat="45.69851" lon="6.63922">
        <ele>1540.4</ele>
        <time>2023-08-21T08:47:22Z</time>
      </trkpt>
      <trkpt lat="45.69854" lon="6.63925">
        <ele>1540.4</ele>
        <time>2023-08-21T08:47:23Z</time>
      </trkpt>
      <trkpt lat="45.69857" lon="6.63929">
        <ele>1540.4</ele>
        <time>2023-08-21T08:47:24Z</time>
      </trkpt>
      <trkpt lat="45.6986" lon="6.63933">
        <ele>1540.8</ele>
        <time>2023-08-21T08:47:25Z</time>
      </trkpt>
      <trkpt lat="45.69863" lon="6.63937">
        <ele>1540.8</ele>
        <time>2023-08-21T08:47:26Z</time>
      </trkpt>
      <trkpt lat="45.69866" lon="6.63941">
        <ele>1540.8</ele>
        <time>2023-08-21T08:47:27Z</time>
      </trkpt>
      <trkpt lat="45.69868" lon="6.63944">
        <ele>1540.8</ele>
        <time>2023-08-21T08:47:28Z</time>
      </trkpt>
      <trkpt lat="45.69871" lon="6.63948">
        <ele>1540.8</ele>
        <time>2023-08-21T08:47:29Z</time>
      </trkpt>
      <trkpt lat="45.69874" lon="6.63952">
        <ele>1541.2</ele>
        <time>2023-08-21T08:47:30Z</time>
      </trkpt>
      <trkpt lat="45.69877" lon="6.63955">
        <ele>1541</ele>
        <time>2023-08-21T08:47:31Z</time>
      </trkpt>
      <trkpt lat="45.6988" lon="6.63959">
        <ele>1541</ele>
        <time>2023-08-21T08:47:32Z</time>
      </trkpt>
      <trkpt lat="45.69882" lon="6.63963">
        <ele>1541</ele>
        <time>2023-08-21T08:47:33Z</time>
      </trkpt>
      <trkpt lat="45.69885" lon="6.63967">
        <ele>1541.2</ele>
        <time>2023-08-21T08:47:34Z</time>
      </trkpt>
      <trkpt lat="45.69888" lon="6.63971">
        <ele>1541.4</ele>
        <time>2023-08-21T08:47:35Z</time>
      </trkpt>
      <trkpt lat="45.69891" lon="6.63975">
        <ele>1541.4</ele>
        <time>2023-08-21T08:47:36Z</time>
      </trkpt>
      <trkpt lat="45.69894" lon="6.63979">
        <ele>1541.4</ele>
        <time>2023-08-21T08:47:37Z</time>
      </trkpt>
      <trkpt lat="45.69897" lon="6.63984">
        <ele>1541.4</ele>
        <time>2023-08-21T08:47:38Z</time>
      </trkpt>
      <trkpt lat="45.69901" lon="6.63988">
        <ele>1541.4</ele>
        <time>2023-08-21T08:47:39Z</time>
      </trkpt>
      <trkpt lat="45.69904" lon="6.63992">
        <ele>1541.4</ele>
        <time>2023-08-21T08:47:40Z</time>
      </trkpt>
      <trkpt lat="45.69907" lon="6.63997">
        <ele>1541.4</ele>
        <time>2023-08-21T08:47:41Z</time>
      </trkpt>
      <trkpt lat="45.69911" lon="6.64002">
        <ele>1541.4</ele>
        <time>2023-08-21T08:47:42Z</time>
      </trkpt>
      <trkpt lat="45.69915" lon="6.64006">
        <ele>1541.4</ele>
        <time>2023-08-21T08:47:43Z</time>
      </trkpt>
      <trkpt lat="45.69918" lon="6.64011">
        <ele>1541.6</ele>
        <time>2023-08-21T08:47:44Z</time>
      </trkpt>
      <trkpt lat="45.69922" lon="6.64016">
        <ele>1541.6</ele>
        <time>2023-08-21T08:47:45Z</time>
      </trkpt>
      <trkpt lat="45.69925" lon="6.64021">
        <ele>1541.6</ele>
        <time>2023-08-21T08:47:46Z</time>
      </trkpt>
      <trkpt lat="45.69929" lon="6.64026">
        <ele>1541.4</ele>
        <time>2023-08-21T08:47:47Z</time>
      </trkpt>
      <trkpt lat="45.69932" lon="6.64032">
        <ele>1541.4</ele>
        <time>2023-08-21T08:47:48Z</time>
      </trkpt>
      <trkpt lat="45.69935" lon="6.64037">
        <ele>1541.6</ele>
        <time>2023-08-21T08:47:49Z</time>
      </trkpt>
      <trkpt lat="45.69938" lon="6.64043">
        <ele>1541.6</ele>
        <time>2023-08-21T08:47:50Z</time>
      </trkpt>
      <trkpt lat="45.69942" lon="6.64048">
        <ele>1541.6</ele>
        <time>2023-08-21T08:47:51Z</time>
      </trkpt>
      <trkpt lat="45.69945" lon="6.64054">
        <ele>1541.6</ele>
        <time>2023-08-21T08:47:52Z</time>
      </trkpt>
      <trkpt lat="45.69948" lon="6.6406">
        <ele>1541.6</ele>
        <time>2023-08-21T08:47:53Z</time>
      </trkpt>
      <trkpt lat="45.69952" lon="6.64066">
        <ele>1541.2</ele>
        <time>2023-08-21T08:47:54Z</time>
      </trkpt>
      <trkpt lat="45.69955" lon="6.64071">
        <ele>1541.2</ele>
        <time>2023-08-21T08:47:55Z</time>
      </trkpt>
      <trkpt lat="45.69959" lon="6.64077">
        <ele>1541.2</ele>
        <time>2023-08-21T08:47:56Z</time>
      </trkpt>
      <trkpt lat="45.69962" lon="6.64083">
        <ele>1541.2</ele>
        <time>2023-08-21T08:47:57Z</time>
      </trkpt>
      <trkpt lat="45.69966" lon="6.64088">
        <ele>1541.2</ele>
        <time>2023-08-21T08:47:58Z</time>
      </trkpt>
      <trkpt lat="45.69969" lon="6.64094">
        <ele>1541.2</ele>
        <time>2023-08-21T08:47:59Z</time>
      </trkpt>
      <trkpt lat="45.69972" lon="6.641">
        <ele>1541.2</ele>
        <time>2023-08-21T08:48:00Z</time>
      </trkpt>
      <trkpt lat="45.69975" lon="6.64106">
        <ele>1541.2</ele>
        <time>2023-08-21T08:48:01Z</time>
      </trkpt>
      <trkpt lat="45.69977" lon="6.64112">
        <ele>1541.4</ele>
        <time>2023-08-21T08:48:02Z</time>
      </trkpt>
      <trkpt lat="45.6998" lon="6.64118">
        <ele>1541.4</ele>
        <time>2023-08-21T08:48:03Z</time>
      </trkpt>
      <trkpt lat="45.69982" lon="6.64124">
        <ele>1541.4</ele>
        <time>2023-08-21T08:48:04Z</time>
      </trkpt>
      <trkpt lat="45.69984" lon="6.64129">
        <ele>1541.4</ele>
        <time>2023-08-21T08:48:05Z</time>
      </trkpt>
      <trkpt lat="45.69987" lon="6.64135">
        <ele>1542</ele>
        <time>2023-08-21T08:48:06Z</time>
      </trkpt>
      <trkpt lat="45.69989" lon="6.6414">
        <ele>1542.4</ele>
        <time>2023-08-21T08:48:07Z</time>
      </trkpt>
      <trkpt lat="45.69991" lon="6.64145">
        <ele>1542.4</ele>
        <time>2023-08-21T08:48:08Z</time>
      </trkpt>
      <trkpt lat="45.69994" lon="6.64151">
        <ele>1542.4</ele>
        <time>2023-08-21T08:48:09Z</time>
      </trkpt>
      <trkpt lat="45.69996" lon="6.64156">
        <ele>1542.4</ele>
        <time>2023-08-21T08:48:10Z</time>
      </trkpt>
      <trkpt lat="45.69998" lon="6.64161">
        <ele>1542.4</ele>
        <time>2023-08-21T08:48:11Z</time>
      </trkpt>
      <trkpt lat="45.7" lon="6.64166">
        <ele>1542.8</ele>
        <time>2023-08-21T08:48:12Z</time>
      </trkpt>
      <trkpt lat="45.70002" lon="6.64171">
        <ele>1542.8</ele>
        <time>2023-08-21T08:48:13Z</time>
      </trkpt>
      <trkpt lat="45.70004" lon="6.64175">
        <ele>1542.8</ele>
        <time>2023-08-21T08:48:14Z</time>
      </trkpt>
      <trkpt lat="45.70005" lon="6.6418">
        <ele>1542.8</ele>
        <time>2023-08-21T08:48:15Z</time>
      </trkpt>
      <trkpt lat="45.70007" lon="6.64185">
        <ele>1543.2</ele>
        <time>2023-08-21T08:48:16Z</time>
      </trkpt>
      <trkpt lat="45.70009" lon="6.6419">
        <ele>1543.2</ele>
        <time>2023-08-21T08:48:17Z</time>
      </trkpt>
      <trkpt lat="45.70011" lon="6.64195">
        <ele>1543.2</ele>
        <time>2023-08-21T08:48:18Z</time>
      </trkpt>
      <trkpt lat="45.70014" lon="6.64201">
        <ele>1543.4</ele>
        <time>2023-08-21T08:48:19Z</time>
      </trkpt>
      <trkpt lat="45.70016" lon="6.64207">
        <ele>1543.4</ele>
        <time>2023-08-21T08:48:20Z</time>
      </trkpt>
      <trkpt lat="45.70019" lon="6.64213">
        <ele>1543.4</ele>
        <time>2023-08-21T08:48:21Z</time>
      </trkpt>
      <trkpt lat="45.70021" lon="6.64219">
        <ele>1543.4</ele>
        <time>2023-08-21T08:48:22Z</time>
      </trkpt>
      <trkpt lat="45.70023" lon="6.64225">
        <ele>1543.2</ele>
        <time>2023-08-21T08:48:23Z</time>
      </trkpt>
      <trkpt lat="45.70025" lon="6.6423">
        <ele>1543.2</ele>
        <time>2023-08-21T08:48:24Z</time>
      </trkpt>
      <trkpt lat="45.70027" lon="6.64237">
        <ele>1543.2</ele>
        <time>2023-08-21T08:48:25Z</time>
      </trkpt>
      <trkpt lat="45.70029" lon="6.64243">
        <ele>1543.2</ele>
        <time>2023-08-21T08:48:26Z</time>
      </trkpt>
      <trkpt lat="45.7003" lon="6.6425">
        <ele>1543.2</ele>
        <time>2023-08-21T08:48:27Z</time>
      </trkpt>
      <trkpt lat="45.70031" lon="6.64256">
        <ele>1543.2</ele>
        <time>2023-08-21T08:48:28Z</time>
      </trkpt>
      <trkpt lat="45.70033" lon="6.64262">
        <ele>1543</ele>
        <time>2023-08-21T08:48:29Z</time>
      </trkpt>
      <trkpt lat="45.70033" lon="6.64268">
        <ele>1543</ele>
        <time>2023-08-21T08:48:30Z</time>
      </trkpt>
      <trkpt lat="45.70034" lon="6.64274">
        <ele>1543</ele>
        <time>2023-08-21T08:48:31Z</time>
      </trkpt>
      <trkpt lat="45.70034" lon="6.64279">
        <ele>1543</ele>
        <time>2023-08-21T08:48:32Z</time>
      </trkpt>
      <trkpt lat="45.70034" lon="6.64282">
        <ele>1543</ele>
        <time>2023-08-21T08:48:33Z</time>
      </trkpt>
      <trkpt lat="45.70034" lon="6.64283">
        <ele>1542.8</ele>
        <time>2023-08-21T08:48:34Z</time>
      </trkpt>
      <trkpt lat="45.70034" lon="6.64284">
        <ele>1542.8</ele>
        <time>2023-08-21T08:48:35Z</time>
      </trkpt>
      <trkpt lat="45.70034" lon="6.64284">
        <ele>1542.8</ele>
        <time>2023-08-21T08:48:36Z</time>
      </trkpt>
      <trkpt lat="45.70036" lon="6.6429">
        <ele>1542.6</ele>
        <time>2023-08-21T08:49:38Z</time>
      </trkpt>
      <trkpt lat="45.70036" lon="6.64294">
        <ele>1542.6</ele>
        <time>2023-08-21T08:49:39Z</time>
      </trkpt>
      <trkpt lat="45.70037" lon="6.64299">
        <ele>1542.6</ele>
        <time>2023-08-21T08:49:40Z</time>
      </trkpt>
      <trkpt lat="45.70037" lon="6.64303">
        <ele>1542.6</ele>
        <time>2023-08-21T08:49:41Z</time>
      </trkpt>
      <trkpt lat="45.70038" lon="6.64308">
        <ele>1542.6</ele>
        <time>2023-08-21T08:49:42Z</time>
      </trkpt>
      <trkpt lat="45.70038" lon="6.64313">
        <ele>1542.6</ele>
        <time>2023-08-21T08:49:43Z</time>
      </trkpt>
      <trkpt lat="45.70039" lon="6.64317">
        <ele>1542.6</ele>
        <time>2023-08-21T08:49:44Z</time>
      </trkpt>
      <trkpt lat="45.70041" lon="6.64321">
        <ele>1542.6</ele>
        <time>2023-08-21T08:49:45Z</time>
      </trkpt>
      <trkpt lat="45.70042" lon="6.64326">
        <ele>1543.2</ele>
        <time>2023-08-21T08:49:46Z</time>
      </trkpt>
      <trkpt lat="45.70044" lon="6.64331">
        <ele>1543.2</ele>
        <time>2023-08-21T08:49:47Z</time>
      </trkpt>
      <trkpt lat="45.70046" lon="6.64336">
        <ele>1543.2</ele>
        <time>2023-08-21T08:49:48Z</time>
      </trkpt>
      <trkpt lat="45.70048" lon="6.64341">
        <ele>1543.2</ele>
        <time>2023-08-21T08:49:49Z</time>
      </trkpt>
      <trkpt lat="45.70051" lon="6.64345">
        <ele>1543.2</ele>
        <time>2023-08-21T08:49:50Z</time>
      </trkpt>
      <trkpt lat="45.70053" lon="6.6435">
        <ele>1543.2</ele>
        <time>2023-08-21T08:49:51Z</time>
      </trkpt>
      <trkpt lat="45.70056" lon="6.64355">
        <ele>1543.2</ele>
        <time>2023-08-21T08:49:52Z</time>
      </trkpt>
      <trkpt lat="45.70059" lon="6.6436">
        <ele>1543.6</ele>
        <time>2023-08-21T08:49:53Z</time>
      </trkpt>
      <trkpt lat="45.70062" lon="6.64366">
        <ele>1543.6</ele>
        <time>2023-08-21T08:49:54Z</time>
      </trkpt>
      <trkpt lat="45.70065" lon="6.64372">
        <ele>1543.6</ele>
        <time>2023-08-21T08:49:55Z</time>
      </trkpt>
      <trkpt lat="45.70068" lon="6.64379">
        <ele>1543.6</ele>
        <time>2023-08-21T08:49:56Z</time>
      </trkpt>
      <trkpt lat="45.7007" lon="6.64387">
        <ele>1543</ele>
        <time>2023-08-21T08:49:57Z</time>
      </trkpt>
      <trkpt lat="45.70071" lon="6.64395">
        <ele>1543</ele>
        <time>2023-08-21T08:49:58Z</time>
      </trkpt>
      <trkpt lat="45.70073" lon="6.64404">
        <ele>1543</ele>
        <time>2023-08-21T08:49:59Z</time>
      </trkpt>
      <trkpt lat="45.70074" lon="6.64413">
        <ele>1542.8</ele>
        <time>2023-08-21T08:50:00Z</time>
      </trkpt>
      <trkpt lat="45.70074" lon="6.64423">
        <ele>1542.8</ele>
        <time>2023-08-21T08:50:01Z</time>
      </trkpt>
      <trkpt lat="45.70074" lon="6.64433">
        <ele>1542.8</ele>
        <time>2023-08-21T08:50:02Z</time>
      </trkpt>
      <trkpt lat="45.70072" lon="6.64441">
        <ele>1542.8</ele>
        <time>2023-08-21T08:50:03Z</time>
      </trkpt>
      <trkpt lat="45.7007" lon="6.64449">
        <ele>1542.6</ele>
        <time>2023-08-21T08:50:04Z</time>
      </trkpt>
      <trkpt lat="45.70067" lon="6.64457">
        <ele>1542.6</ele>
        <time>2023-08-21T08:50:05Z</time>
      </trkpt>
      <trkpt lat="45.70065" lon="6.64463">
        <ele>1542.6</ele>
        <time>2023-08-21T08:50:06Z</time>
      </trkpt>
      <trkpt lat="45.70062" lon="6.64468">
        <ele>1542.6</ele>
        <time>2023-08-21T08:50:07Z</time>
      </trkpt>
      <trkpt lat="45.7006" lon="6.64474">
        <ele>1543</ele>
        <time>2023-08-21T08:50:08Z</time>
      </trkpt>
      <trkpt lat="45.70057" lon="6.64478">
        <ele>1543</ele>
        <time>2023-08-21T08:50:09Z</time>
      </trkpt>
      <trkpt lat="45.70055" lon="6.64482">
        <ele>1543</ele>
        <time>2023-08-21T08:50:10Z</time>
      </trkpt>
      <trkpt lat="45.70053" lon="6.64485">
        <ele>1544</ele>
        <time>2023-08-21T08:50:11Z</time>
      </trkpt>
      <trkpt lat="45.7005" lon="6.64488">
        <ele>1544.2</ele>
        <time>2023-08-21T08:50:12Z</time>
      </trkpt>
      <trkpt lat="45.70048" lon="6.64491">
        <ele>1544.2</ele>
        <time>2023-08-21T08:50:13Z</time>
      </trkpt>
      <trkpt lat="45.70046" lon="6.64494">
        <ele>1544.2</ele>
        <time>2023-08-21T08:50:14Z</time>
      </trkpt>
      <trkpt lat="45.70044" lon="6.64496">
        <ele>1544.2</ele>
        <time>2023-08-21T08:50:15Z</time>
      </trkpt>
      <trkpt lat="45.70041" lon="6.64498">
        <ele>1544.2</ele>
        <time>2023-08-21T08:50:16Z</time>
      </trkpt>
      <trkpt lat="45.70038" lon="6.64501">
        <ele>1544.4</ele>
        <time>2023-08-21T08:50:17Z</time>
      </trkpt>
      <trkpt lat="45.70035" lon="6.64503">
        <ele>1544.4</ele>
        <time>2023-08-21T08:50:18Z</time>
      </trkpt>
      <trkpt lat="45.70032" lon="6.64505">
        <ele>1544.4</ele>
        <time>2023-08-21T08:50:19Z</time>
      </trkpt>
      <trkpt lat="45.70029" lon="6.64507">
        <ele>1545</ele>
        <time>2023-08-21T08:50:20Z</time>
      </trkpt>
      <trkpt lat="45.70026" lon="6.64509">
        <ele>1545.8</ele>
        <time>2023-08-21T08:50:21Z</time>
      </trkpt>
      <trkpt lat="45.70024" lon="6.64511">
        <ele>1545.8</ele>
        <time>2023-08-21T08:50:22Z</time>
      </trkpt>
      <trkpt lat="45.70021" lon="6.64513">
        <ele>1545.8</ele>
        <time>2023-08-21T08:50:23Z</time>
      </trkpt>
      <trkpt lat="45.70018" lon="6.64515">
        <ele>1546.8</ele>
        <time>2023-08-21T08:50:24Z</time>
      </trkpt>
      <trkpt lat="45.70016" lon="6.64517">
        <ele>1547</ele>
        <time>2023-08-21T08:50:25Z</time>
      </trkpt>
      <trkpt lat="45.70013" lon="6.64519">
        <ele>1547</ele>
        <time>2023-08-21T08:50:26Z</time>
      </trkpt>
      <trkpt lat="45.70011" lon="6.64521">
        <ele>1547</ele>
        <time>2023-08-21T08:50:27Z</time>
      </trkpt>
      <trkpt lat="45.70008" lon="6.64522">
        <ele>1547</ele>
        <time>2023-08-21T08:50:28Z</time>
      </trkpt>
      <trkpt lat="45.70006" lon="6.64524">
        <ele>1547.6</ele>
        <time>2023-08-21T08:50:29Z</time>
      </trkpt>
      <trkpt lat="45.70003" lon="6.64526">
        <ele>1547.6</ele>
        <time>2023-08-21T08:50:30Z</time>
      </trkpt>
      <trkpt lat="45.7" lon="6.64528">
        <ele>1547.8</ele>
        <time>2023-08-21T08:50:31Z</time>
      </trkpt>
      <trkpt lat="45.69998" lon="6.6453">
        <ele>1547.8</ele>
        <time>2023-08-21T08:50:32Z</time>
      </trkpt>
      <trkpt lat="45.69995" lon="6.64533">
        <ele>1547.8</ele>
        <time>2023-08-21T08:50:33Z</time>
      </trkpt>
      <trkpt lat="45.69993" lon="6.64535">
        <ele>1548.2</ele>
        <time>2023-08-21T08:50:34Z</time>
      </trkpt>
      <trkpt lat="45.6999" lon="6.64538">
        <ele>1548.2</ele>
        <time>2023-08-21T08:50:35Z</time>
      </trkpt>
      <trkpt lat="45.69987" lon="6.64541">
        <ele>1548.2</ele>
        <time>2023-08-21T08:50:36Z</time>
      </trkpt>
      <trkpt lat="45.69984" lon="6.64545">
        <ele>1548.2</ele>
        <time>2023-08-21T08:50:37Z</time>
      </trkpt>
      <trkpt lat="45.69982" lon="6.6455">
        <ele>1548</ele>
        <time>2023-08-21T08:50:38Z</time>
      </trkpt>
      <trkpt lat="45.69979" lon="6.64555">
        <ele>1548</ele>
        <time>2023-08-21T08:50:39Z</time>
      </trkpt>
      <trkpt lat="45.69977" lon="6.64561">
        <ele>1548</ele>
        <time>2023-08-21T08:50:40Z</time>
      </trkpt>
      <trkpt lat="45.69975" lon="6.64568">
        <ele>1548</ele>
        <time>2023-08-21T08:50:41Z</time>
      </trkpt>
      <trkpt lat="45.69974" lon="6.64575">
        <ele>1548</ele>
        <time>2023-08-21T08:50:42Z</time>
      </trkpt>
      <trkpt lat="45.69973" lon="6.64582">
        <ele>1547.4</ele>
        <time>2023-08-21T08:50:43Z</time>
      </trkpt>
      <trkpt lat="45.69973" lon="6.6459">
        <ele>1547.4</ele>
        <time>2023-08-21T08:50:44Z</time>
      </trkpt>
      <trkpt lat="45.69974" lon="6.64597">
        <ele>1547.4</ele>
        <time>2023-08-21T08:50:45Z</time>
      </trkpt>
      <trkpt lat="45.69976" lon="6.64603">
        <ele>1547.4</ele>
        <time>2023-08-21T08:50:46Z</time>
      </trkpt>
      <trkpt lat="45.69978" lon="6.6461">
        <ele>1547</ele>
        <time>2023-08-21T08:50:47Z</time>
      </trkpt>
      <trkpt lat="45.69981" lon="6.64617">
        <ele>1547</ele>
        <time>2023-08-21T08:50:48Z</time>
      </trkpt>
      <trkpt lat="45.69984" lon="6.64624">
        <ele>1546.8</ele>
        <time>2023-08-21T08:50:49Z</time>
      </trkpt>
      <trkpt lat="45.69987" lon="6.64631">
        <ele>1546.8</ele>
        <time>2023-08-21T08:50:50Z</time>
      </trkpt>
      <trkpt lat="45.6999" lon="6.64639">
        <ele>1546.8</ele>
        <time>2023-08-21T08:50:51Z</time>
      </trkpt>
      <trkpt lat="45.69993" lon="6.64646">
        <ele>1546.8</ele>
        <time>2023-08-21T08:50:52Z</time>
      </trkpt>
      <trkpt lat="45.69996" lon="6.64654">
        <ele>1546.2</ele>
        <time>2023-08-21T08:50:53Z</time>
      </trkpt>
      <trkpt lat="45.7" lon="6.64662">
        <ele>1546.2</ele>
        <time>2023-08-21T08:50:54Z</time>
      </trkpt>
      <trkpt lat="45.70003" lon="6.6467">
        <ele>1546.2</ele>
        <time>2023-08-21T08:50:55Z</time>
      </trkpt>
      <trkpt lat="45.70006" lon="6.64678">
        <ele>1546.2</ele>
        <time>2023-08-21T08:50:56Z</time>
      </trkpt>
      <trkpt lat="45.70009" lon="6.64686">
        <ele>1545.8</ele>
        <time>2023-08-21T08:50:57Z</time>
      </trkpt>
      <trkpt lat="45.70013" lon="6.64695">
        <ele>1545.8</ele>
        <time>2023-08-21T08:50:58Z</time>
      </trkpt>
      <trkpt lat="45.70016" lon="6.64704">
        <ele>1545.8</ele>
        <time>2023-08-21T08:50:59Z</time>
      </trkpt>
      <trkpt lat="45.70019" lon="6.64713">
        <ele>1544.8</ele>
        <time>2023-08-21T08:51:00Z</time>
      </trkpt>
      <trkpt lat="45.70023" lon="6.64722">
        <ele>1544.8</ele>
        <time>2023-08-21T08:51:01Z</time>
      </trkpt>
      <trkpt lat="45.70027" lon="6.64732">
        <ele>1544.8</ele>
        <time>2023-08-21T08:51:02Z</time>
      </trkpt>
      <trkpt lat="45.7003" lon="6.64741">
        <ele>1544.8</ele>
        <time>2023-08-21T08:51:03Z</time>
      </trkpt>
      <trkpt lat="45.70034" lon="6.6475">
        <ele>1544.8</ele>
        <time>2023-08-21T08:51:04Z</time>
      </trkpt>
      <trkpt lat="45.70038" lon="6.64759">
        <ele>1544</ele>
        <time>2023-08-21T08:51:05Z</time>
      </trkpt>
      <trkpt lat="45.70043" lon="6.64767">
        <ele>1543.8</ele>
        <time>2023-08-21T08:51:06Z</time>
      </trkpt>
      <trkpt lat="45.70049" lon="6.64774">
        <ele>1543.8</ele>
        <time>2023-08-21T08:51:07Z</time>
      </trkpt>
      <trkpt lat="45.70054" lon="6.64782">
        <ele>1543.8</ele>
        <time>2023-08-21T08:51:08Z</time>
      </trkpt>
      <trkpt lat="45.7006" lon="6.64789">
        <ele>1542.8</ele>
        <time>2023-08-21T08:51:09Z</time>
      </trkpt>
      <trkpt lat="45.70066" lon="6.64797">
        <ele>1542.4</ele>
        <time>2023-08-21T08:51:10Z</time>
      </trkpt>
      <trkpt lat="45.70072" lon="6.64805">
        <ele>1542.4</ele>
        <time>2023-08-21T08:51:11Z</time>
      </trkpt>
      <trkpt lat="45.70078" lon="6.64813">
        <ele>1542.4</ele>
        <time>2023-08-21T08:51:12Z</time>
      </trkpt>
      <trkpt lat="45.70083" lon="6.64821">
        <ele>1542.4</ele>
        <time>2023-08-21T08:51:13Z</time>
      </trkpt>
      <trkpt lat="45.70089" lon="6.64829">
        <ele>1541</ele>
        <time>2023-08-21T08:51:14Z</time>
      </trkpt>
      <trkpt lat="45.70094" lon="6.64839">
        <ele>1541</ele>
        <time>2023-08-21T08:51:15Z</time>
      </trkpt>
      <trkpt lat="45.70098" lon="6.64849">
        <ele>1541</ele>
        <time>2023-08-21T08:51:16Z</time>
      </trkpt>
      <trkpt lat="45.70101" lon="6.6486">
        <ele>1541</ele>
        <time>2023-08-21T08:51:17Z</time>
      </trkpt>
      <trkpt lat="45.70103" lon="6.64871">
        <ele>1541</ele>
        <time>2023-08-21T08:51:18Z</time>
      </trkpt>
      <trkpt lat="45.70105" lon="6.64883">
        <ele>1539.8</ele>
        <time>2023-08-21T08:51:19Z</time>
      </trkpt>
      <trkpt lat="45.70105" lon="6.64895">
        <ele>1539.8</ele>
        <time>2023-08-21T08:51:20Z</time>
      </trkpt>
      <trkpt lat="45.70104" lon="6.64907">
        <ele>1539.8</ele>
        <time>2023-08-21T08:51:21Z</time>
      </trkpt>
      <trkpt lat="45.70103" lon="6.64918">
        <ele>1539.8</ele>
        <time>2023-08-21T08:51:22Z</time>
      </trkpt>
      <trkpt lat="45.701" lon="6.6493">
        <ele>1539.8</ele>
        <time>2023-08-21T08:51:23Z</time>
      </trkpt>
      <trkpt lat="45.70097" lon="6.64941">
        <ele>1539.2</ele>
        <time>2023-08-21T08:51:24Z</time>
      </trkpt>
      <trkpt lat="45.70092" lon="6.64951">
        <ele>1539.2</ele>
        <time>2023-08-21T08:51:25Z</time>
      </trkpt>
      <trkpt lat="45.70086" lon="6.6496">
        <ele>1539.2</ele>
        <time>2023-08-21T08:51:26Z</time>
      </trkpt>
      <trkpt lat="45.70079" lon="6.64968">
        <ele>1538.2</ele>
        <time>2023-08-21T08:51:27Z</time>
      </trkpt>
      <trkpt lat="45.70072" lon="6.64976">
        <ele>1538.2</ele>
        <time>2023-08-21T08:51:28Z</time>
      </trkpt>
      <trkpt lat="45.70065" lon="6.64982">
        <ele>1537.6</ele>
        <time>2023-08-21T08:51:29Z</time>
      </trkpt>
      <trkpt lat="45.70058" lon="6.64988">
        <ele>1537.6</ele>
        <time>2023-08-21T08:51:30Z</time>
      </trkpt>
      <trkpt lat="45.70051" lon="6.64994">
        <ele>1537.6</ele>
        <time>2023-08-21T08:51:31Z</time>
      </trkpt>
      <trkpt lat="45.70044" lon="6.64999">
        <ele>1537</ele>
        <time>2023-08-21T08:51:32Z</time>
      </trkpt>
      <trkpt lat="45.70038" lon="6.65005">
        <ele>1536.8</ele>
        <time>2023-08-21T08:51:33Z</time>
      </trkpt>
      <trkpt lat="45.70032" lon="6.65012">
        <ele>1536.8</ele>
        <time>2023-08-21T08:51:34Z</time>
      </trkpt>
      <trkpt lat="45.70029" lon="6.65017">
        <ele>1536.8</ele>
        <time>2023-08-21T08:51:35Z</time>
      </trkpt>
      <trkpt lat="45.70026" lon="6.65021">
        <ele>1535.8</ele>
        <time>2023-08-21T08:51:36Z</time>
      </trkpt>
      <trkpt lat="45.70024" lon="6.65025">
        <ele>1535.8</ele>
        <time>2023-08-21T08:51:37Z</time>
      </trkpt>
      <trkpt lat="45.70022" lon="6.65029">
        <ele>1535.8</ele>
        <time>2023-08-21T08:51:38Z</time>
      </trkpt>
      <trkpt lat="45.7002" lon="6.65034">
        <ele>1535.4</ele>
        <time>2023-08-21T08:51:39Z</time>
      </trkpt>
      <trkpt lat="45.70018" lon="6.65041">
        <ele>1535.4</ele>
        <time>2023-08-21T08:51:40Z</time>
      </trkpt>
      <trkpt lat="45.70018" lon="6.65048">
        <ele>1534.8</ele>
        <time>2023-08-21T08:51:41Z</time>
      </trkpt>
      <trkpt lat="45.70018" lon="6.65057">
        <ele>1534</ele>
        <time>2023-08-21T08:51:42Z</time>
      </trkpt>
      <trkpt lat="45.70018" lon="6.65066">
        <ele>1534</ele>
        <time>2023-08-21T08:51:43Z</time>
      </trkpt>
      <trkpt lat="45.70019" lon="6.65076">
        <ele>1534</ele>
        <time>2023-08-21T08:51:44Z</time>
      </trkpt>
      <trkpt lat="45.70021" lon="6.65087">
        <ele>1533</ele>
        <time>2023-08-21T08:51:45Z</time>
      </trkpt>
      <trkpt lat="45.70023" lon="6.65098">
        <ele>1533</ele>
        <time>2023-08-21T08:51:46Z</time>
      </trkpt>
      <trkpt lat="45.70025" lon="6.65109">
        <ele>1532.2</ele>
        <time>2023-08-21T08:51:47Z</time>
      </trkpt>
      <trkpt lat="45.70026" lon="6.65121">
        <ele>1532.2</ele>
        <time>2023-08-21T08:51:48Z</time>
      </trkpt>
      <trkpt lat="45.70028" lon="6.65134">
        <ele>1532.2</ele>
        <time>2023-08-21T08:51:49Z</time>
      </trkpt>
      <trkpt lat="45.70028" lon="6.65148">
        <ele>1531.2</ele>
        <time>2023-08-21T08:51:50Z</time>
      </trkpt>
      <trkpt lat="45.70028" lon="6.65162">
        <ele>1529.2</ele>
        <time>2023-08-21T08:51:51Z</time>
      </trkpt>
      <trkpt lat="45.70027" lon="6.65176">
        <ele>1529.2</ele>
        <time>2023-08-21T08:51:52Z</time>
      </trkpt>
      <trkpt lat="45.70026" lon="6.6519">
        <ele>1529.2</ele>
        <time>2023-08-21T08:51:53Z</time>
      </trkpt>
      <trkpt lat="45.70026" lon="6.65205">
        <ele>1528.2</ele>
        <time>2023-08-21T08:51:54Z</time>
      </trkpt>
      <trkpt lat="45.70027" lon="6.65219">
        <ele>1528.2</ele>
        <time>2023-08-21T08:51:55Z</time>
      </trkpt>
      <trkpt lat="45.70029" lon="6.65233">
        <ele>1527.4</ele>
        <time>2023-08-21T08:51:56Z</time>
      </trkpt>
      <trkpt lat="45.70031" lon="6.65247">
        <ele>1527.4</ele>
        <time>2023-08-21T08:51:57Z</time>
      </trkpt>
      <trkpt lat="45.70033" lon="6.6526">
        <ele>1527.4</ele>
        <time>2023-08-21T08:51:58Z</time>
      </trkpt>
      <trkpt lat="45.70034" lon="6.65274">
        <ele>1526.4</ele>
        <time>2023-08-21T08:51:59Z</time>
      </trkpt>
      <trkpt lat="45.70035" lon="6.65287">
        <ele>1526.4</ele>
        <time>2023-08-21T08:52:00Z</time>
      </trkpt>
      <trkpt lat="45.70034" lon="6.65301">
        <ele>1526.4</ele>
        <time>2023-08-21T08:52:01Z</time>
      </trkpt>
      <trkpt lat="45.70032" lon="6.65313">
        <ele>1526.4</ele>
        <time>2023-08-21T08:52:02Z</time>
      </trkpt>
      <trkpt lat="45.70029" lon="6.65325">
        <ele>1526.4</ele>
        <time>2023-08-21T08:52:03Z</time>
      </trkpt>
      <trkpt lat="45.70025" lon="6.65335">
        <ele>1526</ele>
        <time>2023-08-21T08:52:04Z</time>
      </trkpt>
      <trkpt lat="45.7002" lon="6.65345">
        <ele>1526</ele>
        <time>2023-08-21T08:52:05Z</time>
      </trkpt>
      <trkpt lat="45.70015" lon="6.65354">
        <ele>1526</ele>
        <time>2023-08-21T08:52:06Z</time>
      </trkpt>
      <trkpt lat="45.70009" lon="6.65362">
        <ele>1525.8</ele>
        <time>2023-08-21T08:52:07Z</time>
      </trkpt>
      <trkpt lat="45.70003" lon="6.65371">
        <ele>1525.8</ele>
        <time>2023-08-21T08:52:08Z</time>
      </trkpt>
      <trkpt lat="45.69998" lon="6.65379">
        <ele>1525.6</ele>
        <time>2023-08-21T08:52:09Z</time>
      </trkpt>
      <trkpt lat="45.69993" lon="6.65389">
        <ele>1525.6</ele>
        <time>2023-08-21T08:52:10Z</time>
      </trkpt>
      <trkpt lat="45.69989" lon="6.65399">
        <ele>1525.6</ele>
        <time>2023-08-21T08:52:11Z</time>
      </trkpt>
      <trkpt lat="45.69985" lon="6.65409">
        <ele>1525.6</ele>
        <time>2023-08-21T08:52:12Z</time>
      </trkpt>
      <trkpt lat="45.69981" lon="6.65419">
        <ele>1525.6</ele>
        <time>2023-08-21T08:52:13Z</time>
      </trkpt>
      <trkpt lat="45.69978" lon="6.6543">
        <ele>1525.4</ele>
        <time>2023-08-21T08:52:14Z</time>
      </trkpt>
      <trkpt lat="45.69975" lon="6.65441">
        <ele>1525.4</ele>
        <time>2023-08-21T08:52:15Z</time>
      </trkpt>
      <trkpt lat="45.69973" lon="6.65452">
        <ele>1525.4</ele>
        <time>2023-08-21T08:52:16Z</time>
      </trkpt>
      <trkpt lat="45.6997" lon="6.65462">
        <ele>1525.4</ele>
        <time>2023-08-21T08:52:17Z</time>
      </trkpt>
      <trkpt lat="45.69967" lon="6.65473">
        <ele>1525.2</ele>
        <time>2023-08-21T08:52:18Z</time>
      </trkpt>
      <trkpt lat="45.69964" lon="6.65483">
        <ele>1525.2</ele>
        <time>2023-08-21T08:52:19Z</time>
      </trkpt>
      <trkpt lat="45.6996" lon="6.65493">
        <ele>1525.2</ele>
        <time>2023-08-21T08:52:20Z</time>
      </trkpt>
      <trkpt lat="45.69956" lon="6.65502">
        <ele>1525.2</ele>
        <time>2023-08-21T08:52:21Z</time>
      </trkpt>
      <trkpt lat="45.6995" lon="6.65509">
        <ele>1524.4</ele>
        <time>2023-08-21T08:52:22Z</time>
      </trkpt>
      <trkpt lat="45.69944" lon="6.65514">
        <ele>1524.4</ele>
        <time>2023-08-21T08:52:23Z</time>
      </trkpt>
      <trkpt lat="45.69937" lon="6.65516">
        <ele>1524.4</ele>
        <time>2023-08-21T08:52:24Z</time>
      </trkpt>
      <trkpt lat="45.69929" lon="6.65519">
        <ele>1524.4</ele>
        <time>2023-08-21T08:52:25Z</time>
      </trkpt>
      <trkpt lat="45.69922" lon="6.65522">
        <ele>1524.4</ele>
        <time>2023-08-21T08:52:26Z</time>
      </trkpt>
      <trkpt lat="45.69914" lon="6.65523">
        <ele>1524.4</ele>
        <time>2023-08-21T08:52:27Z</time>
      </trkpt>
      <trkpt lat="45.69907" lon="6.65525">
        <ele>1524.4</ele>
        <time>2023-08-21T08:52:28Z</time>
      </trkpt>
      <trkpt lat="45.699" lon="6.65527">
        <ele>1524.4</ele>
        <time>2023-08-21T08:52:29Z</time>
      </trkpt>
      <trkpt lat="45.69893" lon="6.65529">
        <ele>1524.4</ele>
        <time>2023-08-21T08:52:30Z</time>
      </trkpt>
      <trkpt lat="45.69887" lon="6.65531">
        <ele>1524.6</ele>
        <time>2023-08-21T08:52:31Z</time>
      </trkpt>
      <trkpt lat="45.69881" lon="6.65535">
        <ele>1524.6</ele>
        <time>2023-08-21T08:52:32Z</time>
      </trkpt>
      <trkpt lat="45.69875" lon="6.6554">
        <ele>1524.6</ele>
        <time>2023-08-21T08:52:33Z</time>
      </trkpt>
      <trkpt lat="45.6987" lon="6.65545">
        <ele>1524.6</ele>
        <time>2023-08-21T08:52:34Z</time>
      </trkpt>
      <trkpt lat="45.69865" lon="6.6555">
        <ele>1524.6</ele>
        <time>2023-08-21T08:52:35Z</time>
      </trkpt>
      <trkpt lat="45.6986" lon="6.65555">
        <ele>1524.8</ele>
        <time>2023-08-21T08:52:36Z</time>
      </trkpt>
      <trkpt lat="45.69856" lon="6.6556">
        <ele>1524.8</ele>
        <time>2023-08-21T08:52:37Z</time>
      </trkpt>
      <trkpt lat="45.69852" lon="6.65565">
        <ele>1524.8</ele>
        <time>2023-08-21T08:52:38Z</time>
      </trkpt>
      <trkpt lat="45.69849" lon="6.6557">
        <ele>1525.6</ele>
        <time>2023-08-21T08:52:39Z</time>
      </trkpt>
      <trkpt lat="45.69846" lon="6.65575">
        <ele>1525.8</ele>
        <time>2023-08-21T08:52:40Z</time>
      </trkpt>
      <trkpt lat="45.69842" lon="6.65579">
        <ele>1525.8</ele>
        <time>2023-08-21T08:52:41Z</time>
      </trkpt>
      <trkpt lat="45.69839" lon="6.65583">
        <ele>1525.8</ele>
        <time>2023-08-21T08:52:42Z</time>
      </trkpt>
      <trkpt lat="45.69836" lon="6.65587">
        <ele>1526.2</ele>
        <time>2023-08-21T08:52:43Z</time>
      </trkpt>
      <trkpt lat="45.69833" lon="6.6559">
        <ele>1526.2</ele>
        <time>2023-08-21T08:52:44Z</time>
      </trkpt>
      <trkpt lat="45.6983" lon="6.65594">
        <ele>1526.2</ele>
        <time>2023-08-21T08:52:45Z</time>
      </trkpt>
      <trkpt lat="45.69827" lon="6.65598">
        <ele>1526.2</ele>
        <time>2023-08-21T08:52:46Z</time>
      </trkpt>
      <trkpt lat="45.69824" lon="6.65601">
        <ele>1526.2</ele>
        <time>2023-08-21T08:52:47Z</time>
      </trkpt>
      <trkpt lat="45.69821" lon="6.65604">
        <ele>1526.8</ele>
        <time>2023-08-21T08:52:48Z</time>
      </trkpt>
      <trkpt lat="45.69818" lon="6.65607">
        <ele>1527.2</ele>
        <time>2023-08-21T08:52:49Z</time>
      </trkpt>
      <trkpt lat="45.69816" lon="6.65609">
        <ele>1527.2</ele>
        <time>2023-08-21T08:52:50Z</time>
      </trkpt>
      <trkpt lat="45.69814" lon="6.65611">
        <ele>1527.2</ele>
        <time>2023-08-21T08:52:51Z</time>
      </trkpt>
      <trkpt lat="45.69812" lon="6.65613">
        <ele>1527.2</ele>
        <time>2023-08-21T08:52:52Z</time>
      </trkpt>
      <trkpt lat="45.6981" lon="6.65614">
        <ele>1527.2</ele>
        <time>2023-08-21T08:52:53Z</time>
      </trkpt>
      <trkpt lat="45.69808" lon="6.65616">
        <ele>1528.2</ele>
        <time>2023-08-21T08:52:54Z</time>
      </trkpt>
      <trkpt lat="45.69806" lon="6.65618">
        <ele>1528.2</ele>
        <time>2023-08-21T08:52:55Z</time>
      </trkpt>
      <trkpt lat="45.69805" lon="6.65619">
        <ele>1528.2</ele>
        <time>2023-08-21T08:52:56Z</time>
      </trkpt>
      <trkpt lat="45.69803" lon="6.6562">
        <ele>1528.2</ele>
        <time>2023-08-21T08:52:57Z</time>
      </trkpt>
      <trkpt lat="45.69801" lon="6.65621">
        <ele>1528.2</ele>
        <time>2023-08-21T08:52:58Z</time>
      </trkpt>
      <trkpt lat="45.69798" lon="6.65622">
        <ele>1529</ele>
        <time>2023-08-21T08:52:59Z</time>
      </trkpt>
      <trkpt lat="45.69796" lon="6.65623">
        <ele>1529</ele>
        <time>2023-08-21T08:53:00Z</time>
      </trkpt>
      <trkpt lat="45.69794" lon="6.65625">
        <ele>1529</ele>
        <time>2023-08-21T08:53:01Z</time>
      </trkpt>
      <trkpt lat="45.69792" lon="6.65626">
        <ele>1530</ele>
        <time>2023-08-21T08:53:02Z</time>
      </trkpt>
      <trkpt lat="45.6979" lon="6.65627">
        <ele>1530</ele>
        <time>2023-08-21T08:53:03Z</time>
      </trkpt>
      <trkpt lat="45.69787" lon="6.65627">
        <ele>1530</ele>
        <time>2023-08-21T08:53:04Z</time>
      </trkpt>
      <trkpt lat="45.69785" lon="6.65628">
        <ele>1530</ele>
        <time>2023-08-21T08:53:05Z</time>
      </trkpt>
      <trkpt lat="45.69783" lon="6.65628">
        <ele>1530</ele>
        <time>2023-08-21T08:53:06Z</time>
      </trkpt>
      <trkpt lat="45.69781" lon="6.65629">
        <ele>1531</ele>
        <time>2023-08-21T08:53:07Z</time>
      </trkpt>
      <trkpt lat="45.69779" lon="6.6563">
        <ele>1531.2</ele>
        <time>2023-08-21T08:53:08Z</time>
      </trkpt>
      <trkpt lat="45.69777" lon="6.65631">
        <ele>1531.2</ele>
        <time>2023-08-21T08:53:09Z</time>
      </trkpt>
      <trkpt lat="45.69775" lon="6.65631">
        <ele>1531.2</ele>
        <time>2023-08-21T08:53:10Z</time>
      </trkpt>
      <trkpt lat="45.69772" lon="6.65632">
        <ele>1532.2</ele>
        <time>2023-08-21T08:53:11Z</time>
      </trkpt>
      <trkpt lat="45.6977" lon="6.65632">
        <ele>1532.4</ele>
        <time>2023-08-21T08:53:12Z</time>
      </trkpt>
      <trkpt lat="45.69768" lon="6.65633">
        <ele>1532.4</ele>
        <time>2023-08-21T08:53:13Z</time>
      </trkpt>
      <trkpt lat="45.69766" lon="6.65633">
        <ele>1532.4</ele>
        <time>2023-08-21T08:53:14Z</time>
      </trkpt>
      <trkpt lat="45.69763" lon="6.65633">
        <ele>1532.4</ele>
        <time>2023-08-21T08:53:15Z</time>
      </trkpt>
      <trkpt lat="45.69761" lon="6.65634">
        <ele>1533.2</ele>
        <time>2023-08-21T08:53:16Z</time>
      </trkpt>
      <trkpt lat="45.69759" lon="6.65634">
        <ele>1533.2</ele>
        <time>2023-08-21T08:53:17Z</time>
      </trkpt>
      <trkpt lat="45.69757" lon="6.65634">
        <ele>1533.2</ele>
        <time>2023-08-21T08:53:18Z</time>
      </trkpt>
      <trkpt lat="45.69755" lon="6.65634">
        <ele>1533.8</ele>
        <time>2023-08-21T08:53:19Z</time>
      </trkpt>
      <trkpt lat="45.69752" lon="6.65635">
        <ele>1534</ele>
        <time>2023-08-21T08:53:20Z</time>
      </trkpt>
      <trkpt lat="45.6975" lon="6.65635">
        <ele>1534</ele>
        <time>2023-08-21T08:53:21Z</time>
      </trkpt>
      <trkpt lat="45.69748" lon="6.65635">
        <ele>1534</ele>
        <time>2023-08-21T08:53:22Z</time>
      </trkpt>
      <trkpt lat="45.69746" lon="6.65635">
        <ele>1534</ele>
        <time>2023-08-21T08:53:23Z</time>
      </trkpt>
      <trkpt lat="45.69744" lon="6.65635">
        <ele>1534.4</ele>
        <time>2023-08-21T08:53:24Z</time>
      </trkpt>
      <trkpt lat="45.69742" lon="6.65635">
        <ele>1534.4</ele>
        <time>2023-08-21T08:53:25Z</time>
      </trkpt>
      <trkpt lat="45.6974" lon="6.65634">
        <ele>1534.6</ele>
        <time>2023-08-21T08:53:26Z</time>
      </trkpt>
      <trkpt lat="45.69737" lon="6.65634">
        <ele>1534.6</ele>
        <time>2023-08-21T08:53:27Z</time>
      </trkpt>
      <trkpt lat="45.69735" lon="6.65634">
        <ele>1535.2</ele>
        <time>2023-08-21T08:53:28Z</time>
      </trkpt>
      <trkpt lat="45.69733" lon="6.65633">
        <ele>1535.2</ele>
        <time>2023-08-21T08:53:29Z</time>
      </trkpt>
      <trkpt lat="45.6973" lon="6.65633">
        <ele>1535.4</ele>
        <time>2023-08-21T08:53:30Z</time>
      </trkpt>
      <trkpt lat="45.69728" lon="6.65632">
        <ele>1535.4</ele>
        <time>2023-08-21T08:53:31Z</time>
      </trkpt>
      <trkpt lat="45.69726" lon="6.65631">
        <ele>1536</ele>
        <time>2023-08-21T08:53:32Z</time>
      </trkpt>
      <trkpt lat="45.69724" lon="6.65631">
        <ele>1536</ele>
        <time>2023-08-21T08:53:33Z</time>
      </trkpt>
      <trkpt lat="45.69722" lon="6.6563">
        <ele>1536</ele>
        <time>2023-08-21T08:53:34Z</time>
      </trkpt>
      <trkpt lat="45.6972" lon="6.6563">
        <ele>1536.2</ele>
        <time>2023-08-21T08:53:35Z</time>
      </trkpt>
      <trkpt lat="45.69718" lon="6.6563">
        <ele>1536.2</ele>
        <time>2023-08-21T08:53:36Z</time>
      </trkpt>
      <trkpt lat="45.69716" lon="6.65629">
        <ele>1536.2</ele>
        <time>2023-08-21T08:53:37Z</time>
      </trkpt>
      <trkpt lat="45.69714" lon="6.65629">
        <ele>1536.6</ele>
        <time>2023-08-21T08:53:38Z</time>
      </trkpt>
      <trkpt lat="45.69712" lon="6.65628">
        <ele>1536.6</ele>
        <time>2023-08-21T08:53:39Z</time>
      </trkpt>
      <trkpt lat="45.6971" lon="6.65627">
        <ele>1537</ele>
        <time>2023-08-21T08:53:40Z</time>
      </trkpt>
      <trkpt lat="45.69708" lon="6.65626">
        <ele>1537</ele>
        <time>2023-08-21T08:53:41Z</time>
      </trkpt>
      <trkpt lat="45.69706" lon="6.65625">
        <ele>1537</ele>
        <time>2023-08-21T08:53:42Z</time>
      </trkpt>
      <trkpt lat="45.69704" lon="6.65624">
        <ele>1537</ele>
        <time>2023-08-21T08:53:43Z</time>
      </trkpt>
      <trkpt lat="45.69702" lon="6.65623">
        <ele>1537.4</ele>
        <time>2023-08-21T08:53:44Z</time>
      </trkpt>
      <trkpt lat="45.697" lon="6.65622">
        <ele>1537.4</ele>
        <time>2023-08-21T08:53:45Z</time>
      </trkpt>
      <trkpt lat="45.69698" lon="6.65621">
        <ele>1537.4</ele>
        <time>2023-08-21T08:53:46Z</time>
      </trkpt>
      <trkpt lat="45.69696" lon="6.65621">
        <ele>1538.2</ele>
        <time>2023-08-21T08:53:47Z</time>
      </trkpt>
      <trkpt lat="45.69694" lon="6.6562">
        <ele>1538.2</ele>
        <time>2023-08-21T08:53:48Z</time>
      </trkpt>
      <trkpt lat="45.69692" lon="6.65619">
        <ele>1538.2</ele>
        <time>2023-08-21T08:53:49Z</time>
      </trkpt>
      <trkpt lat="45.6969" lon="6.65618">
        <ele>1538.2</ele>
        <time>2023-08-21T08:53:50Z</time>
      </trkpt>
      <trkpt lat="45.69688" lon="6.65617">
        <ele>1538.6</ele>
        <time>2023-08-21T08:53:51Z</time>
      </trkpt>
      <trkpt lat="45.69686" lon="6.65616">
        <ele>1539</ele>
        <time>2023-08-21T08:53:52Z</time>
      </trkpt>
      <trkpt lat="45.69684" lon="6.65616">
        <ele>1539</ele>
        <time>2023-08-21T08:53:53Z</time>
      </trkpt>
      <trkpt lat="45.69683" lon="6.65615">
        <ele>1539</ele>
        <time>2023-08-21T08:53:54Z</time>
      </trkpt>
      <trkpt lat="45.69681" lon="6.65614">
        <ele>1539</ele>
        <time>2023-08-21T08:53:55Z</time>
      </trkpt>
      <trkpt lat="45.69679" lon="6.65613">
        <ele>1539.6</ele>
        <time>2023-08-21T08:53:56Z</time>
      </trkpt>
      <trkpt lat="45.69677" lon="6.65612">
        <ele>1539.8</ele>
        <time>2023-08-21T08:53:57Z</time>
      </trkpt>
      <trkpt lat="45.69675" lon="6.65611">
        <ele>1539.8</ele>
        <time>2023-08-21T08:53:58Z</time>
      </trkpt>
      <trkpt lat="45.69673" lon="6.6561">
        <ele>1539.8</ele>
        <time>2023-08-21T08:53:59Z</time>
      </trkpt>
      <trkpt lat="45.69672" lon="6.65609">
        <ele>1540.4</ele>
        <time>2023-08-21T08:54:00Z</time>
      </trkpt>
      <trkpt lat="45.6967" lon="6.65608">
        <ele>1540.6</ele>
        <time>2023-08-21T08:54:01Z</time>
      </trkpt>
      <trkpt lat="45.69669" lon="6.65608">
        <ele>1540.6</ele>
        <time>2023-08-21T08:54:02Z</time>
      </trkpt>
      <trkpt lat="45.69667" lon="6.65607">
        <ele>1540.6</ele>
        <time>2023-08-21T08:54:03Z</time>
      </trkpt>
      <trkpt lat="45.69665" lon="6.65606">
        <ele>1541</ele>
        <time>2023-08-21T08:54:04Z</time>
      </trkpt>
      <trkpt lat="45.69663" lon="6.65606">
        <ele>1541</ele>
        <time>2023-08-21T08:54:05Z</time>
      </trkpt>
      <trkpt lat="45.69661" lon="6.65605">
        <ele>1541</ele>
        <time>2023-08-21T08:54:06Z</time>
      </trkpt>
      <trkpt lat="45.69659" lon="6.65605">
        <ele>1541</ele>
        <time>2023-08-21T08:54:07Z</time>
      </trkpt>
      <trkpt lat="45.69657" lon="6.65604">
        <ele>1541</ele>
        <time>2023-08-21T08:54:08Z</time>
      </trkpt>
      <trkpt lat="45.69655" lon="6.65604">
        <ele>1541.8</ele>
        <time>2023-08-21T08:54:09Z</time>
      </trkpt>
      <trkpt lat="45.69654" lon="6.65603">
        <ele>1541.8</ele>
        <time>2023-08-21T08:54:10Z</time>
      </trkpt>
      <trkpt lat="45.69652" lon="6.65602">
        <ele>1541.8</ele>
        <time>2023-08-21T08:54:11Z</time>
      </trkpt>
      <trkpt lat="45.6965" lon="6.65601">
        <ele>1541.8</ele>
        <time>2023-08-21T08:54:12Z</time>
      </trkpt>
      <trkpt lat="45.69648" lon="6.656">
        <ele>1542.2</ele>
        <time>2023-08-21T08:54:13Z</time>
      </trkpt>
      <trkpt lat="45.69646" lon="6.65599">
        <ele>1542.2</ele>
        <time>2023-08-21T08:54:14Z</time>
      </trkpt>
      <trkpt lat="45.69644" lon="6.65599">
        <ele>1542.2</ele>
        <time>2023-08-21T08:54:15Z</time>
      </trkpt>
      <trkpt lat="45.69642" lon="6.65598">
        <ele>1542.2</ele>
        <time>2023-08-21T08:54:16Z</time>
      </trkpt>
      <trkpt lat="45.6964" lon="6.65597">
        <ele>1543</ele>
        <time>2023-08-21T08:54:17Z</time>
      </trkpt>
      <trkpt lat="45.69638" lon="6.65596">
        <ele>1543</ele>
        <time>2023-08-21T08:54:18Z</time>
      </trkpt>
      <trkpt lat="45.69636" lon="6.65595">
        <ele>1543.4</ele>
        <time>2023-08-21T08:54:19Z</time>
      </trkpt>
      <trkpt lat="45.69635" lon="6.65594">
        <ele>1543.4</ele>
        <time>2023-08-21T08:54:20Z</time>
      </trkpt>
      <trkpt lat="45.69633" lon="6.65593">
        <ele>1543.4</ele>
        <time>2023-08-21T08:54:21Z</time>
      </trkpt>
      <trkpt lat="45.69631" lon="6.65592">
        <ele>1543.4</ele>
        <time>2023-08-21T08:54:22Z</time>
      </trkpt>
      <trkpt lat="45.69629" lon="6.65591">
        <ele>1543.4</ele>
        <time>2023-08-21T08:54:23Z</time>
      </trkpt>
      <trkpt lat="45.69627" lon="6.6559">
        <ele>1543.6</ele>
        <time>2023-08-21T08:54:24Z</time>
      </trkpt>
      <trkpt lat="45.69626" lon="6.65589">
        <ele>1543.6</ele>
        <time>2023-08-21T08:54:25Z</time>
      </trkpt>
      <trkpt lat="45.69624" lon="6.65588">
        <ele>1543.6</ele>
        <time>2023-08-21T08:54:26Z</time>
      </trkpt>
      <trkpt lat="45.69622" lon="6.65587">
        <ele>1544.4</ele>
        <time>2023-08-21T08:54:27Z</time>
      </trkpt>
      <trkpt lat="45.6962" lon="6.65586">
        <ele>1544.4</ele>
        <time>2023-08-21T08:54:28Z</time>
      </trkpt>
      <trkpt lat="45.69618" lon="6.65585">
        <ele>1544.6</ele>
        <time>2023-08-21T08:54:29Z</time>
      </trkpt>
      <trkpt lat="45.69617" lon="6.65584">
        <ele>1544.6</ele>
        <time>2023-08-21T08:54:30Z</time>
      </trkpt>
      <trkpt lat="45.69615" lon="6.65583">
        <ele>1545.2</ele>
        <time>2023-08-21T08:54:31Z</time>
      </trkpt>
      <trkpt lat="45.69613" lon="6.65583">
        <ele>1545.2</ele>
        <time>2023-08-21T08:54:32Z</time>
      </trkpt>
      <trkpt lat="45.69611" lon="6.65582">
        <ele>1545.4</ele>
        <time>2023-08-21T08:54:33Z</time>
      </trkpt>
      <trkpt lat="45.6961" lon="6.65581">
        <ele>1545.4</ele>
        <time>2023-08-21T08:54:34Z</time>
      </trkpt>
      <trkpt lat="45.69608" lon="6.6558">
        <ele>1545.4</ele>
        <time>2023-08-21T08:54:35Z</time>
      </trkpt>
      <trkpt lat="45.69606" lon="6.65579">
        <ele>1546</ele>
        <time>2023-08-21T08:54:36Z</time>
      </trkpt>
      <trkpt lat="45.69604" lon="6.65578">
        <ele>1546</ele>
        <time>2023-08-21T08:54:37Z</time>
      </trkpt>
      <trkpt lat="45.69602" lon="6.65578">
        <ele>1546</ele>
        <time>2023-08-21T08:54:38Z</time>
      </trkpt>
      <trkpt lat="45.696" lon="6.65577">
        <ele>1546</ele>
        <time>2023-08-21T08:54:39Z</time>
      </trkpt>
      <trkpt lat="45.69598" lon="6.65576">
        <ele>1546.6</ele>
        <time>2023-08-21T08:54:40Z</time>
      </trkpt>
      <trkpt lat="45.69596" lon="6.65575">
        <ele>1546.8</ele>
        <time>2023-08-21T08:54:41Z</time>
      </trkpt>
      <trkpt lat="45.69594" lon="6.65574">
        <ele>1546.8</ele>
        <time>2023-08-21T08:54:42Z</time>
      </trkpt>
      <trkpt lat="45.69592" lon="6.65574">
        <ele>1546.8</ele>
        <time>2023-08-21T08:54:43Z</time>
      </trkpt>
      <trkpt lat="45.6959" lon="6.65573">
        <ele>1546.8</ele>
        <time>2023-08-21T08:54:44Z</time>
      </trkpt>
      <trkpt lat="45.69588" lon="6.65572">
        <ele>1547.2</ele>
        <time>2023-08-21T08:54:45Z</time>
      </trkpt>
      <trkpt lat="45.69586" lon="6.65571">
        <ele>1547.2</ele>
        <time>2023-08-21T08:54:46Z</time>
      </trkpt>
      <trkpt lat="45.69584" lon="6.6557">
        <ele>1547.4</ele>
        <time>2023-08-21T08:54:47Z</time>
      </trkpt>
      <trkpt lat="45.69582" lon="6.6557">
        <ele>1547.4</ele>
        <time>2023-08-21T08:54:48Z</time>
      </trkpt>
      <trkpt lat="45.6958" lon="6.65569">
        <ele>1548</ele>
        <time>2023-08-21T08:54:49Z</time>
      </trkpt>
      <trkpt lat="45.69578" lon="6.65568">
        <ele>1548</ele>
        <time>2023-08-21T08:54:50Z</time>
      </trkpt>
      <trkpt lat="45.69576" lon="6.65568">
        <ele>1548</ele>
        <time>2023-08-21T08:54:51Z</time>
      </trkpt>
      <trkpt lat="45.69574" lon="6.65567">
        <ele>1548</ele>
        <time>2023-08-21T08:54:52Z</time>
      </trkpt>
      <trkpt lat="45.69572" lon="6.65566">
        <ele>1548</ele>
        <time>2023-08-21T08:54:53Z</time>
      </trkpt>
      <trkpt lat="45.6957" lon="6.65565">
        <ele>1548.4</ele>
        <time>2023-08-21T08:54:54Z</time>
      </trkpt>
      <trkpt lat="45.69568" lon="6.65564">
        <ele>1548.4</ele>
        <time>2023-08-21T08:54:55Z</time>
      </trkpt>
      <trkpt lat="45.69566" lon="6.65563">
        <ele>1548.4</ele>
        <time>2023-08-21T08:54:56Z</time>
      </trkpt>
      <trkpt lat="45.69564" lon="6.65562">
        <ele>1548.4</ele>
        <time>2023-08-21T08:54:57Z</time>
      </trkpt>
      <trkpt lat="45.69562" lon="6.65562">
        <ele>1549</ele>
        <time>2023-08-21T08:54:58Z</time>
      </trkpt>
      <trkpt lat="45.6956" lon="6.65561">
        <ele>1549.2</ele>
        <time>2023-08-21T08:54:59Z</time>
      </trkpt>
      <trkpt lat="45.69558" lon="6.6556">
        <ele>1549.2</ele>
        <time>2023-08-21T08:55:00Z</time>
      </trkpt>
      <trkpt lat="45.69556" lon="6.65559">
        <ele>1549.2</ele>
        <time>2023-08-21T08:55:01Z</time>
      </trkpt>
      <trkpt lat="45.69554" lon="6.65559">
        <ele>1549.2</ele>
        <time>2023-08-21T08:55:02Z</time>
      </trkpt>
      <trkpt lat="45.69552" lon="6.65558">
        <ele>1549.8</ele>
        <time>2023-08-21T08:55:03Z</time>
      </trkpt>
      <trkpt lat="45.6955" lon="6.65557">
        <ele>1550</ele>
        <time>2023-08-21T08:55:04Z</time>
      </trkpt>
      <trkpt lat="45.69548" lon="6.65557">
        <ele>1550</ele>
        <time>2023-08-21T08:55:05Z</time>
      </trkpt>
      <trkpt lat="45.69545" lon="6.65557">
        <ele>1550</ele>
        <time>2023-08-21T08:55:06Z</time>
      </trkpt>
      <trkpt lat="45.69543" lon="6.65556">
        <ele>1550</ele>
        <time>2023-08-21T08:55:07Z</time>
      </trkpt>
      <trkpt lat="45.69541" lon="6.65555">
        <ele>1550.4</ele>
        <time>2023-08-21T08:55:08Z</time>
      </trkpt>
      <trkpt lat="45.69539" lon="6.65554">
        <ele>1550.6</ele>
        <time>2023-08-21T08:55:09Z</time>
      </trkpt>
      <trkpt lat="45.69537" lon="6.65554">
        <ele>1550.6</ele>
        <time>2023-08-21T08:55:10Z</time>
      </trkpt>
      <trkpt lat="45.69534" lon="6.65554">
        <ele>1550.6</ele>
        <time>2023-08-21T08:55:11Z</time>
      </trkpt>
      <trkpt lat="45.69532" lon="6.65553">
        <ele>1550.6</ele>
        <time>2023-08-21T08:55:12Z</time>
      </trkpt>
      <trkpt lat="45.6953" lon="6.65552">
        <ele>1551</ele>
        <time>2023-08-21T08:55:13Z</time>
      </trkpt>
      <trkpt lat="45.69528" lon="6.65552">
        <ele>1551</ele>
        <time>2023-08-21T08:55:14Z</time>
      </trkpt>
      <trkpt lat="45.69526" lon="6.65551">
        <ele>1551</ele>
        <time>2023-08-21T08:55:15Z</time>
      </trkpt>
      <trkpt lat="45.69524" lon="6.6555">
        <ele>1551.4</ele>
        <time>2023-08-21T08:55:16Z</time>
      </trkpt>
      <trkpt lat="45.69522" lon="6.65549">
        <ele>1551.4</ele>
        <time>2023-08-21T08:55:17Z</time>
      </trkpt>
      <trkpt lat="45.6952" lon="6.65548">
        <ele>1551.8</ele>
        <time>2023-08-21T08:55:18Z</time>
      </trkpt>
      <trkpt lat="45.69518" lon="6.65546">
        <ele>1551.8</ele>
        <time>2023-08-21T08:55:19Z</time>
      </trkpt>
      <trkpt lat="45.69516" lon="6.65545">
        <ele>1551.8</ele>
        <time>2023-08-21T08:55:20Z</time>
      </trkpt>
      <trkpt lat="45.69514" lon="6.65544">
        <ele>1551.8</ele>
        <time>2023-08-21T08:55:21Z</time>
      </trkpt>
      <trkpt lat="45.69511" lon="6.65543">
        <ele>1552</ele>
        <time>2023-08-21T08:55:22Z</time>
      </trkpt>
      <trkpt lat="45.69509" lon="6.65542">
        <ele>1552</ele>
        <time>2023-08-21T08:55:23Z</time>
      </trkpt>
      <trkpt lat="45.69507" lon="6.65541">
        <ele>1552</ele>
        <time>2023-08-21T08:55:24Z</time>
      </trkpt>
      <trkpt lat="45.69504" lon="6.65541">
        <ele>1552</ele>
        <time>2023-08-21T08:55:25Z</time>
      </trkpt>
      <trkpt lat="45.69503" lon="6.6554">
        <ele>1553</ele>
        <time>2023-08-21T08:55:26Z</time>
      </trkpt>
      <trkpt lat="45.69501" lon="6.65539">
        <ele>1553</ele>
        <time>2023-08-21T08:55:27Z</time>
      </trkpt>
      <trkpt lat="45.69498" lon="6.65539">
        <ele>1553</ele>
        <time>2023-08-21T08:55:28Z</time>
      </trkpt>
      <trkpt lat="45.69496" lon="6.65538">
        <ele>1553</ele>
        <time>2023-08-21T08:55:29Z</time>
      </trkpt>
      <trkpt lat="45.69494" lon="6.65537">
        <ele>1553</ele>
        <time>2023-08-21T08:55:30Z</time>
      </trkpt>
      <trkpt lat="45.69492" lon="6.65537">
        <ele>1553.8</ele>
        <time>2023-08-21T08:55:31Z</time>
      </trkpt>
      <trkpt lat="45.6949" lon="6.65536">
        <ele>1553.8</ele>
        <time>2023-08-21T08:55:32Z</time>
      </trkpt>
      <trkpt lat="45.69488" lon="6.65536">
        <ele>1553.8</ele>
        <time>2023-08-21T08:55:33Z</time>
      </trkpt>
      <trkpt lat="45.69486" lon="6.65536">
        <ele>1554.4</ele>
        <time>2023-08-21T08:55:34Z</time>
      </trkpt>
      <trkpt lat="45.69484" lon="6.65536">
        <ele>1554.8</ele>
        <time>2023-08-21T08:55:35Z</time>
      </trkpt>
      <trkpt lat="45.69481" lon="6.65536">
        <ele>1554.8</ele>
        <time>2023-08-21T08:55:36Z</time>
      </trkpt>
      <trkpt lat="45.69479" lon="6.65537">
        <ele>1554.8</ele>
        <time>2023-08-21T08:55:37Z</time>
      </trkpt>
      <trkpt lat="45.69477" lon="6.65538">
        <ele>1555.2</ele>
        <time>2023-08-21T08:55:38Z</time>
      </trkpt>
      <trkpt lat="45.69475" lon="6.65538">
        <ele>1555.2</ele>
        <time>2023-08-21T08:55:39Z</time>
      </trkpt>
      <trkpt lat="45.69473" lon="6.65539">
        <ele>1555.2</ele>
        <time>2023-08-21T08:55:40Z</time>
      </trkpt>
      <trkpt lat="45.6947" lon="6.6554">
        <ele>1555.2</ele>
        <time>2023-08-21T08:55:41Z</time>
      </trkpt>
      <trkpt lat="45.69468" lon="6.65541">
        <ele>1555.2</ele>
        <time>2023-08-21T08:55:42Z</time>
      </trkpt>
      <trkpt lat="45.69466" lon="6.65542">
        <ele>1555.2</ele>
        <time>2023-08-21T08:55:43Z</time>
      </trkpt>
      <trkpt lat="45.69464" lon="6.65544">
        <ele>1556</ele>
        <time>2023-08-21T08:55:44Z</time>
      </trkpt>
      <trkpt lat="45.69462" lon="6.65545">
        <ele>1556</ele>
        <time>2023-08-21T08:55:45Z</time>
      </trkpt>
      <trkpt lat="45.6946" lon="6.65547">
        <ele>1556</ele>
        <time>2023-08-21T08:55:46Z</time>
      </trkpt>
      <trkpt lat="45.69459" lon="6.65548">
        <ele>1556</ele>
        <time>2023-08-21T08:55:47Z</time>
      </trkpt>
      <trkpt lat="45.69456" lon="6.6555">
        <ele>1556</ele>
        <time>2023-08-21T08:55:48Z</time>
      </trkpt>
      <trkpt lat="45.69455" lon="6.65551">
        <ele>1556.6</ele>
        <time>2023-08-21T08:55:49Z</time>
      </trkpt>
      <trkpt lat="45.69453" lon="6.65553">
        <ele>1556.6</ele>
        <time>2023-08-21T08:55:50Z</time>
      </trkpt>
      <trkpt lat="45.69452" lon="6.65555">
        <ele>1556.6</ele>
        <time>2023-08-21T08:55:51Z</time>
      </trkpt>
      <trkpt lat="45.6945" lon="6.65557">
        <ele>1556.6</ele>
        <time>2023-08-21T08:55:52Z</time>
      </trkpt>
      <trkpt lat="45.69449" lon="6.65559">
        <ele>1557.2</ele>
        <time>2023-08-21T08:55:53Z</time>
      </trkpt>
      <trkpt lat="45.69448" lon="6.65562">
        <ele>1557.2</ele>
        <time>2023-08-21T08:55:54Z</time>
      </trkpt>
      <trkpt lat="45.69447" lon="6.65564">
        <ele>1557.2</ele>
        <time>2023-08-21T08:55:55Z</time>
      </trkpt>
      <trkpt lat="45.69445" lon="6.65566">
        <ele>1557.2</ele>
        <time>2023-08-21T08:55:56Z</time>
      </trkpt>
      <trkpt lat="45.69444" lon="6.65569">
        <ele>1558</ele>
        <time>2023-08-21T08:55:57Z</time>
      </trkpt>
      <trkpt lat="45.69443" lon="6.65572">
        <ele>1558</ele>
        <time>2023-08-21T08:55:58Z</time>
      </trkpt>
      <trkpt lat="45.69443" lon="6.65575">
        <ele>1558.2</ele>
        <time>2023-08-21T08:55:59Z</time>
      </trkpt>
      <trkpt lat="45.69442" lon="6.65578">
        <ele>1558.2</ele>
        <time>2023-08-21T08:56:00Z</time>
      </trkpt>
      <trkpt lat="45.69441" lon="6.65581">
        <ele>1558.2</ele>
        <time>2023-08-21T08:56:01Z</time>
      </trkpt>
      <trkpt lat="45.6944" lon="6.65584">
        <ele>1558.8</ele>
        <time>2023-08-21T08:56:02Z</time>
      </trkpt>
      <trkpt lat="45.6944" lon="6.65587">
        <ele>1558.8</ele>
        <time>2023-08-21T08:56:03Z</time>
      </trkpt>
      <trkpt lat="45.69439" lon="6.6559">
        <ele>1558.8</ele>
        <time>2023-08-21T08:56:04Z</time>
      </trkpt>
      <trkpt lat="45.69439" lon="6.65593">
        <ele>1558.8</ele>
        <time>2023-08-21T08:56:05Z</time>
      </trkpt>
      <trkpt lat="45.69439" lon="6.65596">
        <ele>1559.4</ele>
        <time>2023-08-21T08:56:06Z</time>
      </trkpt>
      <trkpt lat="45.69439" lon="6.656">
        <ele>1559.8</ele>
        <time>2023-08-21T08:56:07Z</time>
      </trkpt>
      <trkpt lat="45.6944" lon="6.65603">
        <ele>1559.8</ele>
        <time>2023-08-21T08:56:08Z</time>
      </trkpt>
      <trkpt lat="45.6944" lon="6.65606">
        <ele>1559.8</ele>
        <time>2023-08-21T08:56:09Z</time>
      </trkpt>
      <trkpt lat="45.6944" lon="6.65609">
        <ele>1559.8</ele>
        <time>2023-08-21T08:56:10Z</time>
      </trkpt>
      <trkpt lat="45.6944" lon="6.65612">
        <ele>1560.8</ele>
        <time>2023-08-21T08:56:11Z</time>
      </trkpt>
      <trkpt lat="45.6944" lon="6.65615">
        <ele>1561</ele>
        <time>2023-08-21T08:56:12Z</time>
      </trkpt>
      <trkpt lat="45.6944" lon="6.65618">
        <ele>1561</ele>
        <time>2023-08-21T08:56:13Z</time>
      </trkpt>
      <trkpt lat="45.69441" lon="6.65621">
        <ele>1561</ele>
        <time>2023-08-21T08:56:14Z</time>
      </trkpt>
      <trkpt lat="45.69441" lon="6.65624">
        <ele>1561.4</ele>
        <time>2023-08-21T08:56:15Z</time>
      </trkpt>
      <trkpt lat="45.69441" lon="6.65627">
        <ele>1561.8</ele>
        <time>2023-08-21T08:56:16Z</time>
      </trkpt>
      <trkpt lat="45.69442" lon="6.6563">
        <ele>1561.8</ele>
        <time>2023-08-21T08:56:17Z</time>
      </trkpt>
      <trkpt lat="45.69442" lon="6.65634">
        <ele>1561.8</ele>
        <time>2023-08-21T08:56:18Z</time>
      </trkpt>
      <trkpt lat="45.69443" lon="6.65637">
        <ele>1562</ele>
        <time>2023-08-21T08:56:19Z</time>
      </trkpt>
      <trkpt lat="45.69444" lon="6.6564">
        <ele>1562.4</ele>
        <time>2023-08-21T08:56:20Z</time>
      </trkpt>
      <trkpt lat="45.69445" lon="6.65642">
        <ele>1562.4</ele>
        <time>2023-08-21T08:56:21Z</time>
      </trkpt>
      <trkpt lat="45.69446" lon="6.65646">
        <ele>1562.4</ele>
        <time>2023-08-21T08:56:22Z</time>
      </trkpt>
      <trkpt lat="45.69447" lon="6.65649">
        <ele>1562.4</ele>
        <time>2023-08-21T08:56:23Z</time>
      </trkpt>
      <trkpt lat="45.69449" lon="6.65651">
        <ele>1562.4</ele>
        <time>2023-08-21T08:56:24Z</time>
      </trkpt>
      <trkpt lat="45.69451" lon="6.65654">
        <ele>1562.8</ele>
        <time>2023-08-21T08:56:25Z</time>
      </trkpt>
      <trkpt lat="45.69452" lon="6.65657">
        <ele>1562.8</ele>
        <time>2023-08-21T08:56:26Z</time>
      </trkpt>
      <trkpt lat="45.69454" lon="6.65659">
        <ele>1562.8</ele>
        <time>2023-08-21T08:56:27Z</time>
      </trkpt>
      <trkpt lat="45.69455" lon="6.65662">
        <ele>1562.8</ele>
        <time>2023-08-21T08:56:28Z</time>
      </trkpt>
      <trkpt lat="45.69457" lon="6.65664">
        <ele>1562.8</ele>
        <time>2023-08-21T08:56:29Z</time>
      </trkpt>
      <trkpt lat="45.69458" lon="6.65667">
        <ele>1563.2</ele>
        <time>2023-08-21T08:56:30Z</time>
      </trkpt>
      <trkpt lat="45.6946" lon="6.65669">
        <ele>1563.2</ele>
        <time>2023-08-21T08:56:31Z</time>
      </trkpt>
      <trkpt lat="45.69462" lon="6.6567">
        <ele>1563.2</ele>
        <time>2023-08-21T08:56:32Z</time>
      </trkpt>
      <trkpt lat="45.69463" lon="6.65672">
        <ele>1563.2</ele>
        <time>2023-08-21T08:56:33Z</time>
      </trkpt>
      <trkpt lat="45.69465" lon="6.65674">
        <ele>1564</ele>
        <time>2023-08-21T08:56:34Z</time>
      </trkpt>
      <trkpt lat="45.69467" lon="6.65675">
        <ele>1564.2</ele>
        <time>2023-08-21T08:56:35Z</time>
      </trkpt>
      <trkpt lat="45.69469" lon="6.65677">
        <ele>1564.2</ele>
        <time>2023-08-21T08:56:36Z</time>
      </trkpt>
      <trkpt lat="45.69472" lon="6.65678">
        <ele>1564.2</ele>
        <time>2023-08-21T08:56:37Z</time>
      </trkpt>
      <trkpt lat="45.69474" lon="6.65679">
        <ele>1564.6</ele>
        <time>2023-08-21T08:56:38Z</time>
      </trkpt>
      <trkpt lat="45.69477" lon="6.6568">
        <ele>1564.8</ele>
        <time>2023-08-21T08:56:39Z</time>
      </trkpt>
      <trkpt lat="45.69479" lon="6.65681">
        <ele>1564.8</ele>
        <time>2023-08-21T08:56:40Z</time>
      </trkpt>
      <trkpt lat="45.69482" lon="6.65682">
        <ele>1564.8</ele>
        <time>2023-08-21T08:56:41Z</time>
      </trkpt>
      <trkpt lat="45.69485" lon="6.65683">
        <ele>1565.2</ele>
        <time>2023-08-21T08:56:42Z</time>
      </trkpt>
      <trkpt lat="45.69487" lon="6.65683">
        <ele>1565.6</ele>
        <time>2023-08-21T08:56:43Z</time>
      </trkpt>
      <trkpt lat="45.6949" lon="6.65684">
        <ele>1565.6</ele>
        <time>2023-08-21T08:56:44Z</time>
      </trkpt>
      <trkpt lat="45.69493" lon="6.65684">
        <ele>1565.6</ele>
        <time>2023-08-21T08:56:45Z</time>
      </trkpt>
      <trkpt lat="45.69495" lon="6.65684">
        <ele>1565.6</ele>
        <time>2023-08-21T08:56:46Z</time>
      </trkpt>
      <trkpt lat="45.69498" lon="6.65684">
        <ele>1566</ele>
        <time>2023-08-21T08:56:47Z</time>
      </trkpt>
      <trkpt lat="45.695" lon="6.65684">
        <ele>1566</ele>
        <time>2023-08-21T08:56:48Z</time>
      </trkpt>
      <trkpt lat="45.69503" lon="6.65684">
        <ele>1566</ele>
        <time>2023-08-21T08:56:49Z</time>
      </trkpt>
      <trkpt lat="45.69505" lon="6.65684">
        <ele>1566</ele>
        <time>2023-08-21T08:56:50Z</time>
      </trkpt>
      <trkpt lat="45.69507" lon="6.65684">
        <ele>1566.4</ele>
        <time>2023-08-21T08:56:51Z</time>
      </trkpt>
      <trkpt lat="45.6951" lon="6.65683">
        <ele>1566.4</ele>
        <time>2023-08-21T08:56:52Z</time>
      </trkpt>
      <trkpt lat="45.69512" lon="6.65682">
        <ele>1566.4</ele>
        <time>2023-08-21T08:56:53Z</time>
      </trkpt>
      <trkpt lat="45.69514" lon="6.65682">
        <ele>1566.4</ele>
        <time>2023-08-21T08:56:54Z</time>
      </trkpt>
      <trkpt lat="45.69517" lon="6.65681">
        <ele>1566.4</ele>
        <time>2023-08-21T08:56:55Z</time>
      </trkpt>
      <trkpt lat="45.69519" lon="6.65681">
        <ele>1567</ele>
        <time>2023-08-21T08:56:56Z</time>
      </trkpt>
      <trkpt lat="45.69521" lon="6.6568">
        <ele>1567</ele>
        <time>2023-08-21T08:56:57Z</time>
      </trkpt>
      <trkpt lat="45.69523" lon="6.65679">
        <ele>1567</ele>
        <time>2023-08-21T08:56:58Z</time>
      </trkpt>
      <trkpt lat="45.69526" lon="6.65678">
        <ele>1567</ele>
        <time>2023-08-21T08:56:59Z</time>
      </trkpt>
      <trkpt lat="45.69528" lon="6.65678">
        <ele>1567.2</ele>
        <time>2023-08-21T08:57:00Z</time>
      </trkpt>
      <trkpt lat="45.69531" lon="6.65677">
        <ele>1567.4</ele>
        <time>2023-08-21T08:57:01Z</time>
      </trkpt>
      <trkpt lat="45.69534" lon="6.65677">
        <ele>1567.4</ele>
        <time>2023-08-21T08:57:02Z</time>
      </trkpt>
      <trkpt lat="45.69536" lon="6.65676">
        <ele>1567.4</ele>
        <time>2023-08-21T08:57:03Z</time>
      </trkpt>
      <trkpt lat="45.69539" lon="6.65676">
        <ele>1567.6</ele>
        <time>2023-08-21T08:57:04Z</time>
      </trkpt>
      <trkpt lat="45.69541" lon="6.65675">
        <ele>1567.6</ele>
        <time>2023-08-21T08:57:05Z</time>
      </trkpt>
      <trkpt lat="45.69543" lon="6.65675">
        <ele>1567.8</ele>
        <time>2023-08-21T08:57:06Z</time>
      </trkpt>
      <trkpt lat="45.69546" lon="6.65675">
        <ele>1567.8</ele>
        <time>2023-08-21T08:57:07Z</time>
      </trkpt>
      <trkpt lat="45.69548" lon="6.65675">
        <ele>1567.8</ele>
        <time>2023-08-21T08:57:08Z</time>
      </trkpt>
      <trkpt lat="45.69551" lon="6.65675">
        <ele>1567.8</ele>
        <time>2023-08-21T08:57:09Z</time>
      </trkpt>
      <trkpt lat="45.69553" lon="6.65675">
        <ele>1567.8</ele>
        <time>2023-08-21T08:57:10Z</time>
      </trkpt>
      <trkpt lat="45.69555" lon="6.65676">
        <ele>1568.2</ele>
        <time>2023-08-21T08:57:11Z</time>
      </trkpt>
      <trkpt lat="45.69558" lon="6.65676">
        <ele>1568.2</ele>
        <time>2023-08-21T08:57:12Z</time>
      </trkpt>
      <trkpt lat="45.6956" lon="6.65676">
        <ele>1568.2</ele>
        <time>2023-08-21T08:57:13Z</time>
      </trkpt>
      <trkpt lat="45.69562" lon="6.65676">
        <ele>1568.2</ele>
        <time>2023-08-21T08:57:14Z</time>
      </trkpt>
      <trkpt lat="45.69564" lon="6.65677">
        <ele>1568.4</ele>
        <time>2023-08-21T08:57:15Z</time>
      </trkpt>
      <trkpt lat="45.69567" lon="6.65678">
        <ele>1568.4</ele>
        <time>2023-08-21T08:57:16Z</time>
      </trkpt>
      <trkpt lat="45.69569" lon="6.65679">
        <ele>1568.4</ele>
        <time>2023-08-21T08:57:17Z</time>
      </trkpt>
      <trkpt lat="45.69572" lon="6.6568">
        <ele>1569</ele>
        <time>2023-08-21T08:57:18Z</time>
      </trkpt>
      <trkpt lat="45.69574" lon="6.6568">
        <ele>1569</ele>
        <time>2023-08-21T08:57:19Z</time>
      </trkpt>
      <trkpt lat="45.69576" lon="6.65681">
        <ele>1569</ele>
        <time>2023-08-21T08:57:20Z</time>
      </trkpt>
      <trkpt lat="45.69578" lon="6.65683">
        <ele>1569</ele>
        <time>2023-08-21T08:57:21Z</time>
      </trkpt>
      <trkpt lat="45.6958" lon="6.65685">
        <ele>1569</ele>
        <time>2023-08-21T08:57:22Z</time>
      </trkpt>
      <trkpt lat="45.69581" lon="6.65687">
        <ele>1569.6</ele>
        <time>2023-08-21T08:57:23Z</time>
      </trkpt>
      <trkpt lat="45.69583" lon="6.65689">
        <ele>1569.6</ele>
        <time>2023-08-21T08:57:24Z</time>
      </trkpt>
      <trkpt lat="45.69585" lon="6.65691">
        <ele>1569.6</ele>
        <time>2023-08-21T08:57:25Z</time>
      </trkpt>
      <trkpt lat="45.69586" lon="6.65693">
        <ele>1569.6</ele>
        <time>2023-08-21T08:57:26Z</time>
      </trkpt>
      <trkpt lat="45.69588" lon="6.65695">
        <ele>1569.8</ele>
        <time>2023-08-21T08:57:27Z</time>
      </trkpt>
      <trkpt lat="45.69589" lon="6.65697">
        <ele>1569.8</ele>
        <time>2023-08-21T08:57:28Z</time>
      </trkpt>
      <trkpt lat="45.6959" lon="6.657">
        <ele>1570</ele>
        <time>2023-08-21T08:57:29Z</time>
      </trkpt>
      <trkpt lat="45.69591" lon="6.65702">
        <ele>1570</ele>
        <time>2023-08-21T08:57:30Z</time>
      </trkpt>
      <trkpt lat="45.69592" lon="6.65705">
        <ele>1570</ele>
        <time>2023-08-21T08:57:31Z</time>
      </trkpt>
      <trkpt lat="45.69593" lon="6.65708">
        <ele>1570</ele>
        <time>2023-08-21T08:57:32Z</time>
      </trkpt>
      <trkpt lat="45.69594" lon="6.6571">
        <ele>1570.8</ele>
        <time>2023-08-21T08:57:33Z</time>
      </trkpt>
      <trkpt lat="45.69595" lon="6.65713">
        <ele>1570.8</ele>
        <time>2023-08-21T08:57:34Z</time>
      </trkpt>
      <trkpt lat="45.69596" lon="6.65716">
        <ele>1570.8</ele>
        <time>2023-08-21T08:57:35Z</time>
      </trkpt>
      <trkpt lat="45.69597" lon="6.65719">
        <ele>1571</ele>
        <time>2023-08-21T08:57:36Z</time>
      </trkpt>
      <trkpt lat="45.69597" lon="6.65722">
        <ele>1571.2</ele>
        <time>2023-08-21T08:57:37Z</time>
      </trkpt>
      <trkpt lat="45.69597" lon="6.65725">
        <ele>1571.2</ele>
        <time>2023-08-21T08:57:38Z</time>
      </trkpt>
      <trkpt lat="45.69597" lon="6.65728">
        <ele>1571.2</ele>
        <time>2023-08-21T08:57:39Z</time>
      </trkpt>
      <trkpt lat="45.69597" lon="6.65731">
        <ele>1572</ele>
        <time>2023-08-21T08:57:40Z</time>
      </trkpt>
      <trkpt lat="45.69597" lon="6.65735">
        <ele>1572</ele>
        <time>2023-08-21T08:57:41Z</time>
      </trkpt>
      <trkpt lat="45.69596" lon="6.65738">
        <ele>1572</ele>
        <time>2023-08-21T08:57:42Z</time>
      </trkpt>
      <trkpt lat="45.69596" lon="6.65741">
        <ele>1572</ele>
        <time>2023-08-21T08:57:43Z</time>
      </trkpt>
      <trkpt lat="45.69595" lon="6.65744">
        <ele>1572</ele>
        <time>2023-08-21T08:57:44Z</time>
      </trkpt>
      <trkpt lat="45.69594" lon="6.65747">
        <ele>1572.4</ele>
        <time>2023-08-21T08:57:45Z</time>
      </trkpt>
      <trkpt lat="45.69593" lon="6.6575">
        <ele>1572.8</ele>
        <time>2023-08-21T08:57:46Z</time>
      </trkpt>
      <trkpt lat="45.69592" lon="6.65753">
        <ele>1572.8</ele>
        <time>2023-08-21T08:57:47Z</time>
      </trkpt>
      <trkpt lat="45.69592" lon="6.65755">
        <ele>1572.8</ele>
        <time>2023-08-21T08:57:48Z</time>
      </trkpt>
      <trkpt lat="45.69591" lon="6.65758">
        <ele>1572.8</ele>
        <time>2023-08-21T08:57:49Z</time>
      </trkpt>
      <trkpt lat="45.6959" lon="6.65761">
        <ele>1573.6</ele>
        <time>2023-08-21T08:57:50Z</time>
      </trkpt>
      <trkpt lat="45.6959" lon="6.65764">
        <ele>1573.6</ele>
        <time>2023-08-21T08:57:51Z</time>
      </trkpt>
      <trkpt lat="45.69589" lon="6.65767">
        <ele>1573.6</ele>
        <time>2023-08-21T08:57:52Z</time>
      </trkpt>
      <trkpt lat="45.69587" lon="6.65769">
        <ele>1573.6</ele>
        <time>2023-08-21T08:57:53Z</time>
      </trkpt>
      <trkpt lat="45.69586" lon="6.65772">
        <ele>1573.6</ele>
        <time>2023-08-21T08:57:54Z</time>
      </trkpt>
      <trkpt lat="45.69585" lon="6.65774">
        <ele>1574.2</ele>
        <time>2023-08-21T08:57:55Z</time>
      </trkpt>
      <trkpt lat="45.69583" lon="6.65777">
        <ele>1574.2</ele>
        <time>2023-08-21T08:57:56Z</time>
      </trkpt>
      <trkpt lat="45.69581" lon="6.65779">
        <ele>1574.2</ele>
        <time>2023-08-21T08:57:57Z</time>
      </trkpt>
      <trkpt lat="45.6958" lon="6.65782">
        <ele>1574.2</ele>
        <time>2023-08-21T08:57:58Z</time>
      </trkpt>
      <trkpt lat="45.69578" lon="6.65784">
        <ele>1574.4</ele>
        <time>2023-08-21T08:57:59Z</time>
      </trkpt>
      <trkpt lat="45.69577" lon="6.65786">
        <ele>1574.6</ele>
        <time>2023-08-21T08:58:00Z</time>
      </trkpt>
      <trkpt lat="45.69575" lon="6.65788">
        <ele>1574.6</ele>
        <time>2023-08-21T08:58:01Z</time>
      </trkpt>
      <trkpt lat="45.69573" lon="6.65789">
        <ele>1574.6</ele>
        <time>2023-08-21T08:58:02Z</time>
      </trkpt>
      <trkpt lat="45.69571" lon="6.6579">
        <ele>1574.6</ele>
        <time>2023-08-21T08:58:03Z</time>
      </trkpt>
      <trkpt lat="45.69569" lon="6.65792">
        <ele>1575.6</ele>
        <time>2023-08-21T08:58:04Z</time>
      </trkpt>
      <trkpt lat="45.69567" lon="6.65793">
        <ele>1575.6</ele>
        <time>2023-08-21T08:58:05Z</time>
      </trkpt>
      <trkpt lat="45.69565" lon="6.65794">
        <ele>1575.6</ele>
        <time>2023-08-21T08:58:06Z</time>
      </trkpt>
      <trkpt lat="45.69563" lon="6.65794">
        <ele>1575.6</ele>
        <time>2023-08-21T08:58:07Z</time>
      </trkpt>
      <trkpt lat="45.69561" lon="6.65795">
        <ele>1576.6</ele>
        <time>2023-08-21T08:58:08Z</time>
      </trkpt>
      <trkpt lat="45.69558" lon="6.65795">
        <ele>1576.8</ele>
        <time>2023-08-21T08:58:09Z</time>
      </trkpt>
      <trkpt lat="45.69557" lon="6.65795">
        <ele>1576.8</ele>
        <time>2023-08-21T08:58:10Z</time>
      </trkpt>
      <trkpt lat="45.69555" lon="6.65794">
        <ele>1576.8</ele>
        <time>2023-08-21T08:58:11Z</time>
      </trkpt>
      <trkpt lat="45.69553" lon="6.65794">
        <ele>1576.8</ele>
        <time>2023-08-21T08:58:12Z</time>
      </trkpt>
      <trkpt lat="45.69551" lon="6.65794">
        <ele>1577.8</ele>
        <time>2023-08-21T08:58:13Z</time>
      </trkpt>
      <trkpt lat="45.69549" lon="6.65793">
        <ele>1577.8</ele>
        <time>2023-08-21T08:58:14Z</time>
      </trkpt>
      <trkpt lat="45.69548" lon="6.65793">
        <ele>1577.8</ele>
        <time>2023-08-21T08:58:15Z</time>
      </trkpt>
      <trkpt lat="45.69546" lon="6.65792">
        <ele>1577.8</ele>
        <time>2023-08-21T08:58:16Z</time>
      </trkpt>
      <trkpt lat="45.69544" lon="6.65792">
        <ele>1578.6</ele>
        <time>2023-08-21T08:58:17Z</time>
      </trkpt>
      <trkpt lat="45.69542" lon="6.65792">
        <ele>1578.6</ele>
        <time>2023-08-21T08:58:18Z</time>
      </trkpt>
      <trkpt lat="45.6954" lon="6.65791">
        <ele>1578.6</ele>
        <time>2023-08-21T08:58:19Z</time>
      </trkpt>
      <trkpt lat="45.69539" lon="6.65791">
        <ele>1578.6</ele>
        <time>2023-08-21T08:58:20Z</time>
      </trkpt>
      <trkpt lat="45.69537" lon="6.6579">
        <ele>1579.4</ele>
        <time>2023-08-21T08:58:21Z</time>
      </trkpt>
      <trkpt lat="45.69536" lon="6.6579">
        <ele>1579.6</ele>
        <time>2023-08-21T08:58:22Z</time>
      </trkpt>
      <trkpt lat="45.69534" lon="6.65789">
        <ele>1579.6</ele>
        <time>2023-08-21T08:58:23Z</time>
      </trkpt>
      <trkpt lat="45.69532" lon="6.65788">
        <ele>1579.6</ele>
        <time>2023-08-21T08:58:24Z</time>
      </trkpt>
      <trkpt lat="45.6953" lon="6.65787">
        <ele>1580.2</ele>
        <time>2023-08-21T08:58:25Z</time>
      </trkpt>
      <trkpt lat="45.69528" lon="6.65786">
        <ele>1580.2</ele>
        <time>2023-08-21T08:58:26Z</time>
      </trkpt>
      <trkpt lat="45.69527" lon="6.65786">
        <ele>1580.2</ele>
        <time>2023-08-21T08:58:27Z</time>
      </trkpt>
      <trkpt lat="45.69525" lon="6.65786">
        <ele>1580.2</ele>
        <time>2023-08-21T08:58:28Z</time>
      </trkpt>
      <trkpt lat="45.69523" lon="6.65785">
        <ele>1580.2</ele>
        <time>2023-08-21T08:58:29Z</time>
      </trkpt>
      <trkpt lat="45.69522" lon="6.65785">
        <ele>1580.2</ele>
        <time>2023-08-21T08:58:30Z</time>
      </trkpt>
      <trkpt lat="45.6952" lon="6.65785">
        <ele>1581.2</ele>
        <time>2023-08-21T08:58:31Z</time>
      </trkpt>
      <trkpt lat="45.69518" lon="6.65785">
        <ele>1581.2</ele>
        <time>2023-08-21T08:58:32Z</time>
      </trkpt>
      <trkpt lat="45.69516" lon="6.65784">
        <ele>1581.2</ele>
        <time>2023-08-21T08:58:33Z</time>
      </trkpt>
      <trkpt lat="45.69515" lon="6.65784">
        <ele>1581.2</ele>
        <time>2023-08-21T08:58:34Z</time>
      </trkpt>
      <trkpt lat="45.69513" lon="6.65784">
        <ele>1581.2</ele>
        <time>2023-08-21T08:58:35Z</time>
      </trkpt>
      <trkpt lat="45.69511" lon="6.65784">
        <ele>1581.8</ele>
        <time>2023-08-21T08:58:36Z</time>
      </trkpt>
      <trkpt lat="45.69509" lon="6.65783">
        <ele>1581.8</ele>
        <time>2023-08-21T08:58:37Z</time>
      </trkpt>
      <trkpt lat="45.69508" lon="6.65783">
        <ele>1581.8</ele>
        <time>2023-08-21T08:58:38Z</time>
      </trkpt>
      <trkpt lat="45.69506" lon="6.65783">
        <ele>1581.8</ele>
        <time>2023-08-21T08:58:39Z</time>
      </trkpt>
      <trkpt lat="45.69504" lon="6.65783">
        <ele>1582.4</ele>
        <time>2023-08-21T08:58:40Z</time>
      </trkpt>
      <trkpt lat="45.69502" lon="6.65783">
        <ele>1582.4</ele>
        <time>2023-08-21T08:58:41Z</time>
      </trkpt>
      <trkpt lat="45.69501" lon="6.65783">
        <ele>1582.4</ele>
        <time>2023-08-21T08:58:42Z</time>
      </trkpt>
      <trkpt lat="45.69499" lon="6.65783">
        <ele>1582.4</ele>
        <time>2023-08-21T08:58:43Z</time>
      </trkpt>
      <trkpt lat="45.69497" lon="6.65782">
        <ele>1583</ele>
        <time>2023-08-21T08:58:44Z</time>
      </trkpt>
      <trkpt lat="45.69495" lon="6.65782">
        <ele>1583.2</ele>
        <time>2023-08-21T08:58:45Z</time>
      </trkpt>
      <trkpt lat="45.69493" lon="6.65781">
        <ele>1583.2</ele>
        <time>2023-08-21T08:58:46Z</time>
      </trkpt>
      <trkpt lat="45.69492" lon="6.65781">
        <ele>1583.2</ele>
        <time>2023-08-21T08:58:47Z</time>
      </trkpt>
      <trkpt lat="45.6949" lon="6.6578">
        <ele>1583.2</ele>
        <time>2023-08-21T08:58:48Z</time>
      </trkpt>
      <trkpt lat="45.69488" lon="6.6578">
        <ele>1583.6</ele>
        <time>2023-08-21T08:58:49Z</time>
      </trkpt>
      <trkpt lat="45.69487" lon="6.65779">
        <ele>1583.8</ele>
        <time>2023-08-21T08:58:50Z</time>
      </trkpt>
      <trkpt lat="45.69485" lon="6.65779">
        <ele>1583.8</ele>
        <time>2023-08-21T08:58:51Z</time>
      </trkpt>
      <trkpt lat="45.69484" lon="6.65779">
        <ele>1583.8</ele>
        <time>2023-08-21T08:58:52Z</time>
      </trkpt>
      <trkpt lat="45.69482" lon="6.65779">
        <ele>1583.8</ele>
        <time>2023-08-21T08:58:53Z</time>
      </trkpt>
      <trkpt lat="45.6948" lon="6.65779">
        <ele>1584.4</ele>
        <time>2023-08-21T08:58:54Z</time>
      </trkpt>
      <trkpt lat="45.69478" lon="6.65779">
        <ele>1584.4</ele>
        <time>2023-08-21T08:58:55Z</time>
      </trkpt>
      <trkpt lat="45.69476" lon="6.65779">
        <ele>1584.4</ele>
        <time>2023-08-21T08:58:56Z</time>
      </trkpt>
      <trkpt lat="45.69474" lon="6.65779">
        <ele>1585</ele>
        <time>2023-08-21T08:58:57Z</time>
      </trkpt>
      <trkpt lat="45.69472" lon="6.65779">
        <ele>1585</ele>
        <time>2023-08-21T08:58:58Z</time>
      </trkpt>
      <trkpt lat="45.69471" lon="6.65779">
        <ele>1585</ele>
        <time>2023-08-21T08:58:59Z</time>
      </trkpt>
      <trkpt lat="45.69469" lon="6.65778">
        <ele>1585</ele>
        <time>2023-08-21T08:59:00Z</time>
      </trkpt>
      <trkpt lat="45.69467" lon="6.65778">
        <ele>1585</ele>
        <time>2023-08-21T08:59:01Z</time>
      </trkpt>
      <trkpt lat="45.69465" lon="6.65778">
        <ele>1585.6</ele>
        <time>2023-08-21T08:59:02Z</time>
      </trkpt>
      <trkpt lat="45.69463" lon="6.65778">
        <ele>1585.8</ele>
        <time>2023-08-21T08:59:03Z</time>
      </trkpt>
      <trkpt lat="45.69462" lon="6.65778">
        <ele>1585.8</ele>
        <time>2023-08-21T08:59:04Z</time>
      </trkpt>
      <trkpt lat="45.6946" lon="6.65777">
        <ele>1585.8</ele>
        <time>2023-08-21T08:59:05Z</time>
      </trkpt>
      <trkpt lat="45.69458" lon="6.65777">
        <ele>1586.2</ele>
        <time>2023-08-21T08:59:06Z</time>
      </trkpt>
      <trkpt lat="45.69456" lon="6.65776">
        <ele>1586.2</ele>
        <time>2023-08-21T08:59:07Z</time>
      </trkpt>
      <trkpt lat="45.69455" lon="6.65776">
        <ele>1586.2</ele>
        <time>2023-08-21T08:59:08Z</time>
      </trkpt>
      <trkpt lat="45.69453" lon="6.65775">
        <ele>1586.2</ele>
        <time>2023-08-21T08:59:09Z</time>
      </trkpt>
      <trkpt lat="45.69451" lon="6.65775">
        <ele>1586.8</ele>
        <time>2023-08-21T08:59:10Z</time>
      </trkpt>
      <trkpt lat="45.6945" lon="6.65774">
        <ele>1586.8</ele>
        <time>2023-08-21T08:59:11Z</time>
      </trkpt>
      <trkpt lat="45.69448" lon="6.65774">
        <ele>1587</ele>
        <time>2023-08-21T08:59:12Z</time>
      </trkpt>
      <trkpt lat="45.69447" lon="6.65772">
        <ele>1587</ele>
        <time>2023-08-21T08:59:13Z</time>
      </trkpt>
      <trkpt lat="45.69445" lon="6.65772">
        <ele>1587</ele>
        <time>2023-08-21T08:59:14Z</time>
      </trkpt>
      <trkpt lat="45.69443" lon="6.65771">
        <ele>1587</ele>
        <time>2023-08-21T08:59:15Z</time>
      </trkpt>
      <trkpt lat="45.69442" lon="6.6577">
        <ele>1587.8</ele>
        <time>2023-08-21T08:59:16Z</time>
      </trkpt>
      <trkpt lat="45.6944" lon="6.65769">
        <ele>1587.8</ele>
        <time>2023-08-21T08:59:17Z</time>
      </trkpt>
      <trkpt lat="45.69438" lon="6.65768">
        <ele>1587.8</ele>
        <time>2023-08-21T08:59:18Z</time>
      </trkpt>
      <trkpt lat="45.69437" lon="6.65767">
        <ele>1587.8</ele>
        <time>2023-08-21T08:59:19Z</time>
      </trkpt>
      <trkpt lat="45.69436" lon="6.65766">
        <ele>1587.8</ele>
        <time>2023-08-21T08:59:20Z</time>
      </trkpt>
      <trkpt lat="45.69434" lon="6.65765">
        <ele>1588.4</ele>
        <time>2023-08-21T08:59:21Z</time>
      </trkpt>
      <trkpt lat="45.69432" lon="6.65764">
        <ele>1588.4</ele>
        <time>2023-08-21T08:59:22Z</time>
      </trkpt>
      <trkpt lat="45.69431" lon="6.65763">
        <ele>1588.6</ele>
        <time>2023-08-21T08:59:23Z</time>
      </trkpt>
      <trkpt lat="45.69429" lon="6.65763">
        <ele>1588.6</ele>
        <time>2023-08-21T08:59:24Z</time>
      </trkpt>
      <trkpt lat="45.69428" lon="6.65764">
        <ele>1589</ele>
        <time>2023-08-21T08:59:25Z</time>
      </trkpt>
      <trkpt lat="45.69427" lon="6.65765">
        <ele>1589.2</ele>
        <time>2023-08-21T08:59:26Z</time>
      </trkpt>
      <trkpt lat="45.69425" lon="6.65764">
        <ele>1589.2</ele>
        <time>2023-08-21T08:59:27Z</time>
      </trkpt>
      <trkpt lat="45.69423" lon="6.65764">
        <ele>1589.2</ele>
        <time>2023-08-21T08:59:28Z</time>
      </trkpt>
      <trkpt lat="45.69422" lon="6.65764">
        <ele>1589.2</ele>
        <time>2023-08-21T08:59:29Z</time>
      </trkpt>
      <trkpt lat="45.6942" lon="6.65763">
        <ele>1589.6</ele>
        <time>2023-08-21T08:59:30Z</time>
      </trkpt>
      <trkpt lat="45.69418" lon="6.65762">
        <ele>1589.6</ele>
        <time>2023-08-21T08:59:31Z</time>
      </trkpt>
      <trkpt lat="45.69417" lon="6.6576">
        <ele>1589.6</ele>
        <time>2023-08-21T08:59:32Z</time>
      </trkpt>
      <trkpt lat="45.69416" lon="6.65758">
        <ele>1589.6</ele>
        <time>2023-08-21T08:59:33Z</time>
      </trkpt>
      <trkpt lat="45.69414" lon="6.65755">
        <ele>1590</ele>
        <time>2023-08-21T08:59:34Z</time>
      </trkpt>
      <trkpt lat="45.69412" lon="6.65752">
        <ele>1590</ele>
        <time>2023-08-21T08:59:35Z</time>
      </trkpt>
      <trkpt lat="45.69411" lon="6.6575">
        <ele>1590</ele>
        <time>2023-08-21T08:59:36Z</time>
      </trkpt>
      <trkpt lat="45.6941" lon="6.65747">
        <ele>1590</ele>
        <time>2023-08-21T08:59:37Z</time>
      </trkpt>
      <trkpt lat="45.69409" lon="6.65744">
        <ele>1590.4</ele>
        <time>2023-08-21T08:59:38Z</time>
      </trkpt>
      <trkpt lat="45.69407" lon="6.65741">
        <ele>1590.8</ele>
        <time>2023-08-21T08:59:39Z</time>
      </trkpt>
      <trkpt lat="45.69406" lon="6.65738">
        <ele>1590.8</ele>
        <time>2023-08-21T08:59:40Z</time>
      </trkpt>
      <trkpt lat="45.69406" lon="6.65734">
        <ele>1590.8</ele>
        <time>2023-08-21T08:59:41Z</time>
      </trkpt>
      <trkpt lat="45.69405" lon="6.65731">
        <ele>1590.8</ele>
        <time>2023-08-21T08:59:42Z</time>
      </trkpt>
      <trkpt lat="45.69405" lon="6.65729">
        <ele>1591.2</ele>
        <time>2023-08-21T08:59:43Z</time>
      </trkpt>
      <trkpt lat="45.69404" lon="6.65726">
        <ele>1591.4</ele>
        <time>2023-08-21T08:59:44Z</time>
      </trkpt>
      <trkpt lat="45.69403" lon="6.65723">
        <ele>1591.4</ele>
        <time>2023-08-21T08:59:45Z</time>
      </trkpt>
      <trkpt lat="45.69402" lon="6.6572">
        <ele>1591.4</ele>
        <time>2023-08-21T08:59:46Z</time>
      </trkpt>
      <trkpt lat="45.69402" lon="6.65718">
        <ele>1591.8</ele>
        <time>2023-08-21T08:59:47Z</time>
      </trkpt>
      <trkpt lat="45.69401" lon="6.65715">
        <ele>1592.2</ele>
        <time>2023-08-21T08:59:48Z</time>
      </trkpt>
      <trkpt lat="45.694" lon="6.65712">
        <ele>1592.2</ele>
        <time>2023-08-21T08:59:49Z</time>
      </trkpt>
      <trkpt lat="45.69399" lon="6.65709">
        <ele>1592.2</ele>
        <time>2023-08-21T08:59:50Z</time>
      </trkpt>
      <trkpt lat="45.69398" lon="6.65707">
        <ele>1592.2</ele>
        <time>2023-08-21T08:59:51Z</time>
      </trkpt>
      <trkpt lat="45.69398" lon="6.65704">
        <ele>1592.8</ele>
        <time>2023-08-21T08:59:52Z</time>
      </trkpt>
      <trkpt lat="45.69397" lon="6.65702">
        <ele>1592.8</ele>
        <time>2023-08-21T08:59:53Z</time>
      </trkpt>
      <trkpt lat="45.69396" lon="6.657">
        <ele>1592.8</ele>
        <time>2023-08-21T08:59:54Z</time>
      </trkpt>
      <trkpt lat="45.69395" lon="6.65697">
        <ele>1592.8</ele>
        <time>2023-08-21T08:59:55Z</time>
      </trkpt>
      <trkpt lat="45.69394" lon="6.65695">
        <ele>1593</ele>
        <time>2023-08-21T08:59:56Z</time>
      </trkpt>
      <trkpt lat="45.69392" lon="6.65693">
        <ele>1593.4</ele>
        <time>2023-08-21T08:59:57Z</time>
      </trkpt>
      <trkpt lat="45.69391" lon="6.6569">
        <ele>1593.4</ele>
        <time>2023-08-21T08:59:58Z</time>
      </trkpt>
      <trkpt lat="45.6939" lon="6.65688">
        <ele>1593.4</ele>
        <time>2023-08-21T08:59:59Z</time>
      </trkpt>
      <trkpt lat="45.69389" lon="6.65686">
        <ele>1593.4</ele>
        <time>2023-08-21T09:00:00Z</time>
      </trkpt>
      <trkpt lat="45.69387" lon="6.65684">
        <ele>1594</ele>
        <time>2023-08-21T09:00:01Z</time>
      </trkpt>
      <trkpt lat="45.69386" lon="6.65682">
        <ele>1594</ele>
        <time>2023-08-21T09:00:02Z</time>
      </trkpt>
      <trkpt lat="45.69384" lon="6.6568">
        <ele>1594</ele>
        <time>2023-08-21T09:00:03Z</time>
      </trkpt>
      <trkpt lat="45.69383" lon="6.65679">
        <ele>1594</ele>
        <time>2023-08-21T09:00:04Z</time>
      </trkpt>
      <trkpt lat="45.69381" lon="6.65677">
        <ele>1594</ele>
        <time>2023-08-21T09:00:05Z</time>
      </trkpt>
      <trkpt lat="45.6938" lon="6.65676">
        <ele>1594.4</ele>
        <time>2023-08-21T09:00:06Z</time>
      </trkpt>
      <trkpt lat="45.69378" lon="6.65674">
        <ele>1594.6</ele>
        <time>2023-08-21T09:00:07Z</time>
      </trkpt>
      <trkpt lat="45.69377" lon="6.65672">
        <ele>1594.6</ele>
        <time>2023-08-21T09:00:08Z</time>
      </trkpt>
      <trkpt lat="45.69375" lon="6.65671">
        <ele>1594.6</ele>
        <time>2023-08-21T09:00:09Z</time>
      </trkpt>
      <trkpt lat="45.69373" lon="6.65669">
        <ele>1595.2</ele>
        <time>2023-08-21T09:00:10Z</time>
      </trkpt>
      <trkpt lat="45.69372" lon="6.65668">
        <ele>1595.4</ele>
        <time>2023-08-21T09:00:11Z</time>
      </trkpt>
      <trkpt lat="45.6937" lon="6.65666">
        <ele>1595.4</ele>
        <time>2023-08-21T09:00:12Z</time>
      </trkpt>
      <trkpt lat="45.69369" lon="6.65664">
        <ele>1595.4</ele>
        <time>2023-08-21T09:00:13Z</time>
      </trkpt>
      <trkpt lat="45.69367" lon="6.65663">
        <ele>1595.4</ele>
        <time>2023-08-21T09:00:14Z</time>
      </trkpt>
      <trkpt lat="45.69366" lon="6.65662">
        <ele>1595.4</ele>
        <time>2023-08-21T09:00:15Z</time>
      </trkpt>
      <trkpt lat="45.69364" lon="6.65661">
        <ele>1596</ele>
        <time>2023-08-21T09:00:16Z</time>
      </trkpt>
      <trkpt lat="45.69363" lon="6.6566">
        <ele>1596</ele>
        <time>2023-08-21T09:00:17Z</time>
      </trkpt>
      <trkpt lat="45.69361" lon="6.65658">
        <ele>1596</ele>
        <time>2023-08-21T09:00:18Z</time>
      </trkpt>
      <trkpt lat="45.69359" lon="6.65656">
        <ele>1596.4</ele>
        <time>2023-08-21T09:00:19Z</time>
      </trkpt>
      <trkpt lat="45.69358" lon="6.65655">
        <ele>1596.4</ele>
        <time>2023-08-21T09:00:20Z</time>
      </trkpt>
      <trkpt lat="45.69357" lon="6.65653">
        <ele>1596.4</ele>
        <time>2023-08-21T09:00:21Z</time>
      </trkpt>
      <trkpt lat="45.69355" lon="6.65651">
        <ele>1596.4</ele>
        <time>2023-08-21T09:00:22Z</time>
      </trkpt>
      <trkpt lat="45.69353" lon="6.6565">
        <ele>1597</ele>
        <time>2023-08-21T09:00:23Z</time>
      </trkpt>
      <trkpt lat="45.69352" lon="6.65648">
        <ele>1597</ele>
        <time>2023-08-21T09:00:24Z</time>
      </trkpt>
      <trkpt lat="45.69351" lon="6.65646">
        <ele>1597.4</ele>
        <time>2023-08-21T09:00:25Z</time>
      </trkpt>
      <trkpt lat="45.69349" lon="6.65644">
        <ele>1597.4</ele>
        <time>2023-08-21T09:00:26Z</time>
      </trkpt>
      <trkpt lat="45.69348" lon="6.65642">
        <ele>1597.4</ele>
        <time>2023-08-21T09:00:27Z</time>
      </trkpt>
      <trkpt lat="45.69347" lon="6.6564">
        <ele>1598.2</ele>
        <time>2023-08-21T09:00:28Z</time>
      </trkpt>
      <trkpt lat="45.69346" lon="6.65638">
        <ele>1598.2</ele>
        <time>2023-08-21T09:00:29Z</time>
      </trkpt>
      <trkpt lat="45.69345" lon="6.65636">
        <ele>1598.2</ele>
        <time>2023-08-21T09:00:30Z</time>
      </trkpt>
      <trkpt lat="45.69344" lon="6.65634">
        <ele>1598.2</ele>
        <time>2023-08-21T09:00:31Z</time>
      </trkpt>
      <trkpt lat="45.69342" lon="6.65633">
        <ele>1598.2</ele>
        <time>2023-08-21T09:00:32Z</time>
      </trkpt>
      <trkpt lat="45.69341" lon="6.65631">
        <ele>1599.2</ele>
        <time>2023-08-21T09:00:33Z</time>
      </trkpt>
      <trkpt lat="45.6934" lon="6.65629">
        <ele>1599.2</ele>
        <time>2023-08-21T09:00:34Z</time>
      </trkpt>
      <trkpt lat="45.69338" lon="6.65628">
        <ele>1599.2</ele>
        <time>2023-08-21T09:00:35Z</time>
      </trkpt>
      <trkpt lat="45.69337" lon="6.65626">
        <ele>1599.2</ele>
        <time>2023-08-21T09:00:36Z</time>
      </trkpt>
      <trkpt lat="45.69336" lon="6.65625">
        <ele>1599.6</ele>
        <time>2023-08-21T09:00:37Z</time>
      </trkpt>
      <trkpt lat="45.69334" lon="6.65623">
        <ele>1599.6</ele>
        <time>2023-08-21T09:00:38Z</time>
      </trkpt>
      <trkpt lat="45.69333" lon="6.65622">
        <ele>1599.6</ele>
        <time>2023-08-21T09:00:39Z</time>
      </trkpt>
      <trkpt lat="45.69331" lon="6.6562">
        <ele>1599.6</ele>
        <time>2023-08-21T09:00:40Z</time>
      </trkpt>
      <trkpt lat="45.6933" lon="6.65619">
        <ele>1600.2</ele>
        <time>2023-08-21T09:00:41Z</time>
      </trkpt>
      <trkpt lat="45.69328" lon="6.65618">
        <ele>1600.2</ele>
        <time>2023-08-21T09:00:42Z</time>
      </trkpt>
      <trkpt lat="45.69327" lon="6.65616">
        <ele>1600.4</ele>
        <time>2023-08-21T09:00:43Z</time>
      </trkpt>
      <trkpt lat="45.69326" lon="6.65615">
        <ele>1600.4</ele>
        <time>2023-08-21T09:00:44Z</time>
      </trkpt>
      <trkpt lat="45.69324" lon="6.65613">
        <ele>1600.4</ele>
        <time>2023-08-21T09:00:45Z</time>
      </trkpt>
      <trkpt lat="45.69323" lon="6.65612">
        <ele>1601</ele>
        <time>2023-08-21T09:00:46Z</time>
      </trkpt>
      <trkpt lat="45.69321" lon="6.6561">
        <ele>1601</ele>
        <time>2023-08-21T09:00:47Z</time>
      </trkpt>
      <trkpt lat="45.69319" lon="6.65609">
        <ele>1601</ele>
        <time>2023-08-21T09:00:48Z</time>
      </trkpt>
      <trkpt lat="45.69318" lon="6.65607">
        <ele>1601</ele>
        <time>2023-08-21T09:00:49Z</time>
      </trkpt>
      <trkpt lat="45.69316" lon="6.65606">
        <ele>1601</ele>
        <time>2023-08-21T09:00:50Z</time>
      </trkpt>
      <trkpt lat="45.69315" lon="6.65604">
        <ele>1601.6</ele>
        <time>2023-08-21T09:00:51Z</time>
      </trkpt>
      <trkpt lat="45.69313" lon="6.65602">
        <ele>1601.6</ele>
        <time>2023-08-21T09:00:52Z</time>
      </trkpt>
      <trkpt lat="45.69312" lon="6.65601">
        <ele>1601.6</ele>
        <time>2023-08-21T09:00:53Z</time>
      </trkpt>
      <trkpt lat="45.6931" lon="6.65599">
        <ele>1601.6</ele>
        <time>2023-08-21T09:00:54Z</time>
      </trkpt>
      <trkpt lat="45.69309" lon="6.65598">
        <ele>1601.6</ele>
        <time>2023-08-21T09:00:55Z</time>
      </trkpt>
      <trkpt lat="45.69307" lon="6.65597">
        <ele>1602.4</ele>
        <time>2023-08-21T09:00:56Z</time>
      </trkpt>
      <trkpt lat="45.69306" lon="6.65595">
        <ele>1602.4</ele>
        <time>2023-08-21T09:00:57Z</time>
      </trkpt>
      <trkpt lat="45.69304" lon="6.65594">
        <ele>1602.4</ele>
        <time>2023-08-21T09:00:58Z</time>
      </trkpt>
      <trkpt lat="45.69302" lon="6.65593">
        <ele>1602.4</ele>
        <time>2023-08-21T09:00:59Z</time>
      </trkpt>
      <trkpt lat="45.693" lon="6.65592">
        <ele>1602.4</ele>
        <time>2023-08-21T09:01:00Z</time>
      </trkpt>
      <trkpt lat="45.69299" lon="6.6559">
        <ele>1602.8</ele>
        <time>2023-08-21T09:01:01Z</time>
      </trkpt>
      <trkpt lat="45.69298" lon="6.65589">
        <ele>1602.8</ele>
        <time>2023-08-21T09:01:02Z</time>
      </trkpt>
      <trkpt lat="45.69296" lon="6.65587">
        <ele>1602.8</ele>
        <time>2023-08-21T09:01:03Z</time>
      </trkpt>
      <trkpt lat="45.69294" lon="6.65586">
        <ele>1602.8</ele>
        <time>2023-08-21T09:01:04Z</time>
      </trkpt>
      <trkpt lat="45.69293" lon="6.65584">
        <ele>1603.4</ele>
        <time>2023-08-21T09:01:05Z</time>
      </trkpt>
      <trkpt lat="45.69291" lon="6.65583">
        <ele>1603.4</ele>
        <time>2023-08-21T09:01:06Z</time>
      </trkpt>
      <trkpt lat="45.6929" lon="6.65581">
        <ele>1603.4</ele>
        <time>2023-08-21T09:01:07Z</time>
      </trkpt>
      <trkpt lat="45.69288" lon="6.6558">
        <ele>1603.4</ele>
        <time>2023-08-21T09:01:08Z</time>
      </trkpt>
      <trkpt lat="45.69287" lon="6.65578">
        <ele>1603.8</ele>
        <time>2023-08-21T09:01:09Z</time>
      </trkpt>
      <trkpt lat="45.69285" lon="6.65577">
        <ele>1604</ele>
        <time>2023-08-21T09:01:10Z</time>
      </trkpt>
      <trkpt lat="45.69283" lon="6.65576">
        <ele>1604</ele>
        <time>2023-08-21T09:01:11Z</time>
      </trkpt>
      <trkpt lat="45.69282" lon="6.65575">
        <ele>1604</ele>
        <time>2023-08-21T09:01:12Z</time>
      </trkpt>
      <trkpt lat="45.6928" lon="6.65573">
        <ele>1604</ele>
        <time>2023-08-21T09:01:13Z</time>
      </trkpt>
      <trkpt lat="45.69278" lon="6.65572">
        <ele>1604.6</ele>
        <time>2023-08-21T09:01:14Z</time>
      </trkpt>
      <trkpt lat="45.69277" lon="6.6557">
        <ele>1604.6</ele>
        <time>2023-08-21T09:01:15Z</time>
      </trkpt>
      <trkpt lat="45.69275" lon="6.65569">
        <ele>1604.6</ele>
        <time>2023-08-21T09:01:16Z</time>
      </trkpt>
      <trkpt lat="45.69274" lon="6.65567">
        <ele>1604.6</ele>
        <time>2023-08-21T09:01:17Z</time>
      </trkpt>
      <trkpt lat="45.69272" lon="6.65565">
        <ele>1605.4</ele>
        <time>2023-08-21T09:01:18Z</time>
      </trkpt>
      <trkpt lat="45.69271" lon="6.65564">
        <ele>1605.4</ele>
        <time>2023-08-21T09:01:19Z</time>
      </trkpt>
      <trkpt lat="45.69269" lon="6.65562">
        <ele>1605.4</ele>
        <time>2023-08-21T09:01:20Z</time>
      </trkpt>
      <trkpt lat="45.69268" lon="6.6556">
        <ele>1605.4</ele>
        <time>2023-08-21T09:01:21Z</time>
      </trkpt>
      <trkpt lat="45.69266" lon="6.65558">
        <ele>1605.8</ele>
        <time>2023-08-21T09:01:22Z</time>
      </trkpt>
      <trkpt lat="45.69265" lon="6.65557">
        <ele>1605.8</ele>
        <time>2023-08-21T09:01:23Z</time>
      </trkpt>
      <trkpt lat="45.69263" lon="6.65555">
        <ele>1605.8</ele>
        <time>2023-08-21T09:01:24Z</time>
      </trkpt>
      <trkpt lat="45.69262" lon="6.65553">
        <ele>1605.8</ele>
        <time>2023-08-21T09:01:25Z</time>
      </trkpt>
      <trkpt lat="45.6926" lon="6.65551">
        <ele>1605.8</ele>
        <time>2023-08-21T09:01:26Z</time>
      </trkpt>
      <trkpt lat="45.69259" lon="6.6555">
        <ele>1606.2</ele>
        <time>2023-08-21T09:01:27Z</time>
      </trkpt>
      <trkpt lat="45.69257" lon="6.65548">
        <ele>1606.2</ele>
        <time>2023-08-21T09:01:28Z</time>
      </trkpt>
      <trkpt lat="45.69256" lon="6.65546">
        <ele>1606.6</ele>
        <time>2023-08-21T09:01:29Z</time>
      </trkpt>
      <trkpt lat="45.69254" lon="6.65544">
        <ele>1606.6</ele>
        <time>2023-08-21T09:01:30Z</time>
      </trkpt>
      <trkpt lat="45.69252" lon="6.65542">
        <ele>1607</ele>
        <time>2023-08-21T09:01:31Z</time>
      </trkpt>
      <trkpt lat="45.69251" lon="6.65539">
        <ele>1607</ele>
        <time>2023-08-21T09:01:32Z</time>
      </trkpt>
      <trkpt lat="45.69249" lon="6.65537">
        <ele>1607.2</ele>
        <time>2023-08-21T09:01:33Z</time>
      </trkpt>
      <trkpt lat="45.69248" lon="6.65535">
        <ele>1607.2</ele>
        <time>2023-08-21T09:01:34Z</time>
      </trkpt>
      <trkpt lat="45.69247" lon="6.65532">
        <ele>1607.2</ele>
        <time>2023-08-21T09:01:35Z</time>
      </trkpt>
      <trkpt lat="45.69246" lon="6.6553">
        <ele>1607.8</ele>
        <time>2023-08-21T09:01:36Z</time>
      </trkpt>
      <trkpt lat="45.69245" lon="6.65528">
        <ele>1608</ele>
        <time>2023-08-21T09:01:37Z</time>
      </trkpt>
      <trkpt lat="45.69244" lon="6.65526">
        <ele>1608</ele>
        <time>2023-08-21T09:01:38Z</time>
      </trkpt>
      <trkpt lat="45.69243" lon="6.65523">
        <ele>1608</ele>
        <time>2023-08-21T09:01:39Z</time>
      </trkpt>
      <trkpt lat="45.69241" lon="6.65521">
        <ele>1608.6</ele>
        <time>2023-08-21T09:01:40Z</time>
      </trkpt>
      <trkpt lat="45.69239" lon="6.65519">
        <ele>1608.6</ele>
        <time>2023-08-21T09:01:41Z</time>
      </trkpt>
      <trkpt lat="45.69238" lon="6.65516">
        <ele>1608.8</ele>
        <time>2023-08-21T09:01:42Z</time>
      </trkpt>
      <trkpt lat="45.69236" lon="6.65513">
        <ele>1608.8</ele>
        <time>2023-08-21T09:01:43Z</time>
      </trkpt>
      <trkpt lat="45.69235" lon="6.65511">
        <ele>1608.8</ele>
        <time>2023-08-21T09:01:44Z</time>
      </trkpt>
      <trkpt lat="45.69233" lon="6.65508">
        <ele>1609.4</ele>
        <time>2023-08-21T09:01:45Z</time>
      </trkpt>
      <trkpt lat="45.69232" lon="6.65506">
        <ele>1609.6</ele>
        <time>2023-08-21T09:01:46Z</time>
      </trkpt>
      <trkpt lat="45.6923" lon="6.65503">
        <ele>1609.6</ele>
        <time>2023-08-21T09:01:47Z</time>
      </trkpt>
      <trkpt lat="45.69229" lon="6.65501">
        <ele>1609.6</ele>
        <time>2023-08-21T09:01:48Z</time>
      </trkpt>
      <trkpt lat="45.69228" lon="6.65499">
        <ele>1610</ele>
        <time>2023-08-21T09:01:49Z</time>
      </trkpt>
      <trkpt lat="45.69226" lon="6.65497">
        <ele>1610</ele>
        <time>2023-08-21T09:01:50Z</time>
      </trkpt>
      <trkpt lat="45.69225" lon="6.65494">
        <ele>1610.4</ele>
        <time>2023-08-21T09:01:51Z</time>
      </trkpt>
      <trkpt lat="45.69224" lon="6.65492">
        <ele>1610.4</ele>
        <time>2023-08-21T09:01:52Z</time>
      </trkpt>
      <trkpt lat="45.69223" lon="6.65489">
        <ele>1610.8</ele>
        <time>2023-08-21T09:01:53Z</time>
      </trkpt>
      <trkpt lat="45.69221" lon="6.65487">
        <ele>1611</ele>
        <time>2023-08-21T09:01:54Z</time>
      </trkpt>
      <trkpt lat="45.6922" lon="6.65485">
        <ele>1611</ele>
        <time>2023-08-21T09:01:55Z</time>
      </trkpt>
      <trkpt lat="45.69218" lon="6.65482">
        <ele>1611</ele>
        <time>2023-08-21T09:01:56Z</time>
      </trkpt>
      <trkpt lat="45.69217" lon="6.6548">
        <ele>1611</ele>
        <time>2023-08-21T09:01:57Z</time>
      </trkpt>
      <trkpt lat="45.69215" lon="6.65478">
        <ele>1611.6</ele>
        <time>2023-08-21T09:01:58Z</time>
      </trkpt>
      <trkpt lat="45.69214" lon="6.65476">
        <ele>1611.6</ele>
        <time>2023-08-21T09:01:59Z</time>
      </trkpt>
      <trkpt lat="45.69212" lon="6.65474">
        <ele>1611.6</ele>
        <time>2023-08-21T09:02:00Z</time>
      </trkpt>
      <trkpt lat="45.6921" lon="6.65472">
        <ele>1611.6</ele>
        <time>2023-08-21T09:02:01Z</time>
      </trkpt>
      <trkpt lat="45.69209" lon="6.6547">
        <ele>1612.4</ele>
        <time>2023-08-21T09:02:02Z</time>
      </trkpt>
      <trkpt lat="45.69207" lon="6.65468">
        <ele>1612.6</ele>
        <time>2023-08-21T09:02:03Z</time>
      </trkpt>
      <trkpt lat="45.69206" lon="6.65466">
        <ele>1612.6</ele>
        <time>2023-08-21T09:02:04Z</time>
      </trkpt>
      <trkpt lat="45.69204" lon="6.65464">
        <ele>1612.6</ele>
        <time>2023-08-21T09:02:05Z</time>
      </trkpt>
      <trkpt lat="45.69203" lon="6.65462">
        <ele>1613.2</ele>
        <time>2023-08-21T09:02:06Z</time>
      </trkpt>
      <trkpt lat="45.69201" lon="6.6546">
        <ele>1613.2</ele>
        <time>2023-08-21T09:02:07Z</time>
      </trkpt>
      <trkpt lat="45.69199" lon="6.65458">
        <ele>1613.4</ele>
        <time>2023-08-21T09:02:08Z</time>
      </trkpt>
      <trkpt lat="45.69198" lon="6.65456">
        <ele>1613.4</ele>
        <time>2023-08-21T09:02:09Z</time>
      </trkpt>
      <trkpt lat="45.69196" lon="6.65455">
        <ele>1613.4</ele>
        <time>2023-08-21T09:02:10Z</time>
      </trkpt>
      <trkpt lat="45.69194" lon="6.65453">
        <ele>1613.4</ele>
        <time>2023-08-21T09:02:11Z</time>
      </trkpt>
      <trkpt lat="45.69193" lon="6.65451">
        <ele>1613.4</ele>
        <time>2023-08-21T09:02:12Z</time>
      </trkpt>
      <trkpt lat="45.69191" lon="6.6545">
        <ele>1614</ele>
        <time>2023-08-21T09:02:13Z</time>
      </trkpt>
      <trkpt lat="45.6919" lon="6.65448">
        <ele>1614</ele>
        <time>2023-08-21T09:02:14Z</time>
      </trkpt>
      <trkpt lat="45.69189" lon="6.65447">
        <ele>1614</ele>
        <time>2023-08-21T09:02:15Z</time>
      </trkpt>
      <trkpt lat="45.69187" lon="6.65445">
        <ele>1614.6</ele>
        <time>2023-08-21T09:02:16Z</time>
      </trkpt>
      <trkpt lat="45.69186" lon="6.65444">
        <ele>1614.6</ele>
        <time>2023-08-21T09:02:17Z</time>
      </trkpt>
      <trkpt lat="45.69184" lon="6.65443">
        <ele>1614.8</ele>
        <time>2023-08-21T09:02:18Z</time>
      </trkpt>
      <trkpt lat="45.69182" lon="6.65442">
        <ele>1614.8</ele>
        <time>2023-08-21T09:02:19Z</time>
      </trkpt>
      <trkpt lat="45.6918" lon="6.6544">
        <ele>1614.8</ele>
        <time>2023-08-21T09:02:20Z</time>
      </trkpt>
      <trkpt lat="45.69178" lon="6.65439">
        <ele>1614.8</ele>
        <time>2023-08-21T09:02:21Z</time>
      </trkpt>
      <trkpt lat="45.69177" lon="6.65437">
        <ele>1615.2</ele>
        <time>2023-08-21T09:02:22Z</time>
      </trkpt>
      <trkpt lat="45.69175" lon="6.65436">
        <ele>1615.2</ele>
        <time>2023-08-21T09:02:23Z</time>
      </trkpt>
      <trkpt lat="45.69173" lon="6.65434">
        <ele>1615.2</ele>
        <time>2023-08-21T09:02:24Z</time>
      </trkpt>
      <trkpt lat="45.69172" lon="6.65432">
        <ele>1615.8</ele>
        <time>2023-08-21T09:02:25Z</time>
      </trkpt>
      <trkpt lat="45.6917" lon="6.65431">
        <ele>1616</ele>
        <time>2023-08-21T09:02:26Z</time>
      </trkpt>
      <trkpt lat="45.69168" lon="6.65429">
        <ele>1616</ele>
        <time>2023-08-21T09:02:27Z</time>
      </trkpt>
      <trkpt lat="45.69167" lon="6.65426">
        <ele>1616</ele>
        <time>2023-08-21T09:02:28Z</time>
      </trkpt>
      <trkpt lat="45.69166" lon="6.65424">
        <ele>1616</ele>
        <time>2023-08-21T09:02:29Z</time>
      </trkpt>
      <trkpt lat="45.69164" lon="6.65422">
        <ele>1616.4</ele>
        <time>2023-08-21T09:02:30Z</time>
      </trkpt>
      <trkpt lat="45.69162" lon="6.6542">
        <ele>1616.4</ele>
        <time>2023-08-21T09:02:31Z</time>
      </trkpt>
      <trkpt lat="45.69161" lon="6.65418">
        <ele>1616.4</ele>
        <time>2023-08-21T09:02:32Z</time>
      </trkpt>
      <trkpt lat="45.69159" lon="6.65416">
        <ele>1616.4</ele>
        <time>2023-08-21T09:02:33Z</time>
      </trkpt>
      <trkpt lat="45.69157" lon="6.65414">
        <ele>1616.8</ele>
        <time>2023-08-21T09:02:34Z</time>
      </trkpt>
      <trkpt lat="45.69155" lon="6.65412">
        <ele>1616.8</ele>
        <time>2023-08-21T09:02:35Z</time>
      </trkpt>
      <trkpt lat="45.69154" lon="6.6541">
        <ele>1616.8</ele>
        <time>2023-08-21T09:02:36Z</time>
      </trkpt>
      <trkpt lat="45.69152" lon="6.65408">
        <ele>1616.8</ele>
        <time>2023-08-21T09:02:37Z</time>
      </trkpt>
      <trkpt lat="45.6915" lon="6.65406">
        <ele>1616.8</ele>
        <time>2023-08-21T09:02:38Z</time>
      </trkpt>
      <trkpt lat="45.69149" lon="6.65404">
        <ele>1617.6</ele>
        <time>2023-08-21T09:02:39Z</time>
      </trkpt>
      <trkpt lat="45.69147" lon="6.65402">
        <ele>1617.6</ele>
        <time>2023-08-21T09:02:40Z</time>
      </trkpt>
      <trkpt lat="45.69145" lon="6.654">
        <ele>1617.6</ele>
        <time>2023-08-21T09:02:41Z</time>
      </trkpt>
      <trkpt lat="45.69143" lon="6.65398">
        <ele>1617.6</ele>
        <time>2023-08-21T09:02:42Z</time>
      </trkpt>
      <trkpt lat="45.69141" lon="6.65396">
        <ele>1617.8</ele>
        <time>2023-08-21T09:02:43Z</time>
      </trkpt>
      <trkpt lat="45.6914" lon="6.65393">
        <ele>1617.8</ele>
        <time>2023-08-21T09:02:44Z</time>
      </trkpt>
      <trkpt lat="45.69138" lon="6.65391">
        <ele>1618</ele>
        <time>2023-08-21T09:02:45Z</time>
      </trkpt>
      <trkpt lat="45.69136" lon="6.65389">
        <ele>1618</ele>
        <time>2023-08-21T09:02:46Z</time>
      </trkpt>
      <trkpt lat="45.69134" lon="6.65387">
        <ele>1618.4</ele>
        <time>2023-08-21T09:02:47Z</time>
      </trkpt>
      <trkpt lat="45.69132" lon="6.65384">
        <ele>1618.4</ele>
        <time>2023-08-21T09:02:48Z</time>
      </trkpt>
      <trkpt lat="45.69131" lon="6.65382">
        <ele>1618.6</ele>
        <time>2023-08-21T09:02:49Z</time>
      </trkpt>
      <trkpt lat="45.69129" lon="6.65379">
        <ele>1618.6</ele>
        <time>2023-08-21T09:02:50Z</time>
      </trkpt>
      <trkpt lat="45.69128" lon="6.65377">
        <ele>1618.6</ele>
        <time>2023-08-21T09:02:51Z</time>
      </trkpt>
      <trkpt lat="45.69127" lon="6.65374">
        <ele>1618.8</ele>
        <time>2023-08-21T09:02:52Z</time>
      </trkpt>
      <trkpt lat="45.69126" lon="6.65371">
        <ele>1618.8</ele>
        <time>2023-08-21T09:02:53Z</time>
      </trkpt>
      <trkpt lat="45.69124" lon="6.65368">
        <ele>1619.2</ele>
        <time>2023-08-21T09:02:54Z</time>
      </trkpt>
      <trkpt lat="45.69123" lon="6.65366">
        <ele>1619.2</ele>
        <time>2023-08-21T09:02:55Z</time>
      </trkpt>
      <trkpt lat="45.69121" lon="6.65363">
        <ele>1619.2</ele>
        <time>2023-08-21T09:02:56Z</time>
      </trkpt>
      <trkpt lat="45.69119" lon="6.6536">
        <ele>1619.4</ele>
        <time>2023-08-21T09:02:57Z</time>
      </trkpt>
      <trkpt lat="45.69117" lon="6.65359">
        <ele>1619.8</ele>
        <time>2023-08-21T09:02:58Z</time>
      </trkpt>
      <trkpt lat="45.69114" lon="6.65358">
        <ele>1619.8</ele>
        <time>2023-08-21T09:02:59Z</time>
      </trkpt>
      <trkpt lat="45.69112" lon="6.65358">
        <ele>1619.8</ele>
        <time>2023-08-21T09:03:00Z</time>
      </trkpt>
      <trkpt lat="45.69109" lon="6.65359">
        <ele>1620.2</ele>
        <time>2023-08-21T09:03:01Z</time>
      </trkpt>
      <trkpt lat="45.69107" lon="6.65361">
        <ele>1620.2</ele>
        <time>2023-08-21T09:03:02Z</time>
      </trkpt>
      <trkpt lat="45.69106" lon="6.65363">
        <ele>1620.2</ele>
        <time>2023-08-21T09:03:03Z</time>
      </trkpt>
      <trkpt lat="45.69105" lon="6.65366">
        <ele>1620.2</ele>
        <time>2023-08-21T09:03:04Z</time>
      </trkpt>
      <trkpt lat="45.69104" lon="6.65369">
        <ele>1620.2</ele>
        <time>2023-08-21T09:03:05Z</time>
      </trkpt>
      <trkpt lat="45.69104" lon="6.65372">
        <ele>1620.8</ele>
        <time>2023-08-21T09:03:06Z</time>
      </trkpt>
      <trkpt lat="45.69105" lon="6.65375">
        <ele>1621</ele>
        <time>2023-08-21T09:03:07Z</time>
      </trkpt>
      <trkpt lat="45.69106" lon="6.65378">
        <ele>1621</ele>
        <time>2023-08-21T09:03:08Z</time>
      </trkpt>
      <trkpt lat="45.69108" lon="6.65381">
        <ele>1621</ele>
        <time>2023-08-21T09:03:09Z</time>
      </trkpt>
      <trkpt lat="45.69111" lon="6.65383">
        <ele>1621.6</ele>
        <time>2023-08-21T09:03:10Z</time>
      </trkpt>
      <trkpt lat="45.69113" lon="6.65385">
        <ele>1621.8</ele>
        <time>2023-08-21T09:03:11Z</time>
      </trkpt>
      <trkpt lat="45.69115" lon="6.65387">
        <ele>1621.8</ele>
        <time>2023-08-21T09:03:12Z</time>
      </trkpt>
      <trkpt lat="45.69117" lon="6.65389">
        <ele>1621.8</ele>
        <time>2023-08-21T09:03:13Z</time>
      </trkpt>
      <trkpt lat="45.69119" lon="6.65391">
        <ele>1621.8</ele>
        <time>2023-08-21T09:03:14Z</time>
      </trkpt>
      <trkpt lat="45.69121" lon="6.65393">
        <ele>1622.4</ele>
        <time>2023-08-21T09:03:15Z</time>
      </trkpt>
      <trkpt lat="45.69122" lon="6.65395">
        <ele>1622.8</ele>
        <time>2023-08-21T09:03:16Z</time>
      </trkpt>
      <trkpt lat="45.69124" lon="6.65398">
        <ele>1622.8</ele>
        <time>2023-08-21T09:03:17Z</time>
      </trkpt>
      <trkpt lat="45.69125" lon="6.654">
        <ele>1622.8</ele>
        <time>2023-08-21T09:03:18Z</time>
      </trkpt>
      <trkpt lat="45.69127" lon="6.65402">
        <ele>1623.2</ele>
        <time>2023-08-21T09:03:19Z</time>
      </trkpt>
      <trkpt lat="45.69128" lon="6.65404">
        <ele>1623.4</ele>
        <time>2023-08-21T09:03:20Z</time>
      </trkpt>
      <trkpt lat="45.6913" lon="6.65407">
        <ele>1623.4</ele>
        <time>2023-08-21T09:03:21Z</time>
      </trkpt>
      <trkpt lat="45.69131" lon="6.65409">
        <ele>1623.4</ele>
        <time>2023-08-21T09:03:22Z</time>
      </trkpt>
      <trkpt lat="45.69133" lon="6.65411">
        <ele>1624.2</ele>
        <time>2023-08-21T09:03:23Z</time>
      </trkpt>
      <trkpt lat="45.69135" lon="6.65413">
        <ele>1624.4</ele>
        <time>2023-08-21T09:03:24Z</time>
      </trkpt>
      <trkpt lat="45.69137" lon="6.65415">
        <ele>1624.4</ele>
        <time>2023-08-21T09:03:25Z</time>
      </trkpt>
      <trkpt lat="45.69139" lon="6.65417">
        <ele>1624.4</ele>
        <time>2023-08-21T09:03:26Z</time>
      </trkpt>
      <trkpt lat="45.69141" lon="6.65419">
        <ele>1624.4</ele>
        <time>2023-08-21T09:03:27Z</time>
      </trkpt>
      <trkpt lat="45.69142" lon="6.65422">
        <ele>1625.2</ele>
        <time>2023-08-21T09:03:28Z</time>
      </trkpt>
      <trkpt lat="45.69143" lon="6.65424">
        <ele>1625.4</ele>
        <time>2023-08-21T09:03:29Z</time>
      </trkpt>
      <trkpt lat="45.69145" lon="6.65426">
        <ele>1625.4</ele>
        <time>2023-08-21T09:03:30Z</time>
      </trkpt>
      <trkpt lat="45.69146" lon="6.65429">
        <ele>1625.4</ele>
        <time>2023-08-21T09:03:31Z</time>
      </trkpt>
      <trkpt lat="45.69148" lon="6.65431">
        <ele>1625.8</ele>
        <time>2023-08-21T09:03:32Z</time>
      </trkpt>
      <trkpt lat="45.69149" lon="6.65433">
        <ele>1625.8</ele>
        <time>2023-08-21T09:03:33Z</time>
      </trkpt>
      <trkpt lat="45.69151" lon="6.65435">
        <ele>1626.4</ele>
        <time>2023-08-21T09:03:34Z</time>
      </trkpt>
      <trkpt lat="45.69152" lon="6.65437">
        <ele>1626.4</ele>
        <time>2023-08-21T09:03:35Z</time>
      </trkpt>
      <trkpt lat="45.69153" lon="6.6544">
        <ele>1626.4</ele>
        <time>2023-08-21T09:03:36Z</time>
      </trkpt>
      <trkpt lat="45.69154" lon="6.65442">
        <ele>1627</ele>
        <time>2023-08-21T09:03:37Z</time>
      </trkpt>
      <trkpt lat="45.69155" lon="6.65445">
        <ele>1627</ele>
        <time>2023-08-21T09:03:38Z</time>
      </trkpt>
      <trkpt lat="45.69156" lon="6.65447">
        <ele>1627.2</ele>
        <time>2023-08-21T09:03:39Z</time>
      </trkpt>
      <trkpt lat="45.69157" lon="6.6545">
        <ele>1627.2</ele>
        <time>2023-08-21T09:03:40Z</time>
      </trkpt>
      <trkpt lat="45.69159" lon="6.65452">
        <ele>1627.2</ele>
        <time>2023-08-21T09:03:41Z</time>
      </trkpt>
      <trkpt lat="45.69161" lon="6.65454">
        <ele>1627.8</ele>
        <time>2023-08-21T09:03:42Z</time>
      </trkpt>
      <trkpt lat="45.69163" lon="6.65456">
        <ele>1628</ele>
        <time>2023-08-21T09:03:43Z</time>
      </trkpt>
      <trkpt lat="45.69165" lon="6.65459">
        <ele>1628</ele>
        <time>2023-08-21T09:03:44Z</time>
      </trkpt>
      <trkpt lat="45.69167" lon="6.65461">
        <ele>1628</ele>
        <time>2023-08-21T09:03:45Z</time>
      </trkpt>
      <trkpt lat="45.69168" lon="6.65463">
        <ele>1628</ele>
        <time>2023-08-21T09:03:46Z</time>
      </trkpt>
      <trkpt lat="45.6917" lon="6.65465">
        <ele>1629.2</ele>
        <time>2023-08-21T09:03:47Z</time>
      </trkpt>
      <trkpt lat="45.69172" lon="6.65467">
        <ele>1629.2</ele>
        <time>2023-08-21T09:03:48Z</time>
      </trkpt>
      <trkpt lat="45.69173" lon="6.6547">
        <ele>1629.2</ele>
        <time>2023-08-21T09:03:49Z</time>
      </trkpt>
      <trkpt lat="45.69174" lon="6.65472">
        <ele>1629.2</ele>
        <time>2023-08-21T09:03:50Z</time>
      </trkpt>
      <trkpt lat="45.69175" lon="6.65474">
        <ele>1629.8</ele>
        <time>2023-08-21T09:03:51Z</time>
      </trkpt>
      <trkpt lat="45.69176" lon="6.65476">
        <ele>1630.2</ele>
        <time>2023-08-21T09:03:52Z</time>
      </trkpt>
      <trkpt lat="45.69177" lon="6.65479">
        <ele>1630.2</ele>
        <time>2023-08-21T09:03:53Z</time>
      </trkpt>
      <trkpt lat="45.69178" lon="6.65481">
        <ele>1630.2</ele>
        <time>2023-08-21T09:03:54Z</time>
      </trkpt>
      <trkpt lat="45.69178" lon="6.65483">
        <ele>1630.8</ele>
        <time>2023-08-21T09:03:55Z</time>
      </trkpt>
      <trkpt lat="45.69179" lon="6.65485">
        <ele>1630.8</ele>
        <time>2023-08-21T09:03:56Z</time>
      </trkpt>
      <trkpt lat="45.6918" lon="6.65488">
        <ele>1630.8</ele>
        <time>2023-08-21T09:03:57Z</time>
      </trkpt>
      <trkpt lat="45.6918" lon="6.6549">
        <ele>1630.8</ele>
        <time>2023-08-21T09:03:58Z</time>
      </trkpt>
      <trkpt lat="45.69181" lon="6.65492">
        <ele>1631.2</ele>
        <time>2023-08-21T09:03:59Z</time>
      </trkpt>
      <trkpt lat="45.69181" lon="6.65495">
        <ele>1631.2</ele>
        <time>2023-08-21T09:04:00Z</time>
      </trkpt>
      <trkpt lat="45.69182" lon="6.65497">
        <ele>1631.6</ele>
        <time>2023-08-21T09:04:01Z</time>
      </trkpt>
      <trkpt lat="45.69183" lon="6.655">
        <ele>1631.6</ele>
        <time>2023-08-21T09:04:02Z</time>
      </trkpt>
      <trkpt lat="45.69184" lon="6.65502">
        <ele>1631.6</ele>
        <time>2023-08-21T09:04:03Z</time>
      </trkpt>
      <trkpt lat="45.69185" lon="6.65504">
        <ele>1632</ele>
        <time>2023-08-21T09:04:04Z</time>
      </trkpt>
      <trkpt lat="45.69185" lon="6.65506">
        <ele>1632.2</ele>
        <time>2023-08-21T09:04:05Z</time>
      </trkpt>
      <trkpt lat="45.69186" lon="6.65509">
        <ele>1632.2</ele>
        <time>2023-08-21T09:04:06Z</time>
      </trkpt>
      <trkpt lat="45.69187" lon="6.65511">
        <ele>1632.2</ele>
        <time>2023-08-21T09:04:07Z</time>
      </trkpt>
      <trkpt lat="45.69189" lon="6.65513">
        <ele>1632.2</ele>
        <time>2023-08-21T09:04:08Z</time>
      </trkpt>
      <trkpt lat="45.6919" lon="6.65515">
        <ele>1632.8</ele>
        <time>2023-08-21T09:04:09Z</time>
      </trkpt>
      <trkpt lat="45.69192" lon="6.65517">
        <ele>1632.8</ele>
        <time>2023-08-21T09:04:10Z</time>
      </trkpt>
      <trkpt lat="45.69193" lon="6.6552">
        <ele>1632.8</ele>
        <time>2023-08-21T09:04:11Z</time>
      </trkpt>
      <trkpt lat="45.69194" lon="6.65522">
        <ele>1632.8</ele>
        <time>2023-08-21T09:04:12Z</time>
      </trkpt>
      <trkpt lat="45.69194" lon="6.65524">
        <ele>1633.4</ele>
        <time>2023-08-21T09:04:13Z</time>
      </trkpt>
      <trkpt lat="45.69195" lon="6.65527">
        <ele>1633.4</ele>
        <time>2023-08-21T09:04:14Z</time>
      </trkpt>
      <trkpt lat="45.69196" lon="6.6553">
        <ele>1633.6</ele>
        <time>2023-08-21T09:04:15Z</time>
      </trkpt>
      <trkpt lat="45.69196" lon="6.65532">
        <ele>1633.6</ele>
        <time>2023-08-21T09:04:16Z</time>
      </trkpt>
      <trkpt lat="45.69197" lon="6.65535">
        <ele>1633.6</ele>
        <time>2023-08-21T09:04:17Z</time>
      </trkpt>
      <trkpt lat="45.69198" lon="6.65537">
        <ele>1634.2</ele>
        <time>2023-08-21T09:04:18Z</time>
      </trkpt>
      <trkpt lat="45.69199" lon="6.6554">
        <ele>1634.2</ele>
        <time>2023-08-21T09:04:19Z</time>
      </trkpt>
      <trkpt lat="45.69199" lon="6.65543">
        <ele>1634.4</ele>
        <time>2023-08-21T09:04:20Z</time>
      </trkpt>
      <trkpt lat="45.692" lon="6.65545">
        <ele>1634.4</ele>
        <time>2023-08-21T09:04:21Z</time>
      </trkpt>
      <trkpt lat="45.69201" lon="6.65548">
        <ele>1634.4</ele>
        <time>2023-08-21T09:04:22Z</time>
      </trkpt>
      <trkpt lat="45.69202" lon="6.6555">
        <ele>1634.8</ele>
        <time>2023-08-21T09:04:23Z</time>
      </trkpt>
      <trkpt lat="45.69203" lon="6.65553">
        <ele>1635</ele>
        <time>2023-08-21T09:04:24Z</time>
      </trkpt>
      <trkpt lat="45.69204" lon="6.65556">
        <ele>1635</ele>
        <time>2023-08-21T09:04:25Z</time>
      </trkpt>
      <trkpt lat="45.69205" lon="6.65558">
        <ele>1635</ele>
        <time>2023-08-21T09:04:26Z</time>
      </trkpt>
      <trkpt lat="45.69206" lon="6.65561">
        <ele>1635.6</ele>
        <time>2023-08-21T09:04:27Z</time>
      </trkpt>
      <trkpt lat="45.69207" lon="6.65563">
        <ele>1635.6</ele>
        <time>2023-08-21T09:04:28Z</time>
      </trkpt>
      <trkpt lat="45.69208" lon="6.65565">
        <ele>1635.6</ele>
        <time>2023-08-21T09:04:29Z</time>
      </trkpt>
      <trkpt lat="45.69209" lon="6.65568">
        <ele>1635.6</ele>
        <time>2023-08-21T09:04:30Z</time>
      </trkpt>
      <trkpt lat="45.6921" lon="6.6557">
        <ele>1635.6</ele>
        <time>2023-08-21T09:04:31Z</time>
      </trkpt>
      <trkpt lat="45.69211" lon="6.65572">
        <ele>1636.6</ele>
        <time>2023-08-21T09:04:32Z</time>
      </trkpt>
      <trkpt lat="45.69212" lon="6.65575">
        <ele>1636.6</ele>
        <time>2023-08-21T09:04:33Z</time>
      </trkpt>
      <trkpt lat="45.69213" lon="6.65577">
        <ele>1636.6</ele>
        <time>2023-08-21T09:04:34Z</time>
      </trkpt>
      <trkpt lat="45.69214" lon="6.65579">
        <ele>1636.6</ele>
        <time>2023-08-21T09:04:35Z</time>
      </trkpt>
      <trkpt lat="45.69216" lon="6.65581">
        <ele>1637</ele>
        <time>2023-08-21T09:04:36Z</time>
      </trkpt>
      <trkpt lat="45.69217" lon="6.65584">
        <ele>1637.4</ele>
        <time>2023-08-21T09:04:37Z</time>
      </trkpt>
      <trkpt lat="45.69218" lon="6.65586">
        <ele>1637.4</ele>
        <time>2023-08-21T09:04:38Z</time>
      </trkpt>
      <trkpt lat="45.69219" lon="6.65588">
        <ele>1637.4</ele>
        <time>2023-08-21T09:04:39Z</time>
      </trkpt>
      <trkpt lat="45.6922" lon="6.65591">
        <ele>1638</ele>
        <time>2023-08-21T09:04:40Z</time>
      </trkpt>
      <trkpt lat="45.69222" lon="6.65593">
        <ele>1638.2</ele>
        <time>2023-08-21T09:04:41Z</time>
      </trkpt>
      <trkpt lat="45.69223" lon="6.65595">
        <ele>1638.2</ele>
        <time>2023-08-21T09:04:42Z</time>
      </trkpt>
      <trkpt lat="45.69224" lon="6.65598">
        <ele>1638.2</ele>
        <time>2023-08-21T09:04:43Z</time>
      </trkpt>
      <trkpt lat="45.69225" lon="6.656">
        <ele>1638.2</ele>
        <time>2023-08-21T09:04:44Z</time>
      </trkpt>
      <trkpt lat="45.69226" lon="6.65603">
        <ele>1638.6</ele>
        <time>2023-08-21T09:04:45Z</time>
      </trkpt>
      <trkpt lat="45.69227" lon="6.65605">
        <ele>1639</ele>
        <time>2023-08-21T09:04:46Z</time>
      </trkpt>
      <trkpt lat="45.69228" lon="6.65607">
        <ele>1639</ele>
        <time>2023-08-21T09:04:47Z</time>
      </trkpt>
      <trkpt lat="45.69229" lon="6.65609">
        <ele>1639</ele>
        <time>2023-08-21T09:04:48Z</time>
      </trkpt>
      <trkpt lat="45.6923" lon="6.65612">
        <ele>1639.4</ele>
        <time>2023-08-21T09:04:49Z</time>
      </trkpt>
      <trkpt lat="45.69231" lon="6.65614">
        <ele>1639.4</ele>
        <time>2023-08-21T09:04:50Z</time>
      </trkpt>
      <trkpt lat="45.69232" lon="6.65616">
        <ele>1639.6</ele>
        <time>2023-08-21T09:04:51Z</time>
      </trkpt>
      <trkpt lat="45.69233" lon="6.65618">
        <ele>1639.6</ele>
        <time>2023-08-21T09:04:52Z</time>
      </trkpt>
      <trkpt lat="45.69234" lon="6.65621">
        <ele>1640.4</ele>
        <time>2023-08-21T09:04:53Z</time>
      </trkpt>
      <trkpt lat="45.69235" lon="6.65623">
        <ele>1640.4</ele>
        <time>2023-08-21T09:04:54Z</time>
      </trkpt>
      <trkpt lat="45.69236" lon="6.65625">
        <ele>1640.6</ele>
        <time>2023-08-21T09:04:55Z</time>
      </trkpt>
      <trkpt lat="45.69237" lon="6.65628">
        <ele>1640.6</ele>
        <time>2023-08-21T09:04:56Z</time>
      </trkpt>
      <trkpt lat="45.69239" lon="6.6563">
        <ele>1640.6</ele>
        <time>2023-08-21T09:04:57Z</time>
      </trkpt>
      <trkpt lat="45.6924" lon="6.65632">
        <ele>1640.6</ele>
        <time>2023-08-21T09:04:58Z</time>
      </trkpt>
      <trkpt lat="45.69241" lon="6.65634">
        <ele>1641</ele>
        <time>2023-08-21T09:04:59Z</time>
      </trkpt>
      <trkpt lat="45.69242" lon="6.65636">
        <ele>1641.2</ele>
        <time>2023-08-21T09:05:00Z</time>
      </trkpt>
      <trkpt lat="45.69244" lon="6.65638">
        <ele>1641.2</ele>
        <time>2023-08-21T09:05:01Z</time>
      </trkpt>
      <trkpt lat="45.69245" lon="6.65641">
        <ele>1641.2</ele>
        <time>2023-08-21T09:05:02Z</time>
      </trkpt>
      <trkpt lat="45.69246" lon="6.65643">
        <ele>1641.2</ele>
        <time>2023-08-21T09:05:03Z</time>
      </trkpt>
      <trkpt lat="45.69247" lon="6.65645">
        <ele>1642</ele>
        <time>2023-08-21T09:05:04Z</time>
      </trkpt>
      <trkpt lat="45.69248" lon="6.65647">
        <ele>1642</ele>
        <time>2023-08-21T09:05:05Z</time>
      </trkpt>
      <trkpt lat="45.69249" lon="6.65649">
        <ele>1642</ele>
        <time>2023-08-21T09:05:06Z</time>
      </trkpt>
      <trkpt lat="45.69251" lon="6.65651">
        <ele>1642</ele>
        <time>2023-08-21T09:05:07Z</time>
      </trkpt>
      <trkpt lat="45.69252" lon="6.65653">
        <ele>1642.6</ele>
        <time>2023-08-21T09:05:08Z</time>
      </trkpt>
      <trkpt lat="45.69253" lon="6.65655">
        <ele>1642.8</ele>
        <time>2023-08-21T09:05:09Z</time>
      </trkpt>
      <trkpt lat="45.69255" lon="6.65657">
        <ele>1642.8</ele>
        <time>2023-08-21T09:05:10Z</time>
      </trkpt>
      <trkpt lat="45.69256" lon="6.65659">
        <ele>1642.8</ele>
        <time>2023-08-21T09:05:11Z</time>
      </trkpt>
      <trkpt lat="45.69258" lon="6.65661">
        <ele>1642.8</ele>
        <time>2023-08-21T09:05:12Z</time>
      </trkpt>
      <trkpt lat="45.69259" lon="6.65663">
        <ele>1643.6</ele>
        <time>2023-08-21T09:05:13Z</time>
      </trkpt>
      <trkpt lat="45.6926" lon="6.65665">
        <ele>1643.6</ele>
        <time>2023-08-21T09:05:14Z</time>
      </trkpt>
      <trkpt lat="45.69262" lon="6.65667">
        <ele>1643.6</ele>
        <time>2023-08-21T09:05:15Z</time>
      </trkpt>
      <trkpt lat="45.69263" lon="6.65669">
        <ele>1644</ele>
        <time>2023-08-21T09:05:16Z</time>
      </trkpt>
      <trkpt lat="45.69265" lon="6.65671">
        <ele>1644</ele>
        <time>2023-08-21T09:05:17Z</time>
      </trkpt>
      <trkpt lat="45.69266" lon="6.65673">
        <ele>1644.2</ele>
        <time>2023-08-21T09:05:18Z</time>
      </trkpt>
      <trkpt lat="45.69268" lon="6.65675">
        <ele>1644.2</ele>
        <time>2023-08-21T09:05:19Z</time>
      </trkpt>
      <trkpt lat="45.69269" lon="6.65677">
        <ele>1644.2</ele>
        <time>2023-08-21T09:05:20Z</time>
      </trkpt>
      <trkpt lat="45.6927" lon="6.6568">
        <ele>1644.8</ele>
        <time>2023-08-21T09:05:21Z</time>
      </trkpt>
      <trkpt lat="45.69272" lon="6.65682">
        <ele>1645</ele>
        <time>2023-08-21T09:05:22Z</time>
      </trkpt>
      <trkpt lat="45.69273" lon="6.65684">
        <ele>1645</ele>
        <time>2023-08-21T09:05:23Z</time>
      </trkpt>
      <trkpt lat="45.69274" lon="6.65686">
        <ele>1645</ele>
        <time>2023-08-21T09:05:24Z</time>
      </trkpt>
      <trkpt lat="45.69275" lon="6.65689">
        <ele>1645.6</ele>
        <time>2023-08-21T09:05:25Z</time>
      </trkpt>
      <trkpt lat="45.69276" lon="6.65691">
        <ele>1645.8</ele>
        <time>2023-08-21T09:05:26Z</time>
      </trkpt>
      <trkpt lat="45.69277" lon="6.65693">
        <ele>1645.8</ele>
        <time>2023-08-21T09:05:27Z</time>
      </trkpt>
      <trkpt lat="45.69278" lon="6.65695">
        <ele>1645.8</ele>
        <time>2023-08-21T09:05:28Z</time>
      </trkpt>
      <trkpt lat="45.6928" lon="6.65698">
        <ele>1645.8</ele>
        <time>2023-08-21T09:05:29Z</time>
      </trkpt>
      <trkpt lat="45.69281" lon="6.657">
        <ele>1646.4</ele>
        <time>2023-08-21T09:05:30Z</time>
      </trkpt>
      <trkpt lat="45.69282" lon="6.65702">
        <ele>1646.4</ele>
        <time>2023-08-21T09:05:31Z</time>
      </trkpt>
      <trkpt lat="45.69284" lon="6.65704">
        <ele>1646.4</ele>
        <time>2023-08-21T09:05:32Z</time>
      </trkpt>
      <trkpt lat="45.69285" lon="6.65706">
        <ele>1646.4</ele>
        <time>2023-08-21T09:05:33Z</time>
      </trkpt>
      <trkpt lat="45.69286" lon="6.65708">
        <ele>1647</ele>
        <time>2023-08-21T09:05:34Z</time>
      </trkpt>
      <trkpt lat="45.69288" lon="6.6571">
        <ele>1647</ele>
        <time>2023-08-21T09:05:35Z</time>
      </trkpt>
      <trkpt lat="45.69289" lon="6.65712">
        <ele>1647.2</ele>
        <time>2023-08-21T09:05:36Z</time>
      </trkpt>
      <trkpt lat="45.6929" lon="6.65714">
        <ele>1647.2</ele>
        <time>2023-08-21T09:05:37Z</time>
      </trkpt>
      <trkpt lat="45.69292" lon="6.65716">
        <ele>1647.2</ele>
        <time>2023-08-21T09:05:38Z</time>
      </trkpt>
      <trkpt lat="45.69294" lon="6.65718">
        <ele>1647.8</ele>
        <time>2023-08-21T09:05:39Z</time>
      </trkpt>
      <trkpt lat="45.69295" lon="6.6572">
        <ele>1647.8</ele>
        <time>2023-08-21T09:05:40Z</time>
      </trkpt>
      <trkpt lat="45.69297" lon="6.65722">
        <ele>1647.8</ele>
        <time>2023-08-21T09:05:41Z</time>
      </trkpt>
      <trkpt lat="45.69298" lon="6.65724">
        <ele>1647.8</ele>
        <time>2023-08-21T09:05:42Z</time>
      </trkpt>
      <trkpt lat="45.69299" lon="6.65726">
        <ele>1647.8</ele>
        <time>2023-08-21T09:05:43Z</time>
      </trkpt>
      <trkpt lat="45.69301" lon="6.65727">
        <ele>1647.8</ele>
        <time>2023-08-21T09:05:44Z</time>
      </trkpt>
      <trkpt lat="45.69302" lon="6.65729">
        <ele>1648.6</ele>
        <time>2023-08-21T09:05:45Z</time>
      </trkpt>
      <trkpt lat="45.69303" lon="6.65731">
        <ele>1648.6</ele>
        <time>2023-08-21T09:05:46Z</time>
      </trkpt>
      <trkpt lat="45.69303" lon="6.65734">
        <ele>1648.6</ele>
        <time>2023-08-21T09:05:47Z</time>
      </trkpt>
      <trkpt lat="45.69304" lon="6.65736">
        <ele>1649.2</ele>
        <time>2023-08-21T09:05:48Z</time>
      </trkpt>
      <trkpt lat="45.69305" lon="6.65738">
        <ele>1649.2</ele>
        <time>2023-08-21T09:05:49Z</time>
      </trkpt>
      <trkpt lat="45.69306" lon="6.65741">
        <ele>1649.4</ele>
        <time>2023-08-21T09:05:50Z</time>
      </trkpt>
      <trkpt lat="45.69307" lon="6.65743">
        <ele>1649.4</ele>
        <time>2023-08-21T09:05:51Z</time>
      </trkpt>
      <trkpt lat="45.69309" lon="6.65745">
        <ele>1649.4</ele>
        <time>2023-08-21T09:05:52Z</time>
      </trkpt>
      <trkpt lat="45.6931" lon="6.65748">
        <ele>1649.8</ele>
        <time>2023-08-21T09:05:53Z</time>
      </trkpt>
      <trkpt lat="45.69311" lon="6.6575">
        <ele>1650</ele>
        <time>2023-08-21T09:05:54Z</time>
      </trkpt>
      <trkpt lat="45.69312" lon="6.65752">
        <ele>1650</ele>
        <time>2023-08-21T09:05:55Z</time>
      </trkpt>
      <trkpt lat="45.69313" lon="6.65755">
        <ele>1650</ele>
        <time>2023-08-21T09:05:56Z</time>
      </trkpt>
      <trkpt lat="45.69314" lon="6.65757">
        <ele>1650.8</ele>
        <time>2023-08-21T09:05:57Z</time>
      </trkpt>
      <trkpt lat="45.69315" lon="6.65759">
        <ele>1650.8</ele>
        <time>2023-08-21T09:05:58Z</time>
      </trkpt>
      <trkpt lat="45.69316" lon="6.65762">
        <ele>1651.2</ele>
        <time>2023-08-21T09:05:59Z</time>
      </trkpt>
      <trkpt lat="45.69317" lon="6.65764">
        <ele>1651.2</ele>
        <time>2023-08-21T09:06:00Z</time>
      </trkpt>
      <trkpt lat="45.69319" lon="6.65767">
        <ele>1651.2</ele>
        <time>2023-08-21T09:06:01Z</time>
      </trkpt>
      <trkpt lat="45.6932" lon="6.6577">
        <ele>1651.6</ele>
        <time>2023-08-21T09:06:02Z</time>
      </trkpt>
      <trkpt lat="45.69321" lon="6.65772">
        <ele>1652</ele>
        <time>2023-08-21T09:06:03Z</time>
      </trkpt>
      <trkpt lat="45.69322" lon="6.65774">
        <ele>1652</ele>
        <time>2023-08-21T09:06:04Z</time>
      </trkpt>
      <trkpt lat="45.69324" lon="6.65776">
        <ele>1652</ele>
        <time>2023-08-21T09:06:05Z</time>
      </trkpt>
      <trkpt lat="45.69325" lon="6.65779">
        <ele>1652.8</ele>
        <time>2023-08-21T09:06:06Z</time>
      </trkpt>
      <trkpt lat="45.69326" lon="6.65781">
        <ele>1652.8</ele>
        <time>2023-08-21T09:06:07Z</time>
      </trkpt>
      <trkpt lat="45.69327" lon="6.65782">
        <ele>1652.8</ele>
        <time>2023-08-21T09:06:08Z</time>
      </trkpt>
      <trkpt lat="45.69328" lon="6.65784">
        <ele>1652.8</ele>
        <time>2023-08-21T09:06:09Z</time>
      </trkpt>
      <trkpt lat="45.69329" lon="6.65786">
        <ele>1653.6</ele>
        <time>2023-08-21T09:06:10Z</time>
      </trkpt>
      <trkpt lat="45.69331" lon="6.65788">
        <ele>1653.6</ele>
        <time>2023-08-21T09:06:11Z</time>
      </trkpt>
      <trkpt lat="45.69332" lon="6.6579">
        <ele>1653.6</ele>
        <time>2023-08-21T09:06:12Z</time>
      </trkpt>
      <trkpt lat="45.69334" lon="6.65792">
        <ele>1653.6</ele>
        <time>2023-08-21T09:06:13Z</time>
      </trkpt>
      <trkpt lat="45.69335" lon="6.65793">
        <ele>1653.6</ele>
        <time>2023-08-21T09:06:14Z</time>
      </trkpt>
      <trkpt lat="45.69337" lon="6.65795">
        <ele>1654.2</ele>
        <time>2023-08-21T09:06:15Z</time>
      </trkpt>
      <trkpt lat="45.69338" lon="6.65796">
        <ele>1654.2</ele>
        <time>2023-08-21T09:06:16Z</time>
      </trkpt>
      <trkpt lat="45.69339" lon="6.65798">
        <ele>1654.2</ele>
        <time>2023-08-21T09:06:17Z</time>
      </trkpt>
      <trkpt lat="45.69341" lon="6.658">
        <ele>1654.2</ele>
        <time>2023-08-21T09:06:18Z</time>
      </trkpt>
      <trkpt lat="45.69342" lon="6.65802">
        <ele>1654.2</ele>
        <time>2023-08-21T09:06:19Z</time>
      </trkpt>
      <trkpt lat="45.69343" lon="6.65803">
        <ele>1654.8</ele>
        <time>2023-08-21T09:06:20Z</time>
      </trkpt>
      <trkpt lat="45.69345" lon="6.65805">
        <ele>1654.8</ele>
        <time>2023-08-21T09:06:21Z</time>
      </trkpt>
      <trkpt lat="45.69346" lon="6.65807">
        <ele>1655.2</ele>
        <time>2023-08-21T09:06:22Z</time>
      </trkpt>
      <trkpt lat="45.69347" lon="6.65808">
        <ele>1655.2</ele>
        <time>2023-08-21T09:06:23Z</time>
      </trkpt>
      <trkpt lat="45.69348" lon="6.6581">
        <ele>1655.2</ele>
        <time>2023-08-21T09:06:24Z</time>
      </trkpt>
      <trkpt lat="45.6935" lon="6.65812">
        <ele>1655.6</ele>
        <time>2023-08-21T09:06:25Z</time>
      </trkpt>
      <trkpt lat="45.69351" lon="6.65814">
        <ele>1655.6</ele>
        <time>2023-08-21T09:06:26Z</time>
      </trkpt>
      <trkpt lat="45.69352" lon="6.65816">
        <ele>1655.6</ele>
        <time>2023-08-21T09:06:27Z</time>
      </trkpt>
      <trkpt lat="45.69354" lon="6.65818">
        <ele>1655.6</ele>
        <time>2023-08-21T09:06:28Z</time>
      </trkpt>
      <trkpt lat="45.69355" lon="6.6582">
        <ele>1656.2</ele>
        <time>2023-08-21T09:06:29Z</time>
      </trkpt>
      <trkpt lat="45.69356" lon="6.65821">
        <ele>1656.4</ele>
        <time>2023-08-21T09:06:30Z</time>
      </trkpt>
      <trkpt lat="45.69357" lon="6.65823">
        <ele>1656.4</ele>
        <time>2023-08-21T09:06:31Z</time>
      </trkpt>
      <trkpt lat="45.69358" lon="6.65825">
        <ele>1656.4</ele>
        <time>2023-08-21T09:06:32Z</time>
      </trkpt>
      <trkpt lat="45.69359" lon="6.65828">
        <ele>1656.4</ele>
        <time>2023-08-21T09:06:33Z</time>
      </trkpt>
      <trkpt lat="45.69361" lon="6.6583">
        <ele>1656.8</ele>
        <time>2023-08-21T09:06:34Z</time>
      </trkpt>
      <trkpt lat="45.69362" lon="6.65832">
        <ele>1657.2</ele>
        <time>2023-08-21T09:06:35Z</time>
      </trkpt>
      <trkpt lat="45.69363" lon="6.65834">
        <ele>1657.2</ele>
        <time>2023-08-21T09:06:36Z</time>
      </trkpt>
      <trkpt lat="45.69364" lon="6.65836">
        <ele>1657.2</ele>
        <time>2023-08-21T09:06:37Z</time>
      </trkpt>
      <trkpt lat="45.69365" lon="6.65838">
        <ele>1657.8</ele>
        <time>2023-08-21T09:06:38Z</time>
      </trkpt>
      <trkpt lat="45.69366" lon="6.6584">
        <ele>1658</ele>
        <time>2023-08-21T09:06:39Z</time>
      </trkpt>
      <trkpt lat="45.69367" lon="6.65842">
        <ele>1658</ele>
        <time>2023-08-21T09:06:40Z</time>
      </trkpt>
      <trkpt lat="45.69368" lon="6.65844">
        <ele>1658</ele>
        <time>2023-08-21T09:06:41Z</time>
      </trkpt>
      <trkpt lat="45.69369" lon="6.65847">
        <ele>1658.6</ele>
        <time>2023-08-21T09:06:42Z</time>
      </trkpt>
      <trkpt lat="45.69371" lon="6.65849">
        <ele>1658.6</ele>
        <time>2023-08-21T09:06:43Z</time>
      </trkpt>
      <trkpt lat="45.69372" lon="6.65851">
        <ele>1659</ele>
        <time>2023-08-21T09:06:44Z</time>
      </trkpt>
      <trkpt lat="45.69374" lon="6.65852">
        <ele>1659</ele>
        <time>2023-08-21T09:06:45Z</time>
      </trkpt>
      <trkpt lat="45.69375" lon="6.65854">
        <ele>1659</ele>
        <time>2023-08-21T09:06:46Z</time>
      </trkpt>
      <trkpt lat="45.69376" lon="6.65856">
        <ele>1659.4</ele>
        <time>2023-08-21T09:06:47Z</time>
      </trkpt>
      <trkpt lat="45.69378" lon="6.65858">
        <ele>1659.6</ele>
        <time>2023-08-21T09:06:48Z</time>
      </trkpt>
      <trkpt lat="45.69379" lon="6.6586">
        <ele>1659.6</ele>
        <time>2023-08-21T09:06:49Z</time>
      </trkpt>
      <trkpt lat="45.69381" lon="6.65862">
        <ele>1659.6</ele>
        <time>2023-08-21T09:06:50Z</time>
      </trkpt>
      <trkpt lat="45.69382" lon="6.65864">
        <ele>1660.2</ele>
        <time>2023-08-21T09:06:51Z</time>
      </trkpt>
      <trkpt lat="45.69383" lon="6.65866">
        <ele>1660.4</ele>
        <time>2023-08-21T09:06:52Z</time>
      </trkpt>
      <trkpt lat="45.69385" lon="6.65868">
        <ele>1660.4</ele>
        <time>2023-08-21T09:06:53Z</time>
      </trkpt>
      <trkpt lat="45.69386" lon="6.65871">
        <ele>1660.4</ele>
        <time>2023-08-21T09:06:54Z</time>
      </trkpt>
      <trkpt lat="45.69387" lon="6.65873">
        <ele>1660.4</ele>
        <time>2023-08-21T09:06:55Z</time>
      </trkpt>
      <trkpt lat="45.69388" lon="6.65875">
        <ele>1660.8</ele>
        <time>2023-08-21T09:06:56Z</time>
      </trkpt>
      <trkpt lat="45.69389" lon="6.65877">
        <ele>1661</ele>
        <time>2023-08-21T09:06:57Z</time>
      </trkpt>
      <trkpt lat="45.6939" lon="6.65879">
        <ele>1661</ele>
        <time>2023-08-21T09:06:58Z</time>
      </trkpt>
      <trkpt lat="45.69392" lon="6.65881">
        <ele>1661</ele>
        <time>2023-08-21T09:06:59Z</time>
      </trkpt>
      <trkpt lat="45.69393" lon="6.65883">
        <ele>1661.4</ele>
        <time>2023-08-21T09:07:00Z</time>
      </trkpt>
      <trkpt lat="45.69394" lon="6.65885">
        <ele>1661.4</ele>
        <time>2023-08-21T09:07:01Z</time>
      </trkpt>
      <trkpt lat="45.69396" lon="6.65886">
        <ele>1661.8</ele>
        <time>2023-08-21T09:07:02Z</time>
      </trkpt>
      <trkpt lat="45.69397" lon="6.65889">
        <ele>1661.8</ele>
        <time>2023-08-21T09:07:03Z</time>
      </trkpt>
      <trkpt lat="45.69398" lon="6.6589">
        <ele>1662.2</ele>
        <time>2023-08-21T09:07:04Z</time>
      </trkpt>
      <trkpt lat="45.694" lon="6.65892">
        <ele>1662.2</ele>
        <time>2023-08-21T09:07:05Z</time>
      </trkpt>
      <trkpt lat="45.69402" lon="6.65894">
        <ele>1662.2</ele>
        <time>2023-08-21T09:07:06Z</time>
      </trkpt>
      <trkpt lat="45.69404" lon="6.65896">
        <ele>1662.6</ele>
        <time>2023-08-21T09:07:07Z</time>
      </trkpt>
      <trkpt lat="45.69405" lon="6.65898">
        <ele>1662.6</ele>
        <time>2023-08-21T09:07:08Z</time>
      </trkpt>
      <trkpt lat="45.69407" lon="6.65899">
        <ele>1662.6</ele>
        <time>2023-08-21T09:07:09Z</time>
      </trkpt>
      <trkpt lat="45.69408" lon="6.65901">
        <ele>1662.6</ele>
        <time>2023-08-21T09:07:10Z</time>
      </trkpt>
      <trkpt lat="45.69409" lon="6.65903">
        <ele>1663.4</ele>
        <time>2023-08-21T09:07:11Z</time>
      </trkpt>
      <trkpt lat="45.69411" lon="6.65905">
        <ele>1663.4</ele>
        <time>2023-08-21T09:07:12Z</time>
      </trkpt>
      <trkpt lat="45.69412" lon="6.65906">
        <ele>1663.4</ele>
        <time>2023-08-21T09:07:13Z</time>
      </trkpt>
      <trkpt lat="45.69414" lon="6.65908">
        <ele>1664</ele>
        <time>2023-08-21T09:07:14Z</time>
      </trkpt>
      <trkpt lat="45.69415" lon="6.6591">
        <ele>1664.2</ele>
        <time>2023-08-21T09:07:15Z</time>
      </trkpt>
      <trkpt lat="45.69416" lon="6.65912">
        <ele>1664.2</ele>
        <time>2023-08-21T09:07:16Z</time>
      </trkpt>
      <trkpt lat="45.69417" lon="6.65914">
        <ele>1664.2</ele>
        <time>2023-08-21T09:07:17Z</time>
      </trkpt>
      <trkpt lat="45.69418" lon="6.65916">
        <ele>1664.2</ele>
        <time>2023-08-21T09:07:18Z</time>
      </trkpt>
      <trkpt lat="45.69419" lon="6.65918">
        <ele>1664.6</ele>
        <time>2023-08-21T09:07:19Z</time>
      </trkpt>
      <trkpt lat="45.6942" lon="6.6592">
        <ele>1664.8</ele>
        <time>2023-08-21T09:07:20Z</time>
      </trkpt>
      <trkpt lat="45.69421" lon="6.65923">
        <ele>1664.8</ele>
        <time>2023-08-21T09:07:21Z</time>
      </trkpt>
      <trkpt lat="45.69422" lon="6.65925">
        <ele>1664.8</ele>
        <time>2023-08-21T09:07:22Z</time>
      </trkpt>
      <trkpt lat="45.69422" lon="6.65927">
        <ele>1664.8</ele>
        <time>2023-08-21T09:07:23Z</time>
      </trkpt>
      <trkpt lat="45.69423" lon="6.65929">
        <ele>1665.8</ele>
        <time>2023-08-21T09:07:24Z</time>
      </trkpt>
      <trkpt lat="45.69425" lon="6.65931">
        <ele>1665.8</ele>
        <time>2023-08-21T09:07:25Z</time>
      </trkpt>
      <trkpt lat="45.69426" lon="6.65933">
        <ele>1665.8</ele>
        <time>2023-08-21T09:07:26Z</time>
      </trkpt>
      <trkpt lat="45.69427" lon="6.65934">
        <ele>1665.8</ele>
        <time>2023-08-21T09:07:27Z</time>
      </trkpt>
      <trkpt lat="45.69429" lon="6.65936">
        <ele>1666.4</ele>
        <time>2023-08-21T09:07:28Z</time>
      </trkpt>
      <trkpt lat="45.6943" lon="6.65937">
        <ele>1666.6</ele>
        <time>2023-08-21T09:07:29Z</time>
      </trkpt>
      <trkpt lat="45.69432" lon="6.65939">
        <ele>1666.6</ele>
        <time>2023-08-21T09:07:30Z</time>
      </trkpt>
      <trkpt lat="45.69433" lon="6.65941">
        <ele>1666.6</ele>
        <time>2023-08-21T09:07:31Z</time>
      </trkpt>
      <trkpt lat="45.69434" lon="6.65942">
        <ele>1667.4</ele>
        <time>2023-08-21T09:07:32Z</time>
      </trkpt>
      <trkpt lat="45.69436" lon="6.65944">
        <ele>1667.4</ele>
        <time>2023-08-21T09:07:33Z</time>
      </trkpt>
      <trkpt lat="45.69437" lon="6.65946">
        <ele>1667.4</ele>
        <time>2023-08-21T09:07:34Z</time>
      </trkpt>
      <trkpt lat="45.69438" lon="6.65948">
        <ele>1667.4</ele>
        <time>2023-08-21T09:07:35Z</time>
      </trkpt>
      <trkpt lat="45.6944" lon="6.6595">
        <ele>1668.2</ele>
        <time>2023-08-21T09:07:36Z</time>
      </trkpt>
      <trkpt lat="45.69441" lon="6.65952">
        <ele>1668.2</ele>
        <time>2023-08-21T09:07:37Z</time>
      </trkpt>
      <trkpt lat="45.69442" lon="6.65953">
        <ele>1668.2</ele>
        <time>2023-08-21T09:07:38Z</time>
      </trkpt>
      <trkpt lat="45.69444" lon="6.65955">
        <ele>1668.2</ele>
        <time>2023-08-21T09:07:39Z</time>
      </trkpt>
      <trkpt lat="45.69445" lon="6.65956">
        <ele>1668.2</ele>
        <time>2023-08-21T09:07:40Z</time>
      </trkpt>
      <trkpt lat="45.69447" lon="6.65958">
        <ele>1668.2</ele>
        <time>2023-08-21T09:07:41Z</time>
      </trkpt>
      <trkpt lat="45.69448" lon="6.6596">
        <ele>1668.8</ele>
        <time>2023-08-21T09:07:42Z</time>
      </trkpt>
      <trkpt lat="45.6945" lon="6.65961">
        <ele>1668.8</ele>
        <time>2023-08-21T09:07:43Z</time>
      </trkpt>
      <trkpt lat="45.69451" lon="6.65963">
        <ele>1668.8</ele>
        <time>2023-08-21T09:07:44Z</time>
      </trkpt>
      <trkpt lat="45.69453" lon="6.65965">
        <ele>1668.8</ele>
        <time>2023-08-21T09:07:45Z</time>
      </trkpt>
      <trkpt lat="45.69454" lon="6.65967">
        <ele>1669.6</ele>
        <time>2023-08-21T09:07:46Z</time>
      </trkpt>
      <trkpt lat="45.69456" lon="6.65968">
        <ele>1669.6</ele>
        <time>2023-08-21T09:07:47Z</time>
      </trkpt>
      <trkpt lat="45.69458" lon="6.6597">
        <ele>1669.6</ele>
        <time>2023-08-21T09:07:48Z</time>
      </trkpt>
      <trkpt lat="45.69459" lon="6.65972">
        <ele>1669.6</ele>
        <time>2023-08-21T09:07:49Z</time>
      </trkpt>
      <trkpt lat="45.69461" lon="6.65973">
        <ele>1669.6</ele>
        <time>2023-08-21T09:07:50Z</time>
      </trkpt>
      <trkpt lat="45.69463" lon="6.65974">
        <ele>1670.2</ele>
        <time>2023-08-21T09:07:51Z</time>
      </trkpt>
      <trkpt lat="45.69465" lon="6.65976">
        <ele>1670.2</ele>
        <time>2023-08-21T09:07:52Z</time>
      </trkpt>
      <trkpt lat="45.69466" lon="6.65977">
        <ele>1670.2</ele>
        <time>2023-08-21T09:07:53Z</time>
      </trkpt>
      <trkpt lat="45.69468" lon="6.65979">
        <ele>1670.2</ele>
        <time>2023-08-21T09:07:54Z</time>
      </trkpt>
      <trkpt lat="45.6947" lon="6.65981">
        <ele>1670.8</ele>
        <time>2023-08-21T09:07:55Z</time>
      </trkpt>
      <trkpt lat="45.69471" lon="6.65982">
        <ele>1671</ele>
        <time>2023-08-21T09:07:56Z</time>
      </trkpt>
      <trkpt lat="45.69473" lon="6.65984">
        <ele>1671</ele>
        <time>2023-08-21T09:07:57Z</time>
      </trkpt>
      <trkpt lat="45.69474" lon="6.65985">
        <ele>1671</ele>
        <time>2023-08-21T09:07:58Z</time>
      </trkpt>
      <trkpt lat="45.69476" lon="6.65987">
        <ele>1671</ele>
        <time>2023-08-21T09:07:59Z</time>
      </trkpt>
      <trkpt lat="45.69478" lon="6.65988">
        <ele>1671.4</ele>
        <time>2023-08-21T09:08:00Z</time>
      </trkpt>
      <trkpt lat="45.69479" lon="6.65989">
        <ele>1671.6</ele>
        <time>2023-08-21T09:08:01Z</time>
      </trkpt>
      <trkpt lat="45.69481" lon="6.6599">
        <ele>1671.6</ele>
        <time>2023-08-21T09:08:02Z</time>
      </trkpt>
      <trkpt lat="45.69482" lon="6.65992">
        <ele>1671.6</ele>
        <time>2023-08-21T09:08:03Z</time>
      </trkpt>
      <trkpt lat="45.69484" lon="6.65993">
        <ele>1672.2</ele>
        <time>2023-08-21T09:08:04Z</time>
      </trkpt>
      <trkpt lat="45.69486" lon="6.65994">
        <ele>1672.4</ele>
        <time>2023-08-21T09:08:05Z</time>
      </trkpt>
      <trkpt lat="45.69487" lon="6.65996">
        <ele>1672.4</ele>
        <time>2023-08-21T09:08:06Z</time>
      </trkpt>
      <trkpt lat="45.69489" lon="6.65997">
        <ele>1672.4</ele>
        <time>2023-08-21T09:08:07Z</time>
      </trkpt>
      <trkpt lat="45.6949" lon="6.65999">
        <ele>1673</ele>
        <time>2023-08-21T09:08:08Z</time>
      </trkpt>
      <trkpt lat="45.69492" lon="6.66">
        <ele>1673</ele>
        <time>2023-08-21T09:08:09Z</time>
      </trkpt>
      <trkpt lat="45.69493" lon="6.66001">
        <ele>1673.4</ele>
        <time>2023-08-21T09:08:10Z</time>
      </trkpt>
      <trkpt lat="45.69495" lon="6.66002">
        <ele>1673.4</ele>
        <time>2023-08-21T09:08:11Z</time>
      </trkpt>
      <trkpt lat="45.69497" lon="6.66003">
        <ele>1673.4</ele>
        <time>2023-08-21T09:08:12Z</time>
      </trkpt>
      <trkpt lat="45.69499" lon="6.66004">
        <ele>1673.8</ele>
        <time>2023-08-21T09:08:13Z</time>
      </trkpt>
      <trkpt lat="45.695" lon="6.66005">
        <ele>1673.8</ele>
        <time>2023-08-21T09:08:14Z</time>
      </trkpt>
      <trkpt lat="45.69502" lon="6.66006">
        <ele>1674</ele>
        <time>2023-08-21T09:08:15Z</time>
      </trkpt>
      <trkpt lat="45.69504" lon="6.66008">
        <ele>1674</ele>
        <time>2023-08-21T09:08:16Z</time>
      </trkpt>
      <trkpt lat="45.69505" lon="6.66009">
        <ele>1674.6</ele>
        <time>2023-08-21T09:08:17Z</time>
      </trkpt>
      <trkpt lat="45.69507" lon="6.66011">
        <ele>1674.6</ele>
        <time>2023-08-21T09:08:18Z</time>
      </trkpt>
      <trkpt lat="45.69508" lon="6.66012">
        <ele>1674.8</ele>
        <time>2023-08-21T09:08:19Z</time>
      </trkpt>
      <trkpt lat="45.6951" lon="6.66014">
        <ele>1674.8</ele>
        <time>2023-08-21T09:08:20Z</time>
      </trkpt>
      <trkpt lat="45.69511" lon="6.66016">
        <ele>1674.8</ele>
        <time>2023-08-21T09:08:21Z</time>
      </trkpt>
      <trkpt lat="45.69513" lon="6.66018">
        <ele>1674.8</ele>
        <time>2023-08-21T09:08:22Z</time>
      </trkpt>
      <trkpt lat="45.69514" lon="6.66019">
        <ele>1675.8</ele>
        <time>2023-08-21T09:08:23Z</time>
      </trkpt>
      <trkpt lat="45.69515" lon="6.6602">
        <ele>1675.8</ele>
        <time>2023-08-21T09:08:24Z</time>
      </trkpt>
      <trkpt lat="45.69516" lon="6.66022">
        <ele>1675.8</ele>
        <time>2023-08-21T09:08:25Z</time>
      </trkpt>
      <trkpt lat="45.69518" lon="6.66024">
        <ele>1676.2</ele>
        <time>2023-08-21T09:08:26Z</time>
      </trkpt>
      <trkpt lat="45.69519" lon="6.66026">
        <ele>1676.4</ele>
        <time>2023-08-21T09:08:27Z</time>
      </trkpt>
      <trkpt lat="45.69521" lon="6.66027">
        <ele>1676.4</ele>
        <time>2023-08-21T09:08:28Z</time>
      </trkpt>
      <trkpt lat="45.69522" lon="6.66029">
        <ele>1676.4</ele>
        <time>2023-08-21T09:08:29Z</time>
      </trkpt>
      <trkpt lat="45.69524" lon="6.66031">
        <ele>1676.4</ele>
        <time>2023-08-21T09:08:30Z</time>
      </trkpt>
      <trkpt lat="45.69525" lon="6.66033">
        <ele>1676.4</ele>
        <time>2023-08-21T09:08:31Z</time>
      </trkpt>
      <trkpt lat="45.69527" lon="6.66035">
        <ele>1676.8</ele>
        <time>2023-08-21T09:08:32Z</time>
      </trkpt>
      <trkpt lat="45.69529" lon="6.66037">
        <ele>1677.2</ele>
        <time>2023-08-21T09:08:33Z</time>
      </trkpt>
      <trkpt lat="45.6953" lon="6.66039">
        <ele>1677.2</ele>
        <time>2023-08-21T09:08:34Z</time>
      </trkpt>
      <trkpt lat="45.69531" lon="6.66041">
        <ele>1677.2</ele>
        <time>2023-08-21T09:08:35Z</time>
      </trkpt>
      <trkpt lat="45.69532" lon="6.66043">
        <ele>1677.6</ele>
        <time>2023-08-21T09:08:36Z</time>
      </trkpt>
      <trkpt lat="45.69534" lon="6.66046">
        <ele>1678</ele>
        <time>2023-08-21T09:08:37Z</time>
      </trkpt>
      <trkpt lat="45.69535" lon="6.66048">
        <ele>1678</ele>
        <time>2023-08-21T09:08:38Z</time>
      </trkpt>
      <trkpt lat="45.69536" lon="6.66051">
        <ele>1678</ele>
        <time>2023-08-21T09:08:39Z</time>
      </trkpt>
      <trkpt lat="45.69537" lon="6.66053">
        <ele>1678</ele>
        <time>2023-08-21T09:08:40Z</time>
      </trkpt>
      <trkpt lat="45.69538" lon="6.66055">
        <ele>1678.4</ele>
        <time>2023-08-21T09:08:41Z</time>
      </trkpt>
      <trkpt lat="45.69539" lon="6.66057">
        <ele>1678.6</ele>
        <time>2023-08-21T09:08:42Z</time>
      </trkpt>
      <trkpt lat="45.6954" lon="6.66059">
        <ele>1678.6</ele>
        <time>2023-08-21T09:08:43Z</time>
      </trkpt>
      <trkpt lat="45.69541" lon="6.66061">
        <ele>1678.6</ele>
        <time>2023-08-21T09:08:44Z</time>
      </trkpt>
      <trkpt lat="45.69542" lon="6.66063">
        <ele>1679.2</ele>
        <time>2023-08-21T09:08:45Z</time>
      </trkpt>
      <trkpt lat="45.69543" lon="6.66065">
        <ele>1679.4</ele>
        <time>2023-08-21T09:08:46Z</time>
      </trkpt>
      <trkpt lat="45.69544" lon="6.66067">
        <ele>1679.4</ele>
        <time>2023-08-21T09:08:47Z</time>
      </trkpt>
      <trkpt lat="45.69544" lon="6.66069">
        <ele>1679.4</ele>
        <time>2023-08-21T09:08:48Z</time>
      </trkpt>
      <trkpt lat="45.69546" lon="6.66072">
        <ele>1679.8</ele>
        <time>2023-08-21T09:08:49Z</time>
      </trkpt>
      <trkpt lat="45.69547" lon="6.66074">
        <ele>1679.8</ele>
        <time>2023-08-21T09:08:50Z</time>
      </trkpt>
      <trkpt lat="45.69548" lon="6.66076">
        <ele>1680</ele>
        <time>2023-08-21T09:08:51Z</time>
      </trkpt>
      <trkpt lat="45.69549" lon="6.66078">
        <ele>1680</ele>
        <time>2023-08-21T09:08:52Z</time>
      </trkpt>
      <trkpt lat="45.6955" lon="6.6608">
        <ele>1680</ele>
        <time>2023-08-21T09:08:53Z</time>
      </trkpt>
      <trkpt lat="45.69551" lon="6.66083">
        <ele>1680.6</ele>
        <time>2023-08-21T09:08:54Z</time>
      </trkpt>
      <trkpt lat="45.69552" lon="6.66085">
        <ele>1680.8</ele>
        <time>2023-08-21T09:08:55Z</time>
      </trkpt>
      <trkpt lat="45.69553" lon="6.66088">
        <ele>1680.8</ele>
        <time>2023-08-21T09:08:56Z</time>
      </trkpt>
      <trkpt lat="45.69554" lon="6.6609">
        <ele>1680.8</ele>
        <time>2023-08-21T09:08:57Z</time>
      </trkpt>
      <trkpt lat="45.69555" lon="6.66093">
        <ele>1681.2</ele>
        <time>2023-08-21T09:08:58Z</time>
      </trkpt>
      <trkpt lat="45.69556" lon="6.66095">
        <ele>1681.6</ele>
        <time>2023-08-21T09:08:59Z</time>
      </trkpt>
      <trkpt lat="45.69557" lon="6.66097">
        <ele>1681.6</ele>
        <time>2023-08-21T09:09:00Z</time>
      </trkpt>
      <trkpt lat="45.69559" lon="6.661">
        <ele>1681.6</ele>
        <time>2023-08-21T09:09:01Z</time>
      </trkpt>
      <trkpt lat="45.6956" lon="6.66102">
        <ele>1681.6</ele>
        <time>2023-08-21T09:09:02Z</time>
      </trkpt>
      <trkpt lat="45.69562" lon="6.66104">
        <ele>1682.2</ele>
        <time>2023-08-21T09:09:03Z</time>
      </trkpt>
      <trkpt lat="45.69563" lon="6.66107">
        <ele>1682.2</ele>
        <time>2023-08-21T09:09:04Z</time>
      </trkpt>
      <trkpt lat="45.69565" lon="6.66109">
        <ele>1682.2</ele>
        <time>2023-08-21T09:09:05Z</time>
      </trkpt>
      <trkpt lat="45.69566" lon="6.66111">
        <ele>1682.2</ele>
        <time>2023-08-21T09:09:06Z</time>
      </trkpt>
      <trkpt lat="45.69567" lon="6.66113">
        <ele>1682.2</ele>
        <time>2023-08-21T09:09:07Z</time>
      </trkpt>
      <trkpt lat="45.69568" lon="6.66116">
        <ele>1683</ele>
        <time>2023-08-21T09:09:08Z</time>
      </trkpt>
      <trkpt lat="45.69569" lon="6.66118">
        <ele>1683</ele>
        <time>2023-08-21T09:09:09Z</time>
      </trkpt>
      <trkpt lat="45.6957" lon="6.66121">
        <ele>1683</ele>
        <time>2023-08-21T09:09:10Z</time>
      </trkpt>
      <trkpt lat="45.69571" lon="6.66123">
        <ele>1683</ele>
        <time>2023-08-21T09:09:11Z</time>
      </trkpt>
      <trkpt lat="45.69572" lon="6.66126">
        <ele>1683</ele>
        <time>2023-08-21T09:09:12Z</time>
      </trkpt>
      <trkpt lat="45.69573" lon="6.66128">
        <ele>1683.4</ele>
        <time>2023-08-21T09:09:13Z</time>
      </trkpt>
      <trkpt lat="45.69574" lon="6.6613">
        <ele>1683.6</ele>
        <time>2023-08-21T09:09:14Z</time>
      </trkpt>
      <trkpt lat="45.69575" lon="6.66133">
        <ele>1683.6</ele>
        <time>2023-08-21T09:09:15Z</time>
      </trkpt>
      <trkpt lat="45.69576" lon="6.66135">
        <ele>1683.6</ele>
        <time>2023-08-21T09:09:16Z</time>
      </trkpt>
      <trkpt lat="45.69578" lon="6.66137">
        <ele>1684</ele>
        <time>2023-08-21T09:09:17Z</time>
      </trkpt>
      <trkpt lat="45.69579" lon="6.66139">
        <ele>1684.4</ele>
        <time>2023-08-21T09:09:18Z</time>
      </trkpt>
      <trkpt lat="45.6958" lon="6.66141">
        <ele>1684.4</ele>
        <time>2023-08-21T09:09:19Z</time>
      </trkpt>
      <trkpt lat="45.6958" lon="6.66143">
        <ele>1684.4</ele>
        <time>2023-08-21T09:09:20Z</time>
      </trkpt>
      <trkpt lat="45.69581" lon="6.66145">
        <ele>1684.8</ele>
        <time>2023-08-21T09:09:21Z</time>
      </trkpt>
      <trkpt lat="45.69582" lon="6.66147">
        <ele>1684.8</ele>
        <time>2023-08-21T09:09:22Z</time>
      </trkpt>
      <trkpt lat="45.69583" lon="6.6615">
        <ele>1685</ele>
        <time>2023-08-21T09:09:23Z</time>
      </trkpt>
      <trkpt lat="45.69584" lon="6.66152">
        <ele>1685</ele>
        <time>2023-08-21T09:09:24Z</time>
      </trkpt>
      <trkpt lat="45.69585" lon="6.66154">
        <ele>1685</ele>
        <time>2023-08-21T09:09:25Z</time>
      </trkpt>
      <trkpt lat="45.69586" lon="6.66157">
        <ele>1686</ele>
        <time>2023-08-21T09:09:26Z</time>
      </trkpt>
      <trkpt lat="45.69588" lon="6.6616">
        <ele>1685.8</ele>
        <time>2023-08-21T09:09:27Z</time>
      </trkpt>
      <trkpt lat="45.69589" lon="6.66163">
        <ele>1685.8</ele>
        <time>2023-08-21T09:09:28Z</time>
      </trkpt>
      <trkpt lat="45.69589" lon="6.66166">
        <ele>1685.8</ele>
        <time>2023-08-21T09:09:29Z</time>
      </trkpt>
      <trkpt lat="45.6959" lon="6.66169">
        <ele>1686.6</ele>
        <time>2023-08-21T09:09:30Z</time>
      </trkpt>
      <trkpt lat="45.69592" lon="6.66171">
        <ele>1686.6</ele>
        <time>2023-08-21T09:09:31Z</time>
      </trkpt>
      <trkpt lat="45.69593" lon="6.66174">
        <ele>1687</ele>
        <time>2023-08-21T09:09:32Z</time>
      </trkpt>
      <trkpt lat="45.69594" lon="6.66176">
        <ele>1687</ele>
        <time>2023-08-21T09:09:33Z</time>
      </trkpt>
      <trkpt lat="45.69595" lon="6.66178">
        <ele>1687</ele>
        <time>2023-08-21T09:09:34Z</time>
      </trkpt>
      <trkpt lat="45.69596" lon="6.66181">
        <ele>1687.4</ele>
        <time>2023-08-21T09:09:35Z</time>
      </trkpt>
      <trkpt lat="45.69597" lon="6.66183">
        <ele>1687.6</ele>
        <time>2023-08-21T09:09:36Z</time>
      </trkpt>
      <trkpt lat="45.69598" lon="6.66185">
        <ele>1687.6</ele>
        <time>2023-08-21T09:09:37Z</time>
      </trkpt>
      <trkpt lat="45.69599" lon="6.66188">
        <ele>1687.6</ele>
        <time>2023-08-21T09:09:38Z</time>
      </trkpt>
      <trkpt lat="45.696" lon="6.6619">
        <ele>1688.2</ele>
        <time>2023-08-21T09:09:39Z</time>
      </trkpt>
      <trkpt lat="45.69601" lon="6.66193">
        <ele>1688.2</ele>
        <time>2023-08-21T09:09:40Z</time>
      </trkpt>
      <trkpt lat="45.69603" lon="6.66195">
        <ele>1688.6</ele>
        <time>2023-08-21T09:09:41Z</time>
      </trkpt>
      <trkpt lat="45.69604" lon="6.66198">
        <ele>1688.6</ele>
        <time>2023-08-21T09:09:42Z</time>
      </trkpt>
      <trkpt lat="45.69604" lon="6.662">
        <ele>1688.6</ele>
        <time>2023-08-21T09:09:43Z</time>
      </trkpt>
      <trkpt lat="45.69605" lon="6.66203">
        <ele>1689.2</ele>
        <time>2023-08-21T09:09:44Z</time>
      </trkpt>
      <trkpt lat="45.69606" lon="6.66206">
        <ele>1689.4</ele>
        <time>2023-08-21T09:09:45Z</time>
      </trkpt>
      <trkpt lat="45.69607" lon="6.66209">
        <ele>1689.4</ele>
        <time>2023-08-21T09:09:46Z</time>
      </trkpt>
      <trkpt lat="45.69607" lon="6.66212">
        <ele>1689.4</ele>
        <time>2023-08-21T09:09:47Z</time>
      </trkpt>
      <trkpt lat="45.69608" lon="6.66214">
        <ele>1689.4</ele>
        <time>2023-08-21T09:09:48Z</time>
      </trkpt>
      <trkpt lat="45.69608" lon="6.66217">
        <ele>1690.2</ele>
        <time>2023-08-21T09:09:49Z</time>
      </trkpt>
      <trkpt lat="45.69608" lon="6.66219">
        <ele>1690.2</ele>
        <time>2023-08-21T09:09:50Z</time>
      </trkpt>
      <trkpt lat="45.69609" lon="6.66222">
        <ele>1690.2</ele>
        <time>2023-08-21T09:09:51Z</time>
      </trkpt>
      <trkpt lat="45.69609" lon="6.66225">
        <ele>1690.2</ele>
        <time>2023-08-21T09:09:52Z</time>
      </trkpt>
      <trkpt lat="45.6961" lon="6.66228">
        <ele>1691.2</ele>
        <time>2023-08-21T09:09:53Z</time>
      </trkpt>
      <trkpt lat="45.6961" lon="6.6623">
        <ele>1691.2</ele>
        <time>2023-08-21T09:09:54Z</time>
      </trkpt>
      <trkpt lat="45.6961" lon="6.66233">
        <ele>1691.2</ele>
        <time>2023-08-21T09:09:55Z</time>
      </trkpt>
      <trkpt lat="45.6961" lon="6.66235">
        <ele>1691.2</ele>
        <time>2023-08-21T09:09:56Z</time>
      </trkpt>
      <trkpt lat="45.69611" lon="6.66238">
        <ele>1691.2</ele>
        <time>2023-08-21T09:09:57Z</time>
      </trkpt>
      <trkpt lat="45.69611" lon="6.6624">
        <ele>1691.6</ele>
        <time>2023-08-21T09:09:58Z</time>
      </trkpt>
      <trkpt lat="45.69612" lon="6.66243">
        <ele>1691.6</ele>
        <time>2023-08-21T09:09:59Z</time>
      </trkpt>
      <trkpt lat="45.69612" lon="6.66245">
        <ele>1692</ele>
        <time>2023-08-21T09:10:00Z</time>
      </trkpt>
      <trkpt lat="45.69613" lon="6.66248">
        <ele>1692</ele>
        <time>2023-08-21T09:10:01Z</time>
      </trkpt>
      <trkpt lat="45.69613" lon="6.6625">
        <ele>1692</ele>
        <time>2023-08-21T09:10:02Z</time>
      </trkpt>
      <trkpt lat="45.69614" lon="6.66253">
        <ele>1692.4</ele>
        <time>2023-08-21T09:10:03Z</time>
      </trkpt>
      <trkpt lat="45.69614" lon="6.66255">
        <ele>1692.4</ele>
        <time>2023-08-21T09:10:04Z</time>
      </trkpt>
      <trkpt lat="45.69615" lon="6.66258">
        <ele>1692.4</ele>
        <time>2023-08-21T09:10:05Z</time>
      </trkpt>
      <trkpt lat="45.69615" lon="6.6626">
        <ele>1692.4</ele>
        <time>2023-08-21T09:10:06Z</time>
      </trkpt>
      <trkpt lat="45.69616" lon="6.66262">
        <ele>1692.4</ele>
        <time>2023-08-21T09:10:07Z</time>
      </trkpt>
      <trkpt lat="45.69616" lon="6.66264">
        <ele>1692.8</ele>
        <time>2023-08-21T09:10:08Z</time>
      </trkpt>
      <trkpt lat="45.69617" lon="6.66267">
        <ele>1692.8</ele>
        <time>2023-08-21T09:10:09Z</time>
      </trkpt>
      <trkpt lat="45.69618" lon="6.66269">
        <ele>1692.8</ele>
        <time>2023-08-21T09:10:10Z</time>
      </trkpt>
      <trkpt lat="45.69619" lon="6.66272">
        <ele>1693.4</ele>
        <time>2023-08-21T09:10:11Z</time>
      </trkpt>
      <trkpt lat="45.69619" lon="6.66274">
        <ele>1693.4</ele>
        <time>2023-08-21T09:10:12Z</time>
      </trkpt>
      <trkpt lat="45.6962" lon="6.66277">
        <ele>1693.4</ele>
        <time>2023-08-21T09:10:13Z</time>
      </trkpt>
      <trkpt lat="45.6962" lon="6.6628">
        <ele>1693.4</ele>
        <time>2023-08-21T09:10:14Z</time>
      </trkpt>
      <trkpt lat="45.69621" lon="6.66283">
        <ele>1693.4</ele>
        <time>2023-08-21T09:10:15Z</time>
      </trkpt>
      <trkpt lat="45.69621" lon="6.66285">
        <ele>1693.8</ele>
        <time>2023-08-21T09:10:16Z</time>
      </trkpt>
      <trkpt lat="45.69622" lon="6.66289">
        <ele>1694</ele>
        <time>2023-08-21T09:10:17Z</time>
      </trkpt>
      <trkpt lat="45.69622" lon="6.66291">
        <ele>1694</ele>
        <time>2023-08-21T09:10:18Z</time>
      </trkpt>
      <trkpt lat="45.69621" lon="6.66294">
        <ele>1694</ele>
        <time>2023-08-21T09:10:19Z</time>
      </trkpt>
      <trkpt lat="45.69621" lon="6.66297">
        <ele>1694.4</ele>
        <time>2023-08-21T09:10:20Z</time>
      </trkpt>
      <trkpt lat="45.69621" lon="6.663">
        <ele>1694.6</ele>
        <time>2023-08-21T09:10:21Z</time>
      </trkpt>
      <trkpt lat="45.69621" lon="6.66303">
        <ele>1694.6</ele>
        <time>2023-08-21T09:10:22Z</time>
      </trkpt>
      <trkpt lat="45.6962" lon="6.66306">
        <ele>1694.6</ele>
        <time>2023-08-21T09:10:23Z</time>
      </trkpt>
      <trkpt lat="45.6962" lon="6.66309">
        <ele>1695</ele>
        <time>2023-08-21T09:10:24Z</time>
      </trkpt>
      <trkpt lat="45.6962" lon="6.66312">
        <ele>1695.2</ele>
        <time>2023-08-21T09:10:25Z</time>
      </trkpt>
      <trkpt lat="45.69619" lon="6.66314">
        <ele>1695.2</ele>
        <time>2023-08-21T09:10:26Z</time>
      </trkpt>
      <trkpt lat="45.69619" lon="6.66317">
        <ele>1695.2</ele>
        <time>2023-08-21T09:10:27Z</time>
      </trkpt>
      <trkpt lat="45.69619" lon="6.6632">
        <ele>1695.2</ele>
        <time>2023-08-21T09:10:28Z</time>
      </trkpt>
      <trkpt lat="45.69619" lon="6.66324">
        <ele>1695.4</ele>
        <time>2023-08-21T09:10:29Z</time>
      </trkpt>
      <trkpt lat="45.6962" lon="6.66327">
        <ele>1695.4</ele>
        <time>2023-08-21T09:10:30Z</time>
      </trkpt>
      <trkpt lat="45.6962" lon="6.66331">
        <ele>1695.4</ele>
        <time>2023-08-21T09:10:31Z</time>
      </trkpt>
      <trkpt lat="45.6962" lon="6.66334">
        <ele>1695.4</ele>
        <time>2023-08-21T09:10:32Z</time>
      </trkpt>
      <trkpt lat="45.6962" lon="6.66337">
        <ele>1695.4</ele>
        <time>2023-08-21T09:10:33Z</time>
      </trkpt>
      <trkpt lat="45.6962" lon="6.6634">
        <ele>1695.4</ele>
        <time>2023-08-21T09:10:34Z</time>
      </trkpt>
      <trkpt lat="45.69621" lon="6.66344">
        <ele>1695.8</ele>
        <time>2023-08-21T09:10:35Z</time>
      </trkpt>
      <trkpt lat="45.69621" lon="6.66348">
        <ele>1695.8</ele>
        <time>2023-08-21T09:10:36Z</time>
      </trkpt>
      <trkpt lat="45.69621" lon="6.66351">
        <ele>1695.8</ele>
        <time>2023-08-21T09:10:37Z</time>
      </trkpt>
      <trkpt lat="45.69621" lon="6.66354">
        <ele>1695.8</ele>
        <time>2023-08-21T09:10:38Z</time>
      </trkpt>
      <trkpt lat="45.69621" lon="6.66357">
        <ele>1696</ele>
        <time>2023-08-21T09:10:39Z</time>
      </trkpt>
      <trkpt lat="45.6962" lon="6.6636">
        <ele>1696.2</ele>
        <time>2023-08-21T09:10:40Z</time>
      </trkpt>
      <trkpt lat="45.69621" lon="6.66363">
        <ele>1696.2</ele>
        <time>2023-08-21T09:10:41Z</time>
      </trkpt>
      <trkpt lat="45.69621" lon="6.66366">
        <ele>1696.2</ele>
        <time>2023-08-21T09:10:42Z</time>
      </trkpt>
      <trkpt lat="45.6962" lon="6.66369">
        <ele>1696.6</ele>
        <time>2023-08-21T09:10:43Z</time>
      </trkpt>
      <trkpt lat="45.6962" lon="6.66372">
        <ele>1696.4</ele>
        <time>2023-08-21T09:10:44Z</time>
      </trkpt>
      <trkpt lat="45.69619" lon="6.66375">
        <ele>1696.4</ele>
        <time>2023-08-21T09:10:45Z</time>
      </trkpt>
      <trkpt lat="45.69618" lon="6.66378">
        <ele>1696.4</ele>
        <time>2023-08-21T09:10:46Z</time>
      </trkpt>
      <trkpt lat="45.69617" lon="6.6638">
        <ele>1696.8</ele>
        <time>2023-08-21T09:10:47Z</time>
      </trkpt>
      <trkpt lat="45.69615" lon="6.66382">
        <ele>1696.8</ele>
        <time>2023-08-21T09:10:48Z</time>
      </trkpt>
      <trkpt lat="45.69613" lon="6.66385">
        <ele>1697.2</ele>
        <time>2023-08-21T09:10:49Z</time>
      </trkpt>
      <trkpt lat="45.69612" lon="6.66387">
        <ele>1697.2</ele>
        <time>2023-08-21T09:10:50Z</time>
      </trkpt>
      <trkpt lat="45.69611" lon="6.66389">
        <ele>1697.2</ele>
        <time>2023-08-21T09:10:51Z</time>
      </trkpt>
      <trkpt lat="45.69609" lon="6.66391">
        <ele>1697.2</ele>
        <time>2023-08-21T09:10:52Z</time>
      </trkpt>
      <trkpt lat="45.69608" lon="6.66394">
        <ele>1697.4</ele>
        <time>2023-08-21T09:10:53Z</time>
      </trkpt>
      <trkpt lat="45.69606" lon="6.66396">
        <ele>1697.4</ele>
        <time>2023-08-21T09:10:54Z</time>
      </trkpt>
      <trkpt lat="45.69605" lon="6.66398">
        <ele>1697.4</ele>
        <time>2023-08-21T09:10:55Z</time>
      </trkpt>
      <trkpt lat="45.69604" lon="6.664">
        <ele>1698.2</ele>
        <time>2023-08-21T09:10:56Z</time>
      </trkpt>
      <trkpt lat="45.69602" lon="6.66402">
        <ele>1698.2</ele>
        <time>2023-08-21T09:10:57Z</time>
      </trkpt>
      <trkpt lat="45.696" lon="6.66404">
        <ele>1698.4</ele>
        <time>2023-08-21T09:10:58Z</time>
      </trkpt>
      <trkpt lat="45.69598" lon="6.66405">
        <ele>1698.4</ele>
        <time>2023-08-21T09:10:59Z</time>
      </trkpt>
      <trkpt lat="45.69597" lon="6.66407">
        <ele>1698.4</ele>
        <time>2023-08-21T09:11:00Z</time>
      </trkpt>
      <trkpt lat="45.69597" lon="6.66409">
        <ele>1698.8</ele>
        <time>2023-08-21T09:11:01Z</time>
      </trkpt>
      <trkpt lat="45.69595" lon="6.66411">
        <ele>1698.8</ele>
        <time>2023-08-21T09:11:02Z</time>
      </trkpt>
      <trkpt lat="45.69595" lon="6.66413">
        <ele>1699.2</ele>
        <time>2023-08-21T09:11:03Z</time>
      </trkpt>
      <trkpt lat="45.69593" lon="6.66415">
        <ele>1699.2</ele>
        <time>2023-08-21T09:11:04Z</time>
      </trkpt>
      <trkpt lat="45.69592" lon="6.66417">
        <ele>1699.2</ele>
        <time>2023-08-21T09:11:05Z</time>
      </trkpt>
      <trkpt lat="45.69591" lon="6.66419">
        <ele>1700</ele>
        <time>2023-08-21T09:11:06Z</time>
      </trkpt>
      <trkpt lat="45.6959" lon="6.66421">
        <ele>1700</ele>
        <time>2023-08-21T09:11:07Z</time>
      </trkpt>
      <trkpt lat="45.69589" lon="6.66422">
        <ele>1700</ele>
        <time>2023-08-21T09:11:08Z</time>
      </trkpt>
      <trkpt lat="45.69588" lon="6.66424">
        <ele>1700.4</ele>
        <time>2023-08-21T09:11:09Z</time>
      </trkpt>
      <trkpt lat="45.69587" lon="6.66426">
        <ele>1700.4</ele>
        <time>2023-08-21T09:11:10Z</time>
      </trkpt>
      <trkpt lat="45.69586" lon="6.66427">
        <ele>1700.6</ele>
        <time>2023-08-21T09:11:11Z</time>
      </trkpt>
      <trkpt lat="45.69584" lon="6.66429">
        <ele>1700.6</ele>
        <time>2023-08-21T09:11:12Z</time>
      </trkpt>
      <trkpt lat="45.69583" lon="6.66431">
        <ele>1700.6</ele>
        <time>2023-08-21T09:11:13Z</time>
      </trkpt>
      <trkpt lat="45.69581" lon="6.66432">
        <ele>1701.2</ele>
        <time>2023-08-21T09:11:14Z</time>
      </trkpt>
      <trkpt lat="45.6958" lon="6.66434">
        <ele>1701.4</ele>
        <time>2023-08-21T09:11:15Z</time>
      </trkpt>
      <trkpt lat="45.69579" lon="6.66436">
        <ele>1701.4</ele>
        <time>2023-08-21T09:11:16Z</time>
      </trkpt>
      <trkpt lat="45.69579" lon="6.66438">
        <ele>1701.4</ele>
        <time>2023-08-21T09:11:17Z</time>
      </trkpt>
      <trkpt lat="45.69578" lon="6.6644">
        <ele>1701.4</ele>
        <time>2023-08-21T09:11:18Z</time>
      </trkpt>
      <trkpt lat="45.69578" lon="6.66443">
        <ele>1702</ele>
        <time>2023-08-21T09:11:19Z</time>
      </trkpt>
      <trkpt lat="45.69577" lon="6.66445">
        <ele>1702</ele>
        <time>2023-08-21T09:11:20Z</time>
      </trkpt>
      <trkpt lat="45.69576" lon="6.66447">
        <ele>1702.2</ele>
        <time>2023-08-21T09:11:21Z</time>
      </trkpt>
      <trkpt lat="45.69575" lon="6.66449">
        <ele>1702.2</ele>
        <time>2023-08-21T09:11:22Z</time>
      </trkpt>
      <trkpt lat="45.69574" lon="6.66451">
        <ele>1702.2</ele>
        <time>2023-08-21T09:11:23Z</time>
      </trkpt>
      <trkpt lat="45.69573" lon="6.66453">
        <ele>1702.6</ele>
        <time>2023-08-21T09:11:24Z</time>
      </trkpt>
      <trkpt lat="45.69572" lon="6.66455">
        <ele>1702.6</ele>
        <time>2023-08-21T09:11:25Z</time>
      </trkpt>
      <trkpt lat="45.69572" lon="6.66458">
        <ele>1702.8</ele>
        <time>2023-08-21T09:11:26Z</time>
      </trkpt>
      <trkpt lat="45.69571" lon="6.66461">
        <ele>1702.8</ele>
        <time>2023-08-21T09:11:27Z</time>
      </trkpt>
      <trkpt lat="45.69569" lon="6.66464">
        <ele>1703.4</ele>
        <time>2023-08-21T09:11:28Z</time>
      </trkpt>
      <trkpt lat="45.69568" lon="6.66466">
        <ele>1703.4</ele>
        <time>2023-08-21T09:11:29Z</time>
      </trkpt>
      <trkpt lat="45.69567" lon="6.66469">
        <ele>1703.4</ele>
        <time>2023-08-21T09:11:30Z</time>
      </trkpt>
      <trkpt lat="45.69567" lon="6.66472">
        <ele>1703.4</ele>
        <time>2023-08-21T09:11:31Z</time>
      </trkpt>
      <trkpt lat="45.69566" lon="6.66475">
        <ele>1703.4</ele>
        <time>2023-08-21T09:11:32Z</time>
      </trkpt>
      <trkpt lat="45.69565" lon="6.66478">
        <ele>1703.8</ele>
        <time>2023-08-21T09:11:33Z</time>
      </trkpt>
      <trkpt lat="45.69564" lon="6.66481">
        <ele>1704</ele>
        <time>2023-08-21T09:11:34Z</time>
      </trkpt>
      <trkpt lat="45.69564" lon="6.66484">
        <ele>1704</ele>
        <time>2023-08-21T09:11:35Z</time>
      </trkpt>
      <trkpt lat="45.69562" lon="6.66486">
        <ele>1704</ele>
        <time>2023-08-21T09:11:36Z</time>
      </trkpt>
      <trkpt lat="45.69562" lon="6.66489">
        <ele>1704</ele>
        <time>2023-08-21T09:11:37Z</time>
      </trkpt>
      <trkpt lat="45.69561" lon="6.66492">
        <ele>1704.8</ele>
        <time>2023-08-21T09:11:38Z</time>
      </trkpt>
      <trkpt lat="45.69559" lon="6.66494">
        <ele>1704.8</ele>
        <time>2023-08-21T09:11:39Z</time>
      </trkpt>
      <trkpt lat="45.69557" lon="6.66496">
        <ele>1704.8</ele>
        <time>2023-08-21T09:11:40Z</time>
      </trkpt>
      <trkpt lat="45.69556" lon="6.66498">
        <ele>1704.8</ele>
        <time>2023-08-21T09:11:41Z</time>
      </trkpt>
      <trkpt lat="45.69554" lon="6.665">
        <ele>1705.4</ele>
        <time>2023-08-21T09:11:42Z</time>
      </trkpt>
      <trkpt lat="45.69553" lon="6.66502">
        <ele>1705.6</ele>
        <time>2023-08-21T09:11:43Z</time>
      </trkpt>
      <trkpt lat="45.69552" lon="6.66503">
        <ele>1705.6</ele>
        <time>2023-08-21T09:11:44Z</time>
      </trkpt>
      <trkpt lat="45.69551" lon="6.66505">
        <ele>1705.6</ele>
        <time>2023-08-21T09:11:45Z</time>
      </trkpt>
      <trkpt lat="45.69551" lon="6.66507">
        <ele>1706</ele>
        <time>2023-08-21T09:11:46Z</time>
      </trkpt>
      <trkpt lat="45.69549" lon="6.66508">
        <ele>1706.2</ele>
        <time>2023-08-21T09:11:47Z</time>
      </trkpt>
      <trkpt lat="45.69548" lon="6.66509">
        <ele>1706.2</ele>
        <time>2023-08-21T09:11:48Z</time>
      </trkpt>
      <trkpt lat="45.69547" lon="6.66511">
        <ele>1706.2</ele>
        <time>2023-08-21T09:11:49Z</time>
      </trkpt>
      <trkpt lat="45.69546" lon="6.66512">
        <ele>1706.2</ele>
        <time>2023-08-21T09:11:50Z</time>
      </trkpt>
      <trkpt lat="45.69544" lon="6.66513">
        <ele>1706.8</ele>
        <time>2023-08-21T09:11:51Z</time>
      </trkpt>
      <trkpt lat="45.69542" lon="6.66514">
        <ele>1706.8</ele>
        <time>2023-08-21T09:11:52Z</time>
      </trkpt>
      <trkpt lat="45.69541" lon="6.66515">
        <ele>1706.8</ele>
        <time>2023-08-21T09:11:53Z</time>
      </trkpt>
      <trkpt lat="45.69539" lon="6.66515">
        <ele>1706.8</ele>
        <time>2023-08-21T09:11:54Z</time>
      </trkpt>
      <trkpt lat="45.69536" lon="6.66515">
        <ele>1707.4</ele>
        <time>2023-08-21T09:11:55Z</time>
      </trkpt>
      <trkpt lat="45.69534" lon="6.66516">
        <ele>1707.4</ele>
        <time>2023-08-21T09:11:56Z</time>
      </trkpt>
      <trkpt lat="45.69532" lon="6.66516">
        <ele>1707.6</ele>
        <time>2023-08-21T09:11:57Z</time>
      </trkpt>
      <trkpt lat="45.6953" lon="6.66516">
        <ele>1707.6</ele>
        <time>2023-08-21T09:11:58Z</time>
      </trkpt>
      <trkpt lat="45.69528" lon="6.66516">
        <ele>1708.4</ele>
        <time>2023-08-21T09:11:59Z</time>
      </trkpt>
      <trkpt lat="45.69526" lon="6.66515">
        <ele>1708.4</ele>
        <time>2023-08-21T09:12:00Z</time>
      </trkpt>
      <trkpt lat="45.69524" lon="6.66514">
        <ele>1708.4</ele>
        <time>2023-08-21T09:12:01Z</time>
      </trkpt>
      <trkpt lat="45.69521" lon="6.66513">
        <ele>1708.4</ele>
        <time>2023-08-21T09:12:02Z</time>
      </trkpt>
      <trkpt lat="45.69519" lon="6.66512">
        <ele>1708.4</ele>
        <time>2023-08-21T09:12:03Z</time>
      </trkpt>
      <trkpt lat="45.69516" lon="6.66511">
        <ele>1708.8</ele>
        <time>2023-08-21T09:12:04Z</time>
      </trkpt>
      <trkpt lat="45.69515" lon="6.6651">
        <ele>1708.8</ele>
        <time>2023-08-21T09:12:05Z</time>
      </trkpt>
      <trkpt lat="45.69513" lon="6.66509">
        <ele>1709</ele>
        <time>2023-08-21T09:12:06Z</time>
      </trkpt>
      <trkpt lat="45.69511" lon="6.66507">
        <ele>1709</ele>
        <time>2023-08-21T09:12:07Z</time>
      </trkpt>
      <trkpt lat="45.69509" lon="6.66507">
        <ele>1709</ele>
        <time>2023-08-21T09:12:08Z</time>
      </trkpt>
      <trkpt lat="45.69507" lon="6.66507">
        <ele>1709.8</ele>
        <time>2023-08-21T09:12:09Z</time>
      </trkpt>
      <trkpt lat="45.69505" lon="6.66506">
        <ele>1710</ele>
        <time>2023-08-21T09:12:10Z</time>
      </trkpt>
      <trkpt lat="45.69504" lon="6.66505">
        <ele>1710</ele>
        <time>2023-08-21T09:12:11Z</time>
      </trkpt>
      <trkpt lat="45.69502" lon="6.66504">
        <ele>1710</ele>
        <time>2023-08-21T09:12:12Z</time>
      </trkpt>
      <trkpt lat="45.69499" lon="6.66504">
        <ele>1710.6</ele>
        <time>2023-08-21T09:12:13Z</time>
      </trkpt>
      <trkpt lat="45.69498" lon="6.66503">
        <ele>1710.6</ele>
        <time>2023-08-21T09:12:14Z</time>
      </trkpt>
      <trkpt lat="45.69496" lon="6.66502">
        <ele>1711</ele>
        <time>2023-08-21T09:12:15Z</time>
      </trkpt>
      <trkpt lat="45.69494" lon="6.66502">
        <ele>1711</ele>
        <time>2023-08-21T09:12:16Z</time>
      </trkpt>
      <trkpt lat="45.69492" lon="6.66501">
        <ele>1711</ele>
        <time>2023-08-21T09:12:17Z</time>
      </trkpt>
      <trkpt lat="45.6949" lon="6.66501">
        <ele>1711</ele>
        <time>2023-08-21T09:12:18Z</time>
      </trkpt>
      <trkpt lat="45.69489" lon="6.66501">
        <ele>1711.6</ele>
        <time>2023-08-21T09:12:19Z</time>
      </trkpt>
      <trkpt lat="45.69487" lon="6.66502">
        <ele>1711.6</ele>
        <time>2023-08-21T09:12:20Z</time>
      </trkpt>
      <trkpt lat="45.69485" lon="6.66501">
        <ele>1711.6</ele>
        <time>2023-08-21T09:12:21Z</time>
      </trkpt>
      <trkpt lat="45.69483" lon="6.66501">
        <ele>1712.2</ele>
        <time>2023-08-21T09:12:22Z</time>
      </trkpt>
      <trkpt lat="45.69481" lon="6.66501">
        <ele>1712.2</ele>
        <time>2023-08-21T09:12:23Z</time>
      </trkpt>
      <trkpt lat="45.6948" lon="6.66499">
        <ele>1712.2</ele>
        <time>2023-08-21T09:12:24Z</time>
      </trkpt>
      <trkpt lat="45.69479" lon="6.66499">
        <ele>1712.2</ele>
        <time>2023-08-21T09:12:25Z</time>
      </trkpt>
      <trkpt lat="45.69477" lon="6.66499">
        <ele>1712.2</ele>
        <time>2023-08-21T09:12:26Z</time>
      </trkpt>
      <trkpt lat="45.69475" lon="6.66499">
        <ele>1712.8</ele>
        <time>2023-08-21T09:12:27Z</time>
      </trkpt>
      <trkpt lat="45.69473" lon="6.66499">
        <ele>1713</ele>
        <time>2023-08-21T09:12:28Z</time>
      </trkpt>
      <trkpt lat="45.69471" lon="6.66499">
        <ele>1713</ele>
        <time>2023-08-21T09:12:29Z</time>
      </trkpt>
      <trkpt lat="45.6947" lon="6.665">
        <ele>1713</ele>
        <time>2023-08-21T09:12:30Z</time>
      </trkpt>
      <trkpt lat="45.69468" lon="6.665">
        <ele>1713.6</ele>
        <time>2023-08-21T09:12:31Z</time>
      </trkpt>
      <trkpt lat="45.69466" lon="6.665">
        <ele>1713.6</ele>
        <time>2023-08-21T09:12:32Z</time>
      </trkpt>
      <trkpt lat="45.69465" lon="6.665">
        <ele>1713.8</ele>
        <time>2023-08-21T09:12:33Z</time>
      </trkpt>
      <trkpt lat="45.69463" lon="6.665">
        <ele>1713.8</ele>
        <time>2023-08-21T09:12:34Z</time>
      </trkpt>
      <trkpt lat="45.69461" lon="6.66501">
        <ele>1714.2</ele>
        <time>2023-08-21T09:12:35Z</time>
      </trkpt>
      <trkpt lat="45.6946" lon="6.66501">
        <ele>1714.2</ele>
        <time>2023-08-21T09:12:36Z</time>
      </trkpt>
      <trkpt lat="45.69458" lon="6.66501">
        <ele>1714.4</ele>
        <time>2023-08-21T09:12:37Z</time>
      </trkpt>
      <trkpt lat="45.69456" lon="6.665">
        <ele>1714.4</ele>
        <time>2023-08-21T09:12:38Z</time>
      </trkpt>
      <trkpt lat="45.69454" lon="6.665">
        <ele>1714.4</ele>
        <time>2023-08-21T09:12:39Z</time>
      </trkpt>
      <trkpt lat="45.69452" lon="6.665">
        <ele>1714.4</ele>
        <time>2023-08-21T09:12:40Z</time>
      </trkpt>
      <trkpt lat="45.69451" lon="6.66501">
        <ele>1715.2</ele>
        <time>2023-08-21T09:12:41Z</time>
      </trkpt>
      <trkpt lat="45.69449" lon="6.66501">
        <ele>1715.2</ele>
        <time>2023-08-21T09:12:42Z</time>
      </trkpt>
      <trkpt lat="45.69447" lon="6.66502">
        <ele>1715.2</ele>
        <time>2023-08-21T09:12:43Z</time>
      </trkpt>
      <trkpt lat="45.69446" lon="6.66502">
        <ele>1715.2</ele>
        <time>2023-08-21T09:12:44Z</time>
      </trkpt>
      <trkpt lat="45.69444" lon="6.66503">
        <ele>1715.2</ele>
        <time>2023-08-21T09:12:45Z</time>
      </trkpt>
      <trkpt lat="45.69442" lon="6.66504">
        <ele>1716</ele>
        <time>2023-08-21T09:12:46Z</time>
      </trkpt>
      <trkpt lat="45.6944" lon="6.66504">
        <ele>1716</ele>
        <time>2023-08-21T09:12:47Z</time>
      </trkpt>
      <trkpt lat="45.69439" lon="6.66505">
        <ele>1716</ele>
        <time>2023-08-21T09:12:48Z</time>
      </trkpt>
      <trkpt lat="45.69437" lon="6.66506">
        <ele>1716</ele>
        <time>2023-08-21T09:12:49Z</time>
      </trkpt>
      <trkpt lat="45.69435" lon="6.66506">
        <ele>1716.6</ele>
        <time>2023-08-21T09:12:50Z</time>
      </trkpt>
      <trkpt lat="45.69434" lon="6.66507">
        <ele>1716.6</ele>
        <time>2023-08-21T09:12:51Z</time>
      </trkpt>
      <trkpt lat="45.69432" lon="6.66508">
        <ele>1716.6</ele>
        <time>2023-08-21T09:12:52Z</time>
      </trkpt>
      <trkpt lat="45.69431" lon="6.66509">
        <ele>1716.6</ele>
        <time>2023-08-21T09:12:53Z</time>
      </trkpt>
      <trkpt lat="45.69429" lon="6.6651">
        <ele>1716.6</ele>
        <time>2023-08-21T09:12:54Z</time>
      </trkpt>
      <trkpt lat="45.69427" lon="6.66511">
        <ele>1717.2</ele>
        <time>2023-08-21T09:12:55Z</time>
      </trkpt>
      <trkpt lat="45.69426" lon="6.66512">
        <ele>1717.2</ele>
        <time>2023-08-21T09:12:56Z</time>
      </trkpt>
      <trkpt lat="45.69424" lon="6.66513">
        <ele>1717.2</ele>
        <time>2023-08-21T09:12:57Z</time>
      </trkpt>
      <trkpt lat="45.69422" lon="6.66514">
        <ele>1717.2</ele>
        <time>2023-08-21T09:12:58Z</time>
      </trkpt>
      <trkpt lat="45.69421" lon="6.66515">
        <ele>1718</ele>
        <time>2023-08-21T09:12:59Z</time>
      </trkpt>
      <trkpt lat="45.69419" lon="6.66516">
        <ele>1718</ele>
        <time>2023-08-21T09:13:00Z</time>
      </trkpt>
      <trkpt lat="45.69417" lon="6.66518">
        <ele>1718</ele>
        <time>2023-08-21T09:13:01Z</time>
      </trkpt>
      <trkpt lat="45.69416" lon="6.66519">
        <ele>1718</ele>
        <time>2023-08-21T09:13:02Z</time>
      </trkpt>
      <trkpt lat="45.69414" lon="6.6652">
        <ele>1718.4</ele>
        <time>2023-08-21T09:13:03Z</time>
      </trkpt>
      <trkpt lat="45.69413" lon="6.66521">
        <ele>1718.6</ele>
        <time>2023-08-21T09:13:04Z</time>
      </trkpt>
      <trkpt lat="45.69411" lon="6.66522">
        <ele>1718.6</ele>
        <time>2023-08-21T09:13:05Z</time>
      </trkpt>
      <trkpt lat="45.6941" lon="6.66523">
        <ele>1718.6</ele>
        <time>2023-08-21T09:13:06Z</time>
      </trkpt>
      <trkpt lat="45.69409" lon="6.66525">
        <ele>1719</ele>
        <time>2023-08-21T09:13:07Z</time>
      </trkpt>
      <trkpt lat="45.69407" lon="6.66526">
        <ele>1719.2</ele>
        <time>2023-08-21T09:13:08Z</time>
      </trkpt>
      <trkpt lat="45.69406" lon="6.66527">
        <ele>1719.2</ele>
        <time>2023-08-21T09:13:09Z</time>
      </trkpt>
      <trkpt lat="45.69404" lon="6.66528">
        <ele>1719.2</ele>
        <time>2023-08-21T09:13:10Z</time>
      </trkpt>
      <trkpt lat="45.69403" lon="6.66529">
        <ele>1719.6</ele>
        <time>2023-08-21T09:13:11Z</time>
      </trkpt>
      <trkpt lat="45.69401" lon="6.6653">
        <ele>1719.6</ele>
        <time>2023-08-21T09:13:12Z</time>
      </trkpt>
      <trkpt lat="45.694" lon="6.66531">
        <ele>1719.8</ele>
        <time>2023-08-21T09:13:13Z</time>
      </trkpt>
      <trkpt lat="45.69399" lon="6.66532">
        <ele>1719.8</ele>
        <time>2023-08-21T09:13:14Z</time>
      </trkpt>
      <trkpt lat="45.69397" lon="6.66533">
        <ele>1719.8</ele>
        <time>2023-08-21T09:13:15Z</time>
      </trkpt>
      <trkpt lat="45.69396" lon="6.66534">
        <ele>1720.2</ele>
        <time>2023-08-21T09:13:16Z</time>
      </trkpt>
      <trkpt lat="45.69394" lon="6.66535">
        <ele>1720.4</ele>
        <time>2023-08-21T09:13:17Z</time>
      </trkpt>
      <trkpt lat="45.69393" lon="6.66536">
        <ele>1720.4</ele>
        <time>2023-08-21T09:13:18Z</time>
      </trkpt>
      <trkpt lat="45.69391" lon="6.66538">
        <ele>1720.4</ele>
        <time>2023-08-21T09:13:19Z</time>
      </trkpt>
      <trkpt lat="45.6939" lon="6.66539">
        <ele>1720.8</ele>
        <time>2023-08-21T09:13:20Z</time>
      </trkpt>
      <trkpt lat="45.69388" lon="6.66541">
        <ele>1720.8</ele>
        <time>2023-08-21T09:13:21Z</time>
      </trkpt>
      <trkpt lat="45.69387" lon="6.66542">
        <ele>1721</ele>
        <time>2023-08-21T09:13:22Z</time>
      </trkpt>
      <trkpt lat="45.69386" lon="6.66543">
        <ele>1721</ele>
        <time>2023-08-21T09:13:23Z</time>
      </trkpt>
      <trkpt lat="45.69384" lon="6.66545">
        <ele>1721.4</ele>
        <time>2023-08-21T09:13:24Z</time>
      </trkpt>
      <trkpt lat="45.69383" lon="6.66547">
        <ele>1721.4</ele>
        <time>2023-08-21T09:13:25Z</time>
      </trkpt>
      <trkpt lat="45.69382" lon="6.66548">
        <ele>1721.6</ele>
        <time>2023-08-21T09:13:26Z</time>
      </trkpt>
      <trkpt lat="45.69381" lon="6.6655">
        <ele>1721.6</ele>
        <time>2023-08-21T09:13:27Z</time>
      </trkpt>
      <trkpt lat="45.6938" lon="6.66552">
        <ele>1721.6</ele>
        <time>2023-08-21T09:13:28Z</time>
      </trkpt>
      <trkpt lat="45.69378" lon="6.66554">
        <ele>1721.6</ele>
        <time>2023-08-21T09:13:29Z</time>
      </trkpt>
      <trkpt lat="45.69378" lon="6.66557">
        <ele>1722.2</ele>
        <time>2023-08-21T09:13:30Z</time>
      </trkpt>
      <trkpt lat="45.69377" lon="6.66559">
        <ele>1722.4</ele>
        <time>2023-08-21T09:13:31Z</time>
      </trkpt>
      <trkpt lat="45.69376" lon="6.66561">
        <ele>1722.4</ele>
        <time>2023-08-21T09:13:32Z</time>
      </trkpt>
      <trkpt lat="45.69375" lon="6.66564">
        <ele>1722.4</ele>
        <time>2023-08-21T09:13:33Z</time>
      </trkpt>
      <trkpt lat="45.69374" lon="6.66566">
        <ele>1722.4</ele>
        <time>2023-08-21T09:13:34Z</time>
      </trkpt>
      <trkpt lat="45.69374" lon="6.66569">
        <ele>1723</ele>
        <time>2023-08-21T09:13:35Z</time>
      </trkpt>
      <trkpt lat="45.69374" lon="6.66572">
        <ele>1723</ele>
        <time>2023-08-21T09:13:36Z</time>
      </trkpt>
      <trkpt lat="45.69373" lon="6.66574">
        <ele>1723</ele>
        <time>2023-08-21T09:13:37Z</time>
      </trkpt>
      <trkpt lat="45.69373" lon="6.66577">
        <ele>1723</ele>
        <time>2023-08-21T09:13:38Z</time>
      </trkpt>
      <trkpt lat="45.69373" lon="6.6658">
        <ele>1723.6</ele>
        <time>2023-08-21T09:13:39Z</time>
      </trkpt>
      <trkpt lat="45.69372" lon="6.66583">
        <ele>1723.8</ele>
        <time>2023-08-21T09:13:40Z</time>
      </trkpt>
      <trkpt lat="45.69371" lon="6.66585">
        <ele>1723.8</ele>
        <time>2023-08-21T09:13:41Z</time>
      </trkpt>
      <trkpt lat="45.6937" lon="6.66588">
        <ele>1723.8</ele>
        <time>2023-08-21T09:13:42Z</time>
      </trkpt>
      <trkpt lat="45.6937" lon="6.66591">
        <ele>1723.8</ele>
        <time>2023-08-21T09:13:43Z</time>
      </trkpt>
      <trkpt lat="45.69369" lon="6.66594">
        <ele>1724.2</ele>
        <time>2023-08-21T09:13:44Z</time>
      </trkpt>
      <trkpt lat="45.69369" lon="6.66596">
        <ele>1724.2</ele>
        <time>2023-08-21T09:13:45Z</time>
      </trkpt>
      <trkpt lat="45.69368" lon="6.66598">
        <ele>1724.2</ele>
        <time>2023-08-21T09:13:46Z</time>
      </trkpt>
      <trkpt lat="45.69367" lon="6.66601">
        <ele>1724.2</ele>
        <time>2023-08-21T09:13:47Z</time>
      </trkpt>
      <trkpt lat="45.69366" lon="6.66603">
        <ele>1724.8</ele>
        <time>2023-08-21T09:13:48Z</time>
      </trkpt>
      <trkpt lat="45.69365" lon="6.66605">
        <ele>1725</ele>
        <time>2023-08-21T09:13:49Z</time>
      </trkpt>
      <trkpt lat="45.69364" lon="6.66608">
        <ele>1725</ele>
        <time>2023-08-21T09:13:50Z</time>
      </trkpt>
      <trkpt lat="45.69363" lon="6.6661">
        <ele>1725</ele>
        <time>2023-08-21T09:13:51Z</time>
      </trkpt>
      <trkpt lat="45.69362" lon="6.66612">
        <ele>1725</ele>
        <time>2023-08-21T09:13:52Z</time>
      </trkpt>
      <trkpt lat="45.69361" lon="6.66614">
        <ele>1725.4</ele>
        <time>2023-08-21T09:13:53Z</time>
      </trkpt>
      <trkpt lat="45.6936" lon="6.66617">
        <ele>1725.4</ele>
        <time>2023-08-21T09:13:54Z</time>
      </trkpt>
      <trkpt lat="45.6936" lon="6.66619">
        <ele>1725.4</ele>
        <time>2023-08-21T09:13:55Z</time>
      </trkpt>
      <trkpt lat="45.69359" lon="6.66621">
        <ele>1725.4</ele>
        <time>2023-08-21T09:13:56Z</time>
      </trkpt>
      <trkpt lat="45.69358" lon="6.66624">
        <ele>1726</ele>
        <time>2023-08-21T09:13:57Z</time>
      </trkpt>
      <trkpt lat="45.69357" lon="6.66626">
        <ele>1726.4</ele>
        <time>2023-08-21T09:13:58Z</time>
      </trkpt>
      <trkpt lat="45.69356" lon="6.66628">
        <ele>1726.4</ele>
        <time>2023-08-21T09:13:59Z</time>
      </trkpt>
      <trkpt lat="45.69355" lon="6.66631">
        <ele>1726.4</ele>
        <time>2023-08-21T09:14:00Z</time>
      </trkpt>
      <trkpt lat="45.69354" lon="6.66633">
        <ele>1726.4</ele>
        <time>2023-08-21T09:14:01Z</time>
      </trkpt>
      <trkpt lat="45.69354" lon="6.66636">
        <ele>1726.6</ele>
        <time>2023-08-21T09:14:02Z</time>
      </trkpt>
      <trkpt lat="45.69353" lon="6.66639">
        <ele>1726.6</ele>
        <time>2023-08-21T09:14:03Z</time>
      </trkpt>
      <trkpt lat="45.69352" lon="6.66642">
        <ele>1726.6</ele>
        <time>2023-08-21T09:14:04Z</time>
      </trkpt>
      <trkpt lat="45.69352" lon="6.66645">
        <ele>1726.6</ele>
        <time>2023-08-21T09:14:05Z</time>
      </trkpt>
      <trkpt lat="45.69352" lon="6.66648">
        <ele>1727.2</ele>
        <time>2023-08-21T09:14:06Z</time>
      </trkpt>
      <trkpt lat="45.69351" lon="6.66651">
        <ele>1727.2</ele>
        <time>2023-08-21T09:14:07Z</time>
      </trkpt>
      <trkpt lat="45.69351" lon="6.66654">
        <ele>1727.2</ele>
        <time>2023-08-21T09:14:08Z</time>
      </trkpt>
      <trkpt lat="45.69351" lon="6.66657">
        <ele>1727.4</ele>
        <time>2023-08-21T09:14:09Z</time>
      </trkpt>
      <trkpt lat="45.69351" lon="6.66661">
        <ele>1727.4</ele>
        <time>2023-08-21T09:14:10Z</time>
      </trkpt>
      <trkpt lat="45.69351" lon="6.66664">
        <ele>1727.4</ele>
        <time>2023-08-21T09:14:11Z</time>
      </trkpt>
      <trkpt lat="45.69351" lon="6.66667">
        <ele>1727.4</ele>
        <time>2023-08-21T09:14:12Z</time>
      </trkpt>
      <trkpt lat="45.6935" lon="6.6667">
        <ele>1728</ele>
        <time>2023-08-21T09:14:13Z</time>
      </trkpt>
      <trkpt lat="45.6935" lon="6.66673">
        <ele>1728</ele>
        <time>2023-08-21T09:14:14Z</time>
      </trkpt>
      <trkpt lat="45.6935" lon="6.66677">
        <ele>1728</ele>
        <time>2023-08-21T09:14:15Z</time>
      </trkpt>
      <trkpt lat="45.6935" lon="6.6668">
        <ele>1728.4</ele>
        <time>2023-08-21T09:14:16Z</time>
      </trkpt>
      <trkpt lat="45.6935" lon="6.66683">
        <ele>1728.4</ele>
        <time>2023-08-21T09:14:17Z</time>
      </trkpt>
      <trkpt lat="45.6935" lon="6.66687">
        <ele>1728.4</ele>
        <time>2023-08-21T09:14:18Z</time>
      </trkpt>
      <trkpt lat="45.6935" lon="6.6669">
        <ele>1728.4</ele>
        <time>2023-08-21T09:14:19Z</time>
      </trkpt>
      <trkpt lat="45.6935" lon="6.66693">
        <ele>1729</ele>
        <time>2023-08-21T09:14:20Z</time>
      </trkpt>
      <trkpt lat="45.6935" lon="6.66696">
        <ele>1729</ele>
        <time>2023-08-21T09:14:21Z</time>
      </trkpt>
      <trkpt lat="45.6935" lon="6.667">
        <ele>1729</ele>
        <time>2023-08-21T09:14:22Z</time>
      </trkpt>
      <trkpt lat="45.6935" lon="6.66703">
        <ele>1729</ele>
        <time>2023-08-21T09:14:23Z</time>
      </trkpt>
      <trkpt lat="45.6935" lon="6.66706">
        <ele>1729</ele>
        <time>2023-08-21T09:14:24Z</time>
      </trkpt>
      <trkpt lat="45.69351" lon="6.66709">
        <ele>1729.6</ele>
        <time>2023-08-21T09:14:25Z</time>
      </trkpt>
      <trkpt lat="45.69351" lon="6.66712">
        <ele>1729.8</ele>
        <time>2023-08-21T09:14:26Z</time>
      </trkpt>
      <trkpt lat="45.6935" lon="6.66715">
        <ele>1729.8</ele>
        <time>2023-08-21T09:14:27Z</time>
      </trkpt>
      <trkpt lat="45.69351" lon="6.66718">
        <ele>1729.8</ele>
        <time>2023-08-21T09:14:28Z</time>
      </trkpt>
      <trkpt lat="45.69351" lon="6.66721">
        <ele>1729.8</ele>
        <time>2023-08-21T09:14:29Z</time>
      </trkpt>
      <trkpt lat="45.69351" lon="6.66724">
        <ele>1730.6</ele>
        <time>2023-08-21T09:14:30Z</time>
      </trkpt>
      <trkpt lat="45.69351" lon="6.66727">
        <ele>1730.6</ele>
        <time>2023-08-21T09:14:31Z</time>
      </trkpt>
      <trkpt lat="45.69351" lon="6.6673">
        <ele>1730.6</ele>
        <time>2023-08-21T09:14:32Z</time>
      </trkpt>
      <trkpt lat="45.69351" lon="6.66733">
        <ele>1731</ele>
        <time>2023-08-21T09:14:33Z</time>
      </trkpt>
      <trkpt lat="45.6935" lon="6.66736">
        <ele>1731.2</ele>
        <time>2023-08-21T09:14:34Z</time>
      </trkpt>
      <trkpt lat="45.6935" lon="6.66739">
        <ele>1731.2</ele>
        <time>2023-08-21T09:14:35Z</time>
      </trkpt>
      <trkpt lat="45.6935" lon="6.66742">
        <ele>1731.2</ele>
        <time>2023-08-21T09:14:36Z</time>
      </trkpt>
      <trkpt lat="45.6935" lon="6.66745">
        <ele>1731.2</ele>
        <time>2023-08-21T09:14:37Z</time>
      </trkpt>
      <trkpt lat="45.6935" lon="6.66748">
        <ele>1731.2</ele>
        <time>2023-08-21T09:14:38Z</time>
      </trkpt>
      <trkpt lat="45.69349" lon="6.66752">
        <ele>1731.8</ele>
        <time>2023-08-21T09:14:39Z</time>
      </trkpt>
      <trkpt lat="45.69349" lon="6.66755">
        <ele>1731.8</ele>
        <time>2023-08-21T09:14:40Z</time>
      </trkpt>
      <trkpt lat="45.69349" lon="6.66758">
        <ele>1731.8</ele>
        <time>2023-08-21T09:14:41Z</time>
      </trkpt>
      <trkpt lat="45.69349" lon="6.66761">
        <ele>1732.4</ele>
        <time>2023-08-21T09:14:42Z</time>
      </trkpt>
      <trkpt lat="45.69349" lon="6.66764">
        <ele>1732.4</ele>
        <time>2023-08-21T09:14:43Z</time>
      </trkpt>
      <trkpt lat="45.69349" lon="6.66767">
        <ele>1732.4</ele>
        <time>2023-08-21T09:14:44Z</time>
      </trkpt>
      <trkpt lat="45.69348" lon="6.6677">
        <ele>1732.4</ele>
        <time>2023-08-21T09:14:45Z</time>
      </trkpt>
      <trkpt lat="45.69348" lon="6.66773">
        <ele>1732.4</ele>
        <time>2023-08-21T09:14:46Z</time>
      </trkpt>
      <trkpt lat="45.69347" lon="6.66776">
        <ele>1733</ele>
        <time>2023-08-21T09:14:47Z</time>
      </trkpt>
      <trkpt lat="45.69347" lon="6.66779">
        <ele>1733</ele>
        <time>2023-08-21T09:14:48Z</time>
      </trkpt>
      <trkpt lat="45.69346" lon="6.66782">
        <ele>1733.2</ele>
        <time>2023-08-21T09:14:49Z</time>
      </trkpt>
      <trkpt lat="45.69346" lon="6.66785">
        <ele>1733.2</ele>
        <time>2023-08-21T09:14:50Z</time>
      </trkpt>
      <trkpt lat="45.69345" lon="6.66788">
        <ele>1733.6</ele>
        <time>2023-08-21T09:14:51Z</time>
      </trkpt>
      <trkpt lat="45.69344" lon="6.66791">
        <ele>1733.6</ele>
        <time>2023-08-21T09:14:52Z</time>
      </trkpt>
      <trkpt lat="45.69343" lon="6.66794">
        <ele>1733.6</ele>
        <time>2023-08-21T09:14:53Z</time>
      </trkpt>
      <trkpt lat="45.69343" lon="6.66797">
        <ele>1733.8</ele>
        <time>2023-08-21T09:14:54Z</time>
      </trkpt>
      <trkpt lat="45.69342" lon="6.668">
        <ele>1733.8</ele>
        <time>2023-08-21T09:14:55Z</time>
      </trkpt>
      <trkpt lat="45.69341" lon="6.66803">
        <ele>1734.4</ele>
        <time>2023-08-21T09:14:56Z</time>
      </trkpt>
      <trkpt lat="45.69341" lon="6.66806">
        <ele>1734.4</ele>
        <time>2023-08-21T09:14:57Z</time>
      </trkpt>
      <trkpt lat="45.6934" lon="6.66809">
        <ele>1734.6</ele>
        <time>2023-08-21T09:14:58Z</time>
      </trkpt>
      <trkpt lat="45.69339" lon="6.66812">
        <ele>1734.6</ele>
        <time>2023-08-21T09:14:59Z</time>
      </trkpt>
      <trkpt lat="45.69338" lon="6.66814">
        <ele>1734.6</ele>
        <time>2023-08-21T09:15:00Z</time>
      </trkpt>
      <trkpt lat="45.69338" lon="6.66818">
        <ele>1735</ele>
        <time>2023-08-21T09:15:01Z</time>
      </trkpt>
      <trkpt lat="45.69337" lon="6.6682">
        <ele>1735.2</ele>
        <time>2023-08-21T09:15:02Z</time>
      </trkpt>
      <trkpt lat="45.69336" lon="6.66824">
        <ele>1735.2</ele>
        <time>2023-08-21T09:15:03Z</time>
      </trkpt>
      <trkpt lat="45.69336" lon="6.66827">
        <ele>1735.2</ele>
        <time>2023-08-21T09:15:04Z</time>
      </trkpt>
      <trkpt lat="45.69335" lon="6.6683">
        <ele>1735.6</ele>
        <time>2023-08-21T09:15:05Z</time>
      </trkpt>
      <trkpt lat="45.69334" lon="6.66833">
        <ele>1735.6</ele>
        <time>2023-08-21T09:15:06Z</time>
      </trkpt>
      <trkpt lat="45.69333" lon="6.66836">
        <ele>1735.6</ele>
        <time>2023-08-21T09:15:07Z</time>
      </trkpt>
      <trkpt lat="45.69332" lon="6.66839">
        <ele>1735.6</ele>
        <time>2023-08-21T09:15:08Z</time>
      </trkpt>
      <trkpt lat="45.69331" lon="6.66842">
        <ele>1735.6</ele>
        <time>2023-08-21T09:15:09Z</time>
      </trkpt>
      <trkpt lat="45.69331" lon="6.66845">
        <ele>1736.2</ele>
        <time>2023-08-21T09:15:10Z</time>
      </trkpt>
      <trkpt lat="45.6933" lon="6.66849">
        <ele>1736.2</ele>
        <time>2023-08-21T09:15:11Z</time>
      </trkpt>
      <trkpt lat="45.69329" lon="6.66852">
        <ele>1736.4</ele>
        <time>2023-08-21T09:15:12Z</time>
      </trkpt>
      <trkpt lat="45.69328" lon="6.66856">
        <ele>1736.4</ele>
        <time>2023-08-21T09:15:13Z</time>
      </trkpt>
      <trkpt lat="45.69328" lon="6.66859">
        <ele>1736.4</ele>
        <time>2023-08-21T09:15:14Z</time>
      </trkpt>
      <trkpt lat="45.69327" lon="6.66862">
        <ele>1736.8</ele>
        <time>2023-08-21T09:15:15Z</time>
      </trkpt>
      <trkpt lat="45.69326" lon="6.66866">
        <ele>1736.8</ele>
        <time>2023-08-21T09:15:16Z</time>
      </trkpt>
      <trkpt lat="45.69325" lon="6.66868">
        <ele>1736.8</ele>
        <time>2023-08-21T09:15:17Z</time>
      </trkpt>
      <trkpt lat="45.69325" lon="6.66872">
        <ele>1736.8</ele>
        <time>2023-08-21T09:15:18Z</time>
      </trkpt>
      <trkpt lat="45.69324" lon="6.66875">
        <ele>1737.2</ele>
        <time>2023-08-21T09:15:19Z</time>
      </trkpt>
      <trkpt lat="45.69323" lon="6.66878">
        <ele>1737.4</ele>
        <time>2023-08-21T09:15:20Z</time>
      </trkpt>
      <trkpt lat="45.69322" lon="6.66881">
        <ele>1737.4</ele>
        <time>2023-08-21T09:15:21Z</time>
      </trkpt>
      <trkpt lat="45.69321" lon="6.66884">
        <ele>1737.4</ele>
        <time>2023-08-21T09:15:22Z</time>
      </trkpt>
      <trkpt lat="45.6932" lon="6.66887">
        <ele>1737.6</ele>
        <time>2023-08-21T09:15:23Z</time>
      </trkpt>
      <trkpt lat="45.69319" lon="6.6689">
        <ele>1737.8</ele>
        <time>2023-08-21T09:15:24Z</time>
      </trkpt>
      <trkpt lat="45.69319" lon="6.66893">
        <ele>1737.8</ele>
        <time>2023-08-21T09:15:25Z</time>
      </trkpt>
      <trkpt lat="45.69318" lon="6.66897">
        <ele>1737.8</ele>
        <time>2023-08-21T09:15:26Z</time>
      </trkpt>
      <trkpt lat="45.69317" lon="6.669">
        <ele>1738.4</ele>
        <time>2023-08-21T09:15:27Z</time>
      </trkpt>
      <trkpt lat="45.69316" lon="6.66903">
        <ele>1738.2</ele>
        <time>2023-08-21T09:15:28Z</time>
      </trkpt>
      <trkpt lat="45.69316" lon="6.66906">
        <ele>1738.2</ele>
        <time>2023-08-21T09:15:29Z</time>
      </trkpt>
      <trkpt lat="45.69315" lon="6.6691">
        <ele>1738.2</ele>
        <time>2023-08-21T09:15:30Z</time>
      </trkpt>
      <trkpt lat="45.69314" lon="6.66913">
        <ele>1738.6</ele>
        <time>2023-08-21T09:15:31Z</time>
      </trkpt>
      <trkpt lat="45.69313" lon="6.66916">
        <ele>1738.6</ele>
        <time>2023-08-21T09:15:32Z</time>
      </trkpt>
      <trkpt lat="45.69312" lon="6.6692">
        <ele>1738.6</ele>
        <time>2023-08-21T09:15:33Z</time>
      </trkpt>
      <trkpt lat="45.69312" lon="6.66924">
        <ele>1738.6</ele>
        <time>2023-08-21T09:15:34Z</time>
      </trkpt>
      <trkpt lat="45.69311" lon="6.66928">
        <ele>1738.6</ele>
        <time>2023-08-21T09:15:35Z</time>
      </trkpt>
      <trkpt lat="45.69311" lon="6.66932">
        <ele>1738.6</ele>
        <time>2023-08-21T09:15:36Z</time>
      </trkpt>
      <trkpt lat="45.6931" lon="6.66937">
        <ele>1738.6</ele>
        <time>2023-08-21T09:15:37Z</time>
      </trkpt>
      <trkpt lat="45.69309" lon="6.66941">
        <ele>1738.8</ele>
        <time>2023-08-21T09:15:38Z</time>
      </trkpt>
      <trkpt lat="45.69309" lon="6.66945">
        <ele>1738.8</ele>
        <time>2023-08-21T09:15:39Z</time>
      </trkpt>
      <trkpt lat="45.69308" lon="6.66949">
        <ele>1738.8</ele>
        <time>2023-08-21T09:15:40Z</time>
      </trkpt>
      <trkpt lat="45.69307" lon="6.66953">
        <ele>1739</ele>
        <time>2023-08-21T09:15:41Z</time>
      </trkpt>
      <trkpt lat="45.69306" lon="6.66958">
        <ele>1739</ele>
        <time>2023-08-21T09:15:42Z</time>
      </trkpt>
      <trkpt lat="45.69305" lon="6.66962">
        <ele>1739.4</ele>
        <time>2023-08-21T09:15:43Z</time>
      </trkpt>
      <trkpt lat="45.69304" lon="6.66967">
        <ele>1739.4</ele>
        <time>2023-08-21T09:15:44Z</time>
      </trkpt>
      <trkpt lat="45.69303" lon="6.66971">
        <ele>1739.4</ele>
        <time>2023-08-21T09:15:45Z</time>
      </trkpt>
      <trkpt lat="45.69302" lon="6.66976">
        <ele>1739.4</ele>
        <time>2023-08-21T09:15:46Z</time>
      </trkpt>
      <trkpt lat="45.69301" lon="6.66981">
        <ele>1739.6</ele>
        <time>2023-08-21T09:15:47Z</time>
      </trkpt>
      <trkpt lat="45.693" lon="6.66985">
        <ele>1739.6</ele>
        <time>2023-08-21T09:15:48Z</time>
      </trkpt>
      <trkpt lat="45.69299" lon="6.6699">
        <ele>1739.6</ele>
        <time>2023-08-21T09:15:49Z</time>
      </trkpt>
      <trkpt lat="45.69298" lon="6.66995">
        <ele>1739.6</ele>
        <time>2023-08-21T09:15:50Z</time>
      </trkpt>
      <trkpt lat="45.69298" lon="6.67">
        <ele>1740</ele>
        <time>2023-08-21T09:15:51Z</time>
      </trkpt>
      <trkpt lat="45.69296" lon="6.67004">
        <ele>1740</ele>
        <time>2023-08-21T09:15:52Z</time>
      </trkpt>
      <trkpt lat="45.69295" lon="6.67009">
        <ele>1740</ele>
        <time>2023-08-21T09:15:53Z</time>
      </trkpt>
      <trkpt lat="45.69294" lon="6.67013">
        <ele>1740</ele>
        <time>2023-08-21T09:15:54Z</time>
      </trkpt>
      <trkpt lat="45.69293" lon="6.67018">
        <ele>1740</ele>
        <time>2023-08-21T09:15:55Z</time>
      </trkpt>
      <trkpt lat="45.69291" lon="6.67022">
        <ele>1740.2</ele>
        <time>2023-08-21T09:15:56Z</time>
      </trkpt>
      <trkpt lat="45.6929" lon="6.67025">
        <ele>1740.2</ele>
        <time>2023-08-21T09:15:57Z</time>
      </trkpt>
      <trkpt lat="45.69288" lon="6.67029">
        <ele>1740.2</ele>
        <time>2023-08-21T09:15:58Z</time>
      </trkpt>
      <trkpt lat="45.69286" lon="6.67032">
        <ele>1740.2</ele>
        <time>2023-08-21T09:15:59Z</time>
      </trkpt>
      <trkpt lat="45.69285" lon="6.67034">
        <ele>1741.4</ele>
        <time>2023-08-21T09:16:00Z</time>
      </trkpt>
      <trkpt lat="45.69283" lon="6.67037">
        <ele>1741.4</ele>
        <time>2023-08-21T09:16:01Z</time>
      </trkpt>
      <trkpt lat="45.69281" lon="6.6704">
        <ele>1741.4</ele>
        <time>2023-08-21T09:16:02Z</time>
      </trkpt>
      <trkpt lat="45.69279" lon="6.67044">
        <ele>1741.4</ele>
        <time>2023-08-21T09:16:03Z</time>
      </trkpt>
      <trkpt lat="45.69277" lon="6.67047">
        <ele>1742.2</ele>
        <time>2023-08-21T09:16:04Z</time>
      </trkpt>
      <trkpt lat="45.69275" lon="6.6705">
        <ele>1742.2</ele>
        <time>2023-08-21T09:16:05Z</time>
      </trkpt>
      <trkpt lat="45.69273" lon="6.67053">
        <ele>1742.2</ele>
        <time>2023-08-21T09:16:06Z</time>
      </trkpt>
      <trkpt lat="45.69271" lon="6.67056">
        <ele>1743</ele>
        <time>2023-08-21T09:16:07Z</time>
      </trkpt>
      <trkpt lat="45.6927" lon="6.67058">
        <ele>1743.2</ele>
        <time>2023-08-21T09:16:08Z</time>
      </trkpt>
      <trkpt lat="45.69269" lon="6.67061">
        <ele>1743.2</ele>
        <time>2023-08-21T09:16:09Z</time>
      </trkpt>
      <trkpt lat="45.69267" lon="6.67064">
        <ele>1743.2</ele>
        <time>2023-08-21T09:16:10Z</time>
      </trkpt>
      <trkpt lat="45.69265" lon="6.67066">
        <ele>1743.2</ele>
        <time>2023-08-21T09:16:11Z</time>
      </trkpt>
      <trkpt lat="45.69263" lon="6.67069">
        <ele>1743.8</ele>
        <time>2023-08-21T09:16:12Z</time>
      </trkpt>
      <trkpt lat="45.69261" lon="6.67072">
        <ele>1743.8</ele>
        <time>2023-08-21T09:16:13Z</time>
      </trkpt>
      <trkpt lat="45.6926" lon="6.67075">
        <ele>1743.8</ele>
        <time>2023-08-21T09:16:14Z</time>
      </trkpt>
      <trkpt lat="45.69259" lon="6.67078">
        <ele>1743.8</ele>
        <time>2023-08-21T09:16:15Z</time>
      </trkpt>
      <trkpt lat="45.69258" lon="6.67081">
        <ele>1744.4</ele>
        <time>2023-08-21T09:16:16Z</time>
      </trkpt>
      <trkpt lat="45.69257" lon="6.67084">
        <ele>1744.4</ele>
        <time>2023-08-21T09:16:17Z</time>
      </trkpt>
      <trkpt lat="45.69256" lon="6.67087">
        <ele>1744.4</ele>
        <time>2023-08-21T09:16:18Z</time>
      </trkpt>
      <trkpt lat="45.69255" lon="6.67091">
        <ele>1744.8</ele>
        <time>2023-08-21T09:16:19Z</time>
      </trkpt>
      <trkpt lat="45.69254" lon="6.67094">
        <ele>1744.8</ele>
        <time>2023-08-21T09:16:20Z</time>
      </trkpt>
      <trkpt lat="45.69254" lon="6.67098">
        <ele>1745.2</ele>
        <time>2023-08-21T09:16:21Z</time>
      </trkpt>
      <trkpt lat="45.69253" lon="6.67101">
        <ele>1745.2</ele>
        <time>2023-08-21T09:16:22Z</time>
      </trkpt>
      <trkpt lat="45.69253" lon="6.67105">
        <ele>1745.2</ele>
        <time>2023-08-21T09:16:23Z</time>
      </trkpt>
      <trkpt lat="45.69252" lon="6.67109">
        <ele>1745.2</ele>
        <time>2023-08-21T09:16:24Z</time>
      </trkpt>
      <trkpt lat="45.69251" lon="6.67112">
        <ele>1745.2</ele>
        <time>2023-08-21T09:16:25Z</time>
      </trkpt>
      <trkpt lat="45.69251" lon="6.67114">
        <ele>1745.8</ele>
        <time>2023-08-21T09:16:26Z</time>
      </trkpt>
      <trkpt lat="45.6925" lon="6.67117">
        <ele>1746</ele>
        <time>2023-08-21T09:16:27Z</time>
      </trkpt>
      <trkpt lat="45.69249" lon="6.67119">
        <ele>1746</ele>
        <time>2023-08-21T09:16:28Z</time>
      </trkpt>
      <trkpt lat="45.69248" lon="6.67123">
        <ele>1746</ele>
        <time>2023-08-21T09:16:29Z</time>
      </trkpt>
      <trkpt lat="45.69247" lon="6.67127">
        <ele>1746.6</ele>
        <time>2023-08-21T09:16:30Z</time>
      </trkpt>
      <trkpt lat="45.69246" lon="6.6713">
        <ele>1746.6</ele>
        <time>2023-08-21T09:16:31Z</time>
      </trkpt>
      <trkpt lat="45.69245" lon="6.67134">
        <ele>1747</ele>
        <time>2023-08-21T09:16:32Z</time>
      </trkpt>
      <trkpt lat="45.69244" lon="6.67137">
        <ele>1747</ele>
        <time>2023-08-21T09:16:33Z</time>
      </trkpt>
      <trkpt lat="45.69243" lon="6.67141">
        <ele>1747</ele>
        <time>2023-08-21T09:16:34Z</time>
      </trkpt>
      <trkpt lat="45.69242" lon="6.67144">
        <ele>1747.6</ele>
        <time>2023-08-21T09:16:35Z</time>
      </trkpt>
      <trkpt lat="45.69241" lon="6.67146">
        <ele>1747.6</ele>
        <time>2023-08-21T09:16:36Z</time>
      </trkpt>
      <trkpt lat="45.6924" lon="6.67149">
        <ele>1747.6</ele>
        <time>2023-08-21T09:16:37Z</time>
      </trkpt>
      <trkpt lat="45.69238" lon="6.67151">
        <ele>1747.6</ele>
        <time>2023-08-21T09:16:38Z</time>
      </trkpt>
      <trkpt lat="45.69237" lon="6.67153">
        <ele>1748.4</ele>
        <time>2023-08-21T09:16:39Z</time>
      </trkpt>
      <trkpt lat="45.69235" lon="6.67156">
        <ele>1748.8</ele>
        <time>2023-08-21T09:16:40Z</time>
      </trkpt>
      <trkpt lat="45.69234" lon="6.67158">
        <ele>1748.8</ele>
        <time>2023-08-21T09:16:41Z</time>
      </trkpt>
      <trkpt lat="45.69232" lon="6.6716">
        <ele>1748.8</ele>
        <time>2023-08-21T09:16:42Z</time>
      </trkpt>
      <trkpt lat="45.69231" lon="6.67162">
        <ele>1748.8</ele>
        <time>2023-08-21T09:16:43Z</time>
      </trkpt>
      <trkpt lat="45.69229" lon="6.67164">
        <ele>1749.2</ele>
        <time>2023-08-21T09:16:44Z</time>
      </trkpt>
      <trkpt lat="45.69228" lon="6.67166">
        <ele>1749.2</ele>
        <time>2023-08-21T09:16:45Z</time>
      </trkpt>
      <trkpt lat="45.69226" lon="6.67169">
        <ele>1749.2</ele>
        <time>2023-08-21T09:16:46Z</time>
      </trkpt>
      <trkpt lat="45.69225" lon="6.67171">
        <ele>1749.2</ele>
        <time>2023-08-21T09:16:47Z</time>
      </trkpt>
      <trkpt lat="45.69223" lon="6.67173">
        <ele>1749.2</ele>
        <time>2023-08-21T09:16:48Z</time>
      </trkpt>
      <trkpt lat="45.69222" lon="6.67175">
        <ele>1749.8</ele>
        <time>2023-08-21T09:16:49Z</time>
      </trkpt>
      <trkpt lat="45.6922" lon="6.67177">
        <ele>1749.8</ele>
        <time>2023-08-21T09:16:50Z</time>
      </trkpt>
      <trkpt lat="45.69218" lon="6.67179">
        <ele>1749.8</ele>
        <time>2023-08-21T09:16:51Z</time>
      </trkpt>
      <trkpt lat="45.69217" lon="6.67181">
        <ele>1750.4</ele>
        <time>2023-08-21T09:16:52Z</time>
      </trkpt>
      <trkpt lat="45.69216" lon="6.67183">
        <ele>1750.6</ele>
        <time>2023-08-21T09:16:53Z</time>
      </trkpt>
      <trkpt lat="45.69214" lon="6.67185">
        <ele>1750.6</ele>
        <time>2023-08-21T09:16:54Z</time>
      </trkpt>
      <trkpt lat="45.69213" lon="6.67187">
        <ele>1750.6</ele>
        <time>2023-08-21T09:16:55Z</time>
      </trkpt>
      <trkpt lat="45.69211" lon="6.6719">
        <ele>1750.6</ele>
        <time>2023-08-21T09:16:56Z</time>
      </trkpt>
      <trkpt lat="45.6921" lon="6.67192">
        <ele>1751</ele>
        <time>2023-08-21T09:16:57Z</time>
      </trkpt>
      <trkpt lat="45.69208" lon="6.67194">
        <ele>1751</ele>
        <time>2023-08-21T09:16:58Z</time>
      </trkpt>
      <trkpt lat="45.69207" lon="6.67197">
        <ele>1751.4</ele>
        <time>2023-08-21T09:16:59Z</time>
      </trkpt>
      <trkpt lat="45.69207" lon="6.67199">
        <ele>1751.4</ele>
        <time>2023-08-21T09:17:00Z</time>
      </trkpt>
      <trkpt lat="45.69206" lon="6.67202">
        <ele>1751.4</ele>
        <time>2023-08-21T09:17:01Z</time>
      </trkpt>
      <trkpt lat="45.69205" lon="6.67205">
        <ele>1751.4</ele>
        <time>2023-08-21T09:17:02Z</time>
      </trkpt>
      <trkpt lat="45.69204" lon="6.67207">
        <ele>1751.4</ele>
        <time>2023-08-21T09:17:03Z</time>
      </trkpt>
      <trkpt lat="45.69203" lon="6.6721">
        <ele>1752</ele>
        <time>2023-08-21T09:17:04Z</time>
      </trkpt>
      <trkpt lat="45.69202" lon="6.67212">
        <ele>1752</ele>
        <time>2023-08-21T09:17:05Z</time>
      </trkpt>
      <trkpt lat="45.69201" lon="6.67214">
        <ele>1752</ele>
        <time>2023-08-21T09:17:06Z</time>
      </trkpt>
      <trkpt lat="45.69199" lon="6.67217">
        <ele>1752.4</ele>
        <time>2023-08-21T09:17:07Z</time>
      </trkpt>
      <trkpt lat="45.69198" lon="6.67219">
        <ele>1752.8</ele>
        <time>2023-08-21T09:17:08Z</time>
      </trkpt>
      <trkpt lat="45.69197" lon="6.67222">
        <ele>1752.8</ele>
        <time>2023-08-21T09:17:09Z</time>
      </trkpt>
      <trkpt lat="45.69196" lon="6.67224">
        <ele>1752.8</ele>
        <time>2023-08-21T09:17:10Z</time>
      </trkpt>
      <trkpt lat="45.69195" lon="6.67227">
        <ele>1753.4</ele>
        <time>2023-08-21T09:17:11Z</time>
      </trkpt>
      <trkpt lat="45.69194" lon="6.67229">
        <ele>1753.6</ele>
        <time>2023-08-21T09:17:12Z</time>
      </trkpt>
      <trkpt lat="45.69193" lon="6.67232">
        <ele>1753.6</ele>
        <time>2023-08-21T09:17:13Z</time>
      </trkpt>
      <trkpt lat="45.69192" lon="6.67234">
        <ele>1753.6</ele>
        <time>2023-08-21T09:17:14Z</time>
      </trkpt>
      <trkpt lat="45.69191" lon="6.67237">
        <ele>1753.6</ele>
        <time>2023-08-21T09:17:15Z</time>
      </trkpt>
      <trkpt lat="45.6919" lon="6.67239">
        <ele>1754</ele>
        <time>2023-08-21T09:17:16Z</time>
      </trkpt>
      <trkpt lat="45.69188" lon="6.67242">
        <ele>1754</ele>
        <time>2023-08-21T09:17:17Z</time>
      </trkpt>
      <trkpt lat="45.69187" lon="6.67244">
        <ele>1754</ele>
        <time>2023-08-21T09:17:18Z</time>
      </trkpt>
      <trkpt lat="45.69186" lon="6.67247">
        <ele>1754</ele>
        <time>2023-08-21T09:17:19Z</time>
      </trkpt>
      <trkpt lat="45.69185" lon="6.67249">
        <ele>1754</ele>
        <time>2023-08-21T09:17:20Z</time>
      </trkpt>
      <trkpt lat="45.69184" lon="6.67251">
        <ele>1755</ele>
        <time>2023-08-21T09:17:21Z</time>
      </trkpt>
      <trkpt lat="45.69183" lon="6.67253">
        <ele>1755</ele>
        <time>2023-08-21T09:17:22Z</time>
      </trkpt>
      <trkpt lat="45.69182" lon="6.67256">
        <ele>1755</ele>
        <time>2023-08-21T09:17:23Z</time>
      </trkpt>
      <trkpt lat="45.69181" lon="6.67258">
        <ele>1755</ele>
        <time>2023-08-21T09:17:24Z</time>
      </trkpt>
      <trkpt lat="45.69179" lon="6.6726">
        <ele>1755.6</ele>
        <time>2023-08-21T09:17:25Z</time>
      </trkpt>
      <trkpt lat="45.69178" lon="6.67262">
        <ele>1756</ele>
        <time>2023-08-21T09:17:26Z</time>
      </trkpt>
      <trkpt lat="45.69176" lon="6.67264">
        <ele>1756</ele>
        <time>2023-08-21T09:17:27Z</time>
      </trkpt>
      <trkpt lat="45.69175" lon="6.67266">
        <ele>1756</ele>
        <time>2023-08-21T09:17:28Z</time>
      </trkpt>
      <trkpt lat="45.69173" lon="6.67268">
        <ele>1756.4</ele>
        <time>2023-08-21T09:17:29Z</time>
      </trkpt>
      <trkpt lat="45.69171" lon="6.6727">
        <ele>1756.6</ele>
        <time>2023-08-21T09:17:30Z</time>
      </trkpt>
      <trkpt lat="45.69169" lon="6.67271">
        <ele>1756.6</ele>
        <time>2023-08-21T09:17:31Z</time>
      </trkpt>
      <trkpt lat="45.69167" lon="6.67273">
        <ele>1756.6</ele>
        <time>2023-08-21T09:17:32Z</time>
      </trkpt>
      <trkpt lat="45.69166" lon="6.67274">
        <ele>1757.2</ele>
        <time>2023-08-21T09:17:33Z</time>
      </trkpt>
      <trkpt lat="45.69164" lon="6.67275">
        <ele>1757.2</ele>
        <time>2023-08-21T09:17:34Z</time>
      </trkpt>
      <trkpt lat="45.69163" lon="6.67276">
        <ele>1757.4</ele>
        <time>2023-08-21T09:17:35Z</time>
      </trkpt>
      <trkpt lat="45.69161" lon="6.67277">
        <ele>1757.4</ele>
        <time>2023-08-21T09:17:36Z</time>
      </trkpt>
      <trkpt lat="45.69159" lon="6.67279">
        <ele>1757.4</ele>
        <time>2023-08-21T09:17:37Z</time>
      </trkpt>
      <trkpt lat="45.69158" lon="6.6728">
        <ele>1757.4</ele>
        <time>2023-08-21T09:17:38Z</time>
      </trkpt>
      <trkpt lat="45.69156" lon="6.67281">
        <ele>1757.8</ele>
        <time>2023-08-21T09:17:39Z</time>
      </trkpt>
      <trkpt lat="45.69154" lon="6.67283">
        <ele>1757.8</ele>
        <time>2023-08-21T09:17:40Z</time>
      </trkpt>
      <trkpt lat="45.69153" lon="6.67284">
        <ele>1757.8</ele>
        <time>2023-08-21T09:17:41Z</time>
      </trkpt>
      <trkpt lat="45.69151" lon="6.67285">
        <ele>1757.8</ele>
        <time>2023-08-21T09:17:42Z</time>
      </trkpt>
      <trkpt lat="45.69149" lon="6.67286">
        <ele>1757.8</ele>
        <time>2023-08-21T09:17:43Z</time>
      </trkpt>
      <trkpt lat="45.69147" lon="6.67287">
        <ele>1758.8</ele>
        <time>2023-08-21T09:17:44Z</time>
      </trkpt>
      <trkpt lat="45.69146" lon="6.67288">
        <ele>1758.8</ele>
        <time>2023-08-21T09:17:45Z</time>
      </trkpt>
      <trkpt lat="45.69144" lon="6.67289">
        <ele>1758.8</ele>
        <time>2023-08-21T09:17:46Z</time>
      </trkpt>
      <trkpt lat="45.69143" lon="6.6729">
        <ele>1758.8</ele>
        <time>2023-08-21T09:17:47Z</time>
      </trkpt>
      <trkpt lat="45.69141" lon="6.67292">
        <ele>1759.4</ele>
        <time>2023-08-21T09:17:48Z</time>
      </trkpt>
      <trkpt lat="45.69139" lon="6.67293">
        <ele>1759.6</ele>
        <time>2023-08-21T09:17:49Z</time>
      </trkpt>
      <trkpt lat="45.69138" lon="6.67294">
        <ele>1759.6</ele>
        <time>2023-08-21T09:17:50Z</time>
      </trkpt>
      <trkpt lat="45.69137" lon="6.67295">
        <ele>1759.6</ele>
        <time>2023-08-21T09:17:51Z</time>
      </trkpt>
      <trkpt lat="45.69135" lon="6.67297">
        <ele>1759.6</ele>
        <time>2023-08-21T09:17:52Z</time>
      </trkpt>
      <trkpt lat="45.69133" lon="6.67298">
        <ele>1760.4</ele>
        <time>2023-08-21T09:17:53Z</time>
      </trkpt>
      <trkpt lat="45.69131" lon="6.67299">
        <ele>1760.4</ele>
        <time>2023-08-21T09:17:54Z</time>
      </trkpt>
      <trkpt lat="45.6913" lon="6.673">
        <ele>1760.4</ele>
        <time>2023-08-21T09:17:55Z</time>
      </trkpt>
      <trkpt lat="45.69128" lon="6.67302">
        <ele>1760.4</ele>
        <time>2023-08-21T09:17:56Z</time>
      </trkpt>
      <trkpt lat="45.69127" lon="6.67304">
        <ele>1761</ele>
        <time>2023-08-21T09:17:57Z</time>
      </trkpt>
      <trkpt lat="45.69125" lon="6.67306">
        <ele>1761.2</ele>
        <time>2023-08-21T09:17:58Z</time>
      </trkpt>
      <trkpt lat="45.69124" lon="6.67308">
        <ele>1761.2</ele>
        <time>2023-08-21T09:17:59Z</time>
      </trkpt>
      <trkpt lat="45.69122" lon="6.67309">
        <ele>1761.2</ele>
        <time>2023-08-21T09:18:00Z</time>
      </trkpt>
      <trkpt lat="45.69121" lon="6.67312">
        <ele>1761.6</ele>
        <time>2023-08-21T09:18:01Z</time>
      </trkpt>
      <trkpt lat="45.6912" lon="6.67314">
        <ele>1762</ele>
        <time>2023-08-21T09:18:02Z</time>
      </trkpt>
      <trkpt lat="45.69119" lon="6.67316">
        <ele>1762</ele>
        <time>2023-08-21T09:18:03Z</time>
      </trkpt>
      <trkpt lat="45.69118" lon="6.67318">
        <ele>1762</ele>
        <time>2023-08-21T09:18:04Z</time>
      </trkpt>
      <trkpt lat="45.69117" lon="6.6732">
        <ele>1762</ele>
        <time>2023-08-21T09:18:05Z</time>
      </trkpt>
      <trkpt lat="45.69116" lon="6.67323">
        <ele>1762.4</ele>
        <time>2023-08-21T09:18:06Z</time>
      </trkpt>
      <trkpt lat="45.69116" lon="6.67325">
        <ele>1762.6</ele>
        <time>2023-08-21T09:18:07Z</time>
      </trkpt>
      <trkpt lat="45.69115" lon="6.67328">
        <ele>1762.6</ele>
        <time>2023-08-21T09:18:08Z</time>
      </trkpt>
      <trkpt lat="45.69114" lon="6.67331">
        <ele>1762.6</ele>
        <time>2023-08-21T09:18:09Z</time>
      </trkpt>
      <trkpt lat="45.69113" lon="6.67333">
        <ele>1763</ele>
        <time>2023-08-21T09:18:10Z</time>
      </trkpt>
      <trkpt lat="45.69113" lon="6.67336">
        <ele>1763.2</ele>
        <time>2023-08-21T09:18:11Z</time>
      </trkpt>
      <trkpt lat="45.69112" lon="6.67339">
        <ele>1763.2</ele>
        <time>2023-08-21T09:18:12Z</time>
      </trkpt>
      <trkpt lat="45.69112" lon="6.67342">
        <ele>1763.2</ele>
        <time>2023-08-21T09:18:13Z</time>
      </trkpt>
      <trkpt lat="45.69112" lon="6.67345">
        <ele>1763.8</ele>
        <time>2023-08-21T09:18:14Z</time>
      </trkpt>
      <trkpt lat="45.69111" lon="6.67349">
        <ele>1763.8</ele>
        <time>2023-08-21T09:18:15Z</time>
      </trkpt>
      <trkpt lat="45.69111" lon="6.67352">
        <ele>1763.8</ele>
        <time>2023-08-21T09:18:16Z</time>
      </trkpt>
      <trkpt lat="45.69111" lon="6.67355">
        <ele>1763.8</ele>
        <time>2023-08-21T09:18:17Z</time>
      </trkpt>
      <trkpt lat="45.69111" lon="6.67358">
        <ele>1763.8</ele>
        <time>2023-08-21T09:18:18Z</time>
      </trkpt>
      <trkpt lat="45.6911" lon="6.67361">
        <ele>1764.4</ele>
        <time>2023-08-21T09:18:19Z</time>
      </trkpt>
      <trkpt lat="45.6911" lon="6.67364">
        <ele>1764.6</ele>
        <time>2023-08-21T09:18:20Z</time>
      </trkpt>
      <trkpt lat="45.6911" lon="6.67367">
        <ele>1764.6</ele>
        <time>2023-08-21T09:18:21Z</time>
      </trkpt>
      <trkpt lat="45.69111" lon="6.6737">
        <ele>1764.6</ele>
        <time>2023-08-21T09:18:22Z</time>
      </trkpt>
      <trkpt lat="45.69111" lon="6.67373">
        <ele>1764.6</ele>
        <time>2023-08-21T09:18:23Z</time>
      </trkpt>
      <trkpt lat="45.69111" lon="6.67375">
        <ele>1765.4</ele>
        <time>2023-08-21T09:18:24Z</time>
      </trkpt>
      <trkpt lat="45.69111" lon="6.67378">
        <ele>1765.4</ele>
        <time>2023-08-21T09:18:25Z</time>
      </trkpt>
      <trkpt lat="45.69111" lon="6.67381">
        <ele>1765.4</ele>
        <time>2023-08-21T09:18:26Z</time>
      </trkpt>
      <trkpt lat="45.69111" lon="6.67384">
        <ele>1765.4</ele>
        <time>2023-08-21T09:18:27Z</time>
      </trkpt>
      <trkpt lat="45.69111" lon="6.67387">
        <ele>1765.4</ele>
        <time>2023-08-21T09:18:28Z</time>
      </trkpt>
      <trkpt lat="45.69111" lon="6.6739">
        <ele>1766.2</ele>
        <time>2023-08-21T09:18:29Z</time>
      </trkpt>
      <trkpt lat="45.69111" lon="6.67392">
        <ele>1766.2</ele>
        <time>2023-08-21T09:18:30Z</time>
      </trkpt>
      <trkpt lat="45.6911" lon="6.67395">
        <ele>1766.4</ele>
        <time>2023-08-21T09:18:31Z</time>
      </trkpt>
      <trkpt lat="45.6911" lon="6.67398">
        <ele>1766.4</ele>
        <time>2023-08-21T09:18:32Z</time>
      </trkpt>
      <trkpt lat="45.69109" lon="6.67401">
        <ele>1766.8</ele>
        <time>2023-08-21T09:18:33Z</time>
      </trkpt>
      <trkpt lat="45.69108" lon="6.67403">
        <ele>1767.2</ele>
        <time>2023-08-21T09:18:34Z</time>
      </trkpt>
      <trkpt lat="45.69107" lon="6.67406">
        <ele>1767.2</ele>
        <time>2023-08-21T09:18:35Z</time>
      </trkpt>
      <trkpt lat="45.69106" lon="6.67408">
        <ele>1767.2</ele>
        <time>2023-08-21T09:18:36Z</time>
      </trkpt>
      <trkpt lat="45.69105" lon="6.6741">
        <ele>1767.2</ele>
        <time>2023-08-21T09:18:37Z</time>
      </trkpt>
      <trkpt lat="45.69104" lon="6.67412">
        <ele>1767.6</ele>
        <time>2023-08-21T09:18:38Z</time>
      </trkpt>
      <trkpt lat="45.69103" lon="6.67414">
        <ele>1767.8</ele>
        <time>2023-08-21T09:18:39Z</time>
      </trkpt>
      <trkpt lat="45.69101" lon="6.67416">
        <ele>1767.8</ele>
        <time>2023-08-21T09:18:40Z</time>
      </trkpt>
      <trkpt lat="45.691" lon="6.67419">
        <ele>1767.8</ele>
        <time>2023-08-21T09:18:41Z</time>
      </trkpt>
      <trkpt lat="45.69099" lon="6.67421">
        <ele>1768.4</ele>
        <time>2023-08-21T09:18:42Z</time>
      </trkpt>
      <trkpt lat="45.69098" lon="6.67423">
        <ele>1768.4</ele>
        <time>2023-08-21T09:18:43Z</time>
      </trkpt>
      <trkpt lat="45.69097" lon="6.67426">
        <ele>1768.4</ele>
        <time>2023-08-21T09:18:44Z</time>
      </trkpt>
      <trkpt lat="45.69096" lon="6.67428">
        <ele>1768.4</ele>
        <time>2023-08-21T09:18:45Z</time>
      </trkpt>
      <trkpt lat="45.69095" lon="6.67431">
        <ele>1768.4</ele>
        <time>2023-08-21T09:18:46Z</time>
      </trkpt>
      <trkpt lat="45.69094" lon="6.67434">
        <ele>1769</ele>
        <time>2023-08-21T09:18:47Z</time>
      </trkpt>
      <trkpt lat="45.69094" lon="6.67437">
        <ele>1769.4</ele>
        <time>2023-08-21T09:18:48Z</time>
      </trkpt>
      <trkpt lat="45.69093" lon="6.6744">
        <ele>1769.4</ele>
        <time>2023-08-21T09:18:49Z</time>
      </trkpt>
      <trkpt lat="45.69092" lon="6.67443">
        <ele>1769.4</ele>
        <time>2023-08-21T09:18:50Z</time>
      </trkpt>
      <trkpt lat="45.69092" lon="6.67446">
        <ele>1769.4</ele>
        <time>2023-08-21T09:18:51Z</time>
      </trkpt>
      <trkpt lat="45.69091" lon="6.67449">
        <ele>1769.8</ele>
        <time>2023-08-21T09:18:52Z</time>
      </trkpt>
      <trkpt lat="45.69091" lon="6.67452">
        <ele>1769.8</ele>
        <time>2023-08-21T09:18:53Z</time>
      </trkpt>
      <trkpt lat="45.6909" lon="6.67455">
        <ele>1769.8</ele>
        <time>2023-08-21T09:18:54Z</time>
      </trkpt>
      <trkpt lat="45.69089" lon="6.67458">
        <ele>1769.8</ele>
        <time>2023-08-21T09:18:55Z</time>
      </trkpt>
      <trkpt lat="45.69089" lon="6.67461">
        <ele>1770.2</ele>
        <time>2023-08-21T09:18:56Z</time>
      </trkpt>
      <trkpt lat="45.69088" lon="6.67465">
        <ele>1770.4</ele>
        <time>2023-08-21T09:18:57Z</time>
      </trkpt>
      <trkpt lat="45.69088" lon="6.67468">
        <ele>1770.4</ele>
        <time>2023-08-21T09:18:58Z</time>
      </trkpt>
      <trkpt lat="45.69087" lon="6.67471">
        <ele>1770.4</ele>
        <time>2023-08-21T09:18:59Z</time>
      </trkpt>
      <trkpt lat="45.69087" lon="6.67474">
        <ele>1770.8</ele>
        <time>2023-08-21T09:19:00Z</time>
      </trkpt>
      <trkpt lat="45.69086" lon="6.67477">
        <ele>1771.2</ele>
        <time>2023-08-21T09:19:01Z</time>
      </trkpt>
      <trkpt lat="45.69085" lon="6.6748">
        <ele>1771.2</ele>
        <time>2023-08-21T09:19:02Z</time>
      </trkpt>
      <trkpt lat="45.69085" lon="6.67482">
        <ele>1771.2</ele>
        <time>2023-08-21T09:19:03Z</time>
      </trkpt>
      <trkpt lat="45.69085" lon="6.67485">
        <ele>1771.6</ele>
        <time>2023-08-21T09:19:04Z</time>
      </trkpt>
      <trkpt lat="45.69084" lon="6.67488">
        <ele>1771.6</ele>
        <time>2023-08-21T09:19:05Z</time>
      </trkpt>
      <trkpt lat="45.69084" lon="6.67491">
        <ele>1771.8</ele>
        <time>2023-08-21T09:19:06Z</time>
      </trkpt>
      <trkpt lat="45.69084" lon="6.67494">
        <ele>1771.8</ele>
        <time>2023-08-21T09:19:07Z</time>
      </trkpt>
      <trkpt lat="45.69084" lon="6.67497">
        <ele>1771.8</ele>
        <time>2023-08-21T09:19:08Z</time>
      </trkpt>
      <trkpt lat="45.69084" lon="6.67499">
        <ele>1771.8</ele>
        <time>2023-08-21T09:19:09Z</time>
      </trkpt>
      <trkpt lat="45.69084" lon="6.67502">
        <ele>1772.2</ele>
        <time>2023-08-21T09:19:10Z</time>
      </trkpt>
      <trkpt lat="45.69083" lon="6.67505">
        <ele>1772.6</ele>
        <time>2023-08-21T09:19:11Z</time>
      </trkpt>
      <trkpt lat="45.69083" lon="6.67508">
        <ele>1772.6</ele>
        <time>2023-08-21T09:19:12Z</time>
      </trkpt>
      <trkpt lat="45.69083" lon="6.67511">
        <ele>1772.6</ele>
        <time>2023-08-21T09:19:13Z</time>
      </trkpt>
      <trkpt lat="45.69083" lon="6.67514">
        <ele>1773</ele>
        <time>2023-08-21T09:19:14Z</time>
      </trkpt>
      <trkpt lat="45.69083" lon="6.67516">
        <ele>1773.4</ele>
        <time>2023-08-21T09:19:15Z</time>
      </trkpt>
      <trkpt lat="45.69083" lon="6.67519">
        <ele>1773.4</ele>
        <time>2023-08-21T09:19:16Z</time>
      </trkpt>
      <trkpt lat="45.69083" lon="6.67522">
        <ele>1773.4</ele>
        <time>2023-08-21T09:19:17Z</time>
      </trkpt>
      <trkpt lat="45.69083" lon="6.67525">
        <ele>1773.4</ele>
        <time>2023-08-21T09:19:18Z</time>
      </trkpt>
      <trkpt lat="45.69083" lon="6.67528">
        <ele>1773.4</ele>
        <time>2023-08-21T09:19:19Z</time>
      </trkpt>
      <trkpt lat="45.69083" lon="6.67531">
        <ele>1773.8</ele>
        <time>2023-08-21T09:19:20Z</time>
      </trkpt>
      <trkpt lat="45.69083" lon="6.67534">
        <ele>1773.8</ele>
        <time>2023-08-21T09:19:21Z</time>
      </trkpt>
      <trkpt lat="45.69084" lon="6.67536">
        <ele>1773.8</ele>
        <time>2023-08-21T09:19:22Z</time>
      </trkpt>
      <trkpt lat="45.69083" lon="6.67539">
        <ele>1774.4</ele>
        <time>2023-08-21T09:19:23Z</time>
      </trkpt>
      <trkpt lat="45.69084" lon="6.67542">
        <ele>1774.6</ele>
        <time>2023-08-21T09:19:24Z</time>
      </trkpt>
      <trkpt lat="45.69084" lon="6.67545">
        <ele>1774.6</ele>
        <time>2023-08-21T09:19:25Z</time>
      </trkpt>
      <trkpt lat="45.69084" lon="6.67548">
        <ele>1774.6</ele>
        <time>2023-08-21T09:19:26Z</time>
      </trkpt>
      <trkpt lat="45.69084" lon="6.6755">
        <ele>1775</ele>
        <time>2023-08-21T09:19:27Z</time>
      </trkpt>
      <trkpt lat="45.69085" lon="6.67553">
        <ele>1775</ele>
        <time>2023-08-21T09:19:28Z</time>
      </trkpt>
      <trkpt lat="45.69085" lon="6.67556">
        <ele>1775.2</ele>
        <time>2023-08-21T09:19:29Z</time>
      </trkpt>
      <trkpt lat="45.69085" lon="6.67559">
        <ele>1775.2</ele>
        <time>2023-08-21T09:19:30Z</time>
      </trkpt>
      <trkpt lat="45.69086" lon="6.67562">
        <ele>1775.2</ele>
        <time>2023-08-21T09:19:31Z</time>
      </trkpt>
      <trkpt lat="45.69086" lon="6.67564">
        <ele>1775.6</ele>
        <time>2023-08-21T09:19:32Z</time>
      </trkpt>
      <trkpt lat="45.69086" lon="6.67567">
        <ele>1775.8</ele>
        <time>2023-08-21T09:19:33Z</time>
      </trkpt>
      <trkpt lat="45.69086" lon="6.6757">
        <ele>1775.8</ele>
        <time>2023-08-21T09:19:34Z</time>
      </trkpt>
      <trkpt lat="45.69087" lon="6.67573">
        <ele>1775.8</ele>
        <time>2023-08-21T09:19:35Z</time>
      </trkpt>
      <trkpt lat="45.69087" lon="6.67575">
        <ele>1776.4</ele>
        <time>2023-08-21T09:19:36Z</time>
      </trkpt>
      <trkpt lat="45.69087" lon="6.67578">
        <ele>1776.8</ele>
        <time>2023-08-21T09:19:37Z</time>
      </trkpt>
      <trkpt lat="45.69087" lon="6.67581">
        <ele>1776.8</ele>
        <time>2023-08-21T09:19:38Z</time>
      </trkpt>
      <trkpt lat="45.69087" lon="6.67583">
        <ele>1776.8</ele>
        <time>2023-08-21T09:19:39Z</time>
      </trkpt>
      <trkpt lat="45.69087" lon="6.67586">
        <ele>1777.2</ele>
        <time>2023-08-21T09:19:40Z</time>
      </trkpt>
      <trkpt lat="45.69088" lon="6.67588">
        <ele>1777.2</ele>
        <time>2023-08-21T09:19:41Z</time>
      </trkpt>
      <trkpt lat="45.69089" lon="6.67591">
        <ele>1777.2</ele>
        <time>2023-08-21T09:19:42Z</time>
      </trkpt>
      <trkpt lat="45.6909" lon="6.67594">
        <ele>1777.2</ele>
        <time>2023-08-21T09:19:43Z</time>
      </trkpt>
      <trkpt lat="45.6909" lon="6.67596">
        <ele>1777.2</ele>
        <time>2023-08-21T09:19:44Z</time>
      </trkpt>
      <trkpt lat="45.69091" lon="6.67599">
        <ele>1777.8</ele>
        <time>2023-08-21T09:19:45Z</time>
      </trkpt>
      <trkpt lat="45.69091" lon="6.67602">
        <ele>1777.8</ele>
        <time>2023-08-21T09:19:46Z</time>
      </trkpt>
      <trkpt lat="45.69092" lon="6.67604">
        <ele>1777.8</ele>
        <time>2023-08-21T09:19:47Z</time>
      </trkpt>
      <trkpt lat="45.69092" lon="6.67607">
        <ele>1777.8</ele>
        <time>2023-08-21T09:19:48Z</time>
      </trkpt>
      <trkpt lat="45.69093" lon="6.6761">
        <ele>1777.8</ele>
        <time>2023-08-21T09:19:49Z</time>
      </trkpt>
      <trkpt lat="45.69093" lon="6.67613">
        <ele>1778.6</ele>
        <time>2023-08-21T09:19:50Z</time>
      </trkpt>
      <trkpt lat="45.69094" lon="6.67615">
        <ele>1778.6</ele>
        <time>2023-08-21T09:19:51Z</time>
      </trkpt>
      <trkpt lat="45.69095" lon="6.67618">
        <ele>1778.6</ele>
        <time>2023-08-21T09:19:52Z</time>
      </trkpt>
      <trkpt lat="45.69095" lon="6.67621">
        <ele>1778.6</ele>
        <time>2023-08-21T09:19:53Z</time>
      </trkpt>
      <trkpt lat="45.69095" lon="6.67624">
        <ele>1778.6</ele>
        <time>2023-08-21T09:19:54Z</time>
      </trkpt>
      <trkpt lat="45.69096" lon="6.67626">
        <ele>1779</ele>
        <time>2023-08-21T09:19:55Z</time>
      </trkpt>
      <trkpt lat="45.69096" lon="6.67629">
        <ele>1779.4</ele>
        <time>2023-08-21T09:19:56Z</time>
      </trkpt>
      <trkpt lat="45.69097" lon="6.67632">
        <ele>1779.4</ele>
        <time>2023-08-21T09:19:57Z</time>
      </trkpt>
      <trkpt lat="45.69097" lon="6.67635">
        <ele>1779.4</ele>
        <time>2023-08-21T09:19:58Z</time>
      </trkpt>
      <trkpt lat="45.69098" lon="6.67637">
        <ele>1779.4</ele>
        <time>2023-08-21T09:19:59Z</time>
      </trkpt>
      <trkpt lat="45.69099" lon="6.6764">
        <ele>1780</ele>
        <time>2023-08-21T09:20:00Z</time>
      </trkpt>
      <trkpt lat="45.69099" lon="6.67643">
        <ele>1780</ele>
        <time>2023-08-21T09:20:01Z</time>
      </trkpt>
      <trkpt lat="45.691" lon="6.67645">
        <ele>1780</ele>
        <time>2023-08-21T09:20:02Z</time>
      </trkpt>
      <trkpt lat="45.691" lon="6.67648">
        <ele>1780.6</ele>
        <time>2023-08-21T09:20:03Z</time>
      </trkpt>
      <trkpt lat="45.69101" lon="6.6765">
        <ele>1780.6</ele>
        <time>2023-08-21T09:20:04Z</time>
      </trkpt>
      <trkpt lat="45.69101" lon="6.67653">
        <ele>1780.6</ele>
        <time>2023-08-21T09:20:05Z</time>
      </trkpt>
      <trkpt lat="45.69102" lon="6.67655">
        <ele>1780.6</ele>
        <time>2023-08-21T09:20:06Z</time>
      </trkpt>
      <trkpt lat="45.69102" lon="6.67658">
        <ele>1780.6</ele>
        <time>2023-08-21T09:20:07Z</time>
      </trkpt>
      <trkpt lat="45.69102" lon="6.67661">
        <ele>1781.4</ele>
        <time>2023-08-21T09:20:08Z</time>
      </trkpt>
      <trkpt lat="45.69103" lon="6.67663">
        <ele>1781.6</ele>
        <time>2023-08-21T09:20:09Z</time>
      </trkpt>
      <trkpt lat="45.69103" lon="6.67666">
        <ele>1781.6</ele>
        <time>2023-08-21T09:20:10Z</time>
      </trkpt>
      <trkpt lat="45.69104" lon="6.67669">
        <ele>1781.6</ele>
        <time>2023-08-21T09:20:11Z</time>
      </trkpt>
      <trkpt lat="45.69104" lon="6.67671">
        <ele>1782.2</ele>
        <time>2023-08-21T09:20:12Z</time>
      </trkpt>
      <trkpt lat="45.69104" lon="6.67674">
        <ele>1782.2</ele>
        <time>2023-08-21T09:20:13Z</time>
      </trkpt>
      <trkpt lat="45.69104" lon="6.67677">
        <ele>1782.4</ele>
        <time>2023-08-21T09:20:14Z</time>
      </trkpt>
      <trkpt lat="45.69104" lon="6.67679">
        <ele>1782.4</ele>
        <time>2023-08-21T09:20:15Z</time>
      </trkpt>
      <trkpt lat="45.69104" lon="6.67682">
        <ele>1782.4</ele>
        <time>2023-08-21T09:20:16Z</time>
      </trkpt>
      <trkpt lat="45.69105" lon="6.67685">
        <ele>1782.8</ele>
        <time>2023-08-21T09:20:17Z</time>
      </trkpt>
      <trkpt lat="45.69105" lon="6.67688">
        <ele>1783</ele>
        <time>2023-08-21T09:20:18Z</time>
      </trkpt>
      <trkpt lat="45.69106" lon="6.67691">
        <ele>1783</ele>
        <time>2023-08-21T09:20:19Z</time>
      </trkpt>
      <trkpt lat="45.69106" lon="6.67695">
        <ele>1783</ele>
        <time>2023-08-21T09:20:20Z</time>
      </trkpt>
      <trkpt lat="45.69106" lon="6.67698">
        <ele>1783</ele>
        <time>2023-08-21T09:20:21Z</time>
      </trkpt>
      <trkpt lat="45.69107" lon="6.67702">
        <ele>1783.2</ele>
        <time>2023-08-21T09:20:22Z</time>
      </trkpt>
      <trkpt lat="45.69108" lon="6.67705">
        <ele>1783.2</ele>
        <time>2023-08-21T09:20:23Z</time>
      </trkpt>
      <trkpt lat="45.69109" lon="6.67709">
        <ele>1783.2</ele>
        <time>2023-08-21T09:20:24Z</time>
      </trkpt>
      <trkpt lat="45.6911" lon="6.67712">
        <ele>1783.2</ele>
        <time>2023-08-21T09:20:25Z</time>
      </trkpt>
      <trkpt lat="45.69111" lon="6.67716">
        <ele>1783.6</ele>
        <time>2023-08-21T09:20:26Z</time>
      </trkpt>
      <trkpt lat="45.69112" lon="6.6772">
        <ele>1783.6</ele>
        <time>2023-08-21T09:20:27Z</time>
      </trkpt>
      <trkpt lat="45.69113" lon="6.67723">
        <ele>1783.8</ele>
        <time>2023-08-21T09:20:28Z</time>
      </trkpt>
      <trkpt lat="45.69114" lon="6.67727">
        <ele>1783.8</ele>
        <time>2023-08-21T09:20:29Z</time>
      </trkpt>
      <trkpt lat="45.69116" lon="6.6773">
        <ele>1783.8</ele>
        <time>2023-08-21T09:20:30Z</time>
      </trkpt>
      <trkpt lat="45.69118" lon="6.67734">
        <ele>1783.8</ele>
        <time>2023-08-21T09:20:31Z</time>
      </trkpt>
      <trkpt lat="45.6912" lon="6.67737">
        <ele>1784</ele>
        <time>2023-08-21T09:20:32Z</time>
      </trkpt>
      <trkpt lat="45.69122" lon="6.6774">
        <ele>1784</ele>
        <time>2023-08-21T09:20:33Z</time>
      </trkpt>
      <trkpt lat="45.69124" lon="6.67743">
        <ele>1784</ele>
        <time>2023-08-21T09:20:34Z</time>
      </trkpt>
      <trkpt lat="45.69126" lon="6.67746">
        <ele>1784</ele>
        <time>2023-08-21T09:20:35Z</time>
      </trkpt>
      <trkpt lat="45.69128" lon="6.67749">
        <ele>1784.4</ele>
        <time>2023-08-21T09:20:36Z</time>
      </trkpt>
      <trkpt lat="45.6913" lon="6.67752">
        <ele>1784.4</ele>
        <time>2023-08-21T09:20:37Z</time>
      </trkpt>
      <trkpt lat="45.69132" lon="6.67755">
        <ele>1784.4</ele>
        <time>2023-08-21T09:20:38Z</time>
      </trkpt>
      <trkpt lat="45.69134" lon="6.67758">
        <ele>1784.4</ele>
        <time>2023-08-21T09:20:39Z</time>
      </trkpt>
      <trkpt lat="45.69136" lon="6.67761">
        <ele>1784.8</ele>
        <time>2023-08-21T09:20:40Z</time>
      </trkpt>
      <trkpt lat="45.69138" lon="6.67764">
        <ele>1784.8</ele>
        <time>2023-08-21T09:20:41Z</time>
      </trkpt>
      <trkpt lat="45.6914" lon="6.67766">
        <ele>1784.8</ele>
        <time>2023-08-21T09:20:42Z</time>
      </trkpt>
      <trkpt lat="45.69141" lon="6.67769">
        <ele>1784.8</ele>
        <time>2023-08-21T09:20:43Z</time>
      </trkpt>
      <trkpt lat="45.69143" lon="6.67771">
        <ele>1785.6</ele>
        <time>2023-08-21T09:20:44Z</time>
      </trkpt>
      <trkpt lat="45.69144" lon="6.67773">
        <ele>1785.6</ele>
        <time>2023-08-21T09:20:45Z</time>
      </trkpt>
      <trkpt lat="45.69146" lon="6.67776">
        <ele>1785.8</ele>
        <time>2023-08-21T09:20:46Z</time>
      </trkpt>
      <trkpt lat="45.69147" lon="6.67778">
        <ele>1785.8</ele>
        <time>2023-08-21T09:20:47Z</time>
      </trkpt>
      <trkpt lat="45.69149" lon="6.6778">
        <ele>1785.8</ele>
        <time>2023-08-21T09:20:48Z</time>
      </trkpt>
      <trkpt lat="45.6915" lon="6.67783">
        <ele>1786</ele>
        <time>2023-08-21T09:20:49Z</time>
      </trkpt>
      <trkpt lat="45.69152" lon="6.67785">
        <ele>1786.2</ele>
        <time>2023-08-21T09:20:50Z</time>
      </trkpt>
      <trkpt lat="45.69154" lon="6.67787">
        <ele>1786.2</ele>
        <time>2023-08-21T09:20:51Z</time>
      </trkpt>
      <trkpt lat="45.69155" lon="6.6779">
        <ele>1786.2</ele>
        <time>2023-08-21T09:20:52Z</time>
      </trkpt>
      <trkpt lat="45.69157" lon="6.67792">
        <ele>1786.2</ele>
        <time>2023-08-21T09:20:53Z</time>
      </trkpt>
      <trkpt lat="45.69158" lon="6.67794">
        <ele>1787</ele>
        <time>2023-08-21T09:20:54Z</time>
      </trkpt>
      <trkpt lat="45.6916" lon="6.67796">
        <ele>1787</ele>
        <time>2023-08-21T09:20:55Z</time>
      </trkpt>
      <trkpt lat="45.69162" lon="6.67798">
        <ele>1787</ele>
        <time>2023-08-21T09:20:56Z</time>
      </trkpt>
      <trkpt lat="45.69163" lon="6.678">
        <ele>1787</ele>
        <time>2023-08-21T09:20:57Z</time>
      </trkpt>
      <trkpt lat="45.69165" lon="6.67802">
        <ele>1787.8</ele>
        <time>2023-08-21T09:20:58Z</time>
      </trkpt>
      <trkpt lat="45.69167" lon="6.67804">
        <ele>1787.8</ele>
        <time>2023-08-21T09:20:59Z</time>
      </trkpt>
      <trkpt lat="45.69168" lon="6.67806">
        <ele>1787.8</ele>
        <time>2023-08-21T09:21:00Z</time>
      </trkpt>
      <trkpt lat="45.69169" lon="6.67808">
        <ele>1787.8</ele>
        <time>2023-08-21T09:21:01Z</time>
      </trkpt>
      <trkpt lat="45.69171" lon="6.67811">
        <ele>1788.4</ele>
        <time>2023-08-21T09:21:02Z</time>
      </trkpt>
      <trkpt lat="45.69172" lon="6.67813">
        <ele>1788.4</ele>
        <time>2023-08-21T09:21:03Z</time>
      </trkpt>
      <trkpt lat="45.69173" lon="6.67816">
        <ele>1788.6</ele>
        <time>2023-08-21T09:21:04Z</time>
      </trkpt>
      <trkpt lat="45.69175" lon="6.67819">
        <ele>1788.6</ele>
        <time>2023-08-21T09:21:05Z</time>
      </trkpt>
      <trkpt lat="45.69176" lon="6.67821">
        <ele>1789</ele>
        <time>2023-08-21T09:21:06Z</time>
      </trkpt>
      <trkpt lat="45.69178" lon="6.67824">
        <ele>1789.2</ele>
        <time>2023-08-21T09:21:07Z</time>
      </trkpt>
      <trkpt lat="45.69179" lon="6.67826">
        <ele>1789.2</ele>
        <time>2023-08-21T09:21:08Z</time>
      </trkpt>
      <trkpt lat="45.69181" lon="6.67829">
        <ele>1789.2</ele>
        <time>2023-08-21T09:21:09Z</time>
      </trkpt>
      <trkpt lat="45.69182" lon="6.67831">
        <ele>1789.6</ele>
        <time>2023-08-21T09:21:10Z</time>
      </trkpt>
      <trkpt lat="45.69183" lon="6.67834">
        <ele>1790.2</ele>
        <time>2023-08-21T09:21:11Z</time>
      </trkpt>
      <trkpt lat="45.69184" lon="6.67836">
        <ele>1790.2</ele>
        <time>2023-08-21T09:21:12Z</time>
      </trkpt>
      <trkpt lat="45.69185" lon="6.67838">
        <ele>1790.2</ele>
        <time>2023-08-21T09:21:13Z</time>
      </trkpt>
      <trkpt lat="45.69186" lon="6.67841">
        <ele>1790.2</ele>
        <time>2023-08-21T09:21:14Z</time>
      </trkpt>
      <trkpt lat="45.69188" lon="6.67843">
        <ele>1790.2</ele>
        <time>2023-08-21T09:21:15Z</time>
      </trkpt>
      <trkpt lat="45.69189" lon="6.67846">
        <ele>1790.2</ele>
        <time>2023-08-21T09:21:16Z</time>
      </trkpt>
      <trkpt lat="45.6919" lon="6.67848">
        <ele>1791</ele>
        <time>2023-08-21T09:21:17Z</time>
      </trkpt>
      <trkpt lat="45.69192" lon="6.67851">
        <ele>1791</ele>
        <time>2023-08-21T09:21:18Z</time>
      </trkpt>
      <trkpt lat="45.69193" lon="6.67853">
        <ele>1791</ele>
        <time>2023-08-21T09:21:19Z</time>
      </trkpt>
      <trkpt lat="45.69195" lon="6.67856">
        <ele>1791</ele>
        <time>2023-08-21T09:21:20Z</time>
      </trkpt>
      <trkpt lat="45.69196" lon="6.67859">
        <ele>1791.8</ele>
        <time>2023-08-21T09:21:21Z</time>
      </trkpt>
      <trkpt lat="45.69198" lon="6.67862">
        <ele>1791.8</ele>
        <time>2023-08-21T09:21:22Z</time>
      </trkpt>
      <trkpt lat="45.69199" lon="6.67864">
        <ele>1791.8</ele>
        <time>2023-08-21T09:21:23Z</time>
      </trkpt>
      <trkpt lat="45.692" lon="6.67866">
        <ele>1791.8</ele>
        <time>2023-08-21T09:21:24Z</time>
      </trkpt>
      <trkpt lat="45.69202" lon="6.67868">
        <ele>1792.6</ele>
        <time>2023-08-21T09:21:25Z</time>
      </trkpt>
      <trkpt lat="45.69203" lon="6.67871">
        <ele>1793</ele>
        <time>2023-08-21T09:21:26Z</time>
      </trkpt>
      <trkpt lat="45.69204" lon="6.67874">
        <ele>1793</ele>
        <time>2023-08-21T09:21:27Z</time>
      </trkpt>
      <trkpt lat="45.69205" lon="6.67876">
        <ele>1793</ele>
        <time>2023-08-21T09:21:28Z</time>
      </trkpt>
      <trkpt lat="45.69206" lon="6.67879">
        <ele>1793</ele>
        <time>2023-08-21T09:21:29Z</time>
      </trkpt>
      <trkpt lat="45.69207" lon="6.67882">
        <ele>1793.8</ele>
        <time>2023-08-21T09:21:30Z</time>
      </trkpt>
      <trkpt lat="45.69208" lon="6.67885">
        <ele>1793.8</ele>
        <time>2023-08-21T09:21:31Z</time>
      </trkpt>
      <trkpt lat="45.69209" lon="6.67888">
        <ele>1793.8</ele>
        <time>2023-08-21T09:21:32Z</time>
      </trkpt>
      <trkpt lat="45.6921" lon="6.6789">
        <ele>1793.8</ele>
        <time>2023-08-21T09:21:33Z</time>
      </trkpt>
      <trkpt lat="45.6921" lon="6.67893">
        <ele>1794.2</ele>
        <time>2023-08-21T09:21:34Z</time>
      </trkpt>
      <trkpt lat="45.69211" lon="6.67895">
        <ele>1794.4</ele>
        <time>2023-08-21T09:21:35Z</time>
      </trkpt>
      <trkpt lat="45.69212" lon="6.67898">
        <ele>1794.4</ele>
        <time>2023-08-21T09:21:36Z</time>
      </trkpt>
      <trkpt lat="45.69212" lon="6.67901">
        <ele>1794.4</ele>
        <time>2023-08-21T09:21:37Z</time>
      </trkpt>
      <trkpt lat="45.69213" lon="6.67903">
        <ele>1795</ele>
        <time>2023-08-21T09:21:38Z</time>
      </trkpt>
      <trkpt lat="45.69214" lon="6.67906">
        <ele>1795</ele>
        <time>2023-08-21T09:21:39Z</time>
      </trkpt>
      <trkpt lat="45.69216" lon="6.67909">
        <ele>1795</ele>
        <time>2023-08-21T09:21:40Z</time>
      </trkpt>
      <trkpt lat="45.69217" lon="6.67911">
        <ele>1795</ele>
        <time>2023-08-21T09:21:41Z</time>
      </trkpt>
      <trkpt lat="45.69218" lon="6.67913">
        <ele>1795</ele>
        <time>2023-08-21T09:21:42Z</time>
      </trkpt>
      <trkpt lat="45.6922" lon="6.67915">
        <ele>1795.4</ele>
        <time>2023-08-21T09:21:43Z</time>
      </trkpt>
      <trkpt lat="45.69222" lon="6.67917">
        <ele>1795.4</ele>
        <time>2023-08-21T09:21:44Z</time>
      </trkpt>
      <trkpt lat="45.69223" lon="6.67919">
        <ele>1795.4</ele>
        <time>2023-08-21T09:21:45Z</time>
      </trkpt>
      <trkpt lat="45.69225" lon="6.67921">
        <ele>1795.4</ele>
        <time>2023-08-21T09:21:46Z</time>
      </trkpt>
      <trkpt lat="45.69227" lon="6.67923">
        <ele>1796</ele>
        <time>2023-08-21T09:21:47Z</time>
      </trkpt>
      <trkpt lat="45.69229" lon="6.67924">
        <ele>1796</ele>
        <time>2023-08-21T09:21:48Z</time>
      </trkpt>
      <trkpt lat="45.69231" lon="6.67925">
        <ele>1796</ele>
        <time>2023-08-21T09:21:49Z</time>
      </trkpt>
      <trkpt lat="45.69233" lon="6.67927">
        <ele>1796</ele>
        <time>2023-08-21T09:21:50Z</time>
      </trkpt>
      <trkpt lat="45.69235" lon="6.67928">
        <ele>1796.4</ele>
        <time>2023-08-21T09:21:51Z</time>
      </trkpt>
      <trkpt lat="45.69237" lon="6.67929">
        <ele>1796.4</ele>
        <time>2023-08-21T09:21:52Z</time>
      </trkpt>
      <trkpt lat="45.69239" lon="6.6793">
        <ele>1796.6</ele>
        <time>2023-08-21T09:21:53Z</time>
      </trkpt>
      <trkpt lat="45.69241" lon="6.67932">
        <ele>1796.6</ele>
        <time>2023-08-21T09:21:54Z</time>
      </trkpt>
      <trkpt lat="45.69243" lon="6.67933">
        <ele>1797.6</ele>
        <time>2023-08-21T09:21:55Z</time>
      </trkpt>
      <trkpt lat="45.69245" lon="6.67934">
        <ele>1797.6</ele>
        <time>2023-08-21T09:21:56Z</time>
      </trkpt>
      <trkpt lat="45.69247" lon="6.67936">
        <ele>1797.6</ele>
        <time>2023-08-21T09:21:57Z</time>
      </trkpt>
      <trkpt lat="45.6925" lon="6.67936">
        <ele>1797.4</ele>
        <time>2023-08-21T09:21:58Z</time>
      </trkpt>
      <trkpt lat="45.69252" lon="6.67938">
        <ele>1797.4</ele>
        <time>2023-08-21T09:21:59Z</time>
      </trkpt>
      <trkpt lat="45.69254" lon="6.67939">
        <ele>1797.4</ele>
        <time>2023-08-21T09:22:00Z</time>
      </trkpt>
      <trkpt lat="45.69256" lon="6.67939">
        <ele>1798</ele>
        <time>2023-08-21T09:22:01Z</time>
      </trkpt>
      <trkpt lat="45.69258" lon="6.6794">
        <ele>1798</ele>
        <time>2023-08-21T09:22:02Z</time>
      </trkpt>
      <trkpt lat="45.6926" lon="6.67941">
        <ele>1798.2</ele>
        <time>2023-08-21T09:22:03Z</time>
      </trkpt>
      <trkpt lat="45.69262" lon="6.67942">
        <ele>1798.2</ele>
        <time>2023-08-21T09:22:04Z</time>
      </trkpt>
      <trkpt lat="45.69264" lon="6.67943">
        <ele>1798.8</ele>
        <time>2023-08-21T09:22:05Z</time>
      </trkpt>
      <trkpt lat="45.69266" lon="6.67944">
        <ele>1798.8</ele>
        <time>2023-08-21T09:22:06Z</time>
      </trkpt>
      <trkpt lat="45.69267" lon="6.67945">
        <ele>1799.2</ele>
        <time>2023-08-21T09:22:07Z</time>
      </trkpt>
      <trkpt lat="45.69269" lon="6.67946">
        <ele>1799.2</ele>
        <time>2023-08-21T09:22:08Z</time>
      </trkpt>
      <trkpt lat="45.69271" lon="6.67947">
        <ele>1799.2</ele>
        <time>2023-08-21T09:22:09Z</time>
      </trkpt>
      <trkpt lat="45.69272" lon="6.67948">
        <ele>1799.4</ele>
        <time>2023-08-21T09:22:10Z</time>
      </trkpt>
      <trkpt lat="45.69274" lon="6.67949">
        <ele>1799.8</ele>
        <time>2023-08-21T09:22:11Z</time>
      </trkpt>
      <trkpt lat="45.69276" lon="6.6795">
        <ele>1799.8</ele>
        <time>2023-08-21T09:22:12Z</time>
      </trkpt>
      <trkpt lat="45.69277" lon="6.67951">
        <ele>1799.8</ele>
        <time>2023-08-21T09:22:13Z</time>
      </trkpt>
      <trkpt lat="45.69279" lon="6.67953">
        <ele>1800.2</ele>
        <time>2023-08-21T09:22:14Z</time>
      </trkpt>
      <trkpt lat="45.69281" lon="6.67954">
        <ele>1800.6</ele>
        <time>2023-08-21T09:22:15Z</time>
      </trkpt>
      <trkpt lat="45.69282" lon="6.67955">
        <ele>1800.6</ele>
        <time>2023-08-21T09:22:16Z</time>
      </trkpt>
      <trkpt lat="45.69284" lon="6.67956">
        <ele>1800.6</ele>
        <time>2023-08-21T09:22:17Z</time>
      </trkpt>
      <trkpt lat="45.69286" lon="6.67958">
        <ele>1800.6</ele>
        <time>2023-08-21T09:22:18Z</time>
      </trkpt>
      <trkpt lat="45.69288" lon="6.6796">
        <ele>1801</ele>
        <time>2023-08-21T09:22:19Z</time>
      </trkpt>
      <trkpt lat="45.69289" lon="6.67962">
        <ele>1801.2</ele>
        <time>2023-08-21T09:22:20Z</time>
      </trkpt>
      <trkpt lat="45.69291" lon="6.67964">
        <ele>1801.2</ele>
        <time>2023-08-21T09:22:21Z</time>
      </trkpt>
      <trkpt lat="45.69292" lon="6.67966">
        <ele>1801.2</ele>
        <time>2023-08-21T09:22:22Z</time>
      </trkpt>
      <trkpt lat="45.69294" lon="6.67968">
        <ele>1801.8</ele>
        <time>2023-08-21T09:22:23Z</time>
      </trkpt>
      <trkpt lat="45.69295" lon="6.67971">
        <ele>1801.8</ele>
        <time>2023-08-21T09:22:24Z</time>
      </trkpt>
      <trkpt lat="45.69296" lon="6.67973">
        <ele>1801.8</ele>
        <time>2023-08-21T09:22:25Z</time>
      </trkpt>
      <trkpt lat="45.69297" lon="6.67975">
        <ele>1801.8</ele>
        <time>2023-08-21T09:22:26Z</time>
      </trkpt>
      <trkpt lat="45.69298" lon="6.67977">
        <ele>1802.4</ele>
        <time>2023-08-21T09:22:27Z</time>
      </trkpt>
      <trkpt lat="45.69299" lon="6.67979">
        <ele>1802.6</ele>
        <time>2023-08-21T09:22:28Z</time>
      </trkpt>
      <trkpt lat="45.693" lon="6.67981">
        <ele>1802.6</ele>
        <time>2023-08-21T09:22:29Z</time>
      </trkpt>
      <trkpt lat="45.69301" lon="6.67984">
        <ele>1802.6</ele>
        <time>2023-08-21T09:22:30Z</time>
      </trkpt>
      <trkpt lat="45.69301" lon="6.67986">
        <ele>1802.6</ele>
        <time>2023-08-21T09:22:31Z</time>
      </trkpt>
      <trkpt lat="45.69302" lon="6.67988">
        <ele>1803.2</ele>
        <time>2023-08-21T09:22:32Z</time>
      </trkpt>
      <trkpt lat="45.69303" lon="6.67991">
        <ele>1803.2</ele>
        <time>2023-08-21T09:22:33Z</time>
      </trkpt>
      <trkpt lat="45.69303" lon="6.67993">
        <ele>1803.2</ele>
        <time>2023-08-21T09:22:34Z</time>
      </trkpt>
      <trkpt lat="45.69303" lon="6.67996">
        <ele>1803.2</ele>
        <time>2023-08-21T09:22:35Z</time>
      </trkpt>
      <trkpt lat="45.69303" lon="6.67999">
        <ele>1804</ele>
        <time>2023-08-21T09:22:36Z</time>
      </trkpt>
      <trkpt lat="45.69304" lon="6.68001">
        <ele>1804.2</ele>
        <time>2023-08-21T09:22:37Z</time>
      </trkpt>
      <trkpt lat="45.69304" lon="6.68004">
        <ele>1804.2</ele>
        <time>2023-08-21T09:22:38Z</time>
      </trkpt>
      <trkpt lat="45.69305" lon="6.68006">
        <ele>1804.2</ele>
        <time>2023-08-21T09:22:39Z</time>
      </trkpt>
      <trkpt lat="45.69306" lon="6.68009">
        <ele>1804.2</ele>
        <time>2023-08-21T09:22:40Z</time>
      </trkpt>
      <trkpt lat="45.69307" lon="6.68011">
        <ele>1805</ele>
        <time>2023-08-21T09:22:41Z</time>
      </trkpt>
      <trkpt lat="45.69308" lon="6.68014">
        <ele>1805.2</ele>
        <time>2023-08-21T09:22:42Z</time>
      </trkpt>
      <trkpt lat="45.69308" lon="6.68016">
        <ele>1805.2</ele>
        <time>2023-08-21T09:22:43Z</time>
      </trkpt>
      <trkpt lat="45.69309" lon="6.68019">
        <ele>1805.2</ele>
        <time>2023-08-21T09:22:44Z</time>
      </trkpt>
      <trkpt lat="45.69309" lon="6.68021">
        <ele>1805.2</ele>
        <time>2023-08-21T09:22:45Z</time>
      </trkpt>
      <trkpt lat="45.6931" lon="6.68024">
        <ele>1805.8</ele>
        <time>2023-08-21T09:22:46Z</time>
      </trkpt>
      <trkpt lat="45.69311" lon="6.68026">
        <ele>1806</ele>
        <time>2023-08-21T09:22:47Z</time>
      </trkpt>
      <trkpt lat="45.69311" lon="6.68029">
        <ele>1806</ele>
        <time>2023-08-21T09:22:48Z</time>
      </trkpt>
      <trkpt lat="45.69312" lon="6.68031">
        <ele>1806</ele>
        <time>2023-08-21T09:22:49Z</time>
      </trkpt>
      <trkpt lat="45.69312" lon="6.68034">
        <ele>1806.8</ele>
        <time>2023-08-21T09:22:50Z</time>
      </trkpt>
      <trkpt lat="45.69312" lon="6.68036">
        <ele>1807</ele>
        <time>2023-08-21T09:22:51Z</time>
      </trkpt>
      <trkpt lat="45.69313" lon="6.68039">
        <ele>1807</ele>
        <time>2023-08-21T09:22:52Z</time>
      </trkpt>
      <trkpt lat="45.69313" lon="6.68041">
        <ele>1807</ele>
        <time>2023-08-21T09:22:53Z</time>
      </trkpt>
      <trkpt lat="45.69314" lon="6.68043">
        <ele>1807</ele>
        <time>2023-08-21T09:22:54Z</time>
      </trkpt>
      <trkpt lat="45.69315" lon="6.68045">
        <ele>1807.4</ele>
        <time>2023-08-21T09:22:55Z</time>
      </trkpt>
      <trkpt lat="45.69315" lon="6.68048">
        <ele>1807.8</ele>
        <time>2023-08-21T09:22:56Z</time>
      </trkpt>
      <trkpt lat="45.69315" lon="6.6805">
        <ele>1807.8</ele>
        <time>2023-08-21T09:22:57Z</time>
      </trkpt>
      <trkpt lat="45.69316" lon="6.68053">
        <ele>1807.8</ele>
        <time>2023-08-21T09:22:58Z</time>
      </trkpt>
      <trkpt lat="45.69316" lon="6.68055">
        <ele>1807.8</ele>
        <time>2023-08-21T09:22:59Z</time>
      </trkpt>
      <trkpt lat="45.69316" lon="6.68058">
        <ele>1808.4</ele>
        <time>2023-08-21T09:23:00Z</time>
      </trkpt>
      <trkpt lat="45.69316" lon="6.6806">
        <ele>1808.4</ele>
        <time>2023-08-21T09:23:01Z</time>
      </trkpt>
      <trkpt lat="45.69317" lon="6.68063">
        <ele>1808.4</ele>
        <time>2023-08-21T09:23:02Z</time>
      </trkpt>
      <trkpt lat="45.69317" lon="6.68066">
        <ele>1809.2</ele>
        <time>2023-08-21T09:23:03Z</time>
      </trkpt>
      <trkpt lat="45.69318" lon="6.68068">
        <ele>1809.2</ele>
        <time>2023-08-21T09:23:04Z</time>
      </trkpt>
      <trkpt lat="45.69318" lon="6.68071">
        <ele>1809.2</ele>
        <time>2023-08-21T09:23:05Z</time>
      </trkpt>
      <trkpt lat="45.69319" lon="6.68073">
        <ele>1809.2</ele>
        <time>2023-08-21T09:23:06Z</time>
      </trkpt>
      <trkpt lat="45.69319" lon="6.68076">
        <ele>1809.2</ele>
        <time>2023-08-21T09:23:07Z</time>
      </trkpt>
      <trkpt lat="45.69319" lon="6.68078">
        <ele>1809.2</ele>
        <time>2023-08-21T09:23:08Z</time>
      </trkpt>
      <trkpt lat="45.6932" lon="6.68081">
        <ele>1809.6</ele>
        <time>2023-08-21T09:23:09Z</time>
      </trkpt>
      <trkpt lat="45.6932" lon="6.68083">
        <ele>1809.6</ele>
        <time>2023-08-21T09:23:10Z</time>
      </trkpt>
      <trkpt lat="45.69321" lon="6.68086">
        <ele>1809.6</ele>
        <time>2023-08-21T09:23:11Z</time>
      </trkpt>
      <trkpt lat="45.69321" lon="6.68089">
        <ele>1810.2</ele>
        <time>2023-08-21T09:23:12Z</time>
      </trkpt>
      <trkpt lat="45.69321" lon="6.68091">
        <ele>1810</ele>
        <time>2023-08-21T09:23:13Z</time>
      </trkpt>
      <trkpt lat="45.69321" lon="6.68093">
        <ele>1810</ele>
        <time>2023-08-21T09:23:14Z</time>
      </trkpt>
      <trkpt lat="45.69321" lon="6.68096">
        <ele>1810</ele>
        <time>2023-08-21T09:23:15Z</time>
      </trkpt>
      <trkpt lat="45.69322" lon="6.68098">
        <ele>1810</ele>
        <time>2023-08-21T09:23:16Z</time>
      </trkpt>
      <trkpt lat="45.69322" lon="6.68101">
        <ele>1810.4</ele>
        <time>2023-08-21T09:23:17Z</time>
      </trkpt>
      <trkpt lat="45.69322" lon="6.68104">
        <ele>1810.6</ele>
        <time>2023-08-21T09:23:18Z</time>
      </trkpt>
      <trkpt lat="45.69322" lon="6.68106">
        <ele>1810.6</ele>
        <time>2023-08-21T09:23:19Z</time>
      </trkpt>
      <trkpt lat="45.69322" lon="6.68109">
        <ele>1810.6</ele>
        <time>2023-08-21T09:23:20Z</time>
      </trkpt>
      <trkpt lat="45.69322" lon="6.68112">
        <ele>1811.2</ele>
        <time>2023-08-21T09:23:21Z</time>
      </trkpt>
      <trkpt lat="45.69322" lon="6.68115">
        <ele>1811.2</ele>
        <time>2023-08-21T09:23:22Z</time>
      </trkpt>
      <trkpt lat="45.69323" lon="6.68117">
        <ele>1811.2</ele>
        <time>2023-08-21T09:23:23Z</time>
      </trkpt>
      <trkpt lat="45.69323" lon="6.68119">
        <ele>1811.4</ele>
        <time>2023-08-21T09:23:24Z</time>
      </trkpt>
      <trkpt lat="45.69324" lon="6.68122">
        <ele>1811.4</ele>
        <time>2023-08-21T09:23:25Z</time>
      </trkpt>
      <trkpt lat="45.69325" lon="6.68125">
        <ele>1811.6</ele>
        <time>2023-08-21T09:23:26Z</time>
      </trkpt>
      <trkpt lat="45.69325" lon="6.68128">
        <ele>1811.6</ele>
        <time>2023-08-21T09:23:27Z</time>
      </trkpt>
      <trkpt lat="45.69326" lon="6.6813">
        <ele>1811.6</ele>
        <time>2023-08-21T09:23:28Z</time>
      </trkpt>
      <trkpt lat="45.69326" lon="6.68133">
        <ele>1811.6</ele>
        <time>2023-08-21T09:23:29Z</time>
      </trkpt>
      <trkpt lat="45.69327" lon="6.68135">
        <ele>1811.6</ele>
        <time>2023-08-21T09:23:30Z</time>
      </trkpt>
      <trkpt lat="45.69327" lon="6.68137">
        <ele>1812.4</ele>
        <time>2023-08-21T09:23:31Z</time>
      </trkpt>
      <trkpt lat="45.69328" lon="6.6814">
        <ele>1812.4</ele>
        <time>2023-08-21T09:23:32Z</time>
      </trkpt>
      <trkpt lat="45.69328" lon="6.68142">
        <ele>1812.4</ele>
        <time>2023-08-21T09:23:33Z</time>
      </trkpt>
      <trkpt lat="45.69329" lon="6.68144">
        <ele>1812.4</ele>
        <time>2023-08-21T09:23:34Z</time>
      </trkpt>
      <trkpt lat="45.6933" lon="6.68147">
        <ele>1812.8</ele>
        <time>2023-08-21T09:23:35Z</time>
      </trkpt>
      <trkpt lat="45.69331" lon="6.68149">
        <ele>1812.8</ele>
        <time>2023-08-21T09:23:36Z</time>
      </trkpt>
      <trkpt lat="45.69331" lon="6.68151">
        <ele>1813</ele>
        <time>2023-08-21T09:23:37Z</time>
      </trkpt>
      <trkpt lat="45.69333" lon="6.68153">
        <ele>1813</ele>
        <time>2023-08-21T09:23:38Z</time>
      </trkpt>
      <trkpt lat="45.69334" lon="6.68156">
        <ele>1813</ele>
        <time>2023-08-21T09:23:39Z</time>
      </trkpt>
      <trkpt lat="45.69335" lon="6.68158">
        <ele>1813.4</ele>
        <time>2023-08-21T09:23:40Z</time>
      </trkpt>
      <trkpt lat="45.69337" lon="6.68159">
        <ele>1813.4</ele>
        <time>2023-08-21T09:23:41Z</time>
      </trkpt>
      <trkpt lat="45.69338" lon="6.68161">
        <ele>1813.4</ele>
        <time>2023-08-21T09:23:42Z</time>
      </trkpt>
      <trkpt lat="45.69339" lon="6.68163">
        <ele>1813.4</ele>
        <time>2023-08-21T09:23:43Z</time>
      </trkpt>
      <trkpt lat="45.69341" lon="6.68165">
        <ele>1813.8</ele>
        <time>2023-08-21T09:23:44Z</time>
      </trkpt>
      <trkpt lat="45.69342" lon="6.68166">
        <ele>1814</ele>
        <time>2023-08-21T09:23:45Z</time>
      </trkpt>
      <trkpt lat="45.69344" lon="6.68168">
        <ele>1814</ele>
        <time>2023-08-21T09:23:46Z</time>
      </trkpt>
      <trkpt lat="45.69346" lon="6.6817">
        <ele>1814</ele>
        <time>2023-08-21T09:23:47Z</time>
      </trkpt>
      <trkpt lat="45.69348" lon="6.68172">
        <ele>1814</ele>
        <time>2023-08-21T09:23:48Z</time>
      </trkpt>
      <trkpt lat="45.6935" lon="6.68174">
        <ele>1814.6</ele>
        <time>2023-08-21T09:23:49Z</time>
      </trkpt>
      <trkpt lat="45.69351" lon="6.68175">
        <ele>1814.8</ele>
        <time>2023-08-21T09:23:50Z</time>
      </trkpt>
      <trkpt lat="45.69353" lon="6.68177">
        <ele>1814.8</ele>
        <time>2023-08-21T09:23:51Z</time>
      </trkpt>
      <trkpt lat="45.69355" lon="6.68179">
        <ele>1814.8</ele>
        <time>2023-08-21T09:23:52Z</time>
      </trkpt>
      <trkpt lat="45.69356" lon="6.68181">
        <ele>1815.6</ele>
        <time>2023-08-21T09:23:53Z</time>
      </trkpt>
      <trkpt lat="45.69358" lon="6.68183">
        <ele>1815.8</ele>
        <time>2023-08-21T09:23:54Z</time>
      </trkpt>
      <trkpt lat="45.69359" lon="6.68185">
        <ele>1815.8</ele>
        <time>2023-08-21T09:23:55Z</time>
      </trkpt>
      <trkpt lat="45.69361" lon="6.68187">
        <ele>1815.8</ele>
        <time>2023-08-21T09:23:56Z</time>
      </trkpt>
      <trkpt lat="45.69363" lon="6.68188">
        <ele>1816.2</ele>
        <time>2023-08-21T09:23:57Z</time>
      </trkpt>
      <trkpt lat="45.69364" lon="6.6819">
        <ele>1816.4</ele>
        <time>2023-08-21T09:23:58Z</time>
      </trkpt>
      <trkpt lat="45.69365" lon="6.68192">
        <ele>1816.4</ele>
        <time>2023-08-21T09:23:59Z</time>
      </trkpt>
      <trkpt lat="45.69367" lon="6.68193">
        <ele>1816.4</ele>
        <time>2023-08-21T09:24:00Z</time>
      </trkpt>
      <trkpt lat="45.69368" lon="6.68195">
        <ele>1816.4</ele>
        <time>2023-08-21T09:24:01Z</time>
      </trkpt>
      <trkpt lat="45.6937" lon="6.68197">
        <ele>1816.8</ele>
        <time>2023-08-21T09:24:02Z</time>
      </trkpt>
      <trkpt lat="45.69371" lon="6.68199">
        <ele>1816.8</ele>
        <time>2023-08-21T09:24:03Z</time>
      </trkpt>
      <trkpt lat="45.69373" lon="6.68201">
        <ele>1817</ele>
        <time>2023-08-21T09:24:04Z</time>
      </trkpt>
      <trkpt lat="45.69375" lon="6.68203">
        <ele>1817</ele>
        <time>2023-08-21T09:24:05Z</time>
      </trkpt>
      <trkpt lat="45.69376" lon="6.68205">
        <ele>1817</ele>
        <time>2023-08-21T09:24:06Z</time>
      </trkpt>
      <trkpt lat="45.69378" lon="6.68206">
        <ele>1817.4</ele>
        <time>2023-08-21T09:24:07Z</time>
      </trkpt>
      <trkpt lat="45.6938" lon="6.68208">
        <ele>1817.4</ele>
        <time>2023-08-21T09:24:08Z</time>
      </trkpt>
      <trkpt lat="45.69381" lon="6.6821">
        <ele>1817.4</ele>
        <time>2023-08-21T09:24:09Z</time>
      </trkpt>
      <trkpt lat="45.69383" lon="6.68212">
        <ele>1817.4</ele>
        <time>2023-08-21T09:24:10Z</time>
      </trkpt>
      <trkpt lat="45.69384" lon="6.68214">
        <ele>1817.4</ele>
        <time>2023-08-21T09:24:11Z</time>
      </trkpt>
      <trkpt lat="45.69386" lon="6.68216">
        <ele>1817.8</ele>
        <time>2023-08-21T09:24:12Z</time>
      </trkpt>
      <trkpt lat="45.69388" lon="6.68217">
        <ele>1818</ele>
        <time>2023-08-21T09:24:13Z</time>
      </trkpt>
      <trkpt lat="45.6939" lon="6.68219">
        <ele>1818</ele>
        <time>2023-08-21T09:24:14Z</time>
      </trkpt>
      <trkpt lat="45.69392" lon="6.68221">
        <ele>1818</ele>
        <time>2023-08-21T09:24:15Z</time>
      </trkpt>
      <trkpt lat="45.69394" lon="6.68223">
        <ele>1818</ele>
        <time>2023-08-21T09:24:16Z</time>
      </trkpt>
      <trkpt lat="45.69395" lon="6.68224">
        <ele>1818.4</ele>
        <time>2023-08-21T09:24:17Z</time>
      </trkpt>
      <trkpt lat="45.69397" lon="6.68225">
        <ele>1818.4</ele>
        <time>2023-08-21T09:24:18Z</time>
      </trkpt>
      <trkpt lat="45.69399" lon="6.68227">
        <ele>1818.4</ele>
        <time>2023-08-21T09:24:19Z</time>
      </trkpt>
      <trkpt lat="45.69401" lon="6.68228">
        <ele>1818.4</ele>
        <time>2023-08-21T09:24:20Z</time>
      </trkpt>
      <trkpt lat="45.69403" lon="6.68229">
        <ele>1818.8</ele>
        <time>2023-08-21T09:24:21Z</time>
      </trkpt>
      <trkpt lat="45.69405" lon="6.68231">
        <ele>1818.8</ele>
        <time>2023-08-21T09:24:22Z</time>
      </trkpt>
      <trkpt lat="45.69407" lon="6.68232">
        <ele>1818.8</ele>
        <time>2023-08-21T09:24:23Z</time>
      </trkpt>
      <trkpt lat="45.69409" lon="6.68233">
        <ele>1818.8</ele>
        <time>2023-08-21T09:24:24Z</time>
      </trkpt>
      <trkpt lat="45.69411" lon="6.68235">
        <ele>1819.2</ele>
        <time>2023-08-21T09:24:25Z</time>
      </trkpt>
      <trkpt lat="45.69412" lon="6.68237">
        <ele>1819.2</ele>
        <time>2023-08-21T09:24:26Z</time>
      </trkpt>
      <trkpt lat="45.69414" lon="6.6824">
        <ele>1819.4</ele>
        <time>2023-08-21T09:24:27Z</time>
      </trkpt>
      <trkpt lat="45.69415" lon="6.68242">
        <ele>1819.4</ele>
        <time>2023-08-21T09:24:28Z</time>
      </trkpt>
      <trkpt lat="45.69416" lon="6.68244">
        <ele>1819.8</ele>
        <time>2023-08-21T09:24:29Z</time>
      </trkpt>
      <trkpt lat="45.69417" lon="6.68247">
        <ele>1819.8</ele>
        <time>2023-08-21T09:24:30Z</time>
      </trkpt>
      <trkpt lat="45.69418" lon="6.68249">
        <ele>1820</ele>
        <time>2023-08-21T09:24:31Z</time>
      </trkpt>
      <trkpt lat="45.69419" lon="6.68252">
        <ele>1820</ele>
        <time>2023-08-21T09:24:32Z</time>
      </trkpt>
      <trkpt lat="45.69419" lon="6.68255">
        <ele>1820</ele>
        <time>2023-08-21T09:24:33Z</time>
      </trkpt>
      <trkpt lat="45.69419" lon="6.68257">
        <ele>1820.6</ele>
        <time>2023-08-21T09:24:34Z</time>
      </trkpt>
      <trkpt lat="45.69419" lon="6.6826">
        <ele>1820.6</ele>
        <time>2023-08-21T09:24:35Z</time>
      </trkpt>
      <trkpt lat="45.69418" lon="6.68262">
        <ele>1820.6</ele>
        <time>2023-08-21T09:24:36Z</time>
      </trkpt>
      <trkpt lat="45.69417" lon="6.68265">
        <ele>1820.6</ele>
        <time>2023-08-21T09:24:37Z</time>
      </trkpt>
      <trkpt lat="45.69415" lon="6.68267">
        <ele>1820.6</ele>
        <time>2023-08-21T09:24:38Z</time>
      </trkpt>
      <trkpt lat="45.69414" lon="6.68269">
        <ele>1821.4</ele>
        <time>2023-08-21T09:24:39Z</time>
      </trkpt>
      <trkpt lat="45.69412" lon="6.68271">
        <ele>1821.4</ele>
        <time>2023-08-21T09:24:40Z</time>
      </trkpt>
      <trkpt lat="45.6941" lon="6.68272">
        <ele>1821.4</ele>
        <time>2023-08-21T09:24:41Z</time>
      </trkpt>
      <trkpt lat="45.69407" lon="6.68272">
        <ele>1821.4</ele>
        <time>2023-08-21T09:24:42Z</time>
      </trkpt>
      <trkpt lat="45.69405" lon="6.68272">
        <ele>1821.4</ele>
        <time>2023-08-21T09:24:43Z</time>
      </trkpt>
      <trkpt lat="45.69403" lon="6.68272">
        <ele>1821.8</ele>
        <time>2023-08-21T09:24:44Z</time>
      </trkpt>
      <trkpt lat="45.694" lon="6.68272">
        <ele>1821.8</ele>
        <time>2023-08-21T09:24:45Z</time>
      </trkpt>
      <trkpt lat="45.69398" lon="6.68271">
        <ele>1821.8</ele>
        <time>2023-08-21T09:24:46Z</time>
      </trkpt>
      <trkpt lat="45.69395" lon="6.6827">
        <ele>1821.8</ele>
        <time>2023-08-21T09:24:47Z</time>
      </trkpt>
      <trkpt lat="45.69393" lon="6.68269">
        <ele>1822.4</ele>
        <time>2023-08-21T09:24:48Z</time>
      </trkpt>
      <trkpt lat="45.69392" lon="6.68267">
        <ele>1822.6</ele>
        <time>2023-08-21T09:24:49Z</time>
      </trkpt>
      <trkpt lat="45.6939" lon="6.68266">
        <ele>1822.6</ele>
        <time>2023-08-21T09:24:50Z</time>
      </trkpt>
      <trkpt lat="45.69388" lon="6.68264">
        <ele>1822.6</ele>
        <time>2023-08-21T09:24:51Z</time>
      </trkpt>
      <trkpt lat="45.69387" lon="6.68263">
        <ele>1823.2</ele>
        <time>2023-08-21T09:24:52Z</time>
      </trkpt>
      <trkpt lat="45.69385" lon="6.68262">
        <ele>1823.4</ele>
        <time>2023-08-21T09:24:53Z</time>
      </trkpt>
      <trkpt lat="45.69382" lon="6.6826">
        <ele>1823.4</ele>
        <time>2023-08-21T09:24:54Z</time>
      </trkpt>
      <trkpt lat="45.6938" lon="6.68259">
        <ele>1823.4</ele>
        <time>2023-08-21T09:24:55Z</time>
      </trkpt>
      <trkpt lat="45.69378" lon="6.68258">
        <ele>1823.4</ele>
        <time>2023-08-21T09:24:56Z</time>
      </trkpt>
      <trkpt lat="45.69376" lon="6.68256">
        <ele>1823.6</ele>
        <time>2023-08-21T09:24:57Z</time>
      </trkpt>
      <trkpt lat="45.69374" lon="6.68254">
        <ele>1824</ele>
        <time>2023-08-21T09:24:58Z</time>
      </trkpt>
      <trkpt lat="45.69372" lon="6.68252">
        <ele>1824</ele>
        <time>2023-08-21T09:24:59Z</time>
      </trkpt>
      <trkpt lat="45.6937" lon="6.68251">
        <ele>1824</ele>
        <time>2023-08-21T09:25:00Z</time>
      </trkpt>
      <trkpt lat="45.69368" lon="6.68249">
        <ele>1824</ele>
        <time>2023-08-21T09:25:01Z</time>
      </trkpt>
      <trkpt lat="45.69366" lon="6.68247">
        <ele>1824.8</ele>
        <time>2023-08-21T09:25:02Z</time>
      </trkpt>
      <trkpt lat="45.69364" lon="6.68246">
        <ele>1824.8</ele>
        <time>2023-08-21T09:25:03Z</time>
      </trkpt>
      <trkpt lat="45.69362" lon="6.68244">
        <ele>1824.8</ele>
        <time>2023-08-21T09:25:04Z</time>
      </trkpt>
      <trkpt lat="45.69359" lon="6.68243">
        <ele>1824.8</ele>
        <time>2023-08-21T09:25:05Z</time>
      </trkpt>
      <trkpt lat="45.69357" lon="6.68241">
        <ele>1825.4</ele>
        <time>2023-08-21T09:25:06Z</time>
      </trkpt>
      <trkpt lat="45.69355" lon="6.6824">
        <ele>1825.2</ele>
        <time>2023-08-21T09:25:07Z</time>
      </trkpt>
      <trkpt lat="45.69352" lon="6.68239">
        <ele>1825.2</ele>
        <time>2023-08-21T09:25:08Z</time>
      </trkpt>
      <trkpt lat="45.6935" lon="6.68237">
        <ele>1825.2</ele>
        <time>2023-08-21T09:25:09Z</time>
      </trkpt>
      <trkpt lat="45.69347" lon="6.68236">
        <ele>1825.6</ele>
        <time>2023-08-21T09:25:10Z</time>
      </trkpt>
      <trkpt lat="45.69345" lon="6.68235">
        <ele>1825.8</ele>
        <time>2023-08-21T09:25:11Z</time>
      </trkpt>
      <trkpt lat="45.69343" lon="6.68233">
        <ele>1825.8</ele>
        <time>2023-08-21T09:25:12Z</time>
      </trkpt>
      <trkpt lat="45.69341" lon="6.68231">
        <ele>1825.8</ele>
        <time>2023-08-21T09:25:13Z</time>
      </trkpt>
      <trkpt lat="45.69338" lon="6.68229">
        <ele>1825.8</ele>
        <time>2023-08-21T09:25:14Z</time>
      </trkpt>
      <trkpt lat="45.69336" lon="6.68227">
        <ele>1826</ele>
        <time>2023-08-21T09:25:15Z</time>
      </trkpt>
      <trkpt lat="45.69333" lon="6.68226">
        <ele>1826.2</ele>
        <time>2023-08-21T09:25:16Z</time>
      </trkpt>
      <trkpt lat="45.69331" lon="6.68224">
        <ele>1826.2</ele>
        <time>2023-08-21T09:25:17Z</time>
      </trkpt>
      <trkpt lat="45.69329" lon="6.68223">
        <ele>1826.2</ele>
        <time>2023-08-21T09:25:18Z</time>
      </trkpt>
      <trkpt lat="45.69326" lon="6.68221">
        <ele>1826.2</ele>
        <time>2023-08-21T09:25:19Z</time>
      </trkpt>
      <trkpt lat="45.69323" lon="6.6822">
        <ele>1826.2</ele>
        <time>2023-08-21T09:25:20Z</time>
      </trkpt>
      <trkpt lat="45.69321" lon="6.68218">
        <ele>1826.6</ele>
        <time>2023-08-21T09:25:21Z</time>
      </trkpt>
      <trkpt lat="45.69318" lon="6.68217">
        <ele>1826.6</ele>
        <time>2023-08-21T09:25:22Z</time>
      </trkpt>
      <trkpt lat="45.69315" lon="6.68216">
        <ele>1826.8</ele>
        <time>2023-08-21T09:25:23Z</time>
      </trkpt>
      <trkpt lat="45.69313" lon="6.68215">
        <ele>1826.8</ele>
        <time>2023-08-21T09:25:24Z</time>
      </trkpt>
      <trkpt lat="45.6931" lon="6.68213">
        <ele>1827</ele>
        <time>2023-08-21T09:25:25Z</time>
      </trkpt>
      <trkpt lat="45.69307" lon="6.68211">
        <ele>1827</ele>
        <time>2023-08-21T09:25:26Z</time>
      </trkpt>
      <trkpt lat="45.69305" lon="6.6821">
        <ele>1827</ele>
        <time>2023-08-21T09:25:27Z</time>
      </trkpt>
      <trkpt lat="45.69302" lon="6.68208">
        <ele>1827</ele>
        <time>2023-08-21T09:25:28Z</time>
      </trkpt>
      <trkpt lat="45.69299" lon="6.68206">
        <ele>1827.4</ele>
        <time>2023-08-21T09:25:29Z</time>
      </trkpt>
      <trkpt lat="45.69297" lon="6.68205">
        <ele>1827.4</ele>
        <time>2023-08-21T09:25:30Z</time>
      </trkpt>
      <trkpt lat="45.69294" lon="6.68203">
        <ele>1827.4</ele>
        <time>2023-08-21T09:25:31Z</time>
      </trkpt>
      <trkpt lat="45.69291" lon="6.68201">
        <ele>1827.4</ele>
        <time>2023-08-21T09:25:32Z</time>
      </trkpt>
      <trkpt lat="45.69289" lon="6.682">
        <ele>1827.4</ele>
        <time>2023-08-21T09:25:33Z</time>
      </trkpt>
      <trkpt lat="45.69286" lon="6.68198">
        <ele>1827.8</ele>
        <time>2023-08-21T09:25:34Z</time>
      </trkpt>
      <trkpt lat="45.69283" lon="6.68197">
        <ele>1828</ele>
        <time>2023-08-21T09:25:35Z</time>
      </trkpt>
      <trkpt lat="45.6928" lon="6.68195">
        <ele>1828</ele>
        <time>2023-08-21T09:25:36Z</time>
      </trkpt>
      <trkpt lat="45.69277" lon="6.68194">
        <ele>1828</ele>
        <time>2023-08-21T09:25:37Z</time>
      </trkpt>
      <trkpt lat="45.69275" lon="6.68192">
        <ele>1828.4</ele>
        <time>2023-08-21T09:25:38Z</time>
      </trkpt>
      <trkpt lat="45.69272" lon="6.68191">
        <ele>1828.4</ele>
        <time>2023-08-21T09:25:39Z</time>
      </trkpt>
      <trkpt lat="45.69269" lon="6.68189">
        <ele>1828.4</ele>
        <time>2023-08-21T09:25:40Z</time>
      </trkpt>
      <trkpt lat="45.69266" lon="6.68187">
        <ele>1828.4</ele>
        <time>2023-08-21T09:25:41Z</time>
      </trkpt>
      <trkpt lat="45.69263" lon="6.68186">
        <ele>1828.4</ele>
        <time>2023-08-21T09:25:42Z</time>
      </trkpt>
      <trkpt lat="45.6926" lon="6.68184">
        <ele>1829</ele>
        <time>2023-08-21T09:25:43Z</time>
      </trkpt>
      <trkpt lat="45.69258" lon="6.68182">
        <ele>1829</ele>
        <time>2023-08-21T09:25:44Z</time>
      </trkpt>
      <trkpt lat="45.69255" lon="6.6818">
        <ele>1829</ele>
        <time>2023-08-21T09:25:45Z</time>
      </trkpt>
      <trkpt lat="45.69252" lon="6.68177">
        <ele>1829</ele>
        <time>2023-08-21T09:25:46Z</time>
      </trkpt>
      <trkpt lat="45.6925" lon="6.68174">
        <ele>1829</ele>
        <time>2023-08-21T09:25:47Z</time>
      </trkpt>
      <trkpt lat="45.69247" lon="6.68172">
        <ele>1829.2</ele>
        <time>2023-08-21T09:25:48Z</time>
      </trkpt>
      <trkpt lat="45.69245" lon="6.68169">
        <ele>1829.2</ele>
        <time>2023-08-21T09:25:49Z</time>
      </trkpt>
      <trkpt lat="45.69243" lon="6.68166">
        <ele>1829.2</ele>
        <time>2023-08-21T09:25:50Z</time>
      </trkpt>
      <trkpt lat="45.69241" lon="6.68163">
        <ele>1829.2</ele>
        <time>2023-08-21T09:25:51Z</time>
      </trkpt>
      <trkpt lat="45.69239" lon="6.6816">
        <ele>1829.4</ele>
        <time>2023-08-21T09:25:52Z</time>
      </trkpt>
      <trkpt lat="45.69237" lon="6.68157">
        <ele>1829.4</ele>
        <time>2023-08-21T09:25:53Z</time>
      </trkpt>
      <trkpt lat="45.69235" lon="6.68154">
        <ele>1829.4</ele>
        <time>2023-08-21T09:25:54Z</time>
      </trkpt>
      <trkpt lat="45.69233" lon="6.68151">
        <ele>1829.4</ele>
        <time>2023-08-21T09:25:55Z</time>
      </trkpt>
      <trkpt lat="45.69231" lon="6.68148">
        <ele>1829.4</ele>
        <time>2023-08-21T09:25:56Z</time>
      </trkpt>
      <trkpt lat="45.69229" lon="6.68145">
        <ele>1829.8</ele>
        <time>2023-08-21T09:25:57Z</time>
      </trkpt>
      <trkpt lat="45.69227" lon="6.68142">
        <ele>1829.8</ele>
        <time>2023-08-21T09:25:58Z</time>
      </trkpt>
      <trkpt lat="45.69225" lon="6.68139">
        <ele>1829.8</ele>
        <time>2023-08-21T09:25:59Z</time>
      </trkpt>
      <trkpt lat="45.69223" lon="6.68136">
        <ele>1829.8</ele>
        <time>2023-08-21T09:26:00Z</time>
      </trkpt>
      <trkpt lat="45.6922" lon="6.68133">
        <ele>1830.2</ele>
        <time>2023-08-21T09:26:01Z</time>
      </trkpt>
      <trkpt lat="45.69218" lon="6.6813">
        <ele>1830.2</ele>
        <time>2023-08-21T09:26:02Z</time>
      </trkpt>
      <trkpt lat="45.69216" lon="6.68127">
        <ele>1830.2</ele>
        <time>2023-08-21T09:26:03Z</time>
      </trkpt>
      <trkpt lat="45.69214" lon="6.68124">
        <ele>1830.4</ele>
        <time>2023-08-21T09:26:04Z</time>
      </trkpt>
      <trkpt lat="45.69212" lon="6.68121">
        <ele>1830.4</ele>
        <time>2023-08-21T09:26:05Z</time>
      </trkpt>
      <trkpt lat="45.6921" lon="6.68118">
        <ele>1830.8</ele>
        <time>2023-08-21T09:26:06Z</time>
      </trkpt>
      <trkpt lat="45.69208" lon="6.68115">
        <ele>1830.8</ele>
        <time>2023-08-21T09:26:07Z</time>
      </trkpt>
      <trkpt lat="45.69206" lon="6.68112">
        <ele>1830.8</ele>
        <time>2023-08-21T09:26:08Z</time>
      </trkpt>
      <trkpt lat="45.69204" lon="6.6811">
        <ele>1830.8</ele>
        <time>2023-08-21T09:26:09Z</time>
      </trkpt>
      <trkpt lat="45.69202" lon="6.68107">
        <ele>1831.6</ele>
        <time>2023-08-21T09:26:10Z</time>
      </trkpt>
      <trkpt lat="45.692" lon="6.68105">
        <ele>1831.6</ele>
        <time>2023-08-21T09:26:11Z</time>
      </trkpt>
      <trkpt lat="45.69198" lon="6.68102">
        <ele>1831.6</ele>
        <time>2023-08-21T09:26:12Z</time>
      </trkpt>
      <trkpt lat="45.69196" lon="6.68099">
        <ele>1831.6</ele>
        <time>2023-08-21T09:26:13Z</time>
      </trkpt>
      <trkpt lat="45.69194" lon="6.68096">
        <ele>1831.6</ele>
        <time>2023-08-21T09:26:14Z</time>
      </trkpt>
      <trkpt lat="45.69192" lon="6.68094">
        <ele>1832.2</ele>
        <time>2023-08-21T09:26:15Z</time>
      </trkpt>
      <trkpt lat="45.6919" lon="6.68091">
        <ele>1832.2</ele>
        <time>2023-08-21T09:26:16Z</time>
      </trkpt>
      <trkpt lat="45.69188" lon="6.68089">
        <ele>1832.2</ele>
        <time>2023-08-21T09:26:17Z</time>
      </trkpt>
      <trkpt lat="45.69186" lon="6.68086">
        <ele>1832.2</ele>
        <time>2023-08-21T09:26:18Z</time>
      </trkpt>
      <trkpt lat="45.69185" lon="6.68084">
        <ele>1832.8</ele>
        <time>2023-08-21T09:26:19Z</time>
      </trkpt>
      <trkpt lat="45.69183" lon="6.68081">
        <ele>1833.2</ele>
        <time>2023-08-21T09:26:20Z</time>
      </trkpt>
      <trkpt lat="45.69181" lon="6.68079">
        <ele>1833.2</ele>
        <time>2023-08-21T09:26:21Z</time>
      </trkpt>
      <trkpt lat="45.69179" lon="6.68076">
        <ele>1833.2</ele>
        <time>2023-08-21T09:26:22Z</time>
      </trkpt>
      <trkpt lat="45.69177" lon="6.68074">
        <ele>1833.2</ele>
        <time>2023-08-21T09:26:23Z</time>
      </trkpt>
      <trkpt lat="45.69175" lon="6.68072">
        <ele>1833.6</ele>
        <time>2023-08-21T09:26:24Z</time>
      </trkpt>
      <trkpt lat="45.69173" lon="6.68069">
        <ele>1833.6</ele>
        <time>2023-08-21T09:26:25Z</time>
      </trkpt>
      <trkpt lat="45.69172" lon="6.68067">
        <ele>1833.6</ele>
        <time>2023-08-21T09:26:26Z</time>
      </trkpt>
      <trkpt lat="45.6917" lon="6.68065">
        <ele>1833.6</ele>
        <time>2023-08-21T09:26:27Z</time>
      </trkpt>
      <trkpt lat="45.69168" lon="6.68063">
        <ele>1834.6</ele>
        <time>2023-08-21T09:26:28Z</time>
      </trkpt>
      <trkpt lat="45.69166" lon="6.6806">
        <ele>1834.6</ele>
        <time>2023-08-21T09:26:29Z</time>
      </trkpt>
      <trkpt lat="45.69164" lon="6.68058">
        <ele>1834.6</ele>
        <time>2023-08-21T09:26:30Z</time>
      </trkpt>
      <trkpt lat="45.69162" lon="6.68056">
        <ele>1834.6</ele>
        <time>2023-08-21T09:26:31Z</time>
      </trkpt>
      <trkpt lat="45.69159" lon="6.68054">
        <ele>1835.4</ele>
        <time>2023-08-21T09:26:32Z</time>
      </trkpt>
      <trkpt lat="45.69157" lon="6.68051">
        <ele>1835.8</ele>
        <time>2023-08-21T09:26:33Z</time>
      </trkpt>
      <trkpt lat="45.69155" lon="6.6805">
        <ele>1835.8</ele>
        <time>2023-08-21T09:26:34Z</time>
      </trkpt>
      <trkpt lat="45.69153" lon="6.68048">
        <ele>1835.8</ele>
        <time>2023-08-21T09:26:35Z</time>
      </trkpt>
      <trkpt lat="45.69151" lon="6.68046">
        <ele>1835.8</ele>
        <time>2023-08-21T09:26:36Z</time>
      </trkpt>
      <trkpt lat="45.69149" lon="6.68044">
        <ele>1836.2</ele>
        <time>2023-08-21T09:26:37Z</time>
      </trkpt>
      <trkpt lat="45.69147" lon="6.68042">
        <ele>1836.6</ele>
        <time>2023-08-21T09:26:38Z</time>
      </trkpt>
      <trkpt lat="45.69145" lon="6.6804">
        <ele>1836.6</ele>
        <time>2023-08-21T09:26:39Z</time>
      </trkpt>
      <trkpt lat="45.69143" lon="6.68038">
        <ele>1836.6</ele>
        <time>2023-08-21T09:26:40Z</time>
      </trkpt>
      <trkpt lat="45.69141" lon="6.68036">
        <ele>1836.6</ele>
        <time>2023-08-21T09:26:41Z</time>
      </trkpt>
      <trkpt lat="45.69139" lon="6.68034">
        <ele>1837.4</ele>
        <time>2023-08-21T09:26:42Z</time>
      </trkpt>
      <trkpt lat="45.69137" lon="6.68032">
        <ele>1837.4</ele>
        <time>2023-08-21T09:26:43Z</time>
      </trkpt>
      <trkpt lat="45.69135" lon="6.68031">
        <ele>1837.4</ele>
        <time>2023-08-21T09:26:44Z</time>
      </trkpt>
      <trkpt lat="45.69133" lon="6.68029">
        <ele>1837.4</ele>
        <time>2023-08-21T09:26:45Z</time>
      </trkpt>
      <trkpt lat="45.6913" lon="6.68028">
        <ele>1838.2</ele>
        <time>2023-08-21T09:26:46Z</time>
      </trkpt>
      <trkpt lat="45.69128" lon="6.68026">
        <ele>1838.6</ele>
        <time>2023-08-21T09:26:47Z</time>
      </trkpt>
      <trkpt lat="45.69126" lon="6.68025">
        <ele>1838.6</ele>
        <time>2023-08-21T09:26:48Z</time>
      </trkpt>
      <trkpt lat="45.69124" lon="6.68023">
        <ele>1838.6</ele>
        <time>2023-08-21T09:26:49Z</time>
      </trkpt>
      <trkpt lat="45.69122" lon="6.68022">
        <ele>1838.6</ele>
        <time>2023-08-21T09:26:50Z</time>
      </trkpt>
      <trkpt lat="45.6912" lon="6.6802">
        <ele>1838.6</ele>
        <time>2023-08-21T09:26:51Z</time>
      </trkpt>
      <trkpt lat="45.69118" lon="6.68018">
        <ele>1839</ele>
        <time>2023-08-21T09:26:52Z</time>
      </trkpt>
      <trkpt lat="45.69116" lon="6.68016">
        <ele>1839</ele>
        <time>2023-08-21T09:26:53Z</time>
      </trkpt>
      <trkpt lat="45.69115" lon="6.68014">
        <ele>1839</ele>
        <time>2023-08-21T09:26:54Z</time>
      </trkpt>
      <trkpt lat="45.69114" lon="6.68012">
        <ele>1839.4</ele>
        <time>2023-08-21T09:26:55Z</time>
      </trkpt>
      <trkpt lat="45.69112" lon="6.68011">
        <ele>1839.4</ele>
        <time>2023-08-21T09:26:56Z</time>
      </trkpt>
      <trkpt lat="45.6911" lon="6.68009">
        <ele>1839.8</ele>
        <time>2023-08-21T09:26:57Z</time>
      </trkpt>
      <trkpt lat="45.69108" lon="6.68008">
        <ele>1839.8</ele>
        <time>2023-08-21T09:26:58Z</time>
      </trkpt>
      <trkpt lat="45.69107" lon="6.68006">
        <ele>1839.8</ele>
        <time>2023-08-21T09:26:59Z</time>
      </trkpt>
      <trkpt lat="45.69105" lon="6.68005">
        <ele>1839.8</ele>
        <time>2023-08-21T09:27:00Z</time>
      </trkpt>
      <trkpt lat="45.69103" lon="6.68004">
        <ele>1840.4</ele>
        <time>2023-08-21T09:27:01Z</time>
      </trkpt>
      <trkpt lat="45.69101" lon="6.68003">
        <ele>1840.4</ele>
        <time>2023-08-21T09:27:02Z</time>
      </trkpt>
      <trkpt lat="45.69099" lon="6.68002">
        <ele>1840.4</ele>
        <time>2023-08-21T09:27:03Z</time>
      </trkpt>
      <trkpt lat="45.69097" lon="6.68001">
        <ele>1840.4</ele>
        <time>2023-08-21T09:27:04Z</time>
      </trkpt>
      <trkpt lat="45.69095" lon="6.68">
        <ele>1841.4</ele>
        <time>2023-08-21T09:27:05Z</time>
      </trkpt>
      <trkpt lat="45.69093" lon="6.67999">
        <ele>1841.4</ele>
        <time>2023-08-21T09:27:06Z</time>
      </trkpt>
      <trkpt lat="45.69091" lon="6.67999">
        <ele>1841.4</ele>
        <time>2023-08-21T09:27:07Z</time>
      </trkpt>
      <trkpt lat="45.69089" lon="6.67998">
        <ele>1841.4</ele>
        <time>2023-08-21T09:27:08Z</time>
      </trkpt>
      <trkpt lat="45.69087" lon="6.67997">
        <ele>1841.6</ele>
        <time>2023-08-21T09:27:09Z</time>
      </trkpt>
      <trkpt lat="45.69085" lon="6.67997">
        <ele>1842</ele>
        <time>2023-08-21T09:27:10Z</time>
      </trkpt>
      <trkpt lat="45.69083" lon="6.67996">
        <ele>1842</ele>
        <time>2023-08-21T09:27:11Z</time>
      </trkpt>
      <trkpt lat="45.69081" lon="6.67996">
        <ele>1842</ele>
        <time>2023-08-21T09:27:12Z</time>
      </trkpt>
      <trkpt lat="45.69079" lon="6.67995">
        <ele>1842</ele>
        <time>2023-08-21T09:27:13Z</time>
      </trkpt>
      <trkpt lat="45.69077" lon="6.67995">
        <ele>1842.6</ele>
        <time>2023-08-21T09:27:14Z</time>
      </trkpt>
      <trkpt lat="45.69074" lon="6.67996">
        <ele>1842.6</ele>
        <time>2023-08-21T09:27:15Z</time>
      </trkpt>
      <trkpt lat="45.69072" lon="6.67997">
        <ele>1842.6</ele>
        <time>2023-08-21T09:27:16Z</time>
      </trkpt>
      <trkpt lat="45.6907" lon="6.67997">
        <ele>1842.6</ele>
        <time>2023-08-21T09:27:17Z</time>
      </trkpt>
      <trkpt lat="45.69067" lon="6.67998">
        <ele>1843.2</ele>
        <time>2023-08-21T09:27:18Z</time>
      </trkpt>
      <trkpt lat="45.69065" lon="6.67998">
        <ele>1843.4</ele>
        <time>2023-08-21T09:27:19Z</time>
      </trkpt>
      <trkpt lat="45.69063" lon="6.67999">
        <ele>1843.4</ele>
        <time>2023-08-21T09:27:20Z</time>
      </trkpt>
      <trkpt lat="45.69061" lon="6.68">
        <ele>1843.4</ele>
        <time>2023-08-21T09:27:21Z</time>
      </trkpt>
      <trkpt lat="45.69059" lon="6.68">
        <ele>1844</ele>
        <time>2023-08-21T09:27:22Z</time>
      </trkpt>
      <trkpt lat="45.69057" lon="6.68001">
        <ele>1844</ele>
        <time>2023-08-21T09:27:23Z</time>
      </trkpt>
      <trkpt lat="45.69055" lon="6.68002">
        <ele>1844.2</ele>
        <time>2023-08-21T09:27:24Z</time>
      </trkpt>
      <trkpt lat="45.69052" lon="6.68002">
        <ele>1844.2</ele>
        <time>2023-08-21T09:27:25Z</time>
      </trkpt>
      <trkpt lat="45.6905" lon="6.68003">
        <ele>1845</ele>
        <time>2023-08-21T09:27:26Z</time>
      </trkpt>
      <trkpt lat="45.69048" lon="6.68004">
        <ele>1845</ele>
        <time>2023-08-21T09:27:27Z</time>
      </trkpt>
      <trkpt lat="45.69046" lon="6.68005">
        <ele>1845</ele>
        <time>2023-08-21T09:27:28Z</time>
      </trkpt>
      <trkpt lat="45.69044" lon="6.68006">
        <ele>1845</ele>
        <time>2023-08-21T09:27:29Z</time>
      </trkpt>
      <trkpt lat="45.69042" lon="6.68007">
        <ele>1845</ele>
        <time>2023-08-21T09:27:30Z</time>
      </trkpt>
      <trkpt lat="45.69041" lon="6.68009">
        <ele>1845.4</ele>
        <time>2023-08-21T09:27:31Z</time>
      </trkpt>
      <trkpt lat="45.69039" lon="6.6801">
        <ele>1845.6</ele>
        <time>2023-08-21T09:27:32Z</time>
      </trkpt>
      <trkpt lat="45.69037" lon="6.68012">
        <ele>1845.6</ele>
        <time>2023-08-21T09:27:33Z</time>
      </trkpt>
      <trkpt lat="45.69035" lon="6.68014">
        <ele>1845.6</ele>
        <time>2023-08-21T09:27:34Z</time>
      </trkpt>
      <trkpt lat="45.69033" lon="6.68015">
        <ele>1845.6</ele>
        <time>2023-08-21T09:27:35Z</time>
      </trkpt>
      <trkpt lat="45.69032" lon="6.68017">
        <ele>1845.6</ele>
        <time>2023-08-21T09:27:36Z</time>
      </trkpt>
      <trkpt lat="45.69031" lon="6.68019">
        <ele>1846.2</ele>
        <time>2023-08-21T09:27:37Z</time>
      </trkpt>
      <trkpt lat="45.69029" lon="6.68021">
        <ele>1846.2</ele>
        <time>2023-08-21T09:27:38Z</time>
      </trkpt>
      <trkpt lat="45.69028" lon="6.68023">
        <ele>1846.2</ele>
        <time>2023-08-21T09:27:39Z</time>
      </trkpt>
      <trkpt lat="45.69027" lon="6.68025">
        <ele>1846.2</ele>
        <time>2023-08-21T09:27:40Z</time>
      </trkpt>
      <trkpt lat="45.69025" lon="6.68028">
        <ele>1846.4</ele>
        <time>2023-08-21T09:27:41Z</time>
      </trkpt>
      <trkpt lat="45.69024" lon="6.6803">
        <ele>1846.6</ele>
        <time>2023-08-21T09:27:42Z</time>
      </trkpt>
      <trkpt lat="45.69022" lon="6.68033">
        <ele>1846.6</ele>
        <time>2023-08-21T09:27:43Z</time>
      </trkpt>
      <trkpt lat="45.69021" lon="6.68035">
        <ele>1846.6</ele>
        <time>2023-08-21T09:27:44Z</time>
      </trkpt>
      <trkpt lat="45.6902" lon="6.68038">
        <ele>1847</ele>
        <time>2023-08-21T09:27:45Z</time>
      </trkpt>
      <trkpt lat="45.69018" lon="6.6804">
        <ele>1847</ele>
        <time>2023-08-21T09:27:46Z</time>
      </trkpt>
      <trkpt lat="45.69017" lon="6.68043">
        <ele>1847</ele>
        <time>2023-08-21T09:27:47Z</time>
      </trkpt>
      <trkpt lat="45.69016" lon="6.68045">
        <ele>1847</ele>
        <time>2023-08-21T09:27:48Z</time>
      </trkpt>
      <trkpt lat="45.69015" lon="6.68047">
        <ele>1847</ele>
        <time>2023-08-21T09:27:49Z</time>
      </trkpt>
      <trkpt lat="45.69014" lon="6.6805">
        <ele>1847.6</ele>
        <time>2023-08-21T09:27:50Z</time>
      </trkpt>
      <trkpt lat="45.69013" lon="6.68053">
        <ele>1847.6</ele>
        <time>2023-08-21T09:27:51Z</time>
      </trkpt>
      <trkpt lat="45.69012" lon="6.68056">
        <ele>1847.8</ele>
        <time>2023-08-21T09:27:52Z</time>
      </trkpt>
      <trkpt lat="45.69011" lon="6.68059">
        <ele>1847.8</ele>
        <time>2023-08-21T09:27:53Z</time>
      </trkpt>
      <trkpt lat="45.6901" lon="6.68062">
        <ele>1848.2</ele>
        <time>2023-08-21T09:27:54Z</time>
      </trkpt>
      <trkpt lat="45.69009" lon="6.68064">
        <ele>1848.2</ele>
        <time>2023-08-21T09:27:55Z</time>
      </trkpt>
      <trkpt lat="45.69008" lon="6.68067">
        <ele>1848.2</ele>
        <time>2023-08-21T09:27:56Z</time>
      </trkpt>
      <trkpt lat="45.69007" lon="6.6807">
        <ele>1848.2</ele>
        <time>2023-08-21T09:27:57Z</time>
      </trkpt>
      <trkpt lat="45.69006" lon="6.68073">
        <ele>1848.6</ele>
        <time>2023-08-21T09:27:58Z</time>
      </trkpt>
      <trkpt lat="45.69005" lon="6.68076">
        <ele>1848.8</ele>
        <time>2023-08-21T09:27:59Z</time>
      </trkpt>
      <trkpt lat="45.69004" lon="6.68079">
        <ele>1848.8</ele>
        <time>2023-08-21T09:28:00Z</time>
      </trkpt>
      <trkpt lat="45.69003" lon="6.68082">
        <ele>1848.8</ele>
        <time>2023-08-21T09:28:01Z</time>
      </trkpt>
      <trkpt lat="45.69003" lon="6.68085">
        <ele>1848.8</ele>
        <time>2023-08-21T09:28:02Z</time>
      </trkpt>
      <trkpt lat="45.69002" lon="6.68088">
        <ele>1849.2</ele>
        <time>2023-08-21T09:28:03Z</time>
      </trkpt>
      <trkpt lat="45.69002" lon="6.68092">
        <ele>1849.4</ele>
        <time>2023-08-21T09:28:04Z</time>
      </trkpt>
      <trkpt lat="45.69002" lon="6.68095">
        <ele>1849.4</ele>
        <time>2023-08-21T09:28:05Z</time>
      </trkpt>
      <trkpt lat="45.69001" lon="6.68098">
        <ele>1849.4</ele>
        <time>2023-08-21T09:28:06Z</time>
      </trkpt>
      <trkpt lat="45.69001" lon="6.68102">
        <ele>1849.6</ele>
        <time>2023-08-21T09:28:07Z</time>
      </trkpt>
      <trkpt lat="45.69001" lon="6.68105">
        <ele>1849.6</ele>
        <time>2023-08-21T09:28:08Z</time>
      </trkpt>
      <trkpt lat="45.69" lon="6.68109">
        <ele>1849.6</ele>
        <time>2023-08-21T09:28:09Z</time>
      </trkpt>
      <trkpt lat="45.69" lon="6.68112">
        <ele>1849.6</ele>
        <time>2023-08-21T09:28:10Z</time>
      </trkpt>
      <trkpt lat="45.68999" lon="6.68115">
        <ele>1850.2</ele>
        <time>2023-08-21T09:28:11Z</time>
      </trkpt>
      <trkpt lat="45.68999" lon="6.68119">
        <ele>1850.2</ele>
        <time>2023-08-21T09:28:12Z</time>
      </trkpt>
      <trkpt lat="45.68999" lon="6.68123">
        <ele>1850.2</ele>
        <time>2023-08-21T09:28:13Z</time>
      </trkpt>
      <trkpt lat="45.68999" lon="6.68126">
        <ele>1850.2</ele>
        <time>2023-08-21T09:28:14Z</time>
      </trkpt>
      <trkpt lat="45.69" lon="6.6813">
        <ele>1850.2</ele>
        <time>2023-08-21T09:28:15Z</time>
      </trkpt>
      <trkpt lat="45.69" lon="6.68134">
        <ele>1850.2</ele>
        <time>2023-08-21T09:28:16Z</time>
      </trkpt>
      <trkpt lat="45.69" lon="6.68138">
        <ele>1850.6</ele>
        <time>2023-08-21T09:28:17Z</time>
      </trkpt>
      <trkpt lat="45.69001" lon="6.68142">
        <ele>1850.6</ele>
        <time>2023-08-21T09:28:18Z</time>
      </trkpt>
      <trkpt lat="45.69001" lon="6.68146">
        <ele>1850.6</ele>
        <time>2023-08-21T09:28:19Z</time>
      </trkpt>
      <trkpt lat="45.69002" lon="6.6815">
        <ele>1850.6</ele>
        <time>2023-08-21T09:28:20Z</time>
      </trkpt>
      <trkpt lat="45.69003" lon="6.68154">
        <ele>1850.6</ele>
        <time>2023-08-21T09:28:21Z</time>
      </trkpt>
      <trkpt lat="45.69004" lon="6.68158">
        <ele>1851.2</ele>
        <time>2023-08-21T09:28:22Z</time>
      </trkpt>
      <trkpt lat="45.69004" lon="6.68161">
        <ele>1851.2</ele>
        <time>2023-08-21T09:28:23Z</time>
      </trkpt>
      <trkpt lat="45.69005" lon="6.68165">
        <ele>1851.2</ele>
        <time>2023-08-21T09:28:24Z</time>
      </trkpt>
      <trkpt lat="45.69006" lon="6.68168">
        <ele>1851.2</ele>
        <time>2023-08-21T09:28:25Z</time>
      </trkpt>
      <trkpt lat="45.69007" lon="6.68172">
        <ele>1851.2</ele>
        <time>2023-08-21T09:28:26Z</time>
      </trkpt>
      <trkpt lat="45.69009" lon="6.68175">
        <ele>1851.6</ele>
        <time>2023-08-21T09:28:27Z</time>
      </trkpt>
      <trkpt lat="45.6901" lon="6.68178">
        <ele>1851.6</ele>
        <time>2023-08-21T09:28:28Z</time>
      </trkpt>
      <trkpt lat="45.69011" lon="6.68181">
        <ele>1851.6</ele>
        <time>2023-08-21T09:28:29Z</time>
      </trkpt>
      <trkpt lat="45.69013" lon="6.68184">
        <ele>1852</ele>
        <time>2023-08-21T09:28:30Z</time>
      </trkpt>
      <trkpt lat="45.69015" lon="6.68186">
        <ele>1852</ele>
        <time>2023-08-21T09:28:31Z</time>
      </trkpt>
      <trkpt lat="45.69017" lon="6.68189">
        <ele>1852</ele>
        <time>2023-08-21T09:28:32Z</time>
      </trkpt>
      <trkpt lat="45.69018" lon="6.68192">
        <ele>1852</ele>
        <time>2023-08-21T09:28:33Z</time>
      </trkpt>
      <trkpt lat="45.6902" lon="6.68195">
        <ele>1852</ele>
        <time>2023-08-21T09:28:34Z</time>
      </trkpt>
      <trkpt lat="45.69022" lon="6.68197">
        <ele>1852</ele>
        <time>2023-08-21T09:28:35Z</time>
      </trkpt>
      <trkpt lat="45.69024" lon="6.68199">
        <ele>1852.6</ele>
        <time>2023-08-21T09:28:36Z</time>
      </trkpt>
      <trkpt lat="45.69027" lon="6.68201">
        <ele>1852.6</ele>
        <time>2023-08-21T09:28:37Z</time>
      </trkpt>
      <trkpt lat="45.69029" lon="6.68203">
        <ele>1852.6</ele>
        <time>2023-08-21T09:28:38Z</time>
      </trkpt>
      <trkpt lat="45.69031" lon="6.68205">
        <ele>1852.6</ele>
        <time>2023-08-21T09:28:39Z</time>
      </trkpt>
      <trkpt lat="45.69034" lon="6.68207">
        <ele>1853</ele>
        <time>2023-08-21T09:28:40Z</time>
      </trkpt>
      <trkpt lat="45.69036" lon="6.68209">
        <ele>1853</ele>
        <time>2023-08-21T09:28:41Z</time>
      </trkpt>
      <trkpt lat="45.69039" lon="6.68211">
        <ele>1853</ele>
        <time>2023-08-21T09:28:42Z</time>
      </trkpt>
      <trkpt lat="45.69041" lon="6.68213">
        <ele>1853</ele>
        <time>2023-08-21T09:28:43Z</time>
      </trkpt>
      <trkpt lat="45.69044" lon="6.68214">
        <ele>1853.6</ele>
        <time>2023-08-21T09:28:44Z</time>
      </trkpt>
      <trkpt lat="45.69046" lon="6.68216">
        <ele>1853.6</ele>
        <time>2023-08-21T09:28:45Z</time>
      </trkpt>
      <trkpt lat="45.69048" lon="6.68218">
        <ele>1853.6</ele>
        <time>2023-08-21T09:28:46Z</time>
      </trkpt>
      <trkpt lat="45.6905" lon="6.6822">
        <ele>1853.6</ele>
        <time>2023-08-21T09:28:47Z</time>
      </trkpt>
      <trkpt lat="45.69053" lon="6.68222">
        <ele>1854</ele>
        <time>2023-08-21T09:28:48Z</time>
      </trkpt>
      <trkpt lat="45.69056" lon="6.68224">
        <ele>1854</ele>
        <time>2023-08-21T09:28:49Z</time>
      </trkpt>
      <trkpt lat="45.69059" lon="6.68226">
        <ele>1854</ele>
        <time>2023-08-21T09:28:50Z</time>
      </trkpt>
      <trkpt lat="45.69061" lon="6.68228">
        <ele>1854</ele>
        <time>2023-08-21T09:28:51Z</time>
      </trkpt>
      <trkpt lat="45.69064" lon="6.6823">
        <ele>1854.6</ele>
        <time>2023-08-21T09:28:52Z</time>
      </trkpt>
      <trkpt lat="45.69067" lon="6.68233">
        <ele>1854.6</ele>
        <time>2023-08-21T09:28:53Z</time>
      </trkpt>
      <trkpt lat="45.69069" lon="6.68236">
        <ele>1854.6</ele>
        <time>2023-08-21T09:28:54Z</time>
      </trkpt>
      <trkpt lat="45.69072" lon="6.68239">
        <ele>1854.6</ele>
        <time>2023-08-21T09:28:55Z</time>
      </trkpt>
      <trkpt lat="45.69074" lon="6.68241">
        <ele>1854.6</ele>
        <time>2023-08-21T09:28:56Z</time>
      </trkpt>
      <trkpt lat="45.69077" lon="6.68243">
        <ele>1855</ele>
        <time>2023-08-21T09:28:57Z</time>
      </trkpt>
      <trkpt lat="45.69079" lon="6.68246">
        <ele>1854.8</ele>
        <time>2023-08-21T09:28:58Z</time>
      </trkpt>
      <trkpt lat="45.69081" lon="6.68249">
        <ele>1854.8</ele>
        <time>2023-08-21T09:28:59Z</time>
      </trkpt>
      <trkpt lat="45.69083" lon="6.68252">
        <ele>1854.8</ele>
        <time>2023-08-21T09:29:00Z</time>
      </trkpt>
      <trkpt lat="45.69085" lon="6.68255">
        <ele>1854.8</ele>
        <time>2023-08-21T09:29:01Z</time>
      </trkpt>
      <trkpt lat="45.69087" lon="6.68258">
        <ele>1855.8</ele>
        <time>2023-08-21T09:29:02Z</time>
      </trkpt>
      <trkpt lat="45.69089" lon="6.68261">
        <ele>1855.8</ele>
        <time>2023-08-21T09:29:03Z</time>
      </trkpt>
      <trkpt lat="45.69091" lon="6.68265">
        <ele>1855.8</ele>
        <time>2023-08-21T09:29:04Z</time>
      </trkpt>
      <trkpt lat="45.69092" lon="6.68268">
        <ele>1855.8</ele>
        <time>2023-08-21T09:29:05Z</time>
      </trkpt>
      <trkpt lat="45.69093" lon="6.68272">
        <ele>1855.8</ele>
        <time>2023-08-21T09:29:06Z</time>
      </trkpt>
      <trkpt lat="45.69095" lon="6.68275">
        <ele>1856.6</ele>
        <time>2023-08-21T09:29:07Z</time>
      </trkpt>
      <trkpt lat="45.69096" lon="6.68279">
        <ele>1856.8</ele>
        <time>2023-08-21T09:29:08Z</time>
      </trkpt>
      <trkpt lat="45.69097" lon="6.68282">
        <ele>1856.8</ele>
        <time>2023-08-21T09:29:09Z</time>
      </trkpt>
      <trkpt lat="45.69098" lon="6.68285">
        <ele>1856.8</ele>
        <time>2023-08-21T09:29:10Z</time>
      </trkpt>
      <trkpt lat="45.691" lon="6.68289">
        <ele>1857.4</ele>
        <time>2023-08-21T09:29:11Z</time>
      </trkpt>
      <trkpt lat="45.69101" lon="6.68292">
        <ele>1857.6</ele>
        <time>2023-08-21T09:29:12Z</time>
      </trkpt>
      <trkpt lat="45.69102" lon="6.68296">
        <ele>1857.6</ele>
        <time>2023-08-21T09:29:13Z</time>
      </trkpt>
      <trkpt lat="45.69103" lon="6.68299">
        <ele>1857.6</ele>
        <time>2023-08-21T09:29:14Z</time>
      </trkpt>
      <trkpt lat="45.69104" lon="6.68303">
        <ele>1857.6</ele>
        <time>2023-08-21T09:29:15Z</time>
      </trkpt>
      <trkpt lat="45.69105" lon="6.68306">
        <ele>1858.2</ele>
        <time>2023-08-21T09:29:16Z</time>
      </trkpt>
      <trkpt lat="45.69106" lon="6.6831">
        <ele>1858.2</ele>
        <time>2023-08-21T09:29:17Z</time>
      </trkpt>
      <trkpt lat="45.69107" lon="6.68313">
        <ele>1858.2</ele>
        <time>2023-08-21T09:29:18Z</time>
      </trkpt>
      <trkpt lat="45.69107" lon="6.68317">
        <ele>1858.2</ele>
        <time>2023-08-21T09:29:19Z</time>
      </trkpt>
      <trkpt lat="45.69109" lon="6.68321">
        <ele>1858.2</ele>
        <time>2023-08-21T09:29:20Z</time>
      </trkpt>
      <trkpt lat="45.69109" lon="6.68325">
        <ele>1858.4</ele>
        <time>2023-08-21T09:29:21Z</time>
      </trkpt>
      <trkpt lat="45.6911" lon="6.68329">
        <ele>1858.4</ele>
        <time>2023-08-21T09:29:22Z</time>
      </trkpt>
      <trkpt lat="45.69112" lon="6.68333">
        <ele>1858.4</ele>
        <time>2023-08-21T09:29:23Z</time>
      </trkpt>
      <trkpt lat="45.69114" lon="6.68337">
        <ele>1859.4</ele>
        <time>2023-08-21T09:29:24Z</time>
      </trkpt>
      <trkpt lat="45.69115" lon="6.6834">
        <ele>1859.4</ele>
        <time>2023-08-21T09:29:25Z</time>
      </trkpt>
      <trkpt lat="45.69117" lon="6.68344">
        <ele>1859.4</ele>
        <time>2023-08-21T09:29:26Z</time>
      </trkpt>
      <trkpt lat="45.69118" lon="6.68347">
        <ele>1859.4</ele>
        <time>2023-08-21T09:29:27Z</time>
      </trkpt>
      <trkpt lat="45.6912" lon="6.6835">
        <ele>1860.2</ele>
        <time>2023-08-21T09:29:28Z</time>
      </trkpt>
      <trkpt lat="45.69122" lon="6.68353">
        <ele>1860.6</ele>
        <time>2023-08-21T09:29:29Z</time>
      </trkpt>
      <trkpt lat="45.69124" lon="6.68356">
        <ele>1860.6</ele>
        <time>2023-08-21T09:29:30Z</time>
      </trkpt>
      <trkpt lat="45.69126" lon="6.68359">
        <ele>1860.6</ele>
        <time>2023-08-21T09:29:31Z</time>
      </trkpt>
      <trkpt lat="45.69128" lon="6.68361">
        <ele>1860.6</ele>
        <time>2023-08-21T09:29:32Z</time>
      </trkpt>
      <trkpt lat="45.6913" lon="6.68364">
        <ele>1861</ele>
        <time>2023-08-21T09:29:33Z</time>
      </trkpt>
      <trkpt lat="45.69132" lon="6.68366">
        <ele>1861.2</ele>
        <time>2023-08-21T09:29:34Z</time>
      </trkpt>
      <trkpt lat="45.69134" lon="6.68368">
        <ele>1861.2</ele>
        <time>2023-08-21T09:29:35Z</time>
      </trkpt>
      <trkpt lat="45.69136" lon="6.6837">
        <ele>1861.2</ele>
        <time>2023-08-21T09:29:36Z</time>
      </trkpt>
      <trkpt lat="45.69138" lon="6.68372">
        <ele>1861.2</ele>
        <time>2023-08-21T09:29:37Z</time>
      </trkpt>
      <trkpt lat="45.6914" lon="6.68375">
        <ele>1861.8</ele>
        <time>2023-08-21T09:29:38Z</time>
      </trkpt>
      <trkpt lat="45.69142" lon="6.68378">
        <ele>1861.8</ele>
        <time>2023-08-21T09:29:39Z</time>
      </trkpt>
      <trkpt lat="45.69144" lon="6.68381">
        <ele>1861.8</ele>
        <time>2023-08-21T09:29:40Z</time>
      </trkpt>
      <trkpt lat="45.69146" lon="6.68384">
        <ele>1861.8</ele>
        <time>2023-08-21T09:29:41Z</time>
      </trkpt>
      <trkpt lat="45.69148" lon="6.68388">
        <ele>1862.6</ele>
        <time>2023-08-21T09:29:42Z</time>
      </trkpt>
      <trkpt lat="45.69149" lon="6.68391">
        <ele>1862.6</ele>
        <time>2023-08-21T09:29:43Z</time>
      </trkpt>
      <trkpt lat="45.6915" lon="6.68394">
        <ele>1862.6</ele>
        <time>2023-08-21T09:29:44Z</time>
      </trkpt>
      <trkpt lat="45.69151" lon="6.68398">
        <ele>1862.6</ele>
        <time>2023-08-21T09:29:45Z</time>
      </trkpt>
      <trkpt lat="45.69152" lon="6.68401">
        <ele>1862.6</ele>
        <time>2023-08-21T09:29:46Z</time>
      </trkpt>
      <trkpt lat="45.69152" lon="6.68405">
        <ele>1863</ele>
        <time>2023-08-21T09:29:47Z</time>
      </trkpt>
      <trkpt lat="45.69152" lon="6.68408">
        <ele>1863</ele>
        <time>2023-08-21T09:29:48Z</time>
      </trkpt>
      <trkpt lat="45.69152" lon="6.68412">
        <ele>1863</ele>
        <time>2023-08-21T09:29:49Z</time>
      </trkpt>
      <trkpt lat="45.69152" lon="6.68416">
        <ele>1863</ele>
        <time>2023-08-21T09:29:50Z</time>
      </trkpt>
      <trkpt lat="45.69152" lon="6.6842">
        <ele>1863</ele>
        <time>2023-08-21T09:29:51Z</time>
      </trkpt>
      <trkpt lat="45.69151" lon="6.68424">
        <ele>1863</ele>
        <time>2023-08-21T09:29:52Z</time>
      </trkpt>
      <trkpt lat="45.69149" lon="6.68428">
        <ele>1863.6</ele>
        <time>2023-08-21T09:29:53Z</time>
      </trkpt>
      <trkpt lat="45.69148" lon="6.68432">
        <ele>1863.6</ele>
        <time>2023-08-21T09:29:54Z</time>
      </trkpt>
      <trkpt lat="45.69146" lon="6.68435">
        <ele>1863.6</ele>
        <time>2023-08-21T09:29:55Z</time>
      </trkpt>
      <trkpt lat="45.69144" lon="6.68438">
        <ele>1864</ele>
        <time>2023-08-21T09:29:56Z</time>
      </trkpt>
      <trkpt lat="45.69142" lon="6.68441">
        <ele>1864.4</ele>
        <time>2023-08-21T09:29:57Z</time>
      </trkpt>
      <trkpt lat="45.69141" lon="6.68444">
        <ele>1864.4</ele>
        <time>2023-08-21T09:29:58Z</time>
      </trkpt>
      <trkpt lat="45.69139" lon="6.68447">
        <ele>1864.4</ele>
        <time>2023-08-21T09:29:59Z</time>
      </trkpt>
      <trkpt lat="45.69137" lon="6.6845">
        <ele>1865.2</ele>
        <time>2023-08-21T09:30:00Z</time>
      </trkpt>
      <trkpt lat="45.69135" lon="6.68454">
        <ele>1865.4</ele>
        <time>2023-08-21T09:30:01Z</time>
      </trkpt>
      <trkpt lat="45.69133" lon="6.68457">
        <ele>1865.4</ele>
        <time>2023-08-21T09:30:02Z</time>
      </trkpt>
      <trkpt lat="45.69132" lon="6.68461">
        <ele>1865.4</ele>
        <time>2023-08-21T09:30:03Z</time>
      </trkpt>
      <trkpt lat="45.6913" lon="6.68464">
        <ele>1865.4</ele>
        <time>2023-08-21T09:30:04Z</time>
      </trkpt>
      <trkpt lat="45.69129" lon="6.68467">
        <ele>1865.4</ele>
        <time>2023-08-21T09:30:05Z</time>
      </trkpt>
      <trkpt lat="45.69127" lon="6.6847">
        <ele>1866.2</ele>
        <time>2023-08-21T09:30:06Z</time>
      </trkpt>
      <trkpt lat="45.69126" lon="6.68473">
        <ele>1866.2</ele>
        <time>2023-08-21T09:30:07Z</time>
      </trkpt>
      <trkpt lat="45.69124" lon="6.68477">
        <ele>1866.2</ele>
        <time>2023-08-21T09:30:08Z</time>
      </trkpt>
      <trkpt lat="45.69123" lon="6.6848">
        <ele>1866.4</ele>
        <time>2023-08-21T09:30:09Z</time>
      </trkpt>
      <trkpt lat="45.69122" lon="6.68484">
        <ele>1866.6</ele>
        <time>2023-08-21T09:30:10Z</time>
      </trkpt>
      <trkpt lat="45.6912" lon="6.68487">
        <ele>1866.6</ele>
        <time>2023-08-21T09:30:11Z</time>
      </trkpt>
      <trkpt lat="45.69119" lon="6.68491">
        <ele>1866.6</ele>
        <time>2023-08-21T09:30:12Z</time>
      </trkpt>
      <trkpt lat="45.69118" lon="6.68495">
        <ele>1866.6</ele>
        <time>2023-08-21T09:30:13Z</time>
      </trkpt>
      <trkpt lat="45.69117" lon="6.68498">
        <ele>1866.6</ele>
        <time>2023-08-21T09:30:14Z</time>
      </trkpt>
      <trkpt lat="45.69117" lon="6.68502">
        <ele>1867.2</ele>
        <time>2023-08-21T09:30:15Z</time>
      </trkpt>
      <trkpt lat="45.69116" lon="6.68506">
        <ele>1867.2</ele>
        <time>2023-08-21T09:30:16Z</time>
      </trkpt>
      <trkpt lat="45.69116" lon="6.6851">
        <ele>1867.2</ele>
        <time>2023-08-21T09:30:17Z</time>
      </trkpt>
      <trkpt lat="45.69115" lon="6.68514">
        <ele>1867.6</ele>
        <time>2023-08-21T09:30:18Z</time>
      </trkpt>
      <trkpt lat="45.69114" lon="6.68518">
        <ele>1867.6</ele>
        <time>2023-08-21T09:30:19Z</time>
      </trkpt>
      <trkpt lat="45.69114" lon="6.68522">
        <ele>1867.6</ele>
        <time>2023-08-21T09:30:20Z</time>
      </trkpt>
      <trkpt lat="45.69113" lon="6.68527">
        <ele>1867.6</ele>
        <time>2023-08-21T09:30:21Z</time>
      </trkpt>
      <trkpt lat="45.69113" lon="6.68531">
        <ele>1868</ele>
        <time>2023-08-21T09:30:22Z</time>
      </trkpt>
      <trkpt lat="45.69113" lon="6.68535">
        <ele>1868</ele>
        <time>2023-08-21T09:30:23Z</time>
      </trkpt>
      <trkpt lat="45.69113" lon="6.6854">
        <ele>1868.2</ele>
        <time>2023-08-21T09:30:24Z</time>
      </trkpt>
      <trkpt lat="45.69112" lon="6.68543">
        <ele>1868.2</ele>
        <time>2023-08-21T09:30:25Z</time>
      </trkpt>
      <trkpt lat="45.69112" lon="6.68547">
        <ele>1868.2</ele>
        <time>2023-08-21T09:30:26Z</time>
      </trkpt>
      <trkpt lat="45.69111" lon="6.68552">
        <ele>1868.2</ele>
        <time>2023-08-21T09:30:27Z</time>
      </trkpt>
      <trkpt lat="45.69111" lon="6.68556">
        <ele>1868.4</ele>
        <time>2023-08-21T09:30:28Z</time>
      </trkpt>
      <trkpt lat="45.6911" lon="6.68561">
        <ele>1868.6</ele>
        <time>2023-08-21T09:30:29Z</time>
      </trkpt>
      <trkpt lat="45.6911" lon="6.68565">
        <ele>1868.6</ele>
        <time>2023-08-21T09:30:30Z</time>
      </trkpt>
      <trkpt lat="45.6911" lon="6.6857">
        <ele>1868.6</ele>
        <time>2023-08-21T09:30:31Z</time>
      </trkpt>
      <trkpt lat="45.6911" lon="6.68574">
        <ele>1869</ele>
        <time>2023-08-21T09:30:32Z</time>
      </trkpt>
      <trkpt lat="45.69109" lon="6.68579">
        <ele>1869.4</ele>
        <time>2023-08-21T09:30:33Z</time>
      </trkpt>
      <trkpt lat="45.69109" lon="6.68583">
        <ele>1869.4</ele>
        <time>2023-08-21T09:30:34Z</time>
      </trkpt>
      <trkpt lat="45.69109" lon="6.68588">
        <ele>1869.4</ele>
        <time>2023-08-21T09:30:35Z</time>
      </trkpt>
      <trkpt lat="45.69109" lon="6.68592">
        <ele>1869.4</ele>
        <time>2023-08-21T09:30:36Z</time>
      </trkpt>
      <trkpt lat="45.69108" lon="6.68596">
        <ele>1870</ele>
        <time>2023-08-21T09:30:37Z</time>
      </trkpt>
      <trkpt lat="45.69108" lon="6.68601">
        <ele>1870</ele>
        <time>2023-08-21T09:30:38Z</time>
      </trkpt>
      <trkpt lat="45.69108" lon="6.68605">
        <ele>1870</ele>
        <time>2023-08-21T09:30:39Z</time>
      </trkpt>
      <trkpt lat="45.69108" lon="6.6861">
        <ele>1870</ele>
        <time>2023-08-21T09:30:40Z</time>
      </trkpt>
      <trkpt lat="45.69107" lon="6.68614">
        <ele>1870.8</ele>
        <time>2023-08-21T09:30:41Z</time>
      </trkpt>
      <trkpt lat="45.69107" lon="6.68619">
        <ele>1871</ele>
        <time>2023-08-21T09:30:42Z</time>
      </trkpt>
      <trkpt lat="45.69107" lon="6.68623">
        <ele>1871</ele>
        <time>2023-08-21T09:30:43Z</time>
      </trkpt>
      <trkpt lat="45.69107" lon="6.68628">
        <ele>1871</ele>
        <time>2023-08-21T09:30:44Z</time>
      </trkpt>
      <trkpt lat="45.69107" lon="6.68632">
        <ele>1871</ele>
        <time>2023-08-21T09:30:45Z</time>
      </trkpt>
      <trkpt lat="45.69107" lon="6.68636">
        <ele>1871.4</ele>
        <time>2023-08-21T09:30:46Z</time>
      </trkpt>
      <trkpt lat="45.69106" lon="6.68641">
        <ele>1871.6</ele>
        <time>2023-08-21T09:30:47Z</time>
      </trkpt>
      <trkpt lat="45.69106" lon="6.68646">
        <ele>1871.6</ele>
        <time>2023-08-21T09:30:48Z</time>
      </trkpt>
      <trkpt lat="45.69105" lon="6.6865">
        <ele>1871.6</ele>
        <time>2023-08-21T09:30:49Z</time>
      </trkpt>
      <trkpt lat="45.69105" lon="6.68655">
        <ele>1872</ele>
        <time>2023-08-21T09:30:50Z</time>
      </trkpt>
      <trkpt lat="45.69105" lon="6.68659">
        <ele>1872.4</ele>
        <time>2023-08-21T09:30:51Z</time>
      </trkpt>
      <trkpt lat="45.69104" lon="6.68664">
        <ele>1872.4</ele>
        <time>2023-08-21T09:30:52Z</time>
      </trkpt>
      <trkpt lat="45.69104" lon="6.68668">
        <ele>1872.4</ele>
        <time>2023-08-21T09:30:53Z</time>
      </trkpt>
      <trkpt lat="45.69104" lon="6.68672">
        <ele>1872.4</ele>
        <time>2023-08-21T09:30:54Z</time>
      </trkpt>
      <trkpt lat="45.69103" lon="6.68677">
        <ele>1873</ele>
        <time>2023-08-21T09:30:55Z</time>
      </trkpt>
      <trkpt lat="45.69103" lon="6.68681">
        <ele>1873</ele>
        <time>2023-08-21T09:30:56Z</time>
      </trkpt>
      <trkpt lat="45.69103" lon="6.68685">
        <ele>1873.4</ele>
        <time>2023-08-21T09:30:57Z</time>
      </trkpt>
      <trkpt lat="45.69104" lon="6.6869">
        <ele>1873.4</ele>
        <time>2023-08-21T09:30:58Z</time>
      </trkpt>
      <trkpt lat="45.69105" lon="6.68694">
        <ele>1873.4</ele>
        <time>2023-08-21T09:30:59Z</time>
      </trkpt>
      <trkpt lat="45.69106" lon="6.68698">
        <ele>1874</ele>
        <time>2023-08-21T09:31:00Z</time>
      </trkpt>
      <trkpt lat="45.69107" lon="6.68702">
        <ele>1874</ele>
        <time>2023-08-21T09:31:01Z</time>
      </trkpt>
      <trkpt lat="45.69108" lon="6.68706">
        <ele>1874</ele>
        <time>2023-08-21T09:31:02Z</time>
      </trkpt>
      <trkpt lat="45.6911" lon="6.6871">
        <ele>1874</ele>
        <time>2023-08-21T09:31:03Z</time>
      </trkpt>
      <trkpt lat="45.69112" lon="6.68713">
        <ele>1874</ele>
        <time>2023-08-21T09:31:04Z</time>
      </trkpt>
      <trkpt lat="45.69114" lon="6.68715">
        <ele>1874</ele>
        <time>2023-08-21T09:31:05Z</time>
      </trkpt>
      <trkpt lat="45.69116" lon="6.68718">
        <ele>1874.2</ele>
        <time>2023-08-21T09:31:06Z</time>
      </trkpt>
      <trkpt lat="45.69118" lon="6.6872">
        <ele>1874.2</ele>
        <time>2023-08-21T09:31:07Z</time>
      </trkpt>
      <trkpt lat="45.69121" lon="6.68722">
        <ele>1874.2</ele>
        <time>2023-08-21T09:31:08Z</time>
      </trkpt>
      <trkpt lat="45.69123" lon="6.68724">
        <ele>1875</ele>
        <time>2023-08-21T09:31:09Z</time>
      </trkpt>
      <trkpt lat="45.69125" lon="6.68726">
        <ele>1875.2</ele>
        <time>2023-08-21T09:31:10Z</time>
      </trkpt>
      <trkpt lat="45.69127" lon="6.68729">
        <ele>1875.2</ele>
        <time>2023-08-21T09:31:11Z</time>
      </trkpt>
      <trkpt lat="45.69128" lon="6.68732">
        <ele>1875.2</ele>
        <time>2023-08-21T09:31:12Z</time>
      </trkpt>
      <trkpt lat="45.69131" lon="6.68735">
        <ele>1875.2</ele>
        <time>2023-08-21T09:31:13Z</time>
      </trkpt>
      <trkpt lat="45.69133" lon="6.68738">
        <ele>1875.4</ele>
        <time>2023-08-21T09:31:14Z</time>
      </trkpt>
      <trkpt lat="45.69135" lon="6.68741">
        <ele>1875.4</ele>
        <time>2023-08-21T09:31:15Z</time>
      </trkpt>
      <trkpt lat="45.69137" lon="6.68745">
        <ele>1875.4</ele>
        <time>2023-08-21T09:31:16Z</time>
      </trkpt>
      <trkpt lat="45.69138" lon="6.6875">
        <ele>1875.4</ele>
        <time>2023-08-21T09:31:17Z</time>
      </trkpt>
      <trkpt lat="45.6914" lon="6.68755">
        <ele>1876</ele>
        <time>2023-08-21T09:31:18Z</time>
      </trkpt>
      <trkpt lat="45.69141" lon="6.6876">
        <ele>1875.8</ele>
        <time>2023-08-21T09:31:19Z</time>
      </trkpt>
      <trkpt lat="45.69142" lon="6.68765">
        <ele>1875.8</ele>
        <time>2023-08-21T09:31:20Z</time>
      </trkpt>
      <trkpt lat="45.69142" lon="6.6877">
        <ele>1875.8</ele>
        <time>2023-08-21T09:31:21Z</time>
      </trkpt>
      <trkpt lat="45.69142" lon="6.68776">
        <ele>1876.4</ele>
        <time>2023-08-21T09:31:22Z</time>
      </trkpt>
      <trkpt lat="45.69141" lon="6.68781">
        <ele>1876.4</ele>
        <time>2023-08-21T09:31:23Z</time>
      </trkpt>
      <trkpt lat="45.69141" lon="6.68787">
        <ele>1876.4</ele>
        <time>2023-08-21T09:31:24Z</time>
      </trkpt>
      <trkpt lat="45.6914" lon="6.68793">
        <ele>1876.4</ele>
        <time>2023-08-21T09:31:25Z</time>
      </trkpt>
      <trkpt lat="45.69139" lon="6.68798">
        <ele>1876.4</ele>
        <time>2023-08-21T09:31:26Z</time>
      </trkpt>
      <trkpt lat="45.69137" lon="6.68803">
        <ele>1876.4</ele>
        <time>2023-08-21T09:31:27Z</time>
      </trkpt>
      <trkpt lat="45.69135" lon="6.68808">
        <ele>1877</ele>
        <time>2023-08-21T09:31:28Z</time>
      </trkpt>
      <trkpt lat="45.69133" lon="6.68813">
        <ele>1877</ele>
        <time>2023-08-21T09:31:29Z</time>
      </trkpt>
      <trkpt lat="45.69132" lon="6.68818">
        <ele>1877</ele>
        <time>2023-08-21T09:31:30Z</time>
      </trkpt>
      <trkpt lat="45.6913" lon="6.68823">
        <ele>1877.4</ele>
        <time>2023-08-21T09:31:31Z</time>
      </trkpt>
      <trkpt lat="45.69129" lon="6.68829">
        <ele>1877.6</ele>
        <time>2023-08-21T09:31:32Z</time>
      </trkpt>
      <trkpt lat="45.69128" lon="6.68834">
        <ele>1877.6</ele>
        <time>2023-08-21T09:31:33Z</time>
      </trkpt>
      <trkpt lat="45.69127" lon="6.6884">
        <ele>1877.6</ele>
        <time>2023-08-21T09:31:34Z</time>
      </trkpt>
      <trkpt lat="45.69127" lon="6.68846">
        <ele>1877.6</ele>
        <time>2023-08-21T09:31:35Z</time>
      </trkpt>
      <trkpt lat="45.69127" lon="6.68851">
        <ele>1878</ele>
        <time>2023-08-21T09:31:36Z</time>
      </trkpt>
      <trkpt lat="45.69128" lon="6.68857">
        <ele>1877.8</ele>
        <time>2023-08-21T09:31:37Z</time>
      </trkpt>
      <trkpt lat="45.69129" lon="6.68863">
        <ele>1877.8</ele>
        <time>2023-08-21T09:31:38Z</time>
      </trkpt>
      <trkpt lat="45.69129" lon="6.68869">
        <ele>1877.8</ele>
        <time>2023-08-21T09:31:39Z</time>
      </trkpt>
      <trkpt lat="45.6913" lon="6.68876">
        <ele>1878</ele>
        <time>2023-08-21T09:31:40Z</time>
      </trkpt>
      <trkpt lat="45.69131" lon="6.68882">
        <ele>1878</ele>
        <time>2023-08-21T09:31:41Z</time>
      </trkpt>
      <trkpt lat="45.69131" lon="6.68889">
        <ele>1878</ele>
        <time>2023-08-21T09:31:42Z</time>
      </trkpt>
      <trkpt lat="45.6913" lon="6.68896">
        <ele>1878</ele>
        <time>2023-08-21T09:31:43Z</time>
      </trkpt>
      <trkpt lat="45.69129" lon="6.68902">
        <ele>1878</ele>
        <time>2023-08-21T09:31:44Z</time>
      </trkpt>
      <trkpt lat="45.69128" lon="6.68909">
        <ele>1878.6</ele>
        <time>2023-08-21T09:31:45Z</time>
      </trkpt>
      <trkpt lat="45.69126" lon="6.68915">
        <ele>1878.6</ele>
        <time>2023-08-21T09:31:46Z</time>
      </trkpt>
      <trkpt lat="45.69125" lon="6.68921">
        <ele>1878.6</ele>
        <time>2023-08-21T09:31:47Z</time>
      </trkpt>
      <trkpt lat="45.69124" lon="6.68927">
        <ele>1878.6</ele>
        <time>2023-08-21T09:31:48Z</time>
      </trkpt>
      <trkpt lat="45.69123" lon="6.68932">
        <ele>1878.6</ele>
        <time>2023-08-21T09:31:49Z</time>
      </trkpt>
      <trkpt lat="45.69121" lon="6.68938">
        <ele>1878.6</ele>
        <time>2023-08-21T09:31:50Z</time>
      </trkpt>
      <trkpt lat="45.6912" lon="6.68943">
        <ele>1878.8</ele>
        <time>2023-08-21T09:31:51Z</time>
      </trkpt>
      <trkpt lat="45.69119" lon="6.68949">
        <ele>1878.8</ele>
        <time>2023-08-21T09:31:52Z</time>
      </trkpt>
      <trkpt lat="45.69118" lon="6.68954">
        <ele>1878.8</ele>
        <time>2023-08-21T09:31:53Z</time>
      </trkpt>
      <trkpt lat="45.69117" lon="6.6896">
        <ele>1879.2</ele>
        <time>2023-08-21T09:31:54Z</time>
      </trkpt>
      <trkpt lat="45.69117" lon="6.68965">
        <ele>1879.4</ele>
        <time>2023-08-21T09:31:55Z</time>
      </trkpt>
      <trkpt lat="45.69116" lon="6.6897">
        <ele>1879.4</ele>
        <time>2023-08-21T09:31:56Z</time>
      </trkpt>
      <trkpt lat="45.69117" lon="6.68975">
        <ele>1879.4</ele>
        <time>2023-08-21T09:31:57Z</time>
      </trkpt>
      <trkpt lat="45.69117" lon="6.6898">
        <ele>1879.4</ele>
        <time>2023-08-21T09:31:58Z</time>
      </trkpt>
      <trkpt lat="45.69117" lon="6.68985">
        <ele>1879.4</ele>
        <time>2023-08-21T09:31:59Z</time>
      </trkpt>
      <trkpt lat="45.69117" lon="6.68989">
        <ele>1879.6</ele>
        <time>2023-08-21T09:32:00Z</time>
      </trkpt>
      <trkpt lat="45.69118" lon="6.68993">
        <ele>1879.6</ele>
        <time>2023-08-21T09:32:01Z</time>
      </trkpt>
      <trkpt lat="45.69118" lon="6.68998">
        <ele>1879.6</ele>
        <time>2023-08-21T09:32:02Z</time>
      </trkpt>
      <trkpt lat="45.69119" lon="6.69002">
        <ele>1879.6</ele>
        <time>2023-08-21T09:32:03Z</time>
      </trkpt>
      <trkpt lat="45.69119" lon="6.69006">
        <ele>1879.6</ele>
        <time>2023-08-21T09:32:04Z</time>
      </trkpt>
      <trkpt lat="45.6912" lon="6.6901">
        <ele>1879.6</ele>
        <time>2023-08-21T09:32:05Z</time>
      </trkpt>
      <trkpt lat="45.69121" lon="6.69014">
        <ele>1879.6</ele>
        <time>2023-08-21T09:32:06Z</time>
      </trkpt>
      <trkpt lat="45.69122" lon="6.69018">
        <ele>1879.6</ele>
        <time>2023-08-21T09:32:07Z</time>
      </trkpt>
      <trkpt lat="45.69122" lon="6.69021">
        <ele>1879.6</ele>
        <time>2023-08-21T09:32:08Z</time>
      </trkpt>
      <trkpt lat="45.69123" lon="6.69025">
        <ele>1879.8</ele>
        <time>2023-08-21T09:32:09Z</time>
      </trkpt>
      <trkpt lat="45.69124" lon="6.69028">
        <ele>1879.8</ele>
        <time>2023-08-21T09:32:10Z</time>
      </trkpt>
      <trkpt lat="45.69124" lon="6.69032">
        <ele>1879.8</ele>
        <time>2023-08-21T09:32:11Z</time>
      </trkpt>
      <trkpt lat="45.69125" lon="6.69035">
        <ele>1879.8</ele>
        <time>2023-08-21T09:32:12Z</time>
      </trkpt>
      <trkpt lat="45.69125" lon="6.69037">
        <ele>1880</ele>
        <time>2023-08-21T09:32:13Z</time>
      </trkpt>
      <trkpt lat="45.69125" lon="6.6904">
        <ele>1880</ele>
        <time>2023-08-21T09:32:14Z</time>
      </trkpt>
      <trkpt lat="45.69125" lon="6.69042">
        <ele>1880</ele>
        <time>2023-08-21T09:32:15Z</time>
      </trkpt>
      <trkpt lat="45.69126" lon="6.69044">
        <ele>1880</ele>
        <time>2023-08-21T09:32:16Z</time>
      </trkpt>
      <trkpt lat="45.69126" lon="6.69046">
        <ele>1879.8</ele>
        <time>2023-08-21T09:32:17Z</time>
      </trkpt>
      <trkpt lat="45.69126" lon="6.69047">
        <ele>1880</ele>
        <time>2023-08-21T09:32:18Z</time>
      </trkpt>
      <trkpt lat="45.69126" lon="6.69048">
        <ele>1880</ele>
        <time>2023-08-21T09:32:19Z</time>
      </trkpt>
      <trkpt lat="45.69126" lon="6.69048">
        <ele>1880</ele>
        <time>2023-08-21T09:32:20Z</time>
      </trkpt>
      <trkpt lat="45.69126" lon="6.69048">
        <ele>1879.8</ele>
        <time>2023-08-21T09:32:21Z</time>
      </trkpt>
      <trkpt lat="45.69127" lon="6.69057">
        <ele>1879.8</ele>
        <time>2023-08-21T09:32:31Z</time>
      </trkpt>
      <trkpt lat="45.69127" lon="6.69058">
        <ele>1879.8</ele>
        <time>2023-08-21T09:32:32Z</time>
      </trkpt>
      <trkpt lat="45.69127" lon="6.6906">
        <ele>1879.8</ele>
        <time>2023-08-21T09:32:33Z</time>
      </trkpt>
      <trkpt lat="45.69127" lon="6.69061">
        <ele>1879.8</ele>
        <time>2023-08-21T09:32:34Z</time>
      </trkpt>
      <trkpt lat="45.69127" lon="6.69062">
        <ele>1879.8</ele>
        <time>2023-08-21T09:32:35Z</time>
      </trkpt>
      <trkpt lat="45.69127" lon="6.69063">
        <ele>1879.6</ele>
        <time>2023-08-21T09:32:36Z</time>
      </trkpt>
      <trkpt lat="45.69126" lon="6.69064">
        <ele>1879.6</ele>
        <time>2023-08-21T09:32:37Z</time>
      </trkpt>
      <trkpt lat="45.69126" lon="6.69064">
        <ele>1879.6</ele>
        <time>2023-08-21T09:32:38Z</time>
      </trkpt>
      <trkpt lat="45.69126" lon="6.69064">
        <ele>1879.6</ele>
        <time>2023-08-21T09:32:39Z</time>
      </trkpt>
      <trkpt lat="45.69131" lon="6.69071">
        <ele>1879.8</ele>
        <time>2023-08-21T09:41:35Z</time>
      </trkpt>
      <trkpt lat="45.69132" lon="6.69072">
        <ele>1879.6</ele>
        <time>2023-08-21T09:41:36Z</time>
      </trkpt>
      <trkpt lat="45.69132" lon="6.69072">
        <ele>1879.6</ele>
        <time>2023-08-21T09:41:37Z</time>
      </trkpt>
      <trkpt lat="45.69132" lon="6.69073">
        <ele>1879.6</ele>
        <time>2023-08-21T09:41:38Z</time>
      </trkpt>
      <trkpt lat="45.69132" lon="6.69073">
        <ele>1879.6</ele>
        <time>2023-08-21T09:41:39Z</time>
      </trkpt>
      <trkpt lat="45.69134" lon="6.69082">
        <ele>1879.2</ele>
        <time>2023-08-21T09:42:00Z</time>
      </trkpt>
      <trkpt lat="45.69134" lon="6.69085">
        <ele>1879.2</ele>
        <time>2023-08-21T09:42:01Z</time>
      </trkpt>
      <trkpt lat="45.69135" lon="6.69089">
        <ele>1879.2</ele>
        <time>2023-08-21T09:42:02Z</time>
      </trkpt>
      <trkpt lat="45.69136" lon="6.69093">
        <ele>1878.8</ele>
        <time>2023-08-21T09:42:03Z</time>
      </trkpt>
      <trkpt lat="45.69137" lon="6.69097">
        <ele>1878.8</ele>
        <time>2023-08-21T09:42:04Z</time>
      </trkpt>
      <trkpt lat="45.69138" lon="6.69102">
        <ele>1878.8</ele>
        <time>2023-08-21T09:42:05Z</time>
      </trkpt>
      <trkpt lat="45.69139" lon="6.69107">
        <ele>1878.8</ele>
        <time>2023-08-21T09:42:06Z</time>
      </trkpt>
      <trkpt lat="45.6914" lon="6.69113">
        <ele>1878.8</ele>
        <time>2023-08-21T09:42:07Z</time>
      </trkpt>
      <trkpt lat="45.69141" lon="6.69119">
        <ele>1878.2</ele>
        <time>2023-08-21T09:42:08Z</time>
      </trkpt>
      <trkpt lat="45.69142" lon="6.69125">
        <ele>1878</ele>
        <time>2023-08-21T09:42:09Z</time>
      </trkpt>
      <trkpt lat="45.69144" lon="6.69132">
        <ele>1878</ele>
        <time>2023-08-21T09:42:10Z</time>
      </trkpt>
      <trkpt lat="45.69146" lon="6.69139">
        <ele>1878</ele>
        <time>2023-08-21T09:42:11Z</time>
      </trkpt>
      <trkpt lat="45.69147" lon="6.69146">
        <ele>1877.4</ele>
        <time>2023-08-21T09:42:12Z</time>
      </trkpt>
      <trkpt lat="45.6915" lon="6.69154">
        <ele>1877.4</ele>
        <time>2023-08-21T09:42:13Z</time>
      </trkpt>
      <trkpt lat="45.69152" lon="6.69161">
        <ele>1877.4</ele>
        <time>2023-08-21T09:42:14Z</time>
      </trkpt>
      <trkpt lat="45.69154" lon="6.69169">
        <ele>1877.4</ele>
        <time>2023-08-21T09:42:15Z</time>
      </trkpt>
      <trkpt lat="45.69156" lon="6.69177">
        <ele>1876.4</ele>
        <time>2023-08-21T09:42:16Z</time>
      </trkpt>
      <trkpt lat="45.69159" lon="6.69186">
        <ele>1876</ele>
        <time>2023-08-21T09:42:17Z</time>
      </trkpt>
      <trkpt lat="45.69161" lon="6.69195">
        <ele>1876</ele>
        <time>2023-08-21T09:42:18Z</time>
      </trkpt>
      <trkpt lat="45.69165" lon="6.69205">
        <ele>1876</ele>
        <time>2023-08-21T09:42:19Z</time>
      </trkpt>
      <trkpt lat="45.6917" lon="6.69214">
        <ele>1876</ele>
        <time>2023-08-21T09:42:20Z</time>
      </trkpt>
      <trkpt lat="45.69175" lon="6.69222">
        <ele>1875</ele>
        <time>2023-08-21T09:42:21Z</time>
      </trkpt>
      <trkpt lat="45.69183" lon="6.6923">
        <ele>1875</ele>
        <time>2023-08-21T09:42:22Z</time>
      </trkpt>
      <trkpt lat="45.69191" lon="6.69236">
        <ele>1873.4</ele>
        <time>2023-08-21T09:42:23Z</time>
      </trkpt>
      <trkpt lat="45.692" lon="6.69241">
        <ele>1873.4</ele>
        <time>2023-08-21T09:42:24Z</time>
      </trkpt>
      <trkpt lat="45.69209" lon="6.69244">
        <ele>1873.4</ele>
        <time>2023-08-21T09:42:25Z</time>
      </trkpt>
      <trkpt lat="45.6922" lon="6.69246">
        <ele>1872.4</ele>
        <time>2023-08-21T09:42:26Z</time>
      </trkpt>
      <trkpt lat="45.69231" lon="6.69247">
        <ele>1870.4</ele>
        <time>2023-08-21T09:42:27Z</time>
      </trkpt>
      <trkpt lat="45.69242" lon="6.69248">
        <ele>1870.4</ele>
        <time>2023-08-21T09:42:28Z</time>
      </trkpt>
      <trkpt lat="45.69253" lon="6.69248">
        <ele>1870.4</ele>
        <time>2023-08-21T09:42:29Z</time>
      </trkpt>
      <trkpt lat="45.69266" lon="6.69249">
        <ele>1870.4</ele>
        <time>2023-08-21T09:42:30Z</time>
      </trkpt>
      <trkpt lat="45.69278" lon="6.69252">
        <ele>1869.4</ele>
        <time>2023-08-21T09:42:31Z</time>
      </trkpt>
      <trkpt lat="45.6929" lon="6.69257">
        <ele>1865.6</ele>
        <time>2023-08-21T09:42:32Z</time>
      </trkpt>
      <trkpt lat="45.69302" lon="6.69265">
        <ele>1865.6</ele>
        <time>2023-08-21T09:42:33Z</time>
      </trkpt>
      <trkpt lat="45.69313" lon="6.69276">
        <ele>1865.6</ele>
        <time>2023-08-21T09:42:34Z</time>
      </trkpt>
      <trkpt lat="45.69322" lon="6.69289">
        <ele>1864.6</ele>
        <time>2023-08-21T09:42:35Z</time>
      </trkpt>
      <trkpt lat="45.6933" lon="6.69303">
        <ele>1860.6</ele>
        <time>2023-08-21T09:42:36Z</time>
      </trkpt>
      <trkpt lat="45.69337" lon="6.69316">
        <ele>1860.6</ele>
        <time>2023-08-21T09:42:37Z</time>
      </trkpt>
      <trkpt lat="45.69343" lon="6.69328">
        <ele>1860.6</ele>
        <time>2023-08-21T09:42:38Z</time>
      </trkpt>
      <trkpt lat="45.69349" lon="6.6934">
        <ele>1859.6</ele>
        <time>2023-08-21T09:42:39Z</time>
      </trkpt>
      <trkpt lat="45.69355" lon="6.69353">
        <ele>1859.6</ele>
        <time>2023-08-21T09:42:40Z</time>
      </trkpt>
      <trkpt lat="45.69361" lon="6.69366">
        <ele>1857.4</ele>
        <time>2023-08-21T09:42:41Z</time>
      </trkpt>
      <trkpt lat="45.69367" lon="6.6938">
        <ele>1857.4</ele>
        <time>2023-08-21T09:42:42Z</time>
      </trkpt>
      <trkpt lat="45.69372" lon="6.69394">
        <ele>1857.4</ele>
        <time>2023-08-21T09:42:43Z</time>
      </trkpt>
      <trkpt lat="45.69376" lon="6.6941">
        <ele>1856.4</ele>
        <time>2023-08-21T09:42:44Z</time>
      </trkpt>
      <trkpt lat="45.6938" lon="6.69426">
        <ele>1854</ele>
        <time>2023-08-21T09:42:45Z</time>
      </trkpt>
      <trkpt lat="45.69382" lon="6.69443">
        <ele>1854</ele>
        <time>2023-08-21T09:42:46Z</time>
      </trkpt>
      <trkpt lat="45.69384" lon="6.6946">
        <ele>1854</ele>
        <time>2023-08-21T09:42:47Z</time>
      </trkpt>
      <trkpt lat="45.69385" lon="6.69478">
        <ele>1854</ele>
        <time>2023-08-21T09:42:48Z</time>
      </trkpt>
      <trkpt lat="45.69386" lon="6.69496">
        <ele>1849</ele>
        <time>2023-08-21T09:42:49Z</time>
      </trkpt>
      <trkpt lat="45.69387" lon="6.69515">
        <ele>1849</ele>
        <time>2023-08-21T09:42:50Z</time>
      </trkpt>
      <trkpt lat="45.69386" lon="6.69533">
        <ele>1849</ele>
        <time>2023-08-21T09:42:51Z</time>
      </trkpt>
      <trkpt lat="45.69385" lon="6.69552">
        <ele>1849</ele>
        <time>2023-08-21T09:42:52Z</time>
      </trkpt>
      <trkpt lat="45.69382" lon="6.6957">
        <ele>1848</ele>
        <time>2023-08-21T09:42:53Z</time>
      </trkpt>
      <trkpt lat="45.6938" lon="6.69589">
        <ele>1844.4</ele>
        <time>2023-08-21T09:42:54Z</time>
      </trkpt>
      <trkpt lat="45.69378" lon="6.69608">
        <ele>1844.4</ele>
        <time>2023-08-21T09:42:55Z</time>
      </trkpt>
      <trkpt lat="45.69376" lon="6.69628">
        <ele>1844.4</ele>
        <time>2023-08-21T09:42:56Z</time>
      </trkpt>
      <trkpt lat="45.69373" lon="6.69647">
        <ele>1844.4</ele>
        <time>2023-08-21T09:42:57Z</time>
      </trkpt>
      <trkpt lat="45.69369" lon="6.69666">
        <ele>1843.4</ele>
        <time>2023-08-21T09:42:58Z</time>
      </trkpt>
      <trkpt lat="45.69364" lon="6.69684">
        <ele>1839.8</ele>
        <time>2023-08-21T09:42:59Z</time>
      </trkpt>
      <trkpt lat="45.69359" lon="6.69703">
        <ele>1839.8</ele>
        <time>2023-08-21T09:43:00Z</time>
      </trkpt>
      <trkpt lat="45.69354" lon="6.69721">
        <ele>1839.8</ele>
        <time>2023-08-21T09:43:01Z</time>
      </trkpt>
      <trkpt lat="45.69348" lon="6.69739">
        <ele>1839.8</ele>
        <time>2023-08-21T09:43:02Z</time>
      </trkpt>
      <trkpt lat="45.69343" lon="6.69756">
        <ele>1838.8</ele>
        <time>2023-08-21T09:43:03Z</time>
      </trkpt>
      <trkpt lat="45.69336" lon="6.69773">
        <ele>1834.4</ele>
        <time>2023-08-21T09:43:04Z</time>
      </trkpt>
      <trkpt lat="45.69329" lon="6.6979">
        <ele>1834.4</ele>
        <time>2023-08-21T09:43:05Z</time>
      </trkpt>
      <trkpt lat="45.69322" lon="6.69806">
        <ele>1834.4</ele>
        <time>2023-08-21T09:43:06Z</time>
      </trkpt>
      <trkpt lat="45.69315" lon="6.69823">
        <ele>1833.4</ele>
        <time>2023-08-21T09:43:07Z</time>
      </trkpt>
      <trkpt lat="45.69308" lon="6.69839">
        <ele>1833.4</ele>
        <time>2023-08-21T09:43:08Z</time>
      </trkpt>
      <trkpt lat="45.69301" lon="6.69856">
        <ele>1829.6</ele>
        <time>2023-08-21T09:43:09Z</time>
      </trkpt>
      <trkpt lat="45.69294" lon="6.69873">
        <ele>1829.6</ele>
        <time>2023-08-21T09:43:10Z</time>
      </trkpt>
      <trkpt lat="45.69287" lon="6.6989">
        <ele>1829.6</ele>
        <time>2023-08-21T09:43:11Z</time>
      </trkpt>
      <trkpt lat="45.6928" lon="6.69907">
        <ele>1828.6</ele>
        <time>2023-08-21T09:43:12Z</time>
      </trkpt>
      <trkpt lat="45.69272" lon="6.69925">
        <ele>1825</ele>
        <time>2023-08-21T09:43:13Z</time>
      </trkpt>
      <trkpt lat="45.69265" lon="6.69942">
        <ele>1825</ele>
        <time>2023-08-21T09:43:14Z</time>
      </trkpt>
      <trkpt lat="45.69257" lon="6.69959">
        <ele>1825</ele>
        <time>2023-08-21T09:43:15Z</time>
      </trkpt>
      <trkpt lat="45.6925" lon="6.69977">
        <ele>1824</ele>
        <time>2023-08-21T09:43:16Z</time>
      </trkpt>
      <trkpt lat="45.69243" lon="6.69994">
        <ele>1819.2</ele>
        <time>2023-08-21T09:43:17Z</time>
      </trkpt>
      <trkpt lat="45.69236" lon="6.70011">
        <ele>1819.2</ele>
        <time>2023-08-21T09:43:18Z</time>
      </trkpt>
      <trkpt lat="45.69229" lon="6.70027">
        <ele>1819.2</ele>
        <time>2023-08-21T09:43:19Z</time>
      </trkpt>
      <trkpt lat="45.69223" lon="6.70043">
        <ele>1819.2</ele>
        <time>2023-08-21T09:43:20Z</time>
      </trkpt>
      <trkpt lat="45.69217" lon="6.70059">
        <ele>1818.2</ele>
        <time>2023-08-21T09:43:21Z</time>
      </trkpt>
      <trkpt lat="45.69213" lon="6.70077">
        <ele>1814.2</ele>
        <time>2023-08-21T09:43:22Z</time>
      </trkpt>
      <trkpt lat="45.69211" lon="6.70095">
        <ele>1814.2</ele>
        <time>2023-08-21T09:43:23Z</time>
      </trkpt>
      <trkpt lat="45.69209" lon="6.70113">
        <ele>1814.2</ele>
        <time>2023-08-21T09:43:24Z</time>
      </trkpt>
      <trkpt lat="45.69208" lon="6.70133">
        <ele>1813.2</ele>
        <time>2023-08-21T09:43:25Z</time>
      </trkpt>
      <trkpt lat="45.69209" lon="6.70152">
        <ele>1808.8</ele>
        <time>2023-08-21T09:43:26Z</time>
      </trkpt>
      <trkpt lat="45.6921" lon="6.70172">
        <ele>1808.8</ele>
        <time>2023-08-21T09:43:27Z</time>
      </trkpt>
      <trkpt lat="45.69214" lon="6.70192">
        <ele>1808.8</ele>
        <time>2023-08-21T09:43:28Z</time>
      </trkpt>
      <trkpt lat="45.69218" lon="6.70211">
        <ele>1808.8</ele>
        <time>2023-08-21T09:43:29Z</time>
      </trkpt>
      <trkpt lat="45.69224" lon="6.7023">
        <ele>1807.8</ele>
        <time>2023-08-21T09:43:30Z</time>
      </trkpt>
      <trkpt lat="45.69231" lon="6.70249">
        <ele>1802.2</ele>
        <time>2023-08-21T09:43:31Z</time>
      </trkpt>
      <trkpt lat="45.69238" lon="6.70268">
        <ele>1802.2</ele>
        <time>2023-08-21T09:43:32Z</time>
      </trkpt>
      <trkpt lat="45.69245" lon="6.70288">
        <ele>1802.2</ele>
        <time>2023-08-21T09:43:33Z</time>
      </trkpt>
      <trkpt lat="45.69252" lon="6.70308">
        <ele>1801.2</ele>
        <time>2023-08-21T09:43:34Z</time>
      </trkpt>
      <trkpt lat="45.69259" lon="6.70328">
        <ele>1796.2</ele>
        <time>2023-08-21T09:43:35Z</time>
      </trkpt>
      <trkpt lat="45.69265" lon="6.70348">
        <ele>1796.2</ele>
        <time>2023-08-21T09:43:36Z</time>
      </trkpt>
      <trkpt lat="45.6927" lon="6.70369">
        <ele>1796.2</ele>
        <time>2023-08-21T09:43:37Z</time>
      </trkpt>
      <trkpt lat="45.69276" lon="6.7039">
        <ele>1796.2</ele>
        <time>2023-08-21T09:43:38Z</time>
      </trkpt>
      <trkpt lat="45.69281" lon="6.70411">
        <ele>1796.2</ele>
        <time>2023-08-21T09:43:39Z</time>
      </trkpt>
      <trkpt lat="45.69286" lon="6.70432">
        <ele>1791.4</ele>
        <time>2023-08-21T09:43:40Z</time>
      </trkpt>
      <trkpt lat="45.6929" lon="6.70452">
        <ele>1791.4</ele>
        <time>2023-08-21T09:43:41Z</time>
      </trkpt>
      <trkpt lat="45.69294" lon="6.70473">
        <ele>1791.4</ele>
        <time>2023-08-21T09:43:42Z</time>
      </trkpt>
      <trkpt lat="45.69297" lon="6.70494">
        <ele>1791.4</ele>
        <time>2023-08-21T09:43:43Z</time>
      </trkpt>
      <trkpt lat="45.693" lon="6.70515">
        <ele>1791.4</ele>
        <time>2023-08-21T09:43:44Z</time>
      </trkpt>
      <trkpt lat="45.69301" lon="6.70535">
        <ele>1787</ele>
        <time>2023-08-21T09:43:45Z</time>
      </trkpt>
      <trkpt lat="45.69303" lon="6.70554">
        <ele>1787</ele>
        <time>2023-08-21T09:43:46Z</time>
      </trkpt>
      <trkpt lat="45.69305" lon="6.70573">
        <ele>1787</ele>
        <time>2023-08-21T09:43:47Z</time>
      </trkpt>
      <trkpt lat="45.69307" lon="6.70591">
        <ele>1786</ele>
        <time>2023-08-21T09:43:48Z</time>
      </trkpt>
      <trkpt lat="45.6931" lon="6.70609">
        <ele>1786</ele>
        <time>2023-08-21T09:43:49Z</time>
      </trkpt>
      <trkpt lat="45.69312" lon="6.70627">
        <ele>1783.8</ele>
        <time>2023-08-21T09:43:50Z</time>
      </trkpt>
      <trkpt lat="45.69315" lon="6.70645">
        <ele>1783.8</ele>
        <time>2023-08-21T09:43:51Z</time>
      </trkpt>
      <trkpt lat="45.69317" lon="6.70664">
        <ele>1783.8</ele>
        <time>2023-08-21T09:43:52Z</time>
      </trkpt>
      <trkpt lat="45.69319" lon="6.70682">
        <ele>1782.8</ele>
        <time>2023-08-21T09:43:53Z</time>
      </trkpt>
      <trkpt lat="45.69321" lon="6.70701">
        <ele>1780.4</ele>
        <time>2023-08-21T09:43:54Z</time>
      </trkpt>
      <trkpt lat="45.69323" lon="6.7072">
        <ele>1780.4</ele>
        <time>2023-08-21T09:43:55Z</time>
      </trkpt>
      <trkpt lat="45.69326" lon="6.7074">
        <ele>1780.4</ele>
        <time>2023-08-21T09:43:56Z</time>
      </trkpt>
      <trkpt lat="45.69328" lon="6.70759">
        <ele>1780.4</ele>
        <time>2023-08-21T09:43:57Z</time>
      </trkpt>
      <trkpt lat="45.69331" lon="6.70779">
        <ele>1776</ele>
        <time>2023-08-21T09:43:58Z</time>
      </trkpt>
      <trkpt lat="45.69333" lon="6.70799">
        <ele>1776</ele>
        <time>2023-08-21T09:43:59Z</time>
      </trkpt>
      <trkpt lat="45.69335" lon="6.70819">
        <ele>1776</ele>
        <time>2023-08-21T09:44:00Z</time>
      </trkpt>
      <trkpt lat="45.69337" lon="6.70839">
        <ele>1776</ele>
        <time>2023-08-21T09:44:01Z</time>
      </trkpt>
      <trkpt lat="45.6934" lon="6.7086">
        <ele>1775</ele>
        <time>2023-08-21T09:44:02Z</time>
      </trkpt>
      <trkpt lat="45.69342" lon="6.7088">
        <ele>1770.6</ele>
        <time>2023-08-21T09:44:03Z</time>
      </trkpt>
      <trkpt lat="45.69344" lon="6.70901">
        <ele>1770.6</ele>
        <time>2023-08-21T09:44:04Z</time>
      </trkpt>
      <trkpt lat="45.69347" lon="6.70922">
        <ele>1770.6</ele>
        <time>2023-08-21T09:44:05Z</time>
      </trkpt>
      <trkpt lat="45.6935" lon="6.70942">
        <ele>1769.6</ele>
        <time>2023-08-21T09:44:06Z</time>
      </trkpt>
      <trkpt lat="45.69352" lon="6.70962">
        <ele>1765.2</ele>
        <time>2023-08-21T09:44:07Z</time>
      </trkpt>
      <trkpt lat="45.69354" lon="6.70981">
        <ele>1765.2</ele>
        <time>2023-08-21T09:44:08Z</time>
      </trkpt>
      <trkpt lat="45.69357" lon="6.71001">
        <ele>1765.2</ele>
        <time>2023-08-21T09:44:09Z</time>
      </trkpt>
      <trkpt lat="45.69359" lon="6.7102">
        <ele>1765.2</ele>
        <time>2023-08-21T09:44:10Z</time>
      </trkpt>
      <trkpt lat="45.69361" lon="6.7104">
        <ele>1764.2</ele>
        <time>2023-08-21T09:44:11Z</time>
      </trkpt>
      <trkpt lat="45.69363" lon="6.71059">
        <ele>1760</ele>
        <time>2023-08-21T09:44:12Z</time>
      </trkpt>
      <trkpt lat="45.69365" lon="6.71076">
        <ele>1760</ele>
        <time>2023-08-21T09:44:13Z</time>
      </trkpt>
      <trkpt lat="45.69367" lon="6.71091">
        <ele>1760</ele>
        <time>2023-08-21T09:44:14Z</time>
      </trkpt>
      <trkpt lat="45.69368" lon="6.71104">
        <ele>1759</ele>
        <time>2023-08-21T09:44:15Z</time>
      </trkpt>
      <trkpt lat="45.6937" lon="6.71115">
        <ele>1755.6</ele>
        <time>2023-08-21T09:44:16Z</time>
      </trkpt>
      <trkpt lat="45.69373" lon="6.71124">
        <ele>1755.6</ele>
        <time>2023-08-21T09:44:17Z</time>
      </trkpt>
      <trkpt lat="45.69375" lon="6.71132">
        <ele>1755.6</ele>
        <time>2023-08-21T09:44:18Z</time>
      </trkpt>
      <trkpt lat="45.69376" lon="6.71139">
        <ele>1754.6</ele>
        <time>2023-08-21T09:44:19Z</time>
      </trkpt>
      <trkpt lat="45.69377" lon="6.71145">
        <ele>1754.6</ele>
        <time>2023-08-21T09:44:20Z</time>
      </trkpt>
      <trkpt lat="45.69378" lon="6.71149">
        <ele>1753</ele>
        <time>2023-08-21T09:44:21Z</time>
      </trkpt>
      <trkpt lat="45.69378" lon="6.71152">
        <ele>1753</ele>
        <time>2023-08-21T09:44:22Z</time>
      </trkpt>
      <trkpt lat="45.69379" lon="6.71154">
        <ele>1753</ele>
        <time>2023-08-21T09:44:23Z</time>
      </trkpt>
      <trkpt lat="45.69379" lon="6.71155">
        <ele>1753</ele>
        <time>2023-08-21T09:44:24Z</time>
      </trkpt>
      <trkpt lat="45.69379" lon="6.71156">
        <ele>1753</ele>
        <time>2023-08-21T09:44:25Z</time>
      </trkpt>
      <trkpt lat="45.69379" lon="6.71156">
        <ele>1751.8</ele>
        <time>2023-08-21T09:44:26Z</time>
      </trkpt>
      <trkpt lat="45.69379" lon="6.71156">
        <ele>1751.8</ele>
        <time>2023-08-21T09:44:27Z</time>
      </trkpt>
      <trkpt lat="45.69376" lon="6.71157">
        <ele>1751.4</ele>
        <time>2023-08-21T09:45:02Z</time>
      </trkpt>
      <trkpt lat="45.69375" lon="6.71157">
        <ele>1751.4</ele>
        <time>2023-08-21T09:45:03Z</time>
      </trkpt>
      <trkpt lat="45.69374" lon="6.71156">
        <ele>1751.4</ele>
        <time>2023-08-21T09:45:04Z</time>
      </trkpt>
      <trkpt lat="45.69374" lon="6.71155">
        <ele>1751.4</ele>
        <time>2023-08-21T09:45:05Z</time>
      </trkpt>
      <trkpt lat="45.69374" lon="6.71155">
        <ele>1751</ele>
        <time>2023-08-21T09:45:06Z</time>
      </trkpt>
      <trkpt lat="45.69374" lon="6.71155">
        <ele>1751.2</ele>
        <time>2023-08-21T09:45:07Z</time>
      </trkpt>
      <trkpt lat="45.69375" lon="6.71159">
        <ele>1751.8</ele>
        <time>2023-08-21T09:45:39Z</time>
      </trkpt>
      <trkpt lat="45.69375" lon="6.71162">
        <ele>1751.8</ele>
        <time>2023-08-21T09:45:40Z</time>
      </trkpt>
      <trkpt lat="45.69375" lon="6.71166">
        <ele>1751.8</ele>
        <time>2023-08-21T09:45:41Z</time>
      </trkpt>
      <trkpt lat="45.69375" lon="6.7117">
        <ele>1751.8</ele>
        <time>2023-08-21T09:45:42Z</time>
      </trkpt>
      <trkpt lat="45.69376" lon="6.71175">
        <ele>1751.2</ele>
        <time>2023-08-21T09:45:43Z</time>
      </trkpt>
      <trkpt lat="45.69376" lon="6.71181">
        <ele>1751.2</ele>
        <time>2023-08-21T09:45:44Z</time>
      </trkpt>
      <trkpt lat="45.69377" lon="6.71188">
        <ele>1751.2</ele>
        <time>2023-08-21T09:45:45Z</time>
      </trkpt>
      <trkpt lat="45.69377" lon="6.71195">
        <ele>1751.2</ele>
        <time>2023-08-21T09:45:46Z</time>
      </trkpt>
      <trkpt lat="45.69378" lon="6.71202">
        <ele>1750.2</ele>
        <time>2023-08-21T09:45:47Z</time>
      </trkpt>
      <trkpt lat="45.69379" lon="6.71211">
        <ele>1749.8</ele>
        <time>2023-08-21T09:45:48Z</time>
      </trkpt>
      <trkpt lat="45.6938" lon="6.71219">
        <ele>1749.8</ele>
        <time>2023-08-21T09:45:49Z</time>
      </trkpt>
      <trkpt lat="45.69381" lon="6.71229">
        <ele>1749.8</ele>
        <time>2023-08-21T09:45:50Z</time>
      </trkpt>
      <trkpt lat="45.69382" lon="6.71239">
        <ele>1749.8</ele>
        <time>2023-08-21T09:45:51Z</time>
      </trkpt>
      <trkpt lat="45.69383" lon="6.71249">
        <ele>1748.8</ele>
        <time>2023-08-21T09:45:52Z</time>
      </trkpt>
      <trkpt lat="45.69385" lon="6.7126">
        <ele>1748.4</ele>
        <time>2023-08-21T09:45:53Z</time>
      </trkpt>
      <trkpt lat="45.69386" lon="6.71271">
        <ele>1748.4</ele>
        <time>2023-08-21T09:45:54Z</time>
      </trkpt>
      <trkpt lat="45.69388" lon="6.71283">
        <ele>1748.4</ele>
        <time>2023-08-21T09:45:55Z</time>
      </trkpt>
      <trkpt lat="45.69391" lon="6.71294">
        <ele>1747.4</ele>
        <time>2023-08-21T09:45:56Z</time>
      </trkpt>
      <trkpt lat="45.69394" lon="6.71306">
        <ele>1746.4</ele>
        <time>2023-08-21T09:45:57Z</time>
      </trkpt>
      <trkpt lat="45.69397" lon="6.71319">
        <ele>1746.4</ele>
        <time>2023-08-21T09:45:58Z</time>
      </trkpt>
      <trkpt lat="45.69401" lon="6.71331">
        <ele>1746.4</ele>
        <time>2023-08-21T09:45:59Z</time>
      </trkpt>
      <trkpt lat="45.69405" lon="6.71344">
        <ele>1746.4</ele>
        <time>2023-08-21T09:46:00Z</time>
      </trkpt>
      <trkpt lat="45.69409" lon="6.71358">
        <ele>1745.4</ele>
        <time>2023-08-21T09:46:01Z</time>
      </trkpt>
      <trkpt lat="45.69414" lon="6.71371">
        <ele>1744.2</ele>
        <time>2023-08-21T09:46:02Z</time>
      </trkpt>
      <trkpt lat="45.69419" lon="6.71385">
        <ele>1744.2</ele>
        <time>2023-08-21T09:46:03Z</time>
      </trkpt>
      <trkpt lat="45.69424" lon="6.71399">
        <ele>1744.2</ele>
        <time>2023-08-21T09:46:04Z</time>
      </trkpt>
      <trkpt lat="45.69429" lon="6.71413">
        <ele>1743.2</ele>
        <time>2023-08-21T09:46:05Z</time>
      </trkpt>
      <trkpt lat="45.69434" lon="6.71428">
        <ele>1741</ele>
        <time>2023-08-21T09:46:06Z</time>
      </trkpt>
      <trkpt lat="45.69437" lon="6.71443">
        <ele>1741</ele>
        <time>2023-08-21T09:46:07Z</time>
      </trkpt>
      <trkpt lat="45.6944" lon="6.71459">
        <ele>1741</ele>
        <time>2023-08-21T09:46:08Z</time>
      </trkpt>
      <trkpt lat="45.69442" lon="6.71475">
        <ele>1741</ele>
        <time>2023-08-21T09:46:09Z</time>
      </trkpt>
      <trkpt lat="45.69443" lon="6.71492">
        <ele>1738.6</ele>
        <time>2023-08-21T09:46:10Z</time>
      </trkpt>
      <trkpt lat="45.69442" lon="6.71508">
        <ele>1738.6</ele>
        <time>2023-08-21T09:46:11Z</time>
      </trkpt>
      <trkpt lat="45.6944" lon="6.71525">
        <ele>1738.6</ele>
        <time>2023-08-21T09:46:12Z</time>
      </trkpt>
      <trkpt lat="45.69437" lon="6.71541">
        <ele>1738.6</ele>
        <time>2023-08-21T09:46:13Z</time>
      </trkpt>
      <trkpt lat="45.69433" lon="6.71557">
        <ele>1737.6</ele>
        <time>2023-08-21T09:46:14Z</time>
      </trkpt>
      <trkpt lat="45.6943" lon="6.71572">
        <ele>1736.4</ele>
        <time>2023-08-21T09:46:15Z</time>
      </trkpt>
      <trkpt lat="45.69427" lon="6.71588">
        <ele>1736.4</ele>
        <time>2023-08-21T09:46:16Z</time>
      </trkpt>
      <trkpt lat="45.69428" lon="6.71603">
        <ele>1736.4</ele>
        <time>2023-08-21T09:46:17Z</time>
      </trkpt>
      <trkpt lat="45.69432" lon="6.71618">
        <ele>1736.4</ele>
        <time>2023-08-21T09:46:18Z</time>
      </trkpt>
      <trkpt lat="45.69438" lon="6.71631">
        <ele>1733.8</ele>
        <time>2023-08-21T09:46:19Z</time>
      </trkpt>
      <trkpt lat="45.69445" lon="6.71643">
        <ele>1733.8</ele>
        <time>2023-08-21T09:46:20Z</time>
      </trkpt>
      <trkpt lat="45.69453" lon="6.71654">
        <ele>1733.8</ele>
        <time>2023-08-21T09:46:21Z</time>
      </trkpt>
      <trkpt lat="45.69463" lon="6.71662">
        <ele>1733.8</ele>
        <time>2023-08-21T09:46:22Z</time>
      </trkpt>
      <trkpt lat="45.69473" lon="6.71664">
        <ele>1732.8</ele>
        <time>2023-08-21T09:46:23Z</time>
      </trkpt>
      <trkpt lat="45.69484" lon="6.71663">
        <ele>1731</ele>
        <time>2023-08-21T09:46:24Z</time>
      </trkpt>
      <trkpt lat="45.69494" lon="6.71658">
        <ele>1731</ele>
        <time>2023-08-21T09:46:25Z</time>
      </trkpt>
      <trkpt lat="45.69505" lon="6.71653">
        <ele>1731</ele>
        <time>2023-08-21T09:46:26Z</time>
      </trkpt>
      <trkpt lat="45.69515" lon="6.71647">
        <ele>1730</ele>
        <time>2023-08-21T09:46:27Z</time>
      </trkpt>
      <trkpt lat="45.69526" lon="6.71641">
        <ele>1728.8</ele>
        <time>2023-08-21T09:46:28Z</time>
      </trkpt>
      <trkpt lat="45.69536" lon="6.71636">
        <ele>1728.8</ele>
        <time>2023-08-21T09:46:29Z</time>
      </trkpt>
      <trkpt lat="45.69548" lon="6.71635">
        <ele>1728.8</ele>
        <time>2023-08-21T09:46:30Z</time>
      </trkpt>
      <trkpt lat="45.69559" lon="6.71637">
        <ele>1728.8</ele>
        <time>2023-08-21T09:46:31Z</time>
      </trkpt>
      <trkpt lat="45.69569" lon="6.71644">
        <ele>1728.8</ele>
        <time>2023-08-21T09:46:32Z</time>
      </trkpt>
      <trkpt lat="45.69577" lon="6.71655">
        <ele>1725.2</ele>
        <time>2023-08-21T09:46:33Z</time>
      </trkpt>
      <trkpt lat="45.69582" lon="6.71668">
        <ele>1725.2</ele>
        <time>2023-08-21T09:46:34Z</time>
      </trkpt>
      <trkpt lat="45.69582" lon="6.71682">
        <ele>1725.2</ele>
        <time>2023-08-21T09:46:35Z</time>
      </trkpt>
      <trkpt lat="45.69579" lon="6.71696">
        <ele>1725.2</ele>
        <time>2023-08-21T09:46:36Z</time>
      </trkpt>
      <trkpt lat="45.69574" lon="6.71708">
        <ele>1724.2</ele>
        <time>2023-08-21T09:46:37Z</time>
      </trkpt>
      <trkpt lat="45.69569" lon="6.7172">
        <ele>1723</ele>
        <time>2023-08-21T09:46:38Z</time>
      </trkpt>
      <trkpt lat="45.69566" lon="6.71734">
        <ele>1723</ele>
        <time>2023-08-21T09:46:39Z</time>
      </trkpt>
      <trkpt lat="45.69565" lon="6.71749">
        <ele>1723</ele>
        <time>2023-08-21T09:46:40Z</time>
      </trkpt>
      <trkpt lat="45.69565" lon="6.71764">
        <ele>1722</ele>
        <time>2023-08-21T09:46:41Z</time>
      </trkpt>
      <trkpt lat="45.69566" lon="6.71778">
        <ele>1722</ele>
        <time>2023-08-21T09:46:42Z</time>
      </trkpt>
      <trkpt lat="45.69567" lon="6.71793">
        <ele>1720.4</ele>
        <time>2023-08-21T09:46:43Z</time>
      </trkpt>
      <trkpt lat="45.6957" lon="6.71808">
        <ele>1720.4</ele>
        <time>2023-08-21T09:46:44Z</time>
      </trkpt>
      <trkpt lat="45.69574" lon="6.71822">
        <ele>1720.4</ele>
        <time>2023-08-21T09:46:45Z</time>
      </trkpt>
      <trkpt lat="45.69579" lon="6.71836">
        <ele>1719.4</ele>
        <time>2023-08-21T09:46:46Z</time>
      </trkpt>
      <trkpt lat="45.69586" lon="6.71848">
        <ele>1717.6</ele>
        <time>2023-08-21T09:46:47Z</time>
      </trkpt>
      <trkpt lat="45.69594" lon="6.71858">
        <ele>1717.6</ele>
        <time>2023-08-21T09:46:48Z</time>
      </trkpt>
      <trkpt lat="45.69604" lon="6.71866">
        <ele>1717.6</ele>
        <time>2023-08-21T09:46:49Z</time>
      </trkpt>
      <trkpt lat="45.69614" lon="6.71872">
        <ele>1716.6</ele>
        <time>2023-08-21T09:46:50Z</time>
      </trkpt>
      <trkpt lat="45.69625" lon="6.71879">
        <ele>1716.6</ele>
        <time>2023-08-21T09:46:51Z</time>
      </trkpt>
      <trkpt lat="45.69636" lon="6.71886">
        <ele>1714.8</ele>
        <time>2023-08-21T09:46:52Z</time>
      </trkpt>
      <trkpt lat="45.69646" lon="6.71893">
        <ele>1714.8</ele>
        <time>2023-08-21T09:46:53Z</time>
      </trkpt>
      <trkpt lat="45.69657" lon="6.719">
        <ele>1714.8</ele>
        <time>2023-08-21T09:46:54Z</time>
      </trkpt>
      <trkpt lat="45.69668" lon="6.71907">
        <ele>1714.8</ele>
        <time>2023-08-21T09:46:55Z</time>
      </trkpt>
      <trkpt lat="45.69679" lon="6.71914">
        <ele>1712</ele>
        <time>2023-08-21T09:46:56Z</time>
      </trkpt>
      <trkpt lat="45.69691" lon="6.71921">
        <ele>1712</ele>
        <time>2023-08-21T09:46:57Z</time>
      </trkpt>
      <trkpt lat="45.69702" lon="6.71927">
        <ele>1712</ele>
        <time>2023-08-21T09:46:58Z</time>
      </trkpt>
      <trkpt lat="45.69714" lon="6.71934">
        <ele>1711</ele>
        <time>2023-08-21T09:46:59Z</time>
      </trkpt>
      <trkpt lat="45.69724" lon="6.71945">
        <ele>1708.8</ele>
        <time>2023-08-21T09:47:00Z</time>
      </trkpt>
      <trkpt lat="45.69731" lon="6.71959">
        <ele>1708.8</ele>
        <time>2023-08-21T09:47:01Z</time>
      </trkpt>
      <trkpt lat="45.69735" lon="6.71975">
        <ele>1708.8</ele>
        <time>2023-08-21T09:47:02Z</time>
      </trkpt>
      <trkpt lat="45.69736" lon="6.71993">
        <ele>1708.8</ele>
        <time>2023-08-21T09:47:03Z</time>
      </trkpt>
      <trkpt lat="45.69736" lon="6.7201">
        <ele>1707.8</ele>
        <time>2023-08-21T09:47:04Z</time>
      </trkpt>
      <trkpt lat="45.69735" lon="6.72027">
        <ele>1705.8</ele>
        <time>2023-08-21T09:47:05Z</time>
      </trkpt>
      <trkpt lat="45.69733" lon="6.72044">
        <ele>1705.8</ele>
        <time>2023-08-21T09:47:06Z</time>
      </trkpt>
      <trkpt lat="45.69731" lon="6.72061">
        <ele>1705.8</ele>
        <time>2023-08-21T09:47:07Z</time>
      </trkpt>
      <trkpt lat="45.69729" lon="6.72078">
        <ele>1704.8</ele>
        <time>2023-08-21T09:47:08Z</time>
      </trkpt>
      <trkpt lat="45.69728" lon="6.72094">
        <ele>1702.8</ele>
        <time>2023-08-21T09:47:09Z</time>
      </trkpt>
      <trkpt lat="45.69726" lon="6.7211">
        <ele>1702.8</ele>
        <time>2023-08-21T09:47:10Z</time>
      </trkpt>
      <trkpt lat="45.69725" lon="6.72125">
        <ele>1702.8</ele>
        <time>2023-08-21T09:47:11Z</time>
      </trkpt>
      <trkpt lat="45.69724" lon="6.72139">
        <ele>1702.8</ele>
        <time>2023-08-21T09:47:12Z</time>
      </trkpt>
      <trkpt lat="45.69726" lon="6.72153">
        <ele>1702.8</ele>
        <time>2023-08-21T09:47:13Z</time>
      </trkpt>
      <trkpt lat="45.6973" lon="6.72166">
        <ele>1701.8</ele>
        <time>2023-08-21T09:47:14Z</time>
      </trkpt>
      <trkpt lat="45.69738" lon="6.72177">
        <ele>1700</ele>
        <time>2023-08-21T09:47:15Z</time>
      </trkpt>
      <trkpt lat="45.69746" lon="6.72187">
        <ele>1700</ele>
        <time>2023-08-21T09:47:16Z</time>
      </trkpt>
      <trkpt lat="45.69754" lon="6.72198">
        <ele>1700</ele>
        <time>2023-08-21T09:47:17Z</time>
      </trkpt>
      <trkpt lat="45.69761" lon="6.72211">
        <ele>1699</ele>
        <time>2023-08-21T09:47:18Z</time>
      </trkpt>
      <trkpt lat="45.69765" lon="6.72226">
        <ele>1696.4</ele>
        <time>2023-08-21T09:47:19Z</time>
      </trkpt>
      <trkpt lat="45.69767" lon="6.72242">
        <ele>1696.4</ele>
        <time>2023-08-21T09:47:20Z</time>
      </trkpt>
      <trkpt lat="45.69766" lon="6.72258">
        <ele>1696.4</ele>
        <time>2023-08-21T09:47:21Z</time>
      </trkpt>
      <trkpt lat="45.69763" lon="6.72273">
        <ele>1696.4</ele>
        <time>2023-08-21T09:47:22Z</time>
      </trkpt>
      <trkpt lat="45.69758" lon="6.72287">
        <ele>1695.4</ele>
        <time>2023-08-21T09:47:23Z</time>
      </trkpt>
      <trkpt lat="45.69752" lon="6.723">
        <ele>1695.2</ele>
        <time>2023-08-21T09:47:24Z</time>
      </trkpt>
      <trkpt lat="45.69747" lon="6.72314">
        <ele>1695.2</ele>
        <time>2023-08-21T09:47:25Z</time>
      </trkpt>
      <trkpt lat="45.69742" lon="6.72327">
        <ele>1695.2</ele>
        <time>2023-08-21T09:47:26Z</time>
      </trkpt>
      <trkpt lat="45.69738" lon="6.72341">
        <ele>1694.2</ele>
        <time>2023-08-21T09:47:27Z</time>
      </trkpt>
      <trkpt lat="45.69736" lon="6.72355">
        <ele>1693.6</ele>
        <time>2023-08-21T09:47:28Z</time>
      </trkpt>
      <trkpt lat="45.69736" lon="6.72369">
        <ele>1693.6</ele>
        <time>2023-08-21T09:47:29Z</time>
      </trkpt>
      <trkpt lat="45.69739" lon="6.72382">
        <ele>1693.6</ele>
        <time>2023-08-21T09:47:30Z</time>
      </trkpt>
      <trkpt lat="45.69744" lon="6.72395">
        <ele>1692.6</ele>
        <time>2023-08-21T09:47:31Z</time>
      </trkpt>
      <trkpt lat="45.6975" lon="6.72407">
        <ele>1692.6</ele>
        <time>2023-08-21T09:47:32Z</time>
      </trkpt>
      <trkpt lat="45.69758" lon="6.72417">
        <ele>1692</ele>
        <time>2023-08-21T09:47:33Z</time>
      </trkpt>
      <trkpt lat="45.69766" lon="6.72427">
        <ele>1692</ele>
        <time>2023-08-21T09:47:34Z</time>
      </trkpt>
      <trkpt lat="45.69774" lon="6.72437">
        <ele>1692</ele>
        <time>2023-08-21T09:47:35Z</time>
      </trkpt>
      <trkpt lat="45.69782" lon="6.72447">
        <ele>1691</ele>
        <time>2023-08-21T09:47:36Z</time>
      </trkpt>
      <trkpt lat="45.69789" lon="6.72456">
        <ele>1689.6</ele>
        <time>2023-08-21T09:47:37Z</time>
      </trkpt>
      <trkpt lat="45.69794" lon="6.72465">
        <ele>1689.6</ele>
        <time>2023-08-21T09:47:38Z</time>
      </trkpt>
      <trkpt lat="45.69798" lon="6.72471">
        <ele>1689.6</ele>
        <time>2023-08-21T09:47:39Z</time>
      </trkpt>
      <trkpt lat="45.69801" lon="6.72477">
        <ele>1688.6</ele>
        <time>2023-08-21T09:47:40Z</time>
      </trkpt>
      <trkpt lat="45.69802" lon="6.72482">
        <ele>1688.4</ele>
        <time>2023-08-21T09:47:41Z</time>
      </trkpt>
      <trkpt lat="45.69804" lon="6.72486">
        <ele>1688.4</ele>
        <time>2023-08-21T09:47:42Z</time>
      </trkpt>
      <trkpt lat="45.69804" lon="6.72491">
        <ele>1688.4</ele>
        <time>2023-08-21T09:47:43Z</time>
      </trkpt>
      <trkpt lat="45.69805" lon="6.72496">
        <ele>1688.4</ele>
        <time>2023-08-21T09:47:44Z</time>
      </trkpt>
      <trkpt lat="45.69805" lon="6.72502">
        <ele>1687.8</ele>
        <time>2023-08-21T09:47:45Z</time>
      </trkpt>
      <trkpt lat="45.69804" lon="6.72507">
        <ele>1687.8</ele>
        <time>2023-08-21T09:47:46Z</time>
      </trkpt>
      <trkpt lat="45.69802" lon="6.72513">
        <ele>1687.4</ele>
        <time>2023-08-21T09:47:47Z</time>
      </trkpt>
      <trkpt lat="45.69799" lon="6.72519">
        <ele>1687.4</ele>
        <time>2023-08-21T09:47:48Z</time>
      </trkpt>
      <trkpt lat="45.69795" lon="6.72525">
        <ele>1686.8</ele>
        <time>2023-08-21T09:47:49Z</time>
      </trkpt>
      <trkpt lat="45.6979" lon="6.72529">
        <ele>1686.2</ele>
        <time>2023-08-21T09:47:50Z</time>
      </trkpt>
      <trkpt lat="45.69783" lon="6.72531">
        <ele>1686.2</ele>
        <time>2023-08-21T09:47:51Z</time>
      </trkpt>
      <trkpt lat="45.69776" lon="6.72531">
        <ele>1686.2</ele>
        <time>2023-08-21T09:47:52Z</time>
      </trkpt>
      <trkpt lat="45.69769" lon="6.72529">
        <ele>1686.2</ele>
        <time>2023-08-21T09:47:53Z</time>
      </trkpt>
      <trkpt lat="45.69762" lon="6.72527">
        <ele>1686.2</ele>
        <time>2023-08-21T09:47:54Z</time>
      </trkpt>
      <trkpt lat="45.69753" lon="6.72524">
        <ele>1685.2</ele>
        <time>2023-08-21T09:47:55Z</time>
      </trkpt>
      <trkpt lat="45.69745" lon="6.72521">
        <ele>1683.8</ele>
        <time>2023-08-21T09:47:56Z</time>
      </trkpt>
      <trkpt lat="45.69736" lon="6.72518">
        <ele>1683.8</ele>
        <time>2023-08-21T09:47:57Z</time>
      </trkpt>
      <trkpt lat="45.69727" lon="6.72515">
        <ele>1683.8</ele>
        <time>2023-08-21T09:47:58Z</time>
      </trkpt>
      <trkpt lat="45.69719" lon="6.72509">
        <ele>1682.8</ele>
        <time>2023-08-21T09:47:59Z</time>
      </trkpt>
      <trkpt lat="45.69712" lon="6.72501">
        <ele>1682.8</ele>
        <time>2023-08-21T09:48:00Z</time>
      </trkpt>
      <trkpt lat="45.69706" lon="6.72491">
        <ele>1681.4</ele>
        <time>2023-08-21T09:48:01Z</time>
      </trkpt>
      <trkpt lat="45.69701" lon="6.72479">
        <ele>1681.4</ele>
        <time>2023-08-21T09:48:02Z</time>
      </trkpt>
      <trkpt lat="45.69697" lon="6.72466">
        <ele>1681.4</ele>
        <time>2023-08-21T09:48:03Z</time>
      </trkpt>
      <trkpt lat="45.69692" lon="6.72453">
        <ele>1680.4</ele>
        <time>2023-08-21T09:48:04Z</time>
      </trkpt>
      <trkpt lat="45.69687" lon="6.7244">
        <ele>1677</ele>
        <time>2023-08-21T09:48:05Z</time>
      </trkpt>
      <trkpt lat="45.69681" lon="6.72428">
        <ele>1677</ele>
        <time>2023-08-21T09:48:06Z</time>
      </trkpt>
      <trkpt lat="45.69675" lon="6.72415">
        <ele>1677</ele>
        <time>2023-08-21T09:48:07Z</time>
      </trkpt>
      <trkpt lat="45.69669" lon="6.72402">
        <ele>1676</ele>
        <time>2023-08-21T09:48:08Z</time>
      </trkpt>
      <trkpt lat="45.69663" lon="6.72388">
        <ele>1671.4</ele>
        <time>2023-08-21T09:48:09Z</time>
      </trkpt>
      <trkpt lat="45.69657" lon="6.72374">
        <ele>1671.4</ele>
        <time>2023-08-21T09:48:10Z</time>
      </trkpt>
      <trkpt lat="45.69651" lon="6.7236">
        <ele>1671.4</ele>
        <time>2023-08-21T09:48:11Z</time>
      </trkpt>
      <trkpt lat="45.69644" lon="6.72345">
        <ele>1671.4</ele>
        <time>2023-08-21T09:48:12Z</time>
      </trkpt>
      <trkpt lat="45.69638" lon="6.72331">
        <ele>1670.4</ele>
        <time>2023-08-21T09:48:13Z</time>
      </trkpt>
      <trkpt lat="45.69631" lon="6.72316">
        <ele>1666.8</ele>
        <time>2023-08-21T09:48:14Z</time>
      </trkpt>
      <trkpt lat="45.69623" lon="6.72302">
        <ele>1666.8</ele>
        <time>2023-08-21T09:48:15Z</time>
      </trkpt>
      <trkpt lat="45.69616" lon="6.72288">
        <ele>1666.8</ele>
        <time>2023-08-21T09:48:16Z</time>
      </trkpt>
      <trkpt lat="45.6961" lon="6.72273">
        <ele>1665.8</ele>
        <time>2023-08-21T09:48:17Z</time>
      </trkpt>
      <trkpt lat="45.69604" lon="6.7226">
        <ele>1662.6</ele>
        <time>2023-08-21T09:48:18Z</time>
      </trkpt>
      <trkpt lat="45.69597" lon="6.72253">
        <ele>1662.6</ele>
        <time>2023-08-21T09:48:19Z</time>
      </trkpt>
      <trkpt lat="45.6959" lon="6.72253">
        <ele>1662.6</ele>
        <time>2023-08-21T09:48:20Z</time>
      </trkpt>
      <trkpt lat="45.69584" lon="6.72259">
        <ele>1662.6</ele>
        <time>2023-08-21T09:48:21Z</time>
      </trkpt>
      <trkpt lat="45.69582" lon="6.72269">
        <ele>1661.6</ele>
        <time>2023-08-21T09:48:22Z</time>
      </trkpt>
      <trkpt lat="45.69584" lon="6.7228">
        <ele>1660</ele>
        <time>2023-08-21T09:48:23Z</time>
      </trkpt>
      <trkpt lat="45.69589" lon="6.7229">
        <ele>1660</ele>
        <time>2023-08-21T09:48:24Z</time>
      </trkpt>
      <trkpt lat="45.69594" lon="6.72301">
        <ele>1660</ele>
        <time>2023-08-21T09:48:25Z</time>
      </trkpt>
      <trkpt lat="45.69599" lon="6.72313">
        <ele>1659</ele>
        <time>2023-08-21T09:48:26Z</time>
      </trkpt>
      <trkpt lat="45.69603" lon="6.72326">
        <ele>1655.6</ele>
        <time>2023-08-21T09:48:27Z</time>
      </trkpt>
      <trkpt lat="45.69606" lon="6.72341">
        <ele>1655.6</ele>
        <time>2023-08-21T09:48:28Z</time>
      </trkpt>
      <trkpt lat="45.69607" lon="6.72357">
        <ele>1655.6</ele>
        <time>2023-08-21T09:48:29Z</time>
      </trkpt>
      <trkpt lat="45.69607" lon="6.72374">
        <ele>1654.6</ele>
        <time>2023-08-21T09:48:30Z</time>
      </trkpt>
      <trkpt lat="45.69607" lon="6.72392">
        <ele>1651.4</ele>
        <time>2023-08-21T09:48:31Z</time>
      </trkpt>
      <trkpt lat="45.69607" lon="6.7241">
        <ele>1651.4</ele>
        <time>2023-08-21T09:48:32Z</time>
      </trkpt>
      <trkpt lat="45.69607" lon="6.72428">
        <ele>1651.4</ele>
        <time>2023-08-21T09:48:33Z</time>
      </trkpt>
      <trkpt lat="45.69607" lon="6.72446">
        <ele>1651.4</ele>
        <time>2023-08-21T09:48:34Z</time>
      </trkpt>
      <trkpt lat="45.69607" lon="6.72465">
        <ele>1651.4</ele>
        <time>2023-08-21T09:48:35Z</time>
      </trkpt>
      <trkpt lat="45.69607" lon="6.72484">
        <ele>1650.4</ele>
        <time>2023-08-21T09:48:36Z</time>
      </trkpt>
      <trkpt lat="45.69608" lon="6.72503">
        <ele>1646.4</ele>
        <time>2023-08-21T09:48:37Z</time>
      </trkpt>
      <trkpt lat="45.69609" lon="6.72523">
        <ele>1646.4</ele>
        <time>2023-08-21T09:48:38Z</time>
      </trkpt>
      <trkpt lat="45.69611" lon="6.72542">
        <ele>1646.4</ele>
        <time>2023-08-21T09:48:39Z</time>
      </trkpt>
      <trkpt lat="45.69615" lon="6.72561">
        <ele>1645.4</ele>
        <time>2023-08-21T09:48:40Z</time>
      </trkpt>
      <trkpt lat="45.69621" lon="6.7258">
        <ele>1641.8</ele>
        <time>2023-08-21T09:48:41Z</time>
      </trkpt>
      <trkpt lat="45.69626" lon="6.72597">
        <ele>1641.8</ele>
        <time>2023-08-21T09:48:42Z</time>
      </trkpt>
      <trkpt lat="45.6963" lon="6.72615">
        <ele>1641.8</ele>
        <time>2023-08-21T09:48:43Z</time>
      </trkpt>
      <trkpt lat="45.69632" lon="6.72632">
        <ele>1641.8</ele>
        <time>2023-08-21T09:48:44Z</time>
      </trkpt>
      <trkpt lat="45.69633" lon="6.72648">
        <ele>1640.8</ele>
        <time>2023-08-21T09:48:45Z</time>
      </trkpt>
      <trkpt lat="45.6963" lon="6.72662">
        <ele>1637.4</ele>
        <time>2023-08-21T09:48:46Z</time>
      </trkpt>
      <trkpt lat="45.69624" lon="6.7267">
        <ele>1637.4</ele>
        <time>2023-08-21T09:48:47Z</time>
      </trkpt>
      <trkpt lat="45.69616" lon="6.72672">
        <ele>1637.4</ele>
        <time>2023-08-21T09:48:48Z</time>
      </trkpt>
      <trkpt lat="45.69609" lon="6.72667">
        <ele>1636.4</ele>
        <time>2023-08-21T09:48:49Z</time>
      </trkpt>
      <trkpt lat="45.69604" lon="6.72657">
        <ele>1635.4</ele>
        <time>2023-08-21T09:48:50Z</time>
      </trkpt>
      <trkpt lat="45.69602" lon="6.72646">
        <ele>1635.4</ele>
        <time>2023-08-21T09:48:51Z</time>
      </trkpt>
      <trkpt lat="45.69601" lon="6.72635">
        <ele>1635.4</ele>
        <time>2023-08-21T09:48:52Z</time>
      </trkpt>
      <trkpt lat="45.69599" lon="6.72624">
        <ele>1635.4</ele>
        <time>2023-08-21T09:48:53Z</time>
      </trkpt>
      <trkpt lat="45.69598" lon="6.72612">
        <ele>1634.4</ele>
        <time>2023-08-21T09:48:54Z</time>
      </trkpt>
      <trkpt lat="45.69595" lon="6.72601">
        <ele>1633.8</ele>
        <time>2023-08-21T09:48:55Z</time>
      </trkpt>
      <trkpt lat="45.69592" lon="6.72591">
        <ele>1633.8</ele>
        <time>2023-08-21T09:48:56Z</time>
      </trkpt>
      <trkpt lat="45.69589" lon="6.7258">
        <ele>1633.8</ele>
        <time>2023-08-21T09:48:57Z</time>
      </trkpt>
      <trkpt lat="45.69586" lon="6.7257">
        <ele>1632.8</ele>
        <time>2023-08-21T09:48:58Z</time>
      </trkpt>
      <trkpt lat="45.69583" lon="6.72559">
        <ele>1632.8</ele>
        <time>2023-08-21T09:48:59Z</time>
      </trkpt>
      <trkpt lat="45.6958" lon="6.72549">
        <ele>1631.8</ele>
        <time>2023-08-21T09:49:00Z</time>
      </trkpt>
      <trkpt lat="45.69577" lon="6.72539">
        <ele>1631.8</ele>
        <time>2023-08-21T09:49:01Z</time>
      </trkpt>
      <trkpt lat="45.69574" lon="6.72528">
        <ele>1631.8</ele>
        <time>2023-08-21T09:49:02Z</time>
      </trkpt>
      <trkpt lat="45.6957" lon="6.72518">
        <ele>1630.8</ele>
        <time>2023-08-21T09:49:03Z</time>
      </trkpt>
      <trkpt lat="45.69566" lon="6.72508">
        <ele>1630.4</ele>
        <time>2023-08-21T09:49:04Z</time>
      </trkpt>
      <trkpt lat="45.69562" lon="6.72499">
        <ele>1630.4</ele>
        <time>2023-08-21T09:49:05Z</time>
      </trkpt>
      <trkpt lat="45.69557" lon="6.7249">
        <ele>1630.4</ele>
        <time>2023-08-21T09:49:06Z</time>
      </trkpt>
      <trkpt lat="45.69552" lon="6.72481">
        <ele>1629.8</ele>
        <time>2023-08-21T09:49:07Z</time>
      </trkpt>
      <trkpt lat="45.69547" lon="6.72472">
        <ele>1629.8</ele>
        <time>2023-08-21T09:49:08Z</time>
      </trkpt>
      <trkpt lat="45.69543" lon="6.72464">
        <ele>1629.4</ele>
        <time>2023-08-21T09:49:09Z</time>
      </trkpt>
      <trkpt lat="45.69538" lon="6.72455">
        <ele>1629.4</ele>
        <time>2023-08-21T09:49:10Z</time>
      </trkpt>
      <trkpt lat="45.69533" lon="6.72446">
        <ele>1629.4</ele>
        <time>2023-08-21T09:49:11Z</time>
      </trkpt>
      <trkpt lat="45.69528" lon="6.72438">
        <ele>1629.4</ele>
        <time>2023-08-21T09:49:12Z</time>
      </trkpt>
      <trkpt lat="45.69524" lon="6.72429">
        <ele>1629.2</ele>
        <time>2023-08-21T09:49:13Z</time>
      </trkpt>
      <trkpt lat="45.69521" lon="6.72419">
        <ele>1629.2</ele>
        <time>2023-08-21T09:49:14Z</time>
      </trkpt>
      <trkpt lat="45.69519" lon="6.72409">
        <ele>1629.2</ele>
        <time>2023-08-21T09:49:15Z</time>
      </trkpt>
      <trkpt lat="45.6952" lon="6.72398">
        <ele>1628.2</ele>
        <time>2023-08-21T09:49:16Z</time>
      </trkpt>
      <trkpt lat="45.69521" lon="6.72387">
        <ele>1627.4</ele>
        <time>2023-08-21T09:49:17Z</time>
      </trkpt>
      <trkpt lat="45.69524" lon="6.72376">
        <ele>1627.4</ele>
        <time>2023-08-21T09:49:18Z</time>
      </trkpt>
      <trkpt lat="45.69527" lon="6.72365">
        <ele>1627.4</ele>
        <time>2023-08-21T09:49:19Z</time>
      </trkpt>
      <trkpt lat="45.6953" lon="6.72353">
        <ele>1627.4</ele>
        <time>2023-08-21T09:49:20Z</time>
      </trkpt>
      <trkpt lat="45.69532" lon="6.7234">
        <ele>1627.4</ele>
        <time>2023-08-21T09:49:21Z</time>
      </trkpt>
      <trkpt lat="45.69532" lon="6.72327">
        <ele>1626.4</ele>
        <time>2023-08-21T09:49:22Z</time>
      </trkpt>
      <trkpt lat="45.69531" lon="6.72314">
        <ele>1625.2</ele>
        <time>2023-08-21T09:49:23Z</time>
      </trkpt>
      <trkpt lat="45.69529" lon="6.723">
        <ele>1625.2</ele>
        <time>2023-08-21T09:49:24Z</time>
      </trkpt>
      <trkpt lat="45.69526" lon="6.72287">
        <ele>1625.2</ele>
        <time>2023-08-21T09:49:25Z</time>
      </trkpt>
      <trkpt lat="45.69523" lon="6.72274">
        <ele>1624.2</ele>
        <time>2023-08-21T09:49:26Z</time>
      </trkpt>
      <trkpt lat="45.69521" lon="6.7226">
        <ele>1622.8</ele>
        <time>2023-08-21T09:49:27Z</time>
      </trkpt>
      <trkpt lat="45.69517" lon="6.72247">
        <ele>1622.8</ele>
        <time>2023-08-21T09:49:28Z</time>
      </trkpt>
      <trkpt lat="45.69512" lon="6.72234">
        <ele>1622.8</ele>
        <time>2023-08-21T09:49:29Z</time>
      </trkpt>
      <trkpt lat="45.69505" lon="6.72222">
        <ele>1621.8</ele>
        <time>2023-08-21T09:49:30Z</time>
      </trkpt>
      <trkpt lat="45.69498" lon="6.72212">
        <ele>1621.8</ele>
        <time>2023-08-21T09:49:31Z</time>
      </trkpt>
      <trkpt lat="45.69489" lon="6.72204">
        <ele>1620.8</ele>
        <time>2023-08-21T09:49:32Z</time>
      </trkpt>
      <trkpt lat="45.69479" lon="6.72203">
        <ele>1620.8</ele>
        <time>2023-08-21T09:49:33Z</time>
      </trkpt>
      <trkpt lat="45.6947" lon="6.72206">
        <ele>1620.8</ele>
        <time>2023-08-21T09:49:34Z</time>
      </trkpt>
      <trkpt lat="45.6946" lon="6.72213">
        <ele>1619.8</ele>
        <time>2023-08-21T09:49:35Z</time>
      </trkpt>
      <trkpt lat="45.69451" lon="6.72222">
        <ele>1617.4</ele>
        <time>2023-08-21T09:49:36Z</time>
      </trkpt>
      <trkpt lat="45.69442" lon="6.72233">
        <ele>1617.4</ele>
        <time>2023-08-21T09:49:37Z</time>
      </trkpt>
      <trkpt lat="45.69434" lon="6.72245">
        <ele>1617.4</ele>
        <time>2023-08-21T09:49:38Z</time>
      </trkpt>
      <trkpt lat="45.69426" lon="6.72259">
        <ele>1617.4</ele>
        <time>2023-08-21T09:49:39Z</time>
      </trkpt>
      <trkpt lat="45.69419" lon="6.72273">
        <ele>1613.4</ele>
        <time>2023-08-21T09:49:40Z</time>
      </trkpt>
      <trkpt lat="45.69412" lon="6.72289">
        <ele>1613.4</ele>
        <time>2023-08-21T09:49:41Z</time>
      </trkpt>
      <trkpt lat="45.69407" lon="6.72305">
        <ele>1613.4</ele>
        <time>2023-08-21T09:49:42Z</time>
      </trkpt>
      <trkpt lat="45.694" lon="6.7232">
        <ele>1613.4</ele>
        <time>2023-08-21T09:49:43Z</time>
      </trkpt>
      <trkpt lat="45.69393" lon="6.72335">
        <ele>1612.4</ele>
        <time>2023-08-21T09:49:44Z</time>
      </trkpt>
      <trkpt lat="45.69388" lon="6.72351">
        <ele>1609.4</ele>
        <time>2023-08-21T09:49:45Z</time>
      </trkpt>
      <trkpt lat="45.69385" lon="6.72369">
        <ele>1609.4</ele>
        <time>2023-08-21T09:49:46Z</time>
      </trkpt>
      <trkpt lat="45.69384" lon="6.72387">
        <ele>1609.4</ele>
        <time>2023-08-21T09:49:47Z</time>
      </trkpt>
      <trkpt lat="45.69385" lon="6.72405">
        <ele>1608.4</ele>
        <time>2023-08-21T09:49:48Z</time>
      </trkpt>
      <trkpt lat="45.69386" lon="6.72423">
        <ele>1605.2</ele>
        <time>2023-08-21T09:49:49Z</time>
      </trkpt>
      <trkpt lat="45.69388" lon="6.7244">
        <ele>1605.2</ele>
        <time>2023-08-21T09:49:50Z</time>
      </trkpt>
      <trkpt lat="45.69391" lon="6.72459">
        <ele>1605.2</ele>
        <time>2023-08-21T09:49:51Z</time>
      </trkpt>
      <trkpt lat="45.69393" lon="6.72478">
        <ele>1604.2</ele>
        <time>2023-08-21T09:49:52Z</time>
      </trkpt>
      <trkpt lat="45.69394" lon="6.72497">
        <ele>1604.2</ele>
        <time>2023-08-21T09:49:53Z</time>
      </trkpt>
      <trkpt lat="45.69396" lon="6.72517">
        <ele>1600.4</ele>
        <time>2023-08-21T09:49:54Z</time>
      </trkpt>
      <trkpt lat="45.69398" lon="6.72536">
        <ele>1600.4</ele>
        <time>2023-08-21T09:49:55Z</time>
      </trkpt>
      <trkpt lat="45.69399" lon="6.72556">
        <ele>1600.4</ele>
        <time>2023-08-21T09:49:56Z</time>
      </trkpt>
      <trkpt lat="45.694" lon="6.72577">
        <ele>1600.4</ele>
        <time>2023-08-21T09:49:57Z</time>
      </trkpt>
      <trkpt lat="45.69401" lon="6.72598">
        <ele>1593.8</ele>
        <time>2023-08-21T09:49:58Z</time>
      </trkpt>
      <trkpt lat="45.69401" lon="6.72619">
        <ele>1593.8</ele>
        <time>2023-08-21T09:49:59Z</time>
      </trkpt>
      <trkpt lat="45.694" lon="6.72639">
        <ele>1593.8</ele>
        <time>2023-08-21T09:50:00Z</time>
      </trkpt>
      <trkpt lat="45.69398" lon="6.72658">
        <ele>1593.8</ele>
        <time>2023-08-21T09:50:01Z</time>
      </trkpt>
      <trkpt lat="45.69396" lon="6.72678">
        <ele>1592.8</ele>
        <time>2023-08-21T09:50:02Z</time>
      </trkpt>
      <trkpt lat="45.69393" lon="6.72697">
        <ele>1592.8</ele>
        <time>2023-08-21T09:50:03Z</time>
      </trkpt>
      <trkpt lat="45.6939" lon="6.72717">
        <ele>1587.8</ele>
        <time>2023-08-21T09:50:04Z</time>
      </trkpt>
      <trkpt lat="45.69387" lon="6.72736">
        <ele>1587.8</ele>
        <time>2023-08-21T09:50:05Z</time>
      </trkpt>
      <trkpt lat="45.69383" lon="6.72756">
        <ele>1587.8</ele>
        <time>2023-08-21T09:50:06Z</time>
      </trkpt>
      <trkpt lat="45.69379" lon="6.72775">
        <ele>1586.8</ele>
        <time>2023-08-21T09:50:07Z</time>
      </trkpt>
      <trkpt lat="45.69375" lon="6.72795">
        <ele>1582.4</ele>
        <time>2023-08-21T09:50:08Z</time>
      </trkpt>
      <trkpt lat="45.69371" lon="6.72814">
        <ele>1582.4</ele>
        <time>2023-08-21T09:50:09Z</time>
      </trkpt>
      <trkpt lat="45.69367" lon="6.72835">
        <ele>1582.4</ele>
        <time>2023-08-21T09:50:10Z</time>
      </trkpt>
      <trkpt lat="45.69363" lon="6.72855">
        <ele>1582.4</ele>
        <time>2023-08-21T09:50:11Z</time>
      </trkpt>
      <trkpt lat="45.6936" lon="6.72876">
        <ele>1581.4</ele>
        <time>2023-08-21T09:50:12Z</time>
      </trkpt>
      <trkpt lat="45.69359" lon="6.72897">
        <ele>1576.4</ele>
        <time>2023-08-21T09:50:13Z</time>
      </trkpt>
      <trkpt lat="45.69357" lon="6.72918">
        <ele>1576.4</ele>
        <time>2023-08-21T09:50:14Z</time>
      </trkpt>
      <trkpt lat="45.69355" lon="6.7294">
        <ele>1576.4</ele>
        <time>2023-08-21T09:50:15Z</time>
      </trkpt>
      <trkpt lat="45.69353" lon="6.72961">
        <ele>1575.4</ele>
        <time>2023-08-21T09:50:16Z</time>
      </trkpt>
      <trkpt lat="45.6935" lon="6.72982">
        <ele>1570.6</ele>
        <time>2023-08-21T09:50:17Z</time>
      </trkpt>
      <trkpt lat="45.69346" lon="6.73003">
        <ele>1570.6</ele>
        <time>2023-08-21T09:50:18Z</time>
      </trkpt>
      <trkpt lat="45.69343" lon="6.73024">
        <ele>1570.6</ele>
        <time>2023-08-21T09:50:19Z</time>
      </trkpt>
      <trkpt lat="45.69339" lon="6.73044">
        <ele>1569.6</ele>
        <time>2023-08-21T09:50:20Z</time>
      </trkpt>
      <trkpt lat="45.69335" lon="6.73065">
        <ele>1569.6</ele>
        <time>2023-08-21T09:50:21Z</time>
      </trkpt>
      <trkpt lat="45.69331" lon="6.73084">
        <ele>1564.2</ele>
        <time>2023-08-21T09:50:22Z</time>
      </trkpt>
      <trkpt lat="45.69328" lon="6.73103">
        <ele>1564.2</ele>
        <time>2023-08-21T09:50:23Z</time>
      </trkpt>
      <trkpt lat="45.69328" lon="6.73122">
        <ele>1564.2</ele>
        <time>2023-08-21T09:50:24Z</time>
      </trkpt>
      <trkpt lat="45.6933" lon="6.7314">
        <ele>1563.2</ele>
        <time>2023-08-21T09:50:25Z</time>
      </trkpt>
      <trkpt lat="45.69333" lon="6.73155">
        <ele>1559</ele>
        <time>2023-08-21T09:50:26Z</time>
      </trkpt>
      <trkpt lat="45.69334" lon="6.73169">
        <ele>1559</ele>
        <time>2023-08-21T09:50:27Z</time>
      </trkpt>
      <trkpt lat="45.69333" lon="6.73183">
        <ele>1559</ele>
        <time>2023-08-21T09:50:28Z</time>
      </trkpt>
      <trkpt lat="45.69329" lon="6.73194">
        <ele>1558</ele>
        <time>2023-08-21T09:50:29Z</time>
      </trkpt>
      <trkpt lat="45.69322" lon="6.73202">
        <ele>1556.2</ele>
        <time>2023-08-21T09:50:30Z</time>
      </trkpt>
      <trkpt lat="45.69312" lon="6.73209">
        <ele>1556.2</ele>
        <time>2023-08-21T09:50:31Z</time>
      </trkpt>
      <trkpt lat="45.69303" lon="6.73215">
        <ele>1556.2</ele>
        <time>2023-08-21T09:50:32Z</time>
      </trkpt>
      <trkpt lat="45.69294" lon="6.73221">
        <ele>1555.2</ele>
        <time>2023-08-21T09:50:33Z</time>
      </trkpt>
      <trkpt lat="45.69284" lon="6.73227">
        <ele>1553.4</ele>
        <time>2023-08-21T09:50:34Z</time>
      </trkpt>
      <trkpt lat="45.69274" lon="6.73232">
        <ele>1553.4</ele>
        <time>2023-08-21T09:50:35Z</time>
      </trkpt>
      <trkpt lat="45.69263" lon="6.73235">
        <ele>1553.4</ele>
        <time>2023-08-21T09:50:36Z</time>
      </trkpt>
      <trkpt lat="45.69252" lon="6.73236">
        <ele>1553.4</ele>
        <time>2023-08-21T09:50:37Z</time>
      </trkpt>
      <trkpt lat="45.6924" lon="6.73238">
        <ele>1552.4</ele>
        <time>2023-08-21T09:50:38Z</time>
      </trkpt>
      <trkpt lat="45.69228" lon="6.73241">
        <ele>1550</ele>
        <time>2023-08-21T09:50:39Z</time>
      </trkpt>
      <trkpt lat="45.69216" lon="6.73244">
        <ele>1550</ele>
        <time>2023-08-21T09:50:40Z</time>
      </trkpt>
      <trkpt lat="45.69204" lon="6.73247">
        <ele>1550</ele>
        <time>2023-08-21T09:50:41Z</time>
      </trkpt>
      <trkpt lat="45.69192" lon="6.73251">
        <ele>1550</ele>
        <time>2023-08-21T09:50:42Z</time>
      </trkpt>
      <trkpt lat="45.6918" lon="6.73253">
        <ele>1549</ele>
        <time>2023-08-21T09:50:43Z</time>
      </trkpt>
      <trkpt lat="45.6917" lon="6.73254">
        <ele>1546</ele>
        <time>2023-08-21T09:50:44Z</time>
      </trkpt>
      <trkpt lat="45.69162" lon="6.73255">
        <ele>1546</ele>
        <time>2023-08-21T09:50:45Z</time>
      </trkpt>
      <trkpt lat="45.69155" lon="6.73256">
        <ele>1546</ele>
        <time>2023-08-21T09:50:46Z</time>
      </trkpt>
      <trkpt lat="45.6915" lon="6.73259">
        <ele>1546</ele>
        <time>2023-08-21T09:50:47Z</time>
      </trkpt>
      <trkpt lat="45.69147" lon="6.73262">
        <ele>1545</ele>
        <time>2023-08-21T09:50:48Z</time>
      </trkpt>
      <trkpt lat="45.69144" lon="6.73262">
        <ele>1543</ele>
        <time>2023-08-21T09:50:49Z</time>
      </trkpt>
      <trkpt lat="45.69142" lon="6.73262">
        <ele>1543</ele>
        <time>2023-08-21T09:50:50Z</time>
      </trkpt>
      <trkpt lat="45.69141" lon="6.73263">
        <ele>1543</ele>
        <time>2023-08-21T09:50:51Z</time>
      </trkpt>
      <trkpt lat="45.69141" lon="6.73262">
        <ele>1542</ele>
        <time>2023-08-21T09:50:52Z</time>
      </trkpt>
      <trkpt lat="45.69141" lon="6.73262">
        <ele>1541.4</ele>
        <time>2023-08-21T09:50:53Z</time>
      </trkpt>
      <trkpt lat="45.69139" lon="6.73262">
        <ele>1541.4</ele>
        <time>2023-08-21T09:50:54Z</time>
      </trkpt>
      <trkpt lat="45.69138" lon="6.73262">
        <ele>1541.4</ele>
        <time>2023-08-21T09:50:55Z</time>
      </trkpt>
      <trkpt lat="45.69136" lon="6.73262">
        <ele>1541.4</ele>
        <time>2023-08-21T09:50:56Z</time>
      </trkpt>
      <trkpt lat="45.69132" lon="6.73261">
        <ele>1540.8</ele>
        <time>2023-08-21T09:50:57Z</time>
      </trkpt>
      <trkpt lat="45.6913" lon="6.7326">
        <ele>1540.8</ele>
        <time>2023-08-21T09:50:58Z</time>
      </trkpt>
      <trkpt lat="45.69127" lon="6.73259">
        <ele>1540.8</ele>
        <time>2023-08-21T09:50:59Z</time>
      </trkpt>
      <trkpt lat="45.69125" lon="6.73258">
        <ele>1540.8</ele>
        <time>2023-08-21T09:51:00Z</time>
      </trkpt>
      <trkpt lat="45.69123" lon="6.73257">
        <ele>1540.4</ele>
        <time>2023-08-21T09:51:36Z</time>
      </trkpt>
      <trkpt lat="45.6912" lon="6.73256">
        <ele>1540.4</ele>
        <time>2023-08-21T09:51:37Z</time>
      </trkpt>
      <trkpt lat="45.69116" lon="6.73256">
        <ele>1539.6</ele>
        <time>2023-08-21T09:51:38Z</time>
      </trkpt>
      <trkpt lat="45.6911" lon="6.73257">
        <ele>1539.6</ele>
        <time>2023-08-21T09:51:39Z</time>
      </trkpt>
      <trkpt lat="45.69104" lon="6.73258">
        <ele>1539.6</ele>
        <time>2023-08-21T09:51:40Z</time>
      </trkpt>
      <trkpt lat="45.69097" lon="6.73258">
        <ele>1539.6</ele>
        <time>2023-08-21T09:51:41Z</time>
      </trkpt>
      <trkpt lat="45.6909" lon="6.73259">
        <ele>1538.6</ele>
        <time>2023-08-21T09:51:42Z</time>
      </trkpt>
      <trkpt lat="45.69083" lon="6.73261">
        <ele>1537.8</ele>
        <time>2023-08-21T09:51:43Z</time>
      </trkpt>
      <trkpt lat="45.69075" lon="6.73262">
        <ele>1537.8</ele>
        <time>2023-08-21T09:51:44Z</time>
      </trkpt>
      <trkpt lat="45.69067" lon="6.73264">
        <ele>1537.8</ele>
        <time>2023-08-21T09:51:45Z</time>
      </trkpt>
      <trkpt lat="45.69059" lon="6.73266">
        <ele>1536.8</ele>
        <time>2023-08-21T09:51:46Z</time>
      </trkpt>
      <trkpt lat="45.6905" lon="6.73269">
        <ele>1534.8</ele>
        <time>2023-08-21T09:51:47Z</time>
      </trkpt>
      <trkpt lat="45.69041" lon="6.73272">
        <ele>1534.8</ele>
        <time>2023-08-21T09:51:48Z</time>
      </trkpt>
      <trkpt lat="45.69032" lon="6.73276">
        <ele>1534.8</ele>
        <time>2023-08-21T09:51:49Z</time>
      </trkpt>
      <trkpt lat="45.69023" lon="6.7328">
        <ele>1533.8</ele>
        <time>2023-08-21T09:51:50Z</time>
      </trkpt>
      <trkpt lat="45.69014" lon="6.73282">
        <ele>1533.8</ele>
        <time>2023-08-21T09:51:51Z</time>
      </trkpt>
      <trkpt lat="45.69004" lon="6.73284">
        <ele>1532</ele>
        <time>2023-08-21T09:51:52Z</time>
      </trkpt>
      <trkpt lat="45.68994" lon="6.73285">
        <ele>1532</ele>
        <time>2023-08-21T09:51:53Z</time>
      </trkpt>
      <trkpt lat="45.68984" lon="6.73287">
        <ele>1532</ele>
        <time>2023-08-21T09:51:54Z</time>
      </trkpt>
      <trkpt lat="45.68973" lon="6.73289">
        <ele>1531</ele>
        <time>2023-08-21T09:51:55Z</time>
      </trkpt>
      <trkpt lat="45.68963" lon="6.73291">
        <ele>1528.4</ele>
        <time>2023-08-21T09:51:56Z</time>
      </trkpt>
      <trkpt lat="45.68953" lon="6.73294">
        <ele>1528.4</ele>
        <time>2023-08-21T09:51:57Z</time>
      </trkpt>
      <trkpt lat="45.68942" lon="6.73297">
        <ele>1528.4</ele>
        <time>2023-08-21T09:51:58Z</time>
      </trkpt>
      <trkpt lat="45.68931" lon="6.733">
        <ele>1527.4</ele>
        <time>2023-08-21T09:51:59Z</time>
      </trkpt>
      <trkpt lat="45.6892" lon="6.73303">
        <ele>1524.2</ele>
        <time>2023-08-21T09:52:00Z</time>
      </trkpt>
      <trkpt lat="45.68909" lon="6.73305">
        <ele>1524.2</ele>
        <time>2023-08-21T09:52:01Z</time>
      </trkpt>
      <trkpt lat="45.68897" lon="6.73306">
        <ele>1524.2</ele>
        <time>2023-08-21T09:52:02Z</time>
      </trkpt>
      <trkpt lat="45.68885" lon="6.73305">
        <ele>1524.2</ele>
        <time>2023-08-21T09:52:03Z</time>
      </trkpt>
      <trkpt lat="45.68873" lon="6.73301">
        <ele>1523.2</ele>
        <time>2023-08-21T09:52:04Z</time>
      </trkpt>
      <trkpt lat="45.68861" lon="6.73296">
        <ele>1523.2</ele>
        <time>2023-08-21T09:52:05Z</time>
      </trkpt>
      <trkpt lat="45.68849" lon="6.73291">
        <ele>1523.2</ele>
        <time>2023-08-21T09:52:06Z</time>
      </trkpt>
      <trkpt lat="45.68837" lon="6.73286">
        <ele>1519.6</ele>
        <time>2023-08-21T09:52:07Z</time>
      </trkpt>
      <trkpt lat="45.68824" lon="6.73282">
        <ele>1519.6</ele>
        <time>2023-08-21T09:52:08Z</time>
      </trkpt>
      <trkpt lat="45.68811" lon="6.73278">
        <ele>1518.6</ele>
        <time>2023-08-21T09:52:09Z</time>
      </trkpt>
      <trkpt lat="45.68798" lon="6.73277">
        <ele>1518.6</ele>
        <time>2023-08-21T09:52:10Z</time>
      </trkpt>
      <trkpt lat="45.68785" lon="6.73278">
        <ele>1514</ele>
        <time>2023-08-21T09:52:11Z</time>
      </trkpt>
      <trkpt lat="45.68772" lon="6.7328">
        <ele>1514</ele>
        <time>2023-08-21T09:52:12Z</time>
      </trkpt>
      <trkpt lat="45.68759" lon="6.73283">
        <ele>1514</ele>
        <time>2023-08-21T09:52:13Z</time>
      </trkpt>
      <trkpt lat="45.68746" lon="6.73287">
        <ele>1513</ele>
        <time>2023-08-21T09:52:14Z</time>
      </trkpt>
      <trkpt lat="45.68733" lon="6.73291">
        <ele>1503.2</ele>
        <time>2023-08-21T09:52:15Z</time>
      </trkpt>
      <trkpt lat="45.6872" lon="6.73295">
        <ele>1503.2</ele>
        <time>2023-08-21T09:52:16Z</time>
      </trkpt>
      <trkpt lat="45.68706" lon="6.73298">
        <ele>1503.2</ele>
        <time>2023-08-21T09:52:17Z</time>
      </trkpt>
      <trkpt lat="45.68693" lon="6.73302">
        <ele>1503.2</ele>
        <time>2023-08-21T09:52:18Z</time>
      </trkpt>
      <trkpt lat="45.68679" lon="6.73305">
        <ele>1505.2</ele>
        <time>2023-08-21T09:52:19Z</time>
      </trkpt>
      <trkpt lat="45.68666" lon="6.73308">
        <ele>1505.2</ele>
        <time>2023-08-21T09:52:20Z</time>
      </trkpt>
      <trkpt lat="45.68652" lon="6.73313">
        <ele>1505.2</ele>
        <time>2023-08-21T09:52:21Z</time>
      </trkpt>
      <trkpt lat="45.68639" lon="6.73319">
        <ele>1505.2</ele>
        <time>2023-08-21T09:52:22Z</time>
      </trkpt>
      <trkpt lat="45.68627" lon="6.73327">
        <ele>1504.2</ele>
        <time>2023-08-21T09:52:23Z</time>
      </trkpt>
      <trkpt lat="45.68615" lon="6.73338">
        <ele>1504.2</ele>
        <time>2023-08-21T09:52:24Z</time>
      </trkpt>
      <trkpt lat="45.68605" lon="6.7335">
        <ele>1499.2</ele>
        <time>2023-08-21T09:52:25Z</time>
      </trkpt>
      <trkpt lat="45.68597" lon="6.73364">
        <ele>1499.2</ele>
        <time>2023-08-21T09:52:26Z</time>
      </trkpt>
      <trkpt lat="45.6859" lon="6.7338">
        <ele>1499.2</ele>
        <time>2023-08-21T09:52:27Z</time>
      </trkpt>
      <trkpt lat="45.68586" lon="6.73397">
        <ele>1498.2</ele>
        <time>2023-08-21T09:52:28Z</time>
      </trkpt>
      <trkpt lat="45.68583" lon="6.73415">
        <ele>1495.2</ele>
        <time>2023-08-21T09:52:29Z</time>
      </trkpt>
      <trkpt lat="45.68582" lon="6.73432">
        <ele>1495.2</ele>
        <time>2023-08-21T09:52:30Z</time>
      </trkpt>
      <trkpt lat="45.68582" lon="6.73449">
        <ele>1495.2</ele>
        <time>2023-08-21T09:52:31Z</time>
      </trkpt>
      <trkpt lat="45.68583" lon="6.73466">
        <ele>1494.2</ele>
        <time>2023-08-21T09:52:32Z</time>
      </trkpt>
      <trkpt lat="45.68584" lon="6.73482">
        <ele>1492.4</ele>
        <time>2023-08-21T09:52:33Z</time>
      </trkpt>
      <trkpt lat="45.68583" lon="6.73498">
        <ele>1492.4</ele>
        <time>2023-08-21T09:52:34Z</time>
      </trkpt>
      <trkpt lat="45.68582" lon="6.73514">
        <ele>1492.4</ele>
        <time>2023-08-21T09:52:35Z</time>
      </trkpt>
      <trkpt lat="45.68579" lon="6.73529">
        <ele>1492.4</ele>
        <time>2023-08-21T09:52:36Z</time>
      </trkpt>
      <trkpt lat="45.68576" lon="6.73544">
        <ele>1491.4</ele>
        <time>2023-08-21T09:52:37Z</time>
      </trkpt>
      <trkpt lat="45.68571" lon="6.73558">
        <ele>1489.6</ele>
        <time>2023-08-21T09:52:38Z</time>
      </trkpt>
      <trkpt lat="45.68566" lon="6.73571">
        <ele>1489.6</ele>
        <time>2023-08-21T09:52:39Z</time>
      </trkpt>
      <trkpt lat="45.68561" lon="6.73585">
        <ele>1489.6</ele>
        <time>2023-08-21T09:52:40Z</time>
      </trkpt>
      <trkpt lat="45.68556" lon="6.73597">
        <ele>1488.6</ele>
        <time>2023-08-21T09:52:41Z</time>
      </trkpt>
      <trkpt lat="45.68549" lon="6.73609">
        <ele>1487.4</ele>
        <time>2023-08-21T09:52:42Z</time>
      </trkpt>
      <trkpt lat="45.68543" lon="6.7362">
        <ele>1487.4</ele>
        <time>2023-08-21T09:52:43Z</time>
      </trkpt>
      <trkpt lat="45.68537" lon="6.73631">
        <ele>1487.4</ele>
        <time>2023-08-21T09:52:44Z</time>
      </trkpt>
      <trkpt lat="45.68531" lon="6.73642">
        <ele>1486.6</ele>
        <time>2023-08-21T09:52:45Z</time>
      </trkpt>
      <trkpt lat="45.68525" lon="6.7365">
        <ele>1486.6</ele>
        <time>2023-08-21T09:52:46Z</time>
      </trkpt>
      <trkpt lat="45.6852" lon="6.73656">
        <ele>1485.4</ele>
        <time>2023-08-21T09:52:47Z</time>
      </trkpt>
      <trkpt lat="45.68517" lon="6.73663">
        <ele>1485.4</ele>
        <time>2023-08-21T09:52:48Z</time>
      </trkpt>
      <trkpt lat="45.68517" lon="6.7367">
        <ele>1485.4</ele>
        <time>2023-08-21T09:52:49Z</time>
      </trkpt>
      <trkpt lat="45.68521" lon="6.73674">
        <ele>1485.4</ele>
        <time>2023-08-21T09:52:50Z</time>
      </trkpt>
      <trkpt lat="45.68525" lon="6.73675">
        <ele>1485.4</ele>
        <time>2023-08-21T09:52:51Z</time>
      </trkpt>
      <trkpt lat="45.6853" lon="6.73674">
        <ele>1485</ele>
        <time>2023-08-21T09:52:52Z</time>
      </trkpt>
      <trkpt lat="45.68535" lon="6.73672">
        <ele>1485</ele>
        <time>2023-08-21T09:52:53Z</time>
      </trkpt>
      <trkpt lat="45.68539" lon="6.73668">
        <ele>1485</ele>
        <time>2023-08-21T09:52:54Z</time>
      </trkpt>
      <trkpt lat="45.68544" lon="6.73663">
        <ele>1484</ele>
        <time>2023-08-21T09:52:55Z</time>
      </trkpt>
      <trkpt lat="45.6855" lon="6.73658">
        <ele>1483.4</ele>
        <time>2023-08-21T09:52:56Z</time>
      </trkpt>
      <trkpt lat="45.68556" lon="6.73653">
        <ele>1483.4</ele>
        <time>2023-08-21T09:52:57Z</time>
      </trkpt>
      <trkpt lat="45.68563" lon="6.73648">
        <ele>1483.4</ele>
        <time>2023-08-21T09:52:58Z</time>
      </trkpt>
      <trkpt lat="45.68569" lon="6.73644">
        <ele>1483.4</ele>
        <time>2023-08-21T09:52:59Z</time>
      </trkpt>
      <trkpt lat="45.68576" lon="6.7364">
        <ele>1482.4</ele>
        <time>2023-08-21T09:53:00Z</time>
      </trkpt>
      <trkpt lat="45.68583" lon="6.73638">
        <ele>1481.6</ele>
        <time>2023-08-21T09:53:01Z</time>
      </trkpt>
      <trkpt lat="45.6859" lon="6.73635">
        <ele>1481.6</ele>
        <time>2023-08-21T09:53:02Z</time>
      </trkpt>
      <trkpt lat="45.68597" lon="6.73632">
        <ele>1481.6</ele>
        <time>2023-08-21T09:53:03Z</time>
      </trkpt>
      <trkpt lat="45.68603" lon="6.73629">
        <ele>1480.6</ele>
        <time>2023-08-21T09:53:04Z</time>
      </trkpt>
      <trkpt lat="45.6861" lon="6.73625">
        <ele>1477.8</ele>
        <time>2023-08-21T09:53:05Z</time>
      </trkpt>
      <trkpt lat="45.68618" lon="6.73622">
        <ele>1477.8</ele>
        <time>2023-08-21T09:53:06Z</time>
      </trkpt>
      <trkpt lat="45.68626" lon="6.73619">
        <ele>1477.8</ele>
        <time>2023-08-21T09:53:07Z</time>
      </trkpt>
      <trkpt lat="45.68635" lon="6.73617">
        <ele>1477.8</ele>
        <time>2023-08-21T09:53:08Z</time>
      </trkpt>
      <trkpt lat="45.68645" lon="6.73614">
        <ele>1476.8</ele>
        <time>2023-08-21T09:53:09Z</time>
      </trkpt>
      <trkpt lat="45.68654" lon="6.73612">
        <ele>1475.2</ele>
        <time>2023-08-21T09:53:10Z</time>
      </trkpt>
      <trkpt lat="45.68664" lon="6.7361">
        <ele>1475.2</ele>
        <time>2023-08-21T09:53:11Z</time>
      </trkpt>
      <trkpt lat="45.68673" lon="6.73607">
        <ele>1475.2</ele>
        <time>2023-08-21T09:53:12Z</time>
      </trkpt>
      <trkpt lat="45.68682" lon="6.73605">
        <ele>1475.2</ele>
        <time>2023-08-21T09:53:13Z</time>
      </trkpt>
      <trkpt lat="45.68691" lon="6.73604">
        <ele>1475.2</ele>
        <time>2023-08-21T09:53:14Z</time>
      </trkpt>
      <trkpt lat="45.687" lon="6.73603">
        <ele>1474.2</ele>
        <time>2023-08-21T09:53:15Z</time>
      </trkpt>
      <trkpt lat="45.68708" lon="6.73601">
        <ele>1473.8</ele>
        <time>2023-08-21T09:53:16Z</time>
      </trkpt>
      <trkpt lat="45.68717" lon="6.736">
        <ele>1473.8</ele>
        <time>2023-08-21T09:53:17Z</time>
      </trkpt>
      <trkpt lat="45.68724" lon="6.73598">
        <ele>1473.8</ele>
        <time>2023-08-21T09:53:18Z</time>
      </trkpt>
      <trkpt lat="45.68732" lon="6.73597">
        <ele>1473.2</ele>
        <time>2023-08-21T09:53:19Z</time>
      </trkpt>
      <trkpt lat="45.68739" lon="6.73595">
        <ele>1473.2</ele>
        <time>2023-08-21T09:53:20Z</time>
      </trkpt>
      <trkpt lat="45.68746" lon="6.73593">
        <ele>1473.2</ele>
        <time>2023-08-21T09:53:21Z</time>
      </trkpt>
      <trkpt lat="45.68753" lon="6.73592">
        <ele>1473.2</ele>
        <time>2023-08-21T09:53:22Z</time>
      </trkpt>
      <trkpt lat="45.6876" lon="6.73591">
        <ele>1473.2</ele>
        <time>2023-08-21T09:53:23Z</time>
      </trkpt>
      <trkpt lat="45.68766" lon="6.7359">
        <ele>1472.4</ele>
        <time>2023-08-21T09:53:24Z</time>
      </trkpt>
      <trkpt lat="45.68773" lon="6.7359">
        <ele>1472.4</ele>
        <time>2023-08-21T09:53:25Z</time>
      </trkpt>
      <trkpt lat="45.68779" lon="6.73589">
        <ele>1473.2</ele>
        <time>2023-08-21T09:53:26Z</time>
      </trkpt>
      <trkpt lat="45.68785" lon="6.73588">
        <ele>1473.2</ele>
        <time>2023-08-21T09:53:27Z</time>
      </trkpt>
      <trkpt lat="45.6879" lon="6.73587">
        <ele>1473.8</ele>
        <time>2023-08-21T09:53:28Z</time>
      </trkpt>
      <trkpt lat="45.68796" lon="6.73585">
        <ele>1473.8</ele>
        <time>2023-08-21T09:53:29Z</time>
      </trkpt>
      <trkpt lat="45.69726" lon="6.73503">
        <ele>1488.8</ele>
        <time>2023-08-21T09:58:43Z</time>
      </trkpt>
      <trkpt lat="45.69726" lon="6.73503">
        <ele>1488.8</ele>
        <time>2023-08-21T09:58:44Z</time>
      </trkpt>
      <trkpt lat="45.69726" lon="6.73503">
        <ele>1488.8</ele>
        <time>2023-08-21T09:58:45Z</time>
      </trkpt>
      <trkpt lat="45.69731" lon="6.73504">
        <ele>1488.4</ele>
        <time>2023-08-21T09:59:34Z</time>
      </trkpt>
      <trkpt lat="45.69731" lon="6.73504">
        <ele>1488.4</ele>
        <time>2023-08-21T09:59:35Z</time>
      </trkpt>
      <trkpt lat="45.69731" lon="6.73504">
        <ele>1488.4</ele>
        <time>2023-08-21T09:59:36Z</time>
      </trkpt>
      <trkpt lat="45.69734" lon="6.73505">
        <ele>1488.2</ele>
        <time>2023-08-21T09:59:44Z</time>
      </trkpt>
      <trkpt lat="45.69736" lon="6.73506">
        <ele>1488.2</ele>
        <time>2023-08-21T09:59:45Z</time>
      </trkpt>
      <trkpt lat="45.69737" lon="6.73508">
        <ele>1488</ele>
        <time>2023-08-21T09:59:46Z</time>
      </trkpt>
      <trkpt lat="45.69739" lon="6.73511">
        <ele>1488</ele>
        <time>2023-08-21T09:59:47Z</time>
      </trkpt>
      <trkpt lat="45.69741" lon="6.73514">
        <ele>1488</ele>
        <time>2023-08-21T09:59:48Z</time>
      </trkpt>
      <trkpt lat="45.69743" lon="6.73517">
        <ele>1488.2</ele>
        <time>2023-08-21T09:59:49Z</time>
      </trkpt>
      <trkpt lat="45.69746" lon="6.73521">
        <ele>1488.2</ele>
        <time>2023-08-21T09:59:50Z</time>
      </trkpt>
      <trkpt lat="45.69748" lon="6.73524">
        <ele>1488.2</ele>
        <time>2023-08-21T09:59:51Z</time>
      </trkpt>
      <trkpt lat="45.6975" lon="6.73528">
        <ele>1488.2</ele>
        <time>2023-08-21T09:59:52Z</time>
      </trkpt>
      <trkpt lat="45.69752" lon="6.73533">
        <ele>1487.6</ele>
        <time>2023-08-21T09:59:53Z</time>
      </trkpt>
      <trkpt lat="45.69755" lon="6.73537">
        <ele>1487.6</ele>
        <time>2023-08-21T09:59:54Z</time>
      </trkpt>
      <trkpt lat="45.69757" lon="6.73541">
        <ele>1487.6</ele>
        <time>2023-08-21T09:59:55Z</time>
      </trkpt>
      <trkpt lat="45.6976" lon="6.73546">
        <ele>1487.6</ele>
        <time>2023-08-21T09:59:56Z</time>
      </trkpt>
      <trkpt lat="45.69763" lon="6.7355">
        <ele>1487.6</ele>
        <time>2023-08-21T09:59:57Z</time>
      </trkpt>
      <trkpt lat="45.69766" lon="6.73555">
        <ele>1488</ele>
        <time>2023-08-21T09:59:58Z</time>
      </trkpt>
      <trkpt lat="45.69768" lon="6.7356">
        <ele>1488</ele>
        <time>2023-08-21T09:59:59Z</time>
      </trkpt>
      <trkpt lat="45.69771" lon="6.73566">
        <ele>1488</ele>
        <time>2023-08-21T10:00:00Z</time>
      </trkpt>
      <trkpt lat="45.69773" lon="6.73571">
        <ele>1488</ele>
        <time>2023-08-21T10:00:01Z</time>
      </trkpt>
      <trkpt lat="45.69776" lon="6.73577">
        <ele>1488</ele>
        <time>2023-08-21T10:00:02Z</time>
      </trkpt>
      <trkpt lat="45.69778" lon="6.73582">
        <ele>1488</ele>
        <time>2023-08-21T10:00:03Z</time>
      </trkpt>
      <trkpt lat="45.69781" lon="6.73587">
        <ele>1488.2</ele>
        <time>2023-08-21T10:00:04Z</time>
      </trkpt>
      <trkpt lat="45.69784" lon="6.73592">
        <ele>1488.2</ele>
        <time>2023-08-21T10:00:05Z</time>
      </trkpt>
      <trkpt lat="45.69787" lon="6.73597">
        <ele>1488.2</ele>
        <time>2023-08-21T10:00:06Z</time>
      </trkpt>
      <trkpt lat="45.69791" lon="6.73601">
        <ele>1488.6</ele>
        <time>2023-08-21T10:00:07Z</time>
      </trkpt>
      <trkpt lat="45.69793" lon="6.73606">
        <ele>1488.6</ele>
        <time>2023-08-21T10:00:08Z</time>
      </trkpt>
      <trkpt lat="45.69796" lon="6.73611">
        <ele>1488.6</ele>
        <time>2023-08-21T10:00:09Z</time>
      </trkpt>
      <trkpt lat="45.69799" lon="6.73616">
        <ele>1488.6</ele>
        <time>2023-08-21T10:00:10Z</time>
      </trkpt>
      <trkpt lat="45.69802" lon="6.73621">
        <ele>1488.6</ele>
        <time>2023-08-21T10:00:11Z</time>
      </trkpt>
      <trkpt lat="45.69805" lon="6.73626">
        <ele>1488.6</ele>
        <time>2023-08-21T10:00:12Z</time>
      </trkpt>
      <trkpt lat="45.69807" lon="6.73631">
        <ele>1487.8</ele>
        <time>2023-08-21T10:00:13Z</time>
      </trkpt>
      <trkpt lat="45.6981" lon="6.73636">
        <ele>1487.8</ele>
        <time>2023-08-21T10:00:14Z</time>
      </trkpt>
      <trkpt lat="45.69813" lon="6.7364">
        <ele>1487.8</ele>
        <time>2023-08-21T10:00:15Z</time>
      </trkpt>
      <trkpt lat="45.69816" lon="6.73644">
        <ele>1488.8</ele>
        <time>2023-08-21T10:00:16Z</time>
      </trkpt>
      <trkpt lat="45.69819" lon="6.73648">
        <ele>1488.8</ele>
        <time>2023-08-21T10:00:17Z</time>
      </trkpt>
      <trkpt lat="45.69822" lon="6.73652">
        <ele>1488.8</ele>
        <time>2023-08-21T10:00:18Z</time>
      </trkpt>
      <trkpt lat="45.69825" lon="6.73655">
        <ele>1488.8</ele>
        <time>2023-08-21T10:00:19Z</time>
      </trkpt>
      <trkpt lat="45.69828" lon="6.73658">
        <ele>1489.4</ele>
        <time>2023-08-21T10:00:20Z</time>
      </trkpt>
      <trkpt lat="45.6983" lon="6.73662">
        <ele>1489.8</ele>
        <time>2023-08-21T10:00:21Z</time>
      </trkpt>
      <trkpt lat="45.69833" lon="6.73665">
        <ele>1489.8</ele>
        <time>2023-08-21T10:00:22Z</time>
      </trkpt>
      <trkpt lat="45.69835" lon="6.73669">
        <ele>1489.8</ele>
        <time>2023-08-21T10:00:23Z</time>
      </trkpt>
      <trkpt lat="45.69838" lon="6.73673">
        <ele>1489.8</ele>
        <time>2023-08-21T10:00:24Z</time>
      </trkpt>
      <trkpt lat="45.6984" lon="6.73677">
        <ele>1489.8</ele>
        <time>2023-08-21T10:00:25Z</time>
      </trkpt>
      <trkpt lat="45.69843" lon="6.7368">
        <ele>1489.8</ele>
        <time>2023-08-21T10:00:26Z</time>
      </trkpt>
      <trkpt lat="45.69846" lon="6.73683">
        <ele>1489.8</ele>
        <time>2023-08-21T10:00:27Z</time>
      </trkpt>
      <trkpt lat="45.69849" lon="6.73685">
        <ele>1489.8</ele>
        <time>2023-08-21T10:00:28Z</time>
      </trkpt>
      <trkpt lat="45.69851" lon="6.73687">
        <ele>1489.8</ele>
        <time>2023-08-21T10:00:29Z</time>
      </trkpt>
      <trkpt lat="45.69854" lon="6.7369">
        <ele>1490.4</ele>
        <time>2023-08-21T10:00:30Z</time>
      </trkpt>
      <trkpt lat="45.69857" lon="6.73693">
        <ele>1490.2</ele>
        <time>2023-08-21T10:00:31Z</time>
      </trkpt>
      <trkpt lat="45.69859" lon="6.73696">
        <ele>1490.2</ele>
        <time>2023-08-21T10:00:32Z</time>
      </trkpt>
      <trkpt lat="45.69861" lon="6.73699">
        <ele>1490.2</ele>
        <time>2023-08-21T10:00:33Z</time>
      </trkpt>
      <trkpt lat="45.69864" lon="6.73703">
        <ele>1490.2</ele>
        <time>2023-08-21T10:00:34Z</time>
      </trkpt>
      <trkpt lat="45.69866" lon="6.73707">
        <ele>1490.6</ele>
        <time>2023-08-21T10:00:35Z</time>
      </trkpt>
      <trkpt lat="45.69868" lon="6.7371">
        <ele>1490.8</ele>
        <time>2023-08-21T10:00:36Z</time>
      </trkpt>
      <trkpt lat="45.6987" lon="6.73713">
        <ele>1490.8</ele>
        <time>2023-08-21T10:00:37Z</time>
      </trkpt>
      <trkpt lat="45.69873" lon="6.73717">
        <ele>1490.8</ele>
        <time>2023-08-21T10:00:38Z</time>
      </trkpt>
      <trkpt lat="45.69876" lon="6.73719">
        <ele>1490.8</ele>
        <time>2023-08-21T10:00:39Z</time>
      </trkpt>
      <trkpt lat="45.69879" lon="6.73722">
        <ele>1490.8</ele>
        <time>2023-08-21T10:00:40Z</time>
      </trkpt>
      <trkpt lat="45.69882" lon="6.73725">
        <ele>1491.2</ele>
        <time>2023-08-21T10:00:41Z</time>
      </trkpt>
      <trkpt lat="45.69885" lon="6.73727">
        <ele>1491.2</ele>
        <time>2023-08-21T10:00:42Z</time>
      </trkpt>
      <trkpt lat="45.69887" lon="6.7373">
        <ele>1491.2</ele>
        <time>2023-08-21T10:00:43Z</time>
      </trkpt>
      <trkpt lat="45.6989" lon="6.73732">
        <ele>1491.8</ele>
        <time>2023-08-21T10:00:44Z</time>
      </trkpt>
      <trkpt lat="45.69892" lon="6.73734">
        <ele>1491.8</ele>
        <time>2023-08-21T10:00:45Z</time>
      </trkpt>
      <trkpt lat="45.69894" lon="6.73736">
        <ele>1491.8</ele>
        <time>2023-08-21T10:00:46Z</time>
      </trkpt>
      <trkpt lat="45.69897" lon="6.73739">
        <ele>1491.8</ele>
        <time>2023-08-21T10:00:47Z</time>
      </trkpt>
      <trkpt lat="45.699" lon="6.73741">
        <ele>1491.8</ele>
        <time>2023-08-21T10:00:48Z</time>
      </trkpt>
      <trkpt lat="45.69902" lon="6.73744">
        <ele>1491.8</ele>
        <time>2023-08-21T10:00:49Z</time>
      </trkpt>
      <trkpt lat="45.69905" lon="6.73747">
        <ele>1492.4</ele>
        <time>2023-08-21T10:00:50Z</time>
      </trkpt>
      <trkpt lat="45.69908" lon="6.73749">
        <ele>1492.4</ele>
        <time>2023-08-21T10:00:51Z</time>
      </trkpt>
      <trkpt lat="45.69911" lon="6.73752">
        <ele>1492.4</ele>
        <time>2023-08-21T10:00:52Z</time>
      </trkpt>
      <trkpt lat="45.69915" lon="6.73754">
        <ele>1492.4</ele>
        <time>2023-08-21T10:00:53Z</time>
      </trkpt>
      <trkpt lat="45.69918" lon="6.73756">
        <ele>1492.6</ele>
        <time>2023-08-21T10:00:54Z</time>
      </trkpt>
      <trkpt lat="45.69921" lon="6.73758">
        <ele>1492.6</ele>
        <time>2023-08-21T10:00:55Z</time>
      </trkpt>
      <trkpt lat="45.69923" lon="6.7376">
        <ele>1492.6</ele>
        <time>2023-08-21T10:00:56Z</time>
      </trkpt>
      <trkpt lat="45.69926" lon="6.73763">
        <ele>1492.6</ele>
        <time>2023-08-21T10:00:57Z</time>
      </trkpt>
      <trkpt lat="45.69929" lon="6.73765">
        <ele>1492.8</ele>
        <time>2023-08-21T10:00:58Z</time>
      </trkpt>
      <trkpt lat="45.69932" lon="6.73768">
        <ele>1493.4</ele>
        <time>2023-08-21T10:00:59Z</time>
      </trkpt>
      <trkpt lat="45.69935" lon="6.73772">
        <ele>1493.4</ele>
        <time>2023-08-21T10:01:00Z</time>
      </trkpt>
      <trkpt lat="45.69937" lon="6.73776">
        <ele>1493.4</ele>
        <time>2023-08-21T10:01:01Z</time>
      </trkpt>
      <trkpt lat="45.69939" lon="6.73779">
        <ele>1493.4</ele>
        <time>2023-08-21T10:01:02Z</time>
      </trkpt>
      <trkpt lat="45.69942" lon="6.73782">
        <ele>1493.6</ele>
        <time>2023-08-21T10:01:03Z</time>
      </trkpt>
      <trkpt lat="45.69944" lon="6.73785">
        <ele>1493.6</ele>
        <time>2023-08-21T10:01:04Z</time>
      </trkpt>
      <trkpt lat="45.69947" lon="6.73789">
        <ele>1493.6</ele>
        <time>2023-08-21T10:01:05Z</time>
      </trkpt>
      <trkpt lat="45.69949" lon="6.73792">
        <ele>1493.6</ele>
        <time>2023-08-21T10:01:06Z</time>
      </trkpt>
      <trkpt lat="45.69951" lon="6.73795">
        <ele>1493.8</ele>
        <time>2023-08-21T10:01:07Z</time>
      </trkpt>
      <trkpt lat="45.69953" lon="6.73799">
        <ele>1494.2</ele>
        <time>2023-08-21T10:01:08Z</time>
      </trkpt>
      <trkpt lat="45.69956" lon="6.73803">
        <ele>1494.2</ele>
        <time>2023-08-21T10:01:09Z</time>
      </trkpt>
      <trkpt lat="45.69958" lon="6.73807">
        <ele>1494.2</ele>
        <time>2023-08-21T10:01:10Z</time>
      </trkpt>
      <trkpt lat="45.6996" lon="6.73811">
        <ele>1494.2</ele>
        <time>2023-08-21T10:01:11Z</time>
      </trkpt>
      <trkpt lat="45.69963" lon="6.73814">
        <ele>1494.6</ele>
        <time>2023-08-21T10:01:12Z</time>
      </trkpt>
      <trkpt lat="45.69965" lon="6.73818">
        <ele>1494.6</ele>
        <time>2023-08-21T10:01:13Z</time>
      </trkpt>
      <trkpt lat="45.69968" lon="6.73821">
        <ele>1494.6</ele>
        <time>2023-08-21T10:01:14Z</time>
      </trkpt>
      <trkpt lat="45.6997" lon="6.73826">
        <ele>1494.6</ele>
        <time>2023-08-21T10:01:15Z</time>
      </trkpt>
      <trkpt lat="45.69972" lon="6.7383">
        <ele>1494.6</ele>
        <time>2023-08-21T10:01:16Z</time>
      </trkpt>
      <trkpt lat="45.69974" lon="6.73835">
        <ele>1494.6</ele>
        <time>2023-08-21T10:01:17Z</time>
      </trkpt>
      <trkpt lat="45.69975" lon="6.7384">
        <ele>1495</ele>
        <time>2023-08-21T10:01:18Z</time>
      </trkpt>
      <trkpt lat="45.69977" lon="6.73845">
        <ele>1495</ele>
        <time>2023-08-21T10:01:19Z</time>
      </trkpt>
      <trkpt lat="45.69977" lon="6.7385">
        <ele>1495</ele>
        <time>2023-08-21T10:01:20Z</time>
      </trkpt>
      <trkpt lat="45.69978" lon="6.73856">
        <ele>1495</ele>
        <time>2023-08-21T10:01:21Z</time>
      </trkpt>
      <trkpt lat="45.69978" lon="6.73861">
        <ele>1495.4</ele>
        <time>2023-08-21T10:01:22Z</time>
      </trkpt>
      <trkpt lat="45.69978" lon="6.73865">
        <ele>1495.4</ele>
        <time>2023-08-21T10:01:23Z</time>
      </trkpt>
      <trkpt lat="45.69978" lon="6.7387">
        <ele>1495.4</ele>
        <time>2023-08-21T10:01:24Z</time>
      </trkpt>
      <trkpt lat="45.69978" lon="6.73876">
        <ele>1495.6</ele>
        <time>2023-08-21T10:01:25Z</time>
      </trkpt>
      <trkpt lat="45.69977" lon="6.73881">
        <ele>1495.8</ele>
        <time>2023-08-21T10:01:26Z</time>
      </trkpt>
      <trkpt lat="45.69978" lon="6.73886">
        <ele>1495.8</ele>
        <time>2023-08-21T10:01:27Z</time>
      </trkpt>
      <trkpt lat="45.69979" lon="6.73889">
        <ele>1495.8</ele>
        <time>2023-08-21T10:01:28Z</time>
      </trkpt>
      <trkpt lat="45.69981" lon="6.73891">
        <ele>1495.8</ele>
        <time>2023-08-21T10:01:29Z</time>
      </trkpt>
      <trkpt lat="45.69982" lon="6.73891">
        <ele>1496.4</ele>
        <time>2023-08-21T10:01:30Z</time>
      </trkpt>
      <trkpt lat="45.69982" lon="6.73891">
        <ele>1496.4</ele>
        <time>2023-08-21T10:01:31Z</time>
      </trkpt>
      <trkpt lat="45.69988" lon="6.73896">
        <ele>1497.4</ele>
        <time>2023-08-21T10:01:56Z</time>
      </trkpt>
      <trkpt lat="45.69989" lon="6.73897">
        <ele>1497.4</ele>
        <time>2023-08-21T10:01:57Z</time>
      </trkpt>
      <trkpt lat="45.6999" lon="6.739">
        <ele>1497.4</ele>
        <time>2023-08-21T10:01:58Z</time>
      </trkpt>
      <trkpt lat="45.69992" lon="6.73902">
        <ele>1497.8</ele>
        <time>2023-08-21T10:01:59Z</time>
      </trkpt>
      <trkpt lat="45.69993" lon="6.73903">
        <ele>1497.8</ele>
        <time>2023-08-21T10:02:00Z</time>
      </trkpt>
      <trkpt lat="45.69995" lon="6.73905">
        <ele>1497.8</ele>
        <time>2023-08-21T10:02:01Z</time>
      </trkpt>
      <trkpt lat="45.69997" lon="6.73907">
        <ele>1497.8</ele>
        <time>2023-08-21T10:02:02Z</time>
      </trkpt>
      <trkpt lat="45.69999" lon="6.73909">
        <ele>1498.4</ele>
        <time>2023-08-21T10:02:03Z</time>
      </trkpt>
      <trkpt lat="45.7" lon="6.7391">
        <ele>1498.4</ele>
        <time>2023-08-21T10:02:04Z</time>
      </trkpt>
      <trkpt lat="45.70002" lon="6.73912">
        <ele>1498.4</ele>
        <time>2023-08-21T10:02:05Z</time>
      </trkpt>
      <trkpt lat="45.70004" lon="6.73915">
        <ele>1498.8</ele>
        <time>2023-08-21T10:02:06Z</time>
      </trkpt>
      <trkpt lat="45.70006" lon="6.73917">
        <ele>1499.2</ele>
        <time>2023-08-21T10:02:07Z</time>
      </trkpt>
      <trkpt lat="45.70007" lon="6.7392">
        <ele>1499.2</ele>
        <time>2023-08-21T10:02:08Z</time>
      </trkpt>
      <trkpt lat="45.70008" lon="6.73924">
        <ele>1499.2</ele>
        <time>2023-08-21T10:02:09Z</time>
      </trkpt>
      <trkpt lat="45.70009" lon="6.73926">
        <ele>1499.2</ele>
        <time>2023-08-21T10:02:10Z</time>
      </trkpt>
      <trkpt lat="45.70011" lon="6.73929">
        <ele>1499.2</ele>
        <time>2023-08-21T10:02:11Z</time>
      </trkpt>
      <trkpt lat="45.70012" lon="6.73931">
        <ele>1499.2</ele>
        <time>2023-08-21T10:02:12Z</time>
      </trkpt>
      <trkpt lat="45.70014" lon="6.73933">
        <ele>1499.8</ele>
        <time>2023-08-21T10:02:13Z</time>
      </trkpt>
      <trkpt lat="45.70016" lon="6.73936">
        <ele>1499.8</ele>
        <time>2023-08-21T10:02:14Z</time>
      </trkpt>
      <trkpt lat="45.70018" lon="6.73938">
        <ele>1499.8</ele>
        <time>2023-08-21T10:02:15Z</time>
      </trkpt>
      <trkpt lat="45.7002" lon="6.7394">
        <ele>1499.8</ele>
        <time>2023-08-21T10:02:16Z</time>
      </trkpt>
      <trkpt lat="45.70021" lon="6.73942">
        <ele>1499.8</ele>
        <time>2023-08-21T10:02:17Z</time>
      </trkpt>
      <trkpt lat="45.70023" lon="6.73944">
        <ele>1500.2</ele>
        <time>2023-08-21T10:02:18Z</time>
      </trkpt>
      <trkpt lat="45.70025" lon="6.73945">
        <ele>1500.2</ele>
        <time>2023-08-21T10:02:19Z</time>
      </trkpt>
      <trkpt lat="45.70026" lon="6.73947">
        <ele>1501.2</ele>
        <time>2023-08-21T10:02:20Z</time>
      </trkpt>
      <trkpt lat="45.70027" lon="6.73948">
        <ele>1501.2</ele>
        <time>2023-08-21T10:02:21Z</time>
      </trkpt>
      <trkpt lat="45.70028" lon="6.7395">
        <ele>1501.2</ele>
        <time>2023-08-21T10:02:22Z</time>
      </trkpt>
      <trkpt lat="45.7003" lon="6.73951">
        <ele>1501.2</ele>
        <time>2023-08-21T10:02:23Z</time>
      </trkpt>
      <trkpt lat="45.70031" lon="6.73952">
        <ele>1501.2</ele>
        <time>2023-08-21T10:02:24Z</time>
      </trkpt>
      <trkpt lat="45.70032" lon="6.73952">
        <ele>1501.8</ele>
        <time>2023-08-21T10:02:25Z</time>
      </trkpt>
      <trkpt lat="45.70034" lon="6.73953">
        <ele>1502</ele>
        <time>2023-08-21T10:02:26Z</time>
      </trkpt>
      <trkpt lat="45.70036" lon="6.73955">
        <ele>1502</ele>
        <time>2023-08-21T10:02:27Z</time>
      </trkpt>
      <trkpt lat="45.70037" lon="6.73957">
        <ele>1502</ele>
        <time>2023-08-21T10:02:28Z</time>
      </trkpt>
      <trkpt lat="45.70039" lon="6.73957">
        <ele>1503</ele>
        <time>2023-08-21T10:02:29Z</time>
      </trkpt>
      <trkpt lat="45.7004" lon="6.73958">
        <ele>1503.4</ele>
        <time>2023-08-21T10:02:30Z</time>
      </trkpt>
      <trkpt lat="45.70041" lon="6.7396">
        <ele>1503.4</ele>
        <time>2023-08-21T10:02:31Z</time>
      </trkpt>
      <trkpt lat="45.70042" lon="6.73961">
        <ele>1503.4</ele>
        <time>2023-08-21T10:02:32Z</time>
      </trkpt>
      <trkpt lat="45.70044" lon="6.73963">
        <ele>1503.4</ele>
        <time>2023-08-21T10:02:33Z</time>
      </trkpt>
      <trkpt lat="45.70046" lon="6.73965">
        <ele>1503.4</ele>
        <time>2023-08-21T10:02:34Z</time>
      </trkpt>
      <trkpt lat="45.70047" lon="6.73967">
        <ele>1503.4</ele>
        <time>2023-08-21T10:02:35Z</time>
      </trkpt>
      <trkpt lat="45.70049" lon="6.73969">
        <ele>1503.4</ele>
        <time>2023-08-21T10:02:36Z</time>
      </trkpt>
      <trkpt lat="45.70051" lon="6.73971">
        <ele>1503.4</ele>
        <time>2023-08-21T10:02:37Z</time>
      </trkpt>
      <trkpt lat="45.70053" lon="6.73973">
        <ele>1503.4</ele>
        <time>2023-08-21T10:02:38Z</time>
      </trkpt>
      <trkpt lat="45.70055" lon="6.73974">
        <ele>1503.4</ele>
        <time>2023-08-21T10:02:39Z</time>
      </trkpt>
      <trkpt lat="45.70057" lon="6.73975">
        <ele>1503.6</ele>
        <time>2023-08-21T10:02:40Z</time>
      </trkpt>
      <trkpt lat="45.7006" lon="6.73976">
        <ele>1503.6</ele>
        <time>2023-08-21T10:02:41Z</time>
      </trkpt>
      <trkpt lat="45.70062" lon="6.73978">
        <ele>1503.6</ele>
        <time>2023-08-21T10:02:42Z</time>
      </trkpt>
      <trkpt lat="45.70066" lon="6.7398">
        <ele>1503.2</ele>
        <time>2023-08-21T10:02:43Z</time>
      </trkpt>
      <trkpt lat="45.70069" lon="6.73983">
        <ele>1503.4</ele>
        <time>2023-08-21T10:02:44Z</time>
      </trkpt>
      <trkpt lat="45.70072" lon="6.73986">
        <ele>1503.4</ele>
        <time>2023-08-21T10:02:45Z</time>
      </trkpt>
      <trkpt lat="45.70075" lon="6.73988">
        <ele>1503.4</ele>
        <time>2023-08-21T10:02:46Z</time>
      </trkpt>
      <trkpt lat="45.70077" lon="6.7399">
        <ele>1503.4</ele>
        <time>2023-08-21T10:02:47Z</time>
      </trkpt>
      <trkpt lat="45.7008" lon="6.73992">
        <ele>1503.8</ele>
        <time>2023-08-21T10:02:48Z</time>
      </trkpt>
      <trkpt lat="45.70082" lon="6.73995">
        <ele>1503.8</ele>
        <time>2023-08-21T10:02:49Z</time>
      </trkpt>
      <trkpt lat="45.70085" lon="6.73997">
        <ele>1503.8</ele>
        <time>2023-08-21T10:02:50Z</time>
      </trkpt>
      <trkpt lat="45.70088" lon="6.74">
        <ele>1503.8</ele>
        <time>2023-08-21T10:02:51Z</time>
      </trkpt>
      <trkpt lat="45.7009" lon="6.74002">
        <ele>1503.8</ele>
        <time>2023-08-21T10:02:52Z</time>
      </trkpt>
      <trkpt lat="45.70093" lon="6.74004">
        <ele>1504</ele>
        <time>2023-08-21T10:02:53Z</time>
      </trkpt>
      <trkpt lat="45.70095" lon="6.74007">
        <ele>1504.4</ele>
        <time>2023-08-21T10:02:54Z</time>
      </trkpt>
      <trkpt lat="45.70097" lon="6.74009">
        <ele>1504.4</ele>
        <time>2023-08-21T10:02:55Z</time>
      </trkpt>
      <trkpt lat="45.70098" lon="6.74011">
        <ele>1504.4</ele>
        <time>2023-08-21T10:02:56Z</time>
      </trkpt>
      <trkpt lat="45.701" lon="6.74014">
        <ele>1504.4</ele>
        <time>2023-08-21T10:02:57Z</time>
      </trkpt>
      <trkpt lat="45.70101" lon="6.74017">
        <ele>1504.4</ele>
        <time>2023-08-21T10:02:58Z</time>
      </trkpt>
      <trkpt lat="45.70102" lon="6.74021">
        <ele>1504.6</ele>
        <time>2023-08-21T10:02:59Z</time>
      </trkpt>
      <trkpt lat="45.70104" lon="6.74023">
        <ele>1504.6</ele>
        <time>2023-08-21T10:03:00Z</time>
      </trkpt>
      <trkpt lat="45.70105" lon="6.74026">
        <ele>1504.6</ele>
        <time>2023-08-21T10:03:01Z</time>
      </trkpt>
      <trkpt lat="45.70107" lon="6.74028">
        <ele>1505.2</ele>
        <time>2023-08-21T10:03:02Z</time>
      </trkpt>
      <trkpt lat="45.70107" lon="6.74031">
        <ele>1505.2</ele>
        <time>2023-08-21T10:03:03Z</time>
      </trkpt>
      <trkpt lat="45.70108" lon="6.74034">
        <ele>1505.2</ele>
        <time>2023-08-21T10:03:04Z</time>
      </trkpt>
      <trkpt lat="45.70109" lon="6.74036">
        <ele>1505.2</ele>
        <time>2023-08-21T10:03:05Z</time>
      </trkpt>
      <trkpt lat="45.7011" lon="6.74039">
        <ele>1505.2</ele>
        <time>2023-08-21T10:03:06Z</time>
      </trkpt>
      <trkpt lat="45.70111" lon="6.74041">
        <ele>1506.2</ele>
        <time>2023-08-21T10:03:07Z</time>
      </trkpt>
      <trkpt lat="45.70111" lon="6.74043">
        <ele>1506.2</ele>
        <time>2023-08-21T10:03:08Z</time>
      </trkpt>
      <trkpt lat="45.70112" lon="6.74046">
        <ele>1506.2</ele>
        <time>2023-08-21T10:03:09Z</time>
      </trkpt>
      <trkpt lat="45.70113" lon="6.74048">
        <ele>1506.2</ele>
        <time>2023-08-21T10:03:10Z</time>
      </trkpt>
      <trkpt lat="45.70113" lon="6.7405">
        <ele>1507</ele>
        <time>2023-08-21T10:03:11Z</time>
      </trkpt>
      <trkpt lat="45.70113" lon="6.74053">
        <ele>1507</ele>
        <time>2023-08-21T10:03:12Z</time>
      </trkpt>
      <trkpt lat="45.70113" lon="6.74056">
        <ele>1507</ele>
        <time>2023-08-21T10:03:13Z</time>
      </trkpt>
      <trkpt lat="45.70114" lon="6.74058">
        <ele>1507</ele>
        <time>2023-08-21T10:03:14Z</time>
      </trkpt>
      <trkpt lat="45.70114" lon="6.74061">
        <ele>1507</ele>
        <time>2023-08-21T10:03:15Z</time>
      </trkpt>
      <trkpt lat="45.70115" lon="6.74063">
        <ele>1507.6</ele>
        <time>2023-08-21T10:03:16Z</time>
      </trkpt>
      <trkpt lat="45.70116" lon="6.74065">
        <ele>1507.8</ele>
        <time>2023-08-21T10:03:17Z</time>
      </trkpt>
      <trkpt lat="45.70116" lon="6.74068">
        <ele>1507.8</ele>
        <time>2023-08-21T10:03:18Z</time>
      </trkpt>
      <trkpt lat="45.70117" lon="6.74071">
        <ele>1507.8</ele>
        <time>2023-08-21T10:03:19Z</time>
      </trkpt>
      <trkpt lat="45.70117" lon="6.74073">
        <ele>1508.4</ele>
        <time>2023-08-21T10:03:20Z</time>
      </trkpt>
      <trkpt lat="45.70118" lon="6.74075">
        <ele>1508.2</ele>
        <time>2023-08-21T10:03:21Z</time>
      </trkpt>
      <trkpt lat="45.70118" lon="6.74078">
        <ele>1508.2</ele>
        <time>2023-08-21T10:03:22Z</time>
      </trkpt>
      <trkpt lat="45.70119" lon="6.7408">
        <ele>1508.2</ele>
        <time>2023-08-21T10:03:23Z</time>
      </trkpt>
      <trkpt lat="45.7012" lon="6.74082">
        <ele>1509</ele>
        <time>2023-08-21T10:03:24Z</time>
      </trkpt>
      <trkpt lat="45.7012" lon="6.74085">
        <ele>1509</ele>
        <time>2023-08-21T10:03:25Z</time>
      </trkpt>
      <trkpt lat="45.70121" lon="6.74087">
        <ele>1509</ele>
        <time>2023-08-21T10:03:26Z</time>
      </trkpt>
      <trkpt lat="45.70121" lon="6.74089">
        <ele>1509</ele>
        <time>2023-08-21T10:03:27Z</time>
      </trkpt>
      <trkpt lat="45.70122" lon="6.74092">
        <ele>1509</ele>
        <time>2023-08-21T10:03:28Z</time>
      </trkpt>
      <trkpt lat="45.70122" lon="6.74094">
        <ele>1509</ele>
        <time>2023-08-21T10:03:29Z</time>
      </trkpt>
      <trkpt lat="45.70122" lon="6.74097">
        <ele>1509.8</ele>
        <time>2023-08-21T10:03:30Z</time>
      </trkpt>
      <trkpt lat="45.70123" lon="6.74099">
        <ele>1509.8</ele>
        <time>2023-08-21T10:03:31Z</time>
      </trkpt>
      <trkpt lat="45.70123" lon="6.74101">
        <ele>1509.8</ele>
        <time>2023-08-21T10:03:32Z</time>
      </trkpt>
      <trkpt lat="45.70124" lon="6.74103">
        <ele>1509.8</ele>
        <time>2023-08-21T10:03:33Z</time>
      </trkpt>
      <trkpt lat="45.70124" lon="6.74105">
        <ele>1510.8</ele>
        <time>2023-08-21T10:03:34Z</time>
      </trkpt>
      <trkpt lat="45.70125" lon="6.74107">
        <ele>1510.8</ele>
        <time>2023-08-21T10:03:35Z</time>
      </trkpt>
      <trkpt lat="45.70126" lon="6.74109">
        <ele>1511.2</ele>
        <time>2023-08-21T10:03:36Z</time>
      </trkpt>
      <trkpt lat="45.70126" lon="6.74111">
        <ele>1511.2</ele>
        <time>2023-08-21T10:03:37Z</time>
      </trkpt>
      <trkpt lat="45.70126" lon="6.74113">
        <ele>1511.2</ele>
        <time>2023-08-21T10:03:38Z</time>
      </trkpt>
      <trkpt lat="45.70126" lon="6.74115">
        <ele>1512</ele>
        <time>2023-08-21T10:03:39Z</time>
      </trkpt>
      <trkpt lat="45.70126" lon="6.74117">
        <ele>1511.8</ele>
        <time>2023-08-21T10:03:40Z</time>
      </trkpt>
      <trkpt lat="45.70126" lon="6.74119">
        <ele>1511.8</ele>
        <time>2023-08-21T10:03:41Z</time>
      </trkpt>
      <trkpt lat="45.70126" lon="6.74121">
        <ele>1511.8</ele>
        <time>2023-08-21T10:03:42Z</time>
      </trkpt>
      <trkpt lat="45.70126" lon="6.74123">
        <ele>1512.4</ele>
        <time>2023-08-21T10:03:43Z</time>
      </trkpt>
      <trkpt lat="45.70126" lon="6.74125">
        <ele>1512.4</ele>
        <time>2023-08-21T10:03:44Z</time>
      </trkpt>
      <trkpt lat="45.70126" lon="6.74127">
        <ele>1513</ele>
        <time>2023-08-21T10:03:45Z</time>
      </trkpt>
      <trkpt lat="45.70126" lon="6.74129">
        <ele>1513</ele>
        <time>2023-08-21T10:03:46Z</time>
      </trkpt>
      <trkpt lat="45.70126" lon="6.7413">
        <ele>1513</ele>
        <time>2023-08-21T10:03:47Z</time>
      </trkpt>
      <trkpt lat="45.70126" lon="6.74132">
        <ele>1513</ele>
        <time>2023-08-21T10:03:48Z</time>
      </trkpt>
      <trkpt lat="45.70126" lon="6.74134">
        <ele>1513.4</ele>
        <time>2023-08-21T10:03:49Z</time>
      </trkpt>
      <trkpt lat="45.70127" lon="6.74137">
        <ele>1513.4</ele>
        <time>2023-08-21T10:03:50Z</time>
      </trkpt>
      <trkpt lat="45.70127" lon="6.74139">
        <ele>1513.4</ele>
        <time>2023-08-21T10:03:51Z</time>
      </trkpt>
      <trkpt lat="45.70128" lon="6.74141">
        <ele>1513.4</ele>
        <time>2023-08-21T10:03:52Z</time>
      </trkpt>
      <trkpt lat="45.70128" lon="6.74143">
        <ele>1514.2</ele>
        <time>2023-08-21T10:03:53Z</time>
      </trkpt>
      <trkpt lat="45.70129" lon="6.74145">
        <ele>1514.2</ele>
        <time>2023-08-21T10:03:54Z</time>
      </trkpt>
      <trkpt lat="45.70129" lon="6.74146">
        <ele>1514.2</ele>
        <time>2023-08-21T10:03:55Z</time>
      </trkpt>
      <trkpt lat="45.7013" lon="6.74148">
        <ele>1514.2</ele>
        <time>2023-08-21T10:03:56Z</time>
      </trkpt>
      <trkpt lat="45.7013" lon="6.74149">
        <ele>1515</ele>
        <time>2023-08-21T10:03:57Z</time>
      </trkpt>
      <trkpt lat="45.70131" lon="6.74151">
        <ele>1515</ele>
        <time>2023-08-21T10:03:58Z</time>
      </trkpt>
      <trkpt lat="45.70132" lon="6.74153">
        <ele>1515</ele>
        <time>2023-08-21T10:03:59Z</time>
      </trkpt>
      <trkpt lat="45.70132" lon="6.74155">
        <ele>1515</ele>
        <time>2023-08-21T10:04:00Z</time>
      </trkpt>
      <trkpt lat="45.70132" lon="6.74157">
        <ele>1515.6</ele>
        <time>2023-08-21T10:04:01Z</time>
      </trkpt>
      <trkpt lat="45.70133" lon="6.74158">
        <ele>1515.6</ele>
        <time>2023-08-21T10:04:02Z</time>
      </trkpt>
      <trkpt lat="45.70133" lon="6.7416">
        <ele>1515.6</ele>
        <time>2023-08-21T10:04:03Z</time>
      </trkpt>
      <trkpt lat="45.70134" lon="6.74162">
        <ele>1516</ele>
        <time>2023-08-21T10:04:04Z</time>
      </trkpt>
      <trkpt lat="45.70134" lon="6.74164">
        <ele>1516</ele>
        <time>2023-08-21T10:04:05Z</time>
      </trkpt>
      <trkpt lat="45.70134" lon="6.74166">
        <ele>1516</ele>
        <time>2023-08-21T10:04:06Z</time>
      </trkpt>
      <trkpt lat="45.70135" lon="6.74168">
        <ele>1516.6</ele>
        <time>2023-08-21T10:04:07Z</time>
      </trkpt>
      <trkpt lat="45.70136" lon="6.7417">
        <ele>1517</ele>
        <time>2023-08-21T10:04:08Z</time>
      </trkpt>
      <trkpt lat="45.70137" lon="6.74172">
        <ele>1517</ele>
        <time>2023-08-21T10:04:09Z</time>
      </trkpt>
      <trkpt lat="45.70138" lon="6.74174">
        <ele>1517</ele>
        <time>2023-08-21T10:04:10Z</time>
      </trkpt>
      <trkpt lat="45.70139" lon="6.74176">
        <ele>1517.4</ele>
        <time>2023-08-21T10:04:11Z</time>
      </trkpt>
      <trkpt lat="45.70139" lon="6.74178">
        <ele>1517.8</ele>
        <time>2023-08-21T10:04:12Z</time>
      </trkpt>
      <trkpt lat="45.7014" lon="6.74179">
        <ele>1517.8</ele>
        <time>2023-08-21T10:04:13Z</time>
      </trkpt>
      <trkpt lat="45.7014" lon="6.74181">
        <ele>1517.8</ele>
        <time>2023-08-21T10:04:14Z</time>
      </trkpt>
      <trkpt lat="45.7014" lon="6.74183">
        <ele>1517.8</ele>
        <time>2023-08-21T10:04:15Z</time>
      </trkpt>
      <trkpt lat="45.7014" lon="6.74185">
        <ele>1517.8</ele>
        <time>2023-08-21T10:04:16Z</time>
      </trkpt>
      <trkpt lat="45.70141" lon="6.74187">
        <ele>1518.4</ele>
        <time>2023-08-21T10:04:17Z</time>
      </trkpt>
      <trkpt lat="45.70141" lon="6.74189">
        <ele>1518.4</ele>
        <time>2023-08-21T10:04:18Z</time>
      </trkpt>
      <trkpt lat="45.70142" lon="6.74191">
        <ele>1518.4</ele>
        <time>2023-08-21T10:04:19Z</time>
      </trkpt>
      <trkpt lat="45.70143" lon="6.74193">
        <ele>1519.2</ele>
        <time>2023-08-21T10:04:20Z</time>
      </trkpt>
      <trkpt lat="45.70143" lon="6.74195">
        <ele>1519.2</ele>
        <time>2023-08-21T10:04:21Z</time>
      </trkpt>
      <trkpt lat="45.70144" lon="6.74197">
        <ele>1519.4</ele>
        <time>2023-08-21T10:04:22Z</time>
      </trkpt>
      <trkpt lat="45.70145" lon="6.74198">
        <ele>1519.4</ele>
        <time>2023-08-21T10:04:23Z</time>
      </trkpt>
      <trkpt lat="45.70145" lon="6.742">
        <ele>1519.4</ele>
        <time>2023-08-21T10:04:24Z</time>
      </trkpt>
      <trkpt lat="45.70146" lon="6.74202">
        <ele>1520</ele>
        <time>2023-08-21T10:04:25Z</time>
      </trkpt>
      <trkpt lat="45.70147" lon="6.74203">
        <ele>1520.2</ele>
        <time>2023-08-21T10:04:26Z</time>
      </trkpt>
      <trkpt lat="45.70147" lon="6.74205">
        <ele>1520.2</ele>
        <time>2023-08-21T10:04:27Z</time>
      </trkpt>
      <trkpt lat="45.70149" lon="6.74206">
        <ele>1520.2</ele>
        <time>2023-08-21T10:04:28Z</time>
      </trkpt>
      <trkpt lat="45.7015" lon="6.74208">
        <ele>1520.2</ele>
        <time>2023-08-21T10:04:29Z</time>
      </trkpt>
      <trkpt lat="45.70151" lon="6.74209">
        <ele>1520.8</ele>
        <time>2023-08-21T10:04:30Z</time>
      </trkpt>
      <trkpt lat="45.70151" lon="6.74211">
        <ele>1520.8</ele>
        <time>2023-08-21T10:04:31Z</time>
      </trkpt>
      <trkpt lat="45.70152" lon="6.74213">
        <ele>1520.8</ele>
        <time>2023-08-21T10:04:32Z</time>
      </trkpt>
      <trkpt lat="45.70153" lon="6.74215">
        <ele>1521.4</ele>
        <time>2023-08-21T10:04:33Z</time>
      </trkpt>
      <trkpt lat="45.70153" lon="6.74216">
        <ele>1521.6</ele>
        <time>2023-08-21T10:04:34Z</time>
      </trkpt>
      <trkpt lat="45.70154" lon="6.74218">
        <ele>1521.6</ele>
        <time>2023-08-21T10:04:35Z</time>
      </trkpt>
      <trkpt lat="45.70155" lon="6.7422">
        <ele>1521.6</ele>
        <time>2023-08-21T10:04:36Z</time>
      </trkpt>
      <trkpt lat="45.70155" lon="6.74222">
        <ele>1521.6</ele>
        <time>2023-08-21T10:04:37Z</time>
      </trkpt>
      <trkpt lat="45.70157" lon="6.74223">
        <ele>1521.6</ele>
        <time>2023-08-21T10:04:38Z</time>
      </trkpt>
      <trkpt lat="45.70158" lon="6.74225">
        <ele>1522.2</ele>
        <time>2023-08-21T10:04:39Z</time>
      </trkpt>
      <trkpt lat="45.70158" lon="6.74227">
        <ele>1522.4</ele>
        <time>2023-08-21T10:04:40Z</time>
      </trkpt>
      <trkpt lat="45.70159" lon="6.7423">
        <ele>1522.4</ele>
        <time>2023-08-21T10:04:41Z</time>
      </trkpt>
      <trkpt lat="45.70159" lon="6.74233">
        <ele>1522.4</ele>
        <time>2023-08-21T10:04:42Z</time>
      </trkpt>
      <trkpt lat="45.70159" lon="6.74234">
        <ele>1522.8</ele>
        <time>2023-08-21T10:04:43Z</time>
      </trkpt>
      <trkpt lat="45.7016" lon="6.74236">
        <ele>1523.2</ele>
        <time>2023-08-21T10:04:44Z</time>
      </trkpt>
      <trkpt lat="45.7016" lon="6.74238">
        <ele>1523.2</ele>
        <time>2023-08-21T10:04:45Z</time>
      </trkpt>
      <trkpt lat="45.70161" lon="6.74239">
        <ele>1523.2</ele>
        <time>2023-08-21T10:04:46Z</time>
      </trkpt>
      <trkpt lat="45.70161" lon="6.7424">
        <ele>1523.8</ele>
        <time>2023-08-21T10:04:47Z</time>
      </trkpt>
      <trkpt lat="45.70161" lon="6.74242">
        <ele>1524</ele>
        <time>2023-08-21T10:04:48Z</time>
      </trkpt>
      <trkpt lat="45.70162" lon="6.74244">
        <ele>1524</ele>
        <time>2023-08-21T10:04:49Z</time>
      </trkpt>
      <trkpt lat="45.70162" lon="6.74245">
        <ele>1524</ele>
        <time>2023-08-21T10:04:50Z</time>
      </trkpt>
      <trkpt lat="45.70163" lon="6.74247">
        <ele>1524</ele>
        <time>2023-08-21T10:04:51Z</time>
      </trkpt>
      <trkpt lat="45.70163" lon="6.74248">
        <ele>1524</ele>
        <time>2023-08-21T10:04:52Z</time>
      </trkpt>
      <trkpt lat="45.70164" lon="6.7425">
        <ele>1524.8</ele>
        <time>2023-08-21T10:04:53Z</time>
      </trkpt>
      <trkpt lat="45.70165" lon="6.74251">
        <ele>1525</ele>
        <time>2023-08-21T10:04:54Z</time>
      </trkpt>
      <trkpt lat="45.70166" lon="6.74253">
        <ele>1525</ele>
        <time>2023-08-21T10:04:55Z</time>
      </trkpt>
      <trkpt lat="45.70167" lon="6.74255">
        <ele>1525</ele>
        <time>2023-08-21T10:04:56Z</time>
      </trkpt>
      <trkpt lat="45.70168" lon="6.74257">
        <ele>1525.4</ele>
        <time>2023-08-21T10:04:57Z</time>
      </trkpt>
      <trkpt lat="45.70169" lon="6.74258">
        <ele>1525.8</ele>
        <time>2023-08-21T10:04:58Z</time>
      </trkpt>
      <trkpt lat="45.70169" lon="6.7426">
        <ele>1525.8</ele>
        <time>2023-08-21T10:04:59Z</time>
      </trkpt>
      <trkpt lat="45.70169" lon="6.74262">
        <ele>1525.8</ele>
        <time>2023-08-21T10:05:00Z</time>
      </trkpt>
      <trkpt lat="45.7017" lon="6.74264">
        <ele>1526.4</ele>
        <time>2023-08-21T10:05:01Z</time>
      </trkpt>
      <trkpt lat="45.7017" lon="6.74266">
        <ele>1526.4</ele>
        <time>2023-08-21T10:05:02Z</time>
      </trkpt>
      <trkpt lat="45.70171" lon="6.74267">
        <ele>1526.4</ele>
        <time>2023-08-21T10:05:03Z</time>
      </trkpt>
      <trkpt lat="45.70172" lon="6.74269">
        <ele>1526.4</ele>
        <time>2023-08-21T10:05:04Z</time>
      </trkpt>
      <trkpt lat="45.70173" lon="6.74271">
        <ele>1526.4</ele>
        <time>2023-08-21T10:05:05Z</time>
      </trkpt>
      <trkpt lat="45.70173" lon="6.74272">
        <ele>1526.6</ele>
        <time>2023-08-21T10:05:06Z</time>
      </trkpt>
      <trkpt lat="45.70173" lon="6.74274">
        <ele>1527</ele>
        <time>2023-08-21T10:05:07Z</time>
      </trkpt>
      <trkpt lat="45.70174" lon="6.74275">
        <ele>1527</ele>
        <time>2023-08-21T10:05:08Z</time>
      </trkpt>
      <trkpt lat="45.70174" lon="6.74277">
        <ele>1527</ele>
        <time>2023-08-21T10:05:09Z</time>
      </trkpt>
      <trkpt lat="45.70175" lon="6.74279">
        <ele>1527.6</ele>
        <time>2023-08-21T10:05:10Z</time>
      </trkpt>
      <trkpt lat="45.70175" lon="6.74281">
        <ele>1527.8</ele>
        <time>2023-08-21T10:05:11Z</time>
      </trkpt>
      <trkpt lat="45.70176" lon="6.74282">
        <ele>1527.8</ele>
        <time>2023-08-21T10:05:12Z</time>
      </trkpt>
      <trkpt lat="45.70176" lon="6.74284">
        <ele>1527.8</ele>
        <time>2023-08-21T10:05:13Z</time>
      </trkpt>
      <trkpt lat="45.70177" lon="6.74286">
        <ele>1527.8</ele>
        <time>2023-08-21T10:05:14Z</time>
      </trkpt>
      <trkpt lat="45.70177" lon="6.74288">
        <ele>1528.4</ele>
        <time>2023-08-21T10:05:15Z</time>
      </trkpt>
      <trkpt lat="45.70177" lon="6.7429">
        <ele>1528.6</ele>
        <time>2023-08-21T10:05:16Z</time>
      </trkpt>
      <trkpt lat="45.70177" lon="6.74292">
        <ele>1528.6</ele>
        <time>2023-08-21T10:05:17Z</time>
      </trkpt>
      <trkpt lat="45.70178" lon="6.74293">
        <ele>1528.6</ele>
        <time>2023-08-21T10:05:18Z</time>
      </trkpt>
      <trkpt lat="45.70178" lon="6.74295">
        <ele>1529</ele>
        <time>2023-08-21T10:05:19Z</time>
      </trkpt>
      <trkpt lat="45.70179" lon="6.74297">
        <ele>1529.2</ele>
        <time>2023-08-21T10:05:20Z</time>
      </trkpt>
      <trkpt lat="45.70179" lon="6.74298">
        <ele>1529.2</ele>
        <time>2023-08-21T10:05:21Z</time>
      </trkpt>
      <trkpt lat="45.70179" lon="6.743">
        <ele>1529.2</ele>
        <time>2023-08-21T10:05:22Z</time>
      </trkpt>
      <trkpt lat="45.70178" lon="6.74301">
        <ele>1529.2</ele>
        <time>2023-08-21T10:05:23Z</time>
      </trkpt>
      <trkpt lat="45.70179" lon="6.74303">
        <ele>1529.8</ele>
        <time>2023-08-21T10:05:24Z</time>
      </trkpt>
      <trkpt lat="45.7018" lon="6.74305">
        <ele>1530.2</ele>
        <time>2023-08-21T10:05:25Z</time>
      </trkpt>
      <trkpt lat="45.7018" lon="6.74306">
        <ele>1530.2</ele>
        <time>2023-08-21T10:05:26Z</time>
      </trkpt>
      <trkpt lat="45.70181" lon="6.74307">
        <ele>1530.2</ele>
        <time>2023-08-21T10:05:27Z</time>
      </trkpt>
      <trkpt lat="45.70182" lon="6.74309">
        <ele>1530.8</ele>
        <time>2023-08-21T10:05:28Z</time>
      </trkpt>
      <trkpt lat="45.70182" lon="6.74311">
        <ele>1530.8</ele>
        <time>2023-08-21T10:05:29Z</time>
      </trkpt>
      <trkpt lat="45.70182" lon="6.74313">
        <ele>1531</ele>
        <time>2023-08-21T10:05:30Z</time>
      </trkpt>
      <trkpt lat="45.70182" lon="6.74315">
        <ele>1531</ele>
        <time>2023-08-21T10:05:31Z</time>
      </trkpt>
      <trkpt lat="45.70183" lon="6.74316">
        <ele>1532</ele>
        <time>2023-08-21T10:05:32Z</time>
      </trkpt>
      <trkpt lat="45.70183" lon="6.74318">
        <ele>1532</ele>
        <time>2023-08-21T10:05:33Z</time>
      </trkpt>
      <trkpt lat="45.70183" lon="6.7432">
        <ele>1532</ele>
        <time>2023-08-21T10:05:34Z</time>
      </trkpt>
      <trkpt lat="45.70184" lon="6.74322">
        <ele>1532</ele>
        <time>2023-08-21T10:05:35Z</time>
      </trkpt>
      <trkpt lat="45.70185" lon="6.74324">
        <ele>1532</ele>
        <time>2023-08-21T10:05:36Z</time>
      </trkpt>
      <trkpt lat="45.70185" lon="6.74326">
        <ele>1532</ele>
        <time>2023-08-21T10:05:37Z</time>
      </trkpt>
      <trkpt lat="45.70186" lon="6.74327">
        <ele>1532</ele>
        <time>2023-08-21T10:05:38Z</time>
      </trkpt>
      <trkpt lat="45.70187" lon="6.74329">
        <ele>1533</ele>
        <time>2023-08-21T10:05:39Z</time>
      </trkpt>
      <trkpt lat="45.70187" lon="6.74331">
        <ele>1533</ele>
        <time>2023-08-21T10:05:40Z</time>
      </trkpt>
      <trkpt lat="45.70188" lon="6.74332">
        <ele>1533</ele>
        <time>2023-08-21T10:05:41Z</time>
      </trkpt>
      <trkpt lat="45.70188" lon="6.74334">
        <ele>1533.6</ele>
        <time>2023-08-21T10:05:42Z</time>
      </trkpt>
      <trkpt lat="45.70188" lon="6.74336">
        <ele>1534</ele>
        <time>2023-08-21T10:05:43Z</time>
      </trkpt>
      <trkpt lat="45.70189" lon="6.74338">
        <ele>1534</ele>
        <time>2023-08-21T10:05:44Z</time>
      </trkpt>
      <trkpt lat="45.70189" lon="6.74339">
        <ele>1534</ele>
        <time>2023-08-21T10:05:45Z</time>
      </trkpt>
      <trkpt lat="45.7019" lon="6.7434">
        <ele>1534.6</ele>
        <time>2023-08-21T10:05:46Z</time>
      </trkpt>
      <trkpt lat="45.7019" lon="6.74342">
        <ele>1534.6</ele>
        <time>2023-08-21T10:05:47Z</time>
      </trkpt>
      <trkpt lat="45.70191" lon="6.74344">
        <ele>1534.8</ele>
        <time>2023-08-21T10:05:48Z</time>
      </trkpt>
      <trkpt lat="45.70191" lon="6.74345">
        <ele>1534.8</ele>
        <time>2023-08-21T10:05:49Z</time>
      </trkpt>
      <trkpt lat="45.70192" lon="6.74347">
        <ele>1535.6</ele>
        <time>2023-08-21T10:05:50Z</time>
      </trkpt>
      <trkpt lat="45.70192" lon="6.74349">
        <ele>1535.6</ele>
        <time>2023-08-21T10:05:51Z</time>
      </trkpt>
      <trkpt lat="45.70193" lon="6.7435">
        <ele>1535.6</ele>
        <time>2023-08-21T10:05:52Z</time>
      </trkpt>
      <trkpt lat="45.70194" lon="6.74352">
        <ele>1535.6</ele>
        <time>2023-08-21T10:05:53Z</time>
      </trkpt>
      <trkpt lat="45.70194" lon="6.74353">
        <ele>1535.6</ele>
        <time>2023-08-21T10:05:54Z</time>
      </trkpt>
      <trkpt lat="45.70195" lon="6.74354">
        <ele>1535.6</ele>
        <time>2023-08-21T10:05:55Z</time>
      </trkpt>
      <trkpt lat="45.70196" lon="6.74356">
        <ele>1535.8</ele>
        <time>2023-08-21T10:05:56Z</time>
      </trkpt>
      <trkpt lat="45.70197" lon="6.74357">
        <ele>1536</ele>
        <time>2023-08-21T10:05:57Z</time>
      </trkpt>
      <trkpt lat="45.70198" lon="6.74359">
        <ele>1536</ele>
        <time>2023-08-21T10:05:58Z</time>
      </trkpt>
      <trkpt lat="45.70199" lon="6.74361">
        <ele>1536</ele>
        <time>2023-08-21T10:05:59Z</time>
      </trkpt>
      <trkpt lat="45.702" lon="6.74362">
        <ele>1537</ele>
        <time>2023-08-21T10:06:00Z</time>
      </trkpt>
      <trkpt lat="45.70201" lon="6.74363">
        <ele>1537.6</ele>
        <time>2023-08-21T10:06:01Z</time>
      </trkpt>
      <trkpt lat="45.70202" lon="6.74365">
        <ele>1537.6</ele>
        <time>2023-08-21T10:06:02Z</time>
      </trkpt>
      <trkpt lat="45.70203" lon="6.74366">
        <ele>1537.6</ele>
        <time>2023-08-21T10:06:03Z</time>
      </trkpt>
      <trkpt lat="45.70203" lon="6.74367">
        <ele>1537.6</ele>
        <time>2023-08-21T10:06:04Z</time>
      </trkpt>
      <trkpt lat="45.70204" lon="6.74369">
        <ele>1538.6</ele>
        <time>2023-08-21T10:06:05Z</time>
      </trkpt>
      <trkpt lat="45.70204" lon="6.74371">
        <ele>1539</ele>
        <time>2023-08-21T10:06:06Z</time>
      </trkpt>
      <trkpt lat="45.70205" lon="6.74372">
        <ele>1539</ele>
        <time>2023-08-21T10:06:07Z</time>
      </trkpt>
      <trkpt lat="45.70206" lon="6.74374">
        <ele>1539</ele>
        <time>2023-08-21T10:06:08Z</time>
      </trkpt>
      <trkpt lat="45.70207" lon="6.74374">
        <ele>1539.2</ele>
        <time>2023-08-21T10:06:09Z</time>
      </trkpt>
      <trkpt lat="45.70208" lon="6.74375">
        <ele>1539.4</ele>
        <time>2023-08-21T10:06:10Z</time>
      </trkpt>
      <trkpt lat="45.70209" lon="6.74375">
        <ele>1539.4</ele>
        <time>2023-08-21T10:06:11Z</time>
      </trkpt>
      <trkpt lat="45.7021" lon="6.74376">
        <ele>1539.4</ele>
        <time>2023-08-21T10:06:12Z</time>
      </trkpt>
      <trkpt lat="45.70212" lon="6.74376">
        <ele>1539.4</ele>
        <time>2023-08-21T10:06:13Z</time>
      </trkpt>
      <trkpt lat="45.70213" lon="6.74377">
        <ele>1539.4</ele>
        <time>2023-08-21T10:06:14Z</time>
      </trkpt>
      <trkpt lat="45.70214" lon="6.74379">
        <ele>1540.2</ele>
        <time>2023-08-21T10:06:15Z</time>
      </trkpt>
      <trkpt lat="45.70215" lon="6.74381">
        <ele>1540.2</ele>
        <time>2023-08-21T10:06:16Z</time>
      </trkpt>
      <trkpt lat="45.70216" lon="6.74383">
        <ele>1540.2</ele>
        <time>2023-08-21T10:06:17Z</time>
      </trkpt>
      <trkpt lat="45.70216" lon="6.74384">
        <ele>1540.2</ele>
        <time>2023-08-21T10:06:18Z</time>
      </trkpt>
      <trkpt lat="45.70217" lon="6.74386">
        <ele>1541.2</ele>
        <time>2023-08-21T10:06:19Z</time>
      </trkpt>
      <trkpt lat="45.70218" lon="6.74387">
        <ele>1541.2</ele>
        <time>2023-08-21T10:06:20Z</time>
      </trkpt>
      <trkpt lat="45.70218" lon="6.74389">
        <ele>1541.2</ele>
        <time>2023-08-21T10:06:21Z</time>
      </trkpt>
      <trkpt lat="45.70219" lon="6.7439">
        <ele>1541.2</ele>
        <time>2023-08-21T10:06:22Z</time>
      </trkpt>
      <trkpt lat="45.7022" lon="6.74392">
        <ele>1541.2</ele>
        <time>2023-08-21T10:06:23Z</time>
      </trkpt>
      <trkpt lat="45.70221" lon="6.74393">
        <ele>1541.6</ele>
        <time>2023-08-21T10:06:24Z</time>
      </trkpt>
      <trkpt lat="45.70221" lon="6.74395">
        <ele>1541.6</ele>
        <time>2023-08-21T10:06:25Z</time>
      </trkpt>
      <trkpt lat="45.70223" lon="6.74397">
        <ele>1541.6</ele>
        <time>2023-08-21T10:06:26Z</time>
      </trkpt>
      <trkpt lat="45.70224" lon="6.74398">
        <ele>1541.6</ele>
        <time>2023-08-21T10:06:27Z</time>
      </trkpt>
      <trkpt lat="45.70225" lon="6.744">
        <ele>1542.4</ele>
        <time>2023-08-21T10:06:28Z</time>
      </trkpt>
      <trkpt lat="45.70226" lon="6.74402">
        <ele>1542.4</ele>
        <time>2023-08-21T10:06:29Z</time>
      </trkpt>
      <trkpt lat="45.70227" lon="6.74404">
        <ele>1542.4</ele>
        <time>2023-08-21T10:06:30Z</time>
      </trkpt>
      <trkpt lat="45.70228" lon="6.74405">
        <ele>1542.4</ele>
        <time>2023-08-21T10:06:31Z</time>
      </trkpt>
      <trkpt lat="45.70229" lon="6.74407">
        <ele>1542.8</ele>
        <time>2023-08-21T10:06:32Z</time>
      </trkpt>
      <trkpt lat="45.7023" lon="6.74408">
        <ele>1543.2</ele>
        <time>2023-08-21T10:06:33Z</time>
      </trkpt>
      <trkpt lat="45.70231" lon="6.74409">
        <ele>1543.2</ele>
        <time>2023-08-21T10:06:34Z</time>
      </trkpt>
      <trkpt lat="45.70232" lon="6.7441">
        <ele>1543.2</ele>
        <time>2023-08-21T10:06:35Z</time>
      </trkpt>
      <trkpt lat="45.70233" lon="6.74411">
        <ele>1543.2</ele>
        <time>2023-08-21T10:06:36Z</time>
      </trkpt>
      <trkpt lat="45.70235" lon="6.74412">
        <ele>1543.2</ele>
        <time>2023-08-21T10:06:37Z</time>
      </trkpt>
      <trkpt lat="45.70236" lon="6.74414">
        <ele>1543.6</ele>
        <time>2023-08-21T10:06:38Z</time>
      </trkpt>
      <trkpt lat="45.70238" lon="6.74415">
        <ele>1543.6</ele>
        <time>2023-08-21T10:06:39Z</time>
      </trkpt>
      <trkpt lat="45.70239" lon="6.74416">
        <ele>1543.6</ele>
        <time>2023-08-21T10:06:40Z</time>
      </trkpt>
      <trkpt lat="45.7024" lon="6.74417">
        <ele>1543.6</ele>
        <time>2023-08-21T10:06:41Z</time>
      </trkpt>
      <trkpt lat="45.70242" lon="6.74418">
        <ele>1544.2</ele>
        <time>2023-08-21T10:06:42Z</time>
      </trkpt>
      <trkpt lat="45.70244" lon="6.74419">
        <ele>1544.2</ele>
        <time>2023-08-21T10:06:43Z</time>
      </trkpt>
      <trkpt lat="45.70245" lon="6.7442">
        <ele>1544.2</ele>
        <time>2023-08-21T10:06:44Z</time>
      </trkpt>
      <trkpt lat="45.70247" lon="6.74421">
        <ele>1544.2</ele>
        <time>2023-08-21T10:06:45Z</time>
      </trkpt>
      <trkpt lat="45.70249" lon="6.74421">
        <ele>1544.8</ele>
        <time>2023-08-21T10:06:46Z</time>
      </trkpt>
      <trkpt lat="45.7025" lon="6.74422">
        <ele>1544.8</ele>
        <time>2023-08-21T10:06:47Z</time>
      </trkpt>
      <trkpt lat="45.70252" lon="6.74423">
        <ele>1544.8</ele>
        <time>2023-08-21T10:06:48Z</time>
      </trkpt>
      <trkpt lat="45.70254" lon="6.74424">
        <ele>1544.8</ele>
        <time>2023-08-21T10:06:49Z</time>
      </trkpt>
      <trkpt lat="45.70256" lon="6.74425">
        <ele>1544.8</ele>
        <time>2023-08-21T10:06:50Z</time>
      </trkpt>
      <trkpt lat="45.70258" lon="6.74427">
        <ele>1544.8</ele>
        <time>2023-08-21T10:06:51Z</time>
      </trkpt>
      <trkpt lat="45.7026" lon="6.74428">
        <ele>1545</ele>
        <time>2023-08-21T10:06:52Z</time>
      </trkpt>
      <trkpt lat="45.70262" lon="6.74429">
        <ele>1545</ele>
        <time>2023-08-21T10:06:53Z</time>
      </trkpt>
      <trkpt lat="45.70264" lon="6.7443">
        <ele>1545</ele>
        <time>2023-08-21T10:06:54Z</time>
      </trkpt>
      <trkpt lat="45.70266" lon="6.74432">
        <ele>1545</ele>
        <time>2023-08-21T10:06:55Z</time>
      </trkpt>
      <trkpt lat="45.70268" lon="6.74433">
        <ele>1545.2</ele>
        <time>2023-08-21T10:06:56Z</time>
      </trkpt>
      <trkpt lat="45.7027" lon="6.74434">
        <ele>1545.2</ele>
        <time>2023-08-21T10:06:57Z</time>
      </trkpt>
      <trkpt lat="45.70271" lon="6.74436">
        <ele>1545.2</ele>
        <time>2023-08-21T10:06:58Z</time>
      </trkpt>
      <trkpt lat="45.70273" lon="6.74438">
        <ele>1545.2</ele>
        <time>2023-08-21T10:06:59Z</time>
      </trkpt>
      <trkpt lat="45.70274" lon="6.7444">
        <ele>1546</ele>
        <time>2023-08-21T10:07:00Z</time>
      </trkpt>
      <trkpt lat="45.70275" lon="6.74442">
        <ele>1546</ele>
        <time>2023-08-21T10:07:01Z</time>
      </trkpt>
      <trkpt lat="45.70277" lon="6.74444">
        <ele>1546</ele>
        <time>2023-08-21T10:07:02Z</time>
      </trkpt>
      <trkpt lat="45.70278" lon="6.74445">
        <ele>1546</ele>
        <time>2023-08-21T10:07:03Z</time>
      </trkpt>
      <trkpt lat="45.7028" lon="6.74447">
        <ele>1546</ele>
        <time>2023-08-21T10:07:04Z</time>
      </trkpt>
      <trkpt lat="45.70281" lon="6.74449">
        <ele>1546</ele>
        <time>2023-08-21T10:07:05Z</time>
      </trkpt>
      <trkpt lat="45.70283" lon="6.74451">
        <ele>1546.4</ele>
        <time>2023-08-21T10:07:06Z</time>
      </trkpt>
      <trkpt lat="45.70285" lon="6.74453">
        <ele>1546.4</ele>
        <time>2023-08-21T10:07:07Z</time>
      </trkpt>
      <trkpt lat="45.70287" lon="6.74455">
        <ele>1546.4</ele>
        <time>2023-08-21T10:07:08Z</time>
      </trkpt>
      <trkpt lat="45.70288" lon="6.74456">
        <ele>1546.4</ele>
        <time>2023-08-21T10:07:09Z</time>
      </trkpt>
      <trkpt lat="45.7029" lon="6.74458">
        <ele>1546.4</ele>
        <time>2023-08-21T10:07:10Z</time>
      </trkpt>
      <trkpt lat="45.70292" lon="6.74459">
        <ele>1546.4</ele>
        <time>2023-08-21T10:07:11Z</time>
      </trkpt>
      <trkpt lat="45.70293" lon="6.74461">
        <ele>1546.8</ele>
        <time>2023-08-21T10:07:12Z</time>
      </trkpt>
      <trkpt lat="45.70295" lon="6.74462">
        <ele>1546.8</ele>
        <time>2023-08-21T10:07:13Z</time>
      </trkpt>
      <trkpt lat="45.70296" lon="6.74464">
        <ele>1547.4</ele>
        <time>2023-08-21T10:07:14Z</time>
      </trkpt>
      <trkpt lat="45.70298" lon="6.74466">
        <ele>1547.2</ele>
        <time>2023-08-21T10:07:15Z</time>
      </trkpt>
      <trkpt lat="45.703" lon="6.74467">
        <ele>1547.2</ele>
        <time>2023-08-21T10:07:16Z</time>
      </trkpt>
      <trkpt lat="45.70301" lon="6.74469">
        <ele>1547.2</ele>
        <time>2023-08-21T10:07:17Z</time>
      </trkpt>
      <trkpt lat="45.70303" lon="6.74471">
        <ele>1547.2</ele>
        <time>2023-08-21T10:07:18Z</time>
      </trkpt>
      <trkpt lat="45.70305" lon="6.74472">
        <ele>1547.6</ele>
        <time>2023-08-21T10:07:19Z</time>
      </trkpt>
      <trkpt lat="45.70306" lon="6.74474">
        <ele>1547.4</ele>
        <time>2023-08-21T10:07:20Z</time>
      </trkpt>
      <trkpt lat="45.70308" lon="6.74475">
        <ele>1547.4</ele>
        <time>2023-08-21T10:07:21Z</time>
      </trkpt>
      <trkpt lat="45.7031" lon="6.74477">
        <ele>1547.4</ele>
        <time>2023-08-21T10:07:22Z</time>
      </trkpt>
      <trkpt lat="45.70312" lon="6.74479">
        <ele>1547.4</ele>
        <time>2023-08-21T10:07:23Z</time>
      </trkpt>
      <trkpt lat="45.70313" lon="6.7448">
        <ele>1548</ele>
        <time>2023-08-21T10:07:24Z</time>
      </trkpt>
      <trkpt lat="45.70315" lon="6.74482">
        <ele>1548</ele>
        <time>2023-08-21T10:07:25Z</time>
      </trkpt>
      <trkpt lat="45.70317" lon="6.74484">
        <ele>1548</ele>
        <time>2023-08-21T10:07:26Z</time>
      </trkpt>
      <trkpt lat="45.70319" lon="6.74485">
        <ele>1548</ele>
        <time>2023-08-21T10:07:27Z</time>
      </trkpt>
      <trkpt lat="45.70321" lon="6.74486">
        <ele>1548.6</ele>
        <time>2023-08-21T10:07:28Z</time>
      </trkpt>
      <trkpt lat="45.70323" lon="6.74487">
        <ele>1548.6</ele>
        <time>2023-08-21T10:07:29Z</time>
      </trkpt>
      <trkpt lat="45.70325" lon="6.74489">
        <ele>1548.6</ele>
        <time>2023-08-21T10:07:30Z</time>
      </trkpt>
      <trkpt lat="45.70327" lon="6.74491">
        <ele>1548.6</ele>
        <time>2023-08-21T10:07:31Z</time>
      </trkpt>
      <trkpt lat="45.70328" lon="6.74493">
        <ele>1548.6</ele>
        <time>2023-08-21T10:07:32Z</time>
      </trkpt>
      <trkpt lat="45.7033" lon="6.74495">
        <ele>1548.6</ele>
        <time>2023-08-21T10:07:33Z</time>
      </trkpt>
      <trkpt lat="45.70331" lon="6.74498">
        <ele>1549.2</ele>
        <time>2023-08-21T10:07:34Z</time>
      </trkpt>
      <trkpt lat="45.70332" lon="6.745">
        <ele>1549.2</ele>
        <time>2023-08-21T10:07:35Z</time>
      </trkpt>
      <trkpt lat="45.70333" lon="6.74502">
        <ele>1549.2</ele>
        <time>2023-08-21T10:07:36Z</time>
      </trkpt>
      <trkpt lat="45.70334" lon="6.74505">
        <ele>1549.8</ele>
        <time>2023-08-21T10:07:37Z</time>
      </trkpt>
      <trkpt lat="45.70336" lon="6.74507">
        <ele>1550</ele>
        <time>2023-08-21T10:07:38Z</time>
      </trkpt>
      <trkpt lat="45.70337" lon="6.7451">
        <ele>1550</ele>
        <time>2023-08-21T10:07:39Z</time>
      </trkpt>
      <trkpt lat="45.70338" lon="6.74511">
        <ele>1550</ele>
        <time>2023-08-21T10:07:40Z</time>
      </trkpt>
      <trkpt lat="45.7034" lon="6.74513">
        <ele>1550.4</ele>
        <time>2023-08-21T10:07:41Z</time>
      </trkpt>
      <trkpt lat="45.70341" lon="6.74515">
        <ele>1550.6</ele>
        <time>2023-08-21T10:07:42Z</time>
      </trkpt>
      <trkpt lat="45.70342" lon="6.74517">
        <ele>1550.6</ele>
        <time>2023-08-21T10:07:43Z</time>
      </trkpt>
      <trkpt lat="45.70343" lon="6.74519">
        <ele>1550.6</ele>
        <time>2023-08-21T10:07:44Z</time>
      </trkpt>
      <trkpt lat="45.70344" lon="6.74521">
        <ele>1550.6</ele>
        <time>2023-08-21T10:07:45Z</time>
      </trkpt>
      <trkpt lat="45.70346" lon="6.74522">
        <ele>1550.6</ele>
        <time>2023-08-21T10:07:46Z</time>
      </trkpt>
      <trkpt lat="45.70347" lon="6.74524">
        <ele>1550.8</ele>
        <time>2023-08-21T10:07:47Z</time>
      </trkpt>
      <trkpt lat="45.70348" lon="6.74526">
        <ele>1551</ele>
        <time>2023-08-21T10:07:48Z</time>
      </trkpt>
      <trkpt lat="45.70349" lon="6.74528">
        <ele>1551</ele>
        <time>2023-08-21T10:07:49Z</time>
      </trkpt>
      <trkpt lat="45.7035" lon="6.7453">
        <ele>1551</ele>
        <time>2023-08-21T10:07:50Z</time>
      </trkpt>
      <trkpt lat="45.70351" lon="6.74531">
        <ele>1551.6</ele>
        <time>2023-08-21T10:07:51Z</time>
      </trkpt>
      <trkpt lat="45.70352" lon="6.74532">
        <ele>1551.6</ele>
        <time>2023-08-21T10:07:52Z</time>
      </trkpt>
      <trkpt lat="45.70354" lon="6.74533">
        <ele>1551.6</ele>
        <time>2023-08-21T10:07:53Z</time>
      </trkpt>
      <trkpt lat="45.70355" lon="6.74535">
        <ele>1551.6</ele>
        <time>2023-08-21T10:07:54Z</time>
      </trkpt>
      <trkpt lat="45.70357" lon="6.74536">
        <ele>1551.6</ele>
        <time>2023-08-21T10:07:55Z</time>
      </trkpt>
      <trkpt lat="45.70358" lon="6.74538">
        <ele>1552.2</ele>
        <time>2023-08-21T10:07:56Z</time>
      </trkpt>
      <trkpt lat="45.70359" lon="6.7454">
        <ele>1552.2</ele>
        <time>2023-08-21T10:07:57Z</time>
      </trkpt>
      <trkpt lat="45.7036" lon="6.74542">
        <ele>1552.2</ele>
        <time>2023-08-21T10:07:58Z</time>
      </trkpt>
      <trkpt lat="45.70362" lon="6.74543">
        <ele>1552.2</ele>
        <time>2023-08-21T10:07:59Z</time>
      </trkpt>
      <trkpt lat="45.70363" lon="6.74545">
        <ele>1552.2</ele>
        <time>2023-08-21T10:08:00Z</time>
      </trkpt>
      <trkpt lat="45.70363" lon="6.74547">
        <ele>1552.8</ele>
        <time>2023-08-21T10:08:01Z</time>
      </trkpt>
      <trkpt lat="45.70365" lon="6.74549">
        <ele>1552.8</ele>
        <time>2023-08-21T10:08:02Z</time>
      </trkpt>
      <trkpt lat="45.70366" lon="6.7455">
        <ele>1552.8</ele>
        <time>2023-08-21T10:08:03Z</time>
      </trkpt>
      <trkpt lat="45.70367" lon="6.74552">
        <ele>1553.4</ele>
        <time>2023-08-21T10:08:04Z</time>
      </trkpt>
      <trkpt lat="45.70367" lon="6.74554">
        <ele>1553.8</ele>
        <time>2023-08-21T10:08:05Z</time>
      </trkpt>
      <trkpt lat="45.70368" lon="6.74556">
        <ele>1553.8</ele>
        <time>2023-08-21T10:08:06Z</time>
      </trkpt>
      <trkpt lat="45.70369" lon="6.74558">
        <ele>1553.8</ele>
        <time>2023-08-21T10:08:07Z</time>
      </trkpt>
      <trkpt lat="45.7037" lon="6.74559">
        <ele>1553.8</ele>
        <time>2023-08-21T10:08:08Z</time>
      </trkpt>
      <trkpt lat="45.7037" lon="6.74561">
        <ele>1553.8</ele>
        <time>2023-08-21T10:08:09Z</time>
      </trkpt>
      <trkpt lat="45.70371" lon="6.74563">
        <ele>1553.8</ele>
        <time>2023-08-21T10:08:10Z</time>
      </trkpt>
      <trkpt lat="45.70372" lon="6.74565">
        <ele>1554.6</ele>
        <time>2023-08-21T10:08:11Z</time>
      </trkpt>
      <trkpt lat="45.70373" lon="6.74568">
        <ele>1554.6</ele>
        <time>2023-08-21T10:08:12Z</time>
      </trkpt>
      <trkpt lat="45.70373" lon="6.7457">
        <ele>1555.6</ele>
        <time>2023-08-21T10:08:13Z</time>
      </trkpt>
      <trkpt lat="45.70374" lon="6.74571">
        <ele>1556</ele>
        <time>2023-08-21T10:08:14Z</time>
      </trkpt>
      <trkpt lat="45.70374" lon="6.74573">
        <ele>1556</ele>
        <time>2023-08-21T10:08:15Z</time>
      </trkpt>
      <trkpt lat="45.70375" lon="6.74575">
        <ele>1556</ele>
        <time>2023-08-21T10:08:16Z</time>
      </trkpt>
      <trkpt lat="45.70376" lon="6.74577">
        <ele>1556</ele>
        <time>2023-08-21T10:08:17Z</time>
      </trkpt>
      <trkpt lat="45.70377" lon="6.74579">
        <ele>1556.4</ele>
        <time>2023-08-21T10:08:18Z</time>
      </trkpt>
      <trkpt lat="45.70378" lon="6.74581">
        <ele>1556.4</ele>
        <time>2023-08-21T10:08:19Z</time>
      </trkpt>
      <trkpt lat="45.70378" lon="6.74583">
        <ele>1556.4</ele>
        <time>2023-08-21T10:08:20Z</time>
      </trkpt>
      <trkpt lat="45.70379" lon="6.74585">
        <ele>1556.4</ele>
        <time>2023-08-21T10:08:21Z</time>
      </trkpt>
      <trkpt lat="45.7038" lon="6.74587">
        <ele>1556.4</ele>
        <time>2023-08-21T10:08:22Z</time>
      </trkpt>
      <trkpt lat="45.7038" lon="6.74589">
        <ele>1557</ele>
        <time>2023-08-21T10:08:23Z</time>
      </trkpt>
      <trkpt lat="45.70381" lon="6.74591">
        <ele>1557.4</ele>
        <time>2023-08-21T10:08:24Z</time>
      </trkpt>
      <trkpt lat="45.70382" lon="6.74593">
        <ele>1557.4</ele>
        <time>2023-08-21T10:08:25Z</time>
      </trkpt>
      <trkpt lat="45.70383" lon="6.74595">
        <ele>1557.4</ele>
        <time>2023-08-21T10:08:26Z</time>
      </trkpt>
      <trkpt lat="45.70384" lon="6.74597">
        <ele>1558</ele>
        <time>2023-08-21T10:08:27Z</time>
      </trkpt>
      <trkpt lat="45.70385" lon="6.74599">
        <ele>1558</ele>
        <time>2023-08-21T10:08:28Z</time>
      </trkpt>
      <trkpt lat="45.70386" lon="6.746">
        <ele>1558</ele>
        <time>2023-08-21T10:08:29Z</time>
      </trkpt>
      <trkpt lat="45.70387" lon="6.74602">
        <ele>1558</ele>
        <time>2023-08-21T10:08:30Z</time>
      </trkpt>
      <trkpt lat="45.70388" lon="6.74603">
        <ele>1558</ele>
        <time>2023-08-21T10:08:31Z</time>
      </trkpt>
      <trkpt lat="45.70389" lon="6.74605">
        <ele>1558.4</ele>
        <time>2023-08-21T10:08:32Z</time>
      </trkpt>
      <trkpt lat="45.7039" lon="6.74606">
        <ele>1558.4</ele>
        <time>2023-08-21T10:08:33Z</time>
      </trkpt>
      <trkpt lat="45.70391" lon="6.74608">
        <ele>1558.6</ele>
        <time>2023-08-21T10:08:34Z</time>
      </trkpt>
      <trkpt lat="45.70392" lon="6.74609">
        <ele>1558.6</ele>
        <time>2023-08-21T10:08:35Z</time>
      </trkpt>
      <trkpt lat="45.70393" lon="6.74611">
        <ele>1558.6</ele>
        <time>2023-08-21T10:08:36Z</time>
      </trkpt>
      <trkpt lat="45.70395" lon="6.74612">
        <ele>1558.6</ele>
        <time>2023-08-21T10:08:37Z</time>
      </trkpt>
      <trkpt lat="45.70396" lon="6.74614">
        <ele>1559.2</ele>
        <time>2023-08-21T10:08:38Z</time>
      </trkpt>
      <trkpt lat="45.70397" lon="6.74615">
        <ele>1559.2</ele>
        <time>2023-08-21T10:08:39Z</time>
      </trkpt>
      <trkpt lat="45.70398" lon="6.74617">
        <ele>1559.2</ele>
        <time>2023-08-21T10:08:40Z</time>
      </trkpt>
      <trkpt lat="45.70399" lon="6.74619">
        <ele>1559.8</ele>
        <time>2023-08-21T10:08:41Z</time>
      </trkpt>
      <trkpt lat="45.704" lon="6.7462">
        <ele>1560</ele>
        <time>2023-08-21T10:08:42Z</time>
      </trkpt>
      <trkpt lat="45.70401" lon="6.74622">
        <ele>1560</ele>
        <time>2023-08-21T10:08:43Z</time>
      </trkpt>
      <trkpt lat="45.70402" lon="6.74624">
        <ele>1560</ele>
        <time>2023-08-21T10:08:44Z</time>
      </trkpt>
      <trkpt lat="45.70404" lon="6.74626">
        <ele>1560</ele>
        <time>2023-08-21T10:08:45Z</time>
      </trkpt>
      <trkpt lat="45.70405" lon="6.74627">
        <ele>1560.6</ele>
        <time>2023-08-21T10:08:46Z</time>
      </trkpt>
      <trkpt lat="45.70406" lon="6.74629">
        <ele>1560.8</ele>
        <time>2023-08-21T10:08:47Z</time>
      </trkpt>
      <trkpt lat="45.70407" lon="6.74631">
        <ele>1560.8</ele>
        <time>2023-08-21T10:08:48Z</time>
      </trkpt>
      <trkpt lat="45.70408" lon="6.74633">
        <ele>1560.8</ele>
        <time>2023-08-21T10:08:49Z</time>
      </trkpt>
      <trkpt lat="45.70409" lon="6.74634">
        <ele>1560.8</ele>
        <time>2023-08-21T10:08:50Z</time>
      </trkpt>
      <trkpt lat="45.7041" lon="6.74637">
        <ele>1561.6</ele>
        <time>2023-08-21T10:08:51Z</time>
      </trkpt>
      <trkpt lat="45.70411" lon="6.74638">
        <ele>1561.6</ele>
        <time>2023-08-21T10:08:52Z</time>
      </trkpt>
      <trkpt lat="45.70412" lon="6.7464">
        <ele>1561.6</ele>
        <time>2023-08-21T10:08:53Z</time>
      </trkpt>
      <trkpt lat="45.70413" lon="6.74642">
        <ele>1561.6</ele>
        <time>2023-08-21T10:08:54Z</time>
      </trkpt>
      <trkpt lat="45.70414" lon="6.74644">
        <ele>1561.6</ele>
        <time>2023-08-21T10:08:55Z</time>
      </trkpt>
      <trkpt lat="45.70415" lon="6.74646">
        <ele>1562.2</ele>
        <time>2023-08-21T10:08:56Z</time>
      </trkpt>
      <trkpt lat="45.70416" lon="6.74648">
        <ele>1562.2</ele>
        <time>2023-08-21T10:08:57Z</time>
      </trkpt>
      <trkpt lat="45.70417" lon="6.7465">
        <ele>1562.2</ele>
        <time>2023-08-21T10:08:58Z</time>
      </trkpt>
      <trkpt lat="45.70418" lon="6.74652">
        <ele>1562.2</ele>
        <time>2023-08-21T10:08:59Z</time>
      </trkpt>
      <trkpt lat="45.70419" lon="6.74654">
        <ele>1562.6</ele>
        <time>2023-08-21T10:09:00Z</time>
      </trkpt>
      <trkpt lat="45.70419" lon="6.74656">
        <ele>1562.6</ele>
        <time>2023-08-21T10:09:01Z</time>
      </trkpt>
      <trkpt lat="45.7042" lon="6.74658">
        <ele>1562.6</ele>
        <time>2023-08-21T10:09:02Z</time>
      </trkpt>
      <trkpt lat="45.70421" lon="6.74661">
        <ele>1562.6</ele>
        <time>2023-08-21T10:09:03Z</time>
      </trkpt>
      <trkpt lat="45.70422" lon="6.74663">
        <ele>1563</ele>
        <time>2023-08-21T10:09:04Z</time>
      </trkpt>
      <trkpt lat="45.70424" lon="6.74665">
        <ele>1563.2</ele>
        <time>2023-08-21T10:09:05Z</time>
      </trkpt>
      <trkpt lat="45.70424" lon="6.74667">
        <ele>1563.2</ele>
        <time>2023-08-21T10:09:06Z</time>
      </trkpt>
      <trkpt lat="45.70426" lon="6.7467">
        <ele>1563.2</ele>
        <time>2023-08-21T10:09:07Z</time>
      </trkpt>
      <trkpt lat="45.70426" lon="6.74673">
        <ele>1563.2</ele>
        <time>2023-08-21T10:09:08Z</time>
      </trkpt>
      <trkpt lat="45.70428" lon="6.74676">
        <ele>1563.8</ele>
        <time>2023-08-21T10:09:09Z</time>
      </trkpt>
      <trkpt lat="45.70429" lon="6.74679">
        <ele>1563.8</ele>
        <time>2023-08-21T10:09:10Z</time>
      </trkpt>
      <trkpt lat="45.7043" lon="6.74682">
        <ele>1563.8</ele>
        <time>2023-08-21T10:09:11Z</time>
      </trkpt>
      <trkpt lat="45.70432" lon="6.74685">
        <ele>1563.8</ele>
        <time>2023-08-21T10:09:12Z</time>
      </trkpt>
      <trkpt lat="45.70433" lon="6.74688">
        <ele>1563.8</ele>
        <time>2023-08-21T10:09:13Z</time>
      </trkpt>
      <trkpt lat="45.70435" lon="6.74691">
        <ele>1563.6</ele>
        <time>2023-08-21T10:09:14Z</time>
      </trkpt>
      <trkpt lat="45.70437" lon="6.74694">
        <ele>1563</ele>
        <time>2023-08-21T10:09:15Z</time>
      </trkpt>
      <trkpt lat="45.70438" lon="6.74697">
        <ele>1563</ele>
        <time>2023-08-21T10:09:16Z</time>
      </trkpt>
      <trkpt lat="45.7044" lon="6.747">
        <ele>1563</ele>
        <time>2023-08-21T10:09:17Z</time>
      </trkpt>
      <trkpt lat="45.70442" lon="6.74703">
        <ele>1563.2</ele>
        <time>2023-08-21T10:09:18Z</time>
      </trkpt>
      <trkpt lat="45.70444" lon="6.74706">
        <ele>1563.2</ele>
        <time>2023-08-21T10:09:19Z</time>
      </trkpt>
      <trkpt lat="45.70446" lon="6.74709">
        <ele>1563.4</ele>
        <time>2023-08-21T10:09:20Z</time>
      </trkpt>
      <trkpt lat="45.70447" lon="6.74711">
        <ele>1563.4</ele>
        <time>2023-08-21T10:09:21Z</time>
      </trkpt>
      <trkpt lat="45.70449" lon="6.74714">
        <ele>1563.4</ele>
        <time>2023-08-21T10:09:22Z</time>
      </trkpt>
      <trkpt lat="45.70451" lon="6.74716">
        <ele>1564</ele>
        <time>2023-08-21T10:09:23Z</time>
      </trkpt>
      <trkpt lat="45.70452" lon="6.74718">
        <ele>1563.8</ele>
        <time>2023-08-21T10:09:24Z</time>
      </trkpt>
      <trkpt lat="45.70454" lon="6.7472">
        <ele>1563.8</ele>
        <time>2023-08-21T10:09:25Z</time>
      </trkpt>
      <trkpt lat="45.70456" lon="6.74723">
        <ele>1563.8</ele>
        <time>2023-08-21T10:09:26Z</time>
      </trkpt>
      <trkpt lat="45.70457" lon="6.74726">
        <ele>1564.6</ele>
        <time>2023-08-21T10:09:27Z</time>
      </trkpt>
      <trkpt lat="45.70459" lon="6.74728">
        <ele>1564.6</ele>
        <time>2023-08-21T10:09:28Z</time>
      </trkpt>
      <trkpt lat="45.70461" lon="6.74731">
        <ele>1564.6</ele>
        <time>2023-08-21T10:09:29Z</time>
      </trkpt>
      <trkpt lat="45.70462" lon="6.74733">
        <ele>1564.6</ele>
        <time>2023-08-21T10:09:30Z</time>
      </trkpt>
      <trkpt lat="45.70464" lon="6.74735">
        <ele>1564.6</ele>
        <time>2023-08-21T10:09:31Z</time>
      </trkpt>
      <trkpt lat="45.70465" lon="6.74737">
        <ele>1565.6</ele>
        <time>2023-08-21T10:09:32Z</time>
      </trkpt>
      <trkpt lat="45.70467" lon="6.74739">
        <ele>1565.6</ele>
        <time>2023-08-21T10:09:33Z</time>
      </trkpt>
      <trkpt lat="45.70468" lon="6.74741">
        <ele>1565.6</ele>
        <time>2023-08-21T10:09:34Z</time>
      </trkpt>
      <trkpt lat="45.7047" lon="6.74743">
        <ele>1565.6</ele>
        <time>2023-08-21T10:09:35Z</time>
      </trkpt>
      <trkpt lat="45.70472" lon="6.74746">
        <ele>1566.2</ele>
        <time>2023-08-21T10:09:36Z</time>
      </trkpt>
      <trkpt lat="45.70473" lon="6.74748">
        <ele>1566.4</ele>
        <time>2023-08-21T10:09:37Z</time>
      </trkpt>
      <trkpt lat="45.70475" lon="6.74749">
        <ele>1566.4</ele>
        <time>2023-08-21T10:09:38Z</time>
      </trkpt>
      <trkpt lat="45.70477" lon="6.74751">
        <ele>1566.4</ele>
        <time>2023-08-21T10:09:39Z</time>
      </trkpt>
      <trkpt lat="45.70479" lon="6.74753">
        <ele>1566.4</ele>
        <time>2023-08-21T10:09:40Z</time>
      </trkpt>
      <trkpt lat="45.70481" lon="6.74755">
        <ele>1567.2</ele>
        <time>2023-08-21T10:09:41Z</time>
      </trkpt>
      <trkpt lat="45.70483" lon="6.74757">
        <ele>1567.4</ele>
        <time>2023-08-21T10:09:42Z</time>
      </trkpt>
      <trkpt lat="45.70484" lon="6.74759">
        <ele>1567.4</ele>
        <time>2023-08-21T10:09:43Z</time>
      </trkpt>
      <trkpt lat="45.70486" lon="6.74761">
        <ele>1567.4</ele>
        <time>2023-08-21T10:09:44Z</time>
      </trkpt>
      <trkpt lat="45.70488" lon="6.74762">
        <ele>1567.8</ele>
        <time>2023-08-21T10:09:45Z</time>
      </trkpt>
      <trkpt lat="45.7049" lon="6.74764">
        <ele>1567.8</ele>
        <time>2023-08-21T10:09:46Z</time>
      </trkpt>
      <trkpt lat="45.70492" lon="6.74765">
        <ele>1568</ele>
        <time>2023-08-21T10:09:47Z</time>
      </trkpt>
      <trkpt lat="45.70494" lon="6.74765">
        <ele>1568</ele>
        <time>2023-08-21T10:09:48Z</time>
      </trkpt>
      <trkpt lat="45.70496" lon="6.74766">
        <ele>1568</ele>
        <time>2023-08-21T10:09:49Z</time>
      </trkpt>
      <trkpt lat="45.70499" lon="6.74767">
        <ele>1568.8</ele>
        <time>2023-08-21T10:09:50Z</time>
      </trkpt>
      <trkpt lat="45.705" lon="6.74768">
        <ele>1568.8</ele>
        <time>2023-08-21T10:09:51Z</time>
      </trkpt>
      <trkpt lat="45.70502" lon="6.7477">
        <ele>1569</ele>
        <time>2023-08-21T10:09:52Z</time>
      </trkpt>
      <trkpt lat="45.70504" lon="6.74771">
        <ele>1569</ele>
        <time>2023-08-21T10:09:53Z</time>
      </trkpt>
      <trkpt lat="45.70506" lon="6.74773">
        <ele>1569</ele>
        <time>2023-08-21T10:09:54Z</time>
      </trkpt>
      <trkpt lat="45.70508" lon="6.74775">
        <ele>1569.4</ele>
        <time>2023-08-21T10:09:55Z</time>
      </trkpt>
      <trkpt lat="45.7051" lon="6.74778">
        <ele>1569.8</ele>
        <time>2023-08-21T10:09:56Z</time>
      </trkpt>
      <trkpt lat="45.70512" lon="6.74781">
        <ele>1569.8</ele>
        <time>2023-08-21T10:09:57Z</time>
      </trkpt>
      <trkpt lat="45.70514" lon="6.74784">
        <ele>1569.8</ele>
        <time>2023-08-21T10:09:58Z</time>
      </trkpt>
      <trkpt lat="45.70516" lon="6.74787">
        <ele>1570.4</ele>
        <time>2023-08-21T10:09:59Z</time>
      </trkpt>
      <trkpt lat="45.70518" lon="6.7479">
        <ele>1570.4</ele>
        <time>2023-08-21T10:10:00Z</time>
      </trkpt>
      <trkpt lat="45.7052" lon="6.74793">
        <ele>1570.4</ele>
        <time>2023-08-21T10:10:01Z</time>
      </trkpt>
      <trkpt lat="45.70521" lon="6.74796">
        <ele>1570.4</ele>
        <time>2023-08-21T10:10:02Z</time>
      </trkpt>
      <trkpt lat="45.70523" lon="6.74799">
        <ele>1570.4</ele>
        <time>2023-08-21T10:10:03Z</time>
      </trkpt>
      <trkpt lat="45.70525" lon="6.74802">
        <ele>1570.4</ele>
        <time>2023-08-21T10:10:04Z</time>
      </trkpt>
      <trkpt lat="45.70527" lon="6.74805">
        <ele>1570.2</ele>
        <time>2023-08-21T10:10:05Z</time>
      </trkpt>
      <trkpt lat="45.70529" lon="6.74809">
        <ele>1570.2</ele>
        <time>2023-08-21T10:10:06Z</time>
      </trkpt>
      <trkpt lat="45.70532" lon="6.74812">
        <ele>1570.2</ele>
        <time>2023-08-21T10:10:07Z</time>
      </trkpt>
      <trkpt lat="45.70534" lon="6.74816">
        <ele>1570.2</ele>
        <time>2023-08-21T10:10:08Z</time>
      </trkpt>
      <trkpt lat="45.70537" lon="6.74819">
        <ele>1570.2</ele>
        <time>2023-08-21T10:10:09Z</time>
      </trkpt>
      <trkpt lat="45.7054" lon="6.74823">
        <ele>1571.4</ele>
        <time>2023-08-21T10:10:10Z</time>
      </trkpt>
      <trkpt lat="45.70543" lon="6.74827">
        <ele>1571.4</ele>
        <time>2023-08-21T10:10:11Z</time>
      </trkpt>
      <trkpt lat="45.70547" lon="6.7483">
        <ele>1571.4</ele>
        <time>2023-08-21T10:10:12Z</time>
      </trkpt>
      <trkpt lat="45.70551" lon="6.74834">
        <ele>1571.4</ele>
        <time>2023-08-21T10:10:13Z</time>
      </trkpt>
      <trkpt lat="45.70555" lon="6.74837">
        <ele>1570.4</ele>
        <time>2023-08-21T10:10:14Z</time>
      </trkpt>
      <trkpt lat="45.7056" lon="6.74839">
        <ele>1570.2</ele>
        <time>2023-08-21T10:10:15Z</time>
      </trkpt>
      <trkpt lat="45.70564" lon="6.74841">
        <ele>1570.2</ele>
        <time>2023-08-21T10:10:16Z</time>
      </trkpt>
      <trkpt lat="45.70569" lon="6.74844">
        <ele>1570.2</ele>
        <time>2023-08-21T10:10:17Z</time>
      </trkpt>
      <trkpt lat="45.70575" lon="6.74849">
        <ele>1570</ele>
        <time>2023-08-21T10:10:18Z</time>
      </trkpt>
      <trkpt lat="45.70577" lon="6.74851">
        <ele>1570.6</ele>
        <time>2023-08-21T10:10:19Z</time>
      </trkpt>
      <trkpt lat="45.70581" lon="6.74854">
        <ele>1570.6</ele>
        <time>2023-08-21T10:10:20Z</time>
      </trkpt>
      <trkpt lat="45.70584" lon="6.74857">
        <ele>1570.6</ele>
        <time>2023-08-21T10:10:21Z</time>
      </trkpt>
      <trkpt lat="45.70587" lon="6.74859">
        <ele>1570.6</ele>
        <time>2023-08-21T10:10:22Z</time>
      </trkpt>
      <trkpt lat="45.70591" lon="6.74861">
        <ele>1570.8</ele>
        <time>2023-08-21T10:10:23Z</time>
      </trkpt>
      <trkpt lat="45.70594" lon="6.74863">
        <ele>1570.8</ele>
        <time>2023-08-21T10:10:24Z</time>
      </trkpt>
      <trkpt lat="45.70597" lon="6.74865">
        <ele>1570.8</ele>
        <time>2023-08-21T10:10:25Z</time>
      </trkpt>
      <trkpt lat="45.70599" lon="6.74866">
        <ele>1570.8</ele>
        <time>2023-08-21T10:10:26Z</time>
      </trkpt>
      <trkpt lat="45.70601" lon="6.74868">
        <ele>1571.4</ele>
        <time>2023-08-21T10:10:27Z</time>
      </trkpt>
      <trkpt lat="45.70603" lon="6.74869">
        <ele>1572</ele>
        <time>2023-08-21T10:10:28Z</time>
      </trkpt>
      <trkpt lat="45.70605" lon="6.7487">
        <ele>1572</ele>
        <time>2023-08-21T10:10:29Z</time>
      </trkpt>
      <trkpt lat="45.70607" lon="6.74871">
        <ele>1572</ele>
        <time>2023-08-21T10:10:30Z</time>
      </trkpt>
      <trkpt lat="45.70609" lon="6.74872">
        <ele>1572</ele>
        <time>2023-08-21T10:10:31Z</time>
      </trkpt>
      <trkpt lat="45.70611" lon="6.74873">
        <ele>1572</ele>
        <time>2023-08-21T10:10:32Z</time>
      </trkpt>
      <trkpt lat="45.70612" lon="6.74873">
        <ele>1572.6</ele>
        <time>2023-08-21T10:10:33Z</time>
      </trkpt>
      <trkpt lat="45.70614" lon="6.74874">
        <ele>1572.6</ele>
        <time>2023-08-21T10:10:34Z</time>
      </trkpt>
      <trkpt lat="45.70616" lon="6.74874">
        <ele>1572.6</ele>
        <time>2023-08-21T10:10:35Z</time>
      </trkpt>
      <trkpt lat="45.70618" lon="6.74875">
        <ele>1572.6</ele>
        <time>2023-08-21T10:10:36Z</time>
      </trkpt>
      <trkpt lat="45.7062" lon="6.74876">
        <ele>1573.6</ele>
        <time>2023-08-21T10:10:37Z</time>
      </trkpt>
      <trkpt lat="45.70622" lon="6.74877">
        <ele>1573.6</ele>
        <time>2023-08-21T10:10:38Z</time>
      </trkpt>
      <trkpt lat="45.70624" lon="6.74879">
        <ele>1573.6</ele>
        <time>2023-08-21T10:10:39Z</time>
      </trkpt>
      <trkpt lat="45.70625" lon="6.7488">
        <ele>1573.6</ele>
        <time>2023-08-21T10:10:40Z</time>
      </trkpt>
      <trkpt lat="45.70627" lon="6.74882">
        <ele>1573.6</ele>
        <time>2023-08-21T10:10:41Z</time>
      </trkpt>
      <trkpt lat="45.70629" lon="6.74884">
        <ele>1574.6</ele>
        <time>2023-08-21T10:10:42Z</time>
      </trkpt>
      <trkpt lat="45.70631" lon="6.74886">
        <ele>1574.6</ele>
        <time>2023-08-21T10:10:43Z</time>
      </trkpt>
      <trkpt lat="45.70633" lon="6.74888">
        <ele>1574.6</ele>
        <time>2023-08-21T10:10:44Z</time>
      </trkpt>
      <trkpt lat="45.70634" lon="6.74891">
        <ele>1574.6</ele>
        <time>2023-08-21T10:10:45Z</time>
      </trkpt>
      <trkpt lat="45.70635" lon="6.74893">
        <ele>1575.4</ele>
        <time>2023-08-21T10:10:46Z</time>
      </trkpt>
      <trkpt lat="45.70637" lon="6.74896">
        <ele>1575.6</ele>
        <time>2023-08-21T10:10:47Z</time>
      </trkpt>
      <trkpt lat="45.70638" lon="6.74898">
        <ele>1575.6</ele>
        <time>2023-08-21T10:10:48Z</time>
      </trkpt>
      <trkpt lat="45.70639" lon="6.74899">
        <ele>1575.6</ele>
        <time>2023-08-21T10:10:49Z</time>
      </trkpt>
      <trkpt lat="45.70641" lon="6.74901">
        <ele>1575.6</ele>
        <time>2023-08-21T10:10:50Z</time>
      </trkpt>
      <trkpt lat="45.70642" lon="6.74903">
        <ele>1576.6</ele>
        <time>2023-08-21T10:10:51Z</time>
      </trkpt>
      <trkpt lat="45.70643" lon="6.74905">
        <ele>1576.6</ele>
        <time>2023-08-21T10:10:52Z</time>
      </trkpt>
      <trkpt lat="45.70644" lon="6.74907">
        <ele>1576.6</ele>
        <time>2023-08-21T10:10:53Z</time>
      </trkpt>
      <trkpt lat="45.70645" lon="6.74909">
        <ele>1577.6</ele>
        <time>2023-08-21T10:10:54Z</time>
      </trkpt>
      <trkpt lat="45.70647" lon="6.74912">
        <ele>1577.6</ele>
        <time>2023-08-21T10:10:55Z</time>
      </trkpt>
      <trkpt lat="45.70648" lon="6.74913">
        <ele>1577.8</ele>
        <time>2023-08-21T10:10:56Z</time>
      </trkpt>
      <trkpt lat="45.70649" lon="6.74916">
        <ele>1577.8</ele>
        <time>2023-08-21T10:10:57Z</time>
      </trkpt>
      <trkpt lat="45.70651" lon="6.74917">
        <ele>1577.8</ele>
        <time>2023-08-21T10:10:58Z</time>
      </trkpt>
      <trkpt lat="45.70652" lon="6.74919">
        <ele>1577.8</ele>
        <time>2023-08-21T10:10:59Z</time>
      </trkpt>
      <trkpt lat="45.70653" lon="6.74921">
        <ele>1577.8</ele>
        <time>2023-08-21T10:11:00Z</time>
      </trkpt>
      <trkpt lat="45.70654" lon="6.74923">
        <ele>1578.2</ele>
        <time>2023-08-21T10:11:01Z</time>
      </trkpt>
      <trkpt lat="45.70655" lon="6.74924">
        <ele>1578.2</ele>
        <time>2023-08-21T10:11:02Z</time>
      </trkpt>
      <trkpt lat="45.70656" lon="6.74925">
        <ele>1578.2</ele>
        <time>2023-08-21T10:11:03Z</time>
      </trkpt>
      <trkpt lat="45.70657" lon="6.74927">
        <ele>1579</ele>
        <time>2023-08-21T10:11:04Z</time>
      </trkpt>
      <trkpt lat="45.70658" lon="6.74929">
        <ele>1579.2</ele>
        <time>2023-08-21T10:11:05Z</time>
      </trkpt>
      <trkpt lat="45.70659" lon="6.7493">
        <ele>1579.2</ele>
        <time>2023-08-21T10:11:06Z</time>
      </trkpt>
      <trkpt lat="45.70661" lon="6.74932">
        <ele>1579.2</ele>
        <time>2023-08-21T10:11:07Z</time>
      </trkpt>
      <trkpt lat="45.70662" lon="6.74934">
        <ele>1579.6</ele>
        <time>2023-08-21T10:11:08Z</time>
      </trkpt>
      <trkpt lat="45.70663" lon="6.74936">
        <ele>1579.6</ele>
        <time>2023-08-21T10:11:09Z</time>
      </trkpt>
      <trkpt lat="45.70664" lon="6.74938">
        <ele>1579.6</ele>
        <time>2023-08-21T10:11:10Z</time>
      </trkpt>
      <trkpt lat="45.70665" lon="6.7494">
        <ele>1579.6</ele>
        <time>2023-08-21T10:11:11Z</time>
      </trkpt>
      <trkpt lat="45.70666" lon="6.74942">
        <ele>1580.6</ele>
        <time>2023-08-21T10:11:12Z</time>
      </trkpt>
      <trkpt lat="45.70667" lon="6.74944">
        <ele>1580.8</ele>
        <time>2023-08-21T10:11:13Z</time>
      </trkpt>
      <trkpt lat="45.70668" lon="6.74946">
        <ele>1580.8</ele>
        <time>2023-08-21T10:11:14Z</time>
      </trkpt>
      <trkpt lat="45.70669" lon="6.74948">
        <ele>1580.8</ele>
        <time>2023-08-21T10:11:15Z</time>
      </trkpt>
      <trkpt lat="45.70671" lon="6.7495">
        <ele>1580.8</ele>
        <time>2023-08-21T10:11:16Z</time>
      </trkpt>
      <trkpt lat="45.70672" lon="6.74951">
        <ele>1580.8</ele>
        <time>2023-08-21T10:11:17Z</time>
      </trkpt>
      <trkpt lat="45.70673" lon="6.74953">
        <ele>1581.6</ele>
        <time>2023-08-21T10:11:18Z</time>
      </trkpt>
      <trkpt lat="45.70674" lon="6.74955">
        <ele>1581.6</ele>
        <time>2023-08-21T10:11:19Z</time>
      </trkpt>
      <trkpt lat="45.70675" lon="6.74957">
        <ele>1581.6</ele>
        <time>2023-08-21T10:11:20Z</time>
      </trkpt>
      <trkpt lat="45.70675" lon="6.74958">
        <ele>1581.6</ele>
        <time>2023-08-21T10:11:21Z</time>
      </trkpt>
      <trkpt lat="45.70676" lon="6.7496">
        <ele>1582.4</ele>
        <time>2023-08-21T10:11:22Z</time>
      </trkpt>
      <trkpt lat="45.70677" lon="6.74962">
        <ele>1582.8</ele>
        <time>2023-08-21T10:11:23Z</time>
      </trkpt>
      <trkpt lat="45.70678" lon="6.74964">
        <ele>1582.8</ele>
        <time>2023-08-21T10:11:24Z</time>
      </trkpt>
      <trkpt lat="45.7068" lon="6.74965">
        <ele>1582.8</ele>
        <time>2023-08-21T10:11:25Z</time>
      </trkpt>
      <trkpt lat="45.70681" lon="6.74967">
        <ele>1582.8</ele>
        <time>2023-08-21T10:11:26Z</time>
      </trkpt>
      <trkpt lat="45.70682" lon="6.74969">
        <ele>1583.6</ele>
        <time>2023-08-21T10:11:27Z</time>
      </trkpt>
      <trkpt lat="45.70683" lon="6.74971">
        <ele>1583.6</ele>
        <time>2023-08-21T10:11:28Z</time>
      </trkpt>
      <trkpt lat="45.70684" lon="6.74973">
        <ele>1583.6</ele>
        <time>2023-08-21T10:11:29Z</time>
      </trkpt>
      <trkpt lat="45.70685" lon="6.74975">
        <ele>1583.6</ele>
        <time>2023-08-21T10:11:30Z</time>
      </trkpt>
      <trkpt lat="45.70685" lon="6.74976">
        <ele>1583.6</ele>
        <time>2023-08-21T10:11:31Z</time>
      </trkpt>
      <trkpt lat="45.70686" lon="6.74978">
        <ele>1584</ele>
        <time>2023-08-21T10:11:32Z</time>
      </trkpt>
      <trkpt lat="45.70688" lon="6.74979">
        <ele>1584</ele>
        <time>2023-08-21T10:11:33Z</time>
      </trkpt>
      <trkpt lat="45.70689" lon="6.74981">
        <ele>1584</ele>
        <time>2023-08-21T10:11:34Z</time>
      </trkpt>
      <trkpt lat="45.70691" lon="6.74983">
        <ele>1584</ele>
        <time>2023-08-21T10:11:35Z</time>
      </trkpt>
      <trkpt lat="45.70692" lon="6.74985">
        <ele>1584</ele>
        <time>2023-08-21T10:11:36Z</time>
      </trkpt>
      <trkpt lat="45.70694" lon="6.74986">
        <ele>1585.2</ele>
        <time>2023-08-21T10:11:37Z</time>
      </trkpt>
      <trkpt lat="45.70695" lon="6.74988">
        <ele>1585.2</ele>
        <time>2023-08-21T10:11:38Z</time>
      </trkpt>
      <trkpt lat="45.70696" lon="6.74989">
        <ele>1585.2</ele>
        <time>2023-08-21T10:11:39Z</time>
      </trkpt>
      <trkpt lat="45.70698" lon="6.74991">
        <ele>1585.4</ele>
        <time>2023-08-21T10:11:40Z</time>
      </trkpt>
      <trkpt lat="45.70699" lon="6.74993">
        <ele>1585.4</ele>
        <time>2023-08-21T10:11:41Z</time>
      </trkpt>
      <trkpt lat="45.707" lon="6.74994">
        <ele>1585.4</ele>
        <time>2023-08-21T10:11:42Z</time>
      </trkpt>
      <trkpt lat="45.70701" lon="6.74996">
        <ele>1585.4</ele>
        <time>2023-08-21T10:11:43Z</time>
      </trkpt>
      <trkpt lat="45.70702" lon="6.74998">
        <ele>1585.4</ele>
        <time>2023-08-21T10:11:44Z</time>
      </trkpt>
      <trkpt lat="45.70702" lon="6.75">
        <ele>1586</ele>
        <time>2023-08-21T10:11:45Z</time>
      </trkpt>
      <trkpt lat="45.70703" lon="6.75002">
        <ele>1586.2</ele>
        <time>2023-08-21T10:11:46Z</time>
      </trkpt>
      <trkpt lat="45.70704" lon="6.75004">
        <ele>1586.2</ele>
        <time>2023-08-21T10:11:47Z</time>
      </trkpt>
      <trkpt lat="45.70705" lon="6.75006">
        <ele>1586.2</ele>
        <time>2023-08-21T10:11:48Z</time>
      </trkpt>
      <trkpt lat="45.70706" lon="6.75008">
        <ele>1587</ele>
        <time>2023-08-21T10:11:49Z</time>
      </trkpt>
      <trkpt lat="45.70707" lon="6.7501">
        <ele>1587</ele>
        <time>2023-08-21T10:11:50Z</time>
      </trkpt>
      <trkpt lat="45.70708" lon="6.75012">
        <ele>1587</ele>
        <time>2023-08-21T10:11:51Z</time>
      </trkpt>
      <trkpt lat="45.70709" lon="6.75014">
        <ele>1587</ele>
        <time>2023-08-21T10:11:52Z</time>
      </trkpt>
      <trkpt lat="45.70709" lon="6.75017">
        <ele>1587.2</ele>
        <time>2023-08-21T10:11:53Z</time>
      </trkpt>
      <trkpt lat="45.70709" lon="6.75019">
        <ele>1587.2</ele>
        <time>2023-08-21T10:11:54Z</time>
      </trkpt>
      <trkpt lat="45.7071" lon="6.75021">
        <ele>1587.6</ele>
        <time>2023-08-21T10:11:55Z</time>
      </trkpt>
      <trkpt lat="45.70711" lon="6.75023">
        <ele>1587.6</ele>
        <time>2023-08-21T10:11:56Z</time>
      </trkpt>
      <trkpt lat="45.70712" lon="6.75025">
        <ele>1587.6</ele>
        <time>2023-08-21T10:11:57Z</time>
      </trkpt>
      <trkpt lat="45.70713" lon="6.75027">
        <ele>1587.6</ele>
        <time>2023-08-21T10:11:58Z</time>
      </trkpt>
      <trkpt lat="45.70714" lon="6.7503">
        <ele>1587.6</ele>
        <time>2023-08-21T10:11:59Z</time>
      </trkpt>
      <trkpt lat="45.70715" lon="6.75032">
        <ele>1588</ele>
        <time>2023-08-21T10:12:00Z</time>
      </trkpt>
      <trkpt lat="45.70716" lon="6.75033">
        <ele>1588</ele>
        <time>2023-08-21T10:12:01Z</time>
      </trkpt>
      <trkpt lat="45.70717" lon="6.75035">
        <ele>1588</ele>
        <time>2023-08-21T10:12:02Z</time>
      </trkpt>
      <trkpt lat="45.70718" lon="6.75037">
        <ele>1588.8</ele>
        <time>2023-08-21T10:12:03Z</time>
      </trkpt>
      <trkpt lat="45.70719" lon="6.75039">
        <ele>1588.8</ele>
        <time>2023-08-21T10:12:04Z</time>
      </trkpt>
      <trkpt lat="45.7072" lon="6.75041">
        <ele>1589</ele>
        <time>2023-08-21T10:12:05Z</time>
      </trkpt>
      <trkpt lat="45.70722" lon="6.75042">
        <ele>1589</ele>
        <time>2023-08-21T10:12:06Z</time>
      </trkpt>
      <trkpt lat="45.70723" lon="6.75044">
        <ele>1589</ele>
        <time>2023-08-21T10:12:07Z</time>
      </trkpt>
      <trkpt lat="45.70725" lon="6.75045">
        <ele>1589.4</ele>
        <time>2023-08-21T10:12:08Z</time>
      </trkpt>
      <trkpt lat="45.70726" lon="6.75047">
        <ele>1589.4</ele>
        <time>2023-08-21T10:12:09Z</time>
      </trkpt>
      <trkpt lat="45.70728" lon="6.75049">
        <ele>1589.4</ele>
        <time>2023-08-21T10:12:10Z</time>
      </trkpt>
      <trkpt lat="45.7073" lon="6.75051">
        <ele>1589.4</ele>
        <time>2023-08-21T10:12:11Z</time>
      </trkpt>
      <trkpt lat="45.70731" lon="6.75052">
        <ele>1589.4</ele>
        <time>2023-08-21T10:12:12Z</time>
      </trkpt>
      <trkpt lat="45.70732" lon="6.75054">
        <ele>1590.2</ele>
        <time>2023-08-21T10:12:13Z</time>
      </trkpt>
      <trkpt lat="45.70734" lon="6.75056">
        <ele>1590.2</ele>
        <time>2023-08-21T10:12:14Z</time>
      </trkpt>
      <trkpt lat="45.70735" lon="6.75057">
        <ele>1590.2</ele>
        <time>2023-08-21T10:12:15Z</time>
      </trkpt>
      <trkpt lat="45.70737" lon="6.75059">
        <ele>1590.2</ele>
        <time>2023-08-21T10:12:16Z</time>
      </trkpt>
      <trkpt lat="45.70738" lon="6.75061">
        <ele>1590.8</ele>
        <time>2023-08-21T10:12:17Z</time>
      </trkpt>
      <trkpt lat="45.7074" lon="6.75063">
        <ele>1590.8</ele>
        <time>2023-08-21T10:12:18Z</time>
      </trkpt>
      <trkpt lat="45.70742" lon="6.75066">
        <ele>1590.8</ele>
        <time>2023-08-21T10:12:19Z</time>
      </trkpt>
      <trkpt lat="45.70743" lon="6.75067">
        <ele>1590.8</ele>
        <time>2023-08-21T10:12:20Z</time>
      </trkpt>
      <trkpt lat="45.70744" lon="6.75069">
        <ele>1590.8</ele>
        <time>2023-08-21T10:12:21Z</time>
      </trkpt>
      <trkpt lat="45.70746" lon="6.7507">
        <ele>1591.4</ele>
        <time>2023-08-21T10:12:22Z</time>
      </trkpt>
      <trkpt lat="45.70748" lon="6.75071">
        <ele>1591.4</ele>
        <time>2023-08-21T10:12:23Z</time>
      </trkpt>
      <trkpt lat="45.7075" lon="6.75074">
        <ele>1591.4</ele>
        <time>2023-08-21T10:12:24Z</time>
      </trkpt>
      <trkpt lat="45.70752" lon="6.75075">
        <ele>1591.4</ele>
        <time>2023-08-21T10:12:25Z</time>
      </trkpt>
      <trkpt lat="45.70753" lon="6.75077">
        <ele>1591.8</ele>
        <time>2023-08-21T10:12:26Z</time>
      </trkpt>
      <trkpt lat="45.70756" lon="6.75079">
        <ele>1592.2</ele>
        <time>2023-08-21T10:12:27Z</time>
      </trkpt>
      <trkpt lat="45.70758" lon="6.75081">
        <ele>1592.2</ele>
        <time>2023-08-21T10:12:28Z</time>
      </trkpt>
      <trkpt lat="45.7076" lon="6.75082">
        <ele>1592.2</ele>
        <time>2023-08-21T10:12:29Z</time>
      </trkpt>
      <trkpt lat="45.70762" lon="6.75085">
        <ele>1592.2</ele>
        <time>2023-08-21T10:12:30Z</time>
      </trkpt>
      <trkpt lat="45.70764" lon="6.75087">
        <ele>1592.6</ele>
        <time>2023-08-21T10:12:31Z</time>
      </trkpt>
      <trkpt lat="45.70765" lon="6.75089">
        <ele>1592.6</ele>
        <time>2023-08-21T10:12:32Z</time>
      </trkpt>
      <trkpt lat="45.70767" lon="6.75091">
        <ele>1592.6</ele>
        <time>2023-08-21T10:12:33Z</time>
      </trkpt>
      <trkpt lat="45.70769" lon="6.75094">
        <ele>1592.6</ele>
        <time>2023-08-21T10:12:34Z</time>
      </trkpt>
      <trkpt lat="45.7077" lon="6.75096">
        <ele>1593.2</ele>
        <time>2023-08-21T10:12:35Z</time>
      </trkpt>
      <trkpt lat="45.70772" lon="6.75098">
        <ele>1592.8</ele>
        <time>2023-08-21T10:12:36Z</time>
      </trkpt>
      <trkpt lat="45.70773" lon="6.751">
        <ele>1592.8</ele>
        <time>2023-08-21T10:12:37Z</time>
      </trkpt>
      <trkpt lat="45.70775" lon="6.75102">
        <ele>1592.8</ele>
        <time>2023-08-21T10:12:38Z</time>
      </trkpt>
      <trkpt lat="45.70777" lon="6.75103">
        <ele>1592.8</ele>
        <time>2023-08-21T10:12:39Z</time>
      </trkpt>
      <trkpt lat="45.70778" lon="6.75105">
        <ele>1592.8</ele>
        <time>2023-08-21T10:12:40Z</time>
      </trkpt>
      <trkpt lat="45.7078" lon="6.75107">
        <ele>1593.8</ele>
        <time>2023-08-21T10:12:41Z</time>
      </trkpt>
      <trkpt lat="45.70781" lon="6.75109">
        <ele>1593.8</ele>
        <time>2023-08-21T10:12:42Z</time>
      </trkpt>
      <trkpt lat="45.70783" lon="6.7511">
        <ele>1593.8</ele>
        <time>2023-08-21T10:12:43Z</time>
      </trkpt>
      <trkpt lat="45.70785" lon="6.75112">
        <ele>1593.8</ele>
        <time>2023-08-21T10:12:44Z</time>
      </trkpt>
      <trkpt lat="45.70786" lon="6.75113">
        <ele>1594.4</ele>
        <time>2023-08-21T10:12:45Z</time>
      </trkpt>
      <trkpt lat="45.70788" lon="6.75114">
        <ele>1594.4</ele>
        <time>2023-08-21T10:12:46Z</time>
      </trkpt>
      <trkpt lat="45.7079" lon="6.75115">
        <ele>1594.4</ele>
        <time>2023-08-21T10:12:47Z</time>
      </trkpt>
      <trkpt lat="45.70791" lon="6.75116">
        <ele>1595</ele>
        <time>2023-08-21T10:12:48Z</time>
      </trkpt>
      <trkpt lat="45.70793" lon="6.75117">
        <ele>1595</ele>
        <time>2023-08-21T10:12:49Z</time>
      </trkpt>
      <trkpt lat="45.70795" lon="6.75118">
        <ele>1595</ele>
        <time>2023-08-21T10:12:50Z</time>
      </trkpt>
      <trkpt lat="45.70797" lon="6.75119">
        <ele>1595</ele>
        <time>2023-08-21T10:12:51Z</time>
      </trkpt>
      <trkpt lat="45.70799" lon="6.7512">
        <ele>1595</ele>
        <time>2023-08-21T10:12:52Z</time>
      </trkpt>
      <trkpt lat="45.708" lon="6.75121">
        <ele>1595</ele>
        <time>2023-08-21T10:12:53Z</time>
      </trkpt>
      <trkpt lat="45.70802" lon="6.75123">
        <ele>1595.2</ele>
        <time>2023-08-21T10:12:54Z</time>
      </trkpt>
      <trkpt lat="45.70805" lon="6.75125">
        <ele>1595.2</ele>
        <time>2023-08-21T10:12:55Z</time>
      </trkpt>
      <trkpt lat="45.70806" lon="6.75125">
        <ele>1595.4</ele>
        <time>2023-08-21T10:12:56Z</time>
      </trkpt>
      <trkpt lat="45.70808" lon="6.75127">
        <ele>1595.4</ele>
        <time>2023-08-21T10:12:57Z</time>
      </trkpt>
      <trkpt lat="45.7081" lon="6.75128">
        <ele>1596</ele>
        <time>2023-08-21T10:12:58Z</time>
      </trkpt>
      <trkpt lat="45.70812" lon="6.7513">
        <ele>1595.4</ele>
        <time>2023-08-21T10:12:59Z</time>
      </trkpt>
      <trkpt lat="45.70814" lon="6.75131">
        <ele>1595.4</ele>
        <time>2023-08-21T10:13:00Z</time>
      </trkpt>
      <trkpt lat="45.70816" lon="6.75132">
        <ele>1595.4</ele>
        <time>2023-08-21T10:13:01Z</time>
      </trkpt>
      <trkpt lat="45.70819" lon="6.75134">
        <ele>1595.4</ele>
        <time>2023-08-21T10:13:02Z</time>
      </trkpt>
      <trkpt lat="45.70821" lon="6.75135">
        <ele>1596.4</ele>
        <time>2023-08-21T10:13:03Z</time>
      </trkpt>
      <trkpt lat="45.70823" lon="6.75136">
        <ele>1596.2</ele>
        <time>2023-08-21T10:13:04Z</time>
      </trkpt>
      <trkpt lat="45.70825" lon="6.75137">
        <ele>1596.2</ele>
        <time>2023-08-21T10:13:05Z</time>
      </trkpt>
      <trkpt lat="45.70828" lon="6.75137">
        <ele>1596.2</ele>
        <time>2023-08-21T10:13:06Z</time>
      </trkpt>
      <trkpt lat="45.7083" lon="6.75138">
        <ele>1596.2</ele>
        <time>2023-08-21T10:13:07Z</time>
      </trkpt>
      <trkpt lat="45.70833" lon="6.75139">
        <ele>1596.4</ele>
        <time>2023-08-21T10:13:08Z</time>
      </trkpt>
      <trkpt lat="45.70835" lon="6.75139">
        <ele>1596.6</ele>
        <time>2023-08-21T10:13:09Z</time>
      </trkpt>
      <trkpt lat="45.70837" lon="6.75141">
        <ele>1596.6</ele>
        <time>2023-08-21T10:13:10Z</time>
      </trkpt>
      <trkpt lat="45.70839" lon="6.75142">
        <ele>1596.6</ele>
        <time>2023-08-21T10:13:11Z</time>
      </trkpt>
      <trkpt lat="45.70841" lon="6.75143">
        <ele>1596.8</ele>
        <time>2023-08-21T10:13:12Z</time>
      </trkpt>
      <trkpt lat="45.70843" lon="6.75144">
        <ele>1597</ele>
        <time>2023-08-21T10:13:13Z</time>
      </trkpt>
      <trkpt lat="45.70845" lon="6.75146">
        <ele>1597</ele>
        <time>2023-08-21T10:13:14Z</time>
      </trkpt>
      <trkpt lat="45.70848" lon="6.75147">
        <ele>1597</ele>
        <time>2023-08-21T10:13:15Z</time>
      </trkpt>
      <trkpt lat="45.7085" lon="6.75149">
        <ele>1597</ele>
        <time>2023-08-21T10:13:16Z</time>
      </trkpt>
      <trkpt lat="45.70852" lon="6.7515">
        <ele>1597</ele>
        <time>2023-08-21T10:13:17Z</time>
      </trkpt>
      <trkpt lat="45.70854" lon="6.75151">
        <ele>1597.6</ele>
        <time>2023-08-21T10:13:18Z</time>
      </trkpt>
      <trkpt lat="45.70856" lon="6.75152">
        <ele>1597.6</ele>
        <time>2023-08-21T10:13:19Z</time>
      </trkpt>
      <trkpt lat="45.70859" lon="6.75154">
        <ele>1597.6</ele>
        <time>2023-08-21T10:13:20Z</time>
      </trkpt>
      <trkpt lat="45.70861" lon="6.75155">
        <ele>1598</ele>
        <time>2023-08-21T10:13:21Z</time>
      </trkpt>
      <trkpt lat="45.70863" lon="6.75156">
        <ele>1598</ele>
        <time>2023-08-21T10:13:22Z</time>
      </trkpt>
      <trkpt lat="45.70865" lon="6.75157">
        <ele>1598.2</ele>
        <time>2023-08-21T10:13:23Z</time>
      </trkpt>
      <trkpt lat="45.70867" lon="6.75158">
        <ele>1598.2</ele>
        <time>2023-08-21T10:13:24Z</time>
      </trkpt>
      <trkpt lat="45.7087" lon="6.75159">
        <ele>1598</ele>
        <time>2023-08-21T10:13:25Z</time>
      </trkpt>
      <trkpt lat="45.70872" lon="6.7516">
        <ele>1598</ele>
        <time>2023-08-21T10:13:26Z</time>
      </trkpt>
      <trkpt lat="45.70875" lon="6.75161">
        <ele>1598</ele>
        <time>2023-08-21T10:13:27Z</time>
      </trkpt>
      <trkpt lat="45.70877" lon="6.75162">
        <ele>1598</ele>
        <time>2023-08-21T10:13:28Z</time>
      </trkpt>
      <trkpt lat="45.70879" lon="6.75163">
        <ele>1598</ele>
        <time>2023-08-21T10:13:29Z</time>
      </trkpt>
      <trkpt lat="45.70881" lon="6.75164">
        <ele>1598</ele>
        <time>2023-08-21T10:13:30Z</time>
      </trkpt>
      <trkpt lat="45.70883" lon="6.75165">
        <ele>1598.4</ele>
        <time>2023-08-21T10:13:31Z</time>
      </trkpt>
      <trkpt lat="45.70885" lon="6.75167">
        <ele>1598.8</ele>
        <time>2023-08-21T10:13:32Z</time>
      </trkpt>
      <trkpt lat="45.70888" lon="6.75168">
        <ele>1598.8</ele>
        <time>2023-08-21T10:13:33Z</time>
      </trkpt>
      <trkpt lat="45.7089" lon="6.7517">
        <ele>1598.8</ele>
        <time>2023-08-21T10:13:34Z</time>
      </trkpt>
      <trkpt lat="45.70892" lon="6.75172">
        <ele>1598.8</ele>
        <time>2023-08-21T10:13:35Z</time>
      </trkpt>
      <trkpt lat="45.70894" lon="6.75173">
        <ele>1599.2</ele>
        <time>2023-08-21T10:13:36Z</time>
      </trkpt>
      <trkpt lat="45.70895" lon="6.75175">
        <ele>1599.2</ele>
        <time>2023-08-21T10:13:37Z</time>
      </trkpt>
      <trkpt lat="45.70897" lon="6.75176">
        <ele>1599.2</ele>
        <time>2023-08-21T10:13:38Z</time>
      </trkpt>
      <trkpt lat="45.70898" lon="6.75177">
        <ele>1599.2</ele>
        <time>2023-08-21T10:13:39Z</time>
      </trkpt>
      <trkpt lat="45.709" lon="6.75178">
        <ele>1599.8</ele>
        <time>2023-08-21T10:13:40Z</time>
      </trkpt>
      <trkpt lat="45.70901" lon="6.7518">
        <ele>1600</ele>
        <time>2023-08-21T10:13:41Z</time>
      </trkpt>
      <trkpt lat="45.70903" lon="6.75181">
        <ele>1600</ele>
        <time>2023-08-21T10:13:42Z</time>
      </trkpt>
      <trkpt lat="45.70905" lon="6.75182">
        <ele>1600</ele>
        <time>2023-08-21T10:13:43Z</time>
      </trkpt>
      <trkpt lat="45.70906" lon="6.75183">
        <ele>1600.6</ele>
        <time>2023-08-21T10:13:44Z</time>
      </trkpt>
      <trkpt lat="45.70908" lon="6.75184">
        <ele>1600.8</ele>
        <time>2023-08-21T10:13:45Z</time>
      </trkpt>
      <trkpt lat="45.70909" lon="6.75186">
        <ele>1600.8</ele>
        <time>2023-08-21T10:13:46Z</time>
      </trkpt>
      <trkpt lat="45.70911" lon="6.75187">
        <ele>1600.8</ele>
        <time>2023-08-21T10:13:47Z</time>
      </trkpt>
      <trkpt lat="45.70913" lon="6.75188">
        <ele>1600.8</ele>
        <time>2023-08-21T10:13:48Z</time>
      </trkpt>
      <trkpt lat="45.70914" lon="6.75189">
        <ele>1601.4</ele>
        <time>2023-08-21T10:13:49Z</time>
      </trkpt>
      <trkpt lat="45.70916" lon="6.75191">
        <ele>1601.4</ele>
        <time>2023-08-21T10:13:50Z</time>
      </trkpt>
      <trkpt lat="45.70917" lon="6.75193">
        <ele>1601.4</ele>
        <time>2023-08-21T10:13:51Z</time>
      </trkpt>
      <trkpt lat="45.70918" lon="6.75194">
        <ele>1602</ele>
        <time>2023-08-21T10:13:52Z</time>
      </trkpt>
      <trkpt lat="45.7092" lon="6.75196">
        <ele>1602</ele>
        <time>2023-08-21T10:13:53Z</time>
      </trkpt>
      <trkpt lat="45.70921" lon="6.75197">
        <ele>1602</ele>
        <time>2023-08-21T10:13:54Z</time>
      </trkpt>
      <trkpt lat="45.70922" lon="6.75199">
        <ele>1602</ele>
        <time>2023-08-21T10:13:55Z</time>
      </trkpt>
      <trkpt lat="45.70923" lon="6.752">
        <ele>1602</ele>
        <time>2023-08-21T10:13:56Z</time>
      </trkpt>
      <trkpt lat="45.70925" lon="6.75202">
        <ele>1602</ele>
        <time>2023-08-21T10:13:57Z</time>
      </trkpt>
      <trkpt lat="45.70927" lon="6.75204">
        <ele>1602.8</ele>
        <time>2023-08-21T10:13:58Z</time>
      </trkpt>
      <trkpt lat="45.70928" lon="6.75205">
        <ele>1602.8</ele>
        <time>2023-08-21T10:13:59Z</time>
      </trkpt>
      <trkpt lat="45.70929" lon="6.75207">
        <ele>1602.6</ele>
        <time>2023-08-21T10:14:00Z</time>
      </trkpt>
      <trkpt lat="45.70931" lon="6.75208">
        <ele>1602.6</ele>
        <time>2023-08-21T10:14:01Z</time>
      </trkpt>
      <trkpt lat="45.70933" lon="6.7521">
        <ele>1602.6</ele>
        <time>2023-08-21T10:14:02Z</time>
      </trkpt>
      <trkpt lat="45.70934" lon="6.75211">
        <ele>1602.6</ele>
        <time>2023-08-21T10:14:03Z</time>
      </trkpt>
      <trkpt lat="45.70936" lon="6.75212">
        <ele>1603.6</ele>
        <time>2023-08-21T10:14:04Z</time>
      </trkpt>
      <trkpt lat="45.70937" lon="6.75213">
        <ele>1604</ele>
        <time>2023-08-21T10:14:05Z</time>
      </trkpt>
      <trkpt lat="45.70939" lon="6.75215">
        <ele>1604</ele>
        <time>2023-08-21T10:14:06Z</time>
      </trkpt>
      <trkpt lat="45.70941" lon="6.75216">
        <ele>1604</ele>
        <time>2023-08-21T10:14:07Z</time>
      </trkpt>
      <trkpt lat="45.70942" lon="6.75217">
        <ele>1604</ele>
        <time>2023-08-21T10:14:08Z</time>
      </trkpt>
      <trkpt lat="45.70943" lon="6.75218">
        <ele>1604</ele>
        <time>2023-08-21T10:14:09Z</time>
      </trkpt>
      <trkpt lat="45.70945" lon="6.75219">
        <ele>1604.6</ele>
        <time>2023-08-21T10:14:10Z</time>
      </trkpt>
      <trkpt lat="45.70947" lon="6.75219">
        <ele>1604.8</ele>
        <time>2023-08-21T10:14:11Z</time>
      </trkpt>
      <trkpt lat="45.70948" lon="6.7522">
        <ele>1604.8</ele>
        <time>2023-08-21T10:14:12Z</time>
      </trkpt>
      <trkpt lat="45.70949" lon="6.7522">
        <ele>1604.8</ele>
        <time>2023-08-21T10:14:13Z</time>
      </trkpt>
      <trkpt lat="45.70951" lon="6.75221">
        <ele>1604.8</ele>
        <time>2023-08-21T10:14:14Z</time>
      </trkpt>
      <trkpt lat="45.70952" lon="6.75222">
        <ele>1605.8</ele>
        <time>2023-08-21T10:14:15Z</time>
      </trkpt>
      <trkpt lat="45.70954" lon="6.75223">
        <ele>1605.8</ele>
        <time>2023-08-21T10:14:16Z</time>
      </trkpt>
      <trkpt lat="45.70956" lon="6.75225">
        <ele>1605.8</ele>
        <time>2023-08-21T10:14:17Z</time>
      </trkpt>
      <trkpt lat="45.70957" lon="6.75226">
        <ele>1606.8</ele>
        <time>2023-08-21T10:14:18Z</time>
      </trkpt>
      <trkpt lat="45.70958" lon="6.75227">
        <ele>1606.8</ele>
        <time>2023-08-21T10:14:19Z</time>
      </trkpt>
      <trkpt lat="45.70959" lon="6.75229">
        <ele>1606.8</ele>
        <time>2023-08-21T10:14:20Z</time>
      </trkpt>
      <trkpt lat="45.70961" lon="6.7523">
        <ele>1606.8</ele>
        <time>2023-08-21T10:14:21Z</time>
      </trkpt>
      <trkpt lat="45.70962" lon="6.75232">
        <ele>1606.8</ele>
        <time>2023-08-21T10:14:22Z</time>
      </trkpt>
      <trkpt lat="45.70964" lon="6.75234">
        <ele>1606.8</ele>
        <time>2023-08-21T10:14:23Z</time>
      </trkpt>
      <trkpt lat="45.70965" lon="6.75234">
        <ele>1607.4</ele>
        <time>2023-08-21T10:14:24Z</time>
      </trkpt>
      <trkpt lat="45.70966" lon="6.75236">
        <ele>1607.4</ele>
        <time>2023-08-21T10:14:25Z</time>
      </trkpt>
      <trkpt lat="45.70968" lon="6.75237">
        <ele>1607.4</ele>
        <time>2023-08-21T10:14:26Z</time>
      </trkpt>
      <trkpt lat="45.70969" lon="6.75239">
        <ele>1607.4</ele>
        <time>2023-08-21T10:14:27Z</time>
      </trkpt>
      <trkpt lat="45.70971" lon="6.75241">
        <ele>1607.8</ele>
        <time>2023-08-21T10:14:28Z</time>
      </trkpt>
      <trkpt lat="45.70972" lon="6.75243">
        <ele>1607.8</ele>
        <time>2023-08-21T10:14:29Z</time>
      </trkpt>
      <trkpt lat="45.70974" lon="6.75245">
        <ele>1608.4</ele>
        <time>2023-08-21T10:14:30Z</time>
      </trkpt>
      <trkpt lat="45.70975" lon="6.75247">
        <ele>1608.4</ele>
        <time>2023-08-21T10:14:31Z</time>
      </trkpt>
      <trkpt lat="45.70977" lon="6.75248">
        <ele>1608.2</ele>
        <time>2023-08-21T10:14:32Z</time>
      </trkpt>
      <trkpt lat="45.70978" lon="6.75248">
        <ele>1608.6</ele>
        <time>2023-08-21T10:14:33Z</time>
      </trkpt>
      <trkpt lat="45.7098" lon="6.75248">
        <ele>1608.6</ele>
        <time>2023-08-21T10:14:34Z</time>
      </trkpt>
      <trkpt lat="45.70981" lon="6.75248">
        <ele>1608.6</ele>
        <time>2023-08-21T10:14:35Z</time>
      </trkpt>
      <trkpt lat="45.70983" lon="6.75249">
        <ele>1608.6</ele>
        <time>2023-08-21T10:14:36Z</time>
      </trkpt>
      <trkpt lat="45.70985" lon="6.7525">
        <ele>1608.6</ele>
        <time>2023-08-21T10:14:37Z</time>
      </trkpt>
      <trkpt lat="45.70986" lon="6.75251">
        <ele>1609</ele>
        <time>2023-08-21T10:14:38Z</time>
      </trkpt>
      <trkpt lat="45.70988" lon="6.75252">
        <ele>1609</ele>
        <time>2023-08-21T10:14:39Z</time>
      </trkpt>
      <trkpt lat="45.7099" lon="6.75253">
        <ele>1609</ele>
        <time>2023-08-21T10:14:40Z</time>
      </trkpt>
      <trkpt lat="45.70991" lon="6.75254">
        <ele>1609</ele>
        <time>2023-08-21T10:14:41Z</time>
      </trkpt>
      <trkpt lat="45.70993" lon="6.75254">
        <ele>1609</ele>
        <time>2023-08-21T10:14:42Z</time>
      </trkpt>
      <trkpt lat="45.70994" lon="6.75255">
        <ele>1610</ele>
        <time>2023-08-21T10:14:43Z</time>
      </trkpt>
      <trkpt lat="45.70995" lon="6.75255">
        <ele>1610</ele>
        <time>2023-08-21T10:14:44Z</time>
      </trkpt>
      <trkpt lat="45.70995" lon="6.75255">
        <ele>1610</ele>
        <time>2023-08-21T10:14:45Z</time>
      </trkpt>
      <trkpt lat="45.70995" lon="6.75255">
        <ele>1610</ele>
        <time>2023-08-21T10:14:46Z</time>
      </trkpt>
      <trkpt lat="45.71" lon="6.75254">
        <ele>1611</ele>
        <time>2023-08-21T10:16:42Z</time>
      </trkpt>
      <trkpt lat="45.71002" lon="6.75254">
        <ele>1611</ele>
        <time>2023-08-21T10:16:43Z</time>
      </trkpt>
      <trkpt lat="45.71003" lon="6.75253">
        <ele>1611</ele>
        <time>2023-08-21T10:16:44Z</time>
      </trkpt>
      <trkpt lat="45.71006" lon="6.75253">
        <ele>1611</ele>
        <time>2023-08-21T10:16:45Z</time>
      </trkpt>
      <trkpt lat="45.71008" lon="6.75253">
        <ele>1611</ele>
        <time>2023-08-21T10:16:46Z</time>
      </trkpt>
      <trkpt lat="45.7101" lon="6.75254">
        <ele>1611</ele>
        <time>2023-08-21T10:16:47Z</time>
      </trkpt>
      <trkpt lat="45.71012" lon="6.75254">
        <ele>1611</ele>
        <time>2023-08-21T10:16:48Z</time>
      </trkpt>
      <trkpt lat="45.71015" lon="6.75254">
        <ele>1611</ele>
        <time>2023-08-21T10:16:49Z</time>
      </trkpt>
      <trkpt lat="45.71016" lon="6.75255">
        <ele>1611</ele>
        <time>2023-08-21T10:16:50Z</time>
      </trkpt>
      <trkpt lat="45.71018" lon="6.75255">
        <ele>1611</ele>
        <time>2023-08-21T10:16:51Z</time>
      </trkpt>
      <trkpt lat="45.7102" lon="6.75256">
        <ele>1611</ele>
        <time>2023-08-21T10:16:52Z</time>
      </trkpt>
      <trkpt lat="45.71022" lon="6.75257">
        <ele>1611</ele>
        <time>2023-08-21T10:16:53Z</time>
      </trkpt>
      <trkpt lat="45.71024" lon="6.75258">
        <ele>1611.4</ele>
        <time>2023-08-21T10:16:54Z</time>
      </trkpt>
      <trkpt lat="45.71026" lon="6.75259">
        <ele>1611.4</ele>
        <time>2023-08-21T10:16:55Z</time>
      </trkpt>
      <trkpt lat="45.71028" lon="6.7526">
        <ele>1611.4</ele>
        <time>2023-08-21T10:16:56Z</time>
      </trkpt>
      <trkpt lat="45.7103" lon="6.75262">
        <ele>1611.4</ele>
        <time>2023-08-21T10:16:57Z</time>
      </trkpt>
      <trkpt lat="45.71032" lon="6.75262">
        <ele>1612</ele>
        <time>2023-08-21T10:16:58Z</time>
      </trkpt>
      <trkpt lat="45.71034" lon="6.75263">
        <ele>1612</ele>
        <time>2023-08-21T10:16:59Z</time>
      </trkpt>
      <trkpt lat="45.71035" lon="6.75264">
        <ele>1612</ele>
        <time>2023-08-21T10:17:00Z</time>
      </trkpt>
      <trkpt lat="45.71037" lon="6.75265">
        <ele>1612</ele>
        <time>2023-08-21T10:17:01Z</time>
      </trkpt>
      <trkpt lat="45.71038" lon="6.75266">
        <ele>1612</ele>
        <time>2023-08-21T10:17:02Z</time>
      </trkpt>
      <trkpt lat="45.7104" lon="6.75267">
        <ele>1612.6</ele>
        <time>2023-08-21T10:17:03Z</time>
      </trkpt>
      <trkpt lat="45.71041" lon="6.75268">
        <ele>1612.6</ele>
        <time>2023-08-21T10:17:04Z</time>
      </trkpt>
      <trkpt lat="45.71043" lon="6.75268">
        <ele>1612.6</ele>
        <time>2023-08-21T10:17:05Z</time>
      </trkpt>
      <trkpt lat="45.71044" lon="6.75269">
        <ele>1613</ele>
        <time>2023-08-21T10:17:06Z</time>
      </trkpt>
      <trkpt lat="45.71046" lon="6.75269">
        <ele>1613.2</ele>
        <time>2023-08-21T10:17:07Z</time>
      </trkpt>
      <trkpt lat="45.71048" lon="6.7527">
        <ele>1613.2</ele>
        <time>2023-08-21T10:17:08Z</time>
      </trkpt>
      <trkpt lat="45.71049" lon="6.75271">
        <ele>1613.2</ele>
        <time>2023-08-21T10:17:09Z</time>
      </trkpt>
      <trkpt lat="45.71051" lon="6.75272">
        <ele>1613.2</ele>
        <time>2023-08-21T10:17:10Z</time>
      </trkpt>
      <trkpt lat="45.71052" lon="6.75273">
        <ele>1613.4</ele>
        <time>2023-08-21T10:17:11Z</time>
      </trkpt>
      <trkpt lat="45.71053" lon="6.75274">
        <ele>1613.4</ele>
        <time>2023-08-21T10:17:12Z</time>
      </trkpt>
      <trkpt lat="45.71053" lon="6.75275">
        <ele>1613.4</ele>
        <time>2023-08-21T10:17:13Z</time>
      </trkpt>
      <trkpt lat="45.71055" lon="6.75275">
        <ele>1613.4</ele>
        <time>2023-08-21T10:17:14Z</time>
      </trkpt>
      <trkpt lat="45.71057" lon="6.75276">
        <ele>1613.4</ele>
        <time>2023-08-21T10:17:15Z</time>
      </trkpt>
      <trkpt lat="45.71059" lon="6.75276">
        <ele>1614</ele>
        <time>2023-08-21T10:17:16Z</time>
      </trkpt>
      <trkpt lat="45.71061" lon="6.75277">
        <ele>1613.8</ele>
        <time>2023-08-21T10:17:17Z</time>
      </trkpt>
      <trkpt lat="45.71063" lon="6.75278">
        <ele>1613.8</ele>
        <time>2023-08-21T10:17:18Z</time>
      </trkpt>
      <trkpt lat="45.71066" lon="6.75279">
        <ele>1613.8</ele>
        <time>2023-08-21T10:17:19Z</time>
      </trkpt>
      <trkpt lat="45.71068" lon="6.7528">
        <ele>1614.2</ele>
        <time>2023-08-21T10:17:20Z</time>
      </trkpt>
      <trkpt lat="45.7107" lon="6.75281">
        <ele>1614.2</ele>
        <time>2023-08-21T10:17:21Z</time>
      </trkpt>
      <trkpt lat="45.71071" lon="6.75282">
        <ele>1614.6</ele>
        <time>2023-08-21T10:17:22Z</time>
      </trkpt>
      <trkpt lat="45.71073" lon="6.75283">
        <ele>1614.6</ele>
        <time>2023-08-21T10:17:23Z</time>
      </trkpt>
      <trkpt lat="45.71075" lon="6.75284">
        <ele>1614.6</ele>
        <time>2023-08-21T10:17:24Z</time>
      </trkpt>
      <trkpt lat="45.71078" lon="6.75284">
        <ele>1615</ele>
        <time>2023-08-21T10:17:25Z</time>
      </trkpt>
      <trkpt lat="45.7108" lon="6.75284">
        <ele>1614.8</ele>
        <time>2023-08-21T10:17:26Z</time>
      </trkpt>
      <trkpt lat="45.71081" lon="6.75284">
        <ele>1614.8</ele>
        <time>2023-08-21T10:17:27Z</time>
      </trkpt>
      <trkpt lat="45.71083" lon="6.75284">
        <ele>1614.8</ele>
        <time>2023-08-21T10:17:28Z</time>
      </trkpt>
      <trkpt lat="45.71085" lon="6.75284">
        <ele>1614.8</ele>
        <time>2023-08-21T10:17:29Z</time>
      </trkpt>
      <trkpt lat="45.71087" lon="6.75284">
        <ele>1615.8</ele>
        <time>2023-08-21T10:17:30Z</time>
      </trkpt>
      <trkpt lat="45.71089" lon="6.75284">
        <ele>1615.4</ele>
        <time>2023-08-21T10:17:31Z</time>
      </trkpt>
      <trkpt lat="45.71091" lon="6.75284">
        <ele>1615.4</ele>
        <time>2023-08-21T10:17:32Z</time>
      </trkpt>
      <trkpt lat="45.71093" lon="6.75283">
        <ele>1615.4</ele>
        <time>2023-08-21T10:17:33Z</time>
      </trkpt>
      <trkpt lat="45.71095" lon="6.75282">
        <ele>1616</ele>
        <time>2023-08-21T10:17:34Z</time>
      </trkpt>
      <trkpt lat="45.71097" lon="6.75282">
        <ele>1616</ele>
        <time>2023-08-21T10:17:35Z</time>
      </trkpt>
      <trkpt lat="45.71099" lon="6.75281">
        <ele>1616.2</ele>
        <time>2023-08-21T10:17:36Z</time>
      </trkpt>
      <trkpt lat="45.71101" lon="6.7528">
        <ele>1616.2</ele>
        <time>2023-08-21T10:17:37Z</time>
      </trkpt>
      <trkpt lat="45.71103" lon="6.75279">
        <ele>1616.2</ele>
        <time>2023-08-21T10:17:38Z</time>
      </trkpt>
      <trkpt lat="45.71105" lon="6.75279">
        <ele>1616.8</ele>
        <time>2023-08-21T10:17:39Z</time>
      </trkpt>
      <trkpt lat="45.71106" lon="6.75279">
        <ele>1616.8</ele>
        <time>2023-08-21T10:17:40Z</time>
      </trkpt>
      <trkpt lat="45.71108" lon="6.75279">
        <ele>1616.8</ele>
        <time>2023-08-21T10:17:41Z</time>
      </trkpt>
      <trkpt lat="45.7111" lon="6.75279">
        <ele>1616.8</ele>
        <time>2023-08-21T10:17:42Z</time>
      </trkpt>
      <trkpt lat="45.71112" lon="6.75279">
        <ele>1617.2</ele>
        <time>2023-08-21T10:17:43Z</time>
      </trkpt>
      <trkpt lat="45.71113" lon="6.75279">
        <ele>1617.2</ele>
        <time>2023-08-21T10:17:44Z</time>
      </trkpt>
      <trkpt lat="45.71115" lon="6.7528">
        <ele>1617.2</ele>
        <time>2023-08-21T10:17:45Z</time>
      </trkpt>
      <trkpt lat="45.71116" lon="6.75281">
        <ele>1617.2</ele>
        <time>2023-08-21T10:17:46Z</time>
      </trkpt>
      <trkpt lat="45.71117" lon="6.75282">
        <ele>1617.2</ele>
        <time>2023-08-21T10:17:47Z</time>
      </trkpt>
      <trkpt lat="45.71119" lon="6.75282">
        <ele>1617.8</ele>
        <time>2023-08-21T10:17:48Z</time>
      </trkpt>
      <trkpt lat="45.7112" lon="6.75283">
        <ele>1618</ele>
        <time>2023-08-21T10:17:49Z</time>
      </trkpt>
      <trkpt lat="45.71122" lon="6.75283">
        <ele>1618</ele>
        <time>2023-08-21T10:17:50Z</time>
      </trkpt>
      <trkpt lat="45.71123" lon="6.75285">
        <ele>1618</ele>
        <time>2023-08-21T10:17:51Z</time>
      </trkpt>
      <trkpt lat="45.71124" lon="6.75285">
        <ele>1618</ele>
        <time>2023-08-21T10:17:52Z</time>
      </trkpt>
      <trkpt lat="45.71126" lon="6.75286">
        <ele>1618.4</ele>
        <time>2023-08-21T10:17:53Z</time>
      </trkpt>
      <trkpt lat="45.71128" lon="6.75286">
        <ele>1618.6</ele>
        <time>2023-08-21T10:17:54Z</time>
      </trkpt>
      <trkpt lat="45.71129" lon="6.75288">
        <ele>1618.6</ele>
        <time>2023-08-21T10:17:55Z</time>
      </trkpt>
      <trkpt lat="45.7113" lon="6.75289">
        <ele>1618.6</ele>
        <time>2023-08-21T10:17:56Z</time>
      </trkpt>
      <trkpt lat="45.71132" lon="6.7529">
        <ele>1619.2</ele>
        <time>2023-08-21T10:17:57Z</time>
      </trkpt>
      <trkpt lat="45.71133" lon="6.75291">
        <ele>1619.2</ele>
        <time>2023-08-21T10:17:58Z</time>
      </trkpt>
      <trkpt lat="45.71135" lon="6.75292">
        <ele>1619.6</ele>
        <time>2023-08-21T10:17:59Z</time>
      </trkpt>
      <trkpt lat="45.71136" lon="6.75292">
        <ele>1619.6</ele>
        <time>2023-08-21T10:18:00Z</time>
      </trkpt>
      <trkpt lat="45.71137" lon="6.75292">
        <ele>1619.6</ele>
        <time>2023-08-21T10:18:01Z</time>
      </trkpt>
      <trkpt lat="45.71139" lon="6.75292">
        <ele>1619.6</ele>
        <time>2023-08-21T10:18:02Z</time>
      </trkpt>
      <trkpt lat="45.7114" lon="6.75292">
        <ele>1620</ele>
        <time>2023-08-21T10:18:03Z</time>
      </trkpt>
      <trkpt lat="45.71142" lon="6.75292">
        <ele>1620.2</ele>
        <time>2023-08-21T10:18:04Z</time>
      </trkpt>
      <trkpt lat="45.71143" lon="6.75292">
        <ele>1620.2</ele>
        <time>2023-08-21T10:18:05Z</time>
      </trkpt>
      <trkpt lat="45.71145" lon="6.75293">
        <ele>1620.2</ele>
        <time>2023-08-21T10:18:06Z</time>
      </trkpt>
      <trkpt lat="45.71146" lon="6.75294">
        <ele>1620.6</ele>
        <time>2023-08-21T10:18:07Z</time>
      </trkpt>
      <trkpt lat="45.71148" lon="6.75295">
        <ele>1620.6</ele>
        <time>2023-08-21T10:18:08Z</time>
      </trkpt>
      <trkpt lat="45.71149" lon="6.75296">
        <ele>1620.6</ele>
        <time>2023-08-21T10:18:09Z</time>
      </trkpt>
      <trkpt lat="45.7115" lon="6.75297">
        <ele>1620.6</ele>
        <time>2023-08-21T10:18:10Z</time>
      </trkpt>
      <trkpt lat="45.71152" lon="6.75298">
        <ele>1621</ele>
        <time>2023-08-21T10:18:11Z</time>
      </trkpt>
      <trkpt lat="45.71153" lon="6.75299">
        <ele>1621</ele>
        <time>2023-08-21T10:18:12Z</time>
      </trkpt>
      <trkpt lat="45.71155" lon="6.75299">
        <ele>1621.2</ele>
        <time>2023-08-21T10:18:13Z</time>
      </trkpt>
      <trkpt lat="45.71156" lon="6.753">
        <ele>1621.2</ele>
        <time>2023-08-21T10:18:14Z</time>
      </trkpt>
      <trkpt lat="45.71158" lon="6.75301">
        <ele>1621.2</ele>
        <time>2023-08-21T10:18:15Z</time>
      </trkpt>
      <trkpt lat="45.71159" lon="6.75302">
        <ele>1621.4</ele>
        <time>2023-08-21T10:18:16Z</time>
      </trkpt>
      <trkpt lat="45.7116" lon="6.75303">
        <ele>1621.8</ele>
        <time>2023-08-21T10:18:17Z</time>
      </trkpt>
      <trkpt lat="45.71161" lon="6.75304">
        <ele>1621.8</ele>
        <time>2023-08-21T10:18:18Z</time>
      </trkpt>
      <trkpt lat="45.71161" lon="6.75305">
        <ele>1621.8</ele>
        <time>2023-08-21T10:18:19Z</time>
      </trkpt>
      <trkpt lat="45.71162" lon="6.75306">
        <ele>1622.2</ele>
        <time>2023-08-21T10:18:20Z</time>
      </trkpt>
      <trkpt lat="45.71163" lon="6.75308">
        <ele>1622.2</ele>
        <time>2023-08-21T10:18:21Z</time>
      </trkpt>
      <trkpt lat="45.71165" lon="6.75309">
        <ele>1622.2</ele>
        <time>2023-08-21T10:18:22Z</time>
      </trkpt>
      <trkpt lat="45.71166" lon="6.7531">
        <ele>1622.2</ele>
        <time>2023-08-21T10:18:23Z</time>
      </trkpt>
      <trkpt lat="45.71167" lon="6.75311">
        <ele>1622.8</ele>
        <time>2023-08-21T10:18:24Z</time>
      </trkpt>
      <trkpt lat="45.71168" lon="6.75312">
        <ele>1622.8</ele>
        <time>2023-08-21T10:18:25Z</time>
      </trkpt>
      <trkpt lat="45.71169" lon="6.75313">
        <ele>1623.2</ele>
        <time>2023-08-21T10:18:26Z</time>
      </trkpt>
      <trkpt lat="45.7117" lon="6.75315">
        <ele>1623.2</ele>
        <time>2023-08-21T10:18:27Z</time>
      </trkpt>
      <trkpt lat="45.71172" lon="6.75316">
        <ele>1623.2</ele>
        <time>2023-08-21T10:18:28Z</time>
      </trkpt>
      <trkpt lat="45.71173" lon="6.75317">
        <ele>1623.6</ele>
        <time>2023-08-21T10:18:29Z</time>
      </trkpt>
      <trkpt lat="45.71174" lon="6.75317">
        <ele>1623.6</ele>
        <time>2023-08-21T10:18:30Z</time>
      </trkpt>
      <trkpt lat="45.71175" lon="6.75319">
        <ele>1624</ele>
        <time>2023-08-21T10:18:31Z</time>
      </trkpt>
      <trkpt lat="45.71176" lon="6.7532">
        <ele>1624</ele>
        <time>2023-08-21T10:18:32Z</time>
      </trkpt>
      <trkpt lat="45.71177" lon="6.75321">
        <ele>1624</ele>
        <time>2023-08-21T10:18:33Z</time>
      </trkpt>
      <trkpt lat="45.71178" lon="6.75322">
        <ele>1624.8</ele>
        <time>2023-08-21T10:18:34Z</time>
      </trkpt>
      <trkpt lat="45.71179" lon="6.75322">
        <ele>1624.8</ele>
        <time>2023-08-21T10:18:35Z</time>
      </trkpt>
      <trkpt lat="45.7118" lon="6.75323">
        <ele>1624.8</ele>
        <time>2023-08-21T10:18:36Z</time>
      </trkpt>
      <trkpt lat="45.71181" lon="6.75324">
        <ele>1624.8</ele>
        <time>2023-08-21T10:18:37Z</time>
      </trkpt>
      <trkpt lat="45.71182" lon="6.75326">
        <ele>1625.2</ele>
        <time>2023-08-21T10:18:38Z</time>
      </trkpt>
      <trkpt lat="45.71183" lon="6.75327">
        <ele>1625.2</ele>
        <time>2023-08-21T10:18:39Z</time>
      </trkpt>
      <trkpt lat="45.71184" lon="6.75329">
        <ele>1625.2</ele>
        <time>2023-08-21T10:18:40Z</time>
      </trkpt>
      <trkpt lat="45.71186" lon="6.75331">
        <ele>1625.2</ele>
        <time>2023-08-21T10:18:41Z</time>
      </trkpt>
      <trkpt lat="45.71187" lon="6.75332">
        <ele>1625.2</ele>
        <time>2023-08-21T10:18:42Z</time>
      </trkpt>
      <trkpt lat="45.71188" lon="6.75334">
        <ele>1625.2</ele>
        <time>2023-08-21T10:18:43Z</time>
      </trkpt>
      <trkpt lat="45.71189" lon="6.75335">
        <ele>1625.8</ele>
        <time>2023-08-21T10:18:44Z</time>
      </trkpt>
      <trkpt lat="45.71191" lon="6.75336">
        <ele>1626.2</ele>
        <time>2023-08-21T10:18:45Z</time>
      </trkpt>
      <trkpt lat="45.71192" lon="6.75337">
        <ele>1626.2</ele>
        <time>2023-08-21T10:18:46Z</time>
      </trkpt>
      <trkpt lat="45.71193" lon="6.75339">
        <ele>1626.2</ele>
        <time>2023-08-21T10:18:47Z</time>
      </trkpt>
      <trkpt lat="45.71194" lon="6.7534">
        <ele>1626.2</ele>
        <time>2023-08-21T10:18:48Z</time>
      </trkpt>
      <trkpt lat="45.71196" lon="6.75342">
        <ele>1626.8</ele>
        <time>2023-08-21T10:18:49Z</time>
      </trkpt>
      <trkpt lat="45.71197" lon="6.75344">
        <ele>1626.8</ele>
        <time>2023-08-21T10:18:50Z</time>
      </trkpt>
      <trkpt lat="45.71198" lon="6.75345">
        <ele>1626.8</ele>
        <time>2023-08-21T10:18:51Z</time>
      </trkpt>
      <trkpt lat="45.71199" lon="6.75346">
        <ele>1627.4</ele>
        <time>2023-08-21T10:18:52Z</time>
      </trkpt>
      <trkpt lat="45.71201" lon="6.75348">
        <ele>1627.4</ele>
        <time>2023-08-21T10:18:53Z</time>
      </trkpt>
      <trkpt lat="45.71202" lon="6.75349">
        <ele>1627.4</ele>
        <time>2023-08-21T10:18:54Z</time>
      </trkpt>
      <trkpt lat="45.71203" lon="6.7535">
        <ele>1627.4</ele>
        <time>2023-08-21T10:18:55Z</time>
      </trkpt>
      <trkpt lat="45.71204" lon="6.75352">
        <ele>1627.4</ele>
        <time>2023-08-21T10:18:56Z</time>
      </trkpt>
      <trkpt lat="45.71205" lon="6.75353">
        <ele>1627.8</ele>
        <time>2023-08-21T10:18:57Z</time>
      </trkpt>
      <trkpt lat="45.71206" lon="6.75354">
        <ele>1628</ele>
        <time>2023-08-21T10:18:58Z</time>
      </trkpt>
      <trkpt lat="45.71208" lon="6.75356">
        <ele>1628</ele>
        <time>2023-08-21T10:18:59Z</time>
      </trkpt>
      <trkpt lat="45.71209" lon="6.75357">
        <ele>1628</ele>
        <time>2023-08-21T10:19:00Z</time>
      </trkpt>
      <trkpt lat="45.7121" lon="6.75358">
        <ele>1628</ele>
        <time>2023-08-21T10:19:01Z</time>
      </trkpt>
      <trkpt lat="45.71211" lon="6.75358">
        <ele>1628.4</ele>
        <time>2023-08-21T10:19:02Z</time>
      </trkpt>
      <trkpt lat="45.71213" lon="6.75359">
        <ele>1628.6</ele>
        <time>2023-08-21T10:19:03Z</time>
      </trkpt>
      <trkpt lat="45.71214" lon="6.7536">
        <ele>1628.6</ele>
        <time>2023-08-21T10:19:04Z</time>
      </trkpt>
      <trkpt lat="45.71216" lon="6.75361">
        <ele>1628.6</ele>
        <time>2023-08-21T10:19:05Z</time>
      </trkpt>
      <trkpt lat="45.71217" lon="6.75363">
        <ele>1628.6</ele>
        <time>2023-08-21T10:19:06Z</time>
      </trkpt>
      <trkpt lat="45.71219" lon="6.75364">
        <ele>1629</ele>
        <time>2023-08-21T10:19:07Z</time>
      </trkpt>
      <trkpt lat="45.7122" lon="6.75365">
        <ele>1629</ele>
        <time>2023-08-21T10:19:08Z</time>
      </trkpt>
      <trkpt lat="45.71221" lon="6.75367">
        <ele>1629</ele>
        <time>2023-08-21T10:19:09Z</time>
      </trkpt>
      <trkpt lat="45.71222" lon="6.75368">
        <ele>1629</ele>
        <time>2023-08-21T10:19:10Z</time>
      </trkpt>
      <trkpt lat="45.71224" lon="6.75369">
        <ele>1629.6</ele>
        <time>2023-08-21T10:19:11Z</time>
      </trkpt>
      <trkpt lat="45.71225" lon="6.7537">
        <ele>1629.6</ele>
        <time>2023-08-21T10:19:12Z</time>
      </trkpt>
      <trkpt lat="45.71227" lon="6.75371">
        <ele>1629.6</ele>
        <time>2023-08-21T10:19:13Z</time>
      </trkpt>
      <trkpt lat="45.71229" lon="6.75372">
        <ele>1629.6</ele>
        <time>2023-08-21T10:19:14Z</time>
      </trkpt>
      <trkpt lat="45.7123" lon="6.75372">
        <ele>1629.6</ele>
        <time>2023-08-21T10:19:15Z</time>
      </trkpt>
      <trkpt lat="45.71231" lon="6.75373">
        <ele>1630.2</ele>
        <time>2023-08-21T10:19:16Z</time>
      </trkpt>
      <trkpt lat="45.71232" lon="6.75374">
        <ele>1630.6</ele>
        <time>2023-08-21T10:19:17Z</time>
      </trkpt>
      <trkpt lat="45.71233" lon="6.75375">
        <ele>1630.6</ele>
        <time>2023-08-21T10:19:18Z</time>
      </trkpt>
      <trkpt lat="45.71235" lon="6.75376">
        <ele>1630.6</ele>
        <time>2023-08-21T10:19:19Z</time>
      </trkpt>
      <trkpt lat="45.71236" lon="6.75377">
        <ele>1630.6</ele>
        <time>2023-08-21T10:19:20Z</time>
      </trkpt>
      <trkpt lat="45.71237" lon="6.75378">
        <ele>1630.6</ele>
        <time>2023-08-21T10:19:21Z</time>
      </trkpt>
      <trkpt lat="45.71238" lon="6.75379">
        <ele>1631.2</ele>
        <time>2023-08-21T10:19:22Z</time>
      </trkpt>
      <trkpt lat="45.7124" lon="6.7538">
        <ele>1631.2</ele>
        <time>2023-08-21T10:19:23Z</time>
      </trkpt>
      <trkpt lat="45.71241" lon="6.75382">
        <ele>1631.2</ele>
        <time>2023-08-21T10:19:24Z</time>
      </trkpt>
      <trkpt lat="45.71243" lon="6.75384">
        <ele>1631.6</ele>
        <time>2023-08-21T10:19:25Z</time>
      </trkpt>
      <trkpt lat="45.71244" lon="6.75385">
        <ele>1631.6</ele>
        <time>2023-08-21T10:19:26Z</time>
      </trkpt>
      <trkpt lat="45.71246" lon="6.75386">
        <ele>1632</ele>
        <time>2023-08-21T10:19:27Z</time>
      </trkpt>
      <trkpt lat="45.71247" lon="6.75388">
        <ele>1632</ele>
        <time>2023-08-21T10:19:28Z</time>
      </trkpt>
      <trkpt lat="45.71249" lon="6.75389">
        <ele>1632.6</ele>
        <time>2023-08-21T10:19:29Z</time>
      </trkpt>
      <trkpt lat="45.7125" lon="6.75391">
        <ele>1632.8</ele>
        <time>2023-08-21T10:19:30Z</time>
      </trkpt>
      <trkpt lat="45.71251" lon="6.75393">
        <ele>1632.8</ele>
        <time>2023-08-21T10:19:31Z</time>
      </trkpt>
      <trkpt lat="45.71252" lon="6.75394">
        <ele>1632.8</ele>
        <time>2023-08-21T10:19:32Z</time>
      </trkpt>
      <trkpt lat="45.71253" lon="6.75396">
        <ele>1633</ele>
        <time>2023-08-21T10:19:33Z</time>
      </trkpt>
      <trkpt lat="45.71254" lon="6.75398">
        <ele>1633</ele>
        <time>2023-08-21T10:19:34Z</time>
      </trkpt>
      <trkpt lat="45.71255" lon="6.75399">
        <ele>1633</ele>
        <time>2023-08-21T10:19:35Z</time>
      </trkpt>
      <trkpt lat="45.71255" lon="6.75401">
        <ele>1633.4</ele>
        <time>2023-08-21T10:19:36Z</time>
      </trkpt>
      <trkpt lat="45.71257" lon="6.75402">
        <ele>1633.4</ele>
        <time>2023-08-21T10:19:37Z</time>
      </trkpt>
      <trkpt lat="45.71258" lon="6.75404">
        <ele>1633.4</ele>
        <time>2023-08-21T10:19:38Z</time>
      </trkpt>
      <trkpt lat="45.71259" lon="6.75406">
        <ele>1634.2</ele>
        <time>2023-08-21T10:19:39Z</time>
      </trkpt>
      <trkpt lat="45.71261" lon="6.75408">
        <ele>1634.4</ele>
        <time>2023-08-21T10:19:40Z</time>
      </trkpt>
      <trkpt lat="45.71262" lon="6.75409">
        <ele>1634.4</ele>
        <time>2023-08-21T10:19:41Z</time>
      </trkpt>
      <trkpt lat="45.71262" lon="6.75411">
        <ele>1634.4</ele>
        <time>2023-08-21T10:19:42Z</time>
      </trkpt>
      <trkpt lat="45.71264" lon="6.75414">
        <ele>1634.8</ele>
        <time>2023-08-21T10:19:43Z</time>
      </trkpt>
      <trkpt lat="45.71265" lon="6.75415">
        <ele>1634.8</ele>
        <time>2023-08-21T10:19:44Z</time>
      </trkpt>
      <trkpt lat="45.71265" lon="6.75417">
        <ele>1634.8</ele>
        <time>2023-08-21T10:19:45Z</time>
      </trkpt>
      <trkpt lat="45.71266" lon="6.75418">
        <ele>1634.8</ele>
        <time>2023-08-21T10:19:46Z</time>
      </trkpt>
      <trkpt lat="45.71267" lon="6.7542">
        <ele>1634.8</ele>
        <time>2023-08-21T10:19:47Z</time>
      </trkpt>
      <trkpt lat="45.71268" lon="6.75422">
        <ele>1635</ele>
        <time>2023-08-21T10:19:48Z</time>
      </trkpt>
      <trkpt lat="45.71269" lon="6.75424">
        <ele>1635.4</ele>
        <time>2023-08-21T10:19:49Z</time>
      </trkpt>
      <trkpt lat="45.71271" lon="6.75426">
        <ele>1635.4</ele>
        <time>2023-08-21T10:19:50Z</time>
      </trkpt>
      <trkpt lat="45.71272" lon="6.75428">
        <ele>1635.4</ele>
        <time>2023-08-21T10:19:51Z</time>
      </trkpt>
      <trkpt lat="45.71273" lon="6.7543">
        <ele>1635.4</ele>
        <time>2023-08-21T10:19:52Z</time>
      </trkpt>
      <trkpt lat="45.71275" lon="6.75432">
        <ele>1635.8</ele>
        <time>2023-08-21T10:19:53Z</time>
      </trkpt>
      <trkpt lat="45.71276" lon="6.75434">
        <ele>1635.8</ele>
        <time>2023-08-21T10:19:54Z</time>
      </trkpt>
      <trkpt lat="45.71277" lon="6.75436">
        <ele>1636.2</ele>
        <time>2023-08-21T10:19:55Z</time>
      </trkpt>
      <trkpt lat="45.71278" lon="6.75438">
        <ele>1636.2</ele>
        <time>2023-08-21T10:19:56Z</time>
      </trkpt>
      <trkpt lat="45.7128" lon="6.7544">
        <ele>1636.6</ele>
        <time>2023-08-21T10:19:57Z</time>
      </trkpt>
      <trkpt lat="45.71281" lon="6.75441">
        <ele>1636.8</ele>
        <time>2023-08-21T10:19:58Z</time>
      </trkpt>
      <trkpt lat="45.71282" lon="6.75443">
        <ele>1636.8</ele>
        <time>2023-08-21T10:19:59Z</time>
      </trkpt>
      <trkpt lat="45.71284" lon="6.75444">
        <ele>1636.8</ele>
        <time>2023-08-21T10:20:00Z</time>
      </trkpt>
      <trkpt lat="45.71285" lon="6.75446">
        <ele>1636.8</ele>
        <time>2023-08-21T10:20:01Z</time>
      </trkpt>
      <trkpt lat="45.71287" lon="6.75448">
        <ele>1637</ele>
        <time>2023-08-21T10:20:02Z</time>
      </trkpt>
      <trkpt lat="45.71289" lon="6.75449">
        <ele>1637</ele>
        <time>2023-08-21T10:20:03Z</time>
      </trkpt>
      <trkpt lat="45.7129" lon="6.75451">
        <ele>1637</ele>
        <time>2023-08-21T10:20:04Z</time>
      </trkpt>
      <trkpt lat="45.71291" lon="6.75452">
        <ele>1637</ele>
        <time>2023-08-21T10:20:05Z</time>
      </trkpt>
      <trkpt lat="45.71293" lon="6.75454">
        <ele>1637.4</ele>
        <time>2023-08-21T10:20:06Z</time>
      </trkpt>
      <trkpt lat="45.71294" lon="6.75455">
        <ele>1637.6</ele>
        <time>2023-08-21T10:20:07Z</time>
      </trkpt>
      <trkpt lat="45.71295" lon="6.75457">
        <ele>1637.6</ele>
        <time>2023-08-21T10:20:08Z</time>
      </trkpt>
      <trkpt lat="45.71297" lon="6.75459">
        <ele>1637.6</ele>
        <time>2023-08-21T10:20:09Z</time>
      </trkpt>
      <trkpt lat="45.71298" lon="6.75461">
        <ele>1637.6</ele>
        <time>2023-08-21T10:20:10Z</time>
      </trkpt>
      <trkpt lat="45.71299" lon="6.75462">
        <ele>1637.8</ele>
        <time>2023-08-21T10:20:11Z</time>
      </trkpt>
      <trkpt lat="45.713" lon="6.75464">
        <ele>1638</ele>
        <time>2023-08-21T10:20:12Z</time>
      </trkpt>
      <trkpt lat="45.71302" lon="6.75465">
        <ele>1638</ele>
        <time>2023-08-21T10:20:13Z</time>
      </trkpt>
      <trkpt lat="45.71303" lon="6.75466">
        <ele>1638</ele>
        <time>2023-08-21T10:20:14Z</time>
      </trkpt>
      <trkpt lat="45.71304" lon="6.75468">
        <ele>1638.2</ele>
        <time>2023-08-21T10:20:15Z</time>
      </trkpt>
      <trkpt lat="45.71306" lon="6.7547">
        <ele>1638.6</ele>
        <time>2023-08-21T10:20:16Z</time>
      </trkpt>
      <trkpt lat="45.71307" lon="6.75471">
        <ele>1638.6</ele>
        <time>2023-08-21T10:20:17Z</time>
      </trkpt>
      <trkpt lat="45.71308" lon="6.75472">
        <ele>1638.6</ele>
        <time>2023-08-21T10:20:18Z</time>
      </trkpt>
      <trkpt lat="45.71309" lon="6.75475">
        <ele>1639.2</ele>
        <time>2023-08-21T10:20:19Z</time>
      </trkpt>
      <trkpt lat="45.7131" lon="6.75476">
        <ele>1639.2</ele>
        <time>2023-08-21T10:20:20Z</time>
      </trkpt>
      <trkpt lat="45.71312" lon="6.75478">
        <ele>1639</ele>
        <time>2023-08-21T10:20:21Z</time>
      </trkpt>
      <trkpt lat="45.71313" lon="6.7548">
        <ele>1639</ele>
        <time>2023-08-21T10:20:22Z</time>
      </trkpt>
      <trkpt lat="45.71315" lon="6.75482">
        <ele>1639</ele>
        <time>2023-08-21T10:20:23Z</time>
      </trkpt>
      <trkpt lat="45.71316" lon="6.75484">
        <ele>1639</ele>
        <time>2023-08-21T10:20:24Z</time>
      </trkpt>
      <trkpt lat="45.71318" lon="6.75485">
        <ele>1639.4</ele>
        <time>2023-08-21T10:20:25Z</time>
      </trkpt>
      <trkpt lat="45.71319" lon="6.75487">
        <ele>1639.8</ele>
        <time>2023-08-21T10:20:26Z</time>
      </trkpt>
      <trkpt lat="45.7132" lon="6.75488">
        <ele>1639.8</ele>
        <time>2023-08-21T10:20:27Z</time>
      </trkpt>
      <trkpt lat="45.71321" lon="6.7549">
        <ele>1639.8</ele>
        <time>2023-08-21T10:20:28Z</time>
      </trkpt>
      <trkpt lat="45.71323" lon="6.75491">
        <ele>1640.4</ele>
        <time>2023-08-21T10:20:29Z</time>
      </trkpt>
      <trkpt lat="45.71324" lon="6.75493">
        <ele>1640.4</ele>
        <time>2023-08-21T10:20:30Z</time>
      </trkpt>
      <trkpt lat="45.71326" lon="6.75495">
        <ele>1640.6</ele>
        <time>2023-08-21T10:20:31Z</time>
      </trkpt>
      <trkpt lat="45.71327" lon="6.75496">
        <ele>1640.6</ele>
        <time>2023-08-21T10:20:32Z</time>
      </trkpt>
      <trkpt lat="45.71329" lon="6.75498">
        <ele>1640.6</ele>
        <time>2023-08-21T10:20:33Z</time>
      </trkpt>
      <trkpt lat="45.7133" lon="6.75499">
        <ele>1640.6</ele>
        <time>2023-08-21T10:20:34Z</time>
      </trkpt>
      <trkpt lat="45.71332" lon="6.755">
        <ele>1641.4</ele>
        <time>2023-08-21T10:20:35Z</time>
      </trkpt>
      <trkpt lat="45.71334" lon="6.75501">
        <ele>1641.4</ele>
        <time>2023-08-21T10:20:36Z</time>
      </trkpt>
      <trkpt lat="45.71336" lon="6.75501">
        <ele>1641.4</ele>
        <time>2023-08-21T10:20:37Z</time>
      </trkpt>
      <trkpt lat="45.71337" lon="6.75502">
        <ele>1641.8</ele>
        <time>2023-08-21T10:20:38Z</time>
      </trkpt>
      <trkpt lat="45.71339" lon="6.75503">
        <ele>1641.8</ele>
        <time>2023-08-21T10:20:39Z</time>
      </trkpt>
      <trkpt lat="45.7134" lon="6.75504">
        <ele>1641.8</ele>
        <time>2023-08-21T10:20:40Z</time>
      </trkpt>
      <trkpt lat="45.71342" lon="6.75505">
        <ele>1641.8</ele>
        <time>2023-08-21T10:20:41Z</time>
      </trkpt>
      <trkpt lat="45.71343" lon="6.75507">
        <ele>1641.8</ele>
        <time>2023-08-21T10:20:42Z</time>
      </trkpt>
      <trkpt lat="45.71344" lon="6.75507">
        <ele>1642.2</ele>
        <time>2023-08-21T10:20:43Z</time>
      </trkpt>
      <trkpt lat="45.71346" lon="6.75508">
        <ele>1642.2</ele>
        <time>2023-08-21T10:20:44Z</time>
      </trkpt>
      <trkpt lat="45.71347" lon="6.75508">
        <ele>1642.2</ele>
        <time>2023-08-21T10:20:45Z</time>
      </trkpt>
      <trkpt lat="45.71349" lon="6.75508">
        <ele>1642.2</ele>
        <time>2023-08-21T10:20:46Z</time>
      </trkpt>
      <trkpt lat="45.7135" lon="6.75508">
        <ele>1642.6</ele>
        <time>2023-08-21T10:20:47Z</time>
      </trkpt>
      <trkpt lat="45.71352" lon="6.75509">
        <ele>1643</ele>
        <time>2023-08-21T10:20:48Z</time>
      </trkpt>
      <trkpt lat="45.71354" lon="6.7551">
        <ele>1643</ele>
        <time>2023-08-21T10:20:49Z</time>
      </trkpt>
      <trkpt lat="45.71355" lon="6.7551">
        <ele>1643</ele>
        <time>2023-08-21T10:20:50Z</time>
      </trkpt>
      <trkpt lat="45.71356" lon="6.75511">
        <ele>1643</ele>
        <time>2023-08-21T10:20:51Z</time>
      </trkpt>
      <trkpt lat="45.71358" lon="6.75512">
        <ele>1643</ele>
        <time>2023-08-21T10:20:52Z</time>
      </trkpt>
      <trkpt lat="45.71359" lon="6.75512">
        <ele>1643.6</ele>
        <time>2023-08-21T10:20:53Z</time>
      </trkpt>
      <trkpt lat="45.71361" lon="6.75512">
        <ele>1643.6</ele>
        <time>2023-08-21T10:20:54Z</time>
      </trkpt>
      <trkpt lat="45.71362" lon="6.75513">
        <ele>1643.6</ele>
        <time>2023-08-21T10:20:55Z</time>
      </trkpt>
      <trkpt lat="45.71363" lon="6.75514">
        <ele>1643.6</ele>
        <time>2023-08-21T10:20:56Z</time>
      </trkpt>
      <trkpt lat="45.71365" lon="6.75515">
        <ele>1644.2</ele>
        <time>2023-08-21T10:20:57Z</time>
      </trkpt>
      <trkpt lat="45.71367" lon="6.75515">
        <ele>1644.2</ele>
        <time>2023-08-21T10:20:58Z</time>
      </trkpt>
      <trkpt lat="45.71369" lon="6.75515">
        <ele>1644.2</ele>
        <time>2023-08-21T10:20:59Z</time>
      </trkpt>
      <trkpt lat="45.71371" lon="6.75515">
        <ele>1644.2</ele>
        <time>2023-08-21T10:21:00Z</time>
      </trkpt>
      <trkpt lat="45.71373" lon="6.75516">
        <ele>1644.2</ele>
        <time>2023-08-21T10:21:01Z</time>
      </trkpt>
      <trkpt lat="45.71374" lon="6.75517">
        <ele>1645</ele>
        <time>2023-08-21T10:21:02Z</time>
      </trkpt>
      <trkpt lat="45.71376" lon="6.75517">
        <ele>1645</ele>
        <time>2023-08-21T10:21:03Z</time>
      </trkpt>
      <trkpt lat="45.71378" lon="6.75518">
        <ele>1645</ele>
        <time>2023-08-21T10:21:04Z</time>
      </trkpt>
      <trkpt lat="45.7138" lon="6.75519">
        <ele>1645</ele>
        <time>2023-08-21T10:21:05Z</time>
      </trkpt>
      <trkpt lat="45.71382" lon="6.75519">
        <ele>1645</ele>
        <time>2023-08-21T10:21:06Z</time>
      </trkpt>
      <trkpt lat="45.71384" lon="6.75519">
        <ele>1645.4</ele>
        <time>2023-08-21T10:21:07Z</time>
      </trkpt>
      <trkpt lat="45.71385" lon="6.7552">
        <ele>1645</ele>
        <time>2023-08-21T10:21:08Z</time>
      </trkpt>
      <trkpt lat="45.71387" lon="6.7552">
        <ele>1645</ele>
        <time>2023-08-21T10:21:09Z</time>
      </trkpt>
      <trkpt lat="45.71389" lon="6.7552">
        <ele>1645.4</ele>
        <time>2023-08-21T10:21:10Z</time>
      </trkpt>
      <trkpt lat="45.7139" lon="6.7552">
        <ele>1645.6</ele>
        <time>2023-08-21T10:21:11Z</time>
      </trkpt>
      <trkpt lat="45.71392" lon="6.75521">
        <ele>1645.6</ele>
        <time>2023-08-21T10:21:12Z</time>
      </trkpt>
      <trkpt lat="45.71393" lon="6.75521">
        <ele>1645.6</ele>
        <time>2023-08-21T10:21:13Z</time>
      </trkpt>
      <trkpt lat="45.71395" lon="6.75522">
        <ele>1645.6</ele>
        <time>2023-08-21T10:21:14Z</time>
      </trkpt>
      <trkpt lat="45.71397" lon="6.75522">
        <ele>1646.6</ele>
        <time>2023-08-21T10:21:15Z</time>
      </trkpt>
      <trkpt lat="45.71399" lon="6.75522">
        <ele>1646.6</ele>
        <time>2023-08-21T10:21:16Z</time>
      </trkpt>
      <trkpt lat="45.714" lon="6.75523">
        <ele>1646.4</ele>
        <time>2023-08-21T10:21:17Z</time>
      </trkpt>
      <trkpt lat="45.71402" lon="6.75523">
        <ele>1646.4</ele>
        <time>2023-08-21T10:21:18Z</time>
      </trkpt>
      <trkpt lat="45.71404" lon="6.75524">
        <ele>1646.4</ele>
        <time>2023-08-21T10:21:19Z</time>
      </trkpt>
      <trkpt lat="45.71405" lon="6.75524">
        <ele>1646.8</ele>
        <time>2023-08-21T10:21:20Z</time>
      </trkpt>
      <trkpt lat="45.71406" lon="6.75524">
        <ele>1647</ele>
        <time>2023-08-21T10:21:21Z</time>
      </trkpt>
      <trkpt lat="45.71408" lon="6.75525">
        <ele>1647</ele>
        <time>2023-08-21T10:21:22Z</time>
      </trkpt>
      <trkpt lat="45.7141" lon="6.75525">
        <ele>1647</ele>
        <time>2023-08-21T10:21:23Z</time>
      </trkpt>
      <trkpt lat="45.71412" lon="6.75526">
        <ele>1647</ele>
        <time>2023-08-21T10:21:24Z</time>
      </trkpt>
      <trkpt lat="45.71413" lon="6.75526">
        <ele>1647.8</ele>
        <time>2023-08-21T10:21:25Z</time>
      </trkpt>
      <trkpt lat="45.71414" lon="6.75527">
        <ele>1647.8</ele>
        <time>2023-08-21T10:21:26Z</time>
      </trkpt>
      <trkpt lat="45.71416" lon="6.75528">
        <ele>1647.8</ele>
        <time>2023-08-21T10:21:27Z</time>
      </trkpt>
      <trkpt lat="45.71417" lon="6.75528">
        <ele>1647.8</ele>
        <time>2023-08-21T10:21:28Z</time>
      </trkpt>
      <trkpt lat="45.71419" lon="6.75528">
        <ele>1648.4</ele>
        <time>2023-08-21T10:21:29Z</time>
      </trkpt>
      <trkpt lat="45.71421" lon="6.75529">
        <ele>1648.4</ele>
        <time>2023-08-21T10:21:30Z</time>
      </trkpt>
      <trkpt lat="45.71423" lon="6.7553">
        <ele>1648.4</ele>
        <time>2023-08-21T10:21:31Z</time>
      </trkpt>
      <trkpt lat="45.71424" lon="6.75531">
        <ele>1648.4</ele>
        <time>2023-08-21T10:21:32Z</time>
      </trkpt>
      <trkpt lat="45.71425" lon="6.75532">
        <ele>1648.4</ele>
        <time>2023-08-21T10:21:33Z</time>
      </trkpt>
      <trkpt lat="45.71427" lon="6.75533">
        <ele>1649</ele>
        <time>2023-08-21T10:21:34Z</time>
      </trkpt>
      <trkpt lat="45.71428" lon="6.75534">
        <ele>1649.2</ele>
        <time>2023-08-21T10:21:35Z</time>
      </trkpt>
      <trkpt lat="45.71429" lon="6.75535">
        <ele>1649.2</ele>
        <time>2023-08-21T10:21:36Z</time>
      </trkpt>
      <trkpt lat="45.7143" lon="6.75536">
        <ele>1649.2</ele>
        <time>2023-08-21T10:21:37Z</time>
      </trkpt>
      <trkpt lat="45.71431" lon="6.75537">
        <ele>1649.8</ele>
        <time>2023-08-21T10:21:38Z</time>
      </trkpt>
      <trkpt lat="45.71433" lon="6.75539">
        <ele>1649.8</ele>
        <time>2023-08-21T10:21:39Z</time>
      </trkpt>
      <trkpt lat="45.71434" lon="6.75539">
        <ele>1649.8</ele>
        <time>2023-08-21T10:21:40Z</time>
      </trkpt>
      <trkpt lat="45.71435" lon="6.7554">
        <ele>1649.8</ele>
        <time>2023-08-21T10:21:41Z</time>
      </trkpt>
      <trkpt lat="45.71437" lon="6.75541">
        <ele>1650.2</ele>
        <time>2023-08-21T10:21:42Z</time>
      </trkpt>
      <trkpt lat="45.71438" lon="6.75542">
        <ele>1650.2</ele>
        <time>2023-08-21T10:21:43Z</time>
      </trkpt>
      <trkpt lat="45.71439" lon="6.75542">
        <ele>1650.2</ele>
        <time>2023-08-21T10:21:44Z</time>
      </trkpt>
      <trkpt lat="45.7144" lon="6.75543">
        <ele>1650.2</ele>
        <time>2023-08-21T10:21:45Z</time>
      </trkpt>
      <trkpt lat="45.71442" lon="6.75545">
        <ele>1650.2</ele>
        <time>2023-08-21T10:21:46Z</time>
      </trkpt>
      <trkpt lat="45.71443" lon="6.75546">
        <ele>1650.2</ele>
        <time>2023-08-21T10:21:47Z</time>
      </trkpt>
      <trkpt lat="45.71445" lon="6.75548">
        <ele>1651</ele>
        <time>2023-08-21T10:21:48Z</time>
      </trkpt>
      <trkpt lat="45.71446" lon="6.7555">
        <ele>1651</ele>
        <time>2023-08-21T10:21:49Z</time>
      </trkpt>
      <trkpt lat="45.71447" lon="6.75552">
        <ele>1651</ele>
        <time>2023-08-21T10:21:50Z</time>
      </trkpt>
      <trkpt lat="45.71448" lon="6.75553">
        <ele>1651</ele>
        <time>2023-08-21T10:21:51Z</time>
      </trkpt>
      <trkpt lat="45.71449" lon="6.75554">
        <ele>1651.8</ele>
        <time>2023-08-21T10:21:52Z</time>
      </trkpt>
      <trkpt lat="45.71451" lon="6.75555">
        <ele>1652.2</ele>
        <time>2023-08-21T10:21:53Z</time>
      </trkpt>
      <trkpt lat="45.71451" lon="6.75555">
        <ele>1652.2</ele>
        <time>2023-08-21T10:21:54Z</time>
      </trkpt>
      <trkpt lat="45.71453" lon="6.75556">
        <ele>1652.2</ele>
        <time>2023-08-21T10:21:55Z</time>
      </trkpt>
      <trkpt lat="45.71454" lon="6.75557">
        <ele>1652.6</ele>
        <time>2023-08-21T10:21:56Z</time>
      </trkpt>
      <trkpt lat="45.71455" lon="6.75557">
        <ele>1652.6</ele>
        <time>2023-08-21T10:21:57Z</time>
      </trkpt>
      <trkpt lat="45.71456" lon="6.75558">
        <ele>1652.8</ele>
        <time>2023-08-21T10:21:58Z</time>
      </trkpt>
      <trkpt lat="45.71458" lon="6.75559">
        <ele>1652.8</ele>
        <time>2023-08-21T10:21:59Z</time>
      </trkpt>
      <trkpt lat="45.71459" lon="6.75561">
        <ele>1652.8</ele>
        <time>2023-08-21T10:22:00Z</time>
      </trkpt>
      <trkpt lat="45.7146" lon="6.75562">
        <ele>1653.6</ele>
        <time>2023-08-21T10:22:01Z</time>
      </trkpt>
      <trkpt lat="45.71461" lon="6.75563">
        <ele>1653.6</ele>
        <time>2023-08-21T10:22:02Z</time>
      </trkpt>
      <trkpt lat="45.71462" lon="6.75564">
        <ele>1653.6</ele>
        <time>2023-08-21T10:22:03Z</time>
      </trkpt>
      <trkpt lat="45.71464" lon="6.75566">
        <ele>1653.6</ele>
        <time>2023-08-21T10:22:04Z</time>
      </trkpt>
      <trkpt lat="45.71465" lon="6.75567">
        <ele>1653.6</ele>
        <time>2023-08-21T10:22:05Z</time>
      </trkpt>
      <trkpt lat="45.71466" lon="6.75568">
        <ele>1654.2</ele>
        <time>2023-08-21T10:22:06Z</time>
      </trkpt>
      <trkpt lat="45.71467" lon="6.75569">
        <ele>1654.6</ele>
        <time>2023-08-21T10:22:07Z</time>
      </trkpt>
      <trkpt lat="45.71468" lon="6.7557">
        <ele>1654.6</ele>
        <time>2023-08-21T10:22:08Z</time>
      </trkpt>
      <trkpt lat="45.7147" lon="6.75571">
        <ele>1654.6</ele>
        <time>2023-08-21T10:22:09Z</time>
      </trkpt>
      <trkpt lat="45.71471" lon="6.75572">
        <ele>1655.2</ele>
        <time>2023-08-21T10:22:10Z</time>
      </trkpt>
      <trkpt lat="45.71471" lon="6.75573">
        <ele>1655.4</ele>
        <time>2023-08-21T10:22:11Z</time>
      </trkpt>
      <trkpt lat="45.71472" lon="6.75574">
        <ele>1655.4</ele>
        <time>2023-08-21T10:22:12Z</time>
      </trkpt>
      <trkpt lat="45.71473" lon="6.75576">
        <ele>1655.4</ele>
        <time>2023-08-21T10:22:13Z</time>
      </trkpt>
      <trkpt lat="45.71474" lon="6.75576">
        <ele>1655.4</ele>
        <time>2023-08-21T10:22:14Z</time>
      </trkpt>
      <trkpt lat="45.71475" lon="6.75577">
        <ele>1655.8</ele>
        <time>2023-08-21T10:22:15Z</time>
      </trkpt>
      <trkpt lat="45.71476" lon="6.75578">
        <ele>1656.2</ele>
        <time>2023-08-21T10:22:16Z</time>
      </trkpt>
      <trkpt lat="45.71478" lon="6.75579">
        <ele>1656.2</ele>
        <time>2023-08-21T10:22:17Z</time>
      </trkpt>
      <trkpt lat="45.71479" lon="6.75581">
        <ele>1656.2</ele>
        <time>2023-08-21T10:22:18Z</time>
      </trkpt>
      <trkpt lat="45.7148" lon="6.75582">
        <ele>1656.2</ele>
        <time>2023-08-21T10:22:19Z</time>
      </trkpt>
      <trkpt lat="45.71481" lon="6.75584">
        <ele>1656.6</ele>
        <time>2023-08-21T10:22:20Z</time>
      </trkpt>
      <trkpt lat="45.71482" lon="6.75586">
        <ele>1657</ele>
        <time>2023-08-21T10:22:21Z</time>
      </trkpt>
      <trkpt lat="45.71483" lon="6.75587">
        <ele>1657</ele>
        <time>2023-08-21T10:22:22Z</time>
      </trkpt>
      <trkpt lat="45.71484" lon="6.75588">
        <ele>1657</ele>
        <time>2023-08-21T10:22:23Z</time>
      </trkpt>
      <trkpt lat="45.71485" lon="6.75589">
        <ele>1657</ele>
        <time>2023-08-21T10:22:24Z</time>
      </trkpt>
      <trkpt lat="45.71486" lon="6.7559">
        <ele>1657.6</ele>
        <time>2023-08-21T10:22:25Z</time>
      </trkpt>
      <trkpt lat="45.71487" lon="6.75591">
        <ele>1657.6</ele>
        <time>2023-08-21T10:22:26Z</time>
      </trkpt>
      <trkpt lat="45.71488" lon="6.75592">
        <ele>1657.6</ele>
        <time>2023-08-21T10:22:27Z</time>
      </trkpt>
      <trkpt lat="45.71489" lon="6.75593">
        <ele>1658.4</ele>
        <time>2023-08-21T10:22:28Z</time>
      </trkpt>
      <trkpt lat="45.7149" lon="6.75594">
        <ele>1658.6</ele>
        <time>2023-08-21T10:22:29Z</time>
      </trkpt>
      <trkpt lat="45.71491" lon="6.75595">
        <ele>1658.6</ele>
        <time>2023-08-21T10:22:30Z</time>
      </trkpt>
      <trkpt lat="45.71492" lon="6.75596">
        <ele>1658.6</ele>
        <time>2023-08-21T10:22:31Z</time>
      </trkpt>
      <trkpt lat="45.71494" lon="6.75597">
        <ele>1659.2</ele>
        <time>2023-08-21T10:22:32Z</time>
      </trkpt>
      <trkpt lat="45.71495" lon="6.75598">
        <ele>1659.4</ele>
        <time>2023-08-21T10:22:33Z</time>
      </trkpt>
      <trkpt lat="45.71496" lon="6.75599">
        <ele>1659.4</ele>
        <time>2023-08-21T10:22:34Z</time>
      </trkpt>
      <trkpt lat="45.71497" lon="6.756">
        <ele>1659.4</ele>
        <time>2023-08-21T10:22:35Z</time>
      </trkpt>
      <trkpt lat="45.71498" lon="6.75601">
        <ele>1659.4</ele>
        <time>2023-08-21T10:22:36Z</time>
      </trkpt>
      <trkpt lat="45.71499" lon="6.75602">
        <ele>1659.4</ele>
        <time>2023-08-21T10:22:37Z</time>
      </trkpt>
      <trkpt lat="45.71501" lon="6.75603">
        <ele>1659.4</ele>
        <time>2023-08-21T10:22:38Z</time>
      </trkpt>
      <trkpt lat="45.71502" lon="6.75604">
        <ele>1660</ele>
        <time>2023-08-21T10:22:39Z</time>
      </trkpt>
      <trkpt lat="45.71503" lon="6.75604">
        <ele>1660</ele>
        <time>2023-08-21T10:22:40Z</time>
      </trkpt>
      <trkpt lat="45.71504" lon="6.75605">
        <ele>1660</ele>
        <time>2023-08-21T10:22:41Z</time>
      </trkpt>
      <trkpt lat="45.71506" lon="6.75606">
        <ele>1660.6</ele>
        <time>2023-08-21T10:22:42Z</time>
      </trkpt>
      <trkpt lat="45.71507" lon="6.75607">
        <ele>1660.6</ele>
        <time>2023-08-21T10:22:43Z</time>
      </trkpt>
      <trkpt lat="45.71508" lon="6.75607">
        <ele>1660.8</ele>
        <time>2023-08-21T10:22:44Z</time>
      </trkpt>
      <trkpt lat="45.71509" lon="6.75609">
        <ele>1660.8</ele>
        <time>2023-08-21T10:22:45Z</time>
      </trkpt>
      <trkpt lat="45.71511" lon="6.7561">
        <ele>1661.4</ele>
        <time>2023-08-21T10:22:46Z</time>
      </trkpt>
      <trkpt lat="45.71512" lon="6.75611">
        <ele>1661.4</ele>
        <time>2023-08-21T10:22:47Z</time>
      </trkpt>
      <trkpt lat="45.71513" lon="6.75612">
        <ele>1661.4</ele>
        <time>2023-08-21T10:22:48Z</time>
      </trkpt>
      <trkpt lat="45.71514" lon="6.75613">
        <ele>1661.4</ele>
        <time>2023-08-21T10:22:49Z</time>
      </trkpt>
      <trkpt lat="45.71515" lon="6.75614">
        <ele>1661.4</ele>
        <time>2023-08-21T10:22:50Z</time>
      </trkpt>
      <trkpt lat="45.71516" lon="6.75615">
        <ele>1662.2</ele>
        <time>2023-08-21T10:22:51Z</time>
      </trkpt>
      <trkpt lat="45.71518" lon="6.75616">
        <ele>1662.2</ele>
        <time>2023-08-21T10:22:52Z</time>
      </trkpt>
      <trkpt lat="45.71519" lon="6.75616">
        <ele>1662</ele>
        <time>2023-08-21T10:22:53Z</time>
      </trkpt>
      <trkpt lat="45.7152" lon="6.75617">
        <ele>1662</ele>
        <time>2023-08-21T10:22:54Z</time>
      </trkpt>
      <trkpt lat="45.71522" lon="6.75618">
        <ele>1662</ele>
        <time>2023-08-21T10:22:55Z</time>
      </trkpt>
      <trkpt lat="45.71523" lon="6.75619">
        <ele>1662.6</ele>
        <time>2023-08-21T10:22:56Z</time>
      </trkpt>
      <trkpt lat="45.71524" lon="6.7562">
        <ele>1662.6</ele>
        <time>2023-08-21T10:22:57Z</time>
      </trkpt>
      <trkpt lat="45.71526" lon="6.75621">
        <ele>1662.8</ele>
        <time>2023-08-21T10:22:58Z</time>
      </trkpt>
      <trkpt lat="45.71527" lon="6.75622">
        <ele>1662.8</ele>
        <time>2023-08-21T10:22:59Z</time>
      </trkpt>
      <trkpt lat="45.71528" lon="6.75623">
        <ele>1663.2</ele>
        <time>2023-08-21T10:23:00Z</time>
      </trkpt>
      <trkpt lat="45.71529" lon="6.75625">
        <ele>1663.4</ele>
        <time>2023-08-21T10:23:01Z</time>
      </trkpt>
      <trkpt lat="45.7153" lon="6.75626">
        <ele>1663.4</ele>
        <time>2023-08-21T10:23:02Z</time>
      </trkpt>
      <trkpt lat="45.71531" lon="6.75627">
        <ele>1663.4</ele>
        <time>2023-08-21T10:23:03Z</time>
      </trkpt>
      <trkpt lat="45.71532" lon="6.75628">
        <ele>1663.8</ele>
        <time>2023-08-21T10:23:04Z</time>
      </trkpt>
      <trkpt lat="45.71534" lon="6.75628">
        <ele>1663.8</ele>
        <time>2023-08-21T10:23:05Z</time>
      </trkpt>
      <trkpt lat="45.71535" lon="6.75628">
        <ele>1663.8</ele>
        <time>2023-08-21T10:23:06Z</time>
      </trkpt>
      <trkpt lat="45.71536" lon="6.75629">
        <ele>1663.8</ele>
        <time>2023-08-21T10:23:07Z</time>
      </trkpt>
      <trkpt lat="45.71538" lon="6.7563">
        <ele>1663.8</ele>
        <time>2023-08-21T10:23:08Z</time>
      </trkpt>
      <trkpt lat="45.71539" lon="6.75631">
        <ele>1664.6</ele>
        <time>2023-08-21T10:23:09Z</time>
      </trkpt>
      <trkpt lat="45.71541" lon="6.75632">
        <ele>1664.8</ele>
        <time>2023-08-21T10:23:10Z</time>
      </trkpt>
      <trkpt lat="45.71542" lon="6.75632">
        <ele>1664.8</ele>
        <time>2023-08-21T10:23:11Z</time>
      </trkpt>
      <trkpt lat="45.71543" lon="6.75633">
        <ele>1664.8</ele>
        <time>2023-08-21T10:23:12Z</time>
      </trkpt>
      <trkpt lat="45.71544" lon="6.75634">
        <ele>1664.8</ele>
        <time>2023-08-21T10:23:13Z</time>
      </trkpt>
      <trkpt lat="45.71545" lon="6.75635">
        <ele>1665.6</ele>
        <time>2023-08-21T10:23:14Z</time>
      </trkpt>
      <trkpt lat="45.71547" lon="6.75636">
        <ele>1665.8</ele>
        <time>2023-08-21T10:23:15Z</time>
      </trkpt>
      <trkpt lat="45.71548" lon="6.75637">
        <ele>1665.8</ele>
        <time>2023-08-21T10:23:16Z</time>
      </trkpt>
      <trkpt lat="45.71549" lon="6.75638">
        <ele>1665.8</ele>
        <time>2023-08-21T10:23:17Z</time>
      </trkpt>
      <trkpt lat="45.7155" lon="6.75639">
        <ele>1665.8</ele>
        <time>2023-08-21T10:23:18Z</time>
      </trkpt>
      <trkpt lat="45.71551" lon="6.7564">
        <ele>1666.4</ele>
        <time>2023-08-21T10:23:19Z</time>
      </trkpt>
      <trkpt lat="45.71553" lon="6.75641">
        <ele>1666.4</ele>
        <time>2023-08-21T10:23:20Z</time>
      </trkpt>
      <trkpt lat="45.71554" lon="6.75642">
        <ele>1666.4</ele>
        <time>2023-08-21T10:23:21Z</time>
      </trkpt>
      <trkpt lat="45.71555" lon="6.75643">
        <ele>1666.4</ele>
        <time>2023-08-21T10:23:22Z</time>
      </trkpt>
      <trkpt lat="45.71557" lon="6.75644">
        <ele>1666.4</ele>
        <time>2023-08-21T10:23:23Z</time>
      </trkpt>
      <trkpt lat="45.71558" lon="6.75645">
        <ele>1667</ele>
        <time>2023-08-21T10:23:24Z</time>
      </trkpt>
      <trkpt lat="45.71559" lon="6.75646">
        <ele>1667</ele>
        <time>2023-08-21T10:23:25Z</time>
      </trkpt>
      <trkpt lat="45.7156" lon="6.75647">
        <ele>1667</ele>
        <time>2023-08-21T10:23:26Z</time>
      </trkpt>
      <trkpt lat="45.71561" lon="6.75648">
        <ele>1667</ele>
        <time>2023-08-21T10:23:27Z</time>
      </trkpt>
      <trkpt lat="45.71562" lon="6.75648">
        <ele>1667</ele>
        <time>2023-08-21T10:23:28Z</time>
      </trkpt>
      <trkpt lat="45.71563" lon="6.7565">
        <ele>1667.6</ele>
        <time>2023-08-21T10:23:29Z</time>
      </trkpt>
      <trkpt lat="45.71564" lon="6.75652">
        <ele>1667.6</ele>
        <time>2023-08-21T10:23:30Z</time>
      </trkpt>
      <trkpt lat="45.71565" lon="6.75654">
        <ele>1667.6</ele>
        <time>2023-08-21T10:23:31Z</time>
      </trkpt>
      <trkpt lat="45.71566" lon="6.75655">
        <ele>1668.2</ele>
        <time>2023-08-21T10:23:32Z</time>
      </trkpt>
      <trkpt lat="45.71567" lon="6.75656">
        <ele>1668.2</ele>
        <time>2023-08-21T10:23:33Z</time>
      </trkpt>
      <trkpt lat="45.71569" lon="6.75656">
        <ele>1668.6</ele>
        <time>2023-08-21T10:23:34Z</time>
      </trkpt>
      <trkpt lat="45.7157" lon="6.75657">
        <ele>1668.6</ele>
        <time>2023-08-21T10:23:35Z</time>
      </trkpt>
      <trkpt lat="45.71572" lon="6.75658">
        <ele>1669</ele>
        <time>2023-08-21T10:23:36Z</time>
      </trkpt>
      <trkpt lat="45.71573" lon="6.75659">
        <ele>1669.4</ele>
        <time>2023-08-21T10:23:37Z</time>
      </trkpt>
      <trkpt lat="45.71574" lon="6.7566">
        <ele>1669.4</ele>
        <time>2023-08-21T10:23:38Z</time>
      </trkpt>
      <trkpt lat="45.71575" lon="6.75661">
        <ele>1669.4</ele>
        <time>2023-08-21T10:23:39Z</time>
      </trkpt>
      <trkpt lat="45.71576" lon="6.75663">
        <ele>1669.4</ele>
        <time>2023-08-21T10:23:40Z</time>
      </trkpt>
      <trkpt lat="45.71577" lon="6.75664">
        <ele>1669.4</ele>
        <time>2023-08-21T10:23:41Z</time>
      </trkpt>
      <trkpt lat="45.71578" lon="6.75666">
        <ele>1670.2</ele>
        <time>2023-08-21T10:23:42Z</time>
      </trkpt>
      <trkpt lat="45.7158" lon="6.75667">
        <ele>1670.2</ele>
        <time>2023-08-21T10:23:43Z</time>
      </trkpt>
      <trkpt lat="45.71581" lon="6.75669">
        <ele>1670.2</ele>
        <time>2023-08-21T10:23:44Z</time>
      </trkpt>
      <trkpt lat="45.71582" lon="6.7567">
        <ele>1671</ele>
        <time>2023-08-21T10:23:45Z</time>
      </trkpt>
      <trkpt lat="45.71583" lon="6.7567">
        <ele>1671.2</ele>
        <time>2023-08-21T10:23:46Z</time>
      </trkpt>
      <trkpt lat="45.71585" lon="6.75671">
        <ele>1671.2</ele>
        <time>2023-08-21T10:23:47Z</time>
      </trkpt>
      <trkpt lat="45.71586" lon="6.75672">
        <ele>1671.2</ele>
        <time>2023-08-21T10:23:48Z</time>
      </trkpt>
      <trkpt lat="45.71587" lon="6.75673">
        <ele>1671.2</ele>
        <time>2023-08-21T10:23:49Z</time>
      </trkpt>
      <trkpt lat="45.71589" lon="6.75674">
        <ele>1671.2</ele>
        <time>2023-08-21T10:23:50Z</time>
      </trkpt>
      <trkpt lat="45.7159" lon="6.75675">
        <ele>1671.2</ele>
        <time>2023-08-21T10:23:51Z</time>
      </trkpt>
      <trkpt lat="45.71591" lon="6.75676">
        <ele>1671.6</ele>
        <time>2023-08-21T10:23:52Z</time>
      </trkpt>
      <trkpt lat="45.71592" lon="6.75677">
        <ele>1671.6</ele>
        <time>2023-08-21T10:23:53Z</time>
      </trkpt>
      <trkpt lat="45.71594" lon="6.75678">
        <ele>1671.6</ele>
        <time>2023-08-21T10:23:54Z</time>
      </trkpt>
      <trkpt lat="45.71595" lon="6.7568">
        <ele>1672.4</ele>
        <time>2023-08-21T10:23:55Z</time>
      </trkpt>
      <trkpt lat="45.71596" lon="6.75681">
        <ele>1672.4</ele>
        <time>2023-08-21T10:23:56Z</time>
      </trkpt>
      <trkpt lat="45.71597" lon="6.75682">
        <ele>1672.4</ele>
        <time>2023-08-21T10:23:57Z</time>
      </trkpt>
      <trkpt lat="45.71599" lon="6.75683">
        <ele>1672.4</ele>
        <time>2023-08-21T10:23:58Z</time>
      </trkpt>
      <trkpt lat="45.716" lon="6.75684">
        <ele>1672.4</ele>
        <time>2023-08-21T10:23:59Z</time>
      </trkpt>
      <trkpt lat="45.71602" lon="6.75685">
        <ele>1672.4</ele>
        <time>2023-08-21T10:24:00Z</time>
      </trkpt>
      <trkpt lat="45.71603" lon="6.75685">
        <ele>1673</ele>
        <time>2023-08-21T10:24:01Z</time>
      </trkpt>
      <trkpt lat="45.71604" lon="6.75688">
        <ele>1673</ele>
        <time>2023-08-21T10:24:02Z</time>
      </trkpt>
      <trkpt lat="45.71605" lon="6.75689">
        <ele>1673</ele>
        <time>2023-08-21T10:24:03Z</time>
      </trkpt>
      <trkpt lat="45.71606" lon="6.7569">
        <ele>1673.4</ele>
        <time>2023-08-21T10:24:04Z</time>
      </trkpt>
      <trkpt lat="45.71607" lon="6.75691">
        <ele>1673.4</ele>
        <time>2023-08-21T10:24:05Z</time>
      </trkpt>
      <trkpt lat="45.71608" lon="6.75693">
        <ele>1673.6</ele>
        <time>2023-08-21T10:24:06Z</time>
      </trkpt>
      <trkpt lat="45.7161" lon="6.75694">
        <ele>1673.6</ele>
        <time>2023-08-21T10:24:07Z</time>
      </trkpt>
      <trkpt lat="45.71611" lon="6.75695">
        <ele>1673.6</ele>
        <time>2023-08-21T10:24:08Z</time>
      </trkpt>
      <trkpt lat="45.71612" lon="6.75696">
        <ele>1674.2</ele>
        <time>2023-08-21T10:24:09Z</time>
      </trkpt>
      <trkpt lat="45.71614" lon="6.75697">
        <ele>1674.4</ele>
        <time>2023-08-21T10:24:10Z</time>
      </trkpt>
      <trkpt lat="45.71615" lon="6.75698">
        <ele>1674.4</ele>
        <time>2023-08-21T10:24:11Z</time>
      </trkpt>
      <trkpt lat="45.71616" lon="6.75699">
        <ele>1674.4</ele>
        <time>2023-08-21T10:24:12Z</time>
      </trkpt>
      <trkpt lat="45.71617" lon="6.75701">
        <ele>1674.8</ele>
        <time>2023-08-21T10:24:13Z</time>
      </trkpt>
      <trkpt lat="45.71618" lon="6.75702">
        <ele>1675</ele>
        <time>2023-08-21T10:24:14Z</time>
      </trkpt>
      <trkpt lat="45.71619" lon="6.75703">
        <ele>1675</ele>
        <time>2023-08-21T10:24:15Z</time>
      </trkpt>
      <trkpt lat="45.71621" lon="6.75703">
        <ele>1675</ele>
        <time>2023-08-21T10:24:16Z</time>
      </trkpt>
      <trkpt lat="45.71622" lon="6.75704">
        <ele>1675</ele>
        <time>2023-08-21T10:24:17Z</time>
      </trkpt>
      <trkpt lat="45.71623" lon="6.75705">
        <ele>1675.6</ele>
        <time>2023-08-21T10:24:18Z</time>
      </trkpt>
      <trkpt lat="45.71624" lon="6.75705">
        <ele>1675.6</ele>
        <time>2023-08-21T10:24:19Z</time>
      </trkpt>
      <trkpt lat="45.71625" lon="6.75706">
        <ele>1675.8</ele>
        <time>2023-08-21T10:24:20Z</time>
      </trkpt>
      <trkpt lat="45.71626" lon="6.75707">
        <ele>1675.8</ele>
        <time>2023-08-21T10:24:21Z</time>
      </trkpt>
      <trkpt lat="45.71628" lon="6.75708">
        <ele>1675.8</ele>
        <time>2023-08-21T10:24:22Z</time>
      </trkpt>
      <trkpt lat="45.71629" lon="6.75709">
        <ele>1676.4</ele>
        <time>2023-08-21T10:24:23Z</time>
      </trkpt>
      <trkpt lat="45.7163" lon="6.75709">
        <ele>1676.4</ele>
        <time>2023-08-21T10:24:24Z</time>
      </trkpt>
      <trkpt lat="45.71632" lon="6.7571">
        <ele>1676.4</ele>
        <time>2023-08-21T10:24:25Z</time>
      </trkpt>
      <trkpt lat="45.71633" lon="6.7571">
        <ele>1676.4</ele>
        <time>2023-08-21T10:24:26Z</time>
      </trkpt>
      <trkpt lat="45.71635" lon="6.75711">
        <ele>1676.8</ele>
        <time>2023-08-21T10:24:27Z</time>
      </trkpt>
      <trkpt lat="45.71636" lon="6.75711">
        <ele>1677</ele>
        <time>2023-08-21T10:24:28Z</time>
      </trkpt>
      <trkpt lat="45.71638" lon="6.75712">
        <ele>1677</ele>
        <time>2023-08-21T10:24:29Z</time>
      </trkpt>
      <trkpt lat="45.71639" lon="6.75712">
        <ele>1677</ele>
        <time>2023-08-21T10:24:30Z</time>
      </trkpt>
      <trkpt lat="45.7164" lon="6.75714">
        <ele>1677</ele>
        <time>2023-08-21T10:24:31Z</time>
      </trkpt>
      <trkpt lat="45.71641" lon="6.75715">
        <ele>1677.2</ele>
        <time>2023-08-21T10:24:32Z</time>
      </trkpt>
      <trkpt lat="45.71643" lon="6.75716">
        <ele>1677.4</ele>
        <time>2023-08-21T10:24:33Z</time>
      </trkpt>
      <trkpt lat="45.71644" lon="6.75718">
        <ele>1677.4</ele>
        <time>2023-08-21T10:24:34Z</time>
      </trkpt>
      <trkpt lat="45.71645" lon="6.7572">
        <ele>1677.4</ele>
        <time>2023-08-21T10:24:35Z</time>
      </trkpt>
      <trkpt lat="45.71646" lon="6.75721">
        <ele>1677.4</ele>
        <time>2023-08-21T10:24:36Z</time>
      </trkpt>
      <trkpt lat="45.71647" lon="6.75722">
        <ele>1678.4</ele>
        <time>2023-08-21T10:24:37Z</time>
      </trkpt>
      <trkpt lat="45.71648" lon="6.75723">
        <ele>1678.4</ele>
        <time>2023-08-21T10:24:38Z</time>
      </trkpt>
      <trkpt lat="45.7165" lon="6.75724">
        <ele>1678.4</ele>
        <time>2023-08-21T10:24:39Z</time>
      </trkpt>
      <trkpt lat="45.71652" lon="6.75724">
        <ele>1678.4</ele>
        <time>2023-08-21T10:24:40Z</time>
      </trkpt>
      <trkpt lat="45.71653" lon="6.75725">
        <ele>1678.4</ele>
        <time>2023-08-21T10:24:41Z</time>
      </trkpt>
      <trkpt lat="45.71654" lon="6.75725">
        <ele>1679</ele>
        <time>2023-08-21T10:24:42Z</time>
      </trkpt>
      <trkpt lat="45.71656" lon="6.75726">
        <ele>1679</ele>
        <time>2023-08-21T10:24:43Z</time>
      </trkpt>
      <trkpt lat="45.71657" lon="6.75727">
        <ele>1679</ele>
        <time>2023-08-21T10:24:44Z</time>
      </trkpt>
      <trkpt lat="45.71659" lon="6.75728">
        <ele>1679.2</ele>
        <time>2023-08-21T10:24:45Z</time>
      </trkpt>
      <trkpt lat="45.7166" lon="6.75729">
        <ele>1679.2</ele>
        <time>2023-08-21T10:24:46Z</time>
      </trkpt>
      <trkpt lat="45.71661" lon="6.75731">
        <ele>1679.2</ele>
        <time>2023-08-21T10:24:47Z</time>
      </trkpt>
      <trkpt lat="45.71663" lon="6.75731">
        <ele>1679.2</ele>
        <time>2023-08-21T10:24:48Z</time>
      </trkpt>
      <trkpt lat="45.71664" lon="6.75733">
        <ele>1680</ele>
        <time>2023-08-21T10:24:49Z</time>
      </trkpt>
      <trkpt lat="45.71665" lon="6.75734">
        <ele>1680</ele>
        <time>2023-08-21T10:24:50Z</time>
      </trkpt>
      <trkpt lat="45.71666" lon="6.75735">
        <ele>1680</ele>
        <time>2023-08-21T10:24:51Z</time>
      </trkpt>
      <trkpt lat="45.71667" lon="6.75736">
        <ele>1680</ele>
        <time>2023-08-21T10:24:52Z</time>
      </trkpt>
      <trkpt lat="45.71668" lon="6.75737">
        <ele>1680</ele>
        <time>2023-08-21T10:24:53Z</time>
      </trkpt>
      <trkpt lat="45.71669" lon="6.75738">
        <ele>1680</ele>
        <time>2023-08-21T10:24:54Z</time>
      </trkpt>
      <trkpt lat="45.71671" lon="6.75739">
        <ele>1680.6</ele>
        <time>2023-08-21T10:24:55Z</time>
      </trkpt>
      <trkpt lat="45.71672" lon="6.7574">
        <ele>1680.8</ele>
        <time>2023-08-21T10:24:56Z</time>
      </trkpt>
      <trkpt lat="45.71673" lon="6.75742">
        <ele>1680.8</ele>
        <time>2023-08-21T10:24:57Z</time>
      </trkpt>
      <trkpt lat="45.71675" lon="6.75743">
        <ele>1680.8</ele>
        <time>2023-08-21T10:24:58Z</time>
      </trkpt>
      <trkpt lat="45.71676" lon="6.75743">
        <ele>1681.2</ele>
        <time>2023-08-21T10:24:59Z</time>
      </trkpt>
      <trkpt lat="45.71678" lon="6.75744">
        <ele>1681</ele>
        <time>2023-08-21T10:25:00Z</time>
      </trkpt>
      <trkpt lat="45.71679" lon="6.75746">
        <ele>1681</ele>
        <time>2023-08-21T10:25:01Z</time>
      </trkpt>
      <trkpt lat="45.71681" lon="6.75746">
        <ele>1681</ele>
        <time>2023-08-21T10:25:02Z</time>
      </trkpt>
      <trkpt lat="45.71682" lon="6.75748">
        <ele>1681.6</ele>
        <time>2023-08-21T10:25:03Z</time>
      </trkpt>
      <trkpt lat="45.71683" lon="6.75748">
        <ele>1681.6</ele>
        <time>2023-08-21T10:25:04Z</time>
      </trkpt>
      <trkpt lat="45.71684" lon="6.75749">
        <ele>1681.6</ele>
        <time>2023-08-21T10:25:05Z</time>
      </trkpt>
      <trkpt lat="45.71685" lon="6.75751">
        <ele>1681.8</ele>
        <time>2023-08-21T10:25:06Z</time>
      </trkpt>
      <trkpt lat="45.71686" lon="6.75751">
        <ele>1681.8</ele>
        <time>2023-08-21T10:25:07Z</time>
      </trkpt>
      <trkpt lat="45.71688" lon="6.75753">
        <ele>1682.4</ele>
        <time>2023-08-21T10:25:08Z</time>
      </trkpt>
      <trkpt lat="45.71689" lon="6.75754">
        <ele>1682.4</ele>
        <time>2023-08-21T10:25:09Z</time>
      </trkpt>
      <trkpt lat="45.7169" lon="6.75755">
        <ele>1682.8</ele>
        <time>2023-08-21T10:25:10Z</time>
      </trkpt>
      <trkpt lat="45.71691" lon="6.75757">
        <ele>1682.8</ele>
        <time>2023-08-21T10:25:11Z</time>
      </trkpt>
      <trkpt lat="45.71693" lon="6.75758">
        <ele>1682.8</ele>
        <time>2023-08-21T10:25:12Z</time>
      </trkpt>
      <trkpt lat="45.71694" lon="6.75759">
        <ele>1682.8</ele>
        <time>2023-08-21T10:25:13Z</time>
      </trkpt>
      <trkpt lat="45.71695" lon="6.7576">
        <ele>1683</ele>
        <time>2023-08-21T10:25:14Z</time>
      </trkpt>
      <trkpt lat="45.71697" lon="6.75761">
        <ele>1683</ele>
        <time>2023-08-21T10:25:15Z</time>
      </trkpt>
      <trkpt lat="45.71698" lon="6.75762">
        <ele>1683</ele>
        <time>2023-08-21T10:25:16Z</time>
      </trkpt>
      <trkpt lat="45.71699" lon="6.75763">
        <ele>1683.2</ele>
        <time>2023-08-21T10:25:17Z</time>
      </trkpt>
      <trkpt lat="45.71701" lon="6.75765">
        <ele>1683.2</ele>
        <time>2023-08-21T10:25:18Z</time>
      </trkpt>
      <trkpt lat="45.71702" lon="6.75766">
        <ele>1683.6</ele>
        <time>2023-08-21T10:25:19Z</time>
      </trkpt>
      <trkpt lat="45.71704" lon="6.75767">
        <ele>1683.6</ele>
        <time>2023-08-21T10:25:20Z</time>
      </trkpt>
      <trkpt lat="45.71705" lon="6.75768">
        <ele>1683.8</ele>
        <time>2023-08-21T10:25:21Z</time>
      </trkpt>
      <trkpt lat="45.71706" lon="6.75769">
        <ele>1683.8</ele>
        <time>2023-08-21T10:25:22Z</time>
      </trkpt>
      <trkpt lat="45.71708" lon="6.75771">
        <ele>1683.8</ele>
        <time>2023-08-21T10:25:23Z</time>
      </trkpt>
      <trkpt lat="45.71709" lon="6.75772">
        <ele>1684</ele>
        <time>2023-08-21T10:25:24Z</time>
      </trkpt>
      <trkpt lat="45.7171" lon="6.75773">
        <ele>1684</ele>
        <time>2023-08-21T10:25:25Z</time>
      </trkpt>
      <trkpt lat="45.71712" lon="6.75773">
        <ele>1684</ele>
        <time>2023-08-21T10:25:26Z</time>
      </trkpt>
      <trkpt lat="45.71713" lon="6.75774">
        <ele>1684.6</ele>
        <time>2023-08-21T10:25:27Z</time>
      </trkpt>
      <trkpt lat="45.71714" lon="6.75775">
        <ele>1685</ele>
        <time>2023-08-21T10:25:28Z</time>
      </trkpt>
      <trkpt lat="45.71715" lon="6.75776">
        <ele>1685</ele>
        <time>2023-08-21T10:25:29Z</time>
      </trkpt>
      <trkpt lat="45.71716" lon="6.75778">
        <ele>1685</ele>
        <time>2023-08-21T10:25:30Z</time>
      </trkpt>
      <trkpt lat="45.71717" lon="6.75779">
        <ele>1685</ele>
        <time>2023-08-21T10:25:31Z</time>
      </trkpt>
      <trkpt lat="45.71719" lon="6.7578">
        <ele>1686</ele>
        <time>2023-08-21T10:25:32Z</time>
      </trkpt>
      <trkpt lat="45.7172" lon="6.75781">
        <ele>1686</ele>
        <time>2023-08-21T10:25:33Z</time>
      </trkpt>
      <trkpt lat="45.71721" lon="6.75783">
        <ele>1686</ele>
        <time>2023-08-21T10:25:34Z</time>
      </trkpt>
      <trkpt lat="45.71722" lon="6.75785">
        <ele>1686</ele>
        <time>2023-08-21T10:25:35Z</time>
      </trkpt>
      <trkpt lat="45.71724" lon="6.75787">
        <ele>1686</ele>
        <time>2023-08-21T10:25:36Z</time>
      </trkpt>
      <trkpt lat="45.71725" lon="6.75789">
        <ele>1686.8</ele>
        <time>2023-08-21T10:25:37Z</time>
      </trkpt>
      <trkpt lat="45.71727" lon="6.7579">
        <ele>1686.8</ele>
        <time>2023-08-21T10:25:38Z</time>
      </trkpt>
      <trkpt lat="45.71728" lon="6.75792">
        <ele>1686.8</ele>
        <time>2023-08-21T10:25:39Z</time>
      </trkpt>
      <trkpt lat="45.7173" lon="6.75793">
        <ele>1686.8</ele>
        <time>2023-08-21T10:25:40Z</time>
      </trkpt>
      <trkpt lat="45.71732" lon="6.75794">
        <ele>1686.8</ele>
        <time>2023-08-21T10:25:41Z</time>
      </trkpt>
      <trkpt lat="45.71733" lon="6.75795">
        <ele>1687.6</ele>
        <time>2023-08-21T10:25:42Z</time>
      </trkpt>
      <trkpt lat="45.71734" lon="6.75796">
        <ele>1687.6</ele>
        <time>2023-08-21T10:25:43Z</time>
      </trkpt>
      <trkpt lat="45.71735" lon="6.75797">
        <ele>1687.6</ele>
        <time>2023-08-21T10:25:44Z</time>
      </trkpt>
      <trkpt lat="45.71737" lon="6.75798">
        <ele>1687.6</ele>
        <time>2023-08-21T10:25:45Z</time>
      </trkpt>
      <trkpt lat="45.71738" lon="6.75799">
        <ele>1688.4</ele>
        <time>2023-08-21T10:25:46Z</time>
      </trkpt>
      <trkpt lat="45.71739" lon="6.758">
        <ele>1688.4</ele>
        <time>2023-08-21T10:25:47Z</time>
      </trkpt>
      <trkpt lat="45.7174" lon="6.75802">
        <ele>1688.4</ele>
        <time>2023-08-21T10:25:48Z</time>
      </trkpt>
      <trkpt lat="45.71741" lon="6.75803">
        <ele>1688.4</ele>
        <time>2023-08-21T10:25:49Z</time>
      </trkpt>
      <trkpt lat="45.71742" lon="6.75804">
        <ele>1688.4</ele>
        <time>2023-08-21T10:25:50Z</time>
      </trkpt>
      <trkpt lat="45.71744" lon="6.75805">
        <ele>1689</ele>
        <time>2023-08-21T10:25:51Z</time>
      </trkpt>
      <trkpt lat="45.71745" lon="6.75806">
        <ele>1689</ele>
        <time>2023-08-21T10:25:52Z</time>
      </trkpt>
      <trkpt lat="45.71746" lon="6.75807">
        <ele>1689</ele>
        <time>2023-08-21T10:25:53Z</time>
      </trkpt>
      <trkpt lat="45.71747" lon="6.75808">
        <ele>1689</ele>
        <time>2023-08-21T10:25:54Z</time>
      </trkpt>
      <trkpt lat="45.71748" lon="6.75809">
        <ele>1690</ele>
        <time>2023-08-21T10:25:55Z</time>
      </trkpt>
      <trkpt lat="45.71749" lon="6.75811">
        <ele>1690</ele>
        <time>2023-08-21T10:25:56Z</time>
      </trkpt>
      <trkpt lat="45.7175" lon="6.75812">
        <ele>1690</ele>
        <time>2023-08-21T10:25:57Z</time>
      </trkpt>
      <trkpt lat="45.71751" lon="6.75814">
        <ele>1690</ele>
        <time>2023-08-21T10:25:58Z</time>
      </trkpt>
      <trkpt lat="45.71752" lon="6.75815">
        <ele>1690.4</ele>
        <time>2023-08-21T10:25:59Z</time>
      </trkpt>
      <trkpt lat="45.71753" lon="6.75816">
        <ele>1690.6</ele>
        <time>2023-08-21T10:26:00Z</time>
      </trkpt>
      <trkpt lat="45.71754" lon="6.75817">
        <ele>1690.6</ele>
        <time>2023-08-21T10:26:01Z</time>
      </trkpt>
      <trkpt lat="45.71755" lon="6.75818">
        <ele>1690.6</ele>
        <time>2023-08-21T10:26:02Z</time>
      </trkpt>
      <trkpt lat="45.71757" lon="6.7582">
        <ele>1691.2</ele>
        <time>2023-08-21T10:26:03Z</time>
      </trkpt>
      <trkpt lat="45.71758" lon="6.75821">
        <ele>1691.2</ele>
        <time>2023-08-21T10:26:04Z</time>
      </trkpt>
      <trkpt lat="45.7176" lon="6.75822">
        <ele>1691.4</ele>
        <time>2023-08-21T10:26:05Z</time>
      </trkpt>
      <trkpt lat="45.71761" lon="6.75823">
        <ele>1691.4</ele>
        <time>2023-08-21T10:26:06Z</time>
      </trkpt>
      <trkpt lat="45.71762" lon="6.75824">
        <ele>1691.4</ele>
        <time>2023-08-21T10:26:07Z</time>
      </trkpt>
      <trkpt lat="45.71763" lon="6.75826">
        <ele>1691.8</ele>
        <time>2023-08-21T10:26:08Z</time>
      </trkpt>
      <trkpt lat="45.71764" lon="6.75826">
        <ele>1691.8</ele>
        <time>2023-08-21T10:26:09Z</time>
      </trkpt>
      <trkpt lat="45.71765" lon="6.75827">
        <ele>1691.8</ele>
        <time>2023-08-21T10:26:10Z</time>
      </trkpt>
      <trkpt lat="45.71767" lon="6.75828">
        <ele>1691.8</ele>
        <time>2023-08-21T10:26:11Z</time>
      </trkpt>
      <trkpt lat="45.71768" lon="6.75829">
        <ele>1691.8</ele>
        <time>2023-08-21T10:26:12Z</time>
      </trkpt>
      <trkpt lat="45.71769" lon="6.7583">
        <ele>1692.6</ele>
        <time>2023-08-21T10:26:13Z</time>
      </trkpt>
      <trkpt lat="45.71771" lon="6.75831">
        <ele>1692.6</ele>
        <time>2023-08-21T10:26:14Z</time>
      </trkpt>
      <trkpt lat="45.71772" lon="6.75833">
        <ele>1692.6</ele>
        <time>2023-08-21T10:26:15Z</time>
      </trkpt>
      <trkpt lat="45.71773" lon="6.75834">
        <ele>1692.6</ele>
        <time>2023-08-21T10:26:16Z</time>
      </trkpt>
      <trkpt lat="45.71774" lon="6.75835">
        <ele>1692.6</ele>
        <time>2023-08-21T10:26:17Z</time>
      </trkpt>
      <trkpt lat="45.71775" lon="6.75836">
        <ele>1692.6</ele>
        <time>2023-08-21T10:26:18Z</time>
      </trkpt>
      <trkpt lat="45.71776" lon="6.75837">
        <ele>1692.8</ele>
        <time>2023-08-21T10:26:19Z</time>
      </trkpt>
      <trkpt lat="45.71777" lon="6.75839">
        <ele>1692.8</ele>
        <time>2023-08-21T10:26:20Z</time>
      </trkpt>
      <trkpt lat="45.71779" lon="6.7584">
        <ele>1692.8</ele>
        <time>2023-08-21T10:26:21Z</time>
      </trkpt>
      <trkpt lat="45.7178" lon="6.75841">
        <ele>1692.8</ele>
        <time>2023-08-21T10:26:22Z</time>
      </trkpt>
      <trkpt lat="45.71781" lon="6.75843">
        <ele>1693.6</ele>
        <time>2023-08-21T10:26:23Z</time>
      </trkpt>
      <trkpt lat="45.71782" lon="6.75844">
        <ele>1693.6</ele>
        <time>2023-08-21T10:26:24Z</time>
      </trkpt>
      <trkpt lat="45.71783" lon="6.75845">
        <ele>1693.6</ele>
        <time>2023-08-21T10:26:25Z</time>
      </trkpt>
      <trkpt lat="45.71784" lon="6.75847">
        <ele>1694.4</ele>
        <time>2023-08-21T10:26:26Z</time>
      </trkpt>
      <trkpt lat="45.71785" lon="6.75848">
        <ele>1694.4</ele>
        <time>2023-08-21T10:26:27Z</time>
      </trkpt>
      <trkpt lat="45.71786" lon="6.75849">
        <ele>1694.6</ele>
        <time>2023-08-21T10:26:28Z</time>
      </trkpt>
      <trkpt lat="45.71788" lon="6.7585">
        <ele>1694.6</ele>
        <time>2023-08-21T10:26:29Z</time>
      </trkpt>
      <trkpt lat="45.71789" lon="6.75852">
        <ele>1694.6</ele>
        <time>2023-08-21T10:26:30Z</time>
      </trkpt>
      <trkpt lat="45.7179" lon="6.75853">
        <ele>1695</ele>
        <time>2023-08-21T10:26:31Z</time>
      </trkpt>
      <trkpt lat="45.71791" lon="6.75855">
        <ele>1695.4</ele>
        <time>2023-08-21T10:26:32Z</time>
      </trkpt>
      <trkpt lat="45.71792" lon="6.75856">
        <ele>1695.4</ele>
        <time>2023-08-21T10:26:33Z</time>
      </trkpt>
      <trkpt lat="45.71793" lon="6.75858">
        <ele>1695.4</ele>
        <time>2023-08-21T10:26:34Z</time>
      </trkpt>
      <trkpt lat="45.71795" lon="6.75859">
        <ele>1695.4</ele>
        <time>2023-08-21T10:26:35Z</time>
      </trkpt>
      <trkpt lat="45.71796" lon="6.7586">
        <ele>1695.8</ele>
        <time>2023-08-21T10:26:36Z</time>
      </trkpt>
      <trkpt lat="45.71797" lon="6.75862">
        <ele>1695.8</ele>
        <time>2023-08-21T10:26:37Z</time>
      </trkpt>
      <trkpt lat="45.71798" lon="6.75863">
        <ele>1695.8</ele>
        <time>2023-08-21T10:26:38Z</time>
      </trkpt>
      <trkpt lat="45.71799" lon="6.75864">
        <ele>1696.2</ele>
        <time>2023-08-21T10:26:39Z</time>
      </trkpt>
      <trkpt lat="45.71801" lon="6.75865">
        <ele>1696.2</ele>
        <time>2023-08-21T10:26:40Z</time>
      </trkpt>
      <trkpt lat="45.71802" lon="6.75867">
        <ele>1696.2</ele>
        <time>2023-08-21T10:26:41Z</time>
      </trkpt>
      <trkpt lat="45.71803" lon="6.75868">
        <ele>1696.6</ele>
        <time>2023-08-21T10:26:42Z</time>
      </trkpt>
      <trkpt lat="45.71804" lon="6.75869">
        <ele>1696.6</ele>
        <time>2023-08-21T10:26:43Z</time>
      </trkpt>
      <trkpt lat="45.71805" lon="6.75871">
        <ele>1696.6</ele>
        <time>2023-08-21T10:26:44Z</time>
      </trkpt>
      <trkpt lat="45.71807" lon="6.75872">
        <ele>1697.2</ele>
        <time>2023-08-21T10:26:45Z</time>
      </trkpt>
      <trkpt lat="45.71808" lon="6.75873">
        <ele>1697.2</ele>
        <time>2023-08-21T10:26:46Z</time>
      </trkpt>
      <trkpt lat="45.71809" lon="6.75874">
        <ele>1697.2</ele>
        <time>2023-08-21T10:26:47Z</time>
      </trkpt>
      <trkpt lat="45.71811" lon="6.75875">
        <ele>1697.2</ele>
        <time>2023-08-21T10:26:48Z</time>
      </trkpt>
      <trkpt lat="45.71812" lon="6.75877">
        <ele>1697.8</ele>
        <time>2023-08-21T10:26:49Z</time>
      </trkpt>
      <trkpt lat="45.71813" lon="6.75878">
        <ele>1698</ele>
        <time>2023-08-21T10:26:50Z</time>
      </trkpt>
      <trkpt lat="45.71814" lon="6.7588">
        <ele>1698</ele>
        <time>2023-08-21T10:26:51Z</time>
      </trkpt>
      <trkpt lat="45.71816" lon="6.75881">
        <ele>1698</ele>
        <time>2023-08-21T10:26:52Z</time>
      </trkpt>
      <trkpt lat="45.71817" lon="6.75882">
        <ele>1698</ele>
        <time>2023-08-21T10:26:53Z</time>
      </trkpt>
      <trkpt lat="45.71818" lon="6.75883">
        <ele>1698</ele>
        <time>2023-08-21T10:26:54Z</time>
      </trkpt>
      <trkpt lat="45.7182" lon="6.75885">
        <ele>1698.8</ele>
        <time>2023-08-21T10:26:55Z</time>
      </trkpt>
      <trkpt lat="45.71821" lon="6.75886">
        <ele>1698.8</ele>
        <time>2023-08-21T10:26:56Z</time>
      </trkpt>
      <trkpt lat="45.71822" lon="6.75888">
        <ele>1698.8</ele>
        <time>2023-08-21T10:26:57Z</time>
      </trkpt>
      <trkpt lat="45.71823" lon="6.75889">
        <ele>1698.8</ele>
        <time>2023-08-21T10:26:58Z</time>
      </trkpt>
      <trkpt lat="45.71824" lon="6.75891">
        <ele>1698.8</ele>
        <time>2023-08-21T10:26:59Z</time>
      </trkpt>
      <trkpt lat="45.71826" lon="6.75892">
        <ele>1699.6</ele>
        <time>2023-08-21T10:27:00Z</time>
      </trkpt>
      <trkpt lat="45.71827" lon="6.75893">
        <ele>1699.6</ele>
        <time>2023-08-21T10:27:01Z</time>
      </trkpt>
      <trkpt lat="45.71828" lon="6.75894">
        <ele>1699.6</ele>
        <time>2023-08-21T10:27:02Z</time>
      </trkpt>
      <trkpt lat="45.71829" lon="6.75896">
        <ele>1700.6</ele>
        <time>2023-08-21T10:27:03Z</time>
      </trkpt>
      <trkpt lat="45.7183" lon="6.75897">
        <ele>1700.4</ele>
        <time>2023-08-21T10:27:04Z</time>
      </trkpt>
      <trkpt lat="45.71831" lon="6.75899">
        <ele>1700.4</ele>
        <time>2023-08-21T10:27:05Z</time>
      </trkpt>
      <trkpt lat="45.71833" lon="6.759">
        <ele>1700.4</ele>
        <time>2023-08-21T10:27:06Z</time>
      </trkpt>
      <trkpt lat="45.71834" lon="6.75901">
        <ele>1701.2</ele>
        <time>2023-08-21T10:27:07Z</time>
      </trkpt>
      <trkpt lat="45.71835" lon="6.75902">
        <ele>1701</ele>
        <time>2023-08-21T10:27:08Z</time>
      </trkpt>
      <trkpt lat="45.71836" lon="6.75903">
        <ele>1701</ele>
        <time>2023-08-21T10:27:09Z</time>
      </trkpt>
      <trkpt lat="45.71838" lon="6.75904">
        <ele>1701</ele>
        <time>2023-08-21T10:27:10Z</time>
      </trkpt>
      <trkpt lat="45.7184" lon="6.75905">
        <ele>1701</ele>
        <time>2023-08-21T10:27:11Z</time>
      </trkpt>
      <trkpt lat="45.71841" lon="6.75905">
        <ele>1701.6</ele>
        <time>2023-08-21T10:27:12Z</time>
      </trkpt>
      <trkpt lat="45.71842" lon="6.75906">
        <ele>1701.8</ele>
        <time>2023-08-21T10:27:13Z</time>
      </trkpt>
      <trkpt lat="45.71844" lon="6.75907">
        <ele>1701.8</ele>
        <time>2023-08-21T10:27:14Z</time>
      </trkpt>
      <trkpt lat="45.71845" lon="6.75908">
        <ele>1701.8</ele>
        <time>2023-08-21T10:27:15Z</time>
      </trkpt>
      <trkpt lat="45.71847" lon="6.75909">
        <ele>1701.8</ele>
        <time>2023-08-21T10:27:16Z</time>
      </trkpt>
      <trkpt lat="45.71848" lon="6.7591">
        <ele>1701.8</ele>
        <time>2023-08-21T10:27:17Z</time>
      </trkpt>
      <trkpt lat="45.71849" lon="6.75912">
        <ele>1702.4</ele>
        <time>2023-08-21T10:27:18Z</time>
      </trkpt>
      <trkpt lat="45.71851" lon="6.75913">
        <ele>1702.4</ele>
        <time>2023-08-21T10:27:19Z</time>
      </trkpt>
      <trkpt lat="45.71852" lon="6.75915">
        <ele>1702.4</ele>
        <time>2023-08-21T10:27:20Z</time>
      </trkpt>
      <trkpt lat="45.71853" lon="6.75916">
        <ele>1702.4</ele>
        <time>2023-08-21T10:27:21Z</time>
      </trkpt>
      <trkpt lat="45.71854" lon="6.75917">
        <ele>1702.8</ele>
        <time>2023-08-21T10:27:22Z</time>
      </trkpt>
      <trkpt lat="45.71855" lon="6.75919">
        <ele>1702.8</ele>
        <time>2023-08-21T10:27:23Z</time>
      </trkpt>
      <trkpt lat="45.71856" lon="6.7592">
        <ele>1702.8</ele>
        <time>2023-08-21T10:27:24Z</time>
      </trkpt>
      <trkpt lat="45.71857" lon="6.75922">
        <ele>1703.4</ele>
        <time>2023-08-21T10:27:25Z</time>
      </trkpt>
      <trkpt lat="45.71859" lon="6.75923">
        <ele>1703.4</ele>
        <time>2023-08-21T10:27:26Z</time>
      </trkpt>
      <trkpt lat="45.7186" lon="6.75924">
        <ele>1703.6</ele>
        <time>2023-08-21T10:27:27Z</time>
      </trkpt>
      <trkpt lat="45.71861" lon="6.75926">
        <ele>1703.6</ele>
        <time>2023-08-21T10:27:28Z</time>
      </trkpt>
      <trkpt lat="45.71863" lon="6.75927">
        <ele>1703.6</ele>
        <time>2023-08-21T10:27:29Z</time>
      </trkpt>
      <trkpt lat="45.71864" lon="6.75928">
        <ele>1703.6</ele>
        <time>2023-08-21T10:27:30Z</time>
      </trkpt>
      <trkpt lat="45.71866" lon="6.7593">
        <ele>1703.6</ele>
        <time>2023-08-21T10:27:31Z</time>
      </trkpt>
      <trkpt lat="45.71867" lon="6.75932">
        <ele>1704.2</ele>
        <time>2023-08-21T10:27:32Z</time>
      </trkpt>
      <trkpt lat="45.71868" lon="6.75934">
        <ele>1704.2</ele>
        <time>2023-08-21T10:27:33Z</time>
      </trkpt>
      <trkpt lat="45.71869" lon="6.75935">
        <ele>1704.2</ele>
        <time>2023-08-21T10:27:34Z</time>
      </trkpt>
      <trkpt lat="45.7187" lon="6.75937">
        <ele>1704.2</ele>
        <time>2023-08-21T10:27:35Z</time>
      </trkpt>
      <trkpt lat="45.71871" lon="6.75939">
        <ele>1704.8</ele>
        <time>2023-08-21T10:27:36Z</time>
      </trkpt>
      <trkpt lat="45.71872" lon="6.7594">
        <ele>1704.8</ele>
        <time>2023-08-21T10:27:37Z</time>
      </trkpt>
      <trkpt lat="45.71874" lon="6.75941">
        <ele>1704.8</ele>
        <time>2023-08-21T10:27:38Z</time>
      </trkpt>
      <trkpt lat="45.71875" lon="6.75943">
        <ele>1704.8</ele>
        <time>2023-08-21T10:27:39Z</time>
      </trkpt>
      <trkpt lat="45.71876" lon="6.75944">
        <ele>1705.4</ele>
        <time>2023-08-21T10:27:40Z</time>
      </trkpt>
      <trkpt lat="45.71878" lon="6.75945">
        <ele>1706</ele>
        <time>2023-08-21T10:27:41Z</time>
      </trkpt>
      <trkpt lat="45.71879" lon="6.75947">
        <ele>1706</ele>
        <time>2023-08-21T10:27:42Z</time>
      </trkpt>
      <trkpt lat="45.7188" lon="6.75948">
        <ele>1706</ele>
        <time>2023-08-21T10:27:43Z</time>
      </trkpt>
      <trkpt lat="45.71881" lon="6.7595">
        <ele>1706</ele>
        <time>2023-08-21T10:27:44Z</time>
      </trkpt>
      <trkpt lat="45.71883" lon="6.75951">
        <ele>1705.8</ele>
        <time>2023-08-21T10:27:45Z</time>
      </trkpt>
      <trkpt lat="45.71884" lon="6.75952">
        <ele>1705.8</ele>
        <time>2023-08-21T10:27:46Z</time>
      </trkpt>
      <trkpt lat="45.71886" lon="6.75953">
        <ele>1705.8</ele>
        <time>2023-08-21T10:27:47Z</time>
      </trkpt>
      <trkpt lat="45.71887" lon="6.75954">
        <ele>1706.6</ele>
        <time>2023-08-21T10:27:48Z</time>
      </trkpt>
      <trkpt lat="45.71888" lon="6.75955">
        <ele>1706.6</ele>
        <time>2023-08-21T10:27:49Z</time>
      </trkpt>
      <trkpt lat="45.7189" lon="6.75957">
        <ele>1706.6</ele>
        <time>2023-08-21T10:27:50Z</time>
      </trkpt>
      <trkpt lat="45.71891" lon="6.75958">
        <ele>1706.6</ele>
        <time>2023-08-21T10:27:51Z</time>
      </trkpt>
      <trkpt lat="45.71892" lon="6.75959">
        <ele>1707.2</ele>
        <time>2023-08-21T10:27:52Z</time>
      </trkpt>
      <trkpt lat="45.71894" lon="6.7596">
        <ele>1707.2</ele>
        <time>2023-08-21T10:27:53Z</time>
      </trkpt>
      <trkpt lat="45.71895" lon="6.75962">
        <ele>1707.6</ele>
        <time>2023-08-21T10:27:54Z</time>
      </trkpt>
      <trkpt lat="45.71896" lon="6.75963">
        <ele>1707.6</ele>
        <time>2023-08-21T10:27:55Z</time>
      </trkpt>
      <trkpt lat="45.71897" lon="6.75965">
        <ele>1707.6</ele>
        <time>2023-08-21T10:27:56Z</time>
      </trkpt>
      <trkpt lat="45.71899" lon="6.75966">
        <ele>1707.6</ele>
        <time>2023-08-21T10:27:57Z</time>
      </trkpt>
      <trkpt lat="45.719" lon="6.75967">
        <ele>1708</ele>
        <time>2023-08-21T10:27:58Z</time>
      </trkpt>
      <trkpt lat="45.71901" lon="6.75969">
        <ele>1708.2</ele>
        <time>2023-08-21T10:27:59Z</time>
      </trkpt>
      <trkpt lat="45.71902" lon="6.7597">
        <ele>1708.2</ele>
        <time>2023-08-21T10:28:00Z</time>
      </trkpt>
      <trkpt lat="45.71903" lon="6.75972">
        <ele>1708.2</ele>
        <time>2023-08-21T10:28:01Z</time>
      </trkpt>
      <trkpt lat="45.71904" lon="6.75973">
        <ele>1708.2</ele>
        <time>2023-08-21T10:28:02Z</time>
      </trkpt>
      <trkpt lat="45.71906" lon="6.75975">
        <ele>1708.4</ele>
        <time>2023-08-21T10:28:03Z</time>
      </trkpt>
      <trkpt lat="45.71907" lon="6.75977">
        <ele>1708.4</ele>
        <time>2023-08-21T10:28:04Z</time>
      </trkpt>
      <trkpt lat="45.71909" lon="6.75978">
        <ele>1708.4</ele>
        <time>2023-08-21T10:28:05Z</time>
      </trkpt>
      <trkpt lat="45.71911" lon="6.7598">
        <ele>1708.8</ele>
        <time>2023-08-21T10:28:06Z</time>
      </trkpt>
      <trkpt lat="45.71912" lon="6.75982">
        <ele>1708.8</ele>
        <time>2023-08-21T10:28:07Z</time>
      </trkpt>
      <trkpt lat="45.71914" lon="6.75985">
        <ele>1708.8</ele>
        <time>2023-08-21T10:28:08Z</time>
      </trkpt>
      <trkpt lat="45.71916" lon="6.75987">
        <ele>1708.8</ele>
        <time>2023-08-21T10:28:09Z</time>
      </trkpt>
      <trkpt lat="45.71918" lon="6.75989">
        <ele>1708.8</ele>
        <time>2023-08-21T10:28:10Z</time>
      </trkpt>
      <trkpt lat="45.71921" lon="6.75992">
        <ele>1708.8</ele>
        <time>2023-08-21T10:28:11Z</time>
      </trkpt>
      <trkpt lat="45.71923" lon="6.75995">
        <ele>1708.8</ele>
        <time>2023-08-21T10:28:12Z</time>
      </trkpt>
      <trkpt lat="45.71925" lon="6.75998">
        <ele>1708.8</ele>
        <time>2023-08-21T10:28:13Z</time>
      </trkpt>
      <trkpt lat="45.71927" lon="6.76">
        <ele>1708.8</ele>
        <time>2023-08-21T10:28:14Z</time>
      </trkpt>
      <trkpt lat="45.71929" lon="6.76003">
        <ele>1708.8</ele>
        <time>2023-08-21T10:28:15Z</time>
      </trkpt>
      <trkpt lat="45.71932" lon="6.76007">
        <ele>1709.4</ele>
        <time>2023-08-21T10:28:16Z</time>
      </trkpt>
      <trkpt lat="45.71934" lon="6.76009">
        <ele>1709.4</ele>
        <time>2023-08-21T10:28:17Z</time>
      </trkpt>
      <trkpt lat="45.71935" lon="6.76012">
        <ele>1709.4</ele>
        <time>2023-08-21T10:28:18Z</time>
      </trkpt>
      <trkpt lat="45.71937" lon="6.76014">
        <ele>1709.4</ele>
        <time>2023-08-21T10:28:19Z</time>
      </trkpt>
      <trkpt lat="45.71938" lon="6.76017">
        <ele>1709.4</ele>
        <time>2023-08-21T10:28:20Z</time>
      </trkpt>
      <trkpt lat="45.7194" lon="6.76019">
        <ele>1709.4</ele>
        <time>2023-08-21T10:28:21Z</time>
      </trkpt>
      <trkpt lat="45.71942" lon="6.76021">
        <ele>1709.6</ele>
        <time>2023-08-21T10:28:22Z</time>
      </trkpt>
      <trkpt lat="45.71944" lon="6.76023">
        <ele>1709.6</ele>
        <time>2023-08-21T10:28:23Z</time>
      </trkpt>
      <trkpt lat="45.71946" lon="6.76026">
        <ele>1709.6</ele>
        <time>2023-08-21T10:28:24Z</time>
      </trkpt>
      <trkpt lat="45.71948" lon="6.76028">
        <ele>1709.6</ele>
        <time>2023-08-21T10:28:25Z</time>
      </trkpt>
      <trkpt lat="45.7195" lon="6.7603">
        <ele>1709.6</ele>
        <time>2023-08-21T10:28:26Z</time>
      </trkpt>
      <trkpt lat="45.71952" lon="6.76032">
        <ele>1710</ele>
        <time>2023-08-21T10:28:27Z</time>
      </trkpt>
      <trkpt lat="45.71954" lon="6.76035">
        <ele>1710</ele>
        <time>2023-08-21T10:28:28Z</time>
      </trkpt>
      <trkpt lat="45.71956" lon="6.76037">
        <ele>1710</ele>
        <time>2023-08-21T10:28:29Z</time>
      </trkpt>
      <trkpt lat="45.71958" lon="6.76039">
        <ele>1710</ele>
        <time>2023-08-21T10:28:30Z</time>
      </trkpt>
      <trkpt lat="45.7196" lon="6.76041">
        <ele>1710.8</ele>
        <time>2023-08-21T10:28:31Z</time>
      </trkpt>
      <trkpt lat="45.71962" lon="6.76043">
        <ele>1710.8</ele>
        <time>2023-08-21T10:28:32Z</time>
      </trkpt>
      <trkpt lat="45.71964" lon="6.76045">
        <ele>1710.8</ele>
        <time>2023-08-21T10:28:33Z</time>
      </trkpt>
      <trkpt lat="45.71965" lon="6.76048">
        <ele>1711.6</ele>
        <time>2023-08-21T10:28:34Z</time>
      </trkpt>
      <trkpt lat="45.71967" lon="6.7605">
        <ele>1711.6</ele>
        <time>2023-08-21T10:28:35Z</time>
      </trkpt>
      <trkpt lat="45.71969" lon="6.76053">
        <ele>1711.6</ele>
        <time>2023-08-21T10:28:36Z</time>
      </trkpt>
      <trkpt lat="45.7197" lon="6.76055">
        <ele>1711.6</ele>
        <time>2023-08-21T10:28:37Z</time>
      </trkpt>
      <trkpt lat="45.71972" lon="6.76057">
        <ele>1711.6</ele>
        <time>2023-08-21T10:28:38Z</time>
      </trkpt>
      <trkpt lat="45.71974" lon="6.76059">
        <ele>1711.6</ele>
        <time>2023-08-21T10:28:39Z</time>
      </trkpt>
      <trkpt lat="45.71976" lon="6.76061">
        <ele>1712.2</ele>
        <time>2023-08-21T10:28:40Z</time>
      </trkpt>
      <trkpt lat="45.71979" lon="6.76065">
        <ele>1712.6</ele>
        <time>2023-08-21T10:28:41Z</time>
      </trkpt>
      <trkpt lat="45.7198" lon="6.76066">
        <ele>1712.6</ele>
        <time>2023-08-21T10:28:42Z</time>
      </trkpt>
      <trkpt lat="45.71982" lon="6.76069">
        <ele>1712.6</ele>
        <time>2023-08-21T10:28:43Z</time>
      </trkpt>
      <trkpt lat="45.71984" lon="6.76071">
        <ele>1712.6</ele>
        <time>2023-08-21T10:28:44Z</time>
      </trkpt>
      <trkpt lat="45.71986" lon="6.76073">
        <ele>1712.6</ele>
        <time>2023-08-21T10:28:45Z</time>
      </trkpt>
      <trkpt lat="45.71988" lon="6.76075">
        <ele>1712.6</ele>
        <time>2023-08-21T10:28:46Z</time>
      </trkpt>
      <trkpt lat="45.7199" lon="6.76076">
        <ele>1712.6</ele>
        <time>2023-08-21T10:28:47Z</time>
      </trkpt>
      <trkpt lat="45.71992" lon="6.76078">
        <ele>1712.6</ele>
        <time>2023-08-21T10:28:48Z</time>
      </trkpt>
      <trkpt lat="45.71994" lon="6.7608">
        <ele>1713.2</ele>
        <time>2023-08-21T10:28:49Z</time>
      </trkpt>
      <trkpt lat="45.71996" lon="6.76082">
        <ele>1713.4</ele>
        <time>2023-08-21T10:28:50Z</time>
      </trkpt>
      <trkpt lat="45.71997" lon="6.76083">
        <ele>1713.4</ele>
        <time>2023-08-21T10:28:51Z</time>
      </trkpt>
      <trkpt lat="45.71999" lon="6.76085">
        <ele>1713.4</ele>
        <time>2023-08-21T10:28:52Z</time>
      </trkpt>
      <trkpt lat="45.72" lon="6.76087">
        <ele>1714.2</ele>
        <time>2023-08-21T10:28:53Z</time>
      </trkpt>
      <trkpt lat="45.72003" lon="6.76089">
        <ele>1714.2</ele>
        <time>2023-08-21T10:28:54Z</time>
      </trkpt>
      <trkpt lat="45.72005" lon="6.76091">
        <ele>1714.2</ele>
        <time>2023-08-21T10:28:55Z</time>
      </trkpt>
      <trkpt lat="45.72007" lon="6.76093">
        <ele>1714.2</ele>
        <time>2023-08-21T10:28:56Z</time>
      </trkpt>
      <trkpt lat="45.72009" lon="6.76096">
        <ele>1714.2</ele>
        <time>2023-08-21T10:28:57Z</time>
      </trkpt>
      <trkpt lat="45.72011" lon="6.76099">
        <ele>1715</ele>
        <time>2023-08-21T10:28:58Z</time>
      </trkpt>
      <trkpt lat="45.72013" lon="6.761">
        <ele>1715.4</ele>
        <time>2023-08-21T10:28:59Z</time>
      </trkpt>
      <trkpt lat="45.72015" lon="6.76102">
        <ele>1715.4</ele>
        <time>2023-08-21T10:29:00Z</time>
      </trkpt>
      <trkpt lat="45.72016" lon="6.76105">
        <ele>1715.4</ele>
        <time>2023-08-21T10:29:01Z</time>
      </trkpt>
      <trkpt lat="45.72018" lon="6.76107">
        <ele>1715.4</ele>
        <time>2023-08-21T10:29:02Z</time>
      </trkpt>
      <trkpt lat="45.7202" lon="6.76108">
        <ele>1715.4</ele>
        <time>2023-08-21T10:29:03Z</time>
      </trkpt>
      <trkpt lat="45.72023" lon="6.7611">
        <ele>1716</ele>
        <time>2023-08-21T10:29:04Z</time>
      </trkpt>
      <trkpt lat="45.72025" lon="6.76112">
        <ele>1716</ele>
        <time>2023-08-21T10:29:05Z</time>
      </trkpt>
      <trkpt lat="45.72027" lon="6.76114">
        <ele>1716</ele>
        <time>2023-08-21T10:29:06Z</time>
      </trkpt>
      <trkpt lat="45.72028" lon="6.76116">
        <ele>1716.4</ele>
        <time>2023-08-21T10:29:07Z</time>
      </trkpt>
      <trkpt lat="45.72031" lon="6.76118">
        <ele>1716.6</ele>
        <time>2023-08-21T10:29:08Z</time>
      </trkpt>
      <trkpt lat="45.72033" lon="6.76119">
        <ele>1716.6</ele>
        <time>2023-08-21T10:29:09Z</time>
      </trkpt>
      <trkpt lat="45.72035" lon="6.7612">
        <ele>1716.6</ele>
        <time>2023-08-21T10:29:10Z</time>
      </trkpt>
      <trkpt lat="45.72037" lon="6.76122">
        <ele>1717.2</ele>
        <time>2023-08-21T10:29:11Z</time>
      </trkpt>
      <trkpt lat="45.72039" lon="6.76123">
        <ele>1717.4</ele>
        <time>2023-08-21T10:29:12Z</time>
      </trkpt>
      <trkpt lat="45.72041" lon="6.76125">
        <ele>1717.4</ele>
        <time>2023-08-21T10:29:13Z</time>
      </trkpt>
      <trkpt lat="45.72043" lon="6.76126">
        <ele>1717.4</ele>
        <time>2023-08-21T10:29:14Z</time>
      </trkpt>
      <trkpt lat="45.72045" lon="6.76128">
        <ele>1717.4</ele>
        <time>2023-08-21T10:29:15Z</time>
      </trkpt>
      <trkpt lat="45.72047" lon="6.76129">
        <ele>1718.2</ele>
        <time>2023-08-21T10:29:16Z</time>
      </trkpt>
      <trkpt lat="45.72049" lon="6.76131">
        <ele>1718.2</ele>
        <time>2023-08-21T10:29:17Z</time>
      </trkpt>
      <trkpt lat="45.72051" lon="6.76133">
        <ele>1718</ele>
        <time>2023-08-21T10:29:18Z</time>
      </trkpt>
      <trkpt lat="45.72053" lon="6.76135">
        <ele>1718</ele>
        <time>2023-08-21T10:29:19Z</time>
      </trkpt>
      <trkpt lat="45.72055" lon="6.76137">
        <ele>1718</ele>
        <time>2023-08-21T10:29:20Z</time>
      </trkpt>
      <trkpt lat="45.72057" lon="6.76139">
        <ele>1718.4</ele>
        <time>2023-08-21T10:29:21Z</time>
      </trkpt>
      <trkpt lat="45.7206" lon="6.7614">
        <ele>1718.4</ele>
        <time>2023-08-21T10:29:22Z</time>
      </trkpt>
      <trkpt lat="45.72062" lon="6.76142">
        <ele>1718.4</ele>
        <time>2023-08-21T10:29:23Z</time>
      </trkpt>
      <trkpt lat="45.72064" lon="6.76144">
        <ele>1718.4</ele>
        <time>2023-08-21T10:29:24Z</time>
      </trkpt>
      <trkpt lat="45.72067" lon="6.76145">
        <ele>1718.4</ele>
        <time>2023-08-21T10:29:25Z</time>
      </trkpt>
      <trkpt lat="45.72069" lon="6.76147">
        <ele>1719</ele>
        <time>2023-08-21T10:29:26Z</time>
      </trkpt>
      <trkpt lat="45.72072" lon="6.76149">
        <ele>1719</ele>
        <time>2023-08-21T10:29:27Z</time>
      </trkpt>
      <trkpt lat="45.72074" lon="6.76151">
        <ele>1719</ele>
        <time>2023-08-21T10:29:28Z</time>
      </trkpt>
      <trkpt lat="45.72077" lon="6.76152">
        <ele>1719</ele>
        <time>2023-08-21T10:29:29Z</time>
      </trkpt>
      <trkpt lat="45.72079" lon="6.76154">
        <ele>1719</ele>
        <time>2023-08-21T10:29:30Z</time>
      </trkpt>
      <trkpt lat="45.72082" lon="6.76156">
        <ele>1719.2</ele>
        <time>2023-08-21T10:29:31Z</time>
      </trkpt>
      <trkpt lat="45.72085" lon="6.76158">
        <ele>1719</ele>
        <time>2023-08-21T10:29:32Z</time>
      </trkpt>
      <trkpt lat="45.72088" lon="6.7616">
        <ele>1719</ele>
        <time>2023-08-21T10:29:33Z</time>
      </trkpt>
      <trkpt lat="45.72091" lon="6.76162">
        <ele>1719</ele>
        <time>2023-08-21T10:29:34Z</time>
      </trkpt>
      <trkpt lat="45.72094" lon="6.76164">
        <ele>1719.2</ele>
        <time>2023-08-21T10:29:35Z</time>
      </trkpt>
      <trkpt lat="45.72098" lon="6.76167">
        <ele>1719.2</ele>
        <time>2023-08-21T10:29:36Z</time>
      </trkpt>
      <trkpt lat="45.72101" lon="6.7617">
        <ele>1719.2</ele>
        <time>2023-08-21T10:29:37Z</time>
      </trkpt>
      <trkpt lat="45.72104" lon="6.76173">
        <ele>1719.2</ele>
        <time>2023-08-21T10:29:38Z</time>
      </trkpt>
      <trkpt lat="45.72108" lon="6.76176">
        <ele>1719.2</ele>
        <time>2023-08-21T10:29:39Z</time>
      </trkpt>
      <trkpt lat="45.72112" lon="6.76178">
        <ele>1719.2</ele>
        <time>2023-08-21T10:29:40Z</time>
      </trkpt>
      <trkpt lat="45.72115" lon="6.76181">
        <ele>1719.2</ele>
        <time>2023-08-21T10:29:41Z</time>
      </trkpt>
      <trkpt lat="45.72119" lon="6.76184">
        <ele>1719.8</ele>
        <time>2023-08-21T10:29:42Z</time>
      </trkpt>
      <trkpt lat="45.72122" lon="6.76187">
        <ele>1719.8</ele>
        <time>2023-08-21T10:29:43Z</time>
      </trkpt>
      <trkpt lat="45.72126" lon="6.7619">
        <ele>1719.4</ele>
        <time>2023-08-21T10:29:44Z</time>
      </trkpt>
      <trkpt lat="45.7213" lon="6.76193">
        <ele>1719.8</ele>
        <time>2023-08-21T10:29:45Z</time>
      </trkpt>
      <trkpt lat="45.72134" lon="6.76196">
        <ele>1719.8</ele>
        <time>2023-08-21T10:29:46Z</time>
      </trkpt>
      <trkpt lat="45.72138" lon="6.76199">
        <ele>1719.8</ele>
        <time>2023-08-21T10:29:47Z</time>
      </trkpt>
      <trkpt lat="45.72142" lon="6.76203">
        <ele>1719.8</ele>
        <time>2023-08-21T10:29:48Z</time>
      </trkpt>
      <trkpt lat="45.72146" lon="6.76207">
        <ele>1719.6</ele>
        <time>2023-08-21T10:29:49Z</time>
      </trkpt>
      <trkpt lat="45.7215" lon="6.76211">
        <ele>1719.6</ele>
        <time>2023-08-21T10:29:50Z</time>
      </trkpt>
      <trkpt lat="45.72153" lon="6.76216">
        <ele>1719.6</ele>
        <time>2023-08-21T10:29:51Z</time>
      </trkpt>
      <trkpt lat="45.72156" lon="6.76221">
        <ele>1719.6</ele>
        <time>2023-08-21T10:29:52Z</time>
      </trkpt>
      <trkpt lat="45.72159" lon="6.76227">
        <ele>1719.6</ele>
        <time>2023-08-21T10:29:53Z</time>
      </trkpt>
      <trkpt lat="45.72163" lon="6.76232">
        <ele>1719.6</ele>
        <time>2023-08-21T10:29:54Z</time>
      </trkpt>
      <trkpt lat="45.72166" lon="6.76237">
        <ele>1719.8</ele>
        <time>2023-08-21T10:29:55Z</time>
      </trkpt>
      <trkpt lat="45.7217" lon="6.76241">
        <ele>1719.8</ele>
        <time>2023-08-21T10:29:56Z</time>
      </trkpt>
      <trkpt lat="45.72174" lon="6.76246">
        <ele>1719.8</ele>
        <time>2023-08-21T10:29:57Z</time>
      </trkpt>
      <trkpt lat="45.72177" lon="6.7625">
        <ele>1720</ele>
        <time>2023-08-21T10:29:58Z</time>
      </trkpt>
      <trkpt lat="45.72181" lon="6.76253">
        <ele>1720.6</ele>
        <time>2023-08-21T10:29:59Z</time>
      </trkpt>
      <trkpt lat="45.72184" lon="6.76257">
        <ele>1720.6</ele>
        <time>2023-08-21T10:30:00Z</time>
      </trkpt>
      <trkpt lat="45.72187" lon="6.76261">
        <ele>1720.6</ele>
        <time>2023-08-21T10:30:01Z</time>
      </trkpt>
      <trkpt lat="45.7219" lon="6.76264">
        <ele>1720.6</ele>
        <time>2023-08-21T10:30:02Z</time>
      </trkpt>
      <trkpt lat="45.72193" lon="6.76268">
        <ele>1720.4</ele>
        <time>2023-08-21T10:30:03Z</time>
      </trkpt>
      <trkpt lat="45.72196" lon="6.76271">
        <ele>1720.4</ele>
        <time>2023-08-21T10:30:04Z</time>
      </trkpt>
      <trkpt lat="45.72198" lon="6.76274">
        <ele>1720.4</ele>
        <time>2023-08-21T10:30:05Z</time>
      </trkpt>
      <trkpt lat="45.722" lon="6.76276">
        <ele>1720.4</ele>
        <time>2023-08-21T10:30:06Z</time>
      </trkpt>
      <trkpt lat="45.72203" lon="6.76279">
        <ele>1720.4</ele>
        <time>2023-08-21T10:30:07Z</time>
      </trkpt>
      <trkpt lat="45.72205" lon="6.76282">
        <ele>1721.2</ele>
        <time>2023-08-21T10:30:08Z</time>
      </trkpt>
      <trkpt lat="45.72207" lon="6.76286">
        <ele>1721.2</ele>
        <time>2023-08-21T10:30:09Z</time>
      </trkpt>
      <trkpt lat="45.72208" lon="6.76289">
        <ele>1721.2</ele>
        <time>2023-08-21T10:30:10Z</time>
      </trkpt>
      <trkpt lat="45.7221" lon="6.76293">
        <ele>1721.2</ele>
        <time>2023-08-21T10:30:11Z</time>
      </trkpt>
      <trkpt lat="45.72212" lon="6.76297">
        <ele>1722</ele>
        <time>2023-08-21T10:30:12Z</time>
      </trkpt>
      <trkpt lat="45.72214" lon="6.763">
        <ele>1722.8</ele>
        <time>2023-08-21T10:30:13Z</time>
      </trkpt>
      <trkpt lat="45.72216" lon="6.76304">
        <ele>1722.8</ele>
        <time>2023-08-21T10:30:14Z</time>
      </trkpt>
      <trkpt lat="45.72218" lon="6.76307">
        <ele>1722.8</ele>
        <time>2023-08-21T10:30:15Z</time>
      </trkpt>
      <trkpt lat="45.72221" lon="6.76311">
        <ele>1722.8</ele>
        <time>2023-08-21T10:30:16Z</time>
      </trkpt>
      <trkpt lat="45.72223" lon="6.76315">
        <ele>1722.6</ele>
        <time>2023-08-21T10:30:17Z</time>
      </trkpt>
      <trkpt lat="45.72225" lon="6.76318">
        <ele>1722.6</ele>
        <time>2023-08-21T10:30:18Z</time>
      </trkpt>
      <trkpt lat="45.72228" lon="6.76321">
        <ele>1722.6</ele>
        <time>2023-08-21T10:30:19Z</time>
      </trkpt>
      <trkpt lat="45.7223" lon="6.76323">
        <ele>1722.6</ele>
        <time>2023-08-21T10:30:20Z</time>
      </trkpt>
      <trkpt lat="45.72233" lon="6.76326">
        <ele>1722.6</ele>
        <time>2023-08-21T10:30:21Z</time>
      </trkpt>
      <trkpt lat="45.72235" lon="6.76329">
        <ele>1723</ele>
        <time>2023-08-21T10:30:22Z</time>
      </trkpt>
      <trkpt lat="45.72238" lon="6.76332">
        <ele>1723</ele>
        <time>2023-08-21T10:30:23Z</time>
      </trkpt>
      <trkpt lat="45.7224" lon="6.76334">
        <ele>1723</ele>
        <time>2023-08-21T10:30:24Z</time>
      </trkpt>
      <trkpt lat="45.72242" lon="6.76337">
        <ele>1723</ele>
        <time>2023-08-21T10:30:25Z</time>
      </trkpt>
      <trkpt lat="45.72244" lon="6.7634">
        <ele>1723.6</ele>
        <time>2023-08-21T10:30:26Z</time>
      </trkpt>
      <trkpt lat="45.72245" lon="6.76343">
        <ele>1724</ele>
        <time>2023-08-21T10:30:27Z</time>
      </trkpt>
      <trkpt lat="45.72248" lon="6.76345">
        <ele>1724</ele>
        <time>2023-08-21T10:30:28Z</time>
      </trkpt>
      <trkpt lat="45.7225" lon="6.76347">
        <ele>1724</ele>
        <time>2023-08-21T10:30:29Z</time>
      </trkpt>
      <trkpt lat="45.72253" lon="6.76349">
        <ele>1724</ele>
        <time>2023-08-21T10:30:30Z</time>
      </trkpt>
      <trkpt lat="45.72256" lon="6.76351">
        <ele>1723.6</ele>
        <time>2023-08-21T10:30:31Z</time>
      </trkpt>
      <trkpt lat="45.72259" lon="6.76352">
        <ele>1723.6</ele>
        <time>2023-08-21T10:30:32Z</time>
      </trkpt>
      <trkpt lat="45.72262" lon="6.76354">
        <ele>1723.6</ele>
        <time>2023-08-21T10:30:33Z</time>
      </trkpt>
      <trkpt lat="45.72265" lon="6.76355">
        <ele>1723.6</ele>
        <time>2023-08-21T10:30:34Z</time>
      </trkpt>
      <trkpt lat="45.72269" lon="6.76357">
        <ele>1723.6</ele>
        <time>2023-08-21T10:30:35Z</time>
      </trkpt>
      <trkpt lat="45.72271" lon="6.76358">
        <ele>1724.4</ele>
        <time>2023-08-21T10:30:36Z</time>
      </trkpt>
      <trkpt lat="45.72274" lon="6.7636">
        <ele>1724.4</ele>
        <time>2023-08-21T10:30:37Z</time>
      </trkpt>
      <trkpt lat="45.72277" lon="6.76361">
        <ele>1724.4</ele>
        <time>2023-08-21T10:30:38Z</time>
      </trkpt>
      <trkpt lat="45.7228" lon="6.76362">
        <ele>1724.4</ele>
        <time>2023-08-21T10:30:39Z</time>
      </trkpt>
      <trkpt lat="45.72282" lon="6.76363">
        <ele>1724.4</ele>
        <time>2023-08-21T10:30:40Z</time>
      </trkpt>
      <trkpt lat="45.72285" lon="6.76365">
        <ele>1724.4</ele>
        <time>2023-08-21T10:30:41Z</time>
      </trkpt>
      <trkpt lat="45.72287" lon="6.76367">
        <ele>1724.4</ele>
        <time>2023-08-21T10:30:42Z</time>
      </trkpt>
      <trkpt lat="45.72289" lon="6.76369">
        <ele>1724.4</ele>
        <time>2023-08-21T10:30:43Z</time>
      </trkpt>
      <trkpt lat="45.72291" lon="6.76371">
        <ele>1724.6</ele>
        <time>2023-08-21T10:30:44Z</time>
      </trkpt>
      <trkpt lat="45.72293" lon="6.76373">
        <ele>1724.4</ele>
        <time>2023-08-21T10:30:45Z</time>
      </trkpt>
      <trkpt lat="45.72295" lon="6.76375">
        <ele>1724.4</ele>
        <time>2023-08-21T10:30:46Z</time>
      </trkpt>
      <trkpt lat="45.72297" lon="6.76377">
        <ele>1724.4</ele>
        <time>2023-08-21T10:30:47Z</time>
      </trkpt>
      <trkpt lat="45.72299" lon="6.76378">
        <ele>1724.4</ele>
        <time>2023-08-21T10:30:48Z</time>
      </trkpt>
      <trkpt lat="45.72301" lon="6.7638">
        <ele>1724.4</ele>
        <time>2023-08-21T10:30:49Z</time>
      </trkpt>
      <trkpt lat="45.72303" lon="6.76381">
        <ele>1724.4</ele>
        <time>2023-08-21T10:30:50Z</time>
      </trkpt>
      <trkpt lat="45.72305" lon="6.76382">
        <ele>1724.4</ele>
        <time>2023-08-21T10:30:51Z</time>
      </trkpt>
      <trkpt lat="45.72308" lon="6.76383">
        <ele>1724.4</ele>
        <time>2023-08-21T10:30:52Z</time>
      </trkpt>
      <trkpt lat="45.72311" lon="6.76384">
        <ele>1724.4</ele>
        <time>2023-08-21T10:30:53Z</time>
      </trkpt>
      <trkpt lat="45.72313" lon="6.76386">
        <ele>1723.8</ele>
        <time>2023-08-21T10:30:54Z</time>
      </trkpt>
      <trkpt lat="45.72316" lon="6.76389">
        <ele>1723.8</ele>
        <time>2023-08-21T10:30:55Z</time>
      </trkpt>
      <trkpt lat="45.72319" lon="6.76392">
        <ele>1723.8</ele>
        <time>2023-08-21T10:30:56Z</time>
      </trkpt>
      <trkpt lat="45.72322" lon="6.76394">
        <ele>1723.8</ele>
        <time>2023-08-21T10:30:57Z</time>
      </trkpt>
      <trkpt lat="45.72325" lon="6.76397">
        <ele>1723.8</ele>
        <time>2023-08-21T10:30:58Z</time>
      </trkpt>
      <trkpt lat="45.72328" lon="6.76398">
        <ele>1723.2</ele>
        <time>2023-08-21T10:30:59Z</time>
      </trkpt>
      <trkpt lat="45.7233" lon="6.764">
        <ele>1723.2</ele>
        <time>2023-08-21T10:31:00Z</time>
      </trkpt>
      <trkpt lat="45.72333" lon="6.76402">
        <ele>1723.2</ele>
        <time>2023-08-21T10:31:01Z</time>
      </trkpt>
      <trkpt lat="45.72336" lon="6.76404">
        <ele>1722.6</ele>
        <time>2023-08-21T10:31:02Z</time>
      </trkpt>
      <trkpt lat="45.72339" lon="6.76407">
        <ele>1722.2</ele>
        <time>2023-08-21T10:31:03Z</time>
      </trkpt>
      <trkpt lat="45.72342" lon="6.76411">
        <ele>1722.2</ele>
        <time>2023-08-21T10:31:04Z</time>
      </trkpt>
      <trkpt lat="45.72345" lon="6.76415">
        <ele>1722.2</ele>
        <time>2023-08-21T10:31:05Z</time>
      </trkpt>
      <trkpt lat="45.72349" lon="6.7642">
        <ele>1722.2</ele>
        <time>2023-08-21T10:31:06Z</time>
      </trkpt>
      <trkpt lat="45.72352" lon="6.76425">
        <ele>1722</ele>
        <time>2023-08-21T10:31:07Z</time>
      </trkpt>
      <trkpt lat="45.72356" lon="6.7643">
        <ele>1721.4</ele>
        <time>2023-08-21T10:31:08Z</time>
      </trkpt>
      <trkpt lat="45.72359" lon="6.76435">
        <ele>1721.4</ele>
        <time>2023-08-21T10:31:09Z</time>
      </trkpt>
      <trkpt lat="45.72363" lon="6.7644">
        <ele>1721.4</ele>
        <time>2023-08-21T10:31:10Z</time>
      </trkpt>
      <trkpt lat="45.72367" lon="6.76445">
        <ele>1721.4</ele>
        <time>2023-08-21T10:31:11Z</time>
      </trkpt>
      <trkpt lat="45.72371" lon="6.7645">
        <ele>1721.4</ele>
        <time>2023-08-21T10:31:12Z</time>
      </trkpt>
      <trkpt lat="45.72374" lon="6.76455">
        <ele>1721.6</ele>
        <time>2023-08-21T10:31:13Z</time>
      </trkpt>
      <trkpt lat="45.72377" lon="6.76461">
        <ele>1721.2</ele>
        <time>2023-08-21T10:31:14Z</time>
      </trkpt>
      <trkpt lat="45.7238" lon="6.76466">
        <ele>1721.2</ele>
        <time>2023-08-21T10:31:15Z</time>
      </trkpt>
      <trkpt lat="45.72383" lon="6.7647">
        <ele>1721.2</ele>
        <time>2023-08-21T10:31:16Z</time>
      </trkpt>
      <trkpt lat="45.72386" lon="6.76475">
        <ele>1721.4</ele>
        <time>2023-08-21T10:31:17Z</time>
      </trkpt>
      <trkpt lat="45.72389" lon="6.76479">
        <ele>1721.4</ele>
        <time>2023-08-21T10:31:18Z</time>
      </trkpt>
      <trkpt lat="45.72392" lon="6.76483">
        <ele>1721.4</ele>
        <time>2023-08-21T10:31:19Z</time>
      </trkpt>
      <trkpt lat="45.72395" lon="6.76487">
        <ele>1721.4</ele>
        <time>2023-08-21T10:31:20Z</time>
      </trkpt>
      <trkpt lat="45.72398" lon="6.76491">
        <ele>1721.6</ele>
        <time>2023-08-21T10:31:21Z</time>
      </trkpt>
      <trkpt lat="45.724" lon="6.76494">
        <ele>1721.6</ele>
        <time>2023-08-21T10:31:22Z</time>
      </trkpt>
      <trkpt lat="45.72403" lon="6.76498">
        <ele>1721.8</ele>
        <time>2023-08-21T10:31:23Z</time>
      </trkpt>
      <trkpt lat="45.72405" lon="6.76502">
        <ele>1721.8</ele>
        <time>2023-08-21T10:31:24Z</time>
      </trkpt>
      <trkpt lat="45.72408" lon="6.76505">
        <ele>1721.4</ele>
        <time>2023-08-21T10:31:25Z</time>
      </trkpt>
      <trkpt lat="45.72411" lon="6.76509">
        <ele>1721.4</ele>
        <time>2023-08-21T10:31:26Z</time>
      </trkpt>
      <trkpt lat="45.72413" lon="6.76512">
        <ele>1721.6</ele>
        <time>2023-08-21T10:31:27Z</time>
      </trkpt>
      <trkpt lat="45.72416" lon="6.76515">
        <ele>1721.6</ele>
        <time>2023-08-21T10:31:28Z</time>
      </trkpt>
      <trkpt lat="45.72418" lon="6.76517">
        <ele>1721.6</ele>
        <time>2023-08-21T10:31:29Z</time>
      </trkpt>
      <trkpt lat="45.72421" lon="6.76519">
        <ele>1721.6</ele>
        <time>2023-08-21T10:31:30Z</time>
      </trkpt>
      <trkpt lat="45.72424" lon="6.7652">
        <ele>1721.6</ele>
        <time>2023-08-21T10:31:31Z</time>
      </trkpt>
      <trkpt lat="45.72427" lon="6.76521">
        <ele>1721.6</ele>
        <time>2023-08-21T10:31:32Z</time>
      </trkpt>
      <trkpt lat="45.72431" lon="6.76522">
        <ele>1721.6</ele>
        <time>2023-08-21T10:31:33Z</time>
      </trkpt>
      <trkpt lat="45.72434" lon="6.76523">
        <ele>1721.4</ele>
        <time>2023-08-21T10:31:34Z</time>
      </trkpt>
      <trkpt lat="45.72438" lon="6.76523">
        <ele>1721.4</ele>
        <time>2023-08-21T10:31:35Z</time>
      </trkpt>
      <trkpt lat="45.72441" lon="6.76523">
        <ele>1721.2</ele>
        <time>2023-08-21T10:31:36Z</time>
      </trkpt>
      <trkpt lat="45.72444" lon="6.76523">
        <ele>1721.2</ele>
        <time>2023-08-21T10:31:37Z</time>
      </trkpt>
      <trkpt lat="45.72447" lon="6.76523">
        <ele>1721.2</ele>
        <time>2023-08-21T10:31:38Z</time>
      </trkpt>
      <trkpt lat="45.72449" lon="6.76522">
        <ele>1721.2</ele>
        <time>2023-08-21T10:31:39Z</time>
      </trkpt>
      <trkpt lat="45.72451" lon="6.76521">
        <ele>1721.8</ele>
        <time>2023-08-21T10:31:40Z</time>
      </trkpt>
      <trkpt lat="45.72453" lon="6.76518">
        <ele>1721.8</ele>
        <time>2023-08-21T10:31:41Z</time>
      </trkpt>
      <trkpt lat="45.72455" lon="6.76516">
        <ele>1721.6</ele>
        <time>2023-08-21T10:31:42Z</time>
      </trkpt>
      <trkpt lat="45.72458" lon="6.76512">
        <ele>1721.6</ele>
        <time>2023-08-21T10:31:43Z</time>
      </trkpt>
      <trkpt lat="45.7246" lon="6.76507">
        <ele>1721.6</ele>
        <time>2023-08-21T10:31:44Z</time>
      </trkpt>
      <trkpt lat="45.72462" lon="6.76502">
        <ele>1720.8</ele>
        <time>2023-08-21T10:31:45Z</time>
      </trkpt>
      <trkpt lat="45.72464" lon="6.76496">
        <ele>1720.8</ele>
        <time>2023-08-21T10:31:46Z</time>
      </trkpt>
      <trkpt lat="45.72468" lon="6.76492">
        <ele>1720.8</ele>
        <time>2023-08-21T10:31:47Z</time>
      </trkpt>
      <trkpt lat="45.72471" lon="6.76489">
        <ele>1720.4</ele>
        <time>2023-08-21T10:31:48Z</time>
      </trkpt>
      <trkpt lat="45.72475" lon="6.76486">
        <ele>1719.8</ele>
        <time>2023-08-21T10:31:49Z</time>
      </trkpt>
      <trkpt lat="45.72479" lon="6.76482">
        <ele>1719.8</ele>
        <time>2023-08-21T10:31:50Z</time>
      </trkpt>
      <trkpt lat="45.72482" lon="6.76478">
        <ele>1719.8</ele>
        <time>2023-08-21T10:31:51Z</time>
      </trkpt>
      <trkpt lat="45.72485" lon="6.76473">
        <ele>1719.8</ele>
        <time>2023-08-21T10:31:52Z</time>
      </trkpt>
      <trkpt lat="45.72489" lon="6.76468">
        <ele>1719.4</ele>
        <time>2023-08-21T10:31:53Z</time>
      </trkpt>
      <trkpt lat="45.72494" lon="6.76465">
        <ele>1719.4</ele>
        <time>2023-08-21T10:31:54Z</time>
      </trkpt>
      <trkpt lat="45.72499" lon="6.76465">
        <ele>1719.4</ele>
        <time>2023-08-21T10:31:55Z</time>
      </trkpt>
      <trkpt lat="45.72505" lon="6.76465">
        <ele>1718</ele>
        <time>2023-08-21T10:31:56Z</time>
      </trkpt>
      <trkpt lat="45.72511" lon="6.76467">
        <ele>1718</ele>
        <time>2023-08-21T10:31:57Z</time>
      </trkpt>
      <trkpt lat="45.72515" lon="6.7647">
        <ele>1718</ele>
        <time>2023-08-21T10:31:58Z</time>
      </trkpt>
      <trkpt lat="45.72518" lon="6.76473">
        <ele>1717</ele>
        <time>2023-08-21T10:31:59Z</time>
      </trkpt>
      <trkpt lat="45.7252" lon="6.76478">
        <ele>1717</ele>
        <time>2023-08-21T10:32:00Z</time>
      </trkpt>
      <trkpt lat="45.72522" lon="6.76483">
        <ele>1717</ele>
        <time>2023-08-21T10:32:01Z</time>
      </trkpt>
      <trkpt lat="45.72523" lon="6.76488">
        <ele>1716.4</ele>
        <time>2023-08-21T10:32:02Z</time>
      </trkpt>
      <trkpt lat="45.72523" lon="6.76493">
        <ele>1716.4</ele>
        <time>2023-08-21T10:32:03Z</time>
      </trkpt>
      <trkpt lat="45.72522" lon="6.76498">
        <ele>1716.4</ele>
        <time>2023-08-21T10:32:04Z</time>
      </trkpt>
      <trkpt lat="45.72522" lon="6.76504">
        <ele>1716.4</ele>
        <time>2023-08-21T10:32:05Z</time>
      </trkpt>
      <trkpt lat="45.72522" lon="6.76509">
        <ele>1716.4</ele>
        <time>2023-08-21T10:32:06Z</time>
      </trkpt>
      <trkpt lat="45.7252" lon="6.76513">
        <ele>1716</ele>
        <time>2023-08-21T10:32:07Z</time>
      </trkpt>
      <trkpt lat="45.72519" lon="6.76517">
        <ele>1715.8</ele>
        <time>2023-08-21T10:32:08Z</time>
      </trkpt>
      <trkpt lat="45.72518" lon="6.7652">
        <ele>1715.8</ele>
        <time>2023-08-21T10:32:09Z</time>
      </trkpt>
      <trkpt lat="45.72517" lon="6.76523">
        <ele>1715.8</ele>
        <time>2023-08-21T10:32:10Z</time>
      </trkpt>
      <trkpt lat="45.72516" lon="6.76527">
        <ele>1715.8</ele>
        <time>2023-08-21T10:32:11Z</time>
      </trkpt>
      <trkpt lat="45.72516" lon="6.76531">
        <ele>1715.8</ele>
        <time>2023-08-21T10:32:12Z</time>
      </trkpt>
      <trkpt lat="45.72515" lon="6.76534">
        <ele>1715.8</ele>
        <time>2023-08-21T10:32:13Z</time>
      </trkpt>
      <trkpt lat="45.72515" lon="6.76538">
        <ele>1715.6</ele>
        <time>2023-08-21T10:32:14Z</time>
      </trkpt>
      <trkpt lat="45.72515" lon="6.76542">
        <ele>1715.6</ele>
        <time>2023-08-21T10:32:15Z</time>
      </trkpt>
      <trkpt lat="45.72515" lon="6.76545">
        <ele>1715.6</ele>
        <time>2023-08-21T10:32:16Z</time>
      </trkpt>
      <trkpt lat="45.72515" lon="6.76548">
        <ele>1715.6</ele>
        <time>2023-08-21T10:32:17Z</time>
      </trkpt>
      <trkpt lat="45.72516" lon="6.7655">
        <ele>1715.6</ele>
        <time>2023-08-21T10:32:18Z</time>
      </trkpt>
      <trkpt lat="45.72517" lon="6.76553">
        <ele>1715.2</ele>
        <time>2023-08-21T10:32:19Z</time>
      </trkpt>
      <trkpt lat="45.72518" lon="6.76555">
        <ele>1715.2</ele>
        <time>2023-08-21T10:32:20Z</time>
      </trkpt>
      <trkpt lat="45.7252" lon="6.76556">
        <ele>1715.2</ele>
        <time>2023-08-21T10:32:21Z</time>
      </trkpt>
      <trkpt lat="45.72522" lon="6.76558">
        <ele>1715.2</ele>
        <time>2023-08-21T10:32:22Z</time>
      </trkpt>
      <trkpt lat="45.72524" lon="6.7656">
        <ele>1715.2</ele>
        <time>2023-08-21T10:32:23Z</time>
      </trkpt>
      <trkpt lat="45.72526" lon="6.76563">
        <ele>1714.8</ele>
        <time>2023-08-21T10:32:24Z</time>
      </trkpt>
      <trkpt lat="45.72528" lon="6.76566">
        <ele>1714.8</ele>
        <time>2023-08-21T10:32:25Z</time>
      </trkpt>
      <trkpt lat="45.72531" lon="6.7657">
        <ele>1714.6</ele>
        <time>2023-08-21T10:32:26Z</time>
      </trkpt>
      <trkpt lat="45.72534" lon="6.76574">
        <ele>1714.6</ele>
        <time>2023-08-21T10:32:27Z</time>
      </trkpt>
      <trkpt lat="45.72538" lon="6.76578">
        <ele>1714.6</ele>
        <time>2023-08-21T10:32:28Z</time>
      </trkpt>
      <trkpt lat="45.72542" lon="6.76582">
        <ele>1714.6</ele>
        <time>2023-08-21T10:32:29Z</time>
      </trkpt>
      <trkpt lat="45.72546" lon="6.76585">
        <ele>1714.6</ele>
        <time>2023-08-21T10:32:30Z</time>
      </trkpt>
      <trkpt lat="45.7255" lon="6.7659">
        <ele>1713.6</ele>
        <time>2023-08-21T10:32:31Z</time>
      </trkpt>
      <trkpt lat="45.72555" lon="6.76595">
        <ele>1713.4</ele>
        <time>2023-08-21T10:32:32Z</time>
      </trkpt>
      <trkpt lat="45.72559" lon="6.766">
        <ele>1713.4</ele>
        <time>2023-08-21T10:32:33Z</time>
      </trkpt>
      <trkpt lat="45.72564" lon="6.76606">
        <ele>1713.4</ele>
        <time>2023-08-21T10:32:34Z</time>
      </trkpt>
      <trkpt lat="45.72569" lon="6.76612">
        <ele>1713.4</ele>
        <time>2023-08-21T10:32:35Z</time>
      </trkpt>
      <trkpt lat="45.72573" lon="6.76618">
        <ele>1712.6</ele>
        <time>2023-08-21T10:32:36Z</time>
      </trkpt>
      <trkpt lat="45.72577" lon="6.76623">
        <ele>1712.6</ele>
        <time>2023-08-21T10:32:37Z</time>
      </trkpt>
      <trkpt lat="45.72581" lon="6.76628">
        <ele>1712.6</ele>
        <time>2023-08-21T10:32:38Z</time>
      </trkpt>
      <trkpt lat="45.72586" lon="6.76634">
        <ele>1712.6</ele>
        <time>2023-08-21T10:32:39Z</time>
      </trkpt>
      <trkpt lat="45.7259" lon="6.7664">
        <ele>1711.6</ele>
        <time>2023-08-21T10:32:40Z</time>
      </trkpt>
      <trkpt lat="45.72594" lon="6.76646">
        <ele>1711.6</ele>
        <time>2023-08-21T10:32:41Z</time>
      </trkpt>
      <trkpt lat="45.72598" lon="6.76652">
        <ele>1710.6</ele>
        <time>2023-08-21T10:32:42Z</time>
      </trkpt>
      <trkpt lat="45.72603" lon="6.76657">
        <ele>1710.6</ele>
        <time>2023-08-21T10:32:43Z</time>
      </trkpt>
      <trkpt lat="45.72608" lon="6.76662">
        <ele>1710.6</ele>
        <time>2023-08-21T10:32:44Z</time>
      </trkpt>
      <trkpt lat="45.72613" lon="6.76667">
        <ele>1710</ele>
        <time>2023-08-21T10:32:45Z</time>
      </trkpt>
      <trkpt lat="45.72618" lon="6.76672">
        <ele>1709.8</ele>
        <time>2023-08-21T10:32:46Z</time>
      </trkpt>
      <trkpt lat="45.72623" lon="6.76676">
        <ele>1709.8</ele>
        <time>2023-08-21T10:32:47Z</time>
      </trkpt>
      <trkpt lat="45.72628" lon="6.76681">
        <ele>1709.8</ele>
        <time>2023-08-21T10:32:48Z</time>
      </trkpt>
      <trkpt lat="45.72632" lon="6.76685">
        <ele>1709.8</ele>
        <time>2023-08-21T10:32:49Z</time>
      </trkpt>
      <trkpt lat="45.72635" lon="6.76689">
        <ele>1710.6</ele>
        <time>2023-08-21T10:32:50Z</time>
      </trkpt>
      <trkpt lat="45.72639" lon="6.76692">
        <ele>1710.6</ele>
        <time>2023-08-21T10:32:51Z</time>
      </trkpt>
      <trkpt lat="45.72642" lon="6.76694">
        <ele>1710.6</ele>
        <time>2023-08-21T10:32:52Z</time>
      </trkpt>
      <trkpt lat="45.72644" lon="6.76697">
        <ele>1710.6</ele>
        <time>2023-08-21T10:32:53Z</time>
      </trkpt>
      <trkpt lat="45.72646" lon="6.767">
        <ele>1710.6</ele>
        <time>2023-08-21T10:32:54Z</time>
      </trkpt>
      <trkpt lat="45.72648" lon="6.76702">
        <ele>1710.6</ele>
        <time>2023-08-21T10:32:55Z</time>
      </trkpt>
      <trkpt lat="45.7265" lon="6.76704">
        <ele>1710.6</ele>
        <time>2023-08-21T10:32:56Z</time>
      </trkpt>
      <trkpt lat="45.72652" lon="6.76706">
        <ele>1710.6</ele>
        <time>2023-08-21T10:32:57Z</time>
      </trkpt>
      <trkpt lat="45.72655" lon="6.76708">
        <ele>1710.6</ele>
        <time>2023-08-21T10:32:58Z</time>
      </trkpt>
      <trkpt lat="45.72657" lon="6.76709">
        <ele>1711.2</ele>
        <time>2023-08-21T10:32:59Z</time>
      </trkpt>
      <trkpt lat="45.72659" lon="6.7671">
        <ele>1710.8</ele>
        <time>2023-08-21T10:33:00Z</time>
      </trkpt>
      <trkpt lat="45.72662" lon="6.76712">
        <ele>1710.8</ele>
        <time>2023-08-21T10:33:01Z</time>
      </trkpt>
      <trkpt lat="45.72664" lon="6.76714">
        <ele>1710.8</ele>
        <time>2023-08-21T10:33:02Z</time>
      </trkpt>
      <trkpt lat="45.72667" lon="6.76716">
        <ele>1710.8</ele>
        <time>2023-08-21T10:33:03Z</time>
      </trkpt>
      <trkpt lat="45.72669" lon="6.76718">
        <ele>1710.8</ele>
        <time>2023-08-21T10:33:04Z</time>
      </trkpt>
      <trkpt lat="45.72672" lon="6.7672">
        <ele>1711</ele>
        <time>2023-08-21T10:33:05Z</time>
      </trkpt>
      <trkpt lat="45.72675" lon="6.76721">
        <ele>1711</ele>
        <time>2023-08-21T10:33:06Z</time>
      </trkpt>
      <trkpt lat="45.72677" lon="6.76723">
        <ele>1711</ele>
        <time>2023-08-21T10:33:07Z</time>
      </trkpt>
      <trkpt lat="45.72679" lon="6.76725">
        <ele>1711.4</ele>
        <time>2023-08-21T10:33:08Z</time>
      </trkpt>
      <trkpt lat="45.72682" lon="6.76726">
        <ele>1711.6</ele>
        <time>2023-08-21T10:33:09Z</time>
      </trkpt>
      <trkpt lat="45.72684" lon="6.76728">
        <ele>1711.6</ele>
        <time>2023-08-21T10:33:10Z</time>
      </trkpt>
      <trkpt lat="45.72687" lon="6.76731">
        <ele>1711.6</ele>
        <time>2023-08-21T10:33:11Z</time>
      </trkpt>
      <trkpt lat="45.72689" lon="6.76733">
        <ele>1711.6</ele>
        <time>2023-08-21T10:33:12Z</time>
      </trkpt>
      <trkpt lat="45.72692" lon="6.76735">
        <ele>1712</ele>
        <time>2023-08-21T10:33:13Z</time>
      </trkpt>
      <trkpt lat="45.72694" lon="6.76736">
        <ele>1712</ele>
        <time>2023-08-21T10:33:14Z</time>
      </trkpt>
      <trkpt lat="45.72695" lon="6.76738">
        <ele>1712</ele>
        <time>2023-08-21T10:33:15Z</time>
      </trkpt>
      <trkpt lat="45.72698" lon="6.76739">
        <ele>1712</ele>
        <time>2023-08-21T10:33:16Z</time>
      </trkpt>
      <trkpt lat="45.727" lon="6.7674">
        <ele>1712</ele>
        <time>2023-08-21T10:33:17Z</time>
      </trkpt>
      <trkpt lat="45.72702" lon="6.7674">
        <ele>1712.4</ele>
        <time>2023-08-21T10:33:18Z</time>
      </trkpt>
      <trkpt lat="45.72705" lon="6.76741">
        <ele>1712.4</ele>
        <time>2023-08-21T10:33:19Z</time>
      </trkpt>
      <trkpt lat="45.72708" lon="6.76741">
        <ele>1712.4</ele>
        <time>2023-08-21T10:33:20Z</time>
      </trkpt>
      <trkpt lat="45.7271" lon="6.76742">
        <ele>1712.4</ele>
        <time>2023-08-21T10:33:21Z</time>
      </trkpt>
      <trkpt lat="45.72712" lon="6.76743">
        <ele>1712.4</ele>
        <time>2023-08-21T10:33:22Z</time>
      </trkpt>
      <trkpt lat="45.72714" lon="6.76743">
        <ele>1712.6</ele>
        <time>2023-08-21T10:33:23Z</time>
      </trkpt>
      <trkpt lat="45.72717" lon="6.76744">
        <ele>1712.6</ele>
        <time>2023-08-21T10:33:24Z</time>
      </trkpt>
      <trkpt lat="45.72718" lon="6.76745">
        <ele>1712.6</ele>
        <time>2023-08-21T10:33:25Z</time>
      </trkpt>
      <trkpt lat="45.7272" lon="6.76746">
        <ele>1712.6</ele>
        <time>2023-08-21T10:33:26Z</time>
      </trkpt>
      <trkpt lat="45.72722" lon="6.76747">
        <ele>1712.8</ele>
        <time>2023-08-21T10:33:27Z</time>
      </trkpt>
      <trkpt lat="45.72724" lon="6.76747">
        <ele>1713.2</ele>
        <time>2023-08-21T10:33:28Z</time>
      </trkpt>
      <trkpt lat="45.72726" lon="6.76746">
        <ele>1713.2</ele>
        <time>2023-08-21T10:33:29Z</time>
      </trkpt>
      <trkpt lat="45.72728" lon="6.76747">
        <ele>1713.2</ele>
        <time>2023-08-21T10:33:30Z</time>
      </trkpt>
      <trkpt lat="45.7273" lon="6.76748">
        <ele>1713.2</ele>
        <time>2023-08-21T10:33:31Z</time>
      </trkpt>
      <trkpt lat="45.72732" lon="6.76748">
        <ele>1713.4</ele>
        <time>2023-08-21T10:33:32Z</time>
      </trkpt>
      <trkpt lat="45.72734" lon="6.76748">
        <ele>1713.4</ele>
        <time>2023-08-21T10:33:33Z</time>
      </trkpt>
      <trkpt lat="45.72735" lon="6.76747">
        <ele>1713.4</ele>
        <time>2023-08-21T10:33:34Z</time>
      </trkpt>
      <trkpt lat="45.72737" lon="6.76747">
        <ele>1713.4</ele>
        <time>2023-08-21T10:33:35Z</time>
      </trkpt>
      <trkpt lat="45.72738" lon="6.76746">
        <ele>1713.4</ele>
        <time>2023-08-21T10:33:36Z</time>
      </trkpt>
      <trkpt lat="45.72739" lon="6.76747">
        <ele>1713.6</ele>
        <time>2023-08-21T10:33:37Z</time>
      </trkpt>
      <trkpt lat="45.7274" lon="6.76747">
        <ele>1713.6</ele>
        <time>2023-08-21T10:33:38Z</time>
      </trkpt>
      <trkpt lat="45.7274" lon="6.76747">
        <ele>1713.6</ele>
        <time>2023-08-21T10:33:39Z</time>
      </trkpt>
      <trkpt lat="45.7274" lon="6.76747">
        <ele>1713.6</ele>
        <time>2023-08-21T10:33:40Z</time>
      </trkpt>
      <trkpt lat="45.72741" lon="6.76745">
        <ele>1713.8</ele>
        <time>2023-08-21T10:33:56Z</time>
      </trkpt>
      <trkpt lat="45.72742" lon="6.76745">
        <ele>1713.8</ele>
        <time>2023-08-21T10:33:57Z</time>
      </trkpt>
      <trkpt lat="45.72742" lon="6.76744">
        <ele>1713.8</ele>
        <time>2023-08-21T10:33:58Z</time>
      </trkpt>
      <trkpt lat="45.72742" lon="6.76744">
        <ele>1713.8</ele>
        <time>2023-08-21T10:33:59Z</time>
      </trkpt>
      <trkpt lat="45.72742" lon="6.76744">
        <ele>1713.8</ele>
        <time>2023-08-21T10:34:00Z</time>
      </trkpt>
      <trkpt lat="45.72742" lon="6.76744">
        <ele>1713.8</ele>
        <time>2023-08-21T10:34:01Z</time>
      </trkpt>
      <trkpt lat="45.72744" lon="6.7674">
        <ele>1714</ele>
        <time>2023-08-21T10:34:08Z</time>
      </trkpt>
      <trkpt lat="45.72745" lon="6.76739">
        <ele>1714</ele>
        <time>2023-08-21T10:34:09Z</time>
      </trkpt>
      <trkpt lat="45.72746" lon="6.76738">
        <ele>1714</ele>
        <time>2023-08-21T10:34:10Z</time>
      </trkpt>
      <trkpt lat="45.72748" lon="6.76737">
        <ele>1714</ele>
        <time>2023-08-21T10:34:11Z</time>
      </trkpt>
      <trkpt lat="45.72749" lon="6.76736">
        <ele>1714</ele>
        <time>2023-08-21T10:34:12Z</time>
      </trkpt>
      <trkpt lat="45.7275" lon="6.76735">
        <ele>1714.6</ele>
        <time>2023-08-21T10:34:13Z</time>
      </trkpt>
      <trkpt lat="45.72751" lon="6.76734">
        <ele>1714.8</ele>
        <time>2023-08-21T10:34:14Z</time>
      </trkpt>
      <trkpt lat="45.72751" lon="6.76734">
        <ele>1714.8</ele>
        <time>2023-08-21T10:34:15Z</time>
      </trkpt>
      <trkpt lat="45.72752" lon="6.76733">
        <ele>1714.8</ele>
        <time>2023-08-21T10:34:16Z</time>
      </trkpt>
      <trkpt lat="45.72753" lon="6.76731">
        <ele>1714.8</ele>
        <time>2023-08-21T10:34:17Z</time>
      </trkpt>
      <trkpt lat="45.72754" lon="6.76731">
        <ele>1714.8</ele>
        <time>2023-08-21T10:34:18Z</time>
      </trkpt>
      <trkpt lat="45.72755" lon="6.7673">
        <ele>1714.8</ele>
        <time>2023-08-21T10:34:19Z</time>
      </trkpt>
      <trkpt lat="45.72756" lon="6.7673">
        <ele>1714.8</ele>
        <time>2023-08-21T10:34:20Z</time>
      </trkpt>
      <trkpt lat="45.72757" lon="6.76729">
        <ele>1714.6</ele>
        <time>2023-08-21T10:34:21Z</time>
      </trkpt>
      <trkpt lat="45.72758" lon="6.76729">
        <ele>1714.6</ele>
        <time>2023-08-21T10:34:22Z</time>
      </trkpt>
      <trkpt lat="45.72759" lon="6.76729">
        <ele>1714.6</ele>
        <time>2023-08-21T10:34:23Z</time>
      </trkpt>
      <trkpt lat="45.7276" lon="6.76729">
        <ele>1714.6</ele>
        <time>2023-08-21T10:34:24Z</time>
      </trkpt>
      <trkpt lat="45.72761" lon="6.76729">
        <ele>1714.2</ele>
        <time>2023-08-21T10:34:25Z</time>
      </trkpt>
      <trkpt lat="45.72762" lon="6.76729">
        <ele>1714.4</ele>
        <time>2023-08-21T10:34:26Z</time>
      </trkpt>
      <trkpt lat="45.72763" lon="6.76729">
        <ele>1714.4</ele>
        <time>2023-08-21T10:34:27Z</time>
      </trkpt>
      <trkpt lat="45.72764" lon="6.76731">
        <ele>1714.4</ele>
        <time>2023-08-21T10:34:28Z</time>
      </trkpt>
      <trkpt lat="45.72765" lon="6.76732">
        <ele>1714.4</ele>
        <time>2023-08-21T10:34:29Z</time>
      </trkpt>
      <trkpt lat="45.72766" lon="6.76732">
        <ele>1714.4</ele>
        <time>2023-08-21T10:34:30Z</time>
      </trkpt>
      <trkpt lat="45.72766" lon="6.76733">
        <ele>1714.4</ele>
        <time>2023-08-21T10:34:31Z</time>
      </trkpt>
      <trkpt lat="45.72767" lon="6.76732">
        <ele>1714.4</ele>
        <time>2023-08-21T10:34:32Z</time>
      </trkpt>
      <trkpt lat="45.72768" lon="6.76732">
        <ele>1714.2</ele>
        <time>2023-08-21T10:34:33Z</time>
      </trkpt>
      <trkpt lat="45.72769" lon="6.76733">
        <ele>1714.2</ele>
        <time>2023-08-21T10:34:34Z</time>
      </trkpt>
      <trkpt lat="45.7277" lon="6.76733">
        <ele>1714.2</ele>
        <time>2023-08-21T10:34:35Z</time>
      </trkpt>
      <trkpt lat="45.72771" lon="6.76734">
        <ele>1714.2</ele>
        <time>2023-08-21T10:34:36Z</time>
      </trkpt>
      <trkpt lat="45.72772" lon="6.76735">
        <ele>1714.6</ele>
        <time>2023-08-21T10:34:37Z</time>
      </trkpt>
      <trkpt lat="45.72773" lon="6.76735">
        <ele>1714.6</ele>
        <time>2023-08-21T10:34:38Z</time>
      </trkpt>
      <trkpt lat="45.72774" lon="6.76736">
        <ele>1714.6</ele>
        <time>2023-08-21T10:34:39Z</time>
      </trkpt>
      <trkpt lat="45.72774" lon="6.76736">
        <ele>1715.4</ele>
        <time>2023-08-21T10:34:40Z</time>
      </trkpt>
      <trkpt lat="45.72775" lon="6.76737">
        <ele>1715.4</ele>
        <time>2023-08-21T10:34:41Z</time>
      </trkpt>
      <trkpt lat="45.72775" lon="6.76739">
        <ele>1715.4</ele>
        <time>2023-08-21T10:34:42Z</time>
      </trkpt>
      <trkpt lat="45.72776" lon="6.7674">
        <ele>1716</ele>
        <time>2023-08-21T10:34:43Z</time>
      </trkpt>
      <trkpt lat="45.72776" lon="6.76741">
        <ele>1716.2</ele>
        <time>2023-08-21T10:34:44Z</time>
      </trkpt>
      <trkpt lat="45.72777" lon="6.76742">
        <ele>1716.2</ele>
        <time>2023-08-21T10:34:45Z</time>
      </trkpt>
      <trkpt lat="45.72777" lon="6.76743">
        <ele>1716.2</ele>
        <time>2023-08-21T10:34:46Z</time>
      </trkpt>
      <trkpt lat="45.72778" lon="6.76744">
        <ele>1716.2</ele>
        <time>2023-08-21T10:34:47Z</time>
      </trkpt>
      <trkpt lat="45.72778" lon="6.76746">
        <ele>1716.2</ele>
        <time>2023-08-21T10:34:48Z</time>
      </trkpt>
      <trkpt lat="45.72779" lon="6.76746">
        <ele>1716.2</ele>
        <time>2023-08-21T10:34:49Z</time>
      </trkpt>
      <trkpt lat="45.72779" lon="6.76748">
        <ele>1716.4</ele>
        <time>2023-08-21T10:34:50Z</time>
      </trkpt>
      <trkpt lat="45.7278" lon="6.76749">
        <ele>1716.4</ele>
        <time>2023-08-21T10:34:51Z</time>
      </trkpt>
      <trkpt lat="45.7278" lon="6.7675">
        <ele>1716.4</ele>
        <time>2023-08-21T10:34:52Z</time>
      </trkpt>
      <trkpt lat="45.72781" lon="6.76752">
        <ele>1716.4</ele>
        <time>2023-08-21T10:34:53Z</time>
      </trkpt>
      <trkpt lat="45.72781" lon="6.76753">
        <ele>1716.4</ele>
        <time>2023-08-21T10:34:54Z</time>
      </trkpt>
      <trkpt lat="45.72782" lon="6.76755">
        <ele>1716.6</ele>
        <time>2023-08-21T10:34:55Z</time>
      </trkpt>
      <trkpt lat="45.72782" lon="6.76756">
        <ele>1716.6</ele>
        <time>2023-08-21T10:34:56Z</time>
      </trkpt>
      <trkpt lat="45.72783" lon="6.76757">
        <ele>1716.6</ele>
        <time>2023-08-21T10:34:57Z</time>
      </trkpt>
      <trkpt lat="45.72784" lon="6.76758">
        <ele>1716.6</ele>
        <time>2023-08-21T10:34:58Z</time>
      </trkpt>
      <trkpt lat="45.72784" lon="6.76759">
        <ele>1716.6</ele>
        <time>2023-08-21T10:34:59Z</time>
      </trkpt>
      <trkpt lat="45.72786" lon="6.76761">
        <ele>1716.6</ele>
        <time>2023-08-21T10:35:00Z</time>
      </trkpt>
      <trkpt lat="45.72787" lon="6.76761">
        <ele>1716.6</ele>
        <time>2023-08-21T10:35:01Z</time>
      </trkpt>
      <trkpt lat="45.72788" lon="6.76762">
        <ele>1716.2</ele>
        <time>2023-08-21T10:35:02Z</time>
      </trkpt>
      <trkpt lat="45.72789" lon="6.76763">
        <ele>1716.2</ele>
        <time>2023-08-21T10:35:03Z</time>
      </trkpt>
      <trkpt lat="45.72789" lon="6.76764">
        <ele>1716.2</ele>
        <time>2023-08-21T10:35:04Z</time>
      </trkpt>
      <trkpt lat="45.7279" lon="6.76765">
        <ele>1716.2</ele>
        <time>2023-08-21T10:35:05Z</time>
      </trkpt>
      <trkpt lat="45.72791" lon="6.76766">
        <ele>1716.2</ele>
        <time>2023-08-21T10:35:06Z</time>
      </trkpt>
      <trkpt lat="45.72792" lon="6.76767">
        <ele>1716.2</ele>
        <time>2023-08-21T10:35:07Z</time>
      </trkpt>
      <trkpt lat="45.72793" lon="6.76767">
        <ele>1716.2</ele>
        <time>2023-08-21T10:35:08Z</time>
      </trkpt>
      <trkpt lat="45.72794" lon="6.76768">
        <ele>1716.2</ele>
        <time>2023-08-21T10:35:09Z</time>
      </trkpt>
      <trkpt lat="45.72795" lon="6.76768">
        <ele>1716.2</ele>
        <time>2023-08-21T10:35:10Z</time>
      </trkpt>
      <trkpt lat="45.72796" lon="6.76769">
        <ele>1716.2</ele>
        <time>2023-08-21T10:35:11Z</time>
      </trkpt>
      <trkpt lat="45.72797" lon="6.76769">
        <ele>1716.4</ele>
        <time>2023-08-21T10:35:12Z</time>
      </trkpt>
      <trkpt lat="45.72797" lon="6.76769">
        <ele>1716.4</ele>
        <time>2023-08-21T10:35:13Z</time>
      </trkpt>
      <trkpt lat="45.72798" lon="6.76769">
        <ele>1716.4</ele>
        <time>2023-08-21T10:35:14Z</time>
      </trkpt>
      <trkpt lat="45.72799" lon="6.7677">
        <ele>1716.4</ele>
        <time>2023-08-21T10:35:15Z</time>
      </trkpt>
      <trkpt lat="45.728" lon="6.76771">
        <ele>1716.4</ele>
        <time>2023-08-21T10:35:16Z</time>
      </trkpt>
      <trkpt lat="45.72801" lon="6.76771">
        <ele>1716</ele>
        <time>2023-08-21T10:35:17Z</time>
      </trkpt>
      <trkpt lat="45.72801" lon="6.76772">
        <ele>1716</ele>
        <time>2023-08-21T10:35:18Z</time>
      </trkpt>
      <trkpt lat="45.72802" lon="6.76772">
        <ele>1716</ele>
        <time>2023-08-21T10:35:19Z</time>
      </trkpt>
      <trkpt lat="45.72803" lon="6.76772">
        <ele>1716.6</ele>
        <time>2023-08-21T10:35:20Z</time>
      </trkpt>
      <trkpt lat="45.72804" lon="6.76773">
        <ele>1716.6</ele>
        <time>2023-08-21T10:35:21Z</time>
      </trkpt>
      <trkpt lat="45.72805" lon="6.76773">
        <ele>1716.6</ele>
        <time>2023-08-21T10:35:22Z</time>
      </trkpt>
      <trkpt lat="45.72806" lon="6.76774">
        <ele>1716.6</ele>
        <time>2023-08-21T10:35:23Z</time>
      </trkpt>
      <trkpt lat="45.72807" lon="6.76774">
        <ele>1716.6</ele>
        <time>2023-08-21T10:35:24Z</time>
      </trkpt>
      <trkpt lat="45.72808" lon="6.76774">
        <ele>1716.8</ele>
        <time>2023-08-21T10:35:25Z</time>
      </trkpt>
      <trkpt lat="45.72809" lon="6.76775">
        <ele>1716.8</ele>
        <time>2023-08-21T10:35:26Z</time>
      </trkpt>
      <trkpt lat="45.72809" lon="6.76775">
        <ele>1716.8</ele>
        <time>2023-08-21T10:35:27Z</time>
      </trkpt>
      <trkpt lat="45.7281" lon="6.76776">
        <ele>1716.8</ele>
        <time>2023-08-21T10:35:28Z</time>
      </trkpt>
      <trkpt lat="45.72811" lon="6.76776">
        <ele>1716.8</ele>
        <time>2023-08-21T10:35:29Z</time>
      </trkpt>
      <trkpt lat="45.72812" lon="6.76776">
        <ele>1717</ele>
        <time>2023-08-21T10:35:30Z</time>
      </trkpt>
      <trkpt lat="45.72813" lon="6.76776">
        <ele>1717</ele>
        <time>2023-08-21T10:35:31Z</time>
      </trkpt>
      <trkpt lat="45.72814" lon="6.76776">
        <ele>1717</ele>
        <time>2023-08-21T10:35:32Z</time>
      </trkpt>
      <trkpt lat="45.72815" lon="6.76776">
        <ele>1716.8</ele>
        <time>2023-08-21T10:35:33Z</time>
      </trkpt>
      <trkpt lat="45.72816" lon="6.76776">
        <ele>1716.8</ele>
        <time>2023-08-21T10:35:34Z</time>
      </trkpt>
      <trkpt lat="45.72817" lon="6.76776">
        <ele>1717</ele>
        <time>2023-08-21T10:35:35Z</time>
      </trkpt>
      <trkpt lat="45.72818" lon="6.76776">
        <ele>1717</ele>
        <time>2023-08-21T10:35:36Z</time>
      </trkpt>
      <trkpt lat="45.72819" lon="6.76776">
        <ele>1717</ele>
        <time>2023-08-21T10:35:37Z</time>
      </trkpt>
      <trkpt lat="45.7282" lon="6.76775">
        <ele>1717</ele>
        <time>2023-08-21T10:35:38Z</time>
      </trkpt>
      <trkpt lat="45.72821" lon="6.76774">
        <ele>1717</ele>
        <time>2023-08-21T10:35:39Z</time>
      </trkpt>
      <trkpt lat="45.72821" lon="6.76773">
        <ele>1717.4</ele>
        <time>2023-08-21T10:35:40Z</time>
      </trkpt>
      <trkpt lat="45.72822" lon="6.76773">
        <ele>1717.4</ele>
        <time>2023-08-21T10:35:41Z</time>
      </trkpt>
      <trkpt lat="45.72822" lon="6.76772">
        <ele>1717.4</ele>
        <time>2023-08-21T10:35:42Z</time>
      </trkpt>
      <trkpt lat="45.72822" lon="6.76771">
        <ele>1717.8</ele>
        <time>2023-08-21T10:35:43Z</time>
      </trkpt>
      <trkpt lat="45.72822" lon="6.76769">
        <ele>1717.8</ele>
        <time>2023-08-21T10:35:44Z</time>
      </trkpt>
      <trkpt lat="45.72822" lon="6.76768">
        <ele>1717.8</ele>
        <time>2023-08-21T10:35:45Z</time>
      </trkpt>
      <trkpt lat="45.72823" lon="6.76768">
        <ele>1717.8</ele>
        <time>2023-08-21T10:35:46Z</time>
      </trkpt>
      <trkpt lat="45.72823" lon="6.76768">
        <ele>1717.4</ele>
        <time>2023-08-21T10:35:47Z</time>
      </trkpt>
      <trkpt lat="45.72823" lon="6.76769">
        <ele>1717.4</ele>
        <time>2023-08-21T10:35:48Z</time>
      </trkpt>
      <trkpt lat="45.72822" lon="6.76769">
        <ele>1717.4</ele>
        <time>2023-08-21T10:35:49Z</time>
      </trkpt>
      <trkpt lat="45.72822" lon="6.76769">
        <ele>1717.4</ele>
        <time>2023-08-21T10:35:50Z</time>
      </trkpt>
      <trkpt lat="45.72823" lon="6.76767">
        <ele>1718.2</ele>
        <time>2023-08-21T10:35:54Z</time>
      </trkpt>
      <trkpt lat="45.72823" lon="6.76767">
        <ele>1718.2</ele>
        <time>2023-08-21T10:35:55Z</time>
      </trkpt>
      <trkpt lat="45.72825" lon="6.76766">
        <ele>1718.2</ele>
        <time>2023-08-21T10:35:56Z</time>
      </trkpt>
      <trkpt lat="45.72826" lon="6.76766">
        <ele>1718.2</ele>
        <time>2023-08-21T10:35:57Z</time>
      </trkpt>
      <trkpt lat="45.72826" lon="6.76767">
        <ele>1718.4</ele>
        <time>2023-08-21T10:35:58Z</time>
      </trkpt>
      <trkpt lat="45.72827" lon="6.76768">
        <ele>1718.4</ele>
        <time>2023-08-21T10:35:59Z</time>
      </trkpt>
      <trkpt lat="45.72827" lon="6.76768">
        <ele>1718.4</ele>
        <time>2023-08-21T10:36:00Z</time>
      </trkpt>
      <trkpt lat="45.72827" lon="6.76768">
        <ele>1719</ele>
        <time>2023-08-21T10:36:01Z</time>
      </trkpt>
      <trkpt lat="45.72827" lon="6.76768">
        <ele>1719</ele>
        <time>2023-08-21T10:36:02Z</time>
      </trkpt>
      <trkpt lat="45.72817" lon="6.76768">
        <ele>1718.8</ele>
        <time>2023-08-21T11:11:28Z</time>
      </trkpt>
      <trkpt lat="45.72814" lon="6.76768">
        <ele>1718.4</ele>
        <time>2023-08-21T11:11:29Z</time>
      </trkpt>
      <trkpt lat="45.72812" lon="6.76768">
        <ele>1718.4</ele>
        <time>2023-08-21T11:11:30Z</time>
      </trkpt>
      <trkpt lat="45.7281" lon="6.76768">
        <ele>1718.4</ele>
        <time>2023-08-21T11:11:31Z</time>
      </trkpt>
      <trkpt lat="45.72808" lon="6.76768">
        <ele>1717.6</ele>
        <time>2023-08-21T11:11:32Z</time>
      </trkpt>
      <trkpt lat="45.72806" lon="6.76768">
        <ele>1717.6</ele>
        <time>2023-08-21T11:11:33Z</time>
      </trkpt>
      <trkpt lat="45.72804" lon="6.76768">
        <ele>1717.6</ele>
        <time>2023-08-21T11:11:34Z</time>
      </trkpt>
      <trkpt lat="45.72802" lon="6.76767">
        <ele>1717.6</ele>
        <time>2023-08-21T11:11:35Z</time>
      </trkpt>
      <trkpt lat="45.728" lon="6.76766">
        <ele>1717.6</ele>
        <time>2023-08-21T11:11:36Z</time>
      </trkpt>
      <trkpt lat="45.72798" lon="6.76767">
        <ele>1716.8</ele>
        <time>2023-08-21T11:11:37Z</time>
      </trkpt>
      <trkpt lat="45.72796" lon="6.76767">
        <ele>1716.8</ele>
        <time>2023-08-21T11:11:38Z</time>
      </trkpt>
      <trkpt lat="45.72794" lon="6.76766">
        <ele>1716.8</ele>
        <time>2023-08-21T11:11:39Z</time>
      </trkpt>
      <trkpt lat="45.72792" lon="6.76766">
        <ele>1716.8</ele>
        <time>2023-08-21T11:11:40Z</time>
      </trkpt>
      <trkpt lat="45.72789" lon="6.76766">
        <ele>1716.8</ele>
        <time>2023-08-21T11:11:41Z</time>
      </trkpt>
      <trkpt lat="45.72787" lon="6.76765">
        <ele>1716.8</ele>
        <time>2023-08-21T11:11:42Z</time>
      </trkpt>
      <trkpt lat="45.72785" lon="6.76763">
        <ele>1716.8</ele>
        <time>2023-08-21T11:11:43Z</time>
      </trkpt>
      <trkpt lat="45.72783" lon="6.76761">
        <ele>1716.4</ele>
        <time>2023-08-21T11:11:44Z</time>
      </trkpt>
      <trkpt lat="45.72781" lon="6.76759">
        <ele>1716.4</ele>
        <time>2023-08-21T11:11:45Z</time>
      </trkpt>
      <trkpt lat="45.7278" lon="6.76757">
        <ele>1716.4</ele>
        <time>2023-08-21T11:11:46Z</time>
      </trkpt>
      <trkpt lat="45.72779" lon="6.76754">
        <ele>1716.2</ele>
        <time>2023-08-21T11:11:47Z</time>
      </trkpt>
      <trkpt lat="45.72779" lon="6.76751">
        <ele>1716.2</ele>
        <time>2023-08-21T11:11:48Z</time>
      </trkpt>
      <trkpt lat="45.72778" lon="6.76748">
        <ele>1716.2</ele>
        <time>2023-08-21T11:11:49Z</time>
      </trkpt>
      <trkpt lat="45.72777" lon="6.76746">
        <ele>1716.2</ele>
        <time>2023-08-21T11:11:50Z</time>
      </trkpt>
      <trkpt lat="45.72776" lon="6.76743">
        <ele>1716.2</ele>
        <time>2023-08-21T11:11:51Z</time>
      </trkpt>
      <trkpt lat="45.72775" lon="6.7674">
        <ele>1716.2</ele>
        <time>2023-08-21T11:11:52Z</time>
      </trkpt>
      <trkpt lat="45.72774" lon="6.76737">
        <ele>1716.2</ele>
        <time>2023-08-21T11:11:53Z</time>
      </trkpt>
      <trkpt lat="45.72773" lon="6.76734">
        <ele>1716.2</ele>
        <time>2023-08-21T11:11:54Z</time>
      </trkpt>
      <trkpt lat="45.72771" lon="6.76731">
        <ele>1716.2</ele>
        <time>2023-08-21T11:11:55Z</time>
      </trkpt>
      <trkpt lat="45.7277" lon="6.76728">
        <ele>1715.8</ele>
        <time>2023-08-21T11:11:56Z</time>
      </trkpt>
      <trkpt lat="45.72767" lon="6.76726">
        <ele>1715.8</ele>
        <time>2023-08-21T11:11:57Z</time>
      </trkpt>
      <trkpt lat="45.72764" lon="6.76725">
        <ele>1715.8</ele>
        <time>2023-08-21T11:11:58Z</time>
      </trkpt>
      <trkpt lat="45.7276" lon="6.76726">
        <ele>1715.2</ele>
        <time>2023-08-21T11:11:59Z</time>
      </trkpt>
      <trkpt lat="45.72756" lon="6.76727">
        <ele>1715</ele>
        <time>2023-08-21T11:12:00Z</time>
      </trkpt>
      <trkpt lat="45.72753" lon="6.7673">
        <ele>1715</ele>
        <time>2023-08-21T11:12:01Z</time>
      </trkpt>
      <trkpt lat="45.7275" lon="6.76734">
        <ele>1715</ele>
        <time>2023-08-21T11:12:02Z</time>
      </trkpt>
      <trkpt lat="45.72748" lon="6.76739">
        <ele>1715</ele>
        <time>2023-08-21T11:12:03Z</time>
      </trkpt>
      <trkpt lat="45.72745" lon="6.76743">
        <ele>1714.6</ele>
        <time>2023-08-21T11:12:04Z</time>
      </trkpt>
      <trkpt lat="45.72742" lon="6.76746">
        <ele>1714.6</ele>
        <time>2023-08-21T11:12:05Z</time>
      </trkpt>
      <trkpt lat="45.72738" lon="6.76748">
        <ele>1714.6</ele>
        <time>2023-08-21T11:12:06Z</time>
      </trkpt>
      <trkpt lat="45.72735" lon="6.76748">
        <ele>1714.6</ele>
        <time>2023-08-21T11:12:07Z</time>
      </trkpt>
      <trkpt lat="45.72731" lon="6.76748">
        <ele>1714.4</ele>
        <time>2023-08-21T11:12:08Z</time>
      </trkpt>
      <trkpt lat="45.72728" lon="6.76748">
        <ele>1714.4</ele>
        <time>2023-08-21T11:12:09Z</time>
      </trkpt>
      <trkpt lat="45.72725" lon="6.76748">
        <ele>1714.6</ele>
        <time>2023-08-21T11:12:10Z</time>
      </trkpt>
      <trkpt lat="45.72722" lon="6.76747">
        <ele>1714.6</ele>
        <time>2023-08-21T11:12:11Z</time>
      </trkpt>
      <trkpt lat="45.72719" lon="6.76746">
        <ele>1714.6</ele>
        <time>2023-08-21T11:12:12Z</time>
      </trkpt>
      <trkpt lat="45.72715" lon="6.76744">
        <ele>1714.2</ele>
        <time>2023-08-21T11:12:13Z</time>
      </trkpt>
      <trkpt lat="45.72711" lon="6.76743">
        <ele>1714.2</ele>
        <time>2023-08-21T11:12:14Z</time>
      </trkpt>
      <trkpt lat="45.72707" lon="6.76741">
        <ele>1714.2</ele>
        <time>2023-08-21T11:12:15Z</time>
      </trkpt>
      <trkpt lat="45.72702" lon="6.76739">
        <ele>1714.2</ele>
        <time>2023-08-21T11:12:16Z</time>
      </trkpt>
      <trkpt lat="45.72698" lon="6.76736">
        <ele>1713.4</ele>
        <time>2023-08-21T11:12:17Z</time>
      </trkpt>
      <trkpt lat="45.72694" lon="6.76734">
        <ele>1713.4</ele>
        <time>2023-08-21T11:12:18Z</time>
      </trkpt>
      <trkpt lat="45.72689" lon="6.76731">
        <ele>1713.4</ele>
        <time>2023-08-21T11:12:19Z</time>
      </trkpt>
      <trkpt lat="45.72685" lon="6.76728">
        <ele>1713.4</ele>
        <time>2023-08-21T11:12:20Z</time>
      </trkpt>
      <trkpt lat="45.7268" lon="6.76725">
        <ele>1713.4</ele>
        <time>2023-08-21T11:12:21Z</time>
      </trkpt>
      <trkpt lat="45.72676" lon="6.76721">
        <ele>1712.6</ele>
        <time>2023-08-21T11:12:22Z</time>
      </trkpt>
      <trkpt lat="45.72671" lon="6.76718">
        <ele>1712.6</ele>
        <time>2023-08-21T11:12:23Z</time>
      </trkpt>
      <trkpt lat="45.72667" lon="6.76715">
        <ele>1712.8</ele>
        <time>2023-08-21T11:12:24Z</time>
      </trkpt>
      <trkpt lat="45.72662" lon="6.76712">
        <ele>1712.8</ele>
        <time>2023-08-21T11:12:25Z</time>
      </trkpt>
      <trkpt lat="45.72658" lon="6.76709">
        <ele>1712.4</ele>
        <time>2023-08-21T11:12:26Z</time>
      </trkpt>
      <trkpt lat="45.72654" lon="6.76705">
        <ele>1711.8</ele>
        <time>2023-08-21T11:12:27Z</time>
      </trkpt>
      <trkpt lat="45.72649" lon="6.76701">
        <ele>1711.8</ele>
        <time>2023-08-21T11:12:28Z</time>
      </trkpt>
      <trkpt lat="45.72644" lon="6.76697">
        <ele>1711.8</ele>
        <time>2023-08-21T11:12:29Z</time>
      </trkpt>
      <trkpt lat="45.72639" lon="6.76694">
        <ele>1711.4</ele>
        <time>2023-08-21T11:12:30Z</time>
      </trkpt>
      <trkpt lat="45.72635" lon="6.76689">
        <ele>1711.4</ele>
        <time>2023-08-21T11:12:31Z</time>
      </trkpt>
      <trkpt lat="45.7263" lon="6.76685">
        <ele>1711</ele>
        <time>2023-08-21T11:12:32Z</time>
      </trkpt>
      <trkpt lat="45.72625" lon="6.7668">
        <ele>1711</ele>
        <time>2023-08-21T11:12:33Z</time>
      </trkpt>
      <trkpt lat="45.72621" lon="6.76675">
        <ele>1711</ele>
        <time>2023-08-21T11:12:34Z</time>
      </trkpt>
      <trkpt lat="45.72616" lon="6.7667">
        <ele>1710</ele>
        <time>2023-08-21T11:12:35Z</time>
      </trkpt>
      <trkpt lat="45.72612" lon="6.76667">
        <ele>1710</ele>
        <time>2023-08-21T11:12:36Z</time>
      </trkpt>
      <trkpt lat="45.72608" lon="6.76663">
        <ele>1710</ele>
        <time>2023-08-21T11:12:37Z</time>
      </trkpt>
      <trkpt lat="45.72604" lon="6.76659">
        <ele>1710</ele>
        <time>2023-08-21T11:12:38Z</time>
      </trkpt>
      <trkpt lat="45.72602" lon="6.76656">
        <ele>1710</ele>
        <time>2023-08-21T11:12:39Z</time>
      </trkpt>
      <trkpt lat="45.72599" lon="6.76652">
        <ele>1710.4</ele>
        <time>2023-08-21T11:12:40Z</time>
      </trkpt>
      <trkpt lat="45.72597" lon="6.76649">
        <ele>1710.4</ele>
        <time>2023-08-21T11:12:41Z</time>
      </trkpt>
      <trkpt lat="45.72595" lon="6.76646">
        <ele>1710.4</ele>
        <time>2023-08-21T11:12:42Z</time>
      </trkpt>
      <trkpt lat="45.72593" lon="6.76644">
        <ele>1710.4</ele>
        <time>2023-08-21T11:12:43Z</time>
      </trkpt>
      <trkpt lat="45.72591" lon="6.76641">
        <ele>1710.6</ele>
        <time>2023-08-21T11:12:44Z</time>
      </trkpt>
      <trkpt lat="45.72589" lon="6.76639">
        <ele>1710.6</ele>
        <time>2023-08-21T11:12:45Z</time>
      </trkpt>
      <trkpt lat="45.72587" lon="6.76636">
        <ele>1710.6</ele>
        <time>2023-08-21T11:12:46Z</time>
      </trkpt>
      <trkpt lat="45.72585" lon="6.76633">
        <ele>1710.6</ele>
        <time>2023-08-21T11:12:47Z</time>
      </trkpt>
      <trkpt lat="45.72582" lon="6.76629">
        <ele>1710.6</ele>
        <time>2023-08-21T11:12:48Z</time>
      </trkpt>
      <trkpt lat="45.72581" lon="6.76628">
        <ele>1710.8</ele>
        <time>2023-08-21T11:12:49Z</time>
      </trkpt>
      <trkpt lat="45.72579" lon="6.76625">
        <ele>1710.8</ele>
        <time>2023-08-21T11:12:50Z</time>
      </trkpt>
      <trkpt lat="45.72577" lon="6.76623">
        <ele>1711</ele>
        <time>2023-08-21T11:12:51Z</time>
      </trkpt>
      <trkpt lat="45.72575" lon="6.7662">
        <ele>1711</ele>
        <time>2023-08-21T11:12:52Z</time>
      </trkpt>
      <trkpt lat="45.72573" lon="6.76618">
        <ele>1711.2</ele>
        <time>2023-08-21T11:12:53Z</time>
      </trkpt>
      <trkpt lat="45.72571" lon="6.76616">
        <ele>1711.6</ele>
        <time>2023-08-21T11:12:54Z</time>
      </trkpt>
      <trkpt lat="45.72569" lon="6.76613">
        <ele>1711.6</ele>
        <time>2023-08-21T11:12:55Z</time>
      </trkpt>
      <trkpt lat="45.72567" lon="6.76611">
        <ele>1711.6</ele>
        <time>2023-08-21T11:12:56Z</time>
      </trkpt>
      <trkpt lat="45.72566" lon="6.76609">
        <ele>1711.6</ele>
        <time>2023-08-21T11:12:57Z</time>
      </trkpt>
      <trkpt lat="45.72564" lon="6.76607">
        <ele>1711.8</ele>
        <time>2023-08-21T11:12:58Z</time>
      </trkpt>
      <trkpt lat="45.72563" lon="6.76605">
        <ele>1711.8</ele>
        <time>2023-08-21T11:12:59Z</time>
      </trkpt>
      <trkpt lat="45.72562" lon="6.76603">
        <ele>1711.8</ele>
        <time>2023-08-21T11:13:00Z</time>
      </trkpt>
      <trkpt lat="45.72561" lon="6.76601">
        <ele>1711.8</ele>
        <time>2023-08-21T11:13:01Z</time>
      </trkpt>
      <trkpt lat="45.72559" lon="6.766">
        <ele>1711.8</ele>
        <time>2023-08-21T11:13:02Z</time>
      </trkpt>
      <trkpt lat="45.72557" lon="6.76598">
        <ele>1711.8</ele>
        <time>2023-08-21T11:13:03Z</time>
      </trkpt>
      <trkpt lat="45.72555" lon="6.76596">
        <ele>1712.2</ele>
        <time>2023-08-21T11:13:04Z</time>
      </trkpt>
      <trkpt lat="45.72554" lon="6.76594">
        <ele>1712.2</ele>
        <time>2023-08-21T11:13:05Z</time>
      </trkpt>
      <trkpt lat="45.72552" lon="6.76592">
        <ele>1712.2</ele>
        <time>2023-08-21T11:13:06Z</time>
      </trkpt>
      <trkpt lat="45.7255" lon="6.76589">
        <ele>1712.6</ele>
        <time>2023-08-21T11:13:07Z</time>
      </trkpt>
      <trkpt lat="45.72549" lon="6.76588">
        <ele>1713.2</ele>
        <time>2023-08-21T11:13:08Z</time>
      </trkpt>
      <trkpt lat="45.72547" lon="6.76587">
        <ele>1713.2</ele>
        <time>2023-08-21T11:13:09Z</time>
      </trkpt>
      <trkpt lat="45.72546" lon="6.76585">
        <ele>1713.2</ele>
        <time>2023-08-21T11:13:10Z</time>
      </trkpt>
      <trkpt lat="45.72544" lon="6.76584">
        <ele>1713.4</ele>
        <time>2023-08-21T11:13:11Z</time>
      </trkpt>
      <trkpt lat="45.72543" lon="6.76583">
        <ele>1713.6</ele>
        <time>2023-08-21T11:13:12Z</time>
      </trkpt>
      <trkpt lat="45.72541" lon="6.76581">
        <ele>1713.6</ele>
        <time>2023-08-21T11:13:13Z</time>
      </trkpt>
      <trkpt lat="45.7254" lon="6.76579">
        <ele>1713.6</ele>
        <time>2023-08-21T11:13:14Z</time>
      </trkpt>
      <trkpt lat="45.72539" lon="6.76577">
        <ele>1713.6</ele>
        <time>2023-08-21T11:13:15Z</time>
      </trkpt>
      <trkpt lat="45.72537" lon="6.76576">
        <ele>1714</ele>
        <time>2023-08-21T11:13:16Z</time>
      </trkpt>
      <trkpt lat="45.72536" lon="6.76574">
        <ele>1714.2</ele>
        <time>2023-08-21T11:13:17Z</time>
      </trkpt>
      <trkpt lat="45.72534" lon="6.76573">
        <ele>1714.2</ele>
        <time>2023-08-21T11:13:18Z</time>
      </trkpt>
      <trkpt lat="45.72533" lon="6.76571">
        <ele>1714.2</ele>
        <time>2023-08-21T11:13:19Z</time>
      </trkpt>
      <trkpt lat="45.72531" lon="6.76569">
        <ele>1714.2</ele>
        <time>2023-08-21T11:13:20Z</time>
      </trkpt>
      <trkpt lat="45.7253" lon="6.76567">
        <ele>1714.4</ele>
        <time>2023-08-21T11:13:21Z</time>
      </trkpt>
      <trkpt lat="45.72529" lon="6.76565">
        <ele>1714.4</ele>
        <time>2023-08-21T11:13:22Z</time>
      </trkpt>
      <trkpt lat="45.72527" lon="6.76563">
        <ele>1714.4</ele>
        <time>2023-08-21T11:13:23Z</time>
      </trkpt>
      <trkpt lat="45.72526" lon="6.76561">
        <ele>1714.4</ele>
        <time>2023-08-21T11:13:24Z</time>
      </trkpt>
      <trkpt lat="45.72524" lon="6.7656">
        <ele>1715</ele>
        <time>2023-08-21T11:13:25Z</time>
      </trkpt>
      <trkpt lat="45.72522" lon="6.76558">
        <ele>1715</ele>
        <time>2023-08-21T11:13:26Z</time>
      </trkpt>
      <trkpt lat="45.72521" lon="6.76556">
        <ele>1715</ele>
        <time>2023-08-21T11:13:27Z</time>
      </trkpt>
      <trkpt lat="45.7252" lon="6.76553">
        <ele>1715</ele>
        <time>2023-08-21T11:13:28Z</time>
      </trkpt>
      <trkpt lat="45.72519" lon="6.7655">
        <ele>1715</ele>
        <time>2023-08-21T11:13:29Z</time>
      </trkpt>
      <trkpt lat="45.72518" lon="6.76547">
        <ele>1715</ele>
        <time>2023-08-21T11:13:30Z</time>
      </trkpt>
      <trkpt lat="45.72518" lon="6.76544">
        <ele>1715</ele>
        <time>2023-08-21T11:13:31Z</time>
      </trkpt>
      <trkpt lat="45.72517" lon="6.76541">
        <ele>1715</ele>
        <time>2023-08-21T11:13:32Z</time>
      </trkpt>
      <trkpt lat="45.72516" lon="6.76538">
        <ele>1715</ele>
        <time>2023-08-21T11:13:33Z</time>
      </trkpt>
      <trkpt lat="45.72516" lon="6.76534">
        <ele>1715</ele>
        <time>2023-08-21T11:13:34Z</time>
      </trkpt>
      <trkpt lat="45.72516" lon="6.7653">
        <ele>1714.8</ele>
        <time>2023-08-21T11:13:35Z</time>
      </trkpt>
      <trkpt lat="45.72516" lon="6.76526">
        <ele>1714.8</ele>
        <time>2023-08-21T11:13:36Z</time>
      </trkpt>
      <trkpt lat="45.72517" lon="6.76522">
        <ele>1714.8</ele>
        <time>2023-08-21T11:13:37Z</time>
      </trkpt>
      <trkpt lat="45.72519" lon="6.76518">
        <ele>1714</ele>
        <time>2023-08-21T11:13:38Z</time>
      </trkpt>
      <trkpt lat="45.7252" lon="6.76514">
        <ele>1714.6</ele>
        <time>2023-08-21T11:13:39Z</time>
      </trkpt>
      <trkpt lat="45.72521" lon="6.7651">
        <ele>1714.6</ele>
        <time>2023-08-21T11:13:40Z</time>
      </trkpt>
      <trkpt lat="45.72522" lon="6.76505">
        <ele>1714.6</ele>
        <time>2023-08-21T11:13:41Z</time>
      </trkpt>
      <trkpt lat="45.72523" lon="6.765">
        <ele>1714.6</ele>
        <time>2023-08-21T11:13:42Z</time>
      </trkpt>
      <trkpt lat="45.72524" lon="6.76495">
        <ele>1714.2</ele>
        <time>2023-08-21T11:13:43Z</time>
      </trkpt>
      <trkpt lat="45.72524" lon="6.76491">
        <ele>1714.2</ele>
        <time>2023-08-21T11:13:44Z</time>
      </trkpt>
      <trkpt lat="45.72524" lon="6.76487">
        <ele>1714.2</ele>
        <time>2023-08-21T11:13:45Z</time>
      </trkpt>
      <trkpt lat="45.72524" lon="6.76483">
        <ele>1714.2</ele>
        <time>2023-08-21T11:13:46Z</time>
      </trkpt>
      <trkpt lat="45.72524" lon="6.7648">
        <ele>1714.2</ele>
        <time>2023-08-21T11:13:47Z</time>
      </trkpt>
      <trkpt lat="45.72523" lon="6.76476">
        <ele>1714.2</ele>
        <time>2023-08-21T11:13:48Z</time>
      </trkpt>
      <trkpt lat="45.7252" lon="6.76472">
        <ele>1714.2</ele>
        <time>2023-08-21T11:13:49Z</time>
      </trkpt>
      <trkpt lat="45.72519" lon="6.76471">
        <ele>1714.4</ele>
        <time>2023-08-21T11:13:50Z</time>
      </trkpt>
      <trkpt lat="45.72516" lon="6.76469">
        <ele>1714.4</ele>
        <time>2023-08-21T11:13:51Z</time>
      </trkpt>
      <trkpt lat="45.72514" lon="6.76467">
        <ele>1714.4</ele>
        <time>2023-08-21T11:13:52Z</time>
      </trkpt>
      <trkpt lat="45.72511" lon="6.76466">
        <ele>1715</ele>
        <time>2023-08-21T11:13:53Z</time>
      </trkpt>
      <trkpt lat="45.72508" lon="6.76465">
        <ele>1715</ele>
        <time>2023-08-21T11:13:54Z</time>
      </trkpt>
      <trkpt lat="45.72506" lon="6.76464">
        <ele>1715</ele>
        <time>2023-08-21T11:13:55Z</time>
      </trkpt>
      <trkpt lat="45.72503" lon="6.76464">
        <ele>1715</ele>
        <time>2023-08-21T11:13:56Z</time>
      </trkpt>
      <trkpt lat="45.72501" lon="6.76464">
        <ele>1715</ele>
        <time>2023-08-21T11:13:57Z</time>
      </trkpt>
      <trkpt lat="45.725" lon="6.76464">
        <ele>1715.4</ele>
        <time>2023-08-21T11:13:58Z</time>
      </trkpt>
      <trkpt lat="45.72498" lon="6.76463">
        <ele>1715.4</ele>
        <time>2023-08-21T11:13:59Z</time>
      </trkpt>
      <trkpt lat="45.72496" lon="6.76463">
        <ele>1715.4</ele>
        <time>2023-08-21T11:14:00Z</time>
      </trkpt>
      <trkpt lat="45.72495" lon="6.76464">
        <ele>1715.8</ele>
        <time>2023-08-21T11:14:01Z</time>
      </trkpt>
      <trkpt lat="45.72494" lon="6.76464">
        <ele>1716</ele>
        <time>2023-08-21T11:14:02Z</time>
      </trkpt>
      <trkpt lat="45.72493" lon="6.76464">
        <ele>1716</ele>
        <time>2023-08-21T11:14:03Z</time>
      </trkpt>
      <trkpt lat="45.72493" lon="6.76464">
        <ele>1716</ele>
        <time>2023-08-21T11:14:04Z</time>
      </trkpt>
      <trkpt lat="45.72498" lon="6.76465">
        <ele>1715.8</ele>
        <time>2023-08-21T11:14:22Z</time>
      </trkpt>
      <trkpt lat="45.72499" lon="6.76465">
        <ele>1715.8</ele>
        <time>2023-08-21T11:14:23Z</time>
      </trkpt>
      <trkpt lat="45.72501" lon="6.76465">
        <ele>1715.4</ele>
        <time>2023-08-21T11:14:24Z</time>
      </trkpt>
      <trkpt lat="45.72502" lon="6.76465">
        <ele>1715.2</ele>
        <time>2023-08-21T11:14:25Z</time>
      </trkpt>
      <trkpt lat="45.72503" lon="6.76465">
        <ele>1715.2</ele>
        <time>2023-08-21T11:14:26Z</time>
      </trkpt>
      <trkpt lat="45.72504" lon="6.76464">
        <ele>1715.2</ele>
        <time>2023-08-21T11:14:27Z</time>
      </trkpt>
      <trkpt lat="45.72505" lon="6.76465">
        <ele>1715.2</ele>
        <time>2023-08-21T11:14:28Z</time>
      </trkpt>
      <trkpt lat="45.72507" lon="6.76465">
        <ele>1714.8</ele>
        <time>2023-08-21T11:14:29Z</time>
      </trkpt>
      <trkpt lat="45.72508" lon="6.76466">
        <ele>1714.8</ele>
        <time>2023-08-21T11:14:30Z</time>
      </trkpt>
      <trkpt lat="45.72509" lon="6.76466">
        <ele>1714.8</ele>
        <time>2023-08-21T11:14:31Z</time>
      </trkpt>
      <trkpt lat="45.7251" lon="6.76466">
        <ele>1714.8</ele>
        <time>2023-08-21T11:14:32Z</time>
      </trkpt>
      <trkpt lat="45.72511" lon="6.76467">
        <ele>1714.8</ele>
        <time>2023-08-21T11:14:33Z</time>
      </trkpt>
      <trkpt lat="45.72512" lon="6.76467">
        <ele>1714.8</ele>
        <time>2023-08-21T11:14:34Z</time>
      </trkpt>
      <trkpt lat="45.72513" lon="6.76468">
        <ele>1714.8</ele>
        <time>2023-08-21T11:14:35Z</time>
      </trkpt>
      <trkpt lat="45.72514" lon="6.76468">
        <ele>1714.8</ele>
        <time>2023-08-21T11:14:36Z</time>
      </trkpt>
      <trkpt lat="45.72515" lon="6.76468">
        <ele>1714.4</ele>
        <time>2023-08-21T11:14:37Z</time>
      </trkpt>
      <trkpt lat="45.72516" lon="6.76469">
        <ele>1714.4</ele>
        <time>2023-08-21T11:14:38Z</time>
      </trkpt>
      <trkpt lat="45.72516" lon="6.76469">
        <ele>1714.4</ele>
        <time>2023-08-21T11:14:39Z</time>
      </trkpt>
      <trkpt lat="45.72517" lon="6.76469">
        <ele>1714.4</ele>
        <time>2023-08-21T11:14:40Z</time>
      </trkpt>
      <trkpt lat="45.72517" lon="6.76469">
        <ele>1714.4</ele>
        <time>2023-08-21T11:14:41Z</time>
      </trkpt>
      <trkpt lat="45.72516" lon="6.7647">
        <ele>1714.6</ele>
        <time>2023-08-21T11:14:42Z</time>
      </trkpt>
      <trkpt lat="45.72516" lon="6.76471">
        <ele>1714.6</ele>
        <time>2023-08-21T11:14:43Z</time>
      </trkpt>
      <trkpt lat="45.72516" lon="6.76471">
        <ele>1714.6</ele>
        <time>2023-08-21T11:14:44Z</time>
      </trkpt>
      <trkpt lat="45.72516" lon="6.76471">
        <ele>1714.6</ele>
        <time>2023-08-21T11:14:45Z</time>
      </trkpt>
      <trkpt lat="45.72513" lon="6.76469">
        <ele>1714.8</ele>
        <time>2023-08-21T11:16:26Z</time>
      </trkpt>
      <trkpt lat="45.72511" lon="6.76469">
        <ele>1714.8</ele>
        <time>2023-08-21T11:16:27Z</time>
      </trkpt>
      <trkpt lat="45.72509" lon="6.76468">
        <ele>1714.8</ele>
        <time>2023-08-21T11:16:28Z</time>
      </trkpt>
      <trkpt lat="45.72507" lon="6.76468">
        <ele>1714.8</ele>
        <time>2023-08-21T11:16:29Z</time>
      </trkpt>
      <trkpt lat="45.72505" lon="6.76467">
        <ele>1714.8</ele>
        <time>2023-08-21T11:16:30Z</time>
      </trkpt>
      <trkpt lat="45.72504" lon="6.76467">
        <ele>1715.2</ele>
        <time>2023-08-21T11:16:31Z</time>
      </trkpt>
      <trkpt lat="45.72502" lon="6.76466">
        <ele>1715.2</ele>
        <time>2023-08-21T11:16:32Z</time>
      </trkpt>
      <trkpt lat="45.725" lon="6.76465">
        <ele>1715.2</ele>
        <time>2023-08-21T11:16:33Z</time>
      </trkpt>
      <trkpt lat="45.72499" lon="6.76464">
        <ele>1715.2</ele>
        <time>2023-08-21T11:16:34Z</time>
      </trkpt>
      <trkpt lat="45.72497" lon="6.76464">
        <ele>1715.2</ele>
        <time>2023-08-21T11:16:35Z</time>
      </trkpt>
      <trkpt lat="45.72496" lon="6.76464">
        <ele>1715.8</ele>
        <time>2023-08-21T11:16:36Z</time>
      </trkpt>
      <trkpt lat="45.72494" lon="6.76465">
        <ele>1715.8</ele>
        <time>2023-08-21T11:16:37Z</time>
      </trkpt>
      <trkpt lat="45.72493" lon="6.76466">
        <ele>1715.8</ele>
        <time>2023-08-21T11:16:38Z</time>
      </trkpt>
      <trkpt lat="45.72491" lon="6.76467">
        <ele>1716.2</ele>
        <time>2023-08-21T11:16:39Z</time>
      </trkpt>
      <trkpt lat="45.7249" lon="6.76468">
        <ele>1716.2</ele>
        <time>2023-08-21T11:16:40Z</time>
      </trkpt>
      <trkpt lat="45.72489" lon="6.7647">
        <ele>1716.2</ele>
        <time>2023-08-21T11:16:41Z</time>
      </trkpt>
      <trkpt lat="45.72488" lon="6.76471">
        <ele>1716.2</ele>
        <time>2023-08-21T11:16:42Z</time>
      </trkpt>
      <trkpt lat="45.72487" lon="6.76472">
        <ele>1716.8</ele>
        <time>2023-08-21T11:16:43Z</time>
      </trkpt>
      <trkpt lat="45.72486" lon="6.76473">
        <ele>1716.8</ele>
        <time>2023-08-21T11:16:44Z</time>
      </trkpt>
      <trkpt lat="45.72486" lon="6.76474">
        <ele>1716.8</ele>
        <time>2023-08-21T11:16:45Z</time>
      </trkpt>
      <trkpt lat="45.72485" lon="6.76476">
        <ele>1716.8</ele>
        <time>2023-08-21T11:16:46Z</time>
      </trkpt>
      <trkpt lat="45.72485" lon="6.76477">
        <ele>1716.8</ele>
        <time>2023-08-21T11:16:47Z</time>
      </trkpt>
      <trkpt lat="45.72483" lon="6.76478">
        <ele>1717.6</ele>
        <time>2023-08-21T11:16:48Z</time>
      </trkpt>
      <trkpt lat="45.72482" lon="6.76479">
        <ele>1717.8</ele>
        <time>2023-08-21T11:16:49Z</time>
      </trkpt>
      <trkpt lat="45.72481" lon="6.76479">
        <ele>1717.8</ele>
        <time>2023-08-21T11:16:50Z</time>
      </trkpt>
      <trkpt lat="45.7248" lon="6.7648">
        <ele>1717.8</ele>
        <time>2023-08-21T11:16:51Z</time>
      </trkpt>
      <trkpt lat="45.72479" lon="6.76482">
        <ele>1718.4</ele>
        <time>2023-08-21T11:16:52Z</time>
      </trkpt>
      <trkpt lat="45.72478" lon="6.76483">
        <ele>1718.4</ele>
        <time>2023-08-21T11:16:53Z</time>
      </trkpt>
      <trkpt lat="45.72478" lon="6.76484">
        <ele>1718.4</ele>
        <time>2023-08-21T11:16:54Z</time>
      </trkpt>
      <trkpt lat="45.72477" lon="6.76485">
        <ele>1718.4</ele>
        <time>2023-08-21T11:16:55Z</time>
      </trkpt>
      <trkpt lat="45.72476" lon="6.76486">
        <ele>1719</ele>
        <time>2023-08-21T11:16:56Z</time>
      </trkpt>
      <trkpt lat="45.72474" lon="6.76487">
        <ele>1719</ele>
        <time>2023-08-21T11:16:57Z</time>
      </trkpt>
      <trkpt lat="45.72473" lon="6.76488">
        <ele>1719.2</ele>
        <time>2023-08-21T11:16:58Z</time>
      </trkpt>
      <trkpt lat="45.72472" lon="6.76489">
        <ele>1719.2</ele>
        <time>2023-08-21T11:16:59Z</time>
      </trkpt>
      <trkpt lat="45.7247" lon="6.7649">
        <ele>1719.2</ele>
        <time>2023-08-21T11:17:00Z</time>
      </trkpt>
      <trkpt lat="45.72469" lon="6.76491">
        <ele>1719.6</ele>
        <time>2023-08-21T11:17:01Z</time>
      </trkpt>
      <trkpt lat="45.72468" lon="6.76493">
        <ele>1719.6</ele>
        <time>2023-08-21T11:17:02Z</time>
      </trkpt>
      <trkpt lat="45.72467" lon="6.76494">
        <ele>1719.8</ele>
        <time>2023-08-21T11:17:03Z</time>
      </trkpt>
      <trkpt lat="45.72465" lon="6.76495">
        <ele>1719.8</ele>
        <time>2023-08-21T11:17:04Z</time>
      </trkpt>
      <trkpt lat="45.72464" lon="6.76497">
        <ele>1719.8</ele>
        <time>2023-08-21T11:17:05Z</time>
      </trkpt>
      <trkpt lat="45.72463" lon="6.76498">
        <ele>1719.8</ele>
        <time>2023-08-21T11:17:06Z</time>
      </trkpt>
      <trkpt lat="45.72462" lon="6.765">
        <ele>1720.2</ele>
        <time>2023-08-21T11:17:07Z</time>
      </trkpt>
      <trkpt lat="45.72461" lon="6.76502">
        <ele>1720.2</ele>
        <time>2023-08-21T11:17:08Z</time>
      </trkpt>
      <trkpt lat="45.7246" lon="6.76503">
        <ele>1720.2</ele>
        <time>2023-08-21T11:17:09Z</time>
      </trkpt>
      <trkpt lat="45.7246" lon="6.76505">
        <ele>1720.2</ele>
        <time>2023-08-21T11:17:10Z</time>
      </trkpt>
      <trkpt lat="45.72459" lon="6.76506">
        <ele>1720.6</ele>
        <time>2023-08-21T11:17:11Z</time>
      </trkpt>
      <trkpt lat="45.72458" lon="6.76508">
        <ele>1720.6</ele>
        <time>2023-08-21T11:17:12Z</time>
      </trkpt>
      <trkpt lat="45.72457" lon="6.7651">
        <ele>1720.6</ele>
        <time>2023-08-21T11:17:13Z</time>
      </trkpt>
      <trkpt lat="45.72456" lon="6.76511">
        <ele>1720.6</ele>
        <time>2023-08-21T11:17:14Z</time>
      </trkpt>
      <trkpt lat="45.72455" lon="6.76513">
        <ele>1721.2</ele>
        <time>2023-08-21T11:17:15Z</time>
      </trkpt>
      <trkpt lat="45.72454" lon="6.76514">
        <ele>1721.2</ele>
        <time>2023-08-21T11:17:16Z</time>
      </trkpt>
      <trkpt lat="45.72453" lon="6.76515">
        <ele>1721.2</ele>
        <time>2023-08-21T11:17:17Z</time>
      </trkpt>
      <trkpt lat="45.72451" lon="6.76517">
        <ele>1721.2</ele>
        <time>2023-08-21T11:17:18Z</time>
      </trkpt>
      <trkpt lat="45.7245" lon="6.76518">
        <ele>1721.2</ele>
        <time>2023-08-21T11:17:19Z</time>
      </trkpt>
      <trkpt lat="45.72449" lon="6.76519">
        <ele>1721.4</ele>
        <time>2023-08-21T11:17:20Z</time>
      </trkpt>
      <trkpt lat="45.72447" lon="6.7652">
        <ele>1721.4</ele>
        <time>2023-08-21T11:17:21Z</time>
      </trkpt>
      <trkpt lat="45.72446" lon="6.7652">
        <ele>1721.8</ele>
        <time>2023-08-21T11:17:22Z</time>
      </trkpt>
      <trkpt lat="45.72444" lon="6.76521">
        <ele>1721.8</ele>
        <time>2023-08-21T11:17:23Z</time>
      </trkpt>
      <trkpt lat="45.72441" lon="6.76521">
        <ele>1721.8</ele>
        <time>2023-08-21T11:17:24Z</time>
      </trkpt>
      <trkpt lat="45.72439" lon="6.76521">
        <ele>1721.8</ele>
        <time>2023-08-21T11:17:25Z</time>
      </trkpt>
      <trkpt lat="45.72437" lon="6.76522">
        <ele>1722</ele>
        <time>2023-08-21T11:17:26Z</time>
      </trkpt>
      <trkpt lat="45.72435" lon="6.76522">
        <ele>1722</ele>
        <time>2023-08-21T11:17:27Z</time>
      </trkpt>
      <trkpt lat="45.72432" lon="6.76521">
        <ele>1722.2</ele>
        <time>2023-08-21T11:17:28Z</time>
      </trkpt>
      <trkpt lat="45.7243" lon="6.76521">
        <ele>1722.2</ele>
        <time>2023-08-21T11:17:29Z</time>
      </trkpt>
      <trkpt lat="45.72427" lon="6.7652">
        <ele>1722.4</ele>
        <time>2023-08-21T11:17:30Z</time>
      </trkpt>
      <trkpt lat="45.72425" lon="6.76519">
        <ele>1722.4</ele>
        <time>2023-08-21T11:17:31Z</time>
      </trkpt>
      <trkpt lat="45.72423" lon="6.76519">
        <ele>1722.4</ele>
        <time>2023-08-21T11:17:32Z</time>
      </trkpt>
      <trkpt lat="45.7242" lon="6.76517">
        <ele>1722.4</ele>
        <time>2023-08-21T11:17:33Z</time>
      </trkpt>
      <trkpt lat="45.72418" lon="6.76515">
        <ele>1722.4</ele>
        <time>2023-08-21T11:17:34Z</time>
      </trkpt>
      <trkpt lat="45.72416" lon="6.76512">
        <ele>1722.4</ele>
        <time>2023-08-21T11:17:35Z</time>
      </trkpt>
      <trkpt lat="45.72414" lon="6.7651">
        <ele>1722.4</ele>
        <time>2023-08-21T11:17:36Z</time>
      </trkpt>
      <trkpt lat="45.72412" lon="6.76507">
        <ele>1722.4</ele>
        <time>2023-08-21T11:17:37Z</time>
      </trkpt>
      <trkpt lat="45.7241" lon="6.76505">
        <ele>1722.4</ele>
        <time>2023-08-21T11:17:38Z</time>
      </trkpt>
      <trkpt lat="45.72409" lon="6.76502">
        <ele>1722</ele>
        <time>2023-08-21T11:17:39Z</time>
      </trkpt>
      <trkpt lat="45.72407" lon="6.76499">
        <ele>1722</ele>
        <time>2023-08-21T11:17:40Z</time>
      </trkpt>
      <trkpt lat="45.72405" lon="6.76496">
        <ele>1722.2</ele>
        <time>2023-08-21T11:17:41Z</time>
      </trkpt>
      <trkpt lat="45.72403" lon="6.76494">
        <ele>1722.2</ele>
        <time>2023-08-21T11:17:42Z</time>
      </trkpt>
      <trkpt lat="45.724" lon="6.76491">
        <ele>1722.2</ele>
        <time>2023-08-21T11:17:43Z</time>
      </trkpt>
      <trkpt lat="45.72398" lon="6.76489">
        <ele>1722.2</ele>
        <time>2023-08-21T11:17:44Z</time>
      </trkpt>
      <trkpt lat="45.72395" lon="6.76486">
        <ele>1722.2</ele>
        <time>2023-08-21T11:17:45Z</time>
      </trkpt>
      <trkpt lat="45.72393" lon="6.76482">
        <ele>1722.2</ele>
        <time>2023-08-21T11:17:46Z</time>
      </trkpt>
      <trkpt lat="45.7239" lon="6.76479">
        <ele>1722.2</ele>
        <time>2023-08-21T11:17:47Z</time>
      </trkpt>
      <trkpt lat="45.72388" lon="6.76476">
        <ele>1722.6</ele>
        <time>2023-08-21T11:17:48Z</time>
      </trkpt>
      <trkpt lat="45.72385" lon="6.76472">
        <ele>1722.6</ele>
        <time>2023-08-21T11:17:49Z</time>
      </trkpt>
      <trkpt lat="45.72383" lon="6.76469">
        <ele>1722.6</ele>
        <time>2023-08-21T11:17:50Z</time>
      </trkpt>
      <trkpt lat="45.72381" lon="6.76465">
        <ele>1722</ele>
        <time>2023-08-21T11:17:51Z</time>
      </trkpt>
      <trkpt lat="45.72378" lon="6.76461">
        <ele>1722</ele>
        <time>2023-08-21T11:17:52Z</time>
      </trkpt>
      <trkpt lat="45.72375" lon="6.76457">
        <ele>1722</ele>
        <time>2023-08-21T11:17:53Z</time>
      </trkpt>
      <trkpt lat="45.72373" lon="6.76453">
        <ele>1722</ele>
        <time>2023-08-21T11:17:54Z</time>
      </trkpt>
      <trkpt lat="45.7237" lon="6.7645">
        <ele>1722</ele>
        <time>2023-08-21T11:17:55Z</time>
      </trkpt>
      <trkpt lat="45.72368" lon="6.76447">
        <ele>1721.8</ele>
        <time>2023-08-21T11:17:56Z</time>
      </trkpt>
      <trkpt lat="45.72365" lon="6.76443">
        <ele>1721.8</ele>
        <time>2023-08-21T11:17:57Z</time>
      </trkpt>
      <trkpt lat="45.72363" lon="6.7644">
        <ele>1721.8</ele>
        <time>2023-08-21T11:17:58Z</time>
      </trkpt>
      <trkpt lat="45.7236" lon="6.76437">
        <ele>1721.8</ele>
        <time>2023-08-21T11:17:59Z</time>
      </trkpt>
      <trkpt lat="45.72358" lon="6.76434">
        <ele>1721.8</ele>
        <time>2023-08-21T11:18:00Z</time>
      </trkpt>
      <trkpt lat="45.72356" lon="6.76431">
        <ele>1722</ele>
        <time>2023-08-21T11:18:01Z</time>
      </trkpt>
      <trkpt lat="45.72354" lon="6.76428">
        <ele>1722</ele>
        <time>2023-08-21T11:18:02Z</time>
      </trkpt>
      <trkpt lat="45.72352" lon="6.76425">
        <ele>1722</ele>
        <time>2023-08-21T11:18:03Z</time>
      </trkpt>
      <trkpt lat="45.7235" lon="6.76422">
        <ele>1722</ele>
        <time>2023-08-21T11:18:04Z</time>
      </trkpt>
      <trkpt lat="45.72348" lon="6.76419">
        <ele>1722.2</ele>
        <time>2023-08-21T11:18:05Z</time>
      </trkpt>
      <trkpt lat="45.72346" lon="6.76417">
        <ele>1722.2</ele>
        <time>2023-08-21T11:18:06Z</time>
      </trkpt>
      <trkpt lat="45.72344" lon="6.76415">
        <ele>1722.2</ele>
        <time>2023-08-21T11:18:07Z</time>
      </trkpt>
      <trkpt lat="45.72343" lon="6.76413">
        <ele>1722.2</ele>
        <time>2023-08-21T11:18:08Z</time>
      </trkpt>
      <trkpt lat="45.72341" lon="6.76411">
        <ele>1722.2</ele>
        <time>2023-08-21T11:18:09Z</time>
      </trkpt>
      <trkpt lat="45.72339" lon="6.76409">
        <ele>1722.4</ele>
        <time>2023-08-21T11:18:10Z</time>
      </trkpt>
      <trkpt lat="45.72338" lon="6.76407">
        <ele>1722.4</ele>
        <time>2023-08-21T11:18:11Z</time>
      </trkpt>
      <trkpt lat="45.72336" lon="6.76405">
        <ele>1722.4</ele>
        <time>2023-08-21T11:18:12Z</time>
      </trkpt>
      <trkpt lat="45.72334" lon="6.76404">
        <ele>1723.2</ele>
        <time>2023-08-21T11:18:13Z</time>
      </trkpt>
      <trkpt lat="45.72332" lon="6.76402">
        <ele>1723.2</ele>
        <time>2023-08-21T11:18:14Z</time>
      </trkpt>
      <trkpt lat="45.7233" lon="6.76401">
        <ele>1723.4</ele>
        <time>2023-08-21T11:18:15Z</time>
      </trkpt>
      <trkpt lat="45.72328" lon="6.764">
        <ele>1723.4</ele>
        <time>2023-08-21T11:18:16Z</time>
      </trkpt>
      <trkpt lat="45.72326" lon="6.76399">
        <ele>1723.8</ele>
        <time>2023-08-21T11:18:17Z</time>
      </trkpt>
      <trkpt lat="45.72324" lon="6.76398">
        <ele>1724.2</ele>
        <time>2023-08-21T11:18:18Z</time>
      </trkpt>
      <trkpt lat="45.72322" lon="6.76396">
        <ele>1724.2</ele>
        <time>2023-08-21T11:18:19Z</time>
      </trkpt>
      <trkpt lat="45.72321" lon="6.76394">
        <ele>1724.2</ele>
        <time>2023-08-21T11:18:20Z</time>
      </trkpt>
      <trkpt lat="45.72319" lon="6.76392">
        <ele>1724.2</ele>
        <time>2023-08-21T11:18:21Z</time>
      </trkpt>
      <trkpt lat="45.72317" lon="6.76391">
        <ele>1724.8</ele>
        <time>2023-08-21T11:18:22Z</time>
      </trkpt>
      <trkpt lat="45.72316" lon="6.7639">
        <ele>1724.8</ele>
        <time>2023-08-21T11:18:23Z</time>
      </trkpt>
      <trkpt lat="45.72314" lon="6.76388">
        <ele>1724.8</ele>
        <time>2023-08-21T11:18:24Z</time>
      </trkpt>
      <trkpt lat="45.72312" lon="6.76387">
        <ele>1724.8</ele>
        <time>2023-08-21T11:18:25Z</time>
      </trkpt>
      <trkpt lat="45.72311" lon="6.76385">
        <ele>1725.4</ele>
        <time>2023-08-21T11:18:26Z</time>
      </trkpt>
      <trkpt lat="45.72309" lon="6.76384">
        <ele>1725.4</ele>
        <time>2023-08-21T11:18:27Z</time>
      </trkpt>
      <trkpt lat="45.72307" lon="6.76383">
        <ele>1725.6</ele>
        <time>2023-08-21T11:18:28Z</time>
      </trkpt>
      <trkpt lat="45.72305" lon="6.76381">
        <ele>1725.6</ele>
        <time>2023-08-21T11:18:29Z</time>
      </trkpt>
      <trkpt lat="45.72304" lon="6.7638">
        <ele>1725.6</ele>
        <time>2023-08-21T11:18:30Z</time>
      </trkpt>
      <trkpt lat="45.72302" lon="6.76378">
        <ele>1725.6</ele>
        <time>2023-08-21T11:18:31Z</time>
      </trkpt>
      <trkpt lat="45.72299" lon="6.76377">
        <ele>1725.6</ele>
        <time>2023-08-21T11:18:32Z</time>
      </trkpt>
      <trkpt lat="45.72297" lon="6.76375">
        <ele>1725.6</ele>
        <time>2023-08-21T11:18:33Z</time>
      </trkpt>
      <trkpt lat="45.72294" lon="6.76374">
        <ele>1725.6</ele>
        <time>2023-08-21T11:18:34Z</time>
      </trkpt>
      <trkpt lat="45.72292" lon="6.76372">
        <ele>1725.6</ele>
        <time>2023-08-21T11:18:35Z</time>
      </trkpt>
      <trkpt lat="45.7229" lon="6.7637">
        <ele>1725.6</ele>
        <time>2023-08-21T11:18:36Z</time>
      </trkpt>
      <trkpt lat="45.72287" lon="6.76368">
        <ele>1725.4</ele>
        <time>2023-08-21T11:18:37Z</time>
      </trkpt>
      <trkpt lat="45.72284" lon="6.76366">
        <ele>1725.4</ele>
        <time>2023-08-21T11:18:38Z</time>
      </trkpt>
      <trkpt lat="45.72282" lon="6.76365">
        <ele>1725.4</ele>
        <time>2023-08-21T11:18:39Z</time>
      </trkpt>
      <trkpt lat="45.72279" lon="6.76363">
        <ele>1725.4</ele>
        <time>2023-08-21T11:18:40Z</time>
      </trkpt>
      <trkpt lat="45.72276" lon="6.76361">
        <ele>1726.2</ele>
        <time>2023-08-21T11:18:41Z</time>
      </trkpt>
      <trkpt lat="45.72274" lon="6.7636">
        <ele>1726.2</ele>
        <time>2023-08-21T11:18:42Z</time>
      </trkpt>
      <trkpt lat="45.72271" lon="6.76358">
        <ele>1726.2</ele>
        <time>2023-08-21T11:18:43Z</time>
      </trkpt>
      <trkpt lat="45.72268" lon="6.76357">
        <ele>1726.2</ele>
        <time>2023-08-21T11:18:44Z</time>
      </trkpt>
      <trkpt lat="45.72265" lon="6.76355">
        <ele>1726</ele>
        <time>2023-08-21T11:18:45Z</time>
      </trkpt>
      <trkpt lat="45.72262" lon="6.76353">
        <ele>1726</ele>
        <time>2023-08-21T11:18:46Z</time>
      </trkpt>
      <trkpt lat="45.7226" lon="6.76351">
        <ele>1726</ele>
        <time>2023-08-21T11:18:47Z</time>
      </trkpt>
      <trkpt lat="45.72257" lon="6.76349">
        <ele>1726</ele>
        <time>2023-08-21T11:18:48Z</time>
      </trkpt>
      <trkpt lat="45.72255" lon="6.76347">
        <ele>1726</ele>
        <time>2023-08-21T11:18:49Z</time>
      </trkpt>
      <trkpt lat="45.72252" lon="6.76345">
        <ele>1726</ele>
        <time>2023-08-21T11:18:50Z</time>
      </trkpt>
      <trkpt lat="45.7225" lon="6.76342">
        <ele>1726</ele>
        <time>2023-08-21T11:18:51Z</time>
      </trkpt>
      <trkpt lat="45.72247" lon="6.7634">
        <ele>1726</ele>
        <time>2023-08-21T11:18:52Z</time>
      </trkpt>
      <trkpt lat="45.72245" lon="6.76338">
        <ele>1726</ele>
        <time>2023-08-21T11:18:53Z</time>
      </trkpt>
      <trkpt lat="45.72244" lon="6.76336">
        <ele>1725.2</ele>
        <time>2023-08-21T11:18:54Z</time>
      </trkpt>
      <trkpt lat="45.72243" lon="6.76335">
        <ele>1725.2</ele>
        <time>2023-08-21T11:18:55Z</time>
      </trkpt>
      <trkpt lat="45.72242" lon="6.76334">
        <ele>1725.2</ele>
        <time>2023-08-21T11:18:56Z</time>
      </trkpt>
      <trkpt lat="45.72242" lon="6.76334">
        <ele>1725.2</ele>
        <time>2023-08-21T11:18:57Z</time>
      </trkpt>
      <trkpt lat="45.72238" lon="6.76331">
        <ele>1724.6</ele>
        <time>2023-08-21T11:20:23Z</time>
      </trkpt>
      <trkpt lat="45.72236" lon="6.76329">
        <ele>1724.6</ele>
        <time>2023-08-21T11:20:24Z</time>
      </trkpt>
      <trkpt lat="45.72233" lon="6.76326">
        <ele>1724.6</ele>
        <time>2023-08-21T11:20:25Z</time>
      </trkpt>
      <trkpt lat="45.72231" lon="6.76323">
        <ele>1724.6</ele>
        <time>2023-08-21T11:20:26Z</time>
      </trkpt>
      <trkpt lat="45.72228" lon="6.76319">
        <ele>1724.6</ele>
        <time>2023-08-21T11:20:27Z</time>
      </trkpt>
      <trkpt lat="45.72225" lon="6.76315">
        <ele>1724</ele>
        <time>2023-08-21T11:20:28Z</time>
      </trkpt>
      <trkpt lat="45.72222" lon="6.76311">
        <ele>1723.6</ele>
        <time>2023-08-21T11:20:29Z</time>
      </trkpt>
      <trkpt lat="45.72219" lon="6.76306">
        <ele>1723.6</ele>
        <time>2023-08-21T11:20:30Z</time>
      </trkpt>
      <trkpt lat="45.72217" lon="6.76301">
        <ele>1723.6</ele>
        <time>2023-08-21T11:20:31Z</time>
      </trkpt>
      <trkpt lat="45.72214" lon="6.76296">
        <ele>1722.8</ele>
        <time>2023-08-21T11:20:32Z</time>
      </trkpt>
      <trkpt lat="45.72211" lon="6.76291">
        <ele>1723.2</ele>
        <time>2023-08-21T11:20:33Z</time>
      </trkpt>
      <trkpt lat="45.72208" lon="6.76285">
        <ele>1723.2</ele>
        <time>2023-08-21T11:20:34Z</time>
      </trkpt>
      <trkpt lat="45.72204" lon="6.7628">
        <ele>1723.2</ele>
        <time>2023-08-21T11:20:35Z</time>
      </trkpt>
      <trkpt lat="45.72201" lon="6.76274">
        <ele>1722.4</ele>
        <time>2023-08-21T11:20:36Z</time>
      </trkpt>
      <trkpt lat="45.72197" lon="6.7627">
        <ele>1722.4</ele>
        <time>2023-08-21T11:20:37Z</time>
      </trkpt>
      <trkpt lat="45.72193" lon="6.76265">
        <ele>1722.2</ele>
        <time>2023-08-21T11:20:38Z</time>
      </trkpt>
      <trkpt lat="45.72188" lon="6.7626">
        <ele>1722.2</ele>
        <time>2023-08-21T11:20:39Z</time>
      </trkpt>
      <trkpt lat="45.72184" lon="6.76255">
        <ele>1722.2</ele>
        <time>2023-08-21T11:20:40Z</time>
      </trkpt>
      <trkpt lat="45.72179" lon="6.76251">
        <ele>1722.2</ele>
        <time>2023-08-21T11:20:41Z</time>
      </trkpt>
      <trkpt lat="45.72175" lon="6.76246">
        <ele>1721.8</ele>
        <time>2023-08-21T11:20:42Z</time>
      </trkpt>
      <trkpt lat="45.72171" lon="6.7624">
        <ele>1721.8</ele>
        <time>2023-08-21T11:20:43Z</time>
      </trkpt>
      <trkpt lat="45.72168" lon="6.76235">
        <ele>1721.8</ele>
        <time>2023-08-21T11:20:44Z</time>
      </trkpt>
      <trkpt lat="45.72164" lon="6.76229">
        <ele>1721.8</ele>
        <time>2023-08-21T11:20:45Z</time>
      </trkpt>
      <trkpt lat="45.7216" lon="6.76223">
        <ele>1721.8</ele>
        <time>2023-08-21T11:20:46Z</time>
      </trkpt>
      <trkpt lat="45.72156" lon="6.76217">
        <ele>1720.4</ele>
        <time>2023-08-21T11:20:47Z</time>
      </trkpt>
      <trkpt lat="45.72151" lon="6.76212">
        <ele>1720.4</ele>
        <time>2023-08-21T11:20:48Z</time>
      </trkpt>
      <trkpt lat="45.72147" lon="6.76207">
        <ele>1720.4</ele>
        <time>2023-08-21T11:20:49Z</time>
      </trkpt>
      <trkpt lat="45.72143" lon="6.76202">
        <ele>1720.4</ele>
        <time>2023-08-21T11:20:50Z</time>
      </trkpt>
      <trkpt lat="45.72139" lon="6.76198">
        <ele>1720.4</ele>
        <time>2023-08-21T11:20:51Z</time>
      </trkpt>
      <trkpt lat="45.72135" lon="6.76195">
        <ele>1720.6</ele>
        <time>2023-08-21T11:20:52Z</time>
      </trkpt>
      <trkpt lat="45.72131" lon="6.76192">
        <ele>1720.6</ele>
        <time>2023-08-21T11:20:53Z</time>
      </trkpt>
      <trkpt lat="45.72128" lon="6.76189">
        <ele>1720.6</ele>
        <time>2023-08-21T11:20:54Z</time>
      </trkpt>
      <trkpt lat="45.72124" lon="6.76186">
        <ele>1720.6</ele>
        <time>2023-08-21T11:20:55Z</time>
      </trkpt>
      <trkpt lat="45.72121" lon="6.76184">
        <ele>1720.6</ele>
        <time>2023-08-21T11:20:56Z</time>
      </trkpt>
      <trkpt lat="45.72118" lon="6.76182">
        <ele>1720.6</ele>
        <time>2023-08-21T11:20:57Z</time>
      </trkpt>
      <trkpt lat="45.72115" lon="6.76179">
        <ele>1720.6</ele>
        <time>2023-08-21T11:20:58Z</time>
      </trkpt>
      <trkpt lat="45.72112" lon="6.76177">
        <ele>1720.8</ele>
        <time>2023-08-21T11:20:59Z</time>
      </trkpt>
      <trkpt lat="45.72108" lon="6.76174">
        <ele>1720.8</ele>
        <time>2023-08-21T11:21:00Z</time>
      </trkpt>
      <trkpt lat="45.72105" lon="6.76172">
        <ele>1720.8</ele>
        <time>2023-08-21T11:21:01Z</time>
      </trkpt>
      <trkpt lat="45.72102" lon="6.7617">
        <ele>1720.8</ele>
        <time>2023-08-21T11:21:02Z</time>
      </trkpt>
      <trkpt lat="45.72099" lon="6.76167">
        <ele>1720.8</ele>
        <time>2023-08-21T11:21:03Z</time>
      </trkpt>
      <trkpt lat="45.72096" lon="6.76164">
        <ele>1720.8</ele>
        <time>2023-08-21T11:21:04Z</time>
      </trkpt>
      <trkpt lat="45.72093" lon="6.76161">
        <ele>1720.8</ele>
        <time>2023-08-21T11:21:05Z</time>
      </trkpt>
      <trkpt lat="45.7209" lon="6.76159">
        <ele>1720.8</ele>
        <time>2023-08-21T11:21:06Z</time>
      </trkpt>
      <trkpt lat="45.72087" lon="6.76157">
        <ele>1720.8</ele>
        <time>2023-08-21T11:21:07Z</time>
      </trkpt>
      <trkpt lat="45.72084" lon="6.76155">
        <ele>1720.8</ele>
        <time>2023-08-21T11:21:08Z</time>
      </trkpt>
      <trkpt lat="45.72081" lon="6.76153">
        <ele>1720.8</ele>
        <time>2023-08-21T11:21:09Z</time>
      </trkpt>
      <trkpt lat="45.72078" lon="6.76151">
        <ele>1720.8</ele>
        <time>2023-08-21T11:21:10Z</time>
      </trkpt>
      <trkpt lat="45.72074" lon="6.76149">
        <ele>1720.8</ele>
        <time>2023-08-21T11:21:11Z</time>
      </trkpt>
      <trkpt lat="45.72071" lon="6.76146">
        <ele>1720.8</ele>
        <time>2023-08-21T11:21:12Z</time>
      </trkpt>
      <trkpt lat="45.72067" lon="6.76143">
        <ele>1720.8</ele>
        <time>2023-08-21T11:21:13Z</time>
      </trkpt>
      <trkpt lat="45.72063" lon="6.7614">
        <ele>1720.4</ele>
        <time>2023-08-21T11:21:14Z</time>
      </trkpt>
      <trkpt lat="45.72059" lon="6.76137">
        <ele>1720.4</ele>
        <time>2023-08-21T11:21:15Z</time>
      </trkpt>
      <trkpt lat="45.72055" lon="6.76134">
        <ele>1720.4</ele>
        <time>2023-08-21T11:21:16Z</time>
      </trkpt>
      <trkpt lat="45.7205" lon="6.7613">
        <ele>1719.8</ele>
        <time>2023-08-21T11:21:17Z</time>
      </trkpt>
      <trkpt lat="45.72046" lon="6.76126">
        <ele>1719.2</ele>
        <time>2023-08-21T11:21:18Z</time>
      </trkpt>
      <trkpt lat="45.72041" lon="6.76122">
        <ele>1719.2</ele>
        <time>2023-08-21T11:21:19Z</time>
      </trkpt>
      <trkpt lat="45.72036" lon="6.76118">
        <ele>1719.2</ele>
        <time>2023-08-21T11:21:20Z</time>
      </trkpt>
      <trkpt lat="45.72031" lon="6.76114">
        <ele>1719.2</ele>
        <time>2023-08-21T11:21:21Z</time>
      </trkpt>
      <trkpt lat="45.72025" lon="6.7611">
        <ele>1719.2</ele>
        <time>2023-08-21T11:21:22Z</time>
      </trkpt>
      <trkpt lat="45.7202" lon="6.76105">
        <ele>1718.2</ele>
        <time>2023-08-21T11:21:23Z</time>
      </trkpt>
      <trkpt lat="45.72014" lon="6.76099">
        <ele>1718.2</ele>
        <time>2023-08-21T11:21:24Z</time>
      </trkpt>
      <trkpt lat="45.72008" lon="6.76093">
        <ele>1718.2</ele>
        <time>2023-08-21T11:21:25Z</time>
      </trkpt>
      <trkpt lat="45.72002" lon="6.76086">
        <ele>1718.2</ele>
        <time>2023-08-21T11:21:26Z</time>
      </trkpt>
      <trkpt lat="45.71996" lon="6.76079">
        <ele>1717.2</ele>
        <time>2023-08-21T11:21:27Z</time>
      </trkpt>
      <trkpt lat="45.71989" lon="6.76072">
        <ele>1716.2</ele>
        <time>2023-08-21T11:21:28Z</time>
      </trkpt>
      <trkpt lat="45.71983" lon="6.76065">
        <ele>1716.2</ele>
        <time>2023-08-21T11:21:29Z</time>
      </trkpt>
      <trkpt lat="45.71977" lon="6.76058">
        <ele>1716.2</ele>
        <time>2023-08-21T11:21:30Z</time>
      </trkpt>
      <trkpt lat="45.7197" lon="6.76051">
        <ele>1715.2</ele>
        <time>2023-08-21T11:21:31Z</time>
      </trkpt>
      <trkpt lat="45.71964" lon="6.76043">
        <ele>1714</ele>
        <time>2023-08-21T11:21:32Z</time>
      </trkpt>
      <trkpt lat="45.71957" lon="6.76036">
        <ele>1714</ele>
        <time>2023-08-21T11:21:33Z</time>
      </trkpt>
      <trkpt lat="45.7195" lon="6.76028">
        <ele>1714</ele>
        <time>2023-08-21T11:21:34Z</time>
      </trkpt>
      <trkpt lat="45.71943" lon="6.76019">
        <ele>1714</ele>
        <time>2023-08-21T11:21:35Z</time>
      </trkpt>
      <trkpt lat="45.71937" lon="6.76011">
        <ele>1713</ele>
        <time>2023-08-21T11:21:36Z</time>
      </trkpt>
      <trkpt lat="45.7193" lon="6.76002">
        <ele>1713</ele>
        <time>2023-08-21T11:21:37Z</time>
      </trkpt>
      <trkpt lat="45.71924" lon="6.75993">
        <ele>1712</ele>
        <time>2023-08-21T11:21:38Z</time>
      </trkpt>
      <trkpt lat="45.71917" lon="6.75985">
        <ele>1712</ele>
        <time>2023-08-21T11:21:39Z</time>
      </trkpt>
      <trkpt lat="45.71911" lon="6.75977">
        <ele>1712</ele>
        <time>2023-08-21T11:21:40Z</time>
      </trkpt>
      <trkpt lat="45.71905" lon="6.7597">
        <ele>1711</ele>
        <time>2023-08-21T11:21:41Z</time>
      </trkpt>
      <trkpt lat="45.71898" lon="6.75963">
        <ele>1711</ele>
        <time>2023-08-21T11:21:42Z</time>
      </trkpt>
      <trkpt lat="45.71891" lon="6.75956">
        <ele>1711</ele>
        <time>2023-08-21T11:21:43Z</time>
      </trkpt>
      <trkpt lat="45.71884" lon="6.75949">
        <ele>1710</ele>
        <time>2023-08-21T11:21:44Z</time>
      </trkpt>
      <trkpt lat="45.71876" lon="6.7594">
        <ele>1710</ele>
        <time>2023-08-21T11:21:45Z</time>
      </trkpt>
      <trkpt lat="45.71869" lon="6.75932">
        <ele>1708.4</ele>
        <time>2023-08-21T11:21:46Z</time>
      </trkpt>
      <trkpt lat="45.71861" lon="6.75924">
        <ele>1708.4</ele>
        <time>2023-08-21T11:21:47Z</time>
      </trkpt>
      <trkpt lat="45.71853" lon="6.75916">
        <ele>1708.4</ele>
        <time>2023-08-21T11:21:48Z</time>
      </trkpt>
      <trkpt lat="45.71845" lon="6.75909">
        <ele>1708.4</ele>
        <time>2023-08-21T11:21:49Z</time>
      </trkpt>
      <trkpt lat="45.71838" lon="6.75902">
        <ele>1705</ele>
        <time>2023-08-21T11:21:50Z</time>
      </trkpt>
      <trkpt lat="45.71832" lon="6.75895">
        <ele>1705</ele>
        <time>2023-08-21T11:21:51Z</time>
      </trkpt>
      <trkpt lat="45.71826" lon="6.75888">
        <ele>1705</ele>
        <time>2023-08-21T11:21:52Z</time>
      </trkpt>
      <trkpt lat="45.71819" lon="6.75881">
        <ele>1704</ele>
        <time>2023-08-21T11:21:53Z</time>
      </trkpt>
      <trkpt lat="45.71812" lon="6.75873">
        <ele>1704</ele>
        <time>2023-08-21T11:21:54Z</time>
      </trkpt>
      <trkpt lat="45.71805" lon="6.75865">
        <ele>1700.6</ele>
        <time>2023-08-21T11:21:55Z</time>
      </trkpt>
      <trkpt lat="45.71797" lon="6.75856">
        <ele>1700.6</ele>
        <time>2023-08-21T11:21:56Z</time>
      </trkpt>
      <trkpt lat="45.71789" lon="6.75848">
        <ele>1700.6</ele>
        <time>2023-08-21T11:21:57Z</time>
      </trkpt>
      <trkpt lat="45.71781" lon="6.75839">
        <ele>1699.6</ele>
        <time>2023-08-21T11:21:58Z</time>
      </trkpt>
      <trkpt lat="45.71773" lon="6.75831">
        <ele>1697.6</ele>
        <time>2023-08-21T11:21:59Z</time>
      </trkpt>
      <trkpt lat="45.71765" lon="6.75824">
        <ele>1697.6</ele>
        <time>2023-08-21T11:22:00Z</time>
      </trkpt>
      <trkpt lat="45.71757" lon="6.75817">
        <ele>1697.6</ele>
        <time>2023-08-21T11:22:01Z</time>
      </trkpt>
      <trkpt lat="45.7175" lon="6.7581">
        <ele>1697.6</ele>
        <time>2023-08-21T11:22:02Z</time>
      </trkpt>
      <trkpt lat="45.71743" lon="6.75803">
        <ele>1696.6</ele>
        <time>2023-08-21T11:22:03Z</time>
      </trkpt>
      <trkpt lat="45.71737" lon="6.75797">
        <ele>1692.8</ele>
        <time>2023-08-21T11:22:04Z</time>
      </trkpt>
      <trkpt lat="45.7173" lon="6.7579">
        <ele>1692.8</ele>
        <time>2023-08-21T11:22:05Z</time>
      </trkpt>
      <trkpt lat="45.71722" lon="6.75783">
        <ele>1692.8</ele>
        <time>2023-08-21T11:22:06Z</time>
      </trkpt>
      <trkpt lat="45.71715" lon="6.75776">
        <ele>1691.8</ele>
        <time>2023-08-21T11:22:07Z</time>
      </trkpt>
      <trkpt lat="45.71707" lon="6.75768">
        <ele>1691.8</ele>
        <time>2023-08-21T11:22:08Z</time>
      </trkpt>
      <trkpt lat="45.71699" lon="6.75761">
        <ele>1688.8</ele>
        <time>2023-08-21T11:22:09Z</time>
      </trkpt>
      <trkpt lat="45.71692" lon="6.75755">
        <ele>1688.8</ele>
        <time>2023-08-21T11:22:10Z</time>
      </trkpt>
      <trkpt lat="45.71684" lon="6.75749">
        <ele>1688.8</ele>
        <time>2023-08-21T11:22:11Z</time>
      </trkpt>
      <trkpt lat="45.71676" lon="6.75743">
        <ele>1688.8</ele>
        <time>2023-08-21T11:22:12Z</time>
      </trkpt>
      <trkpt lat="45.71669" lon="6.75736">
        <ele>1684.8</ele>
        <time>2023-08-21T11:22:13Z</time>
      </trkpt>
      <trkpt lat="45.71661" lon="6.7573">
        <ele>1684.8</ele>
        <time>2023-08-21T11:22:14Z</time>
      </trkpt>
      <trkpt lat="45.71654" lon="6.75724">
        <ele>1684.8</ele>
        <time>2023-08-21T11:22:15Z</time>
      </trkpt>
      <trkpt lat="45.71647" lon="6.75719">
        <ele>1683.8</ele>
        <time>2023-08-21T11:22:16Z</time>
      </trkpt>
      <trkpt lat="45.7164" lon="6.75715">
        <ele>1681.4</ele>
        <time>2023-08-21T11:22:17Z</time>
      </trkpt>
      <trkpt lat="45.71632" lon="6.75711">
        <ele>1681.4</ele>
        <time>2023-08-21T11:22:18Z</time>
      </trkpt>
      <trkpt lat="45.71624" lon="6.75707">
        <ele>1681.4</ele>
        <time>2023-08-21T11:22:19Z</time>
      </trkpt>
      <trkpt lat="45.71618" lon="6.75702">
        <ele>1681.4</ele>
        <time>2023-08-21T11:22:20Z</time>
      </trkpt>
      <trkpt lat="45.71611" lon="6.75695">
        <ele>1680.4</ele>
        <time>2023-08-21T11:22:21Z</time>
      </trkpt>
      <trkpt lat="45.71605" lon="6.75688">
        <ele>1680.4</ele>
        <time>2023-08-21T11:22:22Z</time>
      </trkpt>
      <trkpt lat="45.71598" lon="6.75681">
        <ele>1677.6</ele>
        <time>2023-08-21T11:22:23Z</time>
      </trkpt>
      <trkpt lat="45.7159" lon="6.75674">
        <ele>1677.6</ele>
        <time>2023-08-21T11:22:24Z</time>
      </trkpt>
      <trkpt lat="45.71582" lon="6.75668">
        <ele>1676.6</ele>
        <time>2023-08-21T11:22:25Z</time>
      </trkpt>
      <trkpt lat="45.71575" lon="6.75661">
        <ele>1673.8</ele>
        <time>2023-08-21T11:22:26Z</time>
      </trkpt>
      <trkpt lat="45.71567" lon="6.75654">
        <ele>1673.8</ele>
        <time>2023-08-21T11:22:27Z</time>
      </trkpt>
      <trkpt lat="45.7156" lon="6.75647">
        <ele>1673.8</ele>
        <time>2023-08-21T11:22:28Z</time>
      </trkpt>
      <trkpt lat="45.71551" lon="6.7564">
        <ele>1672.8</ele>
        <time>2023-08-21T11:22:29Z</time>
      </trkpt>
      <trkpt lat="45.71543" lon="6.75632">
        <ele>1672.8</ele>
        <time>2023-08-21T11:22:30Z</time>
      </trkpt>
      <trkpt lat="45.71534" lon="6.75625">
        <ele>1669.6</ele>
        <time>2023-08-21T11:22:31Z</time>
      </trkpt>
      <trkpt lat="45.71526" lon="6.75619">
        <ele>1669.6</ele>
        <time>2023-08-21T11:22:32Z</time>
      </trkpt>
      <trkpt lat="45.71518" lon="6.75613">
        <ele>1669.6</ele>
        <time>2023-08-21T11:22:33Z</time>
      </trkpt>
      <trkpt lat="45.7151" lon="6.75606">
        <ele>1668.6</ele>
        <time>2023-08-21T11:22:34Z</time>
      </trkpt>
      <trkpt lat="45.71502" lon="6.75599">
        <ele>1664.4</ele>
        <time>2023-08-21T11:22:35Z</time>
      </trkpt>
      <trkpt lat="45.71494" lon="6.75592">
        <ele>1664.4</ele>
        <time>2023-08-21T11:22:36Z</time>
      </trkpt>
      <trkpt lat="45.71486" lon="6.75585">
        <ele>1664.4</ele>
        <time>2023-08-21T11:22:37Z</time>
      </trkpt>
      <trkpt lat="45.71479" lon="6.75578">
        <ele>1663.4</ele>
        <time>2023-08-21T11:22:38Z</time>
      </trkpt>
      <trkpt lat="45.71471" lon="6.7557">
        <ele>1660.6</ele>
        <time>2023-08-21T11:22:39Z</time>
      </trkpt>
      <trkpt lat="45.71464" lon="6.75563">
        <ele>1660.6</ele>
        <time>2023-08-21T11:22:40Z</time>
      </trkpt>
      <trkpt lat="45.71457" lon="6.75556">
        <ele>1660.6</ele>
        <time>2023-08-21T11:22:41Z</time>
      </trkpt>
      <trkpt lat="45.71449" lon="6.75549">
        <ele>1659.6</ele>
        <time>2023-08-21T11:22:42Z</time>
      </trkpt>
      <trkpt lat="45.71441" lon="6.75543">
        <ele>1659.6</ele>
        <time>2023-08-21T11:22:43Z</time>
      </trkpt>
      <trkpt lat="45.71433" lon="6.75538">
        <ele>1654.4</ele>
        <time>2023-08-21T11:22:44Z</time>
      </trkpt>
      <trkpt lat="45.71425" lon="6.75533">
        <ele>1654.4</ele>
        <time>2023-08-21T11:22:45Z</time>
      </trkpt>
      <trkpt lat="45.71419" lon="6.75528">
        <ele>1654.4</ele>
        <time>2023-08-21T11:22:46Z</time>
      </trkpt>
      <trkpt lat="45.71412" lon="6.75524">
        <ele>1654.4</ele>
        <time>2023-08-21T11:22:47Z</time>
      </trkpt>
      <trkpt lat="45.71405" lon="6.75522">
        <ele>1653.4</ele>
        <time>2023-08-21T11:22:48Z</time>
      </trkpt>
      <trkpt lat="45.71398" lon="6.7552">
        <ele>1653.4</ele>
        <time>2023-08-21T11:22:49Z</time>
      </trkpt>
      <trkpt lat="45.71391" lon="6.75519">
        <ele>1649</ele>
        <time>2023-08-21T11:22:50Z</time>
      </trkpt>
      <trkpt lat="45.71383" lon="6.75518">
        <ele>1649</ele>
        <time>2023-08-21T11:22:51Z</time>
      </trkpt>
      <trkpt lat="45.71376" lon="6.75517">
        <ele>1648</ele>
        <time>2023-08-21T11:22:52Z</time>
      </trkpt>
      <trkpt lat="45.71369" lon="6.75514">
        <ele>1647.4</ele>
        <time>2023-08-21T11:22:53Z</time>
      </trkpt>
      <trkpt lat="45.71363" lon="6.75512">
        <ele>1647.4</ele>
        <time>2023-08-21T11:22:54Z</time>
      </trkpt>
      <trkpt lat="45.71357" lon="6.7551">
        <ele>1647.4</ele>
        <time>2023-08-21T11:22:55Z</time>
      </trkpt>
      <trkpt lat="45.71351" lon="6.75507">
        <ele>1647.4</ele>
        <time>2023-08-21T11:22:56Z</time>
      </trkpt>
      <trkpt lat="45.71345" lon="6.75505">
        <ele>1646.4</ele>
        <time>2023-08-21T11:22:57Z</time>
      </trkpt>
      <trkpt lat="45.71339" lon="6.75502">
        <ele>1645.2</ele>
        <time>2023-08-21T11:22:58Z</time>
      </trkpt>
      <trkpt lat="45.71333" lon="6.75498">
        <ele>1645.2</ele>
        <time>2023-08-21T11:22:59Z</time>
      </trkpt>
      <trkpt lat="45.71328" lon="6.75493">
        <ele>1645.2</ele>
        <time>2023-08-21T11:23:00Z</time>
      </trkpt>
      <trkpt lat="45.71323" lon="6.75488">
        <ele>1644.2</ele>
        <time>2023-08-21T11:23:01Z</time>
      </trkpt>
      <trkpt lat="45.71319" lon="6.75483">
        <ele>1644.2</ele>
        <time>2023-08-21T11:23:02Z</time>
      </trkpt>
      <trkpt lat="45.71314" lon="6.75477">
        <ele>1642.4</ele>
        <time>2023-08-21T11:23:03Z</time>
      </trkpt>
      <trkpt lat="45.7131" lon="6.75471">
        <ele>1642.4</ele>
        <time>2023-08-21T11:23:04Z</time>
      </trkpt>
      <trkpt lat="45.71305" lon="6.75465">
        <ele>1642.4</ele>
        <time>2023-08-21T11:23:05Z</time>
      </trkpt>
      <trkpt lat="45.713" lon="6.75459">
        <ele>1641.4</ele>
        <time>2023-08-21T11:23:06Z</time>
      </trkpt>
      <trkpt lat="45.71295" lon="6.75454">
        <ele>1640.8</ele>
        <time>2023-08-21T11:23:07Z</time>
      </trkpt>
      <trkpt lat="45.7129" lon="6.75448">
        <ele>1640.8</ele>
        <time>2023-08-21T11:23:08Z</time>
      </trkpt>
      <trkpt lat="45.71285" lon="6.75443">
        <ele>1640.8</ele>
        <time>2023-08-21T11:23:09Z</time>
      </trkpt>
      <trkpt lat="45.7128" lon="6.75437">
        <ele>1639.8</ele>
        <time>2023-08-21T11:23:10Z</time>
      </trkpt>
      <trkpt lat="45.71275" lon="6.7543">
        <ele>1639.4</ele>
        <time>2023-08-21T11:23:11Z</time>
      </trkpt>
      <trkpt lat="45.71271" lon="6.75424">
        <ele>1639.4</ele>
        <time>2023-08-21T11:23:12Z</time>
      </trkpt>
      <trkpt lat="45.71267" lon="6.75417">
        <ele>1639.4</ele>
        <time>2023-08-21T11:23:13Z</time>
      </trkpt>
      <trkpt lat="45.71263" lon="6.75411">
        <ele>1639.4</ele>
        <time>2023-08-21T11:23:14Z</time>
      </trkpt>
      <trkpt lat="45.71259" lon="6.75405">
        <ele>1637.4</ele>
        <time>2023-08-21T11:23:15Z</time>
      </trkpt>
      <trkpt lat="45.71255" lon="6.75398">
        <ele>1637.4</ele>
        <time>2023-08-21T11:23:16Z</time>
      </trkpt>
      <trkpt lat="45.7125" lon="6.75391">
        <ele>1637.4</ele>
        <time>2023-08-21T11:23:17Z</time>
      </trkpt>
      <trkpt lat="45.71245" lon="6.75385">
        <ele>1637.4</ele>
        <time>2023-08-21T11:23:18Z</time>
      </trkpt>
      <trkpt lat="45.71241" lon="6.75379">
        <ele>1637.4</ele>
        <time>2023-08-21T11:23:19Z</time>
      </trkpt>
      <trkpt lat="45.71235" lon="6.75374">
        <ele>1634.8</ele>
        <time>2023-08-21T11:23:20Z</time>
      </trkpt>
      <trkpt lat="45.71229" lon="6.75369">
        <ele>1634.8</ele>
        <time>2023-08-21T11:23:21Z</time>
      </trkpt>
      <trkpt lat="45.71223" lon="6.75364">
        <ele>1634.8</ele>
        <time>2023-08-21T11:23:22Z</time>
      </trkpt>
      <trkpt lat="45.71216" lon="6.75359">
        <ele>1633.8</ele>
        <time>2023-08-21T11:23:23Z</time>
      </trkpt>
      <trkpt lat="45.7121" lon="6.75354">
        <ele>1631.8</ele>
        <time>2023-08-21T11:23:24Z</time>
      </trkpt>
      <trkpt lat="45.71205" lon="6.75348">
        <ele>1631.8</ele>
        <time>2023-08-21T11:23:25Z</time>
      </trkpt>
      <trkpt lat="45.71199" lon="6.75342">
        <ele>1631.8</ele>
        <time>2023-08-21T11:23:26Z</time>
      </trkpt>
      <trkpt lat="45.71194" lon="6.75336">
        <ele>1631.8</ele>
        <time>2023-08-21T11:23:27Z</time>
      </trkpt>
      <trkpt lat="45.71188" lon="6.75329">
        <ele>1631.8</ele>
        <time>2023-08-21T11:23:28Z</time>
      </trkpt>
      <trkpt lat="45.71182" lon="6.75322">
        <ele>1630.8</ele>
        <time>2023-08-21T11:23:29Z</time>
      </trkpt>
      <trkpt lat="45.71175" lon="6.75315">
        <ele>1628.6</ele>
        <time>2023-08-21T11:23:30Z</time>
      </trkpt>
      <trkpt lat="45.71167" lon="6.75308">
        <ele>1628.6</ele>
        <time>2023-08-21T11:23:31Z</time>
      </trkpt>
      <trkpt lat="45.71161" lon="6.75301">
        <ele>1628.6</ele>
        <time>2023-08-21T11:23:32Z</time>
      </trkpt>
      <trkpt lat="45.71153" lon="6.75295">
        <ele>1627.6</ele>
        <time>2023-08-21T11:23:33Z</time>
      </trkpt>
      <trkpt lat="45.71145" lon="6.75291">
        <ele>1625</ele>
        <time>2023-08-21T11:23:34Z</time>
      </trkpt>
      <trkpt lat="45.71137" lon="6.75288">
        <ele>1625</ele>
        <time>2023-08-21T11:23:35Z</time>
      </trkpt>
      <trkpt lat="45.71129" lon="6.75286">
        <ele>1625</ele>
        <time>2023-08-21T11:23:36Z</time>
      </trkpt>
      <trkpt lat="45.71121" lon="6.75283">
        <ele>1625</ele>
        <time>2023-08-21T11:23:37Z</time>
      </trkpt>
      <trkpt lat="45.71113" lon="6.75281">
        <ele>1625</ele>
        <time>2023-08-21T11:23:38Z</time>
      </trkpt>
      <trkpt lat="45.71104" lon="6.7528">
        <ele>1620.6</ele>
        <time>2023-08-21T11:23:39Z</time>
      </trkpt>
      <trkpt lat="45.71095" lon="6.75281">
        <ele>1620.6</ele>
        <time>2023-08-21T11:23:40Z</time>
      </trkpt>
      <trkpt lat="45.71087" lon="6.75282">
        <ele>1620.6</ele>
        <time>2023-08-21T11:23:41Z</time>
      </trkpt>
      <trkpt lat="45.71079" lon="6.75282">
        <ele>1620.6</ele>
        <time>2023-08-21T11:23:42Z</time>
      </trkpt>
      <trkpt lat="45.71072" lon="6.75279">
        <ele>1617.8</ele>
        <time>2023-08-21T11:23:43Z</time>
      </trkpt>
      <trkpt lat="45.71065" lon="6.75275">
        <ele>1617.8</ele>
        <time>2023-08-21T11:23:44Z</time>
      </trkpt>
      <trkpt lat="45.71057" lon="6.75271">
        <ele>1617.8</ele>
        <time>2023-08-21T11:23:45Z</time>
      </trkpt>
      <trkpt lat="45.71049" lon="6.75268">
        <ele>1617.8</ele>
        <time>2023-08-21T11:23:46Z</time>
      </trkpt>
      <trkpt lat="45.71041" lon="6.75266">
        <ele>1616</ele>
        <time>2023-08-21T11:23:47Z</time>
      </trkpt>
      <trkpt lat="45.71032" lon="6.75262">
        <ele>1616</ele>
        <time>2023-08-21T11:23:48Z</time>
      </trkpt>
      <trkpt lat="45.71024" lon="6.75259">
        <ele>1616</ele>
        <time>2023-08-21T11:23:49Z</time>
      </trkpt>
      <trkpt lat="45.71015" lon="6.75256">
        <ele>1616</ele>
        <time>2023-08-21T11:23:50Z</time>
      </trkpt>
      <trkpt lat="45.71006" lon="6.75254">
        <ele>1615</ele>
        <time>2023-08-21T11:23:51Z</time>
      </trkpt>
      <trkpt lat="45.70997" lon="6.75252">
        <ele>1613.2</ele>
        <time>2023-08-21T11:23:52Z</time>
      </trkpt>
      <trkpt lat="45.7099" lon="6.7525">
        <ele>1613.2</ele>
        <time>2023-08-21T11:23:53Z</time>
      </trkpt>
      <trkpt lat="45.70982" lon="6.75247">
        <ele>1613.2</ele>
        <time>2023-08-21T11:23:54Z</time>
      </trkpt>
      <trkpt lat="45.70975" lon="6.75243">
        <ele>1612.2</ele>
        <time>2023-08-21T11:23:55Z</time>
      </trkpt>
      <trkpt lat="45.70968" lon="6.75238">
        <ele>1612.2</ele>
        <time>2023-08-21T11:23:56Z</time>
      </trkpt>
      <trkpt lat="45.70962" lon="6.75231">
        <ele>1611.4</ele>
        <time>2023-08-21T11:23:57Z</time>
      </trkpt>
      <trkpt lat="45.70955" lon="6.75224">
        <ele>1611.4</ele>
        <time>2023-08-21T11:23:58Z</time>
      </trkpt>
      <trkpt lat="45.70948" lon="6.75218">
        <ele>1610.4</ele>
        <time>2023-08-21T11:23:59Z</time>
      </trkpt>
      <trkpt lat="45.7094" lon="6.75212">
        <ele>1608.6</ele>
        <time>2023-08-21T11:24:00Z</time>
      </trkpt>
      <trkpt lat="45.70933" lon="6.75206">
        <ele>1608.6</ele>
        <time>2023-08-21T11:24:01Z</time>
      </trkpt>
      <trkpt lat="45.70925" lon="6.752">
        <ele>1608.6</ele>
        <time>2023-08-21T11:24:02Z</time>
      </trkpt>
      <trkpt lat="45.70918" lon="6.75194">
        <ele>1608.6</ele>
        <time>2023-08-21T11:24:03Z</time>
      </trkpt>
      <trkpt lat="45.70911" lon="6.75186">
        <ele>1607.6</ele>
        <time>2023-08-21T11:24:04Z</time>
      </trkpt>
      <trkpt lat="45.70903" lon="6.75179">
        <ele>1605.4</ele>
        <time>2023-08-21T11:24:05Z</time>
      </trkpt>
      <trkpt lat="45.70895" lon="6.75173">
        <ele>1605.4</ele>
        <time>2023-08-21T11:24:06Z</time>
      </trkpt>
      <trkpt lat="45.70886" lon="6.75167">
        <ele>1605.4</ele>
        <time>2023-08-21T11:24:07Z</time>
      </trkpt>
      <trkpt lat="45.70877" lon="6.75163">
        <ele>1604.4</ele>
        <time>2023-08-21T11:24:08Z</time>
      </trkpt>
      <trkpt lat="45.70868" lon="6.75159">
        <ele>1603</ele>
        <time>2023-08-21T11:24:09Z</time>
      </trkpt>
      <trkpt lat="45.70859" lon="6.75155">
        <ele>1603</ele>
        <time>2023-08-21T11:24:10Z</time>
      </trkpt>
      <trkpt lat="45.70851" lon="6.75151">
        <ele>1603</ele>
        <time>2023-08-21T11:24:11Z</time>
      </trkpt>
      <trkpt lat="45.70844" lon="6.75146">
        <ele>1603</ele>
        <time>2023-08-21T11:24:12Z</time>
      </trkpt>
      <trkpt lat="45.70836" lon="6.75141">
        <ele>1602</ele>
        <time>2023-08-21T11:24:13Z</time>
      </trkpt>
      <trkpt lat="45.70828" lon="6.75137">
        <ele>1602</ele>
        <time>2023-08-21T11:24:14Z</time>
      </trkpt>
      <trkpt lat="45.7082" lon="6.75133">
        <ele>1601.4</ele>
        <time>2023-08-21T11:24:15Z</time>
      </trkpt>
      <trkpt lat="45.70813" lon="6.75129">
        <ele>1601.4</ele>
        <time>2023-08-21T11:24:16Z</time>
      </trkpt>
      <trkpt lat="45.70805" lon="6.75124">
        <ele>1601.4</ele>
        <time>2023-08-21T11:24:17Z</time>
      </trkpt>
      <trkpt lat="45.70797" lon="6.75119">
        <ele>1600.4</ele>
        <time>2023-08-21T11:24:18Z</time>
      </trkpt>
      <trkpt lat="45.7079" lon="6.75115">
        <ele>1598.6</ele>
        <time>2023-08-21T11:24:19Z</time>
      </trkpt>
      <trkpt lat="45.70783" lon="6.75111">
        <ele>1598.6</ele>
        <time>2023-08-21T11:24:20Z</time>
      </trkpt>
      <trkpt lat="45.70776" lon="6.75104">
        <ele>1598.6</ele>
        <time>2023-08-21T11:24:21Z</time>
      </trkpt>
      <trkpt lat="45.7077" lon="6.75096">
        <ele>1597.6</ele>
        <time>2023-08-21T11:24:22Z</time>
      </trkpt>
      <trkpt lat="45.70764" lon="6.75088">
        <ele>1596.6</ele>
        <time>2023-08-21T11:24:23Z</time>
      </trkpt>
      <trkpt lat="45.70756" lon="6.75082">
        <ele>1596.6</ele>
        <time>2023-08-21T11:24:24Z</time>
      </trkpt>
      <trkpt lat="45.70749" lon="6.75076">
        <ele>1596.6</ele>
        <time>2023-08-21T11:24:25Z</time>
      </trkpt>
      <trkpt lat="45.70742" lon="6.75068">
        <ele>1596.6</ele>
        <time>2023-08-21T11:24:26Z</time>
      </trkpt>
      <trkpt lat="45.70735" lon="6.75061">
        <ele>1595.6</ele>
        <time>2023-08-21T11:24:27Z</time>
      </trkpt>
      <trkpt lat="45.70729" lon="6.75053">
        <ele>1595.6</ele>
        <time>2023-08-21T11:24:28Z</time>
      </trkpt>
      <trkpt lat="45.70722" lon="6.75045">
        <ele>1593.6</ele>
        <time>2023-08-21T11:24:29Z</time>
      </trkpt>
      <trkpt lat="45.70716" lon="6.75038">
        <ele>1593.6</ele>
        <time>2023-08-21T11:24:30Z</time>
      </trkpt>
      <trkpt lat="45.70711" lon="6.7503">
        <ele>1593.6</ele>
        <time>2023-08-21T11:24:31Z</time>
      </trkpt>
      <trkpt lat="45.70707" lon="6.75021">
        <ele>1592</ele>
        <time>2023-08-21T11:24:32Z</time>
      </trkpt>
      <trkpt lat="45.70703" lon="6.7501">
        <ele>1592</ele>
        <time>2023-08-21T11:24:33Z</time>
      </trkpt>
      <trkpt lat="45.70699" lon="6.75">
        <ele>1592</ele>
        <time>2023-08-21T11:24:34Z</time>
      </trkpt>
      <trkpt lat="45.70691" lon="6.74984">
        <ele>1592</ele>
        <time>2023-08-21T11:24:35Z</time>
      </trkpt>
      <trkpt lat="45.70688" lon="6.74979">
        <ele>1587.6</ele>
        <time>2023-08-21T11:24:36Z</time>
      </trkpt>
      <trkpt lat="45.70682" lon="6.74969">
        <ele>1587.6</ele>
        <time>2023-08-21T11:24:37Z</time>
      </trkpt>
      <trkpt lat="45.70675" lon="6.74958">
        <ele>1587.6</ele>
        <time>2023-08-21T11:24:38Z</time>
      </trkpt>
      <trkpt lat="45.70669" lon="6.74947">
        <ele>1587.6</ele>
        <time>2023-08-21T11:24:39Z</time>
      </trkpt>
      <trkpt lat="45.70662" lon="6.74936">
        <ele>1587.6</ele>
        <time>2023-08-21T11:24:40Z</time>
      </trkpt>
      <trkpt lat="45.70655" lon="6.74925">
        <ele>1586.6</ele>
        <time>2023-08-21T11:24:41Z</time>
      </trkpt>
      <trkpt lat="45.70648" lon="6.74915">
        <ele>1584.2</ele>
        <time>2023-08-21T11:24:42Z</time>
      </trkpt>
      <trkpt lat="45.70641" lon="6.74905">
        <ele>1584.2</ele>
        <time>2023-08-21T11:24:43Z</time>
      </trkpt>
      <trkpt lat="45.70635" lon="6.74896">
        <ele>1584.2</ele>
        <time>2023-08-21T11:24:44Z</time>
      </trkpt>
      <trkpt lat="45.70629" lon="6.74886">
        <ele>1583.2</ele>
        <time>2023-08-21T11:24:45Z</time>
      </trkpt>
      <trkpt lat="45.70621" lon="6.74878">
        <ele>1579.4</ele>
        <time>2023-08-21T11:24:46Z</time>
      </trkpt>
      <trkpt lat="45.70612" lon="6.7487">
        <ele>1579.4</ele>
        <time>2023-08-21T11:24:47Z</time>
      </trkpt>
      <trkpt lat="45.70603" lon="6.74864">
        <ele>1579.4</ele>
        <time>2023-08-21T11:24:48Z</time>
      </trkpt>
      <trkpt lat="45.70593" lon="6.74858">
        <ele>1579.4</ele>
        <time>2023-08-21T11:24:49Z</time>
      </trkpt>
      <trkpt lat="45.70583" lon="6.74851">
        <ele>1578.4</ele>
        <time>2023-08-21T11:24:50Z</time>
      </trkpt>
      <trkpt lat="45.70575" lon="6.74845">
        <ele>1578.4</ele>
        <time>2023-08-21T11:24:51Z</time>
      </trkpt>
      <trkpt lat="45.70566" lon="6.74839">
        <ele>1575.4</ele>
        <time>2023-08-21T11:24:52Z</time>
      </trkpt>
      <trkpt lat="45.70559" lon="6.74835">
        <ele>1575.4</ele>
        <time>2023-08-21T11:24:53Z</time>
      </trkpt>
      <trkpt lat="45.70552" lon="6.74832">
        <ele>1574.4</ele>
        <time>2023-08-21T11:24:54Z</time>
      </trkpt>
      <trkpt lat="45.70546" lon="6.7483">
        <ele>1573.6</ele>
        <time>2023-08-21T11:24:55Z</time>
      </trkpt>
      <trkpt lat="45.70541" lon="6.74825">
        <ele>1573.6</ele>
        <time>2023-08-21T11:24:56Z</time>
      </trkpt>
      <trkpt lat="45.70537" lon="6.7482">
        <ele>1573.6</ele>
        <time>2023-08-21T11:24:57Z</time>
      </trkpt>
      <trkpt lat="45.70532" lon="6.74815">
        <ele>1573.6</ele>
        <time>2023-08-21T11:24:58Z</time>
      </trkpt>
      <trkpt lat="45.70529" lon="6.7481">
        <ele>1573.6</ele>
        <time>2023-08-21T11:24:59Z</time>
      </trkpt>
      <trkpt lat="45.70526" lon="6.74805">
        <ele>1573.4</ele>
        <time>2023-08-21T11:25:00Z</time>
      </trkpt>
      <trkpt lat="45.70523" lon="6.748">
        <ele>1573.4</ele>
        <time>2023-08-21T11:25:01Z</time>
      </trkpt>
      <trkpt lat="45.7052" lon="6.74796">
        <ele>1573.4</ele>
        <time>2023-08-21T11:25:02Z</time>
      </trkpt>
      <trkpt lat="45.70518" lon="6.74791">
        <ele>1573.4</ele>
        <time>2023-08-21T11:25:03Z</time>
      </trkpt>
      <trkpt lat="45.70516" lon="6.74786">
        <ele>1573</ele>
        <time>2023-08-21T11:25:04Z</time>
      </trkpt>
      <trkpt lat="45.70513" lon="6.74781">
        <ele>1573</ele>
        <time>2023-08-21T11:25:05Z</time>
      </trkpt>
      <trkpt lat="45.7051" lon="6.74776">
        <ele>1573</ele>
        <time>2023-08-21T11:25:06Z</time>
      </trkpt>
      <trkpt lat="45.70507" lon="6.74771">
        <ele>1573</ele>
        <time>2023-08-21T11:25:07Z</time>
      </trkpt>
      <trkpt lat="45.70503" lon="6.74769">
        <ele>1572.8</ele>
        <time>2023-08-21T11:25:08Z</time>
      </trkpt>
      <trkpt lat="45.70499" lon="6.74766">
        <ele>1572.8</ele>
        <time>2023-08-21T11:25:09Z</time>
      </trkpt>
      <trkpt lat="45.70495" lon="6.74763">
        <ele>1572.8</ele>
        <time>2023-08-21T11:25:10Z</time>
      </trkpt>
      <trkpt lat="45.70489" lon="6.7476">
        <ele>1571.8</ele>
        <time>2023-08-21T11:25:11Z</time>
      </trkpt>
      <trkpt lat="45.70484" lon="6.74757">
        <ele>1571.6</ele>
        <time>2023-08-21T11:25:12Z</time>
      </trkpt>
      <trkpt lat="45.70479" lon="6.74751">
        <ele>1571.6</ele>
        <time>2023-08-21T11:25:13Z</time>
      </trkpt>
      <trkpt lat="45.70474" lon="6.74745">
        <ele>1571.6</ele>
        <time>2023-08-21T11:25:14Z</time>
      </trkpt>
      <trkpt lat="45.70469" lon="6.74738">
        <ele>1571.6</ele>
        <time>2023-08-21T11:25:15Z</time>
      </trkpt>
      <trkpt lat="45.70464" lon="6.7473">
        <ele>1571.6</ele>
        <time>2023-08-21T11:25:16Z</time>
      </trkpt>
      <trkpt lat="45.70459" lon="6.74723">
        <ele>1570.6</ele>
        <time>2023-08-21T11:25:17Z</time>
      </trkpt>
      <trkpt lat="45.70453" lon="6.74715">
        <ele>1570.6</ele>
        <time>2023-08-21T11:25:18Z</time>
      </trkpt>
      <trkpt lat="45.70448" lon="6.74706">
        <ele>1569</ele>
        <time>2023-08-21T11:25:19Z</time>
      </trkpt>
      <trkpt lat="45.70443" lon="6.74697">
        <ele>1569</ele>
        <time>2023-08-21T11:25:20Z</time>
      </trkpt>
      <trkpt lat="45.70438" lon="6.74689">
        <ele>1568</ele>
        <time>2023-08-21T11:25:21Z</time>
      </trkpt>
      <trkpt lat="45.70434" lon="6.7468">
        <ele>1566.6</ele>
        <time>2023-08-21T11:25:22Z</time>
      </trkpt>
      <trkpt lat="45.7043" lon="6.74671">
        <ele>1566.6</ele>
        <time>2023-08-21T11:25:23Z</time>
      </trkpt>
      <trkpt lat="45.70425" lon="6.74663">
        <ele>1566.6</ele>
        <time>2023-08-21T11:25:24Z</time>
      </trkpt>
      <trkpt lat="45.70421" lon="6.74655">
        <ele>1566.6</ele>
        <time>2023-08-21T11:25:25Z</time>
      </trkpt>
      <trkpt lat="45.70417" lon="6.74647">
        <ele>1566.6</ele>
        <time>2023-08-21T11:25:26Z</time>
      </trkpt>
      <trkpt lat="45.70413" lon="6.74638">
        <ele>1566.2</ele>
        <time>2023-08-21T11:25:27Z</time>
      </trkpt>
      <trkpt lat="45.70409" lon="6.7463">
        <ele>1566.2</ele>
        <time>2023-08-21T11:25:28Z</time>
      </trkpt>
      <trkpt lat="45.70404" lon="6.74621">
        <ele>1566.2</ele>
        <time>2023-08-21T11:25:29Z</time>
      </trkpt>
      <trkpt lat="45.70398" lon="6.74613">
        <ele>1565.2</ele>
        <time>2023-08-21T11:25:30Z</time>
      </trkpt>
      <trkpt lat="45.70392" lon="6.74604">
        <ele>1565.2</ele>
        <time>2023-08-21T11:25:31Z</time>
      </trkpt>
      <trkpt lat="45.70386" lon="6.74594">
        <ele>1562.8</ele>
        <time>2023-08-21T11:25:32Z</time>
      </trkpt>
      <trkpt lat="45.7038" lon="6.74584">
        <ele>1562.8</ele>
        <time>2023-08-21T11:25:33Z</time>
      </trkpt>
      <trkpt lat="45.70376" lon="6.74573">
        <ele>1561.8</ele>
        <time>2023-08-21T11:25:34Z</time>
      </trkpt>
      <trkpt lat="45.70372" lon="6.74562">
        <ele>1561.8</ele>
        <time>2023-08-21T11:25:35Z</time>
      </trkpt>
      <trkpt lat="45.70367" lon="6.74551">
        <ele>1559.6</ele>
        <time>2023-08-21T11:25:36Z</time>
      </trkpt>
      <trkpt lat="45.70361" lon="6.74541">
        <ele>1559.6</ele>
        <time>2023-08-21T11:25:37Z</time>
      </trkpt>
      <trkpt lat="45.70354" lon="6.74531">
        <ele>1559.6</ele>
        <time>2023-08-21T11:25:38Z</time>
      </trkpt>
      <trkpt lat="45.70347" lon="6.74522">
        <ele>1558.6</ele>
        <time>2023-08-21T11:25:39Z</time>
      </trkpt>
      <trkpt lat="45.70341" lon="6.74512">
        <ele>1555.8</ele>
        <time>2023-08-21T11:25:40Z</time>
      </trkpt>
      <trkpt lat="45.70334" lon="6.74501">
        <ele>1555.8</ele>
        <time>2023-08-21T11:25:41Z</time>
      </trkpt>
      <trkpt lat="45.70327" lon="6.74492">
        <ele>1555.8</ele>
        <time>2023-08-21T11:25:42Z</time>
      </trkpt>
      <trkpt lat="45.7032" lon="6.74484">
        <ele>1554.8</ele>
        <time>2023-08-21T11:25:43Z</time>
      </trkpt>
      <trkpt lat="45.70312" lon="6.74476">
        <ele>1554.8</ele>
        <time>2023-08-21T11:25:44Z</time>
      </trkpt>
      <trkpt lat="45.70305" lon="6.74469">
        <ele>1553.2</ele>
        <time>2023-08-21T11:25:45Z</time>
      </trkpt>
      <trkpt lat="45.70298" lon="6.74461">
        <ele>1553.2</ele>
        <time>2023-08-21T11:25:46Z</time>
      </trkpt>
      <trkpt lat="45.7029" lon="6.74454">
        <ele>1553.2</ele>
        <time>2023-08-21T11:25:47Z</time>
      </trkpt>
      <trkpt lat="45.70283" lon="6.74447">
        <ele>1552.2</ele>
        <time>2023-08-21T11:25:48Z</time>
      </trkpt>
      <trkpt lat="45.70276" lon="6.7444">
        <ele>1552.2</ele>
        <time>2023-08-21T11:25:49Z</time>
      </trkpt>
      <trkpt lat="45.70269" lon="6.74433">
        <ele>1550.4</ele>
        <time>2023-08-21T11:25:50Z</time>
      </trkpt>
      <trkpt lat="45.70262" lon="6.74428">
        <ele>1550.4</ele>
        <time>2023-08-21T11:25:51Z</time>
      </trkpt>
      <trkpt lat="45.70255" lon="6.74424">
        <ele>1549.6</ele>
        <time>2023-08-21T11:25:52Z</time>
      </trkpt>
      <trkpt lat="45.70249" lon="6.74421">
        <ele>1548.8</ele>
        <time>2023-08-21T11:25:53Z</time>
      </trkpt>
      <trkpt lat="45.70243" lon="6.74417">
        <ele>1548.8</ele>
        <time>2023-08-21T11:25:54Z</time>
      </trkpt>
      <trkpt lat="45.70238" lon="6.74413">
        <ele>1548.8</ele>
        <time>2023-08-21T11:25:55Z</time>
      </trkpt>
      <trkpt lat="45.70234" lon="6.74409">
        <ele>1548.8</ele>
        <time>2023-08-21T11:25:56Z</time>
      </trkpt>
      <trkpt lat="45.70231" lon="6.74405">
        <ele>1547.8</ele>
        <time>2023-08-21T11:25:57Z</time>
      </trkpt>
      <trkpt lat="45.70228" lon="6.74401">
        <ele>1547.8</ele>
        <time>2023-08-21T11:25:58Z</time>
      </trkpt>
      <trkpt lat="45.70225" lon="6.74396">
        <ele>1546.4</ele>
        <time>2023-08-21T11:25:59Z</time>
      </trkpt>
      <trkpt lat="45.70222" lon="6.74391">
        <ele>1546.4</ele>
        <time>2023-08-21T11:26:00Z</time>
      </trkpt>
      <trkpt lat="45.70219" lon="6.74385">
        <ele>1546.4</ele>
        <time>2023-08-21T11:26:01Z</time>
      </trkpt>
      <trkpt lat="45.70215" lon="6.74379">
        <ele>1545.4</ele>
        <time>2023-08-21T11:26:02Z</time>
      </trkpt>
      <trkpt lat="45.7021" lon="6.74374">
        <ele>1544.6</ele>
        <time>2023-08-21T11:26:03Z</time>
      </trkpt>
      <trkpt lat="45.70204" lon="6.74369">
        <ele>1544.6</ele>
        <time>2023-08-21T11:26:04Z</time>
      </trkpt>
      <trkpt lat="45.70199" lon="6.74362">
        <ele>1544.6</ele>
        <time>2023-08-21T11:26:05Z</time>
      </trkpt>
      <trkpt lat="45.70195" lon="6.74352">
        <ele>1543.6</ele>
        <time>2023-08-21T11:26:06Z</time>
      </trkpt>
      <trkpt lat="45.70191" lon="6.74341">
        <ele>1543.6</ele>
        <time>2023-08-21T11:26:07Z</time>
      </trkpt>
      <trkpt lat="45.70188" lon="6.74328">
        <ele>1540.2</ele>
        <time>2023-08-21T11:26:08Z</time>
      </trkpt>
      <trkpt lat="45.70185" lon="6.74314">
        <ele>1540.2</ele>
        <time>2023-08-21T11:26:09Z</time>
      </trkpt>
      <trkpt lat="45.70181" lon="6.74299">
        <ele>1540.2</ele>
        <time>2023-08-21T11:26:10Z</time>
      </trkpt>
      <trkpt lat="45.70177" lon="6.74284">
        <ele>1539.2</ele>
        <time>2023-08-21T11:26:11Z</time>
      </trkpt>
      <trkpt lat="45.70172" lon="6.74269">
        <ele>1539.2</ele>
        <time>2023-08-21T11:26:12Z</time>
      </trkpt>
      <trkpt lat="45.70167" lon="6.74254">
        <ele>1535.2</ele>
        <time>2023-08-21T11:26:13Z</time>
      </trkpt>
      <trkpt lat="45.70161" lon="6.74238">
        <ele>1535.2</ele>
        <time>2023-08-21T11:26:14Z</time>
      </trkpt>
      <trkpt lat="45.70156" lon="6.74223">
        <ele>1534.2</ele>
        <time>2023-08-21T11:26:15Z</time>
      </trkpt>
      <trkpt lat="45.7015" lon="6.74207">
        <ele>1534.2</ele>
        <time>2023-08-21T11:26:16Z</time>
      </trkpt>
      <trkpt lat="45.70145" lon="6.74192">
        <ele>1527.4</ele>
        <time>2023-08-21T11:26:17Z</time>
      </trkpt>
      <trkpt lat="45.7014" lon="6.74177">
        <ele>1527.4</ele>
        <time>2023-08-21T11:26:18Z</time>
      </trkpt>
      <trkpt lat="45.70137" lon="6.74162">
        <ele>1527.4</ele>
        <time>2023-08-21T11:26:19Z</time>
      </trkpt>
      <trkpt lat="45.70134" lon="6.74147">
        <ele>1526.4</ele>
        <time>2023-08-21T11:26:20Z</time>
      </trkpt>
      <trkpt lat="45.70131" lon="6.7413">
        <ele>1520.4</ele>
        <time>2023-08-21T11:26:21Z</time>
      </trkpt>
      <trkpt lat="45.70128" lon="6.74114">
        <ele>1520.4</ele>
        <time>2023-08-21T11:26:22Z</time>
      </trkpt>
      <trkpt lat="45.70126" lon="6.74099">
        <ele>1520.4</ele>
        <time>2023-08-21T11:26:23Z</time>
      </trkpt>
      <trkpt lat="45.70125" lon="6.74085">
        <ele>1520.4</ele>
        <time>2023-08-21T11:26:24Z</time>
      </trkpt>
      <trkpt lat="45.70123" lon="6.74072">
        <ele>1515</ele>
        <time>2023-08-21T11:26:25Z</time>
      </trkpt>
      <trkpt lat="45.7012" lon="6.74059">
        <ele>1515</ele>
        <time>2023-08-21T11:26:26Z</time>
      </trkpt>
      <trkpt lat="45.70118" lon="6.74046">
        <ele>1515</ele>
        <time>2023-08-21T11:26:27Z</time>
      </trkpt>
      <trkpt lat="45.70114" lon="6.74033">
        <ele>1514</ele>
        <time>2023-08-21T11:26:28Z</time>
      </trkpt>
      <trkpt lat="45.70108" lon="6.74021">
        <ele>1514</ele>
        <time>2023-08-21T11:26:29Z</time>
      </trkpt>
      <trkpt lat="45.70102" lon="6.74011">
        <ele>1510.6</ele>
        <time>2023-08-21T11:26:30Z</time>
      </trkpt>
      <trkpt lat="45.70094" lon="6.74002">
        <ele>1510.6</ele>
        <time>2023-08-21T11:26:31Z</time>
      </trkpt>
      <trkpt lat="45.70085" lon="6.73995">
        <ele>1510.6</ele>
        <time>2023-08-21T11:26:32Z</time>
      </trkpt>
      <trkpt lat="45.70076" lon="6.73989">
        <ele>1509.6</ele>
        <time>2023-08-21T11:26:33Z</time>
      </trkpt>
      <trkpt lat="45.70067" lon="6.73983">
        <ele>1508.6</ele>
        <time>2023-08-21T11:26:34Z</time>
      </trkpt>
      <trkpt lat="45.7006" lon="6.73977">
        <ele>1508.6</ele>
        <time>2023-08-21T11:26:35Z</time>
      </trkpt>
      <trkpt lat="45.70054" lon="6.73972">
        <ele>1508.6</ele>
        <time>2023-08-21T11:26:36Z</time>
      </trkpt>
      <trkpt lat="45.70049" lon="6.73967">
        <ele>1507.6</ele>
        <time>2023-08-21T11:26:37Z</time>
      </trkpt>
      <trkpt lat="45.70044" lon="6.73963">
        <ele>1508.2</ele>
        <time>2023-08-21T11:26:38Z</time>
      </trkpt>
      <trkpt lat="45.7004" lon="6.7396">
        <ele>1508.2</ele>
        <time>2023-08-21T11:26:39Z</time>
      </trkpt>
      <trkpt lat="45.70035" lon="6.73956">
        <ele>1508.2</ele>
        <time>2023-08-21T11:26:40Z</time>
      </trkpt>
      <trkpt lat="45.7003" lon="6.73952">
        <ele>1508.2</ele>
        <time>2023-08-21T11:26:41Z</time>
      </trkpt>
      <trkpt lat="45.70024" lon="6.73946">
        <ele>1508.2</ele>
        <time>2023-08-21T11:26:42Z</time>
      </trkpt>
      <trkpt lat="45.70018" lon="6.73939">
        <ele>1507.2</ele>
        <time>2023-08-21T11:26:43Z</time>
      </trkpt>
      <trkpt lat="45.70013" lon="6.73932">
        <ele>1505</ele>
        <time>2023-08-21T11:26:44Z</time>
      </trkpt>
      <trkpt lat="45.70008" lon="6.73923">
        <ele>1505</ele>
        <time>2023-08-21T11:26:45Z</time>
      </trkpt>
      <trkpt lat="45.70003" lon="6.73915">
        <ele>1505</ele>
        <time>2023-08-21T11:26:46Z</time>
      </trkpt>
      <trkpt lat="45.69997" lon="6.73909">
        <ele>1504</ele>
        <time>2023-08-21T11:26:47Z</time>
      </trkpt>
      <trkpt lat="45.69992" lon="6.73903">
        <ele>1504</ele>
        <time>2023-08-21T11:26:48Z</time>
      </trkpt>
      <trkpt lat="45.69987" lon="6.73896">
        <ele>1502.4</ele>
        <time>2023-08-21T11:26:49Z</time>
      </trkpt>
      <trkpt lat="45.69983" lon="6.73889">
        <ele>1502.4</ele>
        <time>2023-08-21T11:26:50Z</time>
      </trkpt>
      <trkpt lat="45.69981" lon="6.73879">
        <ele>1502.4</ele>
        <time>2023-08-21T11:26:51Z</time>
      </trkpt>
      <trkpt lat="45.69981" lon="6.73868">
        <ele>1501.4</ele>
        <time>2023-08-21T11:26:52Z</time>
      </trkpt>
      <trkpt lat="45.6998" lon="6.73857">
        <ele>1500</ele>
        <time>2023-08-21T11:26:53Z</time>
      </trkpt>
      <trkpt lat="45.69979" lon="6.73846">
        <ele>1500</ele>
        <time>2023-08-21T11:26:54Z</time>
      </trkpt>
      <trkpt lat="45.69976" lon="6.73836">
        <ele>1500</ele>
        <time>2023-08-21T11:26:55Z</time>
      </trkpt>
      <trkpt lat="45.69971" lon="6.73828">
        <ele>1499</ele>
        <time>2023-08-21T11:26:56Z</time>
      </trkpt>
      <trkpt lat="45.69966" lon="6.7382">
        <ele>1499.4</ele>
        <time>2023-08-21T11:26:57Z</time>
      </trkpt>
      <trkpt lat="45.69962" lon="6.73811">
        <ele>1499.4</ele>
        <time>2023-08-21T11:26:58Z</time>
      </trkpt>
      <trkpt lat="45.69957" lon="6.73804">
        <ele>1499.4</ele>
        <time>2023-08-21T11:26:59Z</time>
      </trkpt>
      <trkpt lat="45.69952" lon="6.73796">
        <ele>1498.8</ele>
        <time>2023-08-21T11:27:00Z</time>
      </trkpt>
      <trkpt lat="45.69947" lon="6.73788">
        <ele>1497.8</ele>
        <time>2023-08-21T11:27:01Z</time>
      </trkpt>
      <trkpt lat="45.69943" lon="6.7378">
        <ele>1497.8</ele>
        <time>2023-08-21T11:27:02Z</time>
      </trkpt>
      <trkpt lat="45.69937" lon="6.73773">
        <ele>1497.8</ele>
        <time>2023-08-21T11:27:03Z</time>
      </trkpt>
      <trkpt lat="45.69932" lon="6.73766">
        <ele>1497.8</ele>
        <time>2023-08-21T11:27:04Z</time>
      </trkpt>
      <trkpt lat="45.69926" lon="6.7376">
        <ele>1497.8</ele>
        <time>2023-08-21T11:27:05Z</time>
      </trkpt>
      <trkpt lat="45.6992" lon="6.73754">
        <ele>1497.6</ele>
        <time>2023-08-21T11:27:06Z</time>
      </trkpt>
      <trkpt lat="45.69914" lon="6.73749">
        <ele>1497.6</ele>
        <time>2023-08-21T11:27:07Z</time>
      </trkpt>
      <trkpt lat="45.69908" lon="6.73744">
        <ele>1497.6</ele>
        <time>2023-08-21T11:27:08Z</time>
      </trkpt>
      <trkpt lat="45.69901" lon="6.7374">
        <ele>1497.4</ele>
        <time>2023-08-21T11:27:09Z</time>
      </trkpt>
      <trkpt lat="45.69895" lon="6.73736">
        <ele>1496.8</ele>
        <time>2023-08-21T11:27:10Z</time>
      </trkpt>
      <trkpt lat="45.69889" lon="6.73732">
        <ele>1496.8</ele>
        <time>2023-08-21T11:27:11Z</time>
      </trkpt>
      <trkpt lat="45.69884" lon="6.73727">
        <ele>1496.8</ele>
        <time>2023-08-21T11:27:12Z</time>
      </trkpt>
      <trkpt lat="45.69877" lon="6.73723">
        <ele>1495.8</ele>
        <time>2023-08-21T11:27:13Z</time>
      </trkpt>
      <trkpt lat="45.69872" lon="6.73717">
        <ele>1495.8</ele>
        <time>2023-08-21T11:27:14Z</time>
      </trkpt>
      <trkpt lat="45.69867" lon="6.73711">
        <ele>1495.2</ele>
        <time>2023-08-21T11:27:15Z</time>
      </trkpt>
      <trkpt lat="45.69863" lon="6.73704">
        <ele>1495.2</ele>
        <time>2023-08-21T11:27:16Z</time>
      </trkpt>
      <trkpt lat="45.69859" lon="6.73697">
        <ele>1495.2</ele>
        <time>2023-08-21T11:27:17Z</time>
      </trkpt>
      <trkpt lat="45.69854" lon="6.73691">
        <ele>1495.2</ele>
        <time>2023-08-21T11:27:18Z</time>
      </trkpt>
      <trkpt lat="45.69849" lon="6.73686">
        <ele>1494.6</ele>
        <time>2023-08-21T11:27:19Z</time>
      </trkpt>
      <trkpt lat="45.69844" lon="6.7368">
        <ele>1494.6</ele>
        <time>2023-08-21T11:27:20Z</time>
      </trkpt>
      <trkpt lat="45.69839" lon="6.73675">
        <ele>1494.6</ele>
        <time>2023-08-21T11:27:21Z</time>
      </trkpt>
      <trkpt lat="45.69835" lon="6.73668">
        <ele>1494.6</ele>
        <time>2023-08-21T11:27:22Z</time>
      </trkpt>
      <trkpt lat="45.69831" lon="6.73662">
        <ele>1494.6</ele>
        <time>2023-08-21T11:27:23Z</time>
      </trkpt>
      <trkpt lat="45.69828" lon="6.73655">
        <ele>1493.4</ele>
        <time>2023-08-21T11:27:24Z</time>
      </trkpt>
      <trkpt lat="45.69823" lon="6.73648">
        <ele>1493.4</ele>
        <time>2023-08-21T11:27:25Z</time>
      </trkpt>
      <trkpt lat="45.69819" lon="6.73642">
        <ele>1493.4</ele>
        <time>2023-08-21T11:27:26Z</time>
      </trkpt>
      <trkpt lat="45.69814" lon="6.73635">
        <ele>1493.4</ele>
        <time>2023-08-21T11:27:27Z</time>
      </trkpt>
      <trkpt lat="45.69809" lon="6.73629">
        <ele>1493.4</ele>
        <time>2023-08-21T11:27:28Z</time>
      </trkpt>
      <trkpt lat="45.69805" lon="6.73622">
        <ele>1492.6</ele>
        <time>2023-08-21T11:27:29Z</time>
      </trkpt>
      <trkpt lat="45.69801" lon="6.73616">
        <ele>1492.6</ele>
        <time>2023-08-21T11:27:30Z</time>
      </trkpt>
      <trkpt lat="45.69796" lon="6.73609">
        <ele>1492.6</ele>
        <time>2023-08-21T11:27:31Z</time>
      </trkpt>
      <trkpt lat="45.69792" lon="6.73602">
        <ele>1492.6</ele>
        <time>2023-08-21T11:27:32Z</time>
      </trkpt>
      <trkpt lat="45.69789" lon="6.73596">
        <ele>1491.8</ele>
        <time>2023-08-21T11:27:33Z</time>
      </trkpt>
      <trkpt lat="45.69785" lon="6.73589">
        <ele>1491.8</ele>
        <time>2023-08-21T11:27:34Z</time>
      </trkpt>
      <trkpt lat="45.69782" lon="6.73582">
        <ele>1491.8</ele>
        <time>2023-08-21T11:27:35Z</time>
      </trkpt>
      <trkpt lat="45.69778" lon="6.73575">
        <ele>1492</ele>
        <time>2023-08-21T11:27:36Z</time>
      </trkpt>
      <trkpt lat="45.69775" lon="6.73569">
        <ele>1491.4</ele>
        <time>2023-08-21T11:27:37Z</time>
      </trkpt>
      <trkpt lat="45.69771" lon="6.73562">
        <ele>1491.4</ele>
        <time>2023-08-21T11:27:38Z</time>
      </trkpt>
      <trkpt lat="45.69767" lon="6.73556">
        <ele>1491.4</ele>
        <time>2023-08-21T11:27:39Z</time>
      </trkpt>
      <trkpt lat="45.69763" lon="6.73551">
        <ele>1491.4</ele>
        <time>2023-08-21T11:27:40Z</time>
      </trkpt>
      <trkpt lat="45.6976" lon="6.73545">
        <ele>1491.4</ele>
        <time>2023-08-21T11:27:41Z</time>
      </trkpt>
      <trkpt lat="45.69757" lon="6.73539">
        <ele>1491.8</ele>
        <time>2023-08-21T11:27:42Z</time>
      </trkpt>
      <trkpt lat="45.69754" lon="6.73532">
        <ele>1491.8</ele>
        <time>2023-08-21T11:27:43Z</time>
      </trkpt>
      <trkpt lat="45.69751" lon="6.73526">
        <ele>1491.8</ele>
        <time>2023-08-21T11:27:44Z</time>
      </trkpt>
      <trkpt lat="45.69748" lon="6.73521">
        <ele>1491.8</ele>
        <time>2023-08-21T11:27:45Z</time>
      </trkpt>
      <trkpt lat="45.69745" lon="6.73515">
        <ele>1491</ele>
        <time>2023-08-21T11:27:46Z</time>
      </trkpt>
      <trkpt lat="45.69741" lon="6.73509">
        <ele>1491</ele>
        <time>2023-08-21T11:27:47Z</time>
      </trkpt>
      <trkpt lat="45.69738" lon="6.73503">
        <ele>1491</ele>
        <time>2023-08-21T11:27:48Z</time>
      </trkpt>
      <trkpt lat="45.69736" lon="6.73498">
        <ele>1491.4</ele>
        <time>2023-08-21T11:27:49Z</time>
      </trkpt>
      <trkpt lat="45.69733" lon="6.73492">
        <ele>1491.4</ele>
        <time>2023-08-21T11:27:50Z</time>
      </trkpt>
      <trkpt lat="45.69733" lon="6.73487">
        <ele>1491.4</ele>
        <time>2023-08-21T11:27:51Z</time>
      </trkpt>
      <trkpt lat="45.69732" lon="6.73481">
        <ele>1491.4</ele>
        <time>2023-08-21T11:27:52Z</time>
      </trkpt>
      <trkpt lat="45.69732" lon="6.73476">
        <ele>1491.4</ele>
        <time>2023-08-21T11:27:53Z</time>
      </trkpt>
      <trkpt lat="45.69732" lon="6.73471">
        <ele>1491.4</ele>
        <time>2023-08-21T11:27:54Z</time>
      </trkpt>
      <trkpt lat="45.69732" lon="6.73468">
        <ele>1492.2</ele>
        <time>2023-08-21T11:27:55Z</time>
      </trkpt>
      <trkpt lat="45.69731" lon="6.73464">
        <ele>1492.2</ele>
        <time>2023-08-21T11:27:56Z</time>
      </trkpt>
      <trkpt lat="45.6973" lon="6.73461">
        <ele>1492.8</ele>
        <time>2023-08-21T11:27:57Z</time>
      </trkpt>
      <trkpt lat="45.69729" lon="6.73458">
        <ele>1492.8</ele>
        <time>2023-08-21T11:27:58Z</time>
      </trkpt>
      <trkpt lat="45.69729" lon="6.73455">
        <ele>1493.4</ele>
        <time>2023-08-21T11:27:59Z</time>
      </trkpt>
      <trkpt lat="45.69728" lon="6.73451">
        <ele>1493.4</ele>
        <time>2023-08-21T11:28:00Z</time>
      </trkpt>
      <trkpt lat="45.69728" lon="6.73448">
        <ele>1493.4</ele>
        <time>2023-08-21T11:28:01Z</time>
      </trkpt>
      <trkpt lat="45.69727" lon="6.73445">
        <ele>1493.4</ele>
        <time>2023-08-21T11:28:02Z</time>
      </trkpt>
      <trkpt lat="45.69725" lon="6.73442">
        <ele>1493.4</ele>
        <time>2023-08-21T11:28:03Z</time>
      </trkpt>
      <trkpt lat="45.69724" lon="6.73439">
        <ele>1493.8</ele>
        <time>2023-08-21T11:28:04Z</time>
      </trkpt>
      <trkpt lat="45.69722" lon="6.73435">
        <ele>1493.8</ele>
        <time>2023-08-21T11:28:05Z</time>
      </trkpt>
      <trkpt lat="45.69721" lon="6.73431">
        <ele>1493.8</ele>
        <time>2023-08-21T11:28:06Z</time>
      </trkpt>
      <trkpt lat="45.69719" lon="6.73427">
        <ele>1493.8</ele>
        <time>2023-08-21T11:28:07Z</time>
      </trkpt>
      <trkpt lat="45.69716" lon="6.73423">
        <ele>1493.8</ele>
        <time>2023-08-21T11:28:08Z</time>
      </trkpt>
      <trkpt lat="45.69714" lon="6.73418">
        <ele>1493.8</ele>
        <time>2023-08-21T11:28:09Z</time>
      </trkpt>
      <trkpt lat="45.69712" lon="6.73413">
        <ele>1493.8</ele>
        <time>2023-08-21T11:28:10Z</time>
      </trkpt>
      <trkpt lat="45.6971" lon="6.73409">
        <ele>1493.8</ele>
        <time>2023-08-21T11:28:11Z</time>
      </trkpt>
      <trkpt lat="45.69708" lon="6.73404">
        <ele>1493.8</ele>
        <time>2023-08-21T11:28:12Z</time>
      </trkpt>
      <trkpt lat="45.69707" lon="6.734">
        <ele>1493.8</ele>
        <time>2023-08-21T11:28:13Z</time>
      </trkpt>
      <trkpt lat="45.69705" lon="6.73397">
        <ele>1493.8</ele>
        <time>2023-08-21T11:28:14Z</time>
      </trkpt>
      <trkpt lat="45.69703" lon="6.73394">
        <ele>1493.8</ele>
        <time>2023-08-21T11:28:15Z</time>
      </trkpt>
      <trkpt lat="45.69701" lon="6.73391">
        <ele>1493.8</ele>
        <time>2023-08-21T11:28:16Z</time>
      </trkpt>
      <trkpt lat="45.69699" lon="6.73388">
        <ele>1493.8</ele>
        <time>2023-08-21T11:28:17Z</time>
      </trkpt>
      <trkpt lat="45.69696" lon="6.73384">
        <ele>1493.6</ele>
        <time>2023-08-21T11:28:18Z</time>
      </trkpt>
      <trkpt lat="45.69693" lon="6.73383">
        <ele>1493.6</ele>
        <time>2023-08-21T11:28:19Z</time>
      </trkpt>
      <trkpt lat="45.6969" lon="6.7338">
        <ele>1493.4</ele>
        <time>2023-08-21T11:28:20Z</time>
      </trkpt>
      <trkpt lat="45.69686" lon="6.73378">
        <ele>1493.4</ele>
        <time>2023-08-21T11:28:21Z</time>
      </trkpt>
      <trkpt lat="45.69683" lon="6.73376">
        <ele>1493.4</ele>
        <time>2023-08-21T11:28:22Z</time>
      </trkpt>
      <trkpt lat="45.69679" lon="6.73374">
        <ele>1493</ele>
        <time>2023-08-21T11:28:23Z</time>
      </trkpt>
      <trkpt lat="45.69675" lon="6.73371">
        <ele>1493</ele>
        <time>2023-08-21T11:28:24Z</time>
      </trkpt>
      <trkpt lat="45.69671" lon="6.73368">
        <ele>1493</ele>
        <time>2023-08-21T11:28:25Z</time>
      </trkpt>
      <trkpt lat="45.69667" lon="6.73366">
        <ele>1493</ele>
        <time>2023-08-21T11:28:26Z</time>
      </trkpt>
      <trkpt lat="45.69662" lon="6.73364">
        <ele>1492.6</ele>
        <time>2023-08-21T11:28:27Z</time>
      </trkpt>
      <trkpt lat="45.69658" lon="6.73363">
        <ele>1492.2</ele>
        <time>2023-08-21T11:28:28Z</time>
      </trkpt>
      <trkpt lat="45.69654" lon="6.73364">
        <ele>1492.2</ele>
        <time>2023-08-21T11:28:29Z</time>
      </trkpt>
      <trkpt lat="45.6965" lon="6.73367">
        <ele>1492.2</ele>
        <time>2023-08-21T11:28:30Z</time>
      </trkpt>
      <trkpt lat="45.69647" lon="6.73369">
        <ele>1491.8</ele>
        <time>2023-08-21T11:28:31Z</time>
      </trkpt>
      <trkpt lat="45.69644" lon="6.7337">
        <ele>1491.4</ele>
        <time>2023-08-21T11:28:32Z</time>
      </trkpt>
      <trkpt lat="45.69642" lon="6.73372">
        <ele>1491.4</ele>
        <time>2023-08-21T11:28:33Z</time>
      </trkpt>
      <trkpt lat="45.6964" lon="6.73373">
        <ele>1491.4</ele>
        <time>2023-08-21T11:28:34Z</time>
      </trkpt>
      <trkpt lat="45.69638" lon="6.73374">
        <ele>1491.2</ele>
        <time>2023-08-21T11:28:35Z</time>
      </trkpt>
      <trkpt lat="45.69635" lon="6.73375">
        <ele>1491.2</ele>
        <time>2023-08-21T11:28:36Z</time>
      </trkpt>
      <trkpt lat="45.69633" lon="6.73376">
        <ele>1491</ele>
        <time>2023-08-21T11:28:37Z</time>
      </trkpt>
      <trkpt lat="45.69631" lon="6.73377">
        <ele>1491</ele>
        <time>2023-08-21T11:28:38Z</time>
      </trkpt>
      <trkpt lat="45.69629" lon="6.73378">
        <ele>1491</ele>
        <time>2023-08-21T11:28:39Z</time>
      </trkpt>
      <trkpt lat="45.69627" lon="6.73379">
        <ele>1490.6</ele>
        <time>2023-08-21T11:28:40Z</time>
      </trkpt>
      <trkpt lat="45.69625" lon="6.73379">
        <ele>1490.6</ele>
        <time>2023-08-21T11:28:41Z</time>
      </trkpt>
      <trkpt lat="45.69623" lon="6.73379">
        <ele>1490.6</ele>
        <time>2023-08-21T11:28:42Z</time>
      </trkpt>
      <trkpt lat="45.69622" lon="6.73379">
        <ele>1490.6</ele>
        <time>2023-08-21T11:28:43Z</time>
      </trkpt>
      <trkpt lat="45.69621" lon="6.73378">
        <ele>1490.6</ele>
        <time>2023-08-21T11:28:44Z</time>
      </trkpt>
      <trkpt lat="45.69621" lon="6.73377">
        <ele>1489.6</ele>
        <time>2023-08-21T11:28:45Z</time>
      </trkpt>
      <trkpt lat="45.69621" lon="6.73377">
        <ele>1489.6</ele>
        <time>2023-08-21T11:28:46Z</time>
      </trkpt>
      <trkpt lat="45.69621" lon="6.73377">
        <ele>1487</ele>
        <time>2023-08-21T11:28:47Z</time>
      </trkpt>
      <trkpt lat="45.69626" lon="6.7338">
        <ele>1490.8</ele>
        <time>2023-08-21T11:29:05Z</time>
      </trkpt>
      <trkpt lat="45.69627" lon="6.7338">
        <ele>1490.8</ele>
        <time>2023-08-21T11:29:06Z</time>
      </trkpt>
      <trkpt lat="45.69628" lon="6.73381">
        <ele>1490.8</ele>
        <time>2023-08-21T11:29:07Z</time>
      </trkpt>
      <trkpt lat="45.69629" lon="6.73381">
        <ele>1490.4</ele>
        <time>2023-08-21T11:29:08Z</time>
      </trkpt>
      <trkpt lat="45.69631" lon="6.7338">
        <ele>1490</ele>
        <time>2023-08-21T11:29:09Z</time>
      </trkpt>
      <trkpt lat="45.69632" lon="6.73379">
        <ele>1490</ele>
        <time>2023-08-21T11:29:10Z</time>
      </trkpt>
      <trkpt lat="45.69633" lon="6.73378">
        <ele>1490</ele>
        <time>2023-08-21T11:29:11Z</time>
      </trkpt>
      <trkpt lat="45.69635" lon="6.73377">
        <ele>1490.6</ele>
        <time>2023-08-21T11:29:12Z</time>
      </trkpt>
      <trkpt lat="45.69637" lon="6.73377">
        <ele>1490.6</ele>
        <time>2023-08-21T11:29:13Z</time>
      </trkpt>
      <trkpt lat="45.69638" lon="6.73376">
        <ele>1490.6</ele>
        <time>2023-08-21T11:29:14Z</time>
      </trkpt>
      <trkpt lat="45.6964" lon="6.73375">
        <ele>1490.6</ele>
        <time>2023-08-21T11:29:15Z</time>
      </trkpt>
      <trkpt lat="45.69641" lon="6.73374">
        <ele>1490.6</ele>
        <time>2023-08-21T11:29:16Z</time>
      </trkpt>
      <trkpt lat="45.69642" lon="6.73374">
        <ele>1490.6</ele>
        <time>2023-08-21T11:29:17Z</time>
      </trkpt>
      <trkpt lat="45.69643" lon="6.73374">
        <ele>1490.8</ele>
        <time>2023-08-21T11:29:18Z</time>
      </trkpt>
      <trkpt lat="45.69644" lon="6.73375">
        <ele>1490.8</ele>
        <time>2023-08-21T11:29:19Z</time>
      </trkpt>
      <trkpt lat="45.69644" lon="6.73375">
        <ele>1491</ele>
        <time>2023-08-21T11:29:20Z</time>
      </trkpt>
      <trkpt lat="45.69644" lon="6.73377">
        <ele>1490.6</ele>
        <time>2023-08-21T11:29:29Z</time>
      </trkpt>
      <trkpt lat="45.69644" lon="6.73378">
        <ele>1490.6</ele>
        <time>2023-08-21T11:29:30Z</time>
      </trkpt>
      <trkpt lat="45.69644" lon="6.73379">
        <ele>1490.6</ele>
        <time>2023-08-21T11:29:31Z</time>
      </trkpt>
      <trkpt lat="45.69644" lon="6.73379">
        <ele>1490.6</ele>
        <time>2023-08-21T11:29:32Z</time>
      </trkpt>
      <trkpt lat="45.69644" lon="6.7338">
        <ele>1490.6</ele>
        <time>2023-08-21T11:29:33Z</time>
      </trkpt>
      <trkpt lat="45.69644" lon="6.73381">
        <ele>1490.6</ele>
        <time>2023-08-21T11:29:34Z</time>
      </trkpt>
      <trkpt lat="45.69644" lon="6.73381">
        <ele>1490.6</ele>
        <time>2023-08-21T11:29:35Z</time>
      </trkpt>
      <trkpt lat="45.69644" lon="6.73381">
        <ele>1490.2</ele>
        <time>2023-08-21T11:29:36Z</time>
      </trkpt>
      <trkpt lat="45.69639" lon="6.73378">
        <ele>1492.4</ele>
        <time>2023-08-21T12:02:13Z</time>
      </trkpt>
      <trkpt lat="45.69637" lon="6.73378">
        <ele>1492.4</ele>
        <time>2023-08-21T12:02:14Z</time>
      </trkpt>
      <trkpt lat="45.69635" lon="6.73378">
        <ele>1492.4</ele>
        <time>2023-08-21T12:02:15Z</time>
      </trkpt>
      <trkpt lat="45.69632" lon="6.73379">
        <ele>1492</ele>
        <time>2023-08-21T12:02:16Z</time>
      </trkpt>
      <trkpt lat="45.69629" lon="6.73379">
        <ele>1492.2</ele>
        <time>2023-08-21T12:02:17Z</time>
      </trkpt>
      <trkpt lat="45.69626" lon="6.73379">
        <ele>1492.2</ele>
        <time>2023-08-21T12:02:18Z</time>
      </trkpt>
      <trkpt lat="45.69623" lon="6.7338">
        <ele>1492.2</ele>
        <time>2023-08-21T12:02:19Z</time>
      </trkpt>
      <trkpt lat="45.6962" lon="6.73381">
        <ele>1492.2</ele>
        <time>2023-08-21T12:02:20Z</time>
      </trkpt>
      <trkpt lat="45.69617" lon="6.73383">
        <ele>1492.2</ele>
        <time>2023-08-21T12:02:21Z</time>
      </trkpt>
      <trkpt lat="45.69613" lon="6.73383">
        <ele>1492.2</ele>
        <time>2023-08-21T12:02:22Z</time>
      </trkpt>
      <trkpt lat="45.6961" lon="6.73384">
        <ele>1492</ele>
        <time>2023-08-21T12:02:23Z</time>
      </trkpt>
      <trkpt lat="45.69607" lon="6.73386">
        <ele>1492</ele>
        <time>2023-08-21T12:02:24Z</time>
      </trkpt>
      <trkpt lat="45.69604" lon="6.73388">
        <ele>1492</ele>
        <time>2023-08-21T12:02:25Z</time>
      </trkpt>
      <trkpt lat="45.696" lon="6.7339">
        <ele>1491.6</ele>
        <time>2023-08-21T12:02:26Z</time>
      </trkpt>
      <trkpt lat="45.69595" lon="6.73388">
        <ele>1491.6</ele>
        <time>2023-08-21T12:02:27Z</time>
      </trkpt>
      <trkpt lat="45.69593" lon="6.73387">
        <ele>1491.6</ele>
        <time>2023-08-21T12:02:28Z</time>
      </trkpt>
      <trkpt lat="45.6959" lon="6.73385">
        <ele>1491.6</ele>
        <time>2023-08-21T12:02:29Z</time>
      </trkpt>
      <trkpt lat="45.69587" lon="6.73383">
        <ele>1492</ele>
        <time>2023-08-21T12:02:30Z</time>
      </trkpt>
      <trkpt lat="45.69584" lon="6.73381">
        <ele>1492</ele>
        <time>2023-08-21T12:02:31Z</time>
      </trkpt>
      <trkpt lat="45.6958" lon="6.73378">
        <ele>1492</ele>
        <time>2023-08-21T12:02:32Z</time>
      </trkpt>
      <trkpt lat="45.69576" lon="6.73376">
        <ele>1492</ele>
        <time>2023-08-21T12:02:33Z</time>
      </trkpt>
      <trkpt lat="45.69572" lon="6.73373">
        <ele>1491.6</ele>
        <time>2023-08-21T12:02:34Z</time>
      </trkpt>
      <trkpt lat="45.69568" lon="6.73369">
        <ele>1491.6</ele>
        <time>2023-08-21T12:02:35Z</time>
      </trkpt>
      <trkpt lat="45.69565" lon="6.73366">
        <ele>1491.6</ele>
        <time>2023-08-21T12:02:36Z</time>
      </trkpt>
      <trkpt lat="45.69561" lon="6.73363">
        <ele>1491.6</ele>
        <time>2023-08-21T12:02:37Z</time>
      </trkpt>
      <trkpt lat="45.69557" lon="6.7336">
        <ele>1491.6</ele>
        <time>2023-08-21T12:02:38Z</time>
      </trkpt>
      <trkpt lat="45.69552" lon="6.73357">
        <ele>1491.6</ele>
        <time>2023-08-21T12:02:39Z</time>
      </trkpt>
      <trkpt lat="45.69548" lon="6.73354">
        <ele>1491.4</ele>
        <time>2023-08-21T12:02:40Z</time>
      </trkpt>
      <trkpt lat="45.69544" lon="6.73351">
        <ele>1491.4</ele>
        <time>2023-08-21T12:02:41Z</time>
      </trkpt>
      <trkpt lat="45.6954" lon="6.73348">
        <ele>1491.4</ele>
        <time>2023-08-21T12:02:42Z</time>
      </trkpt>
      <trkpt lat="45.69536" lon="6.73346">
        <ele>1491.4</ele>
        <time>2023-08-21T12:02:43Z</time>
      </trkpt>
      <trkpt lat="45.69531" lon="6.73344">
        <ele>1491.4</ele>
        <time>2023-08-21T12:02:44Z</time>
      </trkpt>
      <trkpt lat="45.69527" lon="6.73342">
        <ele>1491.2</ele>
        <time>2023-08-21T12:02:45Z</time>
      </trkpt>
      <trkpt lat="45.69523" lon="6.7334">
        <ele>1491.2</ele>
        <time>2023-08-21T12:02:46Z</time>
      </trkpt>
      <trkpt lat="45.69519" lon="6.73338">
        <ele>1491.2</ele>
        <time>2023-08-21T12:02:47Z</time>
      </trkpt>
      <trkpt lat="45.69515" lon="6.73336">
        <ele>1491.2</ele>
        <time>2023-08-21T12:02:48Z</time>
      </trkpt>
      <trkpt lat="45.69511" lon="6.73335">
        <ele>1491</ele>
        <time>2023-08-21T12:02:49Z</time>
      </trkpt>
      <trkpt lat="45.69507" lon="6.73334">
        <ele>1491</ele>
        <time>2023-08-21T12:02:50Z</time>
      </trkpt>
      <trkpt lat="45.69503" lon="6.73333">
        <ele>1491</ele>
        <time>2023-08-21T12:02:51Z</time>
      </trkpt>
      <trkpt lat="45.69499" lon="6.73332">
        <ele>1491</ele>
        <time>2023-08-21T12:02:52Z</time>
      </trkpt>
      <trkpt lat="45.69495" lon="6.73331">
        <ele>1491</ele>
        <time>2023-08-21T12:02:53Z</time>
      </trkpt>
      <trkpt lat="45.69491" lon="6.73331">
        <ele>1491</ele>
        <time>2023-08-21T12:02:54Z</time>
      </trkpt>
      <trkpt lat="45.69487" lon="6.73331">
        <ele>1491</ele>
        <time>2023-08-21T12:02:55Z</time>
      </trkpt>
      <trkpt lat="45.69483" lon="6.7333">
        <ele>1491</ele>
        <time>2023-08-21T12:02:56Z</time>
      </trkpt>
      <trkpt lat="45.69479" lon="6.73329">
        <ele>1491.6</ele>
        <time>2023-08-21T12:02:57Z</time>
      </trkpt>
      <trkpt lat="45.69475" lon="6.73327">
        <ele>1491.2</ele>
        <time>2023-08-21T12:02:58Z</time>
      </trkpt>
      <trkpt lat="45.6947" lon="6.73326">
        <ele>1491.2</ele>
        <time>2023-08-21T12:02:59Z</time>
      </trkpt>
      <trkpt lat="45.69466" lon="6.73324">
        <ele>1491.2</ele>
        <time>2023-08-21T12:03:00Z</time>
      </trkpt>
      <trkpt lat="45.69462" lon="6.73322">
        <ele>1491.2</ele>
        <time>2023-08-21T12:03:01Z</time>
      </trkpt>
      <trkpt lat="45.69458" lon="6.73322">
        <ele>1491.2</ele>
        <time>2023-08-21T12:03:02Z</time>
      </trkpt>
      <trkpt lat="45.69453" lon="6.73322">
        <ele>1491.2</ele>
        <time>2023-08-21T12:03:03Z</time>
      </trkpt>
      <trkpt lat="45.6945" lon="6.73322">
        <ele>1491.2</ele>
        <time>2023-08-21T12:03:04Z</time>
      </trkpt>
      <trkpt lat="45.69444" lon="6.73321">
        <ele>1491.2</ele>
        <time>2023-08-21T12:03:05Z</time>
      </trkpt>
      <trkpt lat="45.69442" lon="6.73321">
        <ele>1491.2</ele>
        <time>2023-08-21T12:03:06Z</time>
      </trkpt>
      <trkpt lat="45.69438" lon="6.73322">
        <ele>1491.2</ele>
        <time>2023-08-21T12:03:07Z</time>
      </trkpt>
      <trkpt lat="45.69433" lon="6.73323">
        <ele>1491.2</ele>
        <time>2023-08-21T12:03:08Z</time>
      </trkpt>
      <trkpt lat="45.69429" lon="6.73326">
        <ele>1491</ele>
        <time>2023-08-21T12:03:09Z</time>
      </trkpt>
      <trkpt lat="45.69425" lon="6.73331">
        <ele>1491</ele>
        <time>2023-08-21T12:03:10Z</time>
      </trkpt>
      <trkpt lat="45.69422" lon="6.73337">
        <ele>1490</ele>
        <time>2023-08-21T12:03:11Z</time>
      </trkpt>
      <trkpt lat="45.69419" lon="6.73343">
        <ele>1490</ele>
        <time>2023-08-21T12:03:12Z</time>
      </trkpt>
      <trkpt lat="45.69415" lon="6.73349">
        <ele>1490</ele>
        <time>2023-08-21T12:03:13Z</time>
      </trkpt>
      <trkpt lat="45.69411" lon="6.73356">
        <ele>1490</ele>
        <time>2023-08-21T12:03:14Z</time>
      </trkpt>
      <trkpt lat="45.69407" lon="6.73362">
        <ele>1490</ele>
        <time>2023-08-21T12:03:15Z</time>
      </trkpt>
      <trkpt lat="45.69403" lon="6.73368">
        <ele>1489.2</ele>
        <time>2023-08-21T12:03:16Z</time>
      </trkpt>
      <trkpt lat="45.69399" lon="6.73374">
        <ele>1488.8</ele>
        <time>2023-08-21T12:03:17Z</time>
      </trkpt>
      <trkpt lat="45.69395" lon="6.73379">
        <ele>1488.8</ele>
        <time>2023-08-21T12:03:18Z</time>
      </trkpt>
      <trkpt lat="45.69392" lon="6.73384">
        <ele>1488.8</ele>
        <time>2023-08-21T12:03:19Z</time>
      </trkpt>
      <trkpt lat="45.6939" lon="6.73388">
        <ele>1488.8</ele>
        <time>2023-08-21T12:03:20Z</time>
      </trkpt>
      <trkpt lat="45.69388" lon="6.73391">
        <ele>1488.2</ele>
        <time>2023-08-21T12:03:21Z</time>
      </trkpt>
      <trkpt lat="45.69386" lon="6.73393">
        <ele>1488.2</ele>
        <time>2023-08-21T12:03:22Z</time>
      </trkpt>
      <trkpt lat="45.69384" lon="6.73394">
        <ele>1488.2</ele>
        <time>2023-08-21T12:03:23Z</time>
      </trkpt>
      <trkpt lat="45.69383" lon="6.73395">
        <ele>1487.6</ele>
        <time>2023-08-21T12:03:24Z</time>
      </trkpt>
      <trkpt lat="45.69382" lon="6.73396">
        <ele>1487.4</ele>
        <time>2023-08-21T12:03:25Z</time>
      </trkpt>
      <trkpt lat="45.69382" lon="6.73396">
        <ele>1487.4</ele>
        <time>2023-08-21T12:03:26Z</time>
      </trkpt>
      <trkpt lat="45.69382" lon="6.73396">
        <ele>1487.4</ele>
        <time>2023-08-21T12:03:27Z</time>
      </trkpt>
      <trkpt lat="45.69378" lon="6.73397">
        <ele>1489.2</ele>
        <time>2023-08-21T12:03:54Z</time>
      </trkpt>
      <trkpt lat="45.69376" lon="6.73398">
        <ele>1489.2</ele>
        <time>2023-08-21T12:03:55Z</time>
      </trkpt>
      <trkpt lat="45.69374" lon="6.734">
        <ele>1489.2</ele>
        <time>2023-08-21T12:03:56Z</time>
      </trkpt>
      <trkpt lat="45.69372" lon="6.73403">
        <ele>1489</ele>
        <time>2023-08-21T12:03:57Z</time>
      </trkpt>
      <trkpt lat="45.69369" lon="6.73405">
        <ele>1489</ele>
        <time>2023-08-21T12:03:58Z</time>
      </trkpt>
      <trkpt lat="45.69366" lon="6.73408">
        <ele>1489</ele>
        <time>2023-08-21T12:03:59Z</time>
      </trkpt>
      <trkpt lat="45.69363" lon="6.73411">
        <ele>1489</ele>
        <time>2023-08-21T12:04:00Z</time>
      </trkpt>
      <trkpt lat="45.6936" lon="6.73414">
        <ele>1488.4</ele>
        <time>2023-08-21T12:04:01Z</time>
      </trkpt>
      <trkpt lat="45.69356" lon="6.73418">
        <ele>1488</ele>
        <time>2023-08-21T12:04:02Z</time>
      </trkpt>
      <trkpt lat="45.69353" lon="6.73421">
        <ele>1488</ele>
        <time>2023-08-21T12:04:03Z</time>
      </trkpt>
      <trkpt lat="45.69349" lon="6.73425">
        <ele>1488</ele>
        <time>2023-08-21T12:04:04Z</time>
      </trkpt>
      <trkpt lat="45.69345" lon="6.73428">
        <ele>1488</ele>
        <time>2023-08-21T12:04:05Z</time>
      </trkpt>
      <trkpt lat="45.6934" lon="6.73432">
        <ele>1487</ele>
        <time>2023-08-21T12:04:06Z</time>
      </trkpt>
      <trkpt lat="45.69336" lon="6.73436">
        <ele>1487</ele>
        <time>2023-08-21T12:04:07Z</time>
      </trkpt>
      <trkpt lat="45.69331" lon="6.73439">
        <ele>1487</ele>
        <time>2023-08-21T12:04:08Z</time>
      </trkpt>
      <trkpt lat="45.69326" lon="6.73441">
        <ele>1487</ele>
        <time>2023-08-21T12:04:09Z</time>
      </trkpt>
      <trkpt lat="45.69321" lon="6.73442">
        <ele>1486.8</ele>
        <time>2023-08-21T12:04:10Z</time>
      </trkpt>
      <trkpt lat="45.69316" lon="6.73443">
        <ele>1486.8</ele>
        <time>2023-08-21T12:04:11Z</time>
      </trkpt>
      <trkpt lat="45.69311" lon="6.73443">
        <ele>1486.8</ele>
        <time>2023-08-21T12:04:12Z</time>
      </trkpt>
      <trkpt lat="45.69306" lon="6.73444">
        <ele>1486.8</ele>
        <time>2023-08-21T12:04:13Z</time>
      </trkpt>
      <trkpt lat="45.69301" lon="6.73444">
        <ele>1486</ele>
        <time>2023-08-21T12:04:14Z</time>
      </trkpt>
      <trkpt lat="45.69295" lon="6.73445">
        <ele>1486.2</ele>
        <time>2023-08-21T12:04:15Z</time>
      </trkpt>
      <trkpt lat="45.6929" lon="6.73444">
        <ele>1486.2</ele>
        <time>2023-08-21T12:04:16Z</time>
      </trkpt>
      <trkpt lat="45.69285" lon="6.73444">
        <ele>1486.2</ele>
        <time>2023-08-21T12:04:17Z</time>
      </trkpt>
      <trkpt lat="45.6928" lon="6.73445">
        <ele>1485.6</ele>
        <time>2023-08-21T12:04:18Z</time>
      </trkpt>
      <trkpt lat="45.69275" lon="6.73445">
        <ele>1485.6</ele>
        <time>2023-08-21T12:04:19Z</time>
      </trkpt>
      <trkpt lat="45.6927" lon="6.73446">
        <ele>1485.6</ele>
        <time>2023-08-21T12:04:20Z</time>
      </trkpt>
      <trkpt lat="45.69264" lon="6.73447">
        <ele>1485.6</ele>
        <time>2023-08-21T12:04:21Z</time>
      </trkpt>
      <trkpt lat="45.6926" lon="6.7345">
        <ele>1485.2</ele>
        <time>2023-08-21T12:04:22Z</time>
      </trkpt>
      <trkpt lat="45.69255" lon="6.73452">
        <ele>1485.2</ele>
        <time>2023-08-21T12:04:23Z</time>
      </trkpt>
      <trkpt lat="45.6925" lon="6.73455">
        <ele>1485</ele>
        <time>2023-08-21T12:04:24Z</time>
      </trkpt>
      <trkpt lat="45.69245" lon="6.73457">
        <ele>1485</ele>
        <time>2023-08-21T12:04:25Z</time>
      </trkpt>
      <trkpt lat="45.6924" lon="6.7346">
        <ele>1485</ele>
        <time>2023-08-21T12:04:26Z</time>
      </trkpt>
      <trkpt lat="45.69235" lon="6.73463">
        <ele>1484.6</ele>
        <time>2023-08-21T12:04:27Z</time>
      </trkpt>
      <trkpt lat="45.6923" lon="6.73466">
        <ele>1484.6</ele>
        <time>2023-08-21T12:04:28Z</time>
      </trkpt>
      <trkpt lat="45.69225" lon="6.7347">
        <ele>1484.6</ele>
        <time>2023-08-21T12:04:29Z</time>
      </trkpt>
      <trkpt lat="45.69219" lon="6.73473">
        <ele>1484.6</ele>
        <time>2023-08-21T12:04:30Z</time>
      </trkpt>
      <trkpt lat="45.69214" lon="6.73475">
        <ele>1484.6</ele>
        <time>2023-08-21T12:04:31Z</time>
      </trkpt>
      <trkpt lat="45.69209" lon="6.73478">
        <ele>1484</ele>
        <time>2023-08-21T12:04:32Z</time>
      </trkpt>
      <trkpt lat="45.69204" lon="6.73482">
        <ele>1484</ele>
        <time>2023-08-21T12:04:33Z</time>
      </trkpt>
      <trkpt lat="45.69199" lon="6.73485">
        <ele>1483.8</ele>
        <time>2023-08-21T12:04:34Z</time>
      </trkpt>
      <trkpt lat="45.69194" lon="6.73489">
        <ele>1483.8</ele>
        <time>2023-08-21T12:04:35Z</time>
      </trkpt>
      <trkpt lat="45.69188" lon="6.73493">
        <ele>1483.8</ele>
        <time>2023-08-21T12:04:36Z</time>
      </trkpt>
      <trkpt lat="45.69183" lon="6.73496">
        <ele>1483.8</ele>
        <time>2023-08-21T12:04:37Z</time>
      </trkpt>
      <trkpt lat="45.69178" lon="6.73499">
        <ele>1483.4</ele>
        <time>2023-08-21T12:04:38Z</time>
      </trkpt>
      <trkpt lat="45.69172" lon="6.73501">
        <ele>1483.4</ele>
        <time>2023-08-21T12:04:39Z</time>
      </trkpt>
      <trkpt lat="45.69166" lon="6.73504">
        <ele>1483.4</ele>
        <time>2023-08-21T12:04:40Z</time>
      </trkpt>
      <trkpt lat="45.69161" lon="6.73507">
        <ele>1482.8</ele>
        <time>2023-08-21T12:04:41Z</time>
      </trkpt>
      <trkpt lat="45.69155" lon="6.7351">
        <ele>1482.8</ele>
        <time>2023-08-21T12:04:42Z</time>
      </trkpt>
      <trkpt lat="45.69149" lon="6.73514">
        <ele>1482.6</ele>
        <time>2023-08-21T12:04:43Z</time>
      </trkpt>
      <trkpt lat="45.69143" lon="6.73517">
        <ele>1482.6</ele>
        <time>2023-08-21T12:04:44Z</time>
      </trkpt>
      <trkpt lat="45.69137" lon="6.73519">
        <ele>1482.6</ele>
        <time>2023-08-21T12:04:45Z</time>
      </trkpt>
      <trkpt lat="45.69131" lon="6.73521">
        <ele>1482.6</ele>
        <time>2023-08-21T12:04:46Z</time>
      </trkpt>
      <trkpt lat="45.69125" lon="6.73523">
        <ele>1482.6</ele>
        <time>2023-08-21T12:04:47Z</time>
      </trkpt>
      <trkpt lat="45.69119" lon="6.73524">
        <ele>1482</ele>
        <time>2023-08-21T12:04:48Z</time>
      </trkpt>
      <trkpt lat="45.69112" lon="6.73525">
        <ele>1482</ele>
        <time>2023-08-21T12:04:49Z</time>
      </trkpt>
      <trkpt lat="45.69106" lon="6.73526">
        <ele>1481.4</ele>
        <time>2023-08-21T12:04:50Z</time>
      </trkpt>
      <trkpt lat="45.69099" lon="6.73526">
        <ele>1481.4</ele>
        <time>2023-08-21T12:04:51Z</time>
      </trkpt>
      <trkpt lat="45.69093" lon="6.73528">
        <ele>1481.4</ele>
        <time>2023-08-21T12:04:52Z</time>
      </trkpt>
      <trkpt lat="45.69086" lon="6.73529">
        <ele>1481.4</ele>
        <time>2023-08-21T12:04:53Z</time>
      </trkpt>
      <trkpt lat="45.6908" lon="6.7353">
        <ele>1481.4</ele>
        <time>2023-08-21T12:04:54Z</time>
      </trkpt>
      <trkpt lat="45.69074" lon="6.7353">
        <ele>1480.8</ele>
        <time>2023-08-21T12:04:55Z</time>
      </trkpt>
      <trkpt lat="45.69067" lon="6.73531">
        <ele>1481</ele>
        <time>2023-08-21T12:04:56Z</time>
      </trkpt>
      <trkpt lat="45.6906" lon="6.73532">
        <ele>1481</ele>
        <time>2023-08-21T12:04:57Z</time>
      </trkpt>
      <trkpt lat="45.69054" lon="6.73533">
        <ele>1481</ele>
        <time>2023-08-21T12:04:58Z</time>
      </trkpt>
      <trkpt lat="45.69047" lon="6.73534">
        <ele>1480.8</ele>
        <time>2023-08-21T12:04:59Z</time>
      </trkpt>
      <trkpt lat="45.6904" lon="6.73536">
        <ele>1480.6</ele>
        <time>2023-08-21T12:05:00Z</time>
      </trkpt>
      <trkpt lat="45.69033" lon="6.73538">
        <ele>1480.6</ele>
        <time>2023-08-21T12:05:01Z</time>
      </trkpt>
      <trkpt lat="45.69026" lon="6.73539">
        <ele>1480.6</ele>
        <time>2023-08-21T12:05:02Z</time>
      </trkpt>
      <trkpt lat="45.6902" lon="6.7354">
        <ele>1480.6</ele>
        <time>2023-08-21T12:05:03Z</time>
      </trkpt>
      <trkpt lat="45.69013" lon="6.73541">
        <ele>1480.2</ele>
        <time>2023-08-21T12:05:04Z</time>
      </trkpt>
      <trkpt lat="45.69006" lon="6.73543">
        <ele>1480.2</ele>
        <time>2023-08-21T12:05:05Z</time>
      </trkpt>
      <trkpt lat="45.68999" lon="6.73545">
        <ele>1480.2</ele>
        <time>2023-08-21T12:05:06Z</time>
      </trkpt>
      <trkpt lat="45.68992" lon="6.73546">
        <ele>1480.2</ele>
        <time>2023-08-21T12:05:07Z</time>
      </trkpt>
      <trkpt lat="45.68986" lon="6.73547">
        <ele>1480.2</ele>
        <time>2023-08-21T12:05:08Z</time>
      </trkpt>
      <trkpt lat="45.68979" lon="6.73548">
        <ele>1480.2</ele>
        <time>2023-08-21T12:05:09Z</time>
      </trkpt>
      <trkpt lat="45.68973" lon="6.7355">
        <ele>1480.2</ele>
        <time>2023-08-21T12:05:10Z</time>
      </trkpt>
      <trkpt lat="45.68966" lon="6.73551">
        <ele>1480.2</ele>
        <time>2023-08-21T12:05:11Z</time>
      </trkpt>
      <trkpt lat="45.68959" lon="6.73553">
        <ele>1480.2</ele>
        <time>2023-08-21T12:05:12Z</time>
      </trkpt>
      <trkpt lat="45.68953" lon="6.73554">
        <ele>1480</ele>
        <time>2023-08-21T12:05:13Z</time>
      </trkpt>
      <trkpt lat="45.68946" lon="6.73555">
        <ele>1480</ele>
        <time>2023-08-21T12:05:14Z</time>
      </trkpt>
      <trkpt lat="45.6894" lon="6.73556">
        <ele>1480</ele>
        <time>2023-08-21T12:05:15Z</time>
      </trkpt>
      <trkpt lat="45.68933" lon="6.73558">
        <ele>1480</ele>
        <time>2023-08-21T12:05:16Z</time>
      </trkpt>
      <trkpt lat="45.68926" lon="6.73559">
        <ele>1479.8</ele>
        <time>2023-08-21T12:05:17Z</time>
      </trkpt>
      <trkpt lat="45.6892" lon="6.7356">
        <ele>1479.8</ele>
        <time>2023-08-21T12:05:18Z</time>
      </trkpt>
      <trkpt lat="45.68913" lon="6.73562">
        <ele>1479.6</ele>
        <time>2023-08-21T12:05:19Z</time>
      </trkpt>
      <trkpt lat="45.68906" lon="6.73563">
        <ele>1479.6</ele>
        <time>2023-08-21T12:05:20Z</time>
      </trkpt>
      <trkpt lat="45.689" lon="6.73564">
        <ele>1479.6</ele>
        <time>2023-08-21T12:05:21Z</time>
      </trkpt>
      <trkpt lat="45.68893" lon="6.73565">
        <ele>1479.8</ele>
        <time>2023-08-21T12:05:22Z</time>
      </trkpt>
      <trkpt lat="45.68887" lon="6.73566">
        <ele>1479.8</ele>
        <time>2023-08-21T12:05:23Z</time>
      </trkpt>
      <trkpt lat="45.6888" lon="6.73567">
        <ele>1479.8</ele>
        <time>2023-08-21T12:05:24Z</time>
      </trkpt>
      <trkpt lat="45.68874" lon="6.73569">
        <ele>1479.8</ele>
        <time>2023-08-21T12:05:25Z</time>
      </trkpt>
      <trkpt lat="45.68867" lon="6.7357">
        <ele>1479</ele>
        <time>2023-08-21T12:05:26Z</time>
      </trkpt>
      <trkpt lat="45.68861" lon="6.73571">
        <ele>1479</ele>
        <time>2023-08-21T12:05:27Z</time>
      </trkpt>
      <trkpt lat="45.68854" lon="6.73572">
        <ele>1479</ele>
        <time>2023-08-21T12:05:28Z</time>
      </trkpt>
      <trkpt lat="45.68847" lon="6.73573">
        <ele>1479</ele>
        <time>2023-08-21T12:05:29Z</time>
      </trkpt>
      <trkpt lat="45.68841" lon="6.73574">
        <ele>1479</ele>
        <time>2023-08-21T12:05:30Z</time>
      </trkpt>
      <trkpt lat="45.68834" lon="6.73575">
        <ele>1478.8</ele>
        <time>2023-08-21T12:05:31Z</time>
      </trkpt>
      <trkpt lat="45.68827" lon="6.73576">
        <ele>1478.8</ele>
        <time>2023-08-21T12:05:32Z</time>
      </trkpt>
      <trkpt lat="45.68821" lon="6.73578">
        <ele>1478.8</ele>
        <time>2023-08-21T12:05:33Z</time>
      </trkpt>
      <trkpt lat="45.68814" lon="6.73579">
        <ele>1478.8</ele>
        <time>2023-08-21T12:05:34Z</time>
      </trkpt>
      <trkpt lat="45.68807" lon="6.7358">
        <ele>1478.4</ele>
        <time>2023-08-21T12:05:35Z</time>
      </trkpt>
      <trkpt lat="45.688" lon="6.73581">
        <ele>1478.4</ele>
        <time>2023-08-21T12:05:36Z</time>
      </trkpt>
      <trkpt lat="45.68794" lon="6.73582">
        <ele>1478.4</ele>
        <time>2023-08-21T12:05:37Z</time>
      </trkpt>
      <trkpt lat="45.68787" lon="6.73583">
        <ele>1478.4</ele>
        <time>2023-08-21T12:05:38Z</time>
      </trkpt>
      <trkpt lat="45.68781" lon="6.73585">
        <ele>1478.4</ele>
        <time>2023-08-21T12:05:39Z</time>
      </trkpt>
      <trkpt lat="45.68774" lon="6.73586">
        <ele>1478.4</ele>
        <time>2023-08-21T12:05:40Z</time>
      </trkpt>
      <trkpt lat="45.68768" lon="6.73587">
        <ele>1478</ele>
        <time>2023-08-21T12:05:41Z</time>
      </trkpt>
      <trkpt lat="45.68761" lon="6.73589">
        <ele>1478</ele>
        <time>2023-08-21T12:05:42Z</time>
      </trkpt>
      <trkpt lat="45.68755" lon="6.7359">
        <ele>1478</ele>
        <time>2023-08-21T12:05:43Z</time>
      </trkpt>
      <trkpt lat="45.68748" lon="6.73591">
        <ele>1478</ele>
        <time>2023-08-21T12:05:44Z</time>
      </trkpt>
      <trkpt lat="45.68742" lon="6.73592">
        <ele>1477.8</ele>
        <time>2023-08-21T12:05:45Z</time>
      </trkpt>
      <trkpt lat="45.68735" lon="6.73594">
        <ele>1477.8</ele>
        <time>2023-08-21T12:05:46Z</time>
      </trkpt>
      <trkpt lat="45.68729" lon="6.73595">
        <ele>1477.8</ele>
        <time>2023-08-21T12:05:47Z</time>
      </trkpt>
      <trkpt lat="45.68722" lon="6.73597">
        <ele>1477.8</ele>
        <time>2023-08-21T12:05:48Z</time>
      </trkpt>
      <trkpt lat="45.68715" lon="6.73598">
        <ele>1476.8</ele>
        <time>2023-08-21T12:05:49Z</time>
      </trkpt>
      <trkpt lat="45.68709" lon="6.73599">
        <ele>1476.8</ele>
        <time>2023-08-21T12:05:50Z</time>
      </trkpt>
      <trkpt lat="45.68702" lon="6.73601">
        <ele>1476.8</ele>
        <time>2023-08-21T12:05:51Z</time>
      </trkpt>
      <trkpt lat="45.68695" lon="6.73602">
        <ele>1477.4</ele>
        <time>2023-08-21T12:05:52Z</time>
      </trkpt>
      <trkpt lat="45.68689" lon="6.73604">
        <ele>1477.4</ele>
        <time>2023-08-21T12:05:53Z</time>
      </trkpt>
      <trkpt lat="45.68682" lon="6.73605">
        <ele>1477.4</ele>
        <time>2023-08-21T12:05:54Z</time>
      </trkpt>
      <trkpt lat="45.68676" lon="6.73607">
        <ele>1477.4</ele>
        <time>2023-08-21T12:05:55Z</time>
      </trkpt>
      <trkpt lat="45.6867" lon="6.73608">
        <ele>1477.4</ele>
        <time>2023-08-21T12:05:56Z</time>
      </trkpt>
      <trkpt lat="45.68664" lon="6.7361">
        <ele>1477.4</ele>
        <time>2023-08-21T12:05:57Z</time>
      </trkpt>
      <trkpt lat="45.68658" lon="6.7361">
        <ele>1477.4</ele>
        <time>2023-08-21T12:05:58Z</time>
      </trkpt>
      <trkpt lat="45.68653" lon="6.73611">
        <ele>1477.4</ele>
        <time>2023-08-21T12:05:59Z</time>
      </trkpt>
      <trkpt lat="45.68648" lon="6.73612">
        <ele>1477.8</ele>
        <time>2023-08-21T12:06:00Z</time>
      </trkpt>
      <trkpt lat="45.68643" lon="6.73613">
        <ele>1477.8</ele>
        <time>2023-08-21T12:06:01Z</time>
      </trkpt>
      <trkpt lat="45.68639" lon="6.73614">
        <ele>1478.2</ele>
        <time>2023-08-21T12:06:02Z</time>
      </trkpt>
      <trkpt lat="45.68635" lon="6.73615">
        <ele>1478.2</ele>
        <time>2023-08-21T12:06:03Z</time>
      </trkpt>
      <trkpt lat="45.68631" lon="6.73616">
        <ele>1478.2</ele>
        <time>2023-08-21T12:06:04Z</time>
      </trkpt>
      <trkpt lat="45.68628" lon="6.73617">
        <ele>1478.2</ele>
        <time>2023-08-21T12:06:05Z</time>
      </trkpt>
      <trkpt lat="45.68626" lon="6.73618">
        <ele>1478.2</ele>
        <time>2023-08-21T12:06:06Z</time>
      </trkpt>
      <trkpt lat="45.68624" lon="6.73619">
        <ele>1479.2</ele>
        <time>2023-08-21T12:06:07Z</time>
      </trkpt>
      <trkpt lat="45.68622" lon="6.7362">
        <ele>1480.2</ele>
        <time>2023-08-21T12:06:08Z</time>
      </trkpt>
      <trkpt lat="45.6862" lon="6.73622">
        <ele>1480.2</ele>
        <time>2023-08-21T12:06:09Z</time>
      </trkpt>
      <trkpt lat="45.68618" lon="6.73623">
        <ele>1480.2</ele>
        <time>2023-08-21T12:06:10Z</time>
      </trkpt>
      <trkpt lat="45.68616" lon="6.73624">
        <ele>1480.2</ele>
        <time>2023-08-21T12:06:11Z</time>
      </trkpt>
      <trkpt lat="45.68614" lon="6.73625">
        <ele>1480.2</ele>
        <time>2023-08-21T12:06:12Z</time>
      </trkpt>
      <trkpt lat="45.68612" lon="6.73626">
        <ele>1480.2</ele>
        <time>2023-08-21T12:06:13Z</time>
      </trkpt>
      <trkpt lat="45.6861" lon="6.73626">
        <ele>1480.2</ele>
        <time>2023-08-21T12:06:14Z</time>
      </trkpt>
      <trkpt lat="45.68608" lon="6.73627">
        <ele>1481.2</ele>
        <time>2023-08-21T12:06:15Z</time>
      </trkpt>
      <trkpt lat="45.68606" lon="6.73629">
        <ele>1481.4</ele>
        <time>2023-08-21T12:06:16Z</time>
      </trkpt>
      <trkpt lat="45.68604" lon="6.7363">
        <ele>1481.4</ele>
        <time>2023-08-21T12:06:17Z</time>
      </trkpt>
      <trkpt lat="45.68602" lon="6.73631">
        <ele>1481.4</ele>
        <time>2023-08-21T12:06:18Z</time>
      </trkpt>
      <trkpt lat="45.68601" lon="6.73632">
        <ele>1481.4</ele>
        <time>2023-08-21T12:06:19Z</time>
      </trkpt>
      <trkpt lat="45.68599" lon="6.73633">
        <ele>1482</ele>
        <time>2023-08-21T12:06:20Z</time>
      </trkpt>
      <trkpt lat="45.68597" lon="6.73634">
        <ele>1481</ele>
        <time>2023-08-21T12:06:21Z</time>
      </trkpt>
      <trkpt lat="45.68595" lon="6.73635">
        <ele>1481</ele>
        <time>2023-08-21T12:06:22Z</time>
      </trkpt>
      <trkpt lat="45.68593" lon="6.73635">
        <ele>1481</ele>
        <time>2023-08-21T12:06:23Z</time>
      </trkpt>
      <trkpt lat="45.68592" lon="6.73635">
        <ele>1482</ele>
        <time>2023-08-21T12:06:24Z</time>
      </trkpt>
      <trkpt lat="45.6859" lon="6.73635">
        <ele>1482</ele>
        <time>2023-08-21T12:06:25Z</time>
      </trkpt>
      <trkpt lat="45.68588" lon="6.73636">
        <ele>1482.8</ele>
        <time>2023-08-21T12:06:26Z</time>
      </trkpt>
      <trkpt lat="45.68586" lon="6.73636">
        <ele>1482.8</ele>
        <time>2023-08-21T12:06:27Z</time>
      </trkpt>
      <trkpt lat="45.68584" lon="6.73637">
        <ele>1482.8</ele>
        <time>2023-08-21T12:06:28Z</time>
      </trkpt>
      <trkpt lat="45.68583" lon="6.73638">
        <ele>1483.2</ele>
        <time>2023-08-21T12:06:29Z</time>
      </trkpt>
      <trkpt lat="45.68581" lon="6.73639">
        <ele>1483.4</ele>
        <time>2023-08-21T12:06:30Z</time>
      </trkpt>
      <trkpt lat="45.68579" lon="6.7364">
        <ele>1483.4</ele>
        <time>2023-08-21T12:06:31Z</time>
      </trkpt>
      <trkpt lat="45.68578" lon="6.73641">
        <ele>1483.4</ele>
        <time>2023-08-21T12:06:32Z</time>
      </trkpt>
      <trkpt lat="45.68576" lon="6.73642">
        <ele>1483.4</ele>
        <time>2023-08-21T12:06:33Z</time>
      </trkpt>
      <trkpt lat="45.68575" lon="6.73644">
        <ele>1483.6</ele>
        <time>2023-08-21T12:06:34Z</time>
      </trkpt>
      <trkpt lat="45.68573" lon="6.73645">
        <ele>1483.6</ele>
        <time>2023-08-21T12:06:35Z</time>
      </trkpt>
      <trkpt lat="45.68571" lon="6.73646">
        <ele>1483.6</ele>
        <time>2023-08-21T12:06:36Z</time>
      </trkpt>
      <trkpt lat="45.6857" lon="6.73648">
        <ele>1483.6</ele>
        <time>2023-08-21T12:06:37Z</time>
      </trkpt>
      <trkpt lat="45.68568" lon="6.73649">
        <ele>1483.6</ele>
        <time>2023-08-21T12:06:38Z</time>
      </trkpt>
      <trkpt lat="45.68567" lon="6.7365">
        <ele>1484.4</ele>
        <time>2023-08-21T12:06:39Z</time>
      </trkpt>
      <trkpt lat="45.68565" lon="6.73651">
        <ele>1484.6</ele>
        <time>2023-08-21T12:06:40Z</time>
      </trkpt>
      <trkpt lat="45.68563" lon="6.73652">
        <ele>1484.6</ele>
        <time>2023-08-21T12:06:41Z</time>
      </trkpt>
      <trkpt lat="45.68562" lon="6.73653">
        <ele>1484.6</ele>
        <time>2023-08-21T12:06:42Z</time>
      </trkpt>
      <trkpt lat="45.6856" lon="6.73654">
        <ele>1485</ele>
        <time>2023-08-21T12:06:43Z</time>
      </trkpt>
      <trkpt lat="45.68559" lon="6.73655">
        <ele>1485</ele>
        <time>2023-08-21T12:06:44Z</time>
      </trkpt>
      <trkpt lat="45.68557" lon="6.73656">
        <ele>1485</ele>
        <time>2023-08-21T12:06:45Z</time>
      </trkpt>
      <trkpt lat="45.68555" lon="6.73657">
        <ele>1485</ele>
        <time>2023-08-21T12:06:46Z</time>
      </trkpt>
      <trkpt lat="45.68554" lon="6.73659">
        <ele>1485</ele>
        <time>2023-08-21T12:06:47Z</time>
      </trkpt>
      <trkpt lat="45.68552" lon="6.73661">
        <ele>1485.8</ele>
        <time>2023-08-21T12:06:48Z</time>
      </trkpt>
      <trkpt lat="45.68551" lon="6.73662">
        <ele>1485.6</ele>
        <time>2023-08-21T12:06:49Z</time>
      </trkpt>
      <trkpt lat="45.68549" lon="6.73663">
        <ele>1485.6</ele>
        <time>2023-08-21T12:06:50Z</time>
      </trkpt>
      <trkpt lat="45.68548" lon="6.73665">
        <ele>1485.6</ele>
        <time>2023-08-21T12:06:51Z</time>
      </trkpt>
      <trkpt lat="45.68546" lon="6.73666">
        <ele>1486.2</ele>
        <time>2023-08-21T12:06:52Z</time>
      </trkpt>
      <trkpt lat="45.68545" lon="6.73668">
        <ele>1486.6</ele>
        <time>2023-08-21T12:06:53Z</time>
      </trkpt>
      <trkpt lat="45.68543" lon="6.73669">
        <ele>1486.6</ele>
        <time>2023-08-21T12:06:54Z</time>
      </trkpt>
      <trkpt lat="45.68541" lon="6.7367">
        <ele>1486.6</ele>
        <time>2023-08-21T12:06:55Z</time>
      </trkpt>
      <trkpt lat="45.6854" lon="6.73672">
        <ele>1487.2</ele>
        <time>2023-08-21T12:06:56Z</time>
      </trkpt>
      <trkpt lat="45.68538" lon="6.73673">
        <ele>1487.4</ele>
        <time>2023-08-21T12:06:57Z</time>
      </trkpt>
      <trkpt lat="45.68536" lon="6.73675">
        <ele>1487.4</ele>
        <time>2023-08-21T12:06:58Z</time>
      </trkpt>
      <trkpt lat="45.68534" lon="6.73676">
        <ele>1487.4</ele>
        <time>2023-08-21T12:06:59Z</time>
      </trkpt>
      <trkpt lat="45.68533" lon="6.73676">
        <ele>1487.4</ele>
        <time>2023-08-21T12:07:00Z</time>
      </trkpt>
      <trkpt lat="45.68531" lon="6.73677">
        <ele>1487.4</ele>
        <time>2023-08-21T12:07:01Z</time>
      </trkpt>
      <trkpt lat="45.68529" lon="6.73678">
        <ele>1487.8</ele>
        <time>2023-08-21T12:07:02Z</time>
      </trkpt>
      <trkpt lat="45.68527" lon="6.73679">
        <ele>1487.8</ele>
        <time>2023-08-21T12:07:03Z</time>
      </trkpt>
      <trkpt lat="45.68525" lon="6.7368">
        <ele>1487.8</ele>
        <time>2023-08-21T12:07:04Z</time>
      </trkpt>
      <trkpt lat="45.68523" lon="6.73681">
        <ele>1487.8</ele>
        <time>2023-08-21T12:07:05Z</time>
      </trkpt>
      <trkpt lat="45.68521" lon="6.73681">
        <ele>1487.8</ele>
        <time>2023-08-21T12:07:06Z</time>
      </trkpt>
      <trkpt lat="45.68518" lon="6.73682">
        <ele>1488.2</ele>
        <time>2023-08-21T12:07:07Z</time>
      </trkpt>
      <trkpt lat="45.68515" lon="6.73683">
        <ele>1488.2</ele>
        <time>2023-08-21T12:07:08Z</time>
      </trkpt>
      <trkpt lat="45.68512" lon="6.73684">
        <ele>1488.2</ele>
        <time>2023-08-21T12:07:09Z</time>
      </trkpt>
      <trkpt lat="45.68509" lon="6.73686">
        <ele>1487.8</ele>
        <time>2023-08-21T12:07:10Z</time>
      </trkpt>
      <trkpt lat="45.68507" lon="6.73687">
        <ele>1487.8</ele>
        <time>2023-08-21T12:07:11Z</time>
      </trkpt>
      <trkpt lat="45.68504" lon="6.73689">
        <ele>1487.8</ele>
        <time>2023-08-21T12:07:12Z</time>
      </trkpt>
      <trkpt lat="45.68501" lon="6.7369">
        <ele>1487.8</ele>
        <time>2023-08-21T12:07:13Z</time>
      </trkpt>
      <trkpt lat="45.68498" lon="6.73692">
        <ele>1487.8</ele>
        <time>2023-08-21T12:07:14Z</time>
      </trkpt>
      <trkpt lat="45.68495" lon="6.73695">
        <ele>1487.8</ele>
        <time>2023-08-21T12:07:15Z</time>
      </trkpt>
      <trkpt lat="45.68492" lon="6.73696">
        <ele>1487.8</ele>
        <time>2023-08-21T12:07:16Z</time>
      </trkpt>
      <trkpt lat="45.68489" lon="6.73698">
        <ele>1487.8</ele>
        <time>2023-08-21T12:07:17Z</time>
      </trkpt>
      <trkpt lat="45.68485" lon="6.737">
        <ele>1487.8</ele>
        <time>2023-08-21T12:07:18Z</time>
      </trkpt>
      <trkpt lat="45.68482" lon="6.73702">
        <ele>1487.8</ele>
        <time>2023-08-21T12:07:19Z</time>
      </trkpt>
      <trkpt lat="45.68478" lon="6.73704">
        <ele>1487.8</ele>
        <time>2023-08-21T12:07:20Z</time>
      </trkpt>
      <trkpt lat="45.68475" lon="6.73706">
        <ele>1487.8</ele>
        <time>2023-08-21T12:07:21Z</time>
      </trkpt>
      <trkpt lat="45.68472" lon="6.73709">
        <ele>1487.8</ele>
        <time>2023-08-21T12:07:22Z</time>
      </trkpt>
      <trkpt lat="45.68468" lon="6.73711">
        <ele>1487.8</ele>
        <time>2023-08-21T12:07:23Z</time>
      </trkpt>
      <trkpt lat="45.68465" lon="6.73713">
        <ele>1487.8</ele>
        <time>2023-08-21T12:07:24Z</time>
      </trkpt>
      <trkpt lat="45.68461" lon="6.73715">
        <ele>1487.8</ele>
        <time>2023-08-21T12:07:25Z</time>
      </trkpt>
      <trkpt lat="45.68458" lon="6.73718">
        <ele>1487.8</ele>
        <time>2023-08-21T12:07:26Z</time>
      </trkpt>
      <trkpt lat="45.68454" lon="6.7372">
        <ele>1487.8</ele>
        <time>2023-08-21T12:07:27Z</time>
      </trkpt>
      <trkpt lat="45.6845" lon="6.73721">
        <ele>1487.8</ele>
        <time>2023-08-21T12:07:28Z</time>
      </trkpt>
      <trkpt lat="45.68446" lon="6.73723">
        <ele>1487.8</ele>
        <time>2023-08-21T12:07:29Z</time>
      </trkpt>
      <trkpt lat="45.68442" lon="6.73724">
        <ele>1487.6</ele>
        <time>2023-08-21T12:07:30Z</time>
      </trkpt>
      <trkpt lat="45.68438" lon="6.73725">
        <ele>1487.6</ele>
        <time>2023-08-21T12:07:31Z</time>
      </trkpt>
      <trkpt lat="45.68434" lon="6.73726">
        <ele>1487.6</ele>
        <time>2023-08-21T12:07:32Z</time>
      </trkpt>
      <trkpt lat="45.6843" lon="6.73727">
        <ele>1487.6</ele>
        <time>2023-08-21T12:07:33Z</time>
      </trkpt>
      <trkpt lat="45.68425" lon="6.73729">
        <ele>1487.6</ele>
        <time>2023-08-21T12:07:34Z</time>
      </trkpt>
      <trkpt lat="45.68421" lon="6.7373">
        <ele>1487.6</ele>
        <time>2023-08-21T12:07:35Z</time>
      </trkpt>
      <trkpt lat="45.68417" lon="6.73731">
        <ele>1487.6</ele>
        <time>2023-08-21T12:07:36Z</time>
      </trkpt>
      <trkpt lat="45.68412" lon="6.73733">
        <ele>1487</ele>
        <time>2023-08-21T12:07:37Z</time>
      </trkpt>
      <trkpt lat="45.68408" lon="6.73734">
        <ele>1487.2</ele>
        <time>2023-08-21T12:07:38Z</time>
      </trkpt>
      <trkpt lat="45.68403" lon="6.73735">
        <ele>1487.2</ele>
        <time>2023-08-21T12:07:39Z</time>
      </trkpt>
      <trkpt lat="45.68399" lon="6.73737">
        <ele>1487.2</ele>
        <time>2023-08-21T12:07:40Z</time>
      </trkpt>
      <trkpt lat="45.68394" lon="6.73739">
        <ele>1486.8</ele>
        <time>2023-08-21T12:07:41Z</time>
      </trkpt>
      <trkpt lat="45.6839" lon="6.73741">
        <ele>1487</ele>
        <time>2023-08-21T12:07:42Z</time>
      </trkpt>
      <trkpt lat="45.68385" lon="6.73742">
        <ele>1487</ele>
        <time>2023-08-21T12:07:43Z</time>
      </trkpt>
      <trkpt lat="45.68381" lon="6.73743">
        <ele>1487</ele>
        <time>2023-08-21T12:07:44Z</time>
      </trkpt>
      <trkpt lat="45.68376" lon="6.73744">
        <ele>1487</ele>
        <time>2023-08-21T12:07:45Z</time>
      </trkpt>
      <trkpt lat="45.68371" lon="6.73745">
        <ele>1486.8</ele>
        <time>2023-08-21T12:07:46Z</time>
      </trkpt>
      <trkpt lat="45.68366" lon="6.73746">
        <ele>1486.8</ele>
        <time>2023-08-21T12:07:47Z</time>
      </trkpt>
      <trkpt lat="45.68362" lon="6.73747">
        <ele>1486.6</ele>
        <time>2023-08-21T12:07:48Z</time>
      </trkpt>
      <trkpt lat="45.68357" lon="6.73748">
        <ele>1486.6</ele>
        <time>2023-08-21T12:07:49Z</time>
      </trkpt>
      <trkpt lat="45.68352" lon="6.7375">
        <ele>1486.6</ele>
        <time>2023-08-21T12:07:50Z</time>
      </trkpt>
      <trkpt lat="45.68348" lon="6.73751">
        <ele>1486.6</ele>
        <time>2023-08-21T12:07:51Z</time>
      </trkpt>
      <trkpt lat="45.68343" lon="6.73752">
        <ele>1486.6</ele>
        <time>2023-08-21T12:07:52Z</time>
      </trkpt>
      <trkpt lat="45.68339" lon="6.73754">
        <ele>1486.6</ele>
        <time>2023-08-21T12:07:53Z</time>
      </trkpt>
      <trkpt lat="45.68334" lon="6.73757">
        <ele>1486.6</ele>
        <time>2023-08-21T12:07:54Z</time>
      </trkpt>
      <trkpt lat="45.6833" lon="6.73759">
        <ele>1486.4</ele>
        <time>2023-08-21T12:07:55Z</time>
      </trkpt>
      <trkpt lat="45.68326" lon="6.73762">
        <ele>1486.2</ele>
        <time>2023-08-21T12:07:56Z</time>
      </trkpt>
      <trkpt lat="45.68322" lon="6.73764">
        <ele>1486.2</ele>
        <time>2023-08-21T12:07:57Z</time>
      </trkpt>
      <trkpt lat="45.68318" lon="6.73767">
        <ele>1486.2</ele>
        <time>2023-08-21T12:07:58Z</time>
      </trkpt>
      <trkpt lat="45.68315" lon="6.7377">
        <ele>1486.2</ele>
        <time>2023-08-21T12:07:59Z</time>
      </trkpt>
      <trkpt lat="45.68312" lon="6.73773">
        <ele>1486.2</ele>
        <time>2023-08-21T12:08:00Z</time>
      </trkpt>
      <trkpt lat="45.68308" lon="6.73775">
        <ele>1486</ele>
        <time>2023-08-21T12:08:01Z</time>
      </trkpt>
      <trkpt lat="45.68305" lon="6.73778">
        <ele>1486</ele>
        <time>2023-08-21T12:08:02Z</time>
      </trkpt>
      <trkpt lat="45.68302" lon="6.73781">
        <ele>1486</ele>
        <time>2023-08-21T12:08:03Z</time>
      </trkpt>
      <trkpt lat="45.68299" lon="6.73784">
        <ele>1486</ele>
        <time>2023-08-21T12:08:04Z</time>
      </trkpt>
      <trkpt lat="45.68296" lon="6.73788">
        <ele>1485.8</ele>
        <time>2023-08-21T12:08:05Z</time>
      </trkpt>
      <trkpt lat="45.68293" lon="6.73792">
        <ele>1485.8</ele>
        <time>2023-08-21T12:08:06Z</time>
      </trkpt>
      <trkpt lat="45.68291" lon="6.73796">
        <ele>1485.8</ele>
        <time>2023-08-21T12:08:07Z</time>
      </trkpt>
      <trkpt lat="45.68287" lon="6.738">
        <ele>1485.8</ele>
        <time>2023-08-21T12:08:08Z</time>
      </trkpt>
      <trkpt lat="45.68285" lon="6.73805">
        <ele>1486</ele>
        <time>2023-08-21T12:08:09Z</time>
      </trkpt>
      <trkpt lat="45.68282" lon="6.7381">
        <ele>1486</ele>
        <time>2023-08-21T12:08:10Z</time>
      </trkpt>
      <trkpt lat="45.6828" lon="6.73815">
        <ele>1486</ele>
        <time>2023-08-21T12:08:11Z</time>
      </trkpt>
      <trkpt lat="45.68277" lon="6.7382">
        <ele>1486</ele>
        <time>2023-08-21T12:08:12Z</time>
      </trkpt>
      <trkpt lat="45.68274" lon="6.73825">
        <ele>1485.2</ele>
        <time>2023-08-21T12:08:13Z</time>
      </trkpt>
      <trkpt lat="45.68271" lon="6.7383">
        <ele>1485.4</ele>
        <time>2023-08-21T12:08:14Z</time>
      </trkpt>
      <trkpt lat="45.68268" lon="6.73835">
        <ele>1485.4</ele>
        <time>2023-08-21T12:08:15Z</time>
      </trkpt>
      <trkpt lat="45.68265" lon="6.73841">
        <ele>1485.4</ele>
        <time>2023-08-21T12:08:16Z</time>
      </trkpt>
      <trkpt lat="45.68263" lon="6.73847">
        <ele>1484.8</ele>
        <time>2023-08-21T12:08:17Z</time>
      </trkpt>
      <trkpt lat="45.6826" lon="6.73852">
        <ele>1485</ele>
        <time>2023-08-21T12:08:18Z</time>
      </trkpt>
      <trkpt lat="45.68257" lon="6.73857">
        <ele>1485</ele>
        <time>2023-08-21T12:08:19Z</time>
      </trkpt>
      <trkpt lat="45.68254" lon="6.73863">
        <ele>1485</ele>
        <time>2023-08-21T12:08:20Z</time>
      </trkpt>
      <trkpt lat="45.6825" lon="6.73868">
        <ele>1485</ele>
        <time>2023-08-21T12:08:21Z</time>
      </trkpt>
      <trkpt lat="45.68247" lon="6.73874">
        <ele>1484.4</ele>
        <time>2023-08-21T12:08:22Z</time>
      </trkpt>
      <trkpt lat="45.68244" lon="6.73879">
        <ele>1484.4</ele>
        <time>2023-08-21T12:08:23Z</time>
      </trkpt>
      <trkpt lat="45.68241" lon="6.73885">
        <ele>1484.2</ele>
        <time>2023-08-21T12:08:24Z</time>
      </trkpt>
      <trkpt lat="45.68238" lon="6.73891">
        <ele>1484.2</ele>
        <time>2023-08-21T12:08:25Z</time>
      </trkpt>
      <trkpt lat="45.68235" lon="6.73897">
        <ele>1484.2</ele>
        <time>2023-08-21T12:08:26Z</time>
      </trkpt>
      <trkpt lat="45.68231" lon="6.73903">
        <ele>1483.6</ele>
        <time>2023-08-21T12:08:27Z</time>
      </trkpt>
      <trkpt lat="45.68228" lon="6.7391">
        <ele>1483.6</ele>
        <time>2023-08-21T12:08:28Z</time>
      </trkpt>
      <trkpt lat="45.68224" lon="6.73916">
        <ele>1483</ele>
        <time>2023-08-21T12:08:29Z</time>
      </trkpt>
      <trkpt lat="45.6822" lon="6.73922">
        <ele>1483</ele>
        <time>2023-08-21T12:08:30Z</time>
      </trkpt>
      <trkpt lat="45.68216" lon="6.73928">
        <ele>1483</ele>
        <time>2023-08-21T12:08:31Z</time>
      </trkpt>
      <trkpt lat="45.68211" lon="6.73935">
        <ele>1482.4</ele>
        <time>2023-08-21T12:08:32Z</time>
      </trkpt>
      <trkpt lat="45.68206" lon="6.7394">
        <ele>1482.4</ele>
        <time>2023-08-21T12:08:33Z</time>
      </trkpt>
      <trkpt lat="45.682" lon="6.73945">
        <ele>1482.4</ele>
        <time>2023-08-21T12:08:34Z</time>
      </trkpt>
      <trkpt lat="45.68194" lon="6.73949">
        <ele>1482.4</ele>
        <time>2023-08-21T12:08:35Z</time>
      </trkpt>
      <trkpt lat="45.68186" lon="6.73952">
        <ele>1481.4</ele>
        <time>2023-08-21T12:08:36Z</time>
      </trkpt>
      <trkpt lat="45.68179" lon="6.73956">
        <ele>1481.2</ele>
        <time>2023-08-21T12:08:37Z</time>
      </trkpt>
      <trkpt lat="45.68171" lon="6.73959">
        <ele>1481.2</ele>
        <time>2023-08-21T12:08:38Z</time>
      </trkpt>
      <trkpt lat="45.68164" lon="6.73963">
        <ele>1481.2</ele>
        <time>2023-08-21T12:08:39Z</time>
      </trkpt>
      <trkpt lat="45.68155" lon="6.73967">
        <ele>1481.2</ele>
        <time>2023-08-21T12:08:40Z</time>
      </trkpt>
      <trkpt lat="45.68147" lon="6.73971">
        <ele>1479.6</ele>
        <time>2023-08-21T12:08:41Z</time>
      </trkpt>
      <trkpt lat="45.68138" lon="6.73975">
        <ele>1479.6</ele>
        <time>2023-08-21T12:08:42Z</time>
      </trkpt>
      <trkpt lat="45.68129" lon="6.7398">
        <ele>1479.6</ele>
        <time>2023-08-21T12:08:43Z</time>
      </trkpt>
      <trkpt lat="45.68121" lon="6.73987">
        <ele>1479.6</ele>
        <time>2023-08-21T12:08:44Z</time>
      </trkpt>
      <trkpt lat="45.68114" lon="6.73995">
        <ele>1478.6</ele>
        <time>2023-08-21T12:08:45Z</time>
      </trkpt>
      <trkpt lat="45.68106" lon="6.74004">
        <ele>1477.2</ele>
        <time>2023-08-21T12:08:46Z</time>
      </trkpt>
      <trkpt lat="45.68098" lon="6.74013">
        <ele>1477.2</ele>
        <time>2023-08-21T12:08:47Z</time>
      </trkpt>
      <trkpt lat="45.6809" lon="6.74022">
        <ele>1477.2</ele>
        <time>2023-08-21T12:08:48Z</time>
      </trkpt>
      <trkpt lat="45.68081" lon="6.7403">
        <ele>1476.2</ele>
        <time>2023-08-21T12:08:49Z</time>
      </trkpt>
      <trkpt lat="45.68072" lon="6.74039">
        <ele>1475.4</ele>
        <time>2023-08-21T12:08:50Z</time>
      </trkpt>
      <trkpt lat="45.68063" lon="6.74048">
        <ele>1475.4</ele>
        <time>2023-08-21T12:08:51Z</time>
      </trkpt>
      <trkpt lat="45.68054" lon="6.74056">
        <ele>1475.4</ele>
        <time>2023-08-21T12:08:52Z</time>
      </trkpt>
      <trkpt lat="45.68046" lon="6.74065">
        <ele>1475.4</ele>
        <time>2023-08-21T12:08:53Z</time>
      </trkpt>
      <trkpt lat="45.68036" lon="6.74075">
        <ele>1475.4</ele>
        <time>2023-08-21T12:08:54Z</time>
      </trkpt>
      <trkpt lat="45.68027" lon="6.74085">
        <ele>1472.2</ele>
        <time>2023-08-21T12:08:55Z</time>
      </trkpt>
      <trkpt lat="45.68018" lon="6.74096">
        <ele>1472.2</ele>
        <time>2023-08-21T12:08:56Z</time>
      </trkpt>
      <trkpt lat="45.68008" lon="6.74107">
        <ele>1472.2</ele>
        <time>2023-08-21T12:08:57Z</time>
      </trkpt>
      <trkpt lat="45.67999" lon="6.74118">
        <ele>1471.2</ele>
        <time>2023-08-21T12:08:58Z</time>
      </trkpt>
      <trkpt lat="45.6799" lon="6.74129">
        <ele>1469</ele>
        <time>2023-08-21T12:08:59Z</time>
      </trkpt>
      <trkpt lat="45.67981" lon="6.74141">
        <ele>1469</ele>
        <time>2023-08-21T12:09:00Z</time>
      </trkpt>
      <trkpt lat="45.67972" lon="6.74152">
        <ele>1469</ele>
        <time>2023-08-21T12:09:01Z</time>
      </trkpt>
      <trkpt lat="45.67962" lon="6.74164">
        <ele>1468</ele>
        <time>2023-08-21T12:09:02Z</time>
      </trkpt>
      <trkpt lat="45.67953" lon="6.74175">
        <ele>1468</ele>
        <time>2023-08-21T12:09:03Z</time>
      </trkpt>
      <trkpt lat="45.67944" lon="6.74187">
        <ele>1466.6</ele>
        <time>2023-08-21T12:09:04Z</time>
      </trkpt>
      <trkpt lat="45.67934" lon="6.74199">
        <ele>1466.6</ele>
        <time>2023-08-21T12:09:05Z</time>
      </trkpt>
      <trkpt lat="45.67925" lon="6.7421">
        <ele>1466.6</ele>
        <time>2023-08-21T12:09:06Z</time>
      </trkpt>
      <trkpt lat="45.67915" lon="6.74221">
        <ele>1466.6</ele>
        <time>2023-08-21T12:09:07Z</time>
      </trkpt>
      <trkpt lat="45.67905" lon="6.74232">
        <ele>1465.6</ele>
        <time>2023-08-21T12:09:08Z</time>
      </trkpt>
      <trkpt lat="45.67896" lon="6.74244">
        <ele>1463.6</ele>
        <time>2023-08-21T12:09:09Z</time>
      </trkpt>
      <trkpt lat="45.67885" lon="6.74255">
        <ele>1463.6</ele>
        <time>2023-08-21T12:09:10Z</time>
      </trkpt>
      <trkpt lat="45.67875" lon="6.74267">
        <ele>1463.6</ele>
        <time>2023-08-21T12:09:11Z</time>
      </trkpt>
      <trkpt lat="45.67865" lon="6.74279">
        <ele>1463.6</ele>
        <time>2023-08-21T12:09:12Z</time>
      </trkpt>
      <trkpt lat="45.67856" lon="6.74291">
        <ele>1459.8</ele>
        <time>2023-08-21T12:09:13Z</time>
      </trkpt>
      <trkpt lat="45.67847" lon="6.74305">
        <ele>1459.8</ele>
        <time>2023-08-21T12:09:14Z</time>
      </trkpt>
      <trkpt lat="45.67838" lon="6.74318">
        <ele>1459.8</ele>
        <time>2023-08-21T12:09:15Z</time>
      </trkpt>
      <trkpt lat="45.6783" lon="6.74332">
        <ele>1458.8</ele>
        <time>2023-08-21T12:09:16Z</time>
      </trkpt>
      <trkpt lat="45.67822" lon="6.74347">
        <ele>1456.4</ele>
        <time>2023-08-21T12:09:17Z</time>
      </trkpt>
      <trkpt lat="45.67815" lon="6.74363">
        <ele>1456.4</ele>
        <time>2023-08-21T12:09:18Z</time>
      </trkpt>
      <trkpt lat="45.67808" lon="6.74379">
        <ele>1456.4</ele>
        <time>2023-08-21T12:09:19Z</time>
      </trkpt>
      <trkpt lat="45.67802" lon="6.74395">
        <ele>1456.4</ele>
        <time>2023-08-21T12:09:20Z</time>
      </trkpt>
      <trkpt lat="45.67796" lon="6.74412">
        <ele>1455.4</ele>
        <time>2023-08-21T12:09:21Z</time>
      </trkpt>
      <trkpt lat="45.6779" lon="6.74428">
        <ele>1453</ele>
        <time>2023-08-21T12:09:22Z</time>
      </trkpt>
      <trkpt lat="45.67783" lon="6.74445">
        <ele>1453</ele>
        <time>2023-08-21T12:09:23Z</time>
      </trkpt>
      <trkpt lat="45.67777" lon="6.74462">
        <ele>1453</ele>
        <time>2023-08-21T12:09:24Z</time>
      </trkpt>
      <trkpt lat="45.67771" lon="6.74478">
        <ele>1452</ele>
        <time>2023-08-21T12:09:25Z</time>
      </trkpt>
      <trkpt lat="45.67765" lon="6.74494">
        <ele>1450.2</ele>
        <time>2023-08-21T12:09:26Z</time>
      </trkpt>
      <trkpt lat="45.67759" lon="6.7451">
        <ele>1450.2</ele>
        <time>2023-08-21T12:09:27Z</time>
      </trkpt>
      <trkpt lat="45.67754" lon="6.74526">
        <ele>1450.2</ele>
        <time>2023-08-21T12:09:28Z</time>
      </trkpt>
      <trkpt lat="45.67748" lon="6.74543">
        <ele>1449.2</ele>
        <time>2023-08-21T12:09:29Z</time>
      </trkpt>
      <trkpt lat="45.67742" lon="6.74559">
        <ele>1449.2</ele>
        <time>2023-08-21T12:09:30Z</time>
      </trkpt>
      <trkpt lat="45.67736" lon="6.74575">
        <ele>1447.2</ele>
        <time>2023-08-21T12:09:31Z</time>
      </trkpt>
      <trkpt lat="45.6773" lon="6.74591">
        <ele>1447.2</ele>
        <time>2023-08-21T12:09:32Z</time>
      </trkpt>
      <trkpt lat="45.67724" lon="6.74607">
        <ele>1447.2</ele>
        <time>2023-08-21T12:09:33Z</time>
      </trkpt>
      <trkpt lat="45.67716" lon="6.74621">
        <ele>1446.2</ele>
        <time>2023-08-21T12:09:34Z</time>
      </trkpt>
      <trkpt lat="45.67708" lon="6.74634">
        <ele>1444</ele>
        <time>2023-08-21T12:09:35Z</time>
      </trkpt>
      <trkpt lat="45.67698" lon="6.74646">
        <ele>1444</ele>
        <time>2023-08-21T12:09:36Z</time>
      </trkpt>
      <trkpt lat="45.67688" lon="6.74657">
        <ele>1444</ele>
        <time>2023-08-21T12:09:37Z</time>
      </trkpt>
      <trkpt lat="45.67678" lon="6.74667">
        <ele>1443</ele>
        <time>2023-08-21T12:09:38Z</time>
      </trkpt>
      <trkpt lat="45.67667" lon="6.74675">
        <ele>1443</ele>
        <time>2023-08-21T12:09:39Z</time>
      </trkpt>
      <trkpt lat="45.67657" lon="6.74683">
        <ele>1441</ele>
        <time>2023-08-21T12:09:40Z</time>
      </trkpt>
      <trkpt lat="45.67647" lon="6.7469">
        <ele>1441</ele>
        <time>2023-08-21T12:09:41Z</time>
      </trkpt>
      <trkpt lat="45.67637" lon="6.74697">
        <ele>1440</ele>
        <time>2023-08-21T12:09:42Z</time>
      </trkpt>
      <trkpt lat="45.67629" lon="6.74706">
        <ele>1440</ele>
        <time>2023-08-21T12:09:43Z</time>
      </trkpt>
      <trkpt lat="45.67622" lon="6.74717">
        <ele>1438.4</ele>
        <time>2023-08-21T12:09:44Z</time>
      </trkpt>
      <trkpt lat="45.67615" lon="6.74729">
        <ele>1438.4</ele>
        <time>2023-08-21T12:09:45Z</time>
      </trkpt>
      <trkpt lat="45.6761" lon="6.74742">
        <ele>1438.4</ele>
        <time>2023-08-21T12:09:46Z</time>
      </trkpt>
      <trkpt lat="45.67605" lon="6.74756">
        <ele>1438.4</ele>
        <time>2023-08-21T12:09:47Z</time>
      </trkpt>
      <trkpt lat="45.676" lon="6.74771">
        <ele>1438.4</ele>
        <time>2023-08-21T12:09:48Z</time>
      </trkpt>
      <trkpt lat="45.67594" lon="6.74785">
        <ele>1435.2</ele>
        <time>2023-08-21T12:09:49Z</time>
      </trkpt>
      <trkpt lat="45.67588" lon="6.74798">
        <ele>1435.2</ele>
        <time>2023-08-21T12:09:50Z</time>
      </trkpt>
      <trkpt lat="45.67582" lon="6.74812">
        <ele>1435.2</ele>
        <time>2023-08-21T12:09:51Z</time>
      </trkpt>
      <trkpt lat="45.67576" lon="6.74827">
        <ele>1435.2</ele>
        <time>2023-08-21T12:09:52Z</time>
      </trkpt>
      <trkpt lat="45.67571" lon="6.74842">
        <ele>1433.6</ele>
        <time>2023-08-21T12:09:53Z</time>
      </trkpt>
      <trkpt lat="45.67567" lon="6.74859">
        <ele>1433.6</ele>
        <time>2023-08-21T12:09:54Z</time>
      </trkpt>
      <trkpt lat="45.67566" lon="6.74876">
        <ele>1433.6</ele>
        <time>2023-08-21T12:09:55Z</time>
      </trkpt>
      <trkpt lat="45.67565" lon="6.74893">
        <ele>1433.6</ele>
        <time>2023-08-21T12:09:56Z</time>
      </trkpt>
      <trkpt lat="45.67564" lon="6.74909">
        <ele>1432.6</ele>
        <time>2023-08-21T12:09:57Z</time>
      </trkpt>
      <trkpt lat="45.67562" lon="6.74925">
        <ele>1430.4</ele>
        <time>2023-08-21T12:09:58Z</time>
      </trkpt>
      <trkpt lat="45.67559" lon="6.74941">
        <ele>1430.4</ele>
        <time>2023-08-21T12:09:59Z</time>
      </trkpt>
      <trkpt lat="45.67555" lon="6.74956">
        <ele>1430.4</ele>
        <time>2023-08-21T12:10:00Z</time>
      </trkpt>
      <trkpt lat="45.67551" lon="6.7497">
        <ele>1430.4</ele>
        <time>2023-08-21T12:10:01Z</time>
      </trkpt>
      <trkpt lat="45.67546" lon="6.74984">
        <ele>1430</ele>
        <time>2023-08-21T12:10:02Z</time>
      </trkpt>
      <trkpt lat="45.6754" lon="6.74997">
        <ele>1430</ele>
        <time>2023-08-21T12:10:03Z</time>
      </trkpt>
      <trkpt lat="45.67533" lon="6.75008">
        <ele>1430</ele>
        <time>2023-08-21T12:10:04Z</time>
      </trkpt>
      <trkpt lat="45.67526" lon="6.75019">
        <ele>1430</ele>
        <time>2023-08-21T12:10:05Z</time>
      </trkpt>
      <trkpt lat="45.67519" lon="6.75029">
        <ele>1430</ele>
        <time>2023-08-21T12:10:06Z</time>
      </trkpt>
      <trkpt lat="45.67511" lon="6.75038">
        <ele>1428.6</ele>
        <time>2023-08-21T12:10:07Z</time>
      </trkpt>
      <trkpt lat="45.67503" lon="6.75045">
        <ele>1428.6</ele>
        <time>2023-08-21T12:10:08Z</time>
      </trkpt>
      <trkpt lat="45.67495" lon="6.75053">
        <ele>1428.6</ele>
        <time>2023-08-21T12:10:09Z</time>
      </trkpt>
      <trkpt lat="45.67487" lon="6.7506">
        <ele>1428.6</ele>
        <time>2023-08-21T12:10:10Z</time>
      </trkpt>
      <trkpt lat="45.6748" lon="6.75068">
        <ele>1428</ele>
        <time>2023-08-21T12:10:11Z</time>
      </trkpt>
      <trkpt lat="45.67474" lon="6.75076">
        <ele>1428</ele>
        <time>2023-08-21T12:10:12Z</time>
      </trkpt>
      <trkpt lat="45.67468" lon="6.75084">
        <ele>1428</ele>
        <time>2023-08-21T12:10:13Z</time>
      </trkpt>
      <trkpt lat="45.67462" lon="6.75093">
        <ele>1428</ele>
        <time>2023-08-21T12:10:14Z</time>
      </trkpt>
      <trkpt lat="45.67456" lon="6.75101">
        <ele>1428</ele>
        <time>2023-08-21T12:10:15Z</time>
      </trkpt>
      <trkpt lat="45.6745" lon="6.7511">
        <ele>1428</ele>
        <time>2023-08-21T12:10:16Z</time>
      </trkpt>
      <trkpt lat="45.67444" lon="6.75118">
        <ele>1427.6</ele>
        <time>2023-08-21T12:10:17Z</time>
      </trkpt>
      <trkpt lat="45.67438" lon="6.75127">
        <ele>1427.6</ele>
        <time>2023-08-21T12:10:18Z</time>
      </trkpt>
      <trkpt lat="45.67433" lon="6.75135">
        <ele>1427.6</ele>
        <time>2023-08-21T12:10:19Z</time>
      </trkpt>
      <trkpt lat="45.67427" lon="6.75144">
        <ele>1427.6</ele>
        <time>2023-08-21T12:10:20Z</time>
      </trkpt>
      <trkpt lat="45.67423" lon="6.75153">
        <ele>1427.6</ele>
        <time>2023-08-21T12:10:21Z</time>
      </trkpt>
      <trkpt lat="45.67419" lon="6.75163">
        <ele>1427.6</ele>
        <time>2023-08-21T12:10:22Z</time>
      </trkpt>
      <trkpt lat="45.67416" lon="6.75174">
        <ele>1427.6</ele>
        <time>2023-08-21T12:10:23Z</time>
      </trkpt>
      <trkpt lat="45.67414" lon="6.75185">
        <ele>1427.2</ele>
        <time>2023-08-21T12:10:24Z</time>
      </trkpt>
      <trkpt lat="45.67412" lon="6.75197">
        <ele>1427.2</ele>
        <time>2023-08-21T12:10:25Z</time>
      </trkpt>
      <trkpt lat="45.67412" lon="6.75208">
        <ele>1427.2</ele>
        <time>2023-08-21T12:10:26Z</time>
      </trkpt>
      <trkpt lat="45.67411" lon="6.75219">
        <ele>1427.2</ele>
        <time>2023-08-21T12:10:27Z</time>
      </trkpt>
      <trkpt lat="45.67411" lon="6.7523">
        <ele>1427</ele>
        <time>2023-08-21T12:10:28Z</time>
      </trkpt>
      <trkpt lat="45.67411" lon="6.75241">
        <ele>1427.2</ele>
        <time>2023-08-21T12:10:29Z</time>
      </trkpt>
      <trkpt lat="45.6741" lon="6.75253">
        <ele>1427.2</ele>
        <time>2023-08-21T12:10:30Z</time>
      </trkpt>
      <trkpt lat="45.6741" lon="6.75264">
        <ele>1427.2</ele>
        <time>2023-08-21T12:10:31Z</time>
      </trkpt>
      <trkpt lat="45.67411" lon="6.75275">
        <ele>1427.2</ele>
        <time>2023-08-21T12:10:32Z</time>
      </trkpt>
      <trkpt lat="45.67412" lon="6.75285">
        <ele>1426.8</ele>
        <time>2023-08-21T12:10:33Z</time>
      </trkpt>
      <trkpt lat="45.67414" lon="6.75295">
        <ele>1426.8</ele>
        <time>2023-08-21T12:10:34Z</time>
      </trkpt>
      <trkpt lat="45.67415" lon="6.75306">
        <ele>1426.8</ele>
        <time>2023-08-21T12:10:35Z</time>
      </trkpt>
      <trkpt lat="45.67417" lon="6.75316">
        <ele>1426.8</ele>
        <time>2023-08-21T12:10:36Z</time>
      </trkpt>
      <trkpt lat="45.67418" lon="6.75327">
        <ele>1426.8</ele>
        <time>2023-08-21T12:10:37Z</time>
      </trkpt>
      <trkpt lat="45.67418" lon="6.75337">
        <ele>1426.8</ele>
        <time>2023-08-21T12:10:38Z</time>
      </trkpt>
      <trkpt lat="45.67418" lon="6.75347">
        <ele>1426.8</ele>
        <time>2023-08-21T12:10:39Z</time>
      </trkpt>
      <trkpt lat="45.67418" lon="6.75357">
        <ele>1426.6</ele>
        <time>2023-08-21T12:10:40Z</time>
      </trkpt>
      <trkpt lat="45.67416" lon="6.75367">
        <ele>1426.6</ele>
        <time>2023-08-21T12:10:41Z</time>
      </trkpt>
      <trkpt lat="45.67415" lon="6.75377">
        <ele>1426.6</ele>
        <time>2023-08-21T12:10:42Z</time>
      </trkpt>
      <trkpt lat="45.67412" lon="6.75387">
        <ele>1426.6</ele>
        <time>2023-08-21T12:10:43Z</time>
      </trkpt>
      <trkpt lat="45.67409" lon="6.75396">
        <ele>1426.6</ele>
        <time>2023-08-21T12:10:44Z</time>
      </trkpt>
      <trkpt lat="45.67406" lon="6.75405">
        <ele>1426.6</ele>
        <time>2023-08-21T12:10:45Z</time>
      </trkpt>
      <trkpt lat="45.67403" lon="6.75414">
        <ele>1426.2</ele>
        <time>2023-08-21T12:10:46Z</time>
      </trkpt>
      <trkpt lat="45.674" lon="6.75424">
        <ele>1426.6</ele>
        <time>2023-08-21T12:10:47Z</time>
      </trkpt>
      <trkpt lat="45.67397" lon="6.75433">
        <ele>1426.6</ele>
        <time>2023-08-21T12:10:48Z</time>
      </trkpt>
      <trkpt lat="45.67393" lon="6.75441">
        <ele>1426.6</ele>
        <time>2023-08-21T12:10:49Z</time>
      </trkpt>
      <trkpt lat="45.67389" lon="6.75449">
        <ele>1426.6</ele>
        <time>2023-08-21T12:10:50Z</time>
      </trkpt>
      <trkpt lat="45.67385" lon="6.75457">
        <ele>1427.2</ele>
        <time>2023-08-21T12:10:51Z</time>
      </trkpt>
      <trkpt lat="45.67381" lon="6.75464">
        <ele>1426.6</ele>
        <time>2023-08-21T12:10:52Z</time>
      </trkpt>
      <trkpt lat="45.67376" lon="6.75471">
        <ele>1426.6</ele>
        <time>2023-08-21T12:10:53Z</time>
      </trkpt>
      <trkpt lat="45.67371" lon="6.75477">
        <ele>1426.6</ele>
        <time>2023-08-21T12:10:54Z</time>
      </trkpt>
      <trkpt lat="45.67365" lon="6.75483">
        <ele>1426.6</ele>
        <time>2023-08-21T12:10:55Z</time>
      </trkpt>
      <trkpt lat="45.6736" lon="6.7549">
        <ele>1426.8</ele>
        <time>2023-08-21T12:10:56Z</time>
      </trkpt>
      <trkpt lat="45.67354" lon="6.75496">
        <ele>1426.8</ele>
        <time>2023-08-21T12:10:57Z</time>
      </trkpt>
      <trkpt lat="45.67349" lon="6.75502">
        <ele>1426.8</ele>
        <time>2023-08-21T12:10:58Z</time>
      </trkpt>
      <trkpt lat="45.67344" lon="6.75508">
        <ele>1426.8</ele>
        <time>2023-08-21T12:10:59Z</time>
      </trkpt>
      <trkpt lat="45.67339" lon="6.75514">
        <ele>1426.6</ele>
        <time>2023-08-21T12:11:00Z</time>
      </trkpt>
      <trkpt lat="45.67334" lon="6.75521">
        <ele>1426.6</ele>
        <time>2023-08-21T12:11:01Z</time>
      </trkpt>
      <trkpt lat="45.6733" lon="6.75529">
        <ele>1426.6</ele>
        <time>2023-08-21T12:11:02Z</time>
      </trkpt>
      <trkpt lat="45.67327" lon="6.75537">
        <ele>1426.6</ele>
        <time>2023-08-21T12:11:03Z</time>
      </trkpt>
      <trkpt lat="45.67323" lon="6.75545">
        <ele>1426.6</ele>
        <time>2023-08-21T12:11:04Z</time>
      </trkpt>
      <trkpt lat="45.6732" lon="6.75553">
        <ele>1426.6</ele>
        <time>2023-08-21T12:11:05Z</time>
      </trkpt>
      <trkpt lat="45.67317" lon="6.75562">
        <ele>1426.6</ele>
        <time>2023-08-21T12:11:06Z</time>
      </trkpt>
      <trkpt lat="45.67315" lon="6.75571">
        <ele>1426.6</ele>
        <time>2023-08-21T12:11:07Z</time>
      </trkpt>
      <trkpt lat="45.67313" lon="6.75581">
        <ele>1426.6</ele>
        <time>2023-08-21T12:11:08Z</time>
      </trkpt>
      <trkpt lat="45.67311" lon="6.75591">
        <ele>1426</ele>
        <time>2023-08-21T12:11:09Z</time>
      </trkpt>
      <trkpt lat="45.67309" lon="6.756">
        <ele>1426</ele>
        <time>2023-08-21T12:11:10Z</time>
      </trkpt>
      <trkpt lat="45.67306" lon="6.75609">
        <ele>1426</ele>
        <time>2023-08-21T12:11:11Z</time>
      </trkpt>
      <trkpt lat="45.67303" lon="6.75618">
        <ele>1426</ele>
        <time>2023-08-21T12:11:12Z</time>
      </trkpt>
      <trkpt lat="45.673" lon="6.75627">
        <ele>1426</ele>
        <time>2023-08-21T12:11:13Z</time>
      </trkpt>
      <trkpt lat="45.67296" lon="6.75635">
        <ele>1426</ele>
        <time>2023-08-21T12:11:14Z</time>
      </trkpt>
      <trkpt lat="45.67291" lon="6.75643">
        <ele>1425.8</ele>
        <time>2023-08-21T12:11:15Z</time>
      </trkpt>
      <trkpt lat="45.67286" lon="6.75649">
        <ele>1425.8</ele>
        <time>2023-08-21T12:11:16Z</time>
      </trkpt>
      <trkpt lat="45.6728" lon="6.75655">
        <ele>1425.8</ele>
        <time>2023-08-21T12:11:17Z</time>
      </trkpt>
      <trkpt lat="45.67275" lon="6.75662">
        <ele>1425.8</ele>
        <time>2023-08-21T12:11:18Z</time>
      </trkpt>
      <trkpt lat="45.67269" lon="6.75668">
        <ele>1426</ele>
        <time>2023-08-21T12:11:19Z</time>
      </trkpt>
      <trkpt lat="45.67264" lon="6.75676">
        <ele>1426</ele>
        <time>2023-08-21T12:11:20Z</time>
      </trkpt>
      <trkpt lat="45.67259" lon="6.75683">
        <ele>1426</ele>
        <time>2023-08-21T12:11:21Z</time>
      </trkpt>
      <trkpt lat="45.67254" lon="6.7569">
        <ele>1426</ele>
        <time>2023-08-21T12:11:22Z</time>
      </trkpt>
      <trkpt lat="45.67249" lon="6.75698">
        <ele>1426.4</ele>
        <time>2023-08-21T12:11:23Z</time>
      </trkpt>
      <trkpt lat="45.67245" lon="6.75705">
        <ele>1426</ele>
        <time>2023-08-21T12:11:24Z</time>
      </trkpt>
      <trkpt lat="45.6724" lon="6.75713">
        <ele>1426</ele>
        <time>2023-08-21T12:11:25Z</time>
      </trkpt>
      <trkpt lat="45.67234" lon="6.75719">
        <ele>1426</ele>
        <time>2023-08-21T12:11:26Z</time>
      </trkpt>
      <trkpt lat="45.67228" lon="6.75724">
        <ele>1425.8</ele>
        <time>2023-08-21T12:11:27Z</time>
      </trkpt>
      <trkpt lat="45.67222" lon="6.75728">
        <ele>1425.8</ele>
        <time>2023-08-21T12:11:28Z</time>
      </trkpt>
      <trkpt lat="45.67215" lon="6.75732">
        <ele>1426.6</ele>
        <time>2023-08-21T12:11:29Z</time>
      </trkpt>
      <trkpt lat="45.67208" lon="6.75734">
        <ele>1426.6</ele>
        <time>2023-08-21T12:11:30Z</time>
      </trkpt>
      <trkpt lat="45.67202" lon="6.75738">
        <ele>1426.4</ele>
        <time>2023-08-21T12:11:31Z</time>
      </trkpt>
      <trkpt lat="45.67196" lon="6.75741">
        <ele>1426.4</ele>
        <time>2023-08-21T12:11:32Z</time>
      </trkpt>
      <trkpt lat="45.67189" lon="6.75745">
        <ele>1426.6</ele>
        <time>2023-08-21T12:11:33Z</time>
      </trkpt>
      <trkpt lat="45.67183" lon="6.75749">
        <ele>1426.6</ele>
        <time>2023-08-21T12:11:34Z</time>
      </trkpt>
      <trkpt lat="45.67176" lon="6.75751">
        <ele>1426.6</ele>
        <time>2023-08-21T12:11:35Z</time>
      </trkpt>
      <trkpt lat="45.67169" lon="6.75753">
        <ele>1426.6</ele>
        <time>2023-08-21T12:11:36Z</time>
      </trkpt>
      <trkpt lat="45.67162" lon="6.75752">
        <ele>1426.2</ele>
        <time>2023-08-21T12:11:37Z</time>
      </trkpt>
      <trkpt lat="45.67155" lon="6.7575">
        <ele>1426.2</ele>
        <time>2023-08-21T12:11:38Z</time>
      </trkpt>
      <trkpt lat="45.67149" lon="6.75748">
        <ele>1426.2</ele>
        <time>2023-08-21T12:11:39Z</time>
      </trkpt>
      <trkpt lat="45.67142" lon="6.75746">
        <ele>1426.6</ele>
        <time>2023-08-21T12:11:40Z</time>
      </trkpt>
      <trkpt lat="45.67136" lon="6.75744">
        <ele>1426.6</ele>
        <time>2023-08-21T12:11:41Z</time>
      </trkpt>
      <trkpt lat="45.67129" lon="6.75746">
        <ele>1427.2</ele>
        <time>2023-08-21T12:11:42Z</time>
      </trkpt>
      <trkpt lat="45.67123" lon="6.75749">
        <ele>1427.2</ele>
        <time>2023-08-21T12:11:43Z</time>
      </trkpt>
      <trkpt lat="45.67118" lon="6.75754">
        <ele>1427.2</ele>
        <time>2023-08-21T12:11:44Z</time>
      </trkpt>
      <trkpt lat="45.67113" lon="6.7576">
        <ele>1427</ele>
        <time>2023-08-21T12:11:45Z</time>
      </trkpt>
      <trkpt lat="45.67108" lon="6.75766">
        <ele>1427</ele>
        <time>2023-08-21T12:11:46Z</time>
      </trkpt>
      <trkpt lat="45.67104" lon="6.75773">
        <ele>1427</ele>
        <time>2023-08-21T12:11:47Z</time>
      </trkpt>
      <trkpt lat="45.671" lon="6.7578">
        <ele>1427</ele>
        <time>2023-08-21T12:11:48Z</time>
      </trkpt>
      <trkpt lat="45.67096" lon="6.75788">
        <ele>1427</ele>
        <time>2023-08-21T12:11:49Z</time>
      </trkpt>
      <trkpt lat="45.67092" lon="6.75795">
        <ele>1426.6</ele>
        <time>2023-08-21T12:11:50Z</time>
      </trkpt>
      <trkpt lat="45.67089" lon="6.75804">
        <ele>1426.6</ele>
        <time>2023-08-21T12:11:51Z</time>
      </trkpt>
      <trkpt lat="45.67086" lon="6.75812">
        <ele>1426.6</ele>
        <time>2023-08-21T12:11:52Z</time>
      </trkpt>
      <trkpt lat="45.67083" lon="6.75821">
        <ele>1426.4</ele>
        <time>2023-08-21T12:11:53Z</time>
      </trkpt>
      <trkpt lat="45.67079" lon="6.75829">
        <ele>1426.6</ele>
        <time>2023-08-21T12:11:54Z</time>
      </trkpt>
      <trkpt lat="45.67074" lon="6.75837">
        <ele>1426.6</ele>
        <time>2023-08-21T12:11:55Z</time>
      </trkpt>
      <trkpt lat="45.67071" lon="6.75845">
        <ele>1426.6</ele>
        <time>2023-08-21T12:11:56Z</time>
      </trkpt>
      <trkpt lat="45.67067" lon="6.75853">
        <ele>1426.6</ele>
        <time>2023-08-21T12:11:57Z</time>
      </trkpt>
      <trkpt lat="45.67063" lon="6.75861">
        <ele>1426.6</ele>
        <time>2023-08-21T12:11:58Z</time>
      </trkpt>
      <trkpt lat="45.67058" lon="6.75869">
        <ele>1426.6</ele>
        <time>2023-08-21T12:11:59Z</time>
      </trkpt>
      <trkpt lat="45.67054" lon="6.75877">
        <ele>1426.6</ele>
        <time>2023-08-21T12:12:00Z</time>
      </trkpt>
      <trkpt lat="45.6705" lon="6.75885">
        <ele>1426.4</ele>
        <time>2023-08-21T12:12:01Z</time>
      </trkpt>
      <trkpt lat="45.67047" lon="6.75895">
        <ele>1426.4</ele>
        <time>2023-08-21T12:12:02Z</time>
      </trkpt>
      <trkpt lat="45.67047" lon="6.75906">
        <ele>1426.4</ele>
        <time>2023-08-21T12:12:03Z</time>
      </trkpt>
      <trkpt lat="45.67051" lon="6.75916">
        <ele>1425.8</ele>
        <time>2023-08-21T12:12:04Z</time>
      </trkpt>
      <trkpt lat="45.67056" lon="6.75925">
        <ele>1425.8</ele>
        <time>2023-08-21T12:12:05Z</time>
      </trkpt>
      <trkpt lat="45.67062" lon="6.75933">
        <ele>1425.8</ele>
        <time>2023-08-21T12:12:06Z</time>
      </trkpt>
      <trkpt lat="45.67069" lon="6.75942">
        <ele>1425.8</ele>
        <time>2023-08-21T12:12:07Z</time>
      </trkpt>
      <trkpt lat="45.67077" lon="6.7595">
        <ele>1424.8</ele>
        <time>2023-08-21T12:12:08Z</time>
      </trkpt>
      <trkpt lat="45.67086" lon="6.75958">
        <ele>1423.6</ele>
        <time>2023-08-21T12:12:09Z</time>
      </trkpt>
      <trkpt lat="45.67094" lon="6.75968">
        <ele>1423.6</ele>
        <time>2023-08-21T12:12:10Z</time>
      </trkpt>
      <trkpt lat="45.67101" lon="6.7598">
        <ele>1423.6</ele>
        <time>2023-08-21T12:12:11Z</time>
      </trkpt>
      <trkpt lat="45.67106" lon="6.75994">
        <ele>1423.6</ele>
        <time>2023-08-21T12:12:12Z</time>
      </trkpt>
      <trkpt lat="45.67109" lon="6.7601">
        <ele>1419.2</ele>
        <time>2023-08-21T12:12:13Z</time>
      </trkpt>
      <trkpt lat="45.67109" lon="6.76025">
        <ele>1419.2</ele>
        <time>2023-08-21T12:12:14Z</time>
      </trkpt>
      <trkpt lat="45.67111" lon="6.7604">
        <ele>1419.2</ele>
        <time>2023-08-21T12:12:15Z</time>
      </trkpt>
      <trkpt lat="45.67114" lon="6.76054">
        <ele>1419.2</ele>
        <time>2023-08-21T12:12:16Z</time>
      </trkpt>
      <trkpt lat="45.6712" lon="6.76067">
        <ele>1414.8</ele>
        <time>2023-08-21T12:12:17Z</time>
      </trkpt>
      <trkpt lat="45.67124" lon="6.76082">
        <ele>1414.8</ele>
        <time>2023-08-21T12:12:18Z</time>
      </trkpt>
      <trkpt lat="45.67126" lon="6.76097">
        <ele>1414.8</ele>
        <time>2023-08-21T12:12:19Z</time>
      </trkpt>
      <trkpt lat="45.67126" lon="6.76114">
        <ele>1414.8</ele>
        <time>2023-08-21T12:12:20Z</time>
      </trkpt>
      <trkpt lat="45.67126" lon="6.76132">
        <ele>1413.8</ele>
        <time>2023-08-21T12:12:21Z</time>
      </trkpt>
      <trkpt lat="45.67127" lon="6.76149">
        <ele>1410.2</ele>
        <time>2023-08-21T12:12:22Z</time>
      </trkpt>
      <trkpt lat="45.67128" lon="6.76166">
        <ele>1410.2</ele>
        <time>2023-08-21T12:12:23Z</time>
      </trkpt>
      <trkpt lat="45.67129" lon="6.76184">
        <ele>1410.2</ele>
        <time>2023-08-21T12:12:24Z</time>
      </trkpt>
      <trkpt lat="45.67129" lon="6.76203">
        <ele>1409.2</ele>
        <time>2023-08-21T12:12:25Z</time>
      </trkpt>
      <trkpt lat="45.67129" lon="6.76222">
        <ele>1409.2</ele>
        <time>2023-08-21T12:12:26Z</time>
      </trkpt>
      <trkpt lat="45.67128" lon="6.7624">
        <ele>1405.4</ele>
        <time>2023-08-21T12:12:27Z</time>
      </trkpt>
      <trkpt lat="45.67127" lon="6.76259">
        <ele>1405.4</ele>
        <time>2023-08-21T12:12:28Z</time>
      </trkpt>
      <trkpt lat="45.67125" lon="6.76278">
        <ele>1405.4</ele>
        <time>2023-08-21T12:12:29Z</time>
      </trkpt>
      <trkpt lat="45.67122" lon="6.76297">
        <ele>1404.4</ele>
        <time>2023-08-21T12:12:30Z</time>
      </trkpt>
      <trkpt lat="45.67117" lon="6.76315">
        <ele>1400.8</ele>
        <time>2023-08-21T12:12:31Z</time>
      </trkpt>
      <trkpt lat="45.67113" lon="6.76331">
        <ele>1400.8</ele>
        <time>2023-08-21T12:12:32Z</time>
      </trkpt>
      <trkpt lat="45.6711" lon="6.76346">
        <ele>1400.8</ele>
        <time>2023-08-21T12:12:33Z</time>
      </trkpt>
      <trkpt lat="45.67109" lon="6.76361">
        <ele>1399.8</ele>
        <time>2023-08-21T12:12:34Z</time>
      </trkpt>
      <trkpt lat="45.67111" lon="6.76376">
        <ele>1395.4</ele>
        <time>2023-08-21T12:12:35Z</time>
      </trkpt>
      <trkpt lat="45.67114" lon="6.76392">
        <ele>1395.4</ele>
        <time>2023-08-21T12:12:36Z</time>
      </trkpt>
      <trkpt lat="45.67116" lon="6.76408">
        <ele>1395.4</ele>
        <time>2023-08-21T12:12:37Z</time>
      </trkpt>
      <trkpt lat="45.67117" lon="6.76424">
        <ele>1395.4</ele>
        <time>2023-08-21T12:12:38Z</time>
      </trkpt>
      <trkpt lat="45.67119" lon="6.76439">
        <ele>1394.4</ele>
        <time>2023-08-21T12:12:39Z</time>
      </trkpt>
      <trkpt lat="45.67123" lon="6.76454">
        <ele>1390.6</ele>
        <time>2023-08-21T12:12:40Z</time>
      </trkpt>
      <trkpt lat="45.67126" lon="6.76469">
        <ele>1390.6</ele>
        <time>2023-08-21T12:12:41Z</time>
      </trkpt>
      <trkpt lat="45.67125" lon="6.76484">
        <ele>1390.6</ele>
        <time>2023-08-21T12:12:42Z</time>
      </trkpt>
      <trkpt lat="45.6712" lon="6.76498">
        <ele>1390.6</ele>
        <time>2023-08-21T12:12:43Z</time>
      </trkpt>
      <trkpt lat="45.67116" lon="6.76512">
        <ele>1389.6</ele>
        <time>2023-08-21T12:12:44Z</time>
      </trkpt>
      <trkpt lat="45.67113" lon="6.76527">
        <ele>1385.8</ele>
        <time>2023-08-21T12:12:45Z</time>
      </trkpt>
      <trkpt lat="45.67112" lon="6.76543">
        <ele>1385.8</ele>
        <time>2023-08-21T12:12:46Z</time>
      </trkpt>
      <trkpt lat="45.67112" lon="6.76561">
        <ele>1385.8</ele>
        <time>2023-08-21T12:12:47Z</time>
      </trkpt>
      <trkpt lat="45.67112" lon="6.76578">
        <ele>1385.8</ele>
        <time>2023-08-21T12:12:48Z</time>
      </trkpt>
      <trkpt lat="45.67112" lon="6.76596">
        <ele>1382.6</ele>
        <time>2023-08-21T12:12:49Z</time>
      </trkpt>
      <trkpt lat="45.67112" lon="6.76614">
        <ele>1382.6</ele>
        <time>2023-08-21T12:12:50Z</time>
      </trkpt>
      <trkpt lat="45.67112" lon="6.76632">
        <ele>1382.6</ele>
        <time>2023-08-21T12:12:51Z</time>
      </trkpt>
      <trkpt lat="45.6711" lon="6.76651">
        <ele>1382.6</ele>
        <time>2023-08-21T12:12:52Z</time>
      </trkpt>
      <trkpt lat="45.67107" lon="6.76669">
        <ele>1378</ele>
        <time>2023-08-21T12:12:53Z</time>
      </trkpt>
      <trkpt lat="45.67105" lon="6.76686">
        <ele>1378</ele>
        <time>2023-08-21T12:12:54Z</time>
      </trkpt>
      <trkpt lat="45.67104" lon="6.76703">
        <ele>1378</ele>
        <time>2023-08-21T12:12:55Z</time>
      </trkpt>
      <trkpt lat="45.67105" lon="6.76721">
        <ele>1378</ele>
        <time>2023-08-21T12:12:56Z</time>
      </trkpt>
      <trkpt lat="45.67107" lon="6.76739">
        <ele>1377</ele>
        <time>2023-08-21T12:12:57Z</time>
      </trkpt>
      <trkpt lat="45.6711" lon="6.76756">
        <ele>1377</ele>
        <time>2023-08-21T12:12:58Z</time>
      </trkpt>
      <trkpt lat="45.6711" lon="6.76772">
        <ele>1372.6</ele>
        <time>2023-08-21T12:12:59Z</time>
      </trkpt>
      <trkpt lat="45.67108" lon="6.76787">
        <ele>1372.6</ele>
        <time>2023-08-21T12:13:00Z</time>
      </trkpt>
      <trkpt lat="45.67105" lon="6.76803">
        <ele>1371.6</ele>
        <time>2023-08-21T12:13:01Z</time>
      </trkpt>
      <trkpt lat="45.67102" lon="6.76818">
        <ele>1368.6</ele>
        <time>2023-08-21T12:13:02Z</time>
      </trkpt>
      <trkpt lat="45.671" lon="6.76835">
        <ele>1368.6</ele>
        <time>2023-08-21T12:13:03Z</time>
      </trkpt>
      <trkpt lat="45.67099" lon="6.76852">
        <ele>1368.6</ele>
        <time>2023-08-21T12:13:04Z</time>
      </trkpt>
      <trkpt lat="45.67096" lon="6.7687">
        <ele>1367.6</ele>
        <time>2023-08-21T12:13:05Z</time>
      </trkpt>
      <trkpt lat="45.67093" lon="6.76888">
        <ele>1367.6</ele>
        <time>2023-08-21T12:13:06Z</time>
      </trkpt>
      <trkpt lat="45.67087" lon="6.76905">
        <ele>1362.8</ele>
        <time>2023-08-21T12:13:07Z</time>
      </trkpt>
      <trkpt lat="45.67081" lon="6.76921">
        <ele>1362.8</ele>
        <time>2023-08-21T12:13:08Z</time>
      </trkpt>
      <trkpt lat="45.67073" lon="6.76936">
        <ele>1362.8</ele>
        <time>2023-08-21T12:13:09Z</time>
      </trkpt>
      <trkpt lat="45.67064" lon="6.76952">
        <ele>1361.8</ele>
        <time>2023-08-21T12:13:10Z</time>
      </trkpt>
      <trkpt lat="45.67056" lon="6.76967">
        <ele>1357.4</ele>
        <time>2023-08-21T12:13:11Z</time>
      </trkpt>
      <trkpt lat="45.67047" lon="6.76981">
        <ele>1357.4</ele>
        <time>2023-08-21T12:13:12Z</time>
      </trkpt>
      <trkpt lat="45.67039" lon="6.76994">
        <ele>1357.4</ele>
        <time>2023-08-21T12:13:13Z</time>
      </trkpt>
      <trkpt lat="45.67032" lon="6.77007">
        <ele>1356.4</ele>
        <time>2023-08-21T12:13:14Z</time>
      </trkpt>
      <trkpt lat="45.67026" lon="6.7702">
        <ele>1352.8</ele>
        <time>2023-08-21T12:13:15Z</time>
      </trkpt>
      <trkpt lat="45.67023" lon="6.77034">
        <ele>1352.8</ele>
        <time>2023-08-21T12:13:16Z</time>
      </trkpt>
      <trkpt lat="45.67024" lon="6.77048">
        <ele>1352.8</ele>
        <time>2023-08-21T12:13:17Z</time>
      </trkpt>
      <trkpt lat="45.67029" lon="6.7706">
        <ele>1351.8</ele>
        <time>2023-08-21T12:13:18Z</time>
      </trkpt>
      <trkpt lat="45.67035" lon="6.77069">
        <ele>1351.8</ele>
        <time>2023-08-21T12:13:19Z</time>
      </trkpt>
      <trkpt lat="45.67039" lon="6.77079">
        <ele>1351.8</ele>
        <time>2023-08-21T12:13:20Z</time>
      </trkpt>
      <trkpt lat="45.67039" lon="6.77091">
        <ele>1350</ele>
        <time>2023-08-21T12:13:21Z</time>
      </trkpt>
      <trkpt lat="45.67035" lon="6.77102">
        <ele>1350</ele>
        <time>2023-08-21T12:13:22Z</time>
      </trkpt>
      <trkpt lat="45.6703" lon="6.7711">
        <ele>1350</ele>
        <time>2023-08-21T12:13:23Z</time>
      </trkpt>
      <trkpt lat="45.67026" lon="6.77121">
        <ele>1349</ele>
        <time>2023-08-21T12:13:24Z</time>
      </trkpt>
      <trkpt lat="45.67023" lon="6.77133">
        <ele>1347</ele>
        <time>2023-08-21T12:13:25Z</time>
      </trkpt>
      <trkpt lat="45.6702" lon="6.77147">
        <ele>1347</ele>
        <time>2023-08-21T12:13:26Z</time>
      </trkpt>
      <trkpt lat="45.67016" lon="6.77161">
        <ele>1347</ele>
        <time>2023-08-21T12:13:27Z</time>
      </trkpt>
      <trkpt lat="45.67014" lon="6.77177">
        <ele>1346</ele>
        <time>2023-08-21T12:13:28Z</time>
      </trkpt>
      <trkpt lat="45.67012" lon="6.77194">
        <ele>1342.2</ele>
        <time>2023-08-21T12:13:29Z</time>
      </trkpt>
      <trkpt lat="45.67012" lon="6.77211">
        <ele>1342.2</ele>
        <time>2023-08-21T12:13:30Z</time>
      </trkpt>
      <trkpt lat="45.67013" lon="6.77237">
        <ele>1342.2</ele>
        <time>2023-08-21T12:13:31Z</time>
      </trkpt>
      <trkpt lat="45.67014" lon="6.77247">
        <ele>1342.2</ele>
        <time>2023-08-21T12:13:32Z</time>
      </trkpt>
      <trkpt lat="45.67015" lon="6.77265">
        <ele>1341.2</ele>
        <time>2023-08-21T12:13:33Z</time>
      </trkpt>
      <trkpt lat="45.67015" lon="6.77282">
        <ele>1337</ele>
        <time>2023-08-21T12:13:34Z</time>
      </trkpt>
      <trkpt lat="45.67013" lon="6.773">
        <ele>1337</ele>
        <time>2023-08-21T12:13:35Z</time>
      </trkpt>
      <trkpt lat="45.67012" lon="6.77317">
        <ele>1337</ele>
        <time>2023-08-21T12:13:36Z</time>
      </trkpt>
      <trkpt lat="45.6701" lon="6.77334">
        <ele>1336</ele>
        <time>2023-08-21T12:13:37Z</time>
      </trkpt>
      <trkpt lat="45.67008" lon="6.77349">
        <ele>1331.2</ele>
        <time>2023-08-21T12:13:38Z</time>
      </trkpt>
      <trkpt lat="45.67004" lon="6.77363">
        <ele>1331.2</ele>
        <time>2023-08-21T12:13:39Z</time>
      </trkpt>
      <trkpt lat="45.67" lon="6.77374">
        <ele>1331.2</ele>
        <time>2023-08-21T12:13:40Z</time>
      </trkpt>
      <trkpt lat="45.66996" lon="6.77385">
        <ele>1331.2</ele>
        <time>2023-08-21T12:13:41Z</time>
      </trkpt>
      <trkpt lat="45.66992" lon="6.77395">
        <ele>1330.2</ele>
        <time>2023-08-21T12:13:42Z</time>
      </trkpt>
      <trkpt lat="45.6699" lon="6.77403">
        <ele>1326.4</ele>
        <time>2023-08-21T12:13:43Z</time>
      </trkpt>
      <trkpt lat="45.66987" lon="6.7741">
        <ele>1326.4</ele>
        <time>2023-08-21T12:13:44Z</time>
      </trkpt>
      <trkpt lat="45.66986" lon="6.77416">
        <ele>1326.4</ele>
        <time>2023-08-21T12:13:45Z</time>
      </trkpt>
      <trkpt lat="45.66985" lon="6.77421">
        <ele>1325.4</ele>
        <time>2023-08-21T12:13:46Z</time>
      </trkpt>
      <trkpt lat="45.66985" lon="6.77426">
        <ele>1323.8</ele>
        <time>2023-08-21T12:13:47Z</time>
      </trkpt>
      <trkpt lat="45.66986" lon="6.7743">
        <ele>1323.8</ele>
        <time>2023-08-21T12:13:48Z</time>
      </trkpt>
      <trkpt lat="45.66986" lon="6.77435">
        <ele>1323.8</ele>
        <time>2023-08-21T12:13:49Z</time>
      </trkpt>
      <trkpt lat="45.66983" lon="6.77438">
        <ele>1322.8</ele>
        <time>2023-08-21T12:13:50Z</time>
      </trkpt>
      <trkpt lat="45.66979" lon="6.77439">
        <ele>1322.8</ele>
        <time>2023-08-21T12:13:51Z</time>
      </trkpt>
      <trkpt lat="45.66976" lon="6.77434">
        <ele>1322.6</ele>
        <time>2023-08-21T12:13:52Z</time>
      </trkpt>
      <trkpt lat="45.66975" lon="6.77426">
        <ele>1322.6</ele>
        <time>2023-08-21T12:13:53Z</time>
      </trkpt>
      <trkpt lat="45.66978" lon="6.77417">
        <ele>1322.6</ele>
        <time>2023-08-21T12:13:54Z</time>
      </trkpt>
      <trkpt lat="45.6698" lon="6.77406">
        <ele>1321.6</ele>
        <time>2023-08-21T12:13:55Z</time>
      </trkpt>
      <trkpt lat="45.66981" lon="6.77395">
        <ele>1319.8</ele>
        <time>2023-08-21T12:13:56Z</time>
      </trkpt>
      <trkpt lat="45.66981" lon="6.77382">
        <ele>1319.8</ele>
        <time>2023-08-21T12:13:57Z</time>
      </trkpt>
      <trkpt lat="45.6698" lon="6.77369">
        <ele>1319.8</ele>
        <time>2023-08-21T12:13:58Z</time>
      </trkpt>
      <trkpt lat="45.66979" lon="6.77356">
        <ele>1319.8</ele>
        <time>2023-08-21T12:13:59Z</time>
      </trkpt>
      <trkpt lat="45.66978" lon="6.77342">
        <ele>1318</ele>
        <time>2023-08-21T12:14:00Z</time>
      </trkpt>
      <trkpt lat="45.66977" lon="6.77328">
        <ele>1318</ele>
        <time>2023-08-21T12:14:01Z</time>
      </trkpt>
      <trkpt lat="45.66975" lon="6.77313">
        <ele>1318</ele>
        <time>2023-08-21T12:14:02Z</time>
      </trkpt>
      <trkpt lat="45.66974" lon="6.77299">
        <ele>1318</ele>
        <time>2023-08-21T12:14:03Z</time>
      </trkpt>
      <trkpt lat="45.66972" lon="6.77284">
        <ele>1318</ele>
        <time>2023-08-21T12:14:04Z</time>
      </trkpt>
      <trkpt lat="45.6697" lon="6.77268">
        <ele>1317</ele>
        <time>2023-08-21T12:14:05Z</time>
      </trkpt>
      <trkpt lat="45.66969" lon="6.77254">
        <ele>1314.6</ele>
        <time>2023-08-21T12:14:06Z</time>
      </trkpt>
      <trkpt lat="45.66968" lon="6.77244">
        <ele>1314.6</ele>
        <time>2023-08-21T12:14:07Z</time>
      </trkpt>
      <trkpt lat="45.66966" lon="6.77237">
        <ele>1314.6</ele>
        <time>2023-08-21T12:14:08Z</time>
      </trkpt>
      <trkpt lat="45.66965" lon="6.77232">
        <ele>1313.6</ele>
        <time>2023-08-21T12:14:09Z</time>
      </trkpt>
      <trkpt lat="45.66965" lon="6.77227">
        <ele>1312.2</ele>
        <time>2023-08-21T12:14:10Z</time>
      </trkpt>
      <trkpt lat="45.66964" lon="6.77221">
        <ele>1312.2</ele>
        <time>2023-08-21T12:14:11Z</time>
      </trkpt>
      <trkpt lat="45.66965" lon="6.77213">
        <ele>1312.2</ele>
        <time>2023-08-21T12:14:12Z</time>
      </trkpt>
      <trkpt lat="45.66965" lon="6.77205">
        <ele>1311.2</ele>
        <time>2023-08-21T12:14:13Z</time>
      </trkpt>
      <trkpt lat="45.66967" lon="6.77197">
        <ele>1310.6</ele>
        <time>2023-08-21T12:14:14Z</time>
      </trkpt>
      <trkpt lat="45.66969" lon="6.77187">
        <ele>1310.6</ele>
        <time>2023-08-21T12:14:15Z</time>
      </trkpt>
      <trkpt lat="45.66972" lon="6.77177">
        <ele>1310.6</ele>
        <time>2023-08-21T12:14:16Z</time>
      </trkpt>
      <trkpt lat="45.66973" lon="6.77166">
        <ele>1310.6</ele>
        <time>2023-08-21T12:14:17Z</time>
      </trkpt>
      <trkpt lat="45.66969" lon="6.77157">
        <ele>1309.6</ele>
        <time>2023-08-21T12:14:18Z</time>
      </trkpt>
      <trkpt lat="45.66963" lon="6.77157">
        <ele>1307.6</ele>
        <time>2023-08-21T12:14:19Z</time>
      </trkpt>
      <trkpt lat="45.66959" lon="6.77164">
        <ele>1307.6</ele>
        <time>2023-08-21T12:14:20Z</time>
      </trkpt>
      <trkpt lat="45.66956" lon="6.77173">
        <ele>1307.6</ele>
        <time>2023-08-21T12:14:21Z</time>
      </trkpt>
      <trkpt lat="45.66954" lon="6.77184">
        <ele>1307.6</ele>
        <time>2023-08-21T12:14:22Z</time>
      </trkpt>
      <trkpt lat="45.6695" lon="6.77195">
        <ele>1305</ele>
        <time>2023-08-21T12:14:23Z</time>
      </trkpt>
      <trkpt lat="45.66946" lon="6.77206">
        <ele>1305</ele>
        <time>2023-08-21T12:14:24Z</time>
      </trkpt>
      <trkpt lat="45.6694" lon="6.77216">
        <ele>1305</ele>
        <time>2023-08-21T12:14:25Z</time>
      </trkpt>
      <trkpt lat="45.66936" lon="6.77228">
        <ele>1305</ele>
        <time>2023-08-21T12:14:26Z</time>
      </trkpt>
      <trkpt lat="45.66933" lon="6.7724">
        <ele>1304</ele>
        <time>2023-08-21T12:14:27Z</time>
      </trkpt>
      <trkpt lat="45.66932" lon="6.77252">
        <ele>1303</ele>
        <time>2023-08-21T12:14:28Z</time>
      </trkpt>
      <trkpt lat="45.66931" lon="6.77267">
        <ele>1303</ele>
        <time>2023-08-21T12:14:29Z</time>
      </trkpt>
      <trkpt lat="45.66931" lon="6.77282">
        <ele>1303</ele>
        <time>2023-08-21T12:14:30Z</time>
      </trkpt>
      <trkpt lat="45.66931" lon="6.77295">
        <ele>1303</ele>
        <time>2023-08-21T12:14:31Z</time>
      </trkpt>
      <trkpt lat="45.66931" lon="6.77309">
        <ele>1299.4</ele>
        <time>2023-08-21T12:14:32Z</time>
      </trkpt>
      <trkpt lat="45.66931" lon="6.77323">
        <ele>1299.4</ele>
        <time>2023-08-21T12:14:33Z</time>
      </trkpt>
      <trkpt lat="45.6693" lon="6.77338">
        <ele>1299.4</ele>
        <time>2023-08-21T12:14:34Z</time>
      </trkpt>
      <trkpt lat="45.66931" lon="6.77353">
        <ele>1298.4</ele>
        <time>2023-08-21T12:14:35Z</time>
      </trkpt>
      <trkpt lat="45.66932" lon="6.77367">
        <ele>1298.4</ele>
        <time>2023-08-21T12:14:36Z</time>
      </trkpt>
      <trkpt lat="45.66932" lon="6.77378">
        <ele>1296</ele>
        <time>2023-08-21T12:14:37Z</time>
      </trkpt>
      <trkpt lat="45.66933" lon="6.77387">
        <ele>1296</ele>
        <time>2023-08-21T12:14:38Z</time>
      </trkpt>
      <trkpt lat="45.66933" lon="6.77395">
        <ele>1296</ele>
        <time>2023-08-21T12:14:39Z</time>
      </trkpt>
      <trkpt lat="45.66934" lon="6.77403">
        <ele>1295</ele>
        <time>2023-08-21T12:14:40Z</time>
      </trkpt>
      <trkpt lat="45.66931" lon="6.7741">
        <ele>1293.6</ele>
        <time>2023-08-21T12:14:41Z</time>
      </trkpt>
      <trkpt lat="45.66927" lon="6.77412">
        <ele>1293.6</ele>
        <time>2023-08-21T12:14:42Z</time>
      </trkpt>
      <trkpt lat="45.66922" lon="6.77409">
        <ele>1293.6</ele>
        <time>2023-08-21T12:14:43Z</time>
      </trkpt>
      <trkpt lat="45.6692" lon="6.77402">
        <ele>1292.6</ele>
        <time>2023-08-21T12:14:44Z</time>
      </trkpt>
      <trkpt lat="45.6692" lon="6.77393">
        <ele>1292.6</ele>
        <time>2023-08-21T12:14:45Z</time>
      </trkpt>
      <trkpt lat="45.66921" lon="6.77384">
        <ele>1291.8</ele>
        <time>2023-08-21T12:14:46Z</time>
      </trkpt>
      <trkpt lat="45.6692" lon="6.77375">
        <ele>1291.8</ele>
        <time>2023-08-21T12:14:47Z</time>
      </trkpt>
      <trkpt lat="45.66917" lon="6.77366">
        <ele>1291.8</ele>
        <time>2023-08-21T12:14:48Z</time>
      </trkpt>
      <trkpt lat="45.66914" lon="6.77357">
        <ele>1291.8</ele>
        <time>2023-08-21T12:14:49Z</time>
      </trkpt>
      <trkpt lat="45.66911" lon="6.77347">
        <ele>1290.8</ele>
        <time>2023-08-21T12:14:50Z</time>
      </trkpt>
      <trkpt lat="45.66908" lon="6.77336">
        <ele>1288.8</ele>
        <time>2023-08-21T12:14:51Z</time>
      </trkpt>
      <trkpt lat="45.66904" lon="6.77325">
        <ele>1288.8</ele>
        <time>2023-08-21T12:14:52Z</time>
      </trkpt>
      <trkpt lat="45.66901" lon="6.77313">
        <ele>1288.8</ele>
        <time>2023-08-21T12:14:53Z</time>
      </trkpt>
      <trkpt lat="45.66899" lon="6.773">
        <ele>1287.8</ele>
        <time>2023-08-21T12:14:54Z</time>
      </trkpt>
      <trkpt lat="45.66897" lon="6.77286">
        <ele>1286</ele>
        <time>2023-08-21T12:14:55Z</time>
      </trkpt>
      <trkpt lat="45.66895" lon="6.77272">
        <ele>1286</ele>
        <time>2023-08-21T12:14:56Z</time>
      </trkpt>
      <trkpt lat="45.66894" lon="6.77257">
        <ele>1286</ele>
        <time>2023-08-21T12:14:57Z</time>
      </trkpt>
      <trkpt lat="45.66894" lon="6.77242">
        <ele>1285</ele>
        <time>2023-08-21T12:14:58Z</time>
      </trkpt>
      <trkpt lat="45.66894" lon="6.77227">
        <ele>1282.6</ele>
        <time>2023-08-21T12:14:59Z</time>
      </trkpt>
      <trkpt lat="45.66893" lon="6.77214">
        <ele>1282.6</ele>
        <time>2023-08-21T12:15:00Z</time>
      </trkpt>
      <trkpt lat="45.66894" lon="6.77203">
        <ele>1282.6</ele>
        <time>2023-08-21T12:15:01Z</time>
      </trkpt>
      <trkpt lat="45.66895" lon="6.77194">
        <ele>1282.6</ele>
        <time>2023-08-21T12:15:02Z</time>
      </trkpt>
      <trkpt lat="45.66895" lon="6.77186">
        <ele>1281.6</ele>
        <time>2023-08-21T12:15:03Z</time>
      </trkpt>
      <trkpt lat="45.66893" lon="6.7718">
        <ele>1280.2</ele>
        <time>2023-08-21T12:15:04Z</time>
      </trkpt>
      <trkpt lat="45.66888" lon="6.77177">
        <ele>1280.2</ele>
        <time>2023-08-21T12:15:05Z</time>
      </trkpt>
      <trkpt lat="45.66883" lon="6.7718">
        <ele>1280.2</ele>
        <time>2023-08-21T12:15:06Z</time>
      </trkpt>
      <trkpt lat="45.6688" lon="6.77188">
        <ele>1279.2</ele>
        <time>2023-08-21T12:15:07Z</time>
      </trkpt>
      <trkpt lat="45.66879" lon="6.77197">
        <ele>1278</ele>
        <time>2023-08-21T12:15:08Z</time>
      </trkpt>
      <trkpt lat="45.66879" lon="6.77208">
        <ele>1278</ele>
        <time>2023-08-21T12:15:09Z</time>
      </trkpt>
      <trkpt lat="45.66878" lon="6.77218">
        <ele>1278</ele>
        <time>2023-08-21T12:15:10Z</time>
      </trkpt>
      <trkpt lat="45.66877" lon="6.77229">
        <ele>1278</ele>
        <time>2023-08-21T12:15:11Z</time>
      </trkpt>
      <trkpt lat="45.66876" lon="6.77242">
        <ele>1277</ele>
        <time>2023-08-21T12:15:12Z</time>
      </trkpt>
      <trkpt lat="45.66874" lon="6.77254">
        <ele>1275.4</ele>
        <time>2023-08-21T12:15:13Z</time>
      </trkpt>
      <trkpt lat="45.66872" lon="6.77267">
        <ele>1275.4</ele>
        <time>2023-08-21T12:15:14Z</time>
      </trkpt>
      <trkpt lat="45.66869" lon="6.7728">
        <ele>1275.4</ele>
        <time>2023-08-21T12:15:15Z</time>
      </trkpt>
      <trkpt lat="45.66867" lon="6.77294">
        <ele>1274.4</ele>
        <time>2023-08-21T12:15:16Z</time>
      </trkpt>
      <trkpt lat="45.66868" lon="6.77308">
        <ele>1271.8</ele>
        <time>2023-08-21T12:15:17Z</time>
      </trkpt>
      <trkpt lat="45.66869" lon="6.77324">
        <ele>1271.8</ele>
        <time>2023-08-21T12:15:18Z</time>
      </trkpt>
      <trkpt lat="45.6687" lon="6.77339">
        <ele>1271.8</ele>
        <time>2023-08-21T12:15:19Z</time>
      </trkpt>
      <trkpt lat="45.66871" lon="6.77355">
        <ele>1271.8</ele>
        <time>2023-08-21T12:15:20Z</time>
      </trkpt>
      <trkpt lat="45.6687" lon="6.7737">
        <ele>1270.8</ele>
        <time>2023-08-21T12:15:21Z</time>
      </trkpt>
      <trkpt lat="45.66868" lon="6.77384">
        <ele>1268.4</ele>
        <time>2023-08-21T12:15:22Z</time>
      </trkpt>
      <trkpt lat="45.66866" lon="6.77395">
        <ele>1268.4</ele>
        <time>2023-08-21T12:15:23Z</time>
      </trkpt>
      <trkpt lat="45.66865" lon="6.77406">
        <ele>1268.4</ele>
        <time>2023-08-21T12:15:24Z</time>
      </trkpt>
      <trkpt lat="45.66864" lon="6.77416">
        <ele>1267.4</ele>
        <time>2023-08-21T12:15:25Z</time>
      </trkpt>
      <trkpt lat="45.66864" lon="6.77426">
        <ele>1265</ele>
        <time>2023-08-21T12:15:26Z</time>
      </trkpt>
      <trkpt lat="45.66867" lon="6.77436">
        <ele>1265</ele>
        <time>2023-08-21T12:15:27Z</time>
      </trkpt>
      <trkpt lat="45.66872" lon="6.77444">
        <ele>1265</ele>
        <time>2023-08-21T12:15:28Z</time>
      </trkpt>
      <trkpt lat="45.66876" lon="6.77451">
        <ele>1265</ele>
        <time>2023-08-21T12:15:29Z</time>
      </trkpt>
      <trkpt lat="45.66879" lon="6.77461">
        <ele>1264</ele>
        <time>2023-08-21T12:15:30Z</time>
      </trkpt>
      <trkpt lat="45.6688" lon="6.77471">
        <ele>1263.2</ele>
        <time>2023-08-21T12:15:31Z</time>
      </trkpt>
      <trkpt lat="45.66879" lon="6.77482">
        <ele>1263.2</ele>
        <time>2023-08-21T12:15:32Z</time>
      </trkpt>
      <trkpt lat="45.66875" lon="6.77493">
        <ele>1263.2</ele>
        <time>2023-08-21T12:15:33Z</time>
      </trkpt>
      <trkpt lat="45.66872" lon="6.77506">
        <ele>1263.2</ele>
        <time>2023-08-21T12:15:34Z</time>
      </trkpt>
      <trkpt lat="45.66868" lon="6.77518">
        <ele>1262.2</ele>
        <time>2023-08-21T12:15:35Z</time>
      </trkpt>
      <trkpt lat="45.66865" lon="6.7753">
        <ele>1258.8</ele>
        <time>2023-08-21T12:15:36Z</time>
      </trkpt>
      <trkpt lat="45.6686" lon="6.77538">
        <ele>1258.8</ele>
        <time>2023-08-21T12:15:37Z</time>
      </trkpt>
      <trkpt lat="45.66854" lon="6.7754">
        <ele>1258.8</ele>
        <time>2023-08-21T12:15:38Z</time>
      </trkpt>
      <trkpt lat="45.66853" lon="6.77534">
        <ele>1258.8</ele>
        <time>2023-08-21T12:15:39Z</time>
      </trkpt>
      <trkpt lat="45.66854" lon="6.77526">
        <ele>1256.6</ele>
        <time>2023-08-21T12:15:40Z</time>
      </trkpt>
      <trkpt lat="45.66857" lon="6.77517">
        <ele>1256.6</ele>
        <time>2023-08-21T12:15:41Z</time>
      </trkpt>
      <trkpt lat="45.6686" lon="6.77508">
        <ele>1256.6</ele>
        <time>2023-08-21T12:15:42Z</time>
      </trkpt>
      <trkpt lat="45.66863" lon="6.77497">
        <ele>1256.6</ele>
        <time>2023-08-21T12:15:43Z</time>
      </trkpt>
      <trkpt lat="45.66865" lon="6.77487">
        <ele>1255.6</ele>
        <time>2023-08-21T12:15:44Z</time>
      </trkpt>
      <trkpt lat="45.66864" lon="6.77476">
        <ele>1254</ele>
        <time>2023-08-21T12:15:45Z</time>
      </trkpt>
      <trkpt lat="45.66862" lon="6.77466">
        <ele>1254</ele>
        <time>2023-08-21T12:15:46Z</time>
      </trkpt>
      <trkpt lat="45.66858" lon="6.77456">
        <ele>1254</ele>
        <time>2023-08-21T12:15:47Z</time>
      </trkpt>
      <trkpt lat="45.66852" lon="6.77448">
        <ele>1254</ele>
        <time>2023-08-21T12:15:48Z</time>
      </trkpt>
      <trkpt lat="45.66845" lon="6.7744">
        <ele>1251</ele>
        <time>2023-08-21T12:15:49Z</time>
      </trkpt>
      <trkpt lat="45.6684" lon="6.7743">
        <ele>1251</ele>
        <time>2023-08-21T12:15:50Z</time>
      </trkpt>
      <trkpt lat="45.66836" lon="6.77419">
        <ele>1251</ele>
        <time>2023-08-21T12:15:51Z</time>
      </trkpt>
      <trkpt lat="45.66832" lon="6.77407">
        <ele>1250</ele>
        <time>2023-08-21T12:15:52Z</time>
      </trkpt>
      <trkpt lat="45.66829" lon="6.77395">
        <ele>1247.8</ele>
        <time>2023-08-21T12:15:53Z</time>
      </trkpt>
      <trkpt lat="45.66828" lon="6.77382">
        <ele>1247.8</ele>
        <time>2023-08-21T12:15:54Z</time>
      </trkpt>
      <trkpt lat="45.66827" lon="6.77369">
        <ele>1247.8</ele>
        <time>2023-08-21T12:15:55Z</time>
      </trkpt>
      <trkpt lat="45.66826" lon="6.77355">
        <ele>1246.8</ele>
        <time>2023-08-21T12:15:56Z</time>
      </trkpt>
      <trkpt lat="45.66825" lon="6.77344">
        <ele>1244.8</ele>
        <time>2023-08-21T12:15:57Z</time>
      </trkpt>
      <trkpt lat="45.66823" lon="6.77332">
        <ele>1244.8</ele>
        <time>2023-08-21T12:15:58Z</time>
      </trkpt>
      <trkpt lat="45.6682" lon="6.77319">
        <ele>1244.8</ele>
        <time>2023-08-21T12:15:59Z</time>
      </trkpt>
      <trkpt lat="45.66815" lon="6.77308">
        <ele>1244.8</ele>
        <time>2023-08-21T12:16:00Z</time>
      </trkpt>
      <trkpt lat="45.6681" lon="6.77297">
        <ele>1243.8</ele>
        <time>2023-08-21T12:16:01Z</time>
      </trkpt>
      <trkpt lat="45.66806" lon="6.77286">
        <ele>1242</ele>
        <time>2023-08-21T12:16:02Z</time>
      </trkpt>
      <trkpt lat="45.66802" lon="6.77275">
        <ele>1242</ele>
        <time>2023-08-21T12:16:03Z</time>
      </trkpt>
      <trkpt lat="45.668" lon="6.77265">
        <ele>1242</ele>
        <time>2023-08-21T12:16:04Z</time>
      </trkpt>
      <trkpt lat="45.66801" lon="6.77255">
        <ele>1241</ele>
        <time>2023-08-21T12:16:05Z</time>
      </trkpt>
      <trkpt lat="45.66805" lon="6.77246">
        <ele>1238.8</ele>
        <time>2023-08-21T12:16:06Z</time>
      </trkpt>
      <trkpt lat="45.6681" lon="6.77238">
        <ele>1238.8</ele>
        <time>2023-08-21T12:16:07Z</time>
      </trkpt>
      <trkpt lat="45.66815" lon="6.77229">
        <ele>1238.8</ele>
        <time>2023-08-21T12:16:08Z</time>
      </trkpt>
      <trkpt lat="45.66817" lon="6.77217">
        <ele>1237.8</ele>
        <time>2023-08-21T12:16:09Z</time>
      </trkpt>
      <trkpt lat="45.66818" lon="6.77204">
        <ele>1235.4</ele>
        <time>2023-08-21T12:16:10Z</time>
      </trkpt>
      <trkpt lat="45.66819" lon="6.7719">
        <ele>1235.4</ele>
        <time>2023-08-21T12:16:11Z</time>
      </trkpt>
      <trkpt lat="45.66821" lon="6.77177">
        <ele>1235.4</ele>
        <time>2023-08-21T12:16:12Z</time>
      </trkpt>
      <trkpt lat="45.66819" lon="6.77168">
        <ele>1235.4</ele>
        <time>2023-08-21T12:16:13Z</time>
      </trkpt>
      <trkpt lat="45.66815" lon="6.77166">
        <ele>1235.4</ele>
        <time>2023-08-21T12:16:14Z</time>
      </trkpt>
      <trkpt lat="45.66811" lon="6.77171">
        <ele>1234.4</ele>
        <time>2023-08-21T12:16:15Z</time>
      </trkpt>
      <trkpt lat="45.66808" lon="6.77178">
        <ele>1233</ele>
        <time>2023-08-21T12:16:16Z</time>
      </trkpt>
      <trkpt lat="45.66809" lon="6.77187">
        <ele>1233</ele>
        <time>2023-08-21T12:16:17Z</time>
      </trkpt>
      <trkpt lat="45.66808" lon="6.77199">
        <ele>1233</ele>
        <time>2023-08-21T12:16:18Z</time>
      </trkpt>
      <trkpt lat="45.66802" lon="6.77209">
        <ele>1232</ele>
        <time>2023-08-21T12:16:19Z</time>
      </trkpt>
      <trkpt lat="45.66794" lon="6.77217">
        <ele>1230.2</ele>
        <time>2023-08-21T12:16:20Z</time>
      </trkpt>
      <trkpt lat="45.6678" lon="6.77223">
        <ele>1230.2</ele>
        <time>2023-08-21T12:16:21Z</time>
      </trkpt>
      <trkpt lat="45.66776" lon="6.77225">
        <ele>1230.2</ele>
        <time>2023-08-21T12:16:22Z</time>
      </trkpt>
      <trkpt lat="45.66767" lon="6.77229">
        <ele>1230.2</ele>
        <time>2023-08-21T12:16:23Z</time>
      </trkpt>
      <trkpt lat="45.66762" lon="6.77239">
        <ele>1229.2</ele>
        <time>2023-08-21T12:16:24Z</time>
      </trkpt>
      <trkpt lat="45.66763" lon="6.77251">
        <ele>1227</ele>
        <time>2023-08-21T12:16:25Z</time>
      </trkpt>
      <trkpt lat="45.66766" lon="6.77264">
        <ele>1227</ele>
        <time>2023-08-21T12:16:26Z</time>
      </trkpt>
      <trkpt lat="45.66766" lon="6.77279">
        <ele>1227</ele>
        <time>2023-08-21T12:16:27Z</time>
      </trkpt>
      <trkpt lat="45.66765" lon="6.77294">
        <ele>1226</ele>
        <time>2023-08-21T12:16:28Z</time>
      </trkpt>
      <trkpt lat="45.66765" lon="6.77309">
        <ele>1226</ele>
        <time>2023-08-21T12:16:29Z</time>
      </trkpt>
      <trkpt lat="45.66764" lon="6.77324">
        <ele>1224</ele>
        <time>2023-08-21T12:16:30Z</time>
      </trkpt>
      <trkpt lat="45.66766" lon="6.7734">
        <ele>1224</ele>
        <time>2023-08-21T12:16:31Z</time>
      </trkpt>
      <trkpt lat="45.66767" lon="6.77356">
        <ele>1223</ele>
        <time>2023-08-21T12:16:32Z</time>
      </trkpt>
      <trkpt lat="45.66769" lon="6.77372">
        <ele>1223</ele>
        <time>2023-08-21T12:16:33Z</time>
      </trkpt>
      <trkpt lat="45.66772" lon="6.77388">
        <ele>1219.4</ele>
        <time>2023-08-21T12:16:34Z</time>
      </trkpt>
      <trkpt lat="45.66774" lon="6.77404">
        <ele>1219.4</ele>
        <time>2023-08-21T12:16:35Z</time>
      </trkpt>
      <trkpt lat="45.66777" lon="6.77421">
        <ele>1219.4</ele>
        <time>2023-08-21T12:16:36Z</time>
      </trkpt>
      <trkpt lat="45.6678" lon="6.77437">
        <ele>1218.4</ele>
        <time>2023-08-21T12:16:37Z</time>
      </trkpt>
      <trkpt lat="45.66784" lon="6.77451">
        <ele>1215.4</ele>
        <time>2023-08-21T12:16:38Z</time>
      </trkpt>
      <trkpt lat="45.66787" lon="6.77463">
        <ele>1215.4</ele>
        <time>2023-08-21T12:16:39Z</time>
      </trkpt>
      <trkpt lat="45.6679" lon="6.77474">
        <ele>1215.4</ele>
        <time>2023-08-21T12:16:40Z</time>
      </trkpt>
      <trkpt lat="45.66789" lon="6.77481">
        <ele>1215.4</ele>
        <time>2023-08-21T12:16:41Z</time>
      </trkpt>
      <trkpt lat="45.66785" lon="6.77482">
        <ele>1212.8</ele>
        <time>2023-08-21T12:16:42Z</time>
      </trkpt>
      <trkpt lat="45.6678" lon="6.77478">
        <ele>1212.8</ele>
        <time>2023-08-21T12:16:43Z</time>
      </trkpt>
      <trkpt lat="45.66778" lon="6.77469">
        <ele>1212.8</ele>
        <time>2023-08-21T12:16:44Z</time>
      </trkpt>
      <trkpt lat="45.66776" lon="6.77459">
        <ele>1212.8</ele>
        <time>2023-08-21T12:16:45Z</time>
      </trkpt>
      <trkpt lat="45.66773" lon="6.77448">
        <ele>1211.8</ele>
        <time>2023-08-21T12:16:46Z</time>
      </trkpt>
      <trkpt lat="45.6677" lon="6.77436">
        <ele>1210.2</ele>
        <time>2023-08-21T12:16:47Z</time>
      </trkpt>
      <trkpt lat="45.66766" lon="6.77424">
        <ele>1210.2</ele>
        <time>2023-08-21T12:16:48Z</time>
      </trkpt>
      <trkpt lat="45.66761" lon="6.77412">
        <ele>1210.2</ele>
        <time>2023-08-21T12:16:49Z</time>
      </trkpt>
      <trkpt lat="45.66755" lon="6.77401">
        <ele>1209.2</ele>
        <time>2023-08-21T12:16:50Z</time>
      </trkpt>
      <trkpt lat="45.66748" lon="6.7739">
        <ele>1207.4</ele>
        <time>2023-08-21T12:16:51Z</time>
      </trkpt>
      <trkpt lat="45.66741" lon="6.77379">
        <ele>1207.4</ele>
        <time>2023-08-21T12:16:52Z</time>
      </trkpt>
      <trkpt lat="45.66735" lon="6.77367">
        <ele>1207.4</ele>
        <time>2023-08-21T12:16:53Z</time>
      </trkpt>
      <trkpt lat="45.66734" lon="6.77352">
        <ele>1206.4</ele>
        <time>2023-08-21T12:16:54Z</time>
      </trkpt>
      <trkpt lat="45.66735" lon="6.77337">
        <ele>1206.4</ele>
        <time>2023-08-21T12:16:55Z</time>
      </trkpt>
      <trkpt lat="45.66736" lon="6.77322">
        <ele>1203.8</ele>
        <time>2023-08-21T12:16:56Z</time>
      </trkpt>
      <trkpt lat="45.66733" lon="6.77311">
        <ele>1203.8</ele>
        <time>2023-08-21T12:16:57Z</time>
      </trkpt>
      <trkpt lat="45.66727" lon="6.77301">
        <ele>1203.8</ele>
        <time>2023-08-21T12:16:58Z</time>
      </trkpt>
      <trkpt lat="45.6672" lon="6.77292">
        <ele>1203.8</ele>
        <time>2023-08-21T12:16:59Z</time>
      </trkpt>
      <trkpt lat="45.66713" lon="6.77281">
        <ele>1202.8</ele>
        <time>2023-08-21T12:17:00Z</time>
      </trkpt>
      <trkpt lat="45.6671" lon="6.77268">
        <ele>1199.8</ele>
        <time>2023-08-21T12:17:01Z</time>
      </trkpt>
      <trkpt lat="45.6671" lon="6.77254">
        <ele>1199.8</ele>
        <time>2023-08-21T12:17:02Z</time>
      </trkpt>
      <trkpt lat="45.66711" lon="6.7724">
        <ele>1199.8</ele>
        <time>2023-08-21T12:17:03Z</time>
      </trkpt>
      <trkpt lat="45.66712" lon="6.77227">
        <ele>1198.8</ele>
        <time>2023-08-21T12:17:04Z</time>
      </trkpt>
      <trkpt lat="45.66713" lon="6.77216">
        <ele>1196.6</ele>
        <time>2023-08-21T12:17:05Z</time>
      </trkpt>
      <trkpt lat="45.6671" lon="6.77209">
        <ele>1196.6</ele>
        <time>2023-08-21T12:17:06Z</time>
      </trkpt>
      <trkpt lat="45.66705" lon="6.77213">
        <ele>1196.6</ele>
        <time>2023-08-21T12:17:07Z</time>
      </trkpt>
      <trkpt lat="45.66701" lon="6.77219">
        <ele>1196.6</ele>
        <time>2023-08-21T12:17:08Z</time>
      </trkpt>
      <trkpt lat="45.667" lon="6.77228">
        <ele>1195.6</ele>
        <time>2023-08-21T12:17:09Z</time>
      </trkpt>
      <trkpt lat="45.66699" lon="6.7724">
        <ele>1193.8</ele>
        <time>2023-08-21T12:17:10Z</time>
      </trkpt>
      <trkpt lat="45.66698" lon="6.77252">
        <ele>1193.8</ele>
        <time>2023-08-21T12:17:11Z</time>
      </trkpt>
      <trkpt lat="45.66697" lon="6.77264">
        <ele>1193.8</ele>
        <time>2023-08-21T12:17:12Z</time>
      </trkpt>
      <trkpt lat="45.66694" lon="6.77277">
        <ele>1192.8</ele>
        <time>2023-08-21T12:17:13Z</time>
      </trkpt>
      <trkpt lat="45.66691" lon="6.77289">
        <ele>1191.6</ele>
        <time>2023-08-21T12:17:14Z</time>
      </trkpt>
      <trkpt lat="45.66687" lon="6.77301">
        <ele>1191.6</ele>
        <time>2023-08-21T12:17:15Z</time>
      </trkpt>
      <trkpt lat="45.66684" lon="6.77313">
        <ele>1191.6</ele>
        <time>2023-08-21T12:17:16Z</time>
      </trkpt>
      <trkpt lat="45.66683" lon="6.77327">
        <ele>1191.6</ele>
        <time>2023-08-21T12:17:17Z</time>
      </trkpt>
      <trkpt lat="45.66683" lon="6.77341">
        <ele>1190.6</ele>
        <time>2023-08-21T12:17:18Z</time>
      </trkpt>
      <trkpt lat="45.66685" lon="6.77354">
        <ele>1188.2</ele>
        <time>2023-08-21T12:17:19Z</time>
      </trkpt>
      <trkpt lat="45.66691" lon="6.77365">
        <ele>1188.2</ele>
        <time>2023-08-21T12:17:20Z</time>
      </trkpt>
      <trkpt lat="45.66697" lon="6.77376">
        <ele>1188.2</ele>
        <time>2023-08-21T12:17:21Z</time>
      </trkpt>
      <trkpt lat="45.66703" lon="6.77388">
        <ele>1187.2</ele>
        <time>2023-08-21T12:17:22Z</time>
      </trkpt>
      <trkpt lat="45.66706" lon="6.77403">
        <ele>1184.6</ele>
        <time>2023-08-21T12:17:23Z</time>
      </trkpt>
      <trkpt lat="45.66709" lon="6.77419">
        <ele>1184.6</ele>
        <time>2023-08-21T12:17:24Z</time>
      </trkpt>
      <trkpt lat="45.6671" lon="6.77436">
        <ele>1184.6</ele>
        <time>2023-08-21T12:17:25Z</time>
      </trkpt>
      <trkpt lat="45.66708" lon="6.77451">
        <ele>1183.6</ele>
        <time>2023-08-21T12:17:26Z</time>
      </trkpt>
      <trkpt lat="45.66704" lon="6.77467">
        <ele>1180.6</ele>
        <time>2023-08-21T12:17:27Z</time>
      </trkpt>
      <trkpt lat="45.66698" lon="6.77482">
        <ele>1180.6</ele>
        <time>2023-08-21T12:17:28Z</time>
      </trkpt>
      <trkpt lat="45.66692" lon="6.77496">
        <ele>1180.6</ele>
        <time>2023-08-21T12:17:29Z</time>
      </trkpt>
      <trkpt lat="45.66685" lon="6.7751">
        <ele>1180.6</ele>
        <time>2023-08-21T12:17:30Z</time>
      </trkpt>
      <trkpt lat="45.66679" lon="6.77524">
        <ele>1179.6</ele>
        <time>2023-08-21T12:17:31Z</time>
      </trkpt>
      <trkpt lat="45.66673" lon="6.7754">
        <ele>1175.8</ele>
        <time>2023-08-21T12:17:32Z</time>
      </trkpt>
      <trkpt lat="45.66668" lon="6.77556">
        <ele>1175.8</ele>
        <time>2023-08-21T12:17:33Z</time>
      </trkpt>
      <trkpt lat="45.66663" lon="6.77572">
        <ele>1175.8</ele>
        <time>2023-08-21T12:17:34Z</time>
      </trkpt>
      <trkpt lat="45.6666" lon="6.77586">
        <ele>1174.8</ele>
        <time>2023-08-21T12:17:35Z</time>
      </trkpt>
      <trkpt lat="45.66657" lon="6.77597">
        <ele>1170.6</ele>
        <time>2023-08-21T12:17:36Z</time>
      </trkpt>
      <trkpt lat="45.66653" lon="6.77601">
        <ele>1170.6</ele>
        <time>2023-08-21T12:17:37Z</time>
      </trkpt>
      <trkpt lat="45.66647" lon="6.77593">
        <ele>1170.6</ele>
        <time>2023-08-21T12:17:38Z</time>
      </trkpt>
      <trkpt lat="45.66647" lon="6.77588">
        <ele>1170.6</ele>
        <time>2023-08-21T12:17:39Z</time>
      </trkpt>
      <trkpt lat="45.66647" lon="6.77578">
        <ele>1169.6</ele>
        <time>2023-08-21T12:17:40Z</time>
      </trkpt>
      <trkpt lat="45.66646" lon="6.77568">
        <ele>1167.6</ele>
        <time>2023-08-21T12:17:41Z</time>
      </trkpt>
      <trkpt lat="45.66643" lon="6.77558">
        <ele>1167.6</ele>
        <time>2023-08-21T12:17:42Z</time>
      </trkpt>
      <trkpt lat="45.66638" lon="6.77548">
        <ele>1167.6</ele>
        <time>2023-08-21T12:17:43Z</time>
      </trkpt>
      <trkpt lat="45.66632" lon="6.77538">
        <ele>1167.6</ele>
        <time>2023-08-21T12:17:44Z</time>
      </trkpt>
      <trkpt lat="45.66626" lon="6.77529">
        <ele>1166.6</ele>
        <time>2023-08-21T12:17:45Z</time>
      </trkpt>
      <trkpt lat="45.6662" lon="6.77518">
        <ele>1165.2</ele>
        <time>2023-08-21T12:17:46Z</time>
      </trkpt>
      <trkpt lat="45.66615" lon="6.77507">
        <ele>1165.2</ele>
        <time>2023-08-21T12:17:47Z</time>
      </trkpt>
      <trkpt lat="45.66613" lon="6.77494">
        <ele>1165.2</ele>
        <time>2023-08-21T12:17:48Z</time>
      </trkpt>
      <trkpt lat="45.66615" lon="6.77481">
        <ele>1164.2</ele>
        <time>2023-08-21T12:17:49Z</time>
      </trkpt>
      <trkpt lat="45.66619" lon="6.77468">
        <ele>1162.2</ele>
        <time>2023-08-21T12:17:50Z</time>
      </trkpt>
      <trkpt lat="45.66622" lon="6.77456">
        <ele>1162.2</ele>
        <time>2023-08-21T12:17:51Z</time>
      </trkpt>
      <trkpt lat="45.66622" lon="6.77445">
        <ele>1162.2</ele>
        <time>2023-08-21T12:17:52Z</time>
      </trkpt>
      <trkpt lat="45.66617" lon="6.77437">
        <ele>1162.2</ele>
        <time>2023-08-21T12:17:53Z</time>
      </trkpt>
      <trkpt lat="45.6661" lon="6.77436">
        <ele>1162.2</ele>
        <time>2023-08-21T12:17:54Z</time>
      </trkpt>
      <trkpt lat="45.66602" lon="6.7744">
        <ele>1160.2</ele>
        <time>2023-08-21T12:17:55Z</time>
      </trkpt>
      <trkpt lat="45.66595" lon="6.77448">
        <ele>1160.2</ele>
        <time>2023-08-21T12:17:56Z</time>
      </trkpt>
      <trkpt lat="45.66589" lon="6.77458">
        <ele>1160.2</ele>
        <time>2023-08-21T12:17:57Z</time>
      </trkpt>
      <trkpt lat="45.66583" lon="6.77469">
        <ele>1160.2</ele>
        <time>2023-08-21T12:17:58Z</time>
      </trkpt>
      <trkpt lat="45.66577" lon="6.7748">
        <ele>1156.8</ele>
        <time>2023-08-21T12:17:59Z</time>
      </trkpt>
      <trkpt lat="45.6657" lon="6.77492">
        <ele>1156.8</ele>
        <time>2023-08-21T12:18:00Z</time>
      </trkpt>
      <trkpt lat="45.66564" lon="6.77504">
        <ele>1156.8</ele>
        <time>2023-08-21T12:18:01Z</time>
      </trkpt>
      <trkpt lat="45.66557" lon="6.77516">
        <ele>1156.8</ele>
        <time>2023-08-21T12:18:02Z</time>
      </trkpt>
      <trkpt lat="45.66551" lon="6.77529">
        <ele>1156.8</ele>
        <time>2023-08-21T12:18:03Z</time>
      </trkpt>
      <trkpt lat="45.66546" lon="6.77542">
        <ele>1154.4</ele>
        <time>2023-08-21T12:18:04Z</time>
      </trkpt>
      <trkpt lat="45.6654" lon="6.77555">
        <ele>1154.4</ele>
        <time>2023-08-21T12:18:05Z</time>
      </trkpt>
      <trkpt lat="45.66536" lon="6.77569">
        <ele>1154.4</ele>
        <time>2023-08-21T12:18:06Z</time>
      </trkpt>
      <trkpt lat="45.66532" lon="6.77583">
        <ele>1153.4</ele>
        <time>2023-08-21T12:18:07Z</time>
      </trkpt>
      <trkpt lat="45.66528" lon="6.77599">
        <ele>1150.6</ele>
        <time>2023-08-21T12:18:08Z</time>
      </trkpt>
      <trkpt lat="45.66523" lon="6.77614">
        <ele>1150.6</ele>
        <time>2023-08-21T12:18:09Z</time>
      </trkpt>
      <trkpt lat="45.66518" lon="6.7763">
        <ele>1150.6</ele>
        <time>2023-08-21T12:18:10Z</time>
      </trkpt>
      <trkpt lat="45.66513" lon="6.77646">
        <ele>1149.6</ele>
        <time>2023-08-21T12:18:11Z</time>
      </trkpt>
      <trkpt lat="45.66509" lon="6.77663">
        <ele>1147</ele>
        <time>2023-08-21T12:18:12Z</time>
      </trkpt>
      <trkpt lat="45.66504" lon="6.77679">
        <ele>1147</ele>
        <time>2023-08-21T12:18:13Z</time>
      </trkpt>
      <trkpt lat="45.66499" lon="6.77695">
        <ele>1147</ele>
        <time>2023-08-21T12:18:14Z</time>
      </trkpt>
      <trkpt lat="45.66491" lon="6.7771">
        <ele>1147</ele>
        <time>2023-08-21T12:18:15Z</time>
      </trkpt>
      <trkpt lat="45.66482" lon="6.77723">
        <ele>1146</ele>
        <time>2023-08-21T12:18:16Z</time>
      </trkpt>
      <trkpt lat="45.66471" lon="6.77734">
        <ele>1142.8</ele>
        <time>2023-08-21T12:18:17Z</time>
      </trkpt>
      <trkpt lat="45.6646" lon="6.77744">
        <ele>1142.8</ele>
        <time>2023-08-21T12:18:18Z</time>
      </trkpt>
      <trkpt lat="45.66449" lon="6.77755">
        <ele>1142.8</ele>
        <time>2023-08-21T12:18:19Z</time>
      </trkpt>
      <trkpt lat="45.66438" lon="6.77765">
        <ele>1141.8</ele>
        <time>2023-08-21T12:18:20Z</time>
      </trkpt>
      <trkpt lat="45.66426" lon="6.77775">
        <ele>1141.8</ele>
        <time>2023-08-21T12:18:21Z</time>
      </trkpt>
      <trkpt lat="45.66414" lon="6.77784">
        <ele>1139.2</ele>
        <time>2023-08-21T12:18:22Z</time>
      </trkpt>
      <trkpt lat="45.66402" lon="6.77793">
        <ele>1139.2</ele>
        <time>2023-08-21T12:18:23Z</time>
      </trkpt>
      <trkpt lat="45.6639" lon="6.77804">
        <ele>1139.2</ele>
        <time>2023-08-21T12:18:24Z</time>
      </trkpt>
      <trkpt lat="45.66379" lon="6.77815">
        <ele>1138.2</ele>
        <time>2023-08-21T12:18:25Z</time>
      </trkpt>
      <trkpt lat="45.66369" lon="6.77828">
        <ele>1135</ele>
        <time>2023-08-21T12:18:26Z</time>
      </trkpt>
      <trkpt lat="45.66359" lon="6.77841">
        <ele>1135</ele>
        <time>2023-08-21T12:18:27Z</time>
      </trkpt>
      <trkpt lat="45.66349" lon="6.77855">
        <ele>1135</ele>
        <time>2023-08-21T12:18:28Z</time>
      </trkpt>
      <trkpt lat="45.6634" lon="6.77871">
        <ele>1135</ele>
        <time>2023-08-21T12:18:29Z</time>
      </trkpt>
      <trkpt lat="45.66332" lon="6.77887">
        <ele>1134</ele>
        <time>2023-08-21T12:18:30Z</time>
      </trkpt>
      <trkpt lat="45.66323" lon="6.77902">
        <ele>1134</ele>
        <time>2023-08-21T12:18:31Z</time>
      </trkpt>
      <trkpt lat="45.66313" lon="6.77914">
        <ele>1130.4</ele>
        <time>2023-08-21T12:18:32Z</time>
      </trkpt>
      <trkpt lat="45.66301" lon="6.77921">
        <ele>1130.4</ele>
        <time>2023-08-21T12:18:33Z</time>
      </trkpt>
      <trkpt lat="45.66287" lon="6.77923">
        <ele>1129.4</ele>
        <time>2023-08-21T12:18:34Z</time>
      </trkpt>
      <trkpt lat="45.66274" lon="6.77923">
        <ele>1129.4</ele>
        <time>2023-08-21T12:18:35Z</time>
      </trkpt>
      <trkpt lat="45.66262" lon="6.77922">
        <ele>1124.6</ele>
        <time>2023-08-21T12:18:36Z</time>
      </trkpt>
      <trkpt lat="45.66251" lon="6.77926">
        <ele>1124.6</ele>
        <time>2023-08-21T12:18:37Z</time>
      </trkpt>
      <trkpt lat="45.66241" lon="6.77934">
        <ele>1124.6</ele>
        <time>2023-08-21T12:18:38Z</time>
      </trkpt>
      <trkpt lat="45.66233" lon="6.77945">
        <ele>1123.6</ele>
        <time>2023-08-21T12:18:39Z</time>
      </trkpt>
      <trkpt lat="45.66225" lon="6.77957">
        <ele>1120.4</ele>
        <time>2023-08-21T12:18:40Z</time>
      </trkpt>
      <trkpt lat="45.66217" lon="6.7797">
        <ele>1120.4</ele>
        <time>2023-08-21T12:18:41Z</time>
      </trkpt>
      <trkpt lat="45.66208" lon="6.77983">
        <ele>1120.4</ele>
        <time>2023-08-21T12:18:42Z</time>
      </trkpt>
      <trkpt lat="45.66198" lon="6.77994">
        <ele>1119.4</ele>
        <time>2023-08-21T12:18:43Z</time>
      </trkpt>
      <trkpt lat="45.66187" lon="6.78004">
        <ele>1115.8</ele>
        <time>2023-08-21T12:18:44Z</time>
      </trkpt>
      <trkpt lat="45.66176" lon="6.78013">
        <ele>1115.8</ele>
        <time>2023-08-21T12:18:45Z</time>
      </trkpt>
      <trkpt lat="45.66165" lon="6.78021">
        <ele>1115.8</ele>
        <time>2023-08-21T12:18:46Z</time>
      </trkpt>
      <trkpt lat="45.66154" lon="6.7803">
        <ele>1115.8</ele>
        <time>2023-08-21T12:18:47Z</time>
      </trkpt>
      <trkpt lat="45.66144" lon="6.78039">
        <ele>1112.6</ele>
        <time>2023-08-21T12:18:48Z</time>
      </trkpt>
      <trkpt lat="45.66133" lon="6.78046">
        <ele>1112.6</ele>
        <time>2023-08-21T12:18:49Z</time>
      </trkpt>
      <trkpt lat="45.66121" lon="6.78054">
        <ele>1112.6</ele>
        <time>2023-08-21T12:18:50Z</time>
      </trkpt>
      <trkpt lat="45.6611" lon="6.78063">
        <ele>1112.6</ele>
        <time>2023-08-21T12:18:51Z</time>
      </trkpt>
      <trkpt lat="45.66101" lon="6.78074">
        <ele>1111.6</ele>
        <time>2023-08-21T12:18:52Z</time>
      </trkpt>
      <trkpt lat="45.66091" lon="6.78087">
        <ele>1108.2</ele>
        <time>2023-08-21T12:18:53Z</time>
      </trkpt>
      <trkpt lat="45.66082" lon="6.781">
        <ele>1108.2</ele>
        <time>2023-08-21T12:18:54Z</time>
      </trkpt>
      <trkpt lat="45.66073" lon="6.78114">
        <ele>1108.2</ele>
        <time>2023-08-21T12:18:55Z</time>
      </trkpt>
      <trkpt lat="45.66065" lon="6.78128">
        <ele>1107.2</ele>
        <time>2023-08-21T12:18:56Z</time>
      </trkpt>
      <trkpt lat="45.66057" lon="6.78142">
        <ele>1104.2</ele>
        <time>2023-08-21T12:18:57Z</time>
      </trkpt>
      <trkpt lat="45.66047" lon="6.78155">
        <ele>1104.2</ele>
        <time>2023-08-21T12:18:58Z</time>
      </trkpt>
      <trkpt lat="45.66035" lon="6.78165">
        <ele>1104.2</ele>
        <time>2023-08-21T12:18:59Z</time>
      </trkpt>
      <trkpt lat="45.66022" lon="6.7817">
        <ele>1103.2</ele>
        <time>2023-08-21T12:19:00Z</time>
      </trkpt>
      <trkpt lat="45.66009" lon="6.78171">
        <ele>1100</ele>
        <time>2023-08-21T12:19:01Z</time>
      </trkpt>
      <trkpt lat="45.65996" lon="6.78169">
        <ele>1100</ele>
        <time>2023-08-21T12:19:02Z</time>
      </trkpt>
      <trkpt lat="45.65982" lon="6.78168">
        <ele>1100</ele>
        <time>2023-08-21T12:19:03Z</time>
      </trkpt>
      <trkpt lat="45.65969" lon="6.78169">
        <ele>1100</ele>
        <time>2023-08-21T12:19:04Z</time>
      </trkpt>
      <trkpt lat="45.65955" lon="6.78172">
        <ele>1099</ele>
        <time>2023-08-21T12:19:05Z</time>
      </trkpt>
      <trkpt lat="45.65942" lon="6.78178">
        <ele>1094.4</ele>
        <time>2023-08-21T12:19:06Z</time>
      </trkpt>
      <trkpt lat="45.65931" lon="6.78187">
        <ele>1094.4</ele>
        <time>2023-08-21T12:19:07Z</time>
      </trkpt>
      <trkpt lat="45.6592" lon="6.782">
        <ele>1094.4</ele>
        <time>2023-08-21T12:19:08Z</time>
      </trkpt>
      <trkpt lat="45.6591" lon="6.78213">
        <ele>1094.4</ele>
        <time>2023-08-21T12:19:09Z</time>
      </trkpt>
      <trkpt lat="45.659" lon="6.78227">
        <ele>1093.4</ele>
        <time>2023-08-21T12:19:10Z</time>
      </trkpt>
      <trkpt lat="45.6589" lon="6.78242">
        <ele>1089.4</ele>
        <time>2023-08-21T12:19:11Z</time>
      </trkpt>
      <trkpt lat="45.65879" lon="6.78255">
        <ele>1089.4</ele>
        <time>2023-08-21T12:19:12Z</time>
      </trkpt>
      <trkpt lat="45.65867" lon="6.78266">
        <ele>1089.4</ele>
        <time>2023-08-21T12:19:13Z</time>
      </trkpt>
      <trkpt lat="45.65854" lon="6.78274">
        <ele>1088.4</ele>
        <time>2023-08-21T12:19:14Z</time>
      </trkpt>
      <trkpt lat="45.6584" lon="6.78281">
        <ele>1083.2</ele>
        <time>2023-08-21T12:19:15Z</time>
      </trkpt>
      <trkpt lat="45.65827" lon="6.78287">
        <ele>1083.2</ele>
        <time>2023-08-21T12:19:16Z</time>
      </trkpt>
      <trkpt lat="45.65812" lon="6.78293">
        <ele>1083.2</ele>
        <time>2023-08-21T12:19:17Z</time>
      </trkpt>
      <trkpt lat="45.65797" lon="6.78298">
        <ele>1082.2</ele>
        <time>2023-08-21T12:19:18Z</time>
      </trkpt>
      <trkpt lat="45.65783" lon="6.78303">
        <ele>1082.2</ele>
        <time>2023-08-21T12:19:19Z</time>
      </trkpt>
      <trkpt lat="45.65768" lon="6.7831">
        <ele>1076.4</ele>
        <time>2023-08-21T12:19:20Z</time>
      </trkpt>
      <trkpt lat="45.65753" lon="6.78318">
        <ele>1076.4</ele>
        <time>2023-08-21T12:19:21Z</time>
      </trkpt>
      <trkpt lat="45.65739" lon="6.78327">
        <ele>1076.4</ele>
        <time>2023-08-21T12:19:22Z</time>
      </trkpt>
      <trkpt lat="45.65725" lon="6.78337">
        <ele>1076.4</ele>
        <time>2023-08-21T12:19:23Z</time>
      </trkpt>
      <trkpt lat="45.65711" lon="6.78347">
        <ele>1070</ele>
        <time>2023-08-21T12:19:24Z</time>
      </trkpt>
      <trkpt lat="45.65696" lon="6.78357">
        <ele>1070</ele>
        <time>2023-08-21T12:19:25Z</time>
      </trkpt>
      <trkpt lat="45.65682" lon="6.78367">
        <ele>1070</ele>
        <time>2023-08-21T12:19:26Z</time>
      </trkpt>
      <trkpt lat="45.65669" lon="6.78378">
        <ele>1070</ele>
        <time>2023-08-21T12:19:27Z</time>
      </trkpt>
      <trkpt lat="45.65655" lon="6.78388">
        <ele>1064.4</ele>
        <time>2023-08-21T12:19:28Z</time>
      </trkpt>
      <trkpt lat="45.65642" lon="6.78401">
        <ele>1064.4</ele>
        <time>2023-08-21T12:19:29Z</time>
      </trkpt>
      <trkpt lat="45.6563" lon="6.78414">
        <ele>1064.4</ele>
        <time>2023-08-21T12:19:30Z</time>
      </trkpt>
      <trkpt lat="45.65618" lon="6.78428">
        <ele>1063.4</ele>
        <time>2023-08-21T12:19:31Z</time>
      </trkpt>
      <trkpt lat="45.65607" lon="6.78443">
        <ele>1063.4</ele>
        <time>2023-08-21T12:19:32Z</time>
      </trkpt>
      <trkpt lat="45.65594" lon="6.78457">
        <ele>1058.4</ele>
        <time>2023-08-21T12:19:33Z</time>
      </trkpt>
      <trkpt lat="45.65582" lon="6.7847">
        <ele>1058.4</ele>
        <time>2023-08-21T12:19:34Z</time>
      </trkpt>
      <trkpt lat="45.65569" lon="6.78483">
        <ele>1058.4</ele>
        <time>2023-08-21T12:19:35Z</time>
      </trkpt>
      <trkpt lat="45.65557" lon="6.78497">
        <ele>1057.4</ele>
        <time>2023-08-21T12:19:36Z</time>
      </trkpt>
      <trkpt lat="45.65544" lon="6.7851">
        <ele>1053.8</ele>
        <time>2023-08-21T12:19:37Z</time>
      </trkpt>
      <trkpt lat="45.65531" lon="6.78524">
        <ele>1053.8</ele>
        <time>2023-08-21T12:19:38Z</time>
      </trkpt>
      <trkpt lat="45.65519" lon="6.78537">
        <ele>1053.8</ele>
        <time>2023-08-21T12:19:39Z</time>
      </trkpt>
      <trkpt lat="45.65506" lon="6.7855">
        <ele>1052.8</ele>
        <time>2023-08-21T12:19:40Z</time>
      </trkpt>
      <trkpt lat="45.65494" lon="6.78563">
        <ele>1049.6</ele>
        <time>2023-08-21T12:19:41Z</time>
      </trkpt>
      <trkpt lat="45.65482" lon="6.78575">
        <ele>1049.6</ele>
        <time>2023-08-21T12:19:42Z</time>
      </trkpt>
      <trkpt lat="45.6547" lon="6.78587">
        <ele>1049.6</ele>
        <time>2023-08-21T12:19:43Z</time>
      </trkpt>
      <trkpt lat="45.65458" lon="6.786">
        <ele>1048.6</ele>
        <time>2023-08-21T12:19:44Z</time>
      </trkpt>
      <trkpt lat="45.65447" lon="6.78612">
        <ele>1048.6</ele>
        <time>2023-08-21T12:19:45Z</time>
      </trkpt>
      <trkpt lat="45.65435" lon="6.78624">
        <ele>1048.6</ele>
        <time>2023-08-21T12:19:46Z</time>
      </trkpt>
      <trkpt lat="45.65423" lon="6.78635">
        <ele>1043.4</ele>
        <time>2023-08-21T12:19:47Z</time>
      </trkpt>
      <trkpt lat="45.65411" lon="6.78644">
        <ele>1043.4</ele>
        <time>2023-08-21T12:19:48Z</time>
      </trkpt>
      <trkpt lat="45.65399" lon="6.78654">
        <ele>1043.4</ele>
        <time>2023-08-21T12:19:49Z</time>
      </trkpt>
      <trkpt lat="45.65388" lon="6.78664">
        <ele>1042.4</ele>
        <time>2023-08-21T12:19:50Z</time>
      </trkpt>
      <trkpt lat="45.65376" lon="6.78674">
        <ele>1042.4</ele>
        <time>2023-08-21T12:19:51Z</time>
      </trkpt>
      <trkpt lat="45.65365" lon="6.78683">
        <ele>1038</ele>
        <time>2023-08-21T12:19:52Z</time>
      </trkpt>
      <trkpt lat="45.65347" lon="6.78692">
        <ele>1038</ele>
        <time>2023-08-21T12:19:53Z</time>
      </trkpt>
      <trkpt lat="45.6534" lon="6.78693">
        <ele>1038</ele>
        <time>2023-08-21T12:19:54Z</time>
      </trkpt>
      <trkpt lat="45.65328" lon="6.78697">
        <ele>1038</ele>
        <time>2023-08-21T12:19:55Z</time>
      </trkpt>
      <trkpt lat="45.65315" lon="6.78697">
        <ele>1035</ele>
        <time>2023-08-21T12:19:56Z</time>
      </trkpt>
      <trkpt lat="45.65303" lon="6.78696">
        <ele>1035</ele>
        <time>2023-08-21T12:19:57Z</time>
      </trkpt>
      <trkpt lat="45.65291" lon="6.78695">
        <ele>1035</ele>
        <time>2023-08-21T12:19:58Z</time>
      </trkpt>
      <trkpt lat="45.65278" lon="6.78695">
        <ele>1034</ele>
        <time>2023-08-21T12:19:59Z</time>
      </trkpt>
      <trkpt lat="45.65266" lon="6.78697">
        <ele>1031</ele>
        <time>2023-08-21T12:20:00Z</time>
      </trkpt>
      <trkpt lat="45.65253" lon="6.787">
        <ele>1031</ele>
        <time>2023-08-21T12:20:01Z</time>
      </trkpt>
      <trkpt lat="45.65235" lon="6.78706">
        <ele>1031</ele>
        <time>2023-08-21T12:20:02Z</time>
      </trkpt>
      <trkpt lat="45.65229" lon="6.78708">
        <ele>1030</ele>
        <time>2023-08-21T12:20:03Z</time>
      </trkpt>
      <trkpt lat="45.65217" lon="6.78714">
        <ele>1026.8</ele>
        <time>2023-08-21T12:20:04Z</time>
      </trkpt>
      <trkpt lat="45.65204" lon="6.7872">
        <ele>1026.8</ele>
        <time>2023-08-21T12:20:05Z</time>
      </trkpt>
      <trkpt lat="45.65192" lon="6.78727">
        <ele>1026.8</ele>
        <time>2023-08-21T12:20:06Z</time>
      </trkpt>
      <trkpt lat="45.6518" lon="6.78736">
        <ele>1026.8</ele>
        <time>2023-08-21T12:20:07Z</time>
      </trkpt>
      <trkpt lat="45.65167" lon="6.78747">
        <ele>1025.8</ele>
        <time>2023-08-21T12:20:08Z</time>
      </trkpt>
      <trkpt lat="45.65155" lon="6.78756">
        <ele>1020.8</ele>
        <time>2023-08-21T12:20:09Z</time>
      </trkpt>
      <trkpt lat="45.65141" lon="6.78764">
        <ele>1020.8</ele>
        <time>2023-08-21T12:20:10Z</time>
      </trkpt>
      <trkpt lat="45.65127" lon="6.78768">
        <ele>1020.8</ele>
        <time>2023-08-21T12:20:11Z</time>
      </trkpt>
      <trkpt lat="45.65112" lon="6.78771">
        <ele>1019.8</ele>
        <time>2023-08-21T12:20:12Z</time>
      </trkpt>
      <trkpt lat="45.65097" lon="6.78773">
        <ele>1014.4</ele>
        <time>2023-08-21T12:20:13Z</time>
      </trkpt>
      <trkpt lat="45.65082" lon="6.78774">
        <ele>1014.4</ele>
        <time>2023-08-21T12:20:14Z</time>
      </trkpt>
      <trkpt lat="45.65067" lon="6.78775">
        <ele>1014.4</ele>
        <time>2023-08-21T12:20:15Z</time>
      </trkpt>
      <trkpt lat="45.65052" lon="6.78776">
        <ele>1013.4</ele>
        <time>2023-08-21T12:20:16Z</time>
      </trkpt>
      <trkpt lat="45.65037" lon="6.78779">
        <ele>1007.4</ele>
        <time>2023-08-21T12:20:17Z</time>
      </trkpt>
      <trkpt lat="45.65022" lon="6.78781">
        <ele>1007.4</ele>
        <time>2023-08-21T12:20:18Z</time>
      </trkpt>
      <trkpt lat="45.65005" lon="6.78782">
        <ele>1007.4</ele>
        <time>2023-08-21T12:20:19Z</time>
      </trkpt>
      <trkpt lat="45.6499" lon="6.78778">
        <ele>1007.4</ele>
        <time>2023-08-21T12:20:20Z</time>
      </trkpt>
      <trkpt lat="45.64977" lon="6.78771">
        <ele>1007.4</ele>
        <time>2023-08-21T12:20:21Z</time>
      </trkpt>
      <trkpt lat="45.64965" lon="6.78761">
        <ele>1002.4</ele>
        <time>2023-08-21T12:20:22Z</time>
      </trkpt>
      <trkpt lat="45.64952" lon="6.78752">
        <ele>1002.4</ele>
        <time>2023-08-21T12:20:23Z</time>
      </trkpt>
      <trkpt lat="45.6494" lon="6.78742">
        <ele>1002.4</ele>
        <time>2023-08-21T12:20:24Z</time>
      </trkpt>
      <trkpt lat="45.64927" lon="6.78733">
        <ele>1002.4</ele>
        <time>2023-08-21T12:20:25Z</time>
      </trkpt>
      <trkpt lat="45.64914" lon="6.78725">
        <ele>997.8</ele>
        <time>2023-08-21T12:20:26Z</time>
      </trkpt>
      <trkpt lat="45.64901" lon="6.78716">
        <ele>997.8</ele>
        <time>2023-08-21T12:20:27Z</time>
      </trkpt>
      <trkpt lat="45.64888" lon="6.78707">
        <ele>997.8</ele>
        <time>2023-08-21T12:20:28Z</time>
      </trkpt>
      <trkpt lat="45.64875" lon="6.78697">
        <ele>997.8</ele>
        <time>2023-08-21T12:20:29Z</time>
      </trkpt>
      <trkpt lat="45.64862" lon="6.78687">
        <ele>997.8</ele>
        <time>2023-08-21T12:20:30Z</time>
      </trkpt>
      <trkpt lat="45.6485" lon="6.78677">
        <ele>996.8</ele>
        <time>2023-08-21T12:20:31Z</time>
      </trkpt>
      <trkpt lat="45.64837" lon="6.78667">
        <ele>992.8</ele>
        <time>2023-08-21T12:20:32Z</time>
      </trkpt>
      <trkpt lat="45.64824" lon="6.78658">
        <ele>992.8</ele>
        <time>2023-08-21T12:20:33Z</time>
      </trkpt>
      <trkpt lat="45.64812" lon="6.7865">
        <ele>992.8</ele>
        <time>2023-08-21T12:20:34Z</time>
      </trkpt>
      <trkpt lat="45.64799" lon="6.78643">
        <ele>991.8</ele>
        <time>2023-08-21T12:20:35Z</time>
      </trkpt>
      <trkpt lat="45.64787" lon="6.78636">
        <ele>989.8</ele>
        <time>2023-08-21T12:20:36Z</time>
      </trkpt>
      <trkpt lat="45.64775" lon="6.78629">
        <ele>989.8</ele>
        <time>2023-08-21T12:20:37Z</time>
      </trkpt>
      <trkpt lat="45.64762" lon="6.78623">
        <ele>989.8</ele>
        <time>2023-08-21T12:20:38Z</time>
      </trkpt>
      <trkpt lat="45.64751" lon="6.78617">
        <ele>989.8</ele>
        <time>2023-08-21T12:20:39Z</time>
      </trkpt>
      <trkpt lat="45.64738" lon="6.78613">
        <ele>988.8</ele>
        <time>2023-08-21T12:20:40Z</time>
      </trkpt>
      <trkpt lat="45.64726" lon="6.78608">
        <ele>986</ele>
        <time>2023-08-21T12:20:41Z</time>
      </trkpt>
      <trkpt lat="45.64713" lon="6.78607">
        <ele>986</ele>
        <time>2023-08-21T12:20:42Z</time>
      </trkpt>
      <trkpt lat="45.64699" lon="6.78607">
        <ele>986</ele>
        <time>2023-08-21T12:20:43Z</time>
      </trkpt>
      <trkpt lat="45.64686" lon="6.78608">
        <ele>985</ele>
        <time>2023-08-21T12:20:44Z</time>
      </trkpt>
      <trkpt lat="45.64673" lon="6.78609">
        <ele>985</ele>
        <time>2023-08-21T12:20:45Z</time>
      </trkpt>
      <trkpt lat="45.64661" lon="6.7861">
        <ele>982.6</ele>
        <time>2023-08-21T12:20:46Z</time>
      </trkpt>
      <trkpt lat="45.64648" lon="6.7861">
        <ele>982.6</ele>
        <time>2023-08-21T12:20:47Z</time>
      </trkpt>
      <trkpt lat="45.64634" lon="6.78609">
        <ele>982.6</ele>
        <time>2023-08-21T12:20:48Z</time>
      </trkpt>
      <trkpt lat="45.64623" lon="6.78607">
        <ele>982.6</ele>
        <time>2023-08-21T12:20:49Z</time>
      </trkpt>
      <trkpt lat="45.64612" lon="6.78604">
        <ele>980.8</ele>
        <time>2023-08-21T12:20:50Z</time>
      </trkpt>
      <trkpt lat="45.646" lon="6.78601">
        <ele>980.8</ele>
        <time>2023-08-21T12:20:51Z</time>
      </trkpt>
      <trkpt lat="45.64589" lon="6.78598">
        <ele>980.8</ele>
        <time>2023-08-21T12:20:52Z</time>
      </trkpt>
      <trkpt lat="45.64577" lon="6.78595">
        <ele>980.8</ele>
        <time>2023-08-21T12:20:53Z</time>
      </trkpt>
      <trkpt lat="45.64566" lon="6.78592">
        <ele>980.6</ele>
        <time>2023-08-21T12:20:54Z</time>
      </trkpt>
      <trkpt lat="45.64555" lon="6.78591">
        <ele>980.6</ele>
        <time>2023-08-21T12:20:55Z</time>
      </trkpt>
      <trkpt lat="45.64544" lon="6.7859">
        <ele>980.6</ele>
        <time>2023-08-21T12:20:56Z</time>
      </trkpt>
      <trkpt lat="45.64533" lon="6.78592">
        <ele>979.6</ele>
        <time>2023-08-21T12:20:57Z</time>
      </trkpt>
      <trkpt lat="45.64523" lon="6.78592">
        <ele>977.6</ele>
        <time>2023-08-21T12:20:58Z</time>
      </trkpt>
      <trkpt lat="45.64512" lon="6.78592">
        <ele>977.6</ele>
        <time>2023-08-21T12:20:59Z</time>
      </trkpt>
      <trkpt lat="45.64501" lon="6.78593">
        <ele>977.6</ele>
        <time>2023-08-21T12:21:00Z</time>
      </trkpt>
      <trkpt lat="45.6449" lon="6.78594">
        <ele>976.6</ele>
        <time>2023-08-21T12:21:01Z</time>
      </trkpt>
      <trkpt lat="45.64479" lon="6.78593">
        <ele>976.6</ele>
        <time>2023-08-21T12:21:02Z</time>
      </trkpt>
      <trkpt lat="45.64468" lon="6.78594">
        <ele>976.2</ele>
        <time>2023-08-21T12:21:03Z</time>
      </trkpt>
      <trkpt lat="45.64457" lon="6.78595">
        <ele>976.2</ele>
        <time>2023-08-21T12:21:04Z</time>
      </trkpt>
      <trkpt lat="45.64447" lon="6.78597">
        <ele>976.2</ele>
        <time>2023-08-21T12:21:05Z</time>
      </trkpt>
      <trkpt lat="45.64435" lon="6.786">
        <ele>975.2</ele>
        <time>2023-08-21T12:21:06Z</time>
      </trkpt>
      <trkpt lat="45.64425" lon="6.78602">
        <ele>974.2</ele>
        <time>2023-08-21T12:21:07Z</time>
      </trkpt>
      <trkpt lat="45.64414" lon="6.78604">
        <ele>974.2</ele>
        <time>2023-08-21T12:21:08Z</time>
      </trkpt>
      <trkpt lat="45.64403" lon="6.78605">
        <ele>974.2</ele>
        <time>2023-08-21T12:21:09Z</time>
      </trkpt>
      <trkpt lat="45.64392" lon="6.78607">
        <ele>973.2</ele>
        <time>2023-08-21T12:21:10Z</time>
      </trkpt>
      <trkpt lat="45.64381" lon="6.78609">
        <ele>973.2</ele>
        <time>2023-08-21T12:21:11Z</time>
      </trkpt>
      <trkpt lat="45.6437" lon="6.78611">
        <ele>973.2</ele>
        <time>2023-08-21T12:21:12Z</time>
      </trkpt>
      <trkpt lat="45.64358" lon="6.78612">
        <ele>972.4</ele>
        <time>2023-08-21T12:21:13Z</time>
      </trkpt>
      <trkpt lat="45.64347" lon="6.78613">
        <ele>972.4</ele>
        <time>2023-08-21T12:21:14Z</time>
      </trkpt>
      <trkpt lat="45.64336" lon="6.78612">
        <ele>972.4</ele>
        <time>2023-08-21T12:21:15Z</time>
      </trkpt>
      <trkpt lat="45.64324" lon="6.78611">
        <ele>972.4</ele>
        <time>2023-08-21T12:21:16Z</time>
      </trkpt>
      <trkpt lat="45.64313" lon="6.7861">
        <ele>970.6</ele>
        <time>2023-08-21T12:21:17Z</time>
      </trkpt>
      <trkpt lat="45.64301" lon="6.78611">
        <ele>970.6</ele>
        <time>2023-08-21T12:21:18Z</time>
      </trkpt>
      <trkpt lat="45.6429" lon="6.78612">
        <ele>970.6</ele>
        <time>2023-08-21T12:21:19Z</time>
      </trkpt>
      <trkpt lat="45.64279" lon="6.78614">
        <ele>969.6</ele>
        <time>2023-08-21T12:21:20Z</time>
      </trkpt>
      <trkpt lat="45.64267" lon="6.78615">
        <ele>968.4</ele>
        <time>2023-08-21T12:21:21Z</time>
      </trkpt>
      <trkpt lat="45.64255" lon="6.78616">
        <ele>968.4</ele>
        <time>2023-08-21T12:21:22Z</time>
      </trkpt>
      <trkpt lat="45.64243" lon="6.78616">
        <ele>968.4</ele>
        <time>2023-08-21T12:21:23Z</time>
      </trkpt>
      <trkpt lat="45.64231" lon="6.78616">
        <ele>968.4</ele>
        <time>2023-08-21T12:21:24Z</time>
      </trkpt>
      <trkpt lat="45.64219" lon="6.78615">
        <ele>968.4</ele>
        <time>2023-08-21T12:21:25Z</time>
      </trkpt>
      <trkpt lat="45.64206" lon="6.78613">
        <ele>966.4</ele>
        <time>2023-08-21T12:21:26Z</time>
      </trkpt>
      <trkpt lat="45.64194" lon="6.7861">
        <ele>966.4</ele>
        <time>2023-08-21T12:21:27Z</time>
      </trkpt>
      <trkpt lat="45.64176" lon="6.78603">
        <ele>966.4</ele>
        <time>2023-08-21T12:21:28Z</time>
      </trkpt>
      <trkpt lat="45.6417" lon="6.786">
        <ele>966.4</ele>
        <time>2023-08-21T12:21:29Z</time>
      </trkpt>
      <trkpt lat="45.64159" lon="6.78595">
        <ele>964</ele>
        <time>2023-08-21T12:21:30Z</time>
      </trkpt>
      <trkpt lat="45.64149" lon="6.78586">
        <ele>964</ele>
        <time>2023-08-21T12:21:31Z</time>
      </trkpt>
      <trkpt lat="45.64139" lon="6.78577">
        <ele>964</ele>
        <time>2023-08-21T12:21:32Z</time>
      </trkpt>
      <trkpt lat="45.64128" lon="6.7857">
        <ele>963</ele>
        <time>2023-08-21T12:21:33Z</time>
      </trkpt>
      <trkpt lat="45.64119" lon="6.78563">
        <ele>963</ele>
        <time>2023-08-21T12:21:34Z</time>
      </trkpt>
      <trkpt lat="45.64109" lon="6.78558">
        <ele>962</ele>
        <time>2023-08-21T12:21:35Z</time>
      </trkpt>
      <trkpt lat="45.64099" lon="6.78551">
        <ele>962</ele>
        <time>2023-08-21T12:21:36Z</time>
      </trkpt>
      <trkpt lat="45.6409" lon="6.78544">
        <ele>962</ele>
        <time>2023-08-21T12:21:37Z</time>
      </trkpt>
      <trkpt lat="45.64081" lon="6.78538">
        <ele>961.2</ele>
        <time>2023-08-21T12:21:38Z</time>
      </trkpt>
      <trkpt lat="45.64072" lon="6.78532">
        <ele>961</ele>
        <time>2023-08-21T12:21:39Z</time>
      </trkpt>
      <trkpt lat="45.64063" lon="6.78527">
        <ele>961</ele>
        <time>2023-08-21T12:21:40Z</time>
      </trkpt>
      <trkpt lat="45.64054" lon="6.78522">
        <ele>961</ele>
        <time>2023-08-21T12:21:41Z</time>
      </trkpt>
      <trkpt lat="45.64045" lon="6.78516">
        <ele>961</ele>
        <time>2023-08-21T12:21:42Z</time>
      </trkpt>
      <trkpt lat="45.64035" lon="6.78513">
        <ele>960</ele>
        <time>2023-08-21T12:21:43Z</time>
      </trkpt>
      <trkpt lat="45.64025" lon="6.78514">
        <ele>960</ele>
        <time>2023-08-21T12:21:44Z</time>
      </trkpt>
      <trkpt lat="45.64016" lon="6.78513">
        <ele>960</ele>
        <time>2023-08-21T12:21:45Z</time>
      </trkpt>
      <trkpt lat="45.64007" lon="6.78514">
        <ele>959</ele>
        <time>2023-08-21T12:21:46Z</time>
      </trkpt>
      <trkpt lat="45.63998" lon="6.78514">
        <ele>959</ele>
        <time>2023-08-21T12:21:47Z</time>
      </trkpt>
      <trkpt lat="45.63989" lon="6.78513">
        <ele>958.8</ele>
        <time>2023-08-21T12:21:48Z</time>
      </trkpt>
      <trkpt lat="45.6398" lon="6.78511">
        <ele>958.8</ele>
        <time>2023-08-21T12:21:49Z</time>
      </trkpt>
      <trkpt lat="45.63972" lon="6.78507">
        <ele>958.8</ele>
        <time>2023-08-21T12:21:50Z</time>
      </trkpt>
      <trkpt lat="45.63964" lon="6.78503">
        <ele>958.8</ele>
        <time>2023-08-21T12:21:51Z</time>
      </trkpt>
      <trkpt lat="45.63957" lon="6.78497">
        <ele>959</ele>
        <time>2023-08-21T12:21:52Z</time>
      </trkpt>
      <trkpt lat="45.6395" lon="6.78492">
        <ele>959</ele>
        <time>2023-08-21T12:21:53Z</time>
      </trkpt>
      <trkpt lat="45.63944" lon="6.78485">
        <ele>959</ele>
        <time>2023-08-21T12:21:54Z</time>
      </trkpt>
      <trkpt lat="45.63939" lon="6.78479">
        <ele>959</ele>
        <time>2023-08-21T12:21:55Z</time>
      </trkpt>
      <trkpt lat="45.63933" lon="6.78473">
        <ele>959</ele>
        <time>2023-08-21T12:21:56Z</time>
      </trkpt>
      <trkpt lat="45.63929" lon="6.78466">
        <ele>959.4</ele>
        <time>2023-08-21T12:21:57Z</time>
      </trkpt>
      <trkpt lat="45.63924" lon="6.78459">
        <ele>959.4</ele>
        <time>2023-08-21T12:21:58Z</time>
      </trkpt>
      <trkpt lat="45.63919" lon="6.78453">
        <ele>959.4</ele>
        <time>2023-08-21T12:21:59Z</time>
      </trkpt>
      <trkpt lat="45.63915" lon="6.78447">
        <ele>959.4</ele>
        <time>2023-08-21T12:22:00Z</time>
      </trkpt>
      <trkpt lat="45.63909" lon="6.78441">
        <ele>960</ele>
        <time>2023-08-21T12:22:01Z</time>
      </trkpt>
      <trkpt lat="45.63903" lon="6.78439">
        <ele>960</ele>
        <time>2023-08-21T12:22:02Z</time>
      </trkpt>
      <trkpt lat="45.63895" lon="6.78439">
        <ele>960</ele>
        <time>2023-08-21T12:22:03Z</time>
      </trkpt>
      <trkpt lat="45.63887" lon="6.78441">
        <ele>960</ele>
        <time>2023-08-21T12:22:04Z</time>
      </trkpt>
      <trkpt lat="45.6388" lon="6.78443">
        <ele>959.4</ele>
        <time>2023-08-21T12:22:05Z</time>
      </trkpt>
      <trkpt lat="45.63873" lon="6.78446">
        <ele>959.4</ele>
        <time>2023-08-21T12:22:06Z</time>
      </trkpt>
      <trkpt lat="45.63865" lon="6.78448">
        <ele>959.4</ele>
        <time>2023-08-21T12:22:07Z</time>
      </trkpt>
      <trkpt lat="45.63857" lon="6.7845">
        <ele>959.4</ele>
        <time>2023-08-21T12:22:08Z</time>
      </trkpt>
      <trkpt lat="45.63848" lon="6.78451">
        <ele>958.4</ele>
        <time>2023-08-21T12:22:09Z</time>
      </trkpt>
      <trkpt lat="45.6384" lon="6.78452">
        <ele>958.4</ele>
        <time>2023-08-21T12:22:10Z</time>
      </trkpt>
      <trkpt lat="45.63831" lon="6.78452">
        <ele>958</ele>
        <time>2023-08-21T12:22:11Z</time>
      </trkpt>
      <trkpt lat="45.63823" lon="6.78452">
        <ele>958</ele>
        <time>2023-08-21T12:22:12Z</time>
      </trkpt>
      <trkpt lat="45.63815" lon="6.7845">
        <ele>957.8</ele>
        <time>2023-08-21T12:22:13Z</time>
      </trkpt>
      <trkpt lat="45.63806" lon="6.78447">
        <ele>957.8</ele>
        <time>2023-08-21T12:22:14Z</time>
      </trkpt>
      <trkpt lat="45.63798" lon="6.78447">
        <ele>957.4</ele>
        <time>2023-08-21T12:22:15Z</time>
      </trkpt>
      <trkpt lat="45.63789" lon="6.78448">
        <ele>957.4</ele>
        <time>2023-08-21T12:22:16Z</time>
      </trkpt>
      <trkpt lat="45.63781" lon="6.7845">
        <ele>957.4</ele>
        <time>2023-08-21T12:22:17Z</time>
      </trkpt>
      <trkpt lat="45.63773" lon="6.78453">
        <ele>956.4</ele>
        <time>2023-08-21T12:22:18Z</time>
      </trkpt>
      <trkpt lat="45.63765" lon="6.78455">
        <ele>956</ele>
        <time>2023-08-21T12:22:19Z</time>
      </trkpt>
      <trkpt lat="45.63756" lon="6.78458">
        <ele>956</ele>
        <time>2023-08-21T12:22:20Z</time>
      </trkpt>
      <trkpt lat="45.63748" lon="6.78461">
        <ele>956</ele>
        <time>2023-08-21T12:22:21Z</time>
      </trkpt>
      <trkpt lat="45.63739" lon="6.78463">
        <ele>956</ele>
        <time>2023-08-21T12:22:22Z</time>
      </trkpt>
      <trkpt lat="45.6373" lon="6.78466">
        <ele>956</ele>
        <time>2023-08-21T12:22:23Z</time>
      </trkpt>
      <trkpt lat="45.63722" lon="6.7847">
        <ele>955.4</ele>
        <time>2023-08-21T12:22:24Z</time>
      </trkpt>
      <trkpt lat="45.63714" lon="6.78474">
        <ele>955.4</ele>
        <time>2023-08-21T12:22:25Z</time>
      </trkpt>
      <trkpt lat="45.63706" lon="6.78477">
        <ele>955</ele>
        <time>2023-08-21T12:22:26Z</time>
      </trkpt>
      <trkpt lat="45.63699" lon="6.78482">
        <ele>955</ele>
        <time>2023-08-21T12:22:27Z</time>
      </trkpt>
      <trkpt lat="45.63692" lon="6.78486">
        <ele>955.8</ele>
        <time>2023-08-21T12:22:28Z</time>
      </trkpt>
      <trkpt lat="45.63685" lon="6.78491">
        <ele>955.8</ele>
        <time>2023-08-21T12:22:29Z</time>
      </trkpt>
      <trkpt lat="45.63678" lon="6.78497">
        <ele>955.8</ele>
        <time>2023-08-21T12:22:30Z</time>
      </trkpt>
      <trkpt lat="45.63672" lon="6.78503">
        <ele>956</ele>
        <time>2023-08-21T12:22:31Z</time>
      </trkpt>
      <trkpt lat="45.63667" lon="6.7851">
        <ele>955.6</ele>
        <time>2023-08-21T12:22:32Z</time>
      </trkpt>
      <trkpt lat="45.6366" lon="6.78516">
        <ele>955.6</ele>
        <time>2023-08-21T12:22:33Z</time>
      </trkpt>
      <trkpt lat="45.63653" lon="6.78521">
        <ele>955.6</ele>
        <time>2023-08-21T12:22:34Z</time>
      </trkpt>
      <trkpt lat="45.63644" lon="6.78525">
        <ele>954.8</ele>
        <time>2023-08-21T12:22:35Z</time>
      </trkpt>
      <trkpt lat="45.63636" lon="6.78528">
        <ele>954.8</ele>
        <time>2023-08-21T12:22:36Z</time>
      </trkpt>
      <trkpt lat="45.63627" lon="6.78531">
        <ele>954.8</ele>
        <time>2023-08-21T12:22:37Z</time>
      </trkpt>
      <trkpt lat="45.63617" lon="6.78532">
        <ele>954.8</ele>
        <time>2023-08-21T12:22:38Z</time>
      </trkpt>
      <trkpt lat="45.63608" lon="6.78535">
        <ele>954.8</ele>
        <time>2023-08-21T12:22:39Z</time>
      </trkpt>
      <trkpt lat="45.63599" lon="6.78539">
        <ele>954.8</ele>
        <time>2023-08-21T12:22:40Z</time>
      </trkpt>
      <trkpt lat="45.63589" lon="6.78544">
        <ele>953.8</ele>
        <time>2023-08-21T12:22:41Z</time>
      </trkpt>
      <trkpt lat="45.63579" lon="6.78549">
        <ele>952.6</ele>
        <time>2023-08-21T12:22:42Z</time>
      </trkpt>
      <trkpt lat="45.63569" lon="6.78553">
        <ele>952.6</ele>
        <time>2023-08-21T12:22:43Z</time>
      </trkpt>
      <trkpt lat="45.63559" lon="6.78555">
        <ele>952.6</ele>
        <time>2023-08-21T12:22:44Z</time>
      </trkpt>
      <trkpt lat="45.63549" lon="6.78556">
        <ele>952.6</ele>
        <time>2023-08-21T12:22:45Z</time>
      </trkpt>
      <trkpt lat="45.63539" lon="6.78555">
        <ele>951.4</ele>
        <time>2023-08-21T12:22:46Z</time>
      </trkpt>
      <trkpt lat="45.63529" lon="6.78554">
        <ele>951.4</ele>
        <time>2023-08-21T12:22:47Z</time>
      </trkpt>
      <trkpt lat="45.63519" lon="6.78553">
        <ele>951.4</ele>
        <time>2023-08-21T12:22:48Z</time>
      </trkpt>
      <trkpt lat="45.6351" lon="6.78552">
        <ele>951.4</ele>
        <time>2023-08-21T12:22:49Z</time>
      </trkpt>
      <trkpt lat="45.63501" lon="6.7855">
        <ele>950.8</ele>
        <time>2023-08-21T12:22:50Z</time>
      </trkpt>
      <trkpt lat="45.63492" lon="6.78548">
        <ele>950</ele>
        <time>2023-08-21T12:22:51Z</time>
      </trkpt>
      <trkpt lat="45.63484" lon="6.78544">
        <ele>950</ele>
        <time>2023-08-21T12:22:52Z</time>
      </trkpt>
      <trkpt lat="45.63475" lon="6.78542">
        <ele>950</ele>
        <time>2023-08-21T12:22:53Z</time>
      </trkpt>
      <trkpt lat="45.63467" lon="6.7854">
        <ele>950.4</ele>
        <time>2023-08-21T12:22:54Z</time>
      </trkpt>
      <trkpt lat="45.6346" lon="6.78541">
        <ele>950.4</ele>
        <time>2023-08-21T12:22:55Z</time>
      </trkpt>
      <trkpt lat="45.63453" lon="6.78541">
        <ele>950.4</ele>
        <time>2023-08-21T12:22:56Z</time>
      </trkpt>
      <trkpt lat="45.63446" lon="6.78544">
        <ele>950.4</ele>
        <time>2023-08-21T12:22:57Z</time>
      </trkpt>
      <trkpt lat="45.63439" lon="6.78547">
        <ele>950.4</ele>
        <time>2023-08-21T12:22:58Z</time>
      </trkpt>
      <trkpt lat="45.63432" lon="6.78548">
        <ele>950.6</ele>
        <time>2023-08-21T12:22:59Z</time>
      </trkpt>
      <trkpt lat="45.63425" lon="6.78549">
        <ele>950.6</ele>
        <time>2023-08-21T12:23:00Z</time>
      </trkpt>
      <trkpt lat="45.63417" lon="6.78548">
        <ele>950.6</ele>
        <time>2023-08-21T12:23:01Z</time>
      </trkpt>
      <trkpt lat="45.63409" lon="6.78547">
        <ele>950.6</ele>
        <time>2023-08-21T12:23:02Z</time>
      </trkpt>
      <trkpt lat="45.63401" lon="6.78545">
        <ele>949.8</ele>
        <time>2023-08-21T12:23:03Z</time>
      </trkpt>
      <trkpt lat="45.63394" lon="6.7854">
        <ele>949</ele>
        <time>2023-08-21T12:23:04Z</time>
      </trkpt>
      <trkpt lat="45.63387" lon="6.78534">
        <ele>949</ele>
        <time>2023-08-21T12:23:05Z</time>
      </trkpt>
      <trkpt lat="45.63379" lon="6.78528">
        <ele>949</ele>
        <time>2023-08-21T12:23:06Z</time>
      </trkpt>
      <trkpt lat="45.63372" lon="6.78523">
        <ele>949</ele>
        <time>2023-08-21T12:23:07Z</time>
      </trkpt>
      <trkpt lat="45.63364" lon="6.78516">
        <ele>948.4</ele>
        <time>2023-08-21T12:23:08Z</time>
      </trkpt>
      <trkpt lat="45.63356" lon="6.78511">
        <ele>948.4</ele>
        <time>2023-08-21T12:23:09Z</time>
      </trkpt>
      <trkpt lat="45.63348" lon="6.78507">
        <ele>948.4</ele>
        <time>2023-08-21T12:23:10Z</time>
      </trkpt>
      <trkpt lat="45.63339" lon="6.78504">
        <ele>947.4</ele>
        <time>2023-08-21T12:23:11Z</time>
      </trkpt>
      <trkpt lat="45.63331" lon="6.78499">
        <ele>947.4</ele>
        <time>2023-08-21T12:23:12Z</time>
      </trkpt>
      <trkpt lat="45.63324" lon="6.78491">
        <ele>946.8</ele>
        <time>2023-08-21T12:23:13Z</time>
      </trkpt>
      <trkpt lat="45.63316" lon="6.78485">
        <ele>946.8</ele>
        <time>2023-08-21T12:23:14Z</time>
      </trkpt>
      <trkpt lat="45.63308" lon="6.78479">
        <ele>946.8</ele>
        <time>2023-08-21T12:23:15Z</time>
      </trkpt>
      <trkpt lat="45.633" lon="6.78473">
        <ele>946.2</ele>
        <time>2023-08-21T12:23:16Z</time>
      </trkpt>
      <trkpt lat="45.63292" lon="6.78468">
        <ele>946.4</ele>
        <time>2023-08-21T12:23:17Z</time>
      </trkpt>
      <trkpt lat="45.63285" lon="6.78463">
        <ele>946.4</ele>
        <time>2023-08-21T12:23:18Z</time>
      </trkpt>
      <trkpt lat="45.63277" lon="6.78457">
        <ele>946.4</ele>
        <time>2023-08-21T12:23:19Z</time>
      </trkpt>
      <trkpt lat="45.6327" lon="6.78451">
        <ele>946.4</ele>
        <time>2023-08-21T12:23:20Z</time>
      </trkpt>
      <trkpt lat="45.63264" lon="6.78444">
        <ele>946</ele>
        <time>2023-08-21T12:23:21Z</time>
      </trkpt>
      <trkpt lat="45.63257" lon="6.78438">
        <ele>946.4</ele>
        <time>2023-08-21T12:23:22Z</time>
      </trkpt>
      <trkpt lat="45.63252" lon="6.78432">
        <ele>946.4</ele>
        <time>2023-08-21T12:23:23Z</time>
      </trkpt>
      <trkpt lat="45.63246" lon="6.78426">
        <ele>946.4</ele>
        <time>2023-08-21T12:23:24Z</time>
      </trkpt>
      <trkpt lat="45.63239" lon="6.78421">
        <ele>946.4</ele>
        <time>2023-08-21T12:23:25Z</time>
      </trkpt>
      <trkpt lat="45.63232" lon="6.78417">
        <ele>946</ele>
        <time>2023-08-21T12:23:26Z</time>
      </trkpt>
      <trkpt lat="45.63225" lon="6.78414">
        <ele>946.2</ele>
        <time>2023-08-21T12:23:27Z</time>
      </trkpt>
      <trkpt lat="45.63218" lon="6.78414">
        <ele>946.2</ele>
        <time>2023-08-21T12:23:28Z</time>
      </trkpt>
      <trkpt lat="45.63211" lon="6.78413">
        <ele>946.2</ele>
        <time>2023-08-21T12:23:29Z</time>
      </trkpt>
      <trkpt lat="45.63204" lon="6.78413">
        <ele>946.2</ele>
        <time>2023-08-21T12:23:30Z</time>
      </trkpt>
      <trkpt lat="45.63196" lon="6.78413">
        <ele>945.8</ele>
        <time>2023-08-21T12:23:31Z</time>
      </trkpt>
      <trkpt lat="45.63188" lon="6.78411">
        <ele>945.8</ele>
        <time>2023-08-21T12:23:32Z</time>
      </trkpt>
      <trkpt lat="45.6318" lon="6.78412">
        <ele>945.8</ele>
        <time>2023-08-21T12:23:33Z</time>
      </trkpt>
      <trkpt lat="45.63173" lon="6.78413">
        <ele>945.2</ele>
        <time>2023-08-21T12:23:34Z</time>
      </trkpt>
      <trkpt lat="45.63165" lon="6.78415">
        <ele>945.2</ele>
        <time>2023-08-21T12:23:35Z</time>
      </trkpt>
      <trkpt lat="45.63158" lon="6.78417">
        <ele>945</ele>
        <time>2023-08-21T12:23:36Z</time>
      </trkpt>
      <trkpt lat="45.6315" lon="6.78418">
        <ele>945</ele>
        <time>2023-08-21T12:23:37Z</time>
      </trkpt>
      <trkpt lat="45.63143" lon="6.78418">
        <ele>945</ele>
        <time>2023-08-21T12:23:38Z</time>
      </trkpt>
      <trkpt lat="45.63136" lon="6.78419">
        <ele>945</ele>
        <time>2023-08-21T12:23:39Z</time>
      </trkpt>
      <trkpt lat="45.63129" lon="6.78419">
        <ele>944.4</ele>
        <time>2023-08-21T12:23:40Z</time>
      </trkpt>
      <trkpt lat="45.63122" lon="6.78419">
        <ele>944.4</ele>
        <time>2023-08-21T12:23:41Z</time>
      </trkpt>
      <trkpt lat="45.63114" lon="6.78419">
        <ele>944.4</ele>
        <time>2023-08-21T12:23:42Z</time>
      </trkpt>
      <trkpt lat="45.63107" lon="6.78417">
        <ele>943.4</ele>
        <time>2023-08-21T12:23:43Z</time>
      </trkpt>
      <trkpt lat="45.631" lon="6.78415">
        <ele>943.6</ele>
        <time>2023-08-21T12:23:44Z</time>
      </trkpt>
      <trkpt lat="45.63092" lon="6.78413">
        <ele>943.6</ele>
        <time>2023-08-21T12:23:45Z</time>
      </trkpt>
      <trkpt lat="45.63085" lon="6.7841">
        <ele>943.6</ele>
        <time>2023-08-21T12:23:46Z</time>
      </trkpt>
      <trkpt lat="45.63077" lon="6.78408">
        <ele>943.6</ele>
        <time>2023-08-21T12:23:47Z</time>
      </trkpt>
      <trkpt lat="45.63069" lon="6.78406">
        <ele>942.8</ele>
        <time>2023-08-21T12:23:48Z</time>
      </trkpt>
      <trkpt lat="45.63061" lon="6.78403">
        <ele>942.8</ele>
        <time>2023-08-21T12:23:49Z</time>
      </trkpt>
      <trkpt lat="45.63053" lon="6.784">
        <ele>942.8</ele>
        <time>2023-08-21T12:23:50Z</time>
      </trkpt>
      <trkpt lat="45.63045" lon="6.78397">
        <ele>942.8</ele>
        <time>2023-08-21T12:23:51Z</time>
      </trkpt>
      <trkpt lat="45.63037" lon="6.78393">
        <ele>941.8</ele>
        <time>2023-08-21T12:23:52Z</time>
      </trkpt>
      <trkpt lat="45.63029" lon="6.78389">
        <ele>941.4</ele>
        <time>2023-08-21T12:23:53Z</time>
      </trkpt>
      <trkpt lat="45.63021" lon="6.78385">
        <ele>941.4</ele>
        <time>2023-08-21T12:23:54Z</time>
      </trkpt>
      <trkpt lat="45.63012" lon="6.7838">
        <ele>941.4</ele>
        <time>2023-08-21T12:23:55Z</time>
      </trkpt>
      <trkpt lat="45.63004" lon="6.78375">
        <ele>940.4</ele>
        <time>2023-08-21T12:23:56Z</time>
      </trkpt>
      <trkpt lat="45.62996" lon="6.7837">
        <ele>940</ele>
        <time>2023-08-21T12:23:57Z</time>
      </trkpt>
      <trkpt lat="45.62989" lon="6.78363">
        <ele>940</ele>
        <time>2023-08-21T12:23:58Z</time>
      </trkpt>
      <trkpt lat="45.62981" lon="6.78356">
        <ele>940</ele>
        <time>2023-08-21T12:23:59Z</time>
      </trkpt>
      <trkpt lat="45.62973" lon="6.78349">
        <ele>939</ele>
        <time>2023-08-21T12:24:00Z</time>
      </trkpt>
      <trkpt lat="45.62966" lon="6.78341">
        <ele>937.4</ele>
        <time>2023-08-21T12:24:01Z</time>
      </trkpt>
      <trkpt lat="45.62958" lon="6.78333">
        <ele>937.4</ele>
        <time>2023-08-21T12:24:02Z</time>
      </trkpt>
      <trkpt lat="45.6295" lon="6.78325">
        <ele>937.4</ele>
        <time>2023-08-21T12:24:03Z</time>
      </trkpt>
      <trkpt lat="45.62942" lon="6.78318">
        <ele>937.4</ele>
        <time>2023-08-21T12:24:04Z</time>
      </trkpt>
      <trkpt lat="45.62934" lon="6.78311">
        <ele>937.4</ele>
        <time>2023-08-21T12:24:05Z</time>
      </trkpt>
      <trkpt lat="45.62927" lon="6.78304">
        <ele>937.4</ele>
        <time>2023-08-21T12:24:06Z</time>
      </trkpt>
      <trkpt lat="45.6292" lon="6.78298">
        <ele>934</ele>
        <time>2023-08-21T12:24:07Z</time>
      </trkpt>
      <trkpt lat="45.62912" lon="6.78295">
        <ele>934</ele>
        <time>2023-08-21T12:24:08Z</time>
      </trkpt>
      <trkpt lat="45.62905" lon="6.78295">
        <ele>934</ele>
        <time>2023-08-21T12:24:09Z</time>
      </trkpt>
      <trkpt lat="45.62897" lon="6.783">
        <ele>933</ele>
        <time>2023-08-21T12:24:10Z</time>
      </trkpt>
      <trkpt lat="45.6289" lon="6.78306">
        <ele>931.6</ele>
        <time>2023-08-21T12:24:11Z</time>
      </trkpt>
      <trkpt lat="45.62884" lon="6.78314">
        <ele>931.6</ele>
        <time>2023-08-21T12:24:12Z</time>
      </trkpt>
      <trkpt lat="45.62879" lon="6.78324">
        <ele>931.6</ele>
        <time>2023-08-21T12:24:13Z</time>
      </trkpt>
      <trkpt lat="45.62876" lon="6.78335">
        <ele>931.6</ele>
        <time>2023-08-21T12:24:14Z</time>
      </trkpt>
      <trkpt lat="45.62875" lon="6.78347">
        <ele>930.6</ele>
        <time>2023-08-21T12:24:15Z</time>
      </trkpt>
      <trkpt lat="45.62875" lon="6.7836">
        <ele>928.6</ele>
        <time>2023-08-21T12:24:16Z</time>
      </trkpt>
      <trkpt lat="45.62876" lon="6.78373">
        <ele>928.6</ele>
        <time>2023-08-21T12:24:17Z</time>
      </trkpt>
      <trkpt lat="45.62878" lon="6.78386">
        <ele>928.6</ele>
        <time>2023-08-21T12:24:18Z</time>
      </trkpt>
      <trkpt lat="45.6288" lon="6.78399">
        <ele>928.6</ele>
        <time>2023-08-21T12:24:19Z</time>
      </trkpt>
      <trkpt lat="45.62881" lon="6.78413">
        <ele>926.2</ele>
        <time>2023-08-21T12:24:20Z</time>
      </trkpt>
      <trkpt lat="45.62883" lon="6.78427">
        <ele>926.2</ele>
        <time>2023-08-21T12:24:21Z</time>
      </trkpt>
      <trkpt lat="45.62886" lon="6.7844">
        <ele>926.2</ele>
        <time>2023-08-21T12:24:22Z</time>
      </trkpt>
      <trkpt lat="45.62889" lon="6.78453">
        <ele>925.2</ele>
        <time>2023-08-21T12:24:23Z</time>
      </trkpt>
      <trkpt lat="45.62894" lon="6.78465">
        <ele>925.2</ele>
        <time>2023-08-21T12:24:24Z</time>
      </trkpt>
      <trkpt lat="45.62901" lon="6.78476">
        <ele>923.6</ele>
        <time>2023-08-21T12:24:25Z</time>
      </trkpt>
      <trkpt lat="45.62909" lon="6.78484">
        <ele>923.6</ele>
        <time>2023-08-21T12:24:26Z</time>
      </trkpt>
      <trkpt lat="45.62918" lon="6.78491">
        <ele>923.6</ele>
        <time>2023-08-21T12:24:27Z</time>
      </trkpt>
      <trkpt lat="45.62927" lon="6.78497">
        <ele>922.6</ele>
        <time>2023-08-21T12:24:28Z</time>
      </trkpt>
      <trkpt lat="45.62937" lon="6.78504">
        <ele>920.8</ele>
        <time>2023-08-21T12:24:29Z</time>
      </trkpt>
      <trkpt lat="45.62947" lon="6.7851">
        <ele>920.8</ele>
        <time>2023-08-21T12:24:30Z</time>
      </trkpt>
      <trkpt lat="45.62957" lon="6.78516">
        <ele>920.8</ele>
        <time>2023-08-21T12:24:31Z</time>
      </trkpt>
      <trkpt lat="45.62967" lon="6.78522">
        <ele>920.8</ele>
        <time>2023-08-21T12:24:32Z</time>
      </trkpt>
      <trkpt lat="45.62977" lon="6.78528">
        <ele>918.2</ele>
        <time>2023-08-21T12:24:33Z</time>
      </trkpt>
      <trkpt lat="45.62986" lon="6.78533">
        <ele>918.2</ele>
        <time>2023-08-21T12:24:34Z</time>
      </trkpt>
      <trkpt lat="45.62995" lon="6.78537">
        <ele>918.2</ele>
        <time>2023-08-21T12:24:35Z</time>
      </trkpt>
      <trkpt lat="45.63001" lon="6.78542">
        <ele>918.2</ele>
        <time>2023-08-21T12:24:36Z</time>
      </trkpt>
      <trkpt lat="45.63005" lon="6.78548">
        <ele>917.2</ele>
        <time>2023-08-21T12:24:37Z</time>
      </trkpt>
      <trkpt lat="45.63006" lon="6.78555">
        <ele>915.4</ele>
        <time>2023-08-21T12:24:38Z</time>
      </trkpt>
      <trkpt lat="45.63004" lon="6.7856">
        <ele>915.4</ele>
        <time>2023-08-21T12:24:39Z</time>
      </trkpt>
      <trkpt lat="45.63001" lon="6.78563">
        <ele>915.4</ele>
        <time>2023-08-21T12:24:40Z</time>
      </trkpt>
      <trkpt lat="45.62997" lon="6.78563">
        <ele>915.4</ele>
        <time>2023-08-21T12:24:41Z</time>
      </trkpt>
      <trkpt lat="45.62992" lon="6.78562">
        <ele>914.4</ele>
        <time>2023-08-21T12:24:42Z</time>
      </trkpt>
      <trkpt lat="45.62987" lon="6.78559">
        <ele>914.4</ele>
        <time>2023-08-21T12:24:43Z</time>
      </trkpt>
      <trkpt lat="45.62982" lon="6.78556">
        <ele>914.4</ele>
        <time>2023-08-21T12:24:44Z</time>
      </trkpt>
      <trkpt lat="45.62977" lon="6.78553">
        <ele>913.4</ele>
        <time>2023-08-21T12:24:45Z</time>
      </trkpt>
      <trkpt lat="45.62971" lon="6.78549">
        <ele>913.4</ele>
        <time>2023-08-21T12:24:46Z</time>
      </trkpt>
      <trkpt lat="45.62966" lon="6.78545">
        <ele>912.4</ele>
        <time>2023-08-21T12:24:47Z</time>
      </trkpt>
      <trkpt lat="45.6296" lon="6.78541">
        <ele>912.4</ele>
        <time>2023-08-21T12:24:48Z</time>
      </trkpt>
      <trkpt lat="45.62954" lon="6.78539">
        <ele>912.4</ele>
        <time>2023-08-21T12:24:49Z</time>
      </trkpt>
      <trkpt lat="45.62947" lon="6.78537">
        <ele>912.4</ele>
        <time>2023-08-21T12:24:50Z</time>
      </trkpt>
      <trkpt lat="45.62941" lon="6.78536">
        <ele>912.4</ele>
        <time>2023-08-21T12:24:51Z</time>
      </trkpt>
      <trkpt lat="45.62935" lon="6.78535">
        <ele>912.4</ele>
        <time>2023-08-21T12:24:52Z</time>
      </trkpt>
      <trkpt lat="45.62928" lon="6.78534">
        <ele>911.4</ele>
        <time>2023-08-21T12:24:53Z</time>
      </trkpt>
      <trkpt lat="45.62921" lon="6.78533">
        <ele>911.4</ele>
        <time>2023-08-21T12:24:54Z</time>
      </trkpt>
      <trkpt lat="45.62914" lon="6.78531">
        <ele>910.4</ele>
        <time>2023-08-21T12:24:55Z</time>
      </trkpt>
      <trkpt lat="45.62906" lon="6.78528">
        <ele>910.4</ele>
        <time>2023-08-21T12:24:56Z</time>
      </trkpt>
      <trkpt lat="45.62899" lon="6.78524">
        <ele>909.6</ele>
        <time>2023-08-21T12:24:57Z</time>
      </trkpt>
      <trkpt lat="45.62892" lon="6.78518">
        <ele>909.6</ele>
        <time>2023-08-21T12:24:58Z</time>
      </trkpt>
      <trkpt lat="45.62885" lon="6.78511">
        <ele>909.6</ele>
        <time>2023-08-21T12:24:59Z</time>
      </trkpt>
      <trkpt lat="45.62878" lon="6.78504">
        <ele>908.6</ele>
        <time>2023-08-21T12:25:00Z</time>
      </trkpt>
      <trkpt lat="45.62871" lon="6.78497">
        <ele>907.4</ele>
        <time>2023-08-21T12:25:01Z</time>
      </trkpt>
      <trkpt lat="45.62864" lon="6.78489">
        <ele>907.4</ele>
        <time>2023-08-21T12:25:02Z</time>
      </trkpt>
      <trkpt lat="45.62857" lon="6.7848">
        <ele>907.4</ele>
        <time>2023-08-21T12:25:03Z</time>
      </trkpt>
      <trkpt lat="45.62851" lon="6.78472">
        <ele>906.4</ele>
        <time>2023-08-21T12:25:04Z</time>
      </trkpt>
      <trkpt lat="45.62846" lon="6.78464">
        <ele>906.4</ele>
        <time>2023-08-21T12:25:05Z</time>
      </trkpt>
      <trkpt lat="45.62842" lon="6.78455">
        <ele>904.6</ele>
        <time>2023-08-21T12:25:06Z</time>
      </trkpt>
      <trkpt lat="45.62837" lon="6.78446">
        <ele>904.6</ele>
        <time>2023-08-21T12:25:07Z</time>
      </trkpt>
      <trkpt lat="45.62833" lon="6.78437">
        <ele>903.6</ele>
        <time>2023-08-21T12:25:08Z</time>
      </trkpt>
      <trkpt lat="45.62829" lon="6.78429">
        <ele>903.6</ele>
        <time>2023-08-21T12:25:09Z</time>
      </trkpt>
      <trkpt lat="45.62825" lon="6.78421">
        <ele>902.6</ele>
        <time>2023-08-21T12:25:10Z</time>
      </trkpt>
      <trkpt lat="45.6282" lon="6.78414">
        <ele>902.6</ele>
        <time>2023-08-21T12:25:11Z</time>
      </trkpt>
      <trkpt lat="45.62814" lon="6.78409">
        <ele>902.6</ele>
        <time>2023-08-21T12:25:12Z</time>
      </trkpt>
      <trkpt lat="45.62808" lon="6.78403">
        <ele>901.6</ele>
        <time>2023-08-21T12:25:13Z</time>
      </trkpt>
      <trkpt lat="45.62801" lon="6.78396">
        <ele>900.8</ele>
        <time>2023-08-21T12:25:14Z</time>
      </trkpt>
      <trkpt lat="45.62795" lon="6.78388">
        <ele>900.8</ele>
        <time>2023-08-21T12:25:15Z</time>
      </trkpt>
      <trkpt lat="45.6279" lon="6.78379">
        <ele>900.8</ele>
        <time>2023-08-21T12:25:16Z</time>
      </trkpt>
      <trkpt lat="45.62785" lon="6.78369">
        <ele>900.8</ele>
        <time>2023-08-21T12:25:17Z</time>
      </trkpt>
      <trkpt lat="45.62781" lon="6.78358">
        <ele>900.8</ele>
        <time>2023-08-21T12:25:18Z</time>
      </trkpt>
      <trkpt lat="45.62779" lon="6.78345">
        <ele>898.2</ele>
        <time>2023-08-21T12:25:19Z</time>
      </trkpt>
      <trkpt lat="45.62776" lon="6.78332">
        <ele>898.2</ele>
        <time>2023-08-21T12:25:20Z</time>
      </trkpt>
      <trkpt lat="45.62774" lon="6.78319">
        <ele>898.2</ele>
        <time>2023-08-21T12:25:21Z</time>
      </trkpt>
      <trkpt lat="45.62772" lon="6.78305">
        <ele>897.2</ele>
        <time>2023-08-21T12:25:22Z</time>
      </trkpt>
      <trkpt lat="45.62769" lon="6.78292">
        <ele>895.2</ele>
        <time>2023-08-21T12:25:23Z</time>
      </trkpt>
      <trkpt lat="45.62767" lon="6.78278">
        <ele>895.2</ele>
        <time>2023-08-21T12:25:24Z</time>
      </trkpt>
      <trkpt lat="45.62765" lon="6.78263">
        <ele>895.2</ele>
        <time>2023-08-21T12:25:25Z</time>
      </trkpt>
      <trkpt lat="45.62763" lon="6.78249">
        <ele>894.2</ele>
        <time>2023-08-21T12:25:26Z</time>
      </trkpt>
      <trkpt lat="45.62761" lon="6.78234">
        <ele>891.6</ele>
        <time>2023-08-21T12:25:27Z</time>
      </trkpt>
      <trkpt lat="45.62758" lon="6.7822">
        <ele>891.6</ele>
        <time>2023-08-21T12:25:28Z</time>
      </trkpt>
      <trkpt lat="45.62755" lon="6.78205">
        <ele>891.6</ele>
        <time>2023-08-21T12:25:29Z</time>
      </trkpt>
      <trkpt lat="45.62751" lon="6.78191">
        <ele>891.6</ele>
        <time>2023-08-21T12:25:30Z</time>
      </trkpt>
      <trkpt lat="45.62745" lon="6.78177">
        <ele>891.6</ele>
        <time>2023-08-21T12:25:31Z</time>
      </trkpt>
      <trkpt lat="45.6274" lon="6.78163">
        <ele>890.6</ele>
        <time>2023-08-21T12:25:32Z</time>
      </trkpt>
      <trkpt lat="45.62733" lon="6.78149">
        <ele>888.8</ele>
        <time>2023-08-21T12:25:33Z</time>
      </trkpt>
      <trkpt lat="45.62727" lon="6.78136">
        <ele>888.8</ele>
        <time>2023-08-21T12:25:34Z</time>
      </trkpt>
      <trkpt lat="45.6272" lon="6.78123">
        <ele>888.8</ele>
        <time>2023-08-21T12:25:35Z</time>
      </trkpt>
      <trkpt lat="45.62714" lon="6.78109">
        <ele>887.8</ele>
        <time>2023-08-21T12:25:36Z</time>
      </trkpt>
      <trkpt lat="45.62707" lon="6.78096">
        <ele>885.2</ele>
        <time>2023-08-21T12:25:37Z</time>
      </trkpt>
      <trkpt lat="45.627" lon="6.78082">
        <ele>885.2</ele>
        <time>2023-08-21T12:25:38Z</time>
      </trkpt>
      <trkpt lat="45.62694" lon="6.78068">
        <ele>885.2</ele>
        <time>2023-08-21T12:25:39Z</time>
      </trkpt>
      <trkpt lat="45.62689" lon="6.78053">
        <ele>885.2</ele>
        <time>2023-08-21T12:25:40Z</time>
      </trkpt>
      <trkpt lat="45.62684" lon="6.78038">
        <ele>884.2</ele>
        <time>2023-08-21T12:25:41Z</time>
      </trkpt>
      <trkpt lat="45.62679" lon="6.78022">
        <ele>882.2</ele>
        <time>2023-08-21T12:25:42Z</time>
      </trkpt>
      <trkpt lat="45.62675" lon="6.78006">
        <ele>882.2</ele>
        <time>2023-08-21T12:25:43Z</time>
      </trkpt>
      <trkpt lat="45.6267" lon="6.77991">
        <ele>882.2</ele>
        <time>2023-08-21T12:25:44Z</time>
      </trkpt>
      <trkpt lat="45.62664" lon="6.77977">
        <ele>881.2</ele>
        <time>2023-08-21T12:25:45Z</time>
      </trkpt>
      <trkpt lat="45.62657" lon="6.77964">
        <ele>878</ele>
        <time>2023-08-21T12:25:46Z</time>
      </trkpt>
      <trkpt lat="45.62649" lon="6.77951">
        <ele>878</ele>
        <time>2023-08-21T12:25:47Z</time>
      </trkpt>
      <trkpt lat="45.62641" lon="6.7794">
        <ele>878</ele>
        <time>2023-08-21T12:25:48Z</time>
      </trkpt>
      <trkpt lat="45.62632" lon="6.7793">
        <ele>878</ele>
        <time>2023-08-21T12:25:49Z</time>
      </trkpt>
      <trkpt lat="45.62623" lon="6.77919">
        <ele>877</ele>
        <time>2023-08-21T12:25:50Z</time>
      </trkpt>
      <trkpt lat="45.62618" lon="6.77906">
        <ele>874.6</ele>
        <time>2023-08-21T12:25:51Z</time>
      </trkpt>
      <trkpt lat="45.62616" lon="6.77891">
        <ele>874.6</ele>
        <time>2023-08-21T12:25:52Z</time>
      </trkpt>
      <trkpt lat="45.62617" lon="6.77875">
        <ele>874.6</ele>
        <time>2023-08-21T12:25:53Z</time>
      </trkpt>
      <trkpt lat="45.6262" lon="6.77859">
        <ele>873.6</ele>
        <time>2023-08-21T12:25:54Z</time>
      </trkpt>
      <trkpt lat="45.62622" lon="6.77843">
        <ele>869.8</ele>
        <time>2023-08-21T12:25:55Z</time>
      </trkpt>
      <trkpt lat="45.62625" lon="6.77828">
        <ele>869.8</ele>
        <time>2023-08-21T12:25:56Z</time>
      </trkpt>
      <trkpt lat="45.62626" lon="6.77815">
        <ele>869.8</ele>
        <time>2023-08-21T12:25:57Z</time>
      </trkpt>
      <trkpt lat="45.62625" lon="6.77802">
        <ele>869.8</ele>
        <time>2023-08-21T12:25:58Z</time>
      </trkpt>
      <trkpt lat="45.62622" lon="6.77789">
        <ele>868.8</ele>
        <time>2023-08-21T12:25:59Z</time>
      </trkpt>
      <trkpt lat="45.62614" lon="6.77783">
        <ele>866.8</ele>
        <time>2023-08-21T12:26:00Z</time>
      </trkpt>
      <trkpt lat="45.62606" lon="6.77777">
        <ele>866.8</ele>
        <time>2023-08-21T12:26:01Z</time>
      </trkpt>
      <trkpt lat="45.62596" lon="6.77775">
        <ele>866.8</ele>
        <time>2023-08-21T12:26:02Z</time>
      </trkpt>
      <trkpt lat="45.62586" lon="6.77775">
        <ele>865.8</ele>
        <time>2023-08-21T12:26:03Z</time>
      </trkpt>
      <trkpt lat="45.62575" lon="6.77776">
        <ele>863.8</ele>
        <time>2023-08-21T12:26:04Z</time>
      </trkpt>
      <trkpt lat="45.62565" lon="6.77778">
        <ele>863.8</ele>
        <time>2023-08-21T12:26:05Z</time>
      </trkpt>
      <trkpt lat="45.62554" lon="6.7778">
        <ele>863.8</ele>
        <time>2023-08-21T12:26:06Z</time>
      </trkpt>
      <trkpt lat="45.62543" lon="6.7778">
        <ele>862.8</ele>
        <time>2023-08-21T12:26:07Z</time>
      </trkpt>
      <trkpt lat="45.62533" lon="6.77774">
        <ele>860</ele>
        <time>2023-08-21T12:26:08Z</time>
      </trkpt>
      <trkpt lat="45.62527" lon="6.77764">
        <ele>860</ele>
        <time>2023-08-21T12:26:09Z</time>
      </trkpt>
      <trkpt lat="45.62521" lon="6.77751">
        <ele>860</ele>
        <time>2023-08-21T12:26:10Z</time>
      </trkpt>
      <trkpt lat="45.62516" lon="6.77738">
        <ele>859</ele>
        <time>2023-08-21T12:26:11Z</time>
      </trkpt>
      <trkpt lat="45.6251" lon="6.77724">
        <ele>859</ele>
        <time>2023-08-21T12:26:12Z</time>
      </trkpt>
      <trkpt lat="45.62506" lon="6.7771">
        <ele>856.8</ele>
        <time>2023-08-21T12:26:13Z</time>
      </trkpt>
      <trkpt lat="45.62502" lon="6.77695">
        <ele>856.8</ele>
        <time>2023-08-21T12:26:14Z</time>
      </trkpt>
      <trkpt lat="45.62501" lon="6.77679">
        <ele>856.8</ele>
        <time>2023-08-21T12:26:15Z</time>
      </trkpt>
      <trkpt lat="45.625" lon="6.77663">
        <ele>855.8</ele>
        <time>2023-08-21T12:26:16Z</time>
      </trkpt>
      <trkpt lat="45.625" lon="6.77647">
        <ele>855.8</ele>
        <time>2023-08-21T12:26:17Z</time>
      </trkpt>
      <trkpt lat="45.62502" lon="6.77631">
        <ele>852.6</ele>
        <time>2023-08-21T12:26:18Z</time>
      </trkpt>
      <trkpt lat="45.62506" lon="6.77615">
        <ele>852.6</ele>
        <time>2023-08-21T12:26:19Z</time>
      </trkpt>
      <trkpt lat="45.62509" lon="6.77599">
        <ele>852.6</ele>
        <time>2023-08-21T12:26:20Z</time>
      </trkpt>
      <trkpt lat="45.62511" lon="6.77584">
        <ele>851.6</ele>
        <time>2023-08-21T12:26:21Z</time>
      </trkpt>
      <trkpt lat="45.6251" lon="6.77568">
        <ele>851.6</ele>
        <time>2023-08-21T12:26:22Z</time>
      </trkpt>
      <trkpt lat="45.62506" lon="6.77553">
        <ele>850.4</ele>
        <time>2023-08-21T12:26:23Z</time>
      </trkpt>
      <trkpt lat="45.62502" lon="6.77538">
        <ele>850.4</ele>
        <time>2023-08-21T12:26:24Z</time>
      </trkpt>
      <trkpt lat="45.62496" lon="6.77524">
        <ele>849.4</ele>
        <time>2023-08-21T12:26:25Z</time>
      </trkpt>
      <trkpt lat="45.6249" lon="6.7751">
        <ele>849.4</ele>
        <time>2023-08-21T12:26:26Z</time>
      </trkpt>
      <trkpt lat="45.62485" lon="6.77495">
        <ele>846.8</ele>
        <time>2023-08-21T12:26:27Z</time>
      </trkpt>
      <trkpt lat="45.62479" lon="6.77481">
        <ele>846.8</ele>
        <time>2023-08-21T12:26:28Z</time>
      </trkpt>
      <trkpt lat="45.62473" lon="6.77467">
        <ele>846.8</ele>
        <time>2023-08-21T12:26:29Z</time>
      </trkpt>
      <trkpt lat="45.62469" lon="6.77452">
        <ele>845.8</ele>
        <time>2023-08-21T12:26:30Z</time>
      </trkpt>
      <trkpt lat="45.62464" lon="6.77437">
        <ele>843</ele>
        <time>2023-08-21T12:26:31Z</time>
      </trkpt>
      <trkpt lat="45.6246" lon="6.77421">
        <ele>843</ele>
        <time>2023-08-21T12:26:32Z</time>
      </trkpt>
      <trkpt lat="45.62455" lon="6.77406">
        <ele>843</ele>
        <time>2023-08-21T12:26:33Z</time>
      </trkpt>
      <trkpt lat="45.6245" lon="6.77391">
        <ele>842</ele>
        <time>2023-08-21T12:26:34Z</time>
      </trkpt>
      <trkpt lat="45.62445" lon="6.77377">
        <ele>840.2</ele>
        <time>2023-08-21T12:26:35Z</time>
      </trkpt>
      <trkpt lat="45.62439" lon="6.77363">
        <ele>840.2</ele>
        <time>2023-08-21T12:26:36Z</time>
      </trkpt>
      <trkpt lat="45.62433" lon="6.77349">
        <ele>840.2</ele>
        <time>2023-08-21T12:26:37Z</time>
      </trkpt>
      <trkpt lat="45.62428" lon="6.77335">
        <ele>839.2</ele>
        <time>2023-08-21T12:26:38Z</time>
      </trkpt>
      <trkpt lat="45.62422" lon="6.77321">
        <ele>837</ele>
        <time>2023-08-21T12:26:39Z</time>
      </trkpt>
      <trkpt lat="45.62418" lon="6.77306">
        <ele>837</ele>
        <time>2023-08-21T12:26:40Z</time>
      </trkpt>
      <trkpt lat="45.62413" lon="6.77292">
        <ele>837</ele>
        <time>2023-08-21T12:26:41Z</time>
      </trkpt>
      <trkpt lat="45.62408" lon="6.77278">
        <ele>837</ele>
        <time>2023-08-21T12:26:42Z</time>
      </trkpt>
      <trkpt lat="45.62402" lon="6.77264">
        <ele>836</ele>
        <time>2023-08-21T12:26:43Z</time>
      </trkpt>
      <trkpt lat="45.62396" lon="6.7725">
        <ele>834</ele>
        <time>2023-08-21T12:26:44Z</time>
      </trkpt>
      <trkpt lat="45.6239" lon="6.77237">
        <ele>834</ele>
        <time>2023-08-21T12:26:45Z</time>
      </trkpt>
      <trkpt lat="45.62383" lon="6.77225">
        <ele>834</ele>
        <time>2023-08-21T12:26:46Z</time>
      </trkpt>
      <trkpt lat="45.62376" lon="6.77213">
        <ele>833</ele>
        <time>2023-08-21T12:26:47Z</time>
      </trkpt>
      <trkpt lat="45.62369" lon="6.77201">
        <ele>831</ele>
        <time>2023-08-21T12:26:48Z</time>
      </trkpt>
      <trkpt lat="45.62362" lon="6.77189">
        <ele>831</ele>
        <time>2023-08-21T12:26:49Z</time>
      </trkpt>
      <trkpt lat="45.62356" lon="6.77177">
        <ele>831</ele>
        <time>2023-08-21T12:26:50Z</time>
      </trkpt>
      <trkpt lat="45.62349" lon="6.77166">
        <ele>831</ele>
        <time>2023-08-21T12:26:51Z</time>
      </trkpt>
      <trkpt lat="45.62341" lon="6.77155">
        <ele>830</ele>
        <time>2023-08-21T12:26:52Z</time>
      </trkpt>
      <trkpt lat="45.62334" lon="6.77145">
        <ele>828</ele>
        <time>2023-08-21T12:26:53Z</time>
      </trkpt>
      <trkpt lat="45.62326" lon="6.77135">
        <ele>828</ele>
        <time>2023-08-21T12:26:54Z</time>
      </trkpt>
      <trkpt lat="45.62317" lon="6.77127">
        <ele>828</ele>
        <time>2023-08-21T12:26:55Z</time>
      </trkpt>
      <trkpt lat="45.62307" lon="6.77121">
        <ele>828</ele>
        <time>2023-08-21T12:26:56Z</time>
      </trkpt>
      <trkpt lat="45.62297" lon="6.77115">
        <ele>827</ele>
        <time>2023-08-21T12:26:57Z</time>
      </trkpt>
      <trkpt lat="45.62288" lon="6.77109">
        <ele>825.6</ele>
        <time>2023-08-21T12:26:58Z</time>
      </trkpt>
      <trkpt lat="45.62278" lon="6.77104">
        <ele>825.6</ele>
        <time>2023-08-21T12:26:59Z</time>
      </trkpt>
      <trkpt lat="45.62268" lon="6.77099">
        <ele>825.6</ele>
        <time>2023-08-21T12:27:00Z</time>
      </trkpt>
      <trkpt lat="45.62258" lon="6.77095">
        <ele>825.6</ele>
        <time>2023-08-21T12:27:01Z</time>
      </trkpt>
      <trkpt lat="45.62248" lon="6.77091">
        <ele>822.6</ele>
        <time>2023-08-21T12:27:02Z</time>
      </trkpt>
      <trkpt lat="45.62238" lon="6.77088">
        <ele>822.6</ele>
        <time>2023-08-21T12:27:03Z</time>
      </trkpt>
      <trkpt lat="45.62228" lon="6.77086">
        <ele>822.6</ele>
        <time>2023-08-21T12:27:04Z</time>
      </trkpt>
      <trkpt lat="45.62218" lon="6.77084">
        <ele>822.6</ele>
        <time>2023-08-21T12:27:05Z</time>
      </trkpt>
      <trkpt lat="45.62207" lon="6.77084">
        <ele>821.6</ele>
        <time>2023-08-21T12:27:06Z</time>
      </trkpt>
      <trkpt lat="45.62197" lon="6.77083">
        <ele>820.4</ele>
        <time>2023-08-21T12:27:07Z</time>
      </trkpt>
      <trkpt lat="45.62188" lon="6.77083">
        <ele>820.4</ele>
        <time>2023-08-21T12:27:08Z</time>
      </trkpt>
      <trkpt lat="45.6218" lon="6.77084">
        <ele>820.4</ele>
        <time>2023-08-21T12:27:09Z</time>
      </trkpt>
      <trkpt lat="45.62173" lon="6.77085">
        <ele>819.8</ele>
        <time>2023-08-21T12:27:10Z</time>
      </trkpt>
      <trkpt lat="45.62166" lon="6.77085">
        <ele>819.2</ele>
        <time>2023-08-21T12:27:11Z</time>
      </trkpt>
      <trkpt lat="45.6216" lon="6.77085">
        <ele>819.2</ele>
        <time>2023-08-21T12:27:12Z</time>
      </trkpt>
      <trkpt lat="45.62153" lon="6.77086">
        <ele>819.2</ele>
        <time>2023-08-21T12:27:13Z</time>
      </trkpt>
      <trkpt lat="45.62146" lon="6.77086">
        <ele>818.2</ele>
        <time>2023-08-21T12:27:14Z</time>
      </trkpt>
      <trkpt lat="45.6214" lon="6.77087">
        <ele>818.2</ele>
        <time>2023-08-21T12:27:15Z</time>
      </trkpt>
      <trkpt lat="45.62133" lon="6.77087">
        <ele>818.2</ele>
        <time>2023-08-21T12:27:16Z</time>
      </trkpt>
      <trkpt lat="45.62126" lon="6.77087">
        <ele>818.2</ele>
        <time>2023-08-21T12:27:17Z</time>
      </trkpt>
      <trkpt lat="45.6212" lon="6.77087">
        <ele>818.2</ele>
        <time>2023-08-21T12:27:18Z</time>
      </trkpt>
      <trkpt lat="45.62113" lon="6.77088">
        <ele>818.2</ele>
        <time>2023-08-21T12:27:19Z</time>
      </trkpt>
      <trkpt lat="45.62107" lon="6.77088">
        <ele>817.4</ele>
        <time>2023-08-21T12:27:20Z</time>
      </trkpt>
      <trkpt lat="45.62101" lon="6.77088">
        <ele>818.4</ele>
        <time>2023-08-21T12:27:21Z</time>
      </trkpt>
      <trkpt lat="45.62093" lon="6.77088">
        <ele>818.4</ele>
        <time>2023-08-21T12:27:22Z</time>
      </trkpt>
      <trkpt lat="45.6209" lon="6.77088">
        <ele>818.4</ele>
        <time>2023-08-21T12:27:23Z</time>
      </trkpt>
      <trkpt lat="45.62081" lon="6.77089">
        <ele>818.4</ele>
        <time>2023-08-21T12:27:24Z</time>
      </trkpt>
      <trkpt lat="45.62079" lon="6.77089">
        <ele>816.6</ele>
        <time>2023-08-21T12:27:25Z</time>
      </trkpt>
      <trkpt lat="45.62073" lon="6.77089">
        <ele>816.6</ele>
        <time>2023-08-21T12:27:26Z</time>
      </trkpt>
      <trkpt lat="45.62068" lon="6.7709">
        <ele>816.6</ele>
        <time>2023-08-21T12:27:27Z</time>
      </trkpt>
      <trkpt lat="45.62064" lon="6.77092">
        <ele>816.6</ele>
        <time>2023-08-21T12:27:28Z</time>
      </trkpt>
      <trkpt lat="45.62059" lon="6.77094">
        <ele>815.8</ele>
        <time>2023-08-21T12:27:29Z</time>
      </trkpt>
      <trkpt lat="45.62055" lon="6.77096">
        <ele>815.8</ele>
        <time>2023-08-21T12:27:30Z</time>
      </trkpt>
      <trkpt lat="45.62052" lon="6.77098">
        <ele>815.2</ele>
        <time>2023-08-21T12:27:31Z</time>
      </trkpt>
      <trkpt lat="45.6205" lon="6.771">
        <ele>815.2</ele>
        <time>2023-08-21T12:27:32Z</time>
      </trkpt>
      <trkpt lat="45.62048" lon="6.771">
        <ele>815.2</ele>
        <time>2023-08-21T12:27:33Z</time>
      </trkpt>
      <trkpt lat="45.62046" lon="6.77099">
        <ele>815.2</ele>
        <time>2023-08-21T12:27:34Z</time>
      </trkpt>
      <trkpt lat="45.62043" lon="6.77096">
        <ele>815.2</ele>
        <time>2023-08-21T12:27:35Z</time>
      </trkpt>
      <trkpt lat="45.62041" lon="6.77094">
        <ele>815.2</ele>
        <time>2023-08-21T12:27:36Z</time>
      </trkpt>
      <trkpt lat="45.62038" lon="6.77093">
        <ele>815.2</ele>
        <time>2023-08-21T12:27:37Z</time>
      </trkpt>
      <trkpt lat="45.62035" lon="6.77093">
        <ele>815.2</ele>
        <time>2023-08-21T12:27:38Z</time>
      </trkpt>
      <trkpt lat="45.62032" lon="6.77094">
        <ele>814.6</ele>
        <time>2023-08-21T12:27:39Z</time>
      </trkpt>
      <trkpt lat="45.62029" lon="6.77096">
        <ele>815</ele>
        <time>2023-08-21T12:27:40Z</time>
      </trkpt>
      <trkpt lat="45.62025" lon="6.77097">
        <ele>815</ele>
        <time>2023-08-21T12:27:41Z</time>
      </trkpt>
      <trkpt lat="45.62021" lon="6.77098">
        <ele>815</ele>
        <time>2023-08-21T12:27:42Z</time>
      </trkpt>
      <trkpt lat="45.62016" lon="6.77099">
        <ele>815</ele>
        <time>2023-08-21T12:27:43Z</time>
      </trkpt>
      <trkpt lat="45.62012" lon="6.77098">
        <ele>815</ele>
        <time>2023-08-21T12:27:44Z</time>
      </trkpt>
      <trkpt lat="45.62007" lon="6.77098">
        <ele>815.2</ele>
        <time>2023-08-21T12:27:45Z</time>
      </trkpt>
      <trkpt lat="45.62003" lon="6.77097">
        <ele>815.2</ele>
        <time>2023-08-21T12:27:46Z</time>
      </trkpt>
      <trkpt lat="45.61998" lon="6.77097">
        <ele>815.2</ele>
        <time>2023-08-21T12:27:47Z</time>
      </trkpt>
      <trkpt lat="45.61993" lon="6.77097">
        <ele>815.2</ele>
        <time>2023-08-21T12:27:48Z</time>
      </trkpt>
      <trkpt lat="45.61989" lon="6.77096">
        <ele>815.2</ele>
        <time>2023-08-21T12:27:49Z</time>
      </trkpt>
      <trkpt lat="45.61985" lon="6.77096">
        <ele>815.2</ele>
        <time>2023-08-21T12:27:50Z</time>
      </trkpt>
      <trkpt lat="45.6198" lon="6.77096">
        <ele>815.2</ele>
        <time>2023-08-21T12:27:51Z</time>
      </trkpt>
      <trkpt lat="45.61976" lon="6.77096">
        <ele>815</ele>
        <time>2023-08-21T12:27:52Z</time>
      </trkpt>
      <trkpt lat="45.61972" lon="6.77096">
        <ele>815</ele>
        <time>2023-08-21T12:27:53Z</time>
      </trkpt>
      <trkpt lat="45.6197" lon="6.77095">
        <ele>815</ele>
        <time>2023-08-21T12:27:54Z</time>
      </trkpt>
      <trkpt lat="45.61967" lon="6.77095">
        <ele>815</ele>
        <time>2023-08-21T12:27:55Z</time>
      </trkpt>
      <trkpt lat="45.61965" lon="6.77094">
        <ele>815</ele>
        <time>2023-08-21T12:27:56Z</time>
      </trkpt>
      <trkpt lat="45.61962" lon="6.77093">
        <ele>814.8</ele>
        <time>2023-08-21T12:27:57Z</time>
      </trkpt>
      <trkpt lat="45.61959" lon="6.77093">
        <ele>814.8</ele>
        <time>2023-08-21T12:27:58Z</time>
      </trkpt>
      <trkpt lat="45.61956" lon="6.77093">
        <ele>814.8</ele>
        <time>2023-08-21T12:27:59Z</time>
      </trkpt>
      <trkpt lat="45.61952" lon="6.77093">
        <ele>814.8</ele>
        <time>2023-08-21T12:28:00Z</time>
      </trkpt>
      <trkpt lat="45.61949" lon="6.77094">
        <ele>814.8</ele>
        <time>2023-08-21T12:28:01Z</time>
      </trkpt>
      <trkpt lat="45.61945" lon="6.77094">
        <ele>814.2</ele>
        <time>2023-08-21T12:28:02Z</time>
      </trkpt>
      <trkpt lat="45.61941" lon="6.77096">
        <ele>814.2</ele>
        <time>2023-08-21T12:28:03Z</time>
      </trkpt>
      <trkpt lat="45.61936" lon="6.77096">
        <ele>814.2</ele>
        <time>2023-08-21T12:28:04Z</time>
      </trkpt>
      <trkpt lat="45.61932" lon="6.77097">
        <ele>814.2</ele>
        <time>2023-08-21T12:28:05Z</time>
      </trkpt>
      <trkpt lat="45.61928" lon="6.77098">
        <ele>814.2</ele>
        <time>2023-08-21T12:28:06Z</time>
      </trkpt>
      <trkpt lat="45.61925" lon="6.77101">
        <ele>814.2</ele>
        <time>2023-08-21T12:28:07Z</time>
      </trkpt>
      <trkpt lat="45.61924" lon="6.77104">
        <ele>814.2</ele>
        <time>2023-08-21T12:28:08Z</time>
      </trkpt>
      <trkpt lat="45.61924" lon="6.77108">
        <ele>814.2</ele>
        <time>2023-08-21T12:28:09Z</time>
      </trkpt>
      <trkpt lat="45.61925" lon="6.77111">
        <ele>814.2</ele>
        <time>2023-08-21T12:28:10Z</time>
      </trkpt>
      <trkpt lat="45.61926" lon="6.77114">
        <ele>814.2</ele>
        <time>2023-08-21T12:28:11Z</time>
      </trkpt>
      <trkpt lat="45.61926" lon="6.77117">
        <ele>813.8</ele>
        <time>2023-08-21T12:28:12Z</time>
      </trkpt>
      <trkpt lat="45.61927" lon="6.7712">
        <ele>813.8</ele>
        <time>2023-08-21T12:28:13Z</time>
      </trkpt>
      <trkpt lat="45.61928" lon="6.77124">
        <ele>813.8</ele>
        <time>2023-08-21T12:28:14Z</time>
      </trkpt>
      <trkpt lat="45.61927" lon="6.77127">
        <ele>813.8</ele>
        <time>2023-08-21T12:28:15Z</time>
      </trkpt>
      <trkpt lat="45.61927" lon="6.7713">
        <ele>813.8</ele>
        <time>2023-08-21T12:28:16Z</time>
      </trkpt>
      <trkpt lat="45.61927" lon="6.77132">
        <ele>813.8</ele>
        <time>2023-08-21T12:28:17Z</time>
      </trkpt>
      <trkpt lat="45.61922" lon="6.77134">
        <ele>813.8</ele>
        <time>2023-08-21T12:28:18Z</time>
      </trkpt>
      <trkpt lat="45.61918" lon="6.77134">
        <ele>813.8</ele>
        <time>2023-08-21T12:28:19Z</time>
      </trkpt>
      <trkpt lat="45.61915" lon="6.77134">
        <ele>813.8</ele>
        <time>2023-08-21T12:28:20Z</time>
      </trkpt>
      <trkpt lat="45.61911" lon="6.77134">
        <ele>813.8</ele>
        <time>2023-08-21T12:28:21Z</time>
      </trkpt>
      <trkpt lat="45.61907" lon="6.77134">
        <ele>813.8</ele>
        <time>2023-08-21T12:28:22Z</time>
      </trkpt>
      <trkpt lat="45.61904" lon="6.77135">
        <ele>813.8</ele>
        <time>2023-08-21T12:28:23Z</time>
      </trkpt>
      <trkpt lat="45.619" lon="6.77135">
        <ele>815.6</ele>
        <time>2023-08-21T12:30:06Z</time>
      </trkpt>
      <trkpt lat="45.61896" lon="6.77135">
        <ele>815.4</ele>
        <time>2023-08-21T12:30:07Z</time>
      </trkpt>
      <trkpt lat="45.61893" lon="6.77135">
        <ele>815.4</ele>
        <time>2023-08-21T12:30:08Z</time>
      </trkpt>
      <trkpt lat="45.61894" lon="6.77128">
        <ele>815.4</ele>
        <time>2023-08-21T12:30:09Z</time>
      </trkpt>
      <trkpt lat="45.61895" lon="6.77125">
        <ele>815.4</ele>
        <time>2023-08-21T12:30:10Z</time>
      </trkpt>
      <trkpt lat="45.61896" lon="6.77123">
        <ele>815.4</ele>
        <time>2023-08-21T12:30:11Z</time>
      </trkpt>
      <trkpt lat="45.61896" lon="6.77121">
        <ele>815.2</ele>
        <time>2023-08-21T12:30:12Z</time>
      </trkpt>
      <trkpt lat="45.61896" lon="6.77121">
        <ele>815.2</ele>
        <time>2023-08-21T12:30:13Z</time>
      </trkpt>
      <trkpt lat="45.61896" lon="6.77121">
        <ele>815.2</ele>
        <time>2023-08-21T12:30:14Z</time>
      </trkpt>
      <trkpt lat="45.61898" lon="6.77118">
        <ele>814.8</ele>
        <time>2023-08-21T12:30:20Z</time>
      </trkpt>
      <trkpt lat="45.619" lon="6.77118">
        <ele>814.6</ele>
        <time>2023-08-21T12:30:21Z</time>
      </trkpt>
      <trkpt lat="45.61902" lon="6.77118">
        <ele>814.6</ele>
        <time>2023-08-21T12:30:22Z</time>
      </trkpt>
      <trkpt lat="45.61905" lon="6.77117">
        <ele>814.6</ele>
        <time>2023-08-21T12:30:23Z</time>
      </trkpt>
      <trkpt lat="45.61907" lon="6.77117">
        <ele>814.6</ele>
        <time>2023-08-21T12:30:24Z</time>
      </trkpt>
      <trkpt lat="45.6191" lon="6.77116">
        <ele>814.6</ele>
        <time>2023-08-21T12:30:25Z</time>
      </trkpt>
      <trkpt lat="45.61913" lon="6.77116">
        <ele>814.8</ele>
        <time>2023-08-21T12:30:26Z</time>
      </trkpt>
      <trkpt lat="45.61916" lon="6.77115">
        <ele>814.8</ele>
        <time>2023-08-21T12:30:27Z</time>
      </trkpt>
      <trkpt lat="45.61918" lon="6.77114">
        <ele>814.8</ele>
        <time>2023-08-21T12:30:28Z</time>
      </trkpt>
      <trkpt lat="45.61921" lon="6.77113">
        <ele>814.6</ele>
        <time>2023-08-21T12:30:29Z</time>
      </trkpt>
      <trkpt lat="45.61924" lon="6.77112">
        <ele>814.4</ele>
        <time>2023-08-21T12:30:30Z</time>
      </trkpt>
      <trkpt lat="45.61927" lon="6.77113">
        <ele>814.4</ele>
        <time>2023-08-21T12:30:31Z</time>
      </trkpt>
      <trkpt lat="45.61929" lon="6.77113">
        <ele>814.4</ele>
        <time>2023-08-21T12:30:32Z</time>
      </trkpt>
      <trkpt lat="45.61931" lon="6.77112">
        <ele>814.4</ele>
        <time>2023-08-21T12:30:33Z</time>
      </trkpt>
      <trkpt lat="45.61934" lon="6.7711">
        <ele>814.4</ele>
        <time>2023-08-21T12:30:34Z</time>
      </trkpt>
      <trkpt lat="45.61935" lon="6.77109">
        <ele>814.6</ele>
        <time>2023-08-21T12:30:35Z</time>
      </trkpt>
      <trkpt lat="45.61937" lon="6.77108">
        <ele>814.6</ele>
        <time>2023-08-21T12:30:36Z</time>
      </trkpt>
      <trkpt lat="45.61939" lon="6.77112">
        <ele>814.6</ele>
        <time>2023-08-21T12:30:37Z</time>
      </trkpt>
      <trkpt lat="45.61941" lon="6.77115">
        <ele>814.6</ele>
        <time>2023-08-21T12:30:38Z</time>
      </trkpt>
      <trkpt lat="45.61943" lon="6.77118">
        <ele>814.6</ele>
        <time>2023-08-21T12:30:39Z</time>
      </trkpt>
      <trkpt lat="45.61946" lon="6.77121">
        <ele>814.6</ele>
        <time>2023-08-21T12:30:40Z</time>
      </trkpt>
      <trkpt lat="45.61949" lon="6.77122">
        <ele>814.6</ele>
        <time>2023-08-21T12:30:41Z</time>
      </trkpt>
      <trkpt lat="45.61953" lon="6.77123">
        <ele>814.6</ele>
        <time>2023-08-21T12:30:42Z</time>
      </trkpt>
      <trkpt lat="45.61957" lon="6.77123">
        <ele>814.6</ele>
        <time>2023-08-21T12:30:43Z</time>
      </trkpt>
      <trkpt lat="45.6196" lon="6.77122">
        <ele>814.2</ele>
        <time>2023-08-21T12:30:44Z</time>
      </trkpt>
      <trkpt lat="45.61963" lon="6.77121">
        <ele>814.2</ele>
        <time>2023-08-21T12:30:45Z</time>
      </trkpt>
      <trkpt lat="45.61967" lon="6.7712">
        <ele>814.2</ele>
        <time>2023-08-21T12:30:46Z</time>
      </trkpt>
      <trkpt lat="45.6197" lon="6.77118">
        <ele>814.2</ele>
        <time>2023-08-21T12:30:47Z</time>
      </trkpt>
      <trkpt lat="45.61973" lon="6.77116">
        <ele>814.2</ele>
        <time>2023-08-21T12:30:48Z</time>
      </trkpt>
      <trkpt lat="45.61977" lon="6.77115">
        <ele>814.2</ele>
        <time>2023-08-21T12:30:49Z</time>
      </trkpt>
      <trkpt lat="45.6198" lon="6.77115">
        <ele>814.4</ele>
        <time>2023-08-21T12:30:50Z</time>
      </trkpt>
      <trkpt lat="45.61983" lon="6.77116">
        <ele>814.4</ele>
        <time>2023-08-21T12:30:51Z</time>
      </trkpt>
      <trkpt lat="45.61986" lon="6.77117">
        <ele>814.4</ele>
        <time>2023-08-21T12:30:52Z</time>
      </trkpt>
      <trkpt lat="45.61991" lon="6.77121">
        <ele>814.8</ele>
        <time>2023-08-21T12:30:53Z</time>
      </trkpt>
      <trkpt lat="45.61992" lon="6.77122">
        <ele>814.8</ele>
        <time>2023-08-21T12:30:54Z</time>
      </trkpt>
      <trkpt lat="45.61995" lon="6.77126">
        <ele>814.8</ele>
        <time>2023-08-21T12:30:55Z</time>
      </trkpt>
      <trkpt lat="45.61998" lon="6.77129">
        <ele>814.8</ele>
        <time>2023-08-21T12:30:56Z</time>
      </trkpt>
      <trkpt lat="45.62002" lon="6.7713">
        <ele>814.6</ele>
        <time>2023-08-21T12:30:57Z</time>
      </trkpt>
      <trkpt lat="45.62006" lon="6.77131">
        <ele>814.6</ele>
        <time>2023-08-21T12:30:58Z</time>
      </trkpt>
      <trkpt lat="45.62009" lon="6.7713">
        <ele>814.6</ele>
        <time>2023-08-21T12:30:59Z</time>
      </trkpt>
      <trkpt lat="45.62011" lon="6.7713">
        <ele>814.6</ele>
        <time>2023-08-21T12:31:00Z</time>
      </trkpt>
      <trkpt lat="45.62012" lon="6.7713">
        <ele>814.6</ele>
        <time>2023-08-21T12:31:01Z</time>
      </trkpt>
      <trkpt lat="45.62013" lon="6.7713">
        <ele>815</ele>
        <time>2023-08-21T12:31:02Z</time>
      </trkpt>
      <trkpt lat="45.62014" lon="6.77129">
        <ele>815.2</ele>
        <time>2023-08-21T12:31:03Z</time>
      </trkpt>
      <trkpt lat="45.62015" lon="6.77129">
        <ele>815.2</ele>
        <time>2023-08-21T12:31:04Z</time>
      </trkpt>
      <trkpt lat="45.62016" lon="6.77128">
        <ele>815.2</ele>
        <time>2023-08-21T12:31:05Z</time>
      </trkpt>
      <trkpt lat="45.62017" lon="6.77129">
        <ele>814.8</ele>
        <time>2023-08-21T12:31:06Z</time>
      </trkpt>
      <trkpt lat="45.62018" lon="6.77131">
        <ele>814.6</ele>
        <time>2023-08-21T12:31:07Z</time>
      </trkpt>
      <trkpt lat="45.62018" lon="6.77132">
        <ele>814.6</ele>
        <time>2023-08-21T12:31:08Z</time>
      </trkpt>
      <trkpt lat="45.62019" lon="6.77134">
        <ele>814.6</ele>
        <time>2023-08-21T12:31:09Z</time>
      </trkpt>
      <trkpt lat="45.62019" lon="6.77135">
        <ele>814.6</ele>
        <time>2023-08-21T12:31:10Z</time>
      </trkpt>
      <trkpt lat="45.6202" lon="6.77137">
        <ele>814.6</ele>
        <time>2023-08-21T12:31:11Z</time>
      </trkpt>
      <trkpt lat="45.6202" lon="6.77139">
        <ele>814.4</ele>
        <time>2023-08-21T12:31:12Z</time>
      </trkpt>
      <trkpt lat="45.62021" lon="6.77142">
        <ele>814.4</ele>
        <time>2023-08-21T12:31:13Z</time>
      </trkpt>
      <trkpt lat="45.62021" lon="6.77143">
        <ele>814.4</ele>
        <time>2023-08-21T12:31:14Z</time>
      </trkpt>
      <trkpt lat="45.62023" lon="6.77145">
        <ele>814.4</ele>
        <time>2023-08-21T12:31:15Z</time>
      </trkpt>
      <trkpt lat="45.62025" lon="6.77146">
        <ele>814.4</ele>
        <time>2023-08-21T12:31:16Z</time>
      </trkpt>
      <trkpt lat="45.62026" lon="6.77148">
        <ele>814.6</ele>
        <time>2023-08-21T12:31:17Z</time>
      </trkpt>
      <trkpt lat="45.62026" lon="6.7715">
        <ele>814.6</ele>
        <time>2023-08-21T12:31:18Z</time>
      </trkpt>
      <trkpt lat="45.62026" lon="6.77151">
        <ele>814.6</ele>
        <time>2023-08-21T12:31:19Z</time>
      </trkpt>
      <trkpt lat="45.62027" lon="6.77151">
        <ele>814.2</ele>
        <time>2023-08-21T12:31:20Z</time>
      </trkpt>
      <trkpt lat="45.62027" lon="6.77152">
        <ele>814.2</ele>
        <time>2023-08-21T12:31:21Z</time>
      </trkpt>
      <trkpt lat="45.62027" lon="6.77152">
        <ele>814.2</ele>
        <time>2023-08-21T12:31:22Z</time>
      </trkpt>
      <trkpt lat="45.6203" lon="6.77148">
        <ele>813.8</ele>
        <time>2023-08-21T12:31:33Z</time>
      </trkpt>
      <trkpt lat="45.6203" lon="6.77147">
        <ele>813.8</ele>
        <time>2023-08-21T12:31:34Z</time>
      </trkpt>
      <trkpt lat="45.62031" lon="6.77146">
        <ele>813.8</ele>
        <time>2023-08-21T12:31:35Z</time>
      </trkpt>
      <trkpt lat="45.62032" lon="6.77145">
        <ele>813.8</ele>
        <time>2023-08-21T12:31:36Z</time>
      </trkpt>
      <trkpt lat="45.62032" lon="6.77145">
        <ele>813.8</ele>
        <time>2023-08-21T12:31:37Z</time>
      </trkpt>
      <trkpt lat="45.62033" lon="6.77144">
        <ele>814.4</ele>
        <time>2023-08-21T12:31:38Z</time>
      </trkpt>
      <trkpt lat="45.62034" lon="6.77142">
        <ele>814.2</ele>
        <time>2023-08-21T12:31:39Z</time>
      </trkpt>
      <trkpt lat="45.62034" lon="6.77141">
        <ele>814.2</ele>
        <time>2023-08-21T12:31:40Z</time>
      </trkpt>
      <trkpt lat="45.62035" lon="6.77141">
        <ele>814.2</ele>
        <time>2023-08-21T12:31:41Z</time>
      </trkpt>
      <trkpt lat="45.62036" lon="6.7714">
        <ele>814.2</ele>
        <time>2023-08-21T12:31:42Z</time>
      </trkpt>
      <trkpt lat="45.62038" lon="6.7714">
        <ele>814.2</ele>
        <time>2023-08-21T12:31:43Z</time>
      </trkpt>
      <trkpt lat="45.62038" lon="6.77139">
        <ele>814.2</ele>
        <time>2023-08-21T12:31:44Z</time>
      </trkpt>
      <trkpt lat="45.62038" lon="6.77139">
        <ele>814.2</ele>
        <time>2023-08-21T12:31:45Z</time>
      </trkpt>
      <trkpt lat="45.62039" lon="6.77138">
        <ele>814.2</ele>
        <time>2023-08-21T12:31:46Z</time>
      </trkpt>
      <trkpt lat="45.62039" lon="6.77138">
        <ele>814.2</ele>
        <time>2023-08-21T12:31:47Z</time>
      </trkpt>
      <trkpt lat="45.6204" lon="6.77137">
        <ele>814.2</ele>
        <time>2023-08-21T12:31:48Z</time>
      </trkpt>
      <trkpt lat="45.6204" lon="6.77136">
        <ele>814.2</ele>
        <time>2023-08-21T12:31:49Z</time>
      </trkpt>
      <trkpt lat="45.6204" lon="6.77136">
        <ele>814.2</ele>
        <time>2023-08-21T12:31:50Z</time>
      </trkpt>
      <trkpt lat="45.62041" lon="6.77135">
        <ele>814.2</ele>
        <time>2023-08-21T12:31:51Z</time>
      </trkpt>
      <trkpt lat="45.62041" lon="6.77135">
        <ele>814.2</ele>
        <time>2023-08-21T12:31:52Z</time>
      </trkpt>
      <trkpt lat="45.62042" lon="6.77134">
        <ele>814</ele>
        <time>2023-08-21T12:31:53Z</time>
      </trkpt>
      <trkpt lat="45.62042" lon="6.77134">
        <ele>814</ele>
        <time>2023-08-21T12:31:54Z</time>
      </trkpt>
      <trkpt lat="45.62042" lon="6.77133">
        <ele>814</ele>
        <time>2023-08-21T12:31:55Z</time>
      </trkpt>
      <trkpt lat="45.62043" lon="6.77133">
        <ele>814</ele>
        <time>2023-08-21T12:31:56Z</time>
      </trkpt>
      <trkpt lat="45.62043" lon="6.77132">
        <ele>814.2</ele>
        <time>2023-08-21T12:31:57Z</time>
      </trkpt>
      <trkpt lat="45.62044" lon="6.77132">
        <ele>814.2</ele>
        <time>2023-08-21T12:31:58Z</time>
      </trkpt>
      <trkpt lat="45.62044" lon="6.77131">
        <ele>814.2</ele>
        <time>2023-08-21T12:31:59Z</time>
      </trkpt>
      <trkpt lat="45.62044" lon="6.7713">
        <ele>814.2</ele>
        <time>2023-08-21T12:32:00Z</time>
      </trkpt>
      <trkpt lat="45.62045" lon="6.7713">
        <ele>814.2</ele>
        <time>2023-08-21T12:32:01Z</time>
      </trkpt>
      <trkpt lat="45.62045" lon="6.77129">
        <ele>814.2</ele>
        <time>2023-08-21T12:32:02Z</time>
      </trkpt>
      <trkpt lat="45.62046" lon="6.77129">
        <ele>813.8</ele>
        <time>2023-08-21T12:32:03Z</time>
      </trkpt>
      <trkpt lat="45.62046" lon="6.77128">
        <ele>812.2</ele>
        <time>2023-08-21T12:35:31Z</time>
      </trkpt>
      <trkpt lat="45.62046" lon="6.77128">
        <ele>816.6</ele>
        <time>2023-08-21T12:35:32Z</time>
      </trkpt>
      <trkpt lat="45.62043" lon="6.77128">
        <ele>816.6</ele>
        <time>2023-08-21T12:35:33Z</time>
      </trkpt>
      <trkpt lat="45.62038" lon="6.77128">
        <ele>816.6</ele>
        <time>2023-08-21T12:35:34Z</time>
      </trkpt>
      <trkpt lat="45.62036" lon="6.77127">
        <ele>816.6</ele>
        <time>2023-08-21T12:35:35Z</time>
      </trkpt>
      <trkpt lat="45.62035" lon="6.77126">
        <ele>816</ele>
        <time>2023-08-21T12:35:36Z</time>
      </trkpt>
      <trkpt lat="45.62035" lon="6.77125">
        <ele>816</ele>
        <time>2023-08-21T12:35:37Z</time>
      </trkpt>
      <trkpt lat="45.62034" lon="6.77124">
        <ele>816</ele>
        <time>2023-08-21T12:35:38Z</time>
      </trkpt>
      <trkpt lat="45.62032" lon="6.77127">
        <ele>816</ele>
        <time>2023-08-21T12:35:39Z</time>
      </trkpt>
      <trkpt lat="45.6203" lon="6.7713">
        <ele>815</ele>
        <time>2023-08-21T12:35:40Z</time>
      </trkpt>
      <trkpt lat="45.62027" lon="6.77129">
        <ele>815</ele>
        <time>2023-08-21T12:35:41Z</time>
      </trkpt>
      <trkpt lat="45.62026" lon="6.77128">
        <ele>815.2</ele>
        <time>2023-08-21T12:35:42Z</time>
      </trkpt>
      <trkpt lat="45.62025" lon="6.77127">
        <ele>815.2</ele>
        <time>2023-08-21T12:35:43Z</time>
      </trkpt>
      <trkpt lat="45.62024" lon="6.77126">
        <ele>814.2</ele>
        <time>2023-08-21T12:35:44Z</time>
      </trkpt>
      <trkpt lat="45.62022" lon="6.77124">
        <ele>814.2</ele>
        <time>2023-08-21T12:35:45Z</time>
      </trkpt>
      <trkpt lat="45.62021" lon="6.77121">
        <ele>814.4</ele>
        <time>2023-08-21T12:35:46Z</time>
      </trkpt>
      <trkpt lat="45.6202" lon="6.7712">
        <ele>814.4</ele>
        <time>2023-08-21T12:35:47Z</time>
      </trkpt>
      <trkpt lat="45.62019" lon="6.7712">
        <ele>814.4</ele>
        <time>2023-08-21T12:35:48Z</time>
      </trkpt>
      <trkpt lat="45.62018" lon="6.7712">
        <ele>814.4</ele>
        <time>2023-08-21T12:35:49Z</time>
      </trkpt>
      <trkpt lat="45.62018" lon="6.77119">
        <ele>815.2</ele>
        <time>2023-08-21T12:35:50Z</time>
      </trkpt>
      <trkpt lat="45.62017" lon="6.77118">
        <ele>815.2</ele>
        <time>2023-08-21T12:35:51Z</time>
      </trkpt>
      <trkpt lat="45.62017" lon="6.77118">
        <ele>815.2</ele>
        <time>2023-08-21T12:35:52Z</time>
      </trkpt>
      <trkpt lat="45.62017" lon="6.77119">
        <ele>815.2</ele>
        <time>2023-08-21T12:35:53Z</time>
      </trkpt>
      <trkpt lat="45.62016" lon="6.77119">
        <ele>817.8</ele>
        <time>2023-08-21T12:35:54Z</time>
      </trkpt>
      <trkpt lat="45.62015" lon="6.77118">
        <ele>817.8</ele>
        <time>2023-08-21T12:35:55Z</time>
      </trkpt>
      <trkpt lat="45.62014" lon="6.77117">
        <ele>817.8</ele>
        <time>2023-08-21T12:35:56Z</time>
      </trkpt>
      <trkpt lat="45.62014" lon="6.77116">
        <ele>816.8</ele>
        <time>2023-08-21T12:35:57Z</time>
      </trkpt>
      <trkpt lat="45.62013" lon="6.77115">
        <ele>816.8</ele>
        <time>2023-08-21T12:35:58Z</time>
      </trkpt>
      <trkpt lat="45.62012" lon="6.77113">
        <ele>816.8</ele>
        <time>2023-08-21T12:35:59Z</time>
      </trkpt>
      <trkpt lat="45.62011" lon="6.77111">
        <ele>816.8</ele>
        <time>2023-08-21T12:36:00Z</time>
      </trkpt>
      <trkpt lat="45.6201" lon="6.77109">
        <ele>816.8</ele>
        <time>2023-08-21T12:36:01Z</time>
      </trkpt>
      <trkpt lat="45.62009" lon="6.77108">
        <ele>816.6</ele>
        <time>2023-08-21T12:36:02Z</time>
      </trkpt>
      <trkpt lat="45.62008" lon="6.77106">
        <ele>817.2</ele>
        <time>2023-08-21T12:36:03Z</time>
      </trkpt>
      <trkpt lat="45.62008" lon="6.77104">
        <ele>817.2</ele>
        <time>2023-08-21T12:36:04Z</time>
      </trkpt>
      <trkpt lat="45.62007" lon="6.77103">
        <ele>817.2</ele>
        <time>2023-08-21T12:36:05Z</time>
      </trkpt>
      <trkpt lat="45.62006" lon="6.77102">
        <ele>817.2</ele>
        <time>2023-08-21T12:36:06Z</time>
      </trkpt>
      <trkpt lat="45.62005" lon="6.77101">
        <ele>816.2</ele>
        <time>2023-08-21T12:36:07Z</time>
      </trkpt>
      <trkpt lat="45.62003" lon="6.77101">
        <ele>817</ele>
        <time>2023-08-21T12:36:08Z</time>
      </trkpt>
      <trkpt lat="45.62003" lon="6.771">
        <ele>817</ele>
        <time>2023-08-21T12:36:09Z</time>
      </trkpt>
      <trkpt lat="45.62002" lon="6.77101">
        <ele>817</ele>
        <time>2023-08-21T12:36:10Z</time>
      </trkpt>
      <trkpt lat="45.62002" lon="6.77101">
        <ele>817</ele>
        <time>2023-08-21T12:36:11Z</time>
      </trkpt>
      <trkpt lat="45.62002" lon="6.77101">
        <ele>816.2</ele>
        <time>2023-08-21T12:36:12Z</time>
      </trkpt>
      <trkpt lat="45.62002" lon="6.77101">
        <ele>817.6</ele>
        <time>2023-08-21T12:36:13Z</time>
      </trkpt>
      <trkpt lat="45.62" lon="6.77102">
        <ele>817.6</ele>
        <time>2023-08-21T12:36:14Z</time>
      </trkpt>
      <trkpt lat="45.62" lon="6.77102">
        <ele>817.6</ele>
        <time>2023-08-21T12:36:15Z</time>
      </trkpt>
      <trkpt lat="45.61999" lon="6.77102">
        <ele>816.6</ele>
        <time>2023-08-21T12:36:16Z</time>
      </trkpt>
      <trkpt lat="45.61999" lon="6.77102">
        <ele>816.4</ele>
        <time>2023-08-21T12:36:17Z</time>
      </trkpt>
      <trkpt lat="45.61999" lon="6.77102">
        <ele>816.4</ele>
        <time>2023-08-21T12:36:18Z</time>
      </trkpt>
      <trkpt lat="45.61999" lon="6.77102">
        <ele>816.4</ele>
        <time>2023-08-21T12:36:19Z</time>
      </trkpt>
      <trkpt lat="45.61994" lon="6.77098">
        <ele>816.4</ele>
        <time>2023-08-21T12:36:24Z</time>
      </trkpt>
      <trkpt lat="45.61993" lon="6.77097">
        <ele>816.4</ele>
        <time>2023-08-21T12:36:25Z</time>
      </trkpt>
      <trkpt lat="45.61992" lon="6.77095">
        <ele>816.4</ele>
        <time>2023-08-21T12:36:26Z</time>
      </trkpt>
      <trkpt lat="45.61991" lon="6.77093">
        <ele>817</ele>
        <time>2023-08-21T12:36:27Z</time>
      </trkpt>
      <trkpt lat="45.6199" lon="6.77092">
        <ele>817</ele>
        <time>2023-08-21T12:36:28Z</time>
      </trkpt>
      <trkpt lat="45.61988" lon="6.77091">
        <ele>817</ele>
        <time>2023-08-21T12:36:29Z</time>
      </trkpt>
      <trkpt lat="45.61986" lon="6.7709">
        <ele>816</ele>
        <time>2023-08-21T12:36:30Z</time>
      </trkpt>
      <trkpt lat="45.61984" lon="6.77089">
        <ele>816</ele>
        <time>2023-08-21T12:36:31Z</time>
      </trkpt>
      <trkpt lat="45.61983" lon="6.77088">
        <ele>814.2</ele>
        <time>2023-08-21T12:36:32Z</time>
      </trkpt>
      <trkpt lat="45.61982" lon="6.77087">
        <ele>814.2</ele>
        <time>2023-08-21T12:36:33Z</time>
      </trkpt>
      <trkpt lat="45.6198" lon="6.77086">
        <ele>814.2</ele>
        <time>2023-08-21T12:36:34Z</time>
      </trkpt>
      <trkpt lat="45.61979" lon="6.77086">
        <ele>815</ele>
        <time>2023-08-21T12:36:35Z</time>
      </trkpt>
      <trkpt lat="45.61978" lon="6.77085">
        <ele>816.4</ele>
        <time>2023-08-21T12:36:36Z</time>
      </trkpt>
      <trkpt lat="45.61976" lon="6.77085">
        <ele>816.4</ele>
        <time>2023-08-21T12:36:37Z</time>
      </trkpt>
      <trkpt lat="45.61976" lon="6.77084">
        <ele>816.4</ele>
        <time>2023-08-21T12:36:38Z</time>
      </trkpt>
      <trkpt lat="45.61975" lon="6.77084">
        <ele>816.4</ele>
        <time>2023-08-21T12:36:39Z</time>
      </trkpt>
      <trkpt lat="45.61975" lon="6.77083">
        <ele>816.4</ele>
        <time>2023-08-21T12:36:40Z</time>
      </trkpt>
      <trkpt lat="45.61975" lon="6.77081">
        <ele>814.4</ele>
        <time>2023-08-21T12:36:41Z</time>
      </trkpt>
      <trkpt lat="45.61974" lon="6.77079">
        <ele>814.4</ele>
        <time>2023-08-21T12:36:42Z</time>
      </trkpt>
      <trkpt lat="45.61974" lon="6.77079">
        <ele>815.4</ele>
        <time>2023-08-21T12:36:43Z</time>
      </trkpt>
      <trkpt lat="45.61973" lon="6.77079">
        <ele>815.4</ele>
        <time>2023-08-21T12:36:44Z</time>
      </trkpt>
      <trkpt lat="45.61972" lon="6.7708">
        <ele>818</ele>
        <time>2023-08-21T12:36:45Z</time>
      </trkpt>
      <trkpt lat="45.61971" lon="6.7708">
        <ele>818</ele>
        <time>2023-08-21T12:36:46Z</time>
      </trkpt>
      <trkpt lat="45.6197" lon="6.7708">
        <ele>818</ele>
        <time>2023-08-21T12:36:47Z</time>
      </trkpt>
      <trkpt lat="45.61969" lon="6.7708">
        <ele>817</ele>
        <time>2023-08-21T12:36:48Z</time>
      </trkpt>
      <trkpt lat="45.61968" lon="6.77081">
        <ele>815.6</ele>
        <time>2023-08-21T12:36:49Z</time>
      </trkpt>
      <trkpt lat="45.61967" lon="6.77081">
        <ele>815.6</ele>
        <time>2023-08-21T12:36:50Z</time>
      </trkpt>
      <trkpt lat="45.61966" lon="6.77081">
        <ele>815.6</ele>
        <time>2023-08-21T12:36:51Z</time>
      </trkpt>
      <trkpt lat="45.61965" lon="6.77081">
        <ele>815.6</ele>
        <time>2023-08-21T12:36:52Z</time>
      </trkpt>
      <trkpt lat="45.61963" lon="6.77082">
        <ele>816.6</ele>
        <time>2023-08-21T12:36:53Z</time>
      </trkpt>
      <trkpt lat="45.61962" lon="6.77081">
        <ele>816.6</ele>
        <time>2023-08-21T12:36:54Z</time>
      </trkpt>
      <trkpt lat="45.61961" lon="6.77082">
        <ele>816.6</ele>
        <time>2023-08-21T12:36:55Z</time>
      </trkpt>
      <trkpt lat="45.6196" lon="6.77081">
        <ele>816</ele>
        <time>2023-08-21T12:36:56Z</time>
      </trkpt>
      <trkpt lat="45.61958" lon="6.77079">
        <ele>816.8</ele>
        <time>2023-08-21T12:36:57Z</time>
      </trkpt>
      <trkpt lat="45.61957" lon="6.77078">
        <ele>816.8</ele>
        <time>2023-08-21T12:36:58Z</time>
      </trkpt>
      <trkpt lat="45.61956" lon="6.77078">
        <ele>816.8</ele>
        <time>2023-08-21T12:36:59Z</time>
      </trkpt>
      <trkpt lat="45.61954" lon="6.77078">
        <ele>816.8</ele>
        <time>2023-08-21T12:37:00Z</time>
      </trkpt>
      <trkpt lat="45.61952" lon="6.77077">
        <ele>815.8</ele>
        <time>2023-08-21T12:37:01Z</time>
      </trkpt>
      <trkpt lat="45.6195" lon="6.77077">
        <ele>815.4</ele>
        <time>2023-08-21T12:37:02Z</time>
      </trkpt>
      <trkpt lat="45.61949" lon="6.77077">
        <ele>815.4</ele>
        <time>2023-08-21T12:37:03Z</time>
      </trkpt>
      <trkpt lat="45.61948" lon="6.77078">
        <ele>815.4</ele>
        <time>2023-08-21T12:37:04Z</time>
      </trkpt>
      <trkpt lat="45.61948" lon="6.7708">
        <ele>815.4</ele>
        <time>2023-08-21T12:37:05Z</time>
      </trkpt>
      <trkpt lat="45.61947" lon="6.77081">
        <ele>815.4</ele>
        <time>2023-08-21T12:37:06Z</time>
      </trkpt>
      <trkpt lat="45.61947" lon="6.77081">
        <ele>813.8</ele>
        <time>2023-08-21T12:37:07Z</time>
      </trkpt>
      <trkpt lat="45.61947" lon="6.77081">
        <ele>813.8</ele>
        <time>2023-08-21T12:37:08Z</time>
      </trkpt>
      <trkpt lat="45.61946" lon="6.77081">
        <ele>813.8</ele>
        <time>2023-08-21T12:37:09Z</time>
      </trkpt>
      <trkpt lat="45.61945" lon="6.7708">
        <ele>813.8</ele>
        <time>2023-08-21T12:37:10Z</time>
      </trkpt>
      <trkpt lat="45.61944" lon="6.77081">
        <ele>812.4</ele>
        <time>2023-08-21T12:37:11Z</time>
      </trkpt>
      <trkpt lat="45.61943" lon="6.77083">
        <ele>812.4</ele>
        <time>2023-08-21T12:37:12Z</time>
      </trkpt>
      <trkpt lat="45.61942" lon="6.77085">
        <ele>812.4</ele>
        <time>2023-08-21T12:37:13Z</time>
      </trkpt>
      <trkpt lat="45.61942" lon="6.77085">
        <ele>812.4</ele>
        <time>2023-08-21T12:37:14Z</time>
      </trkpt>
      <trkpt lat="45.61942" lon="6.77085">
        <ele>812.4</ele>
        <time>2023-08-21T12:37:15Z</time>
      </trkpt>
      <trkpt lat="45.61935" lon="6.77089">
        <ele>814.4</ele>
        <time>2023-08-21T12:37:19Z</time>
      </trkpt>
      <trkpt lat="45.61932" lon="6.77089">
        <ele>820</ele>
        <time>2023-08-21T12:37:20Z</time>
      </trkpt>
      <trkpt lat="45.61929" lon="6.77088">
        <ele>820</ele>
        <time>2023-08-21T12:37:21Z</time>
      </trkpt>
      <trkpt lat="45.61926" lon="6.77086">
        <ele>820</ele>
        <time>2023-08-21T12:37:22Z</time>
      </trkpt>
      <trkpt lat="45.61924" lon="6.77086">
        <ele>819</ele>
        <time>2023-08-21T12:37:23Z</time>
      </trkpt>
      <trkpt lat="45.61922" lon="6.77085">
        <ele>816</ele>
        <time>2023-08-21T12:37:24Z</time>
      </trkpt>
      <trkpt lat="45.6192" lon="6.77085">
        <ele>816</ele>
        <time>2023-08-21T12:37:25Z</time>
      </trkpt>
      <trkpt lat="45.61917" lon="6.77085">
        <ele>816</ele>
        <time>2023-08-21T12:37:26Z</time>
      </trkpt>
      <trkpt lat="45.61916" lon="6.77085">
        <ele>816</ele>
        <time>2023-08-21T12:37:27Z</time>
      </trkpt>
      <trkpt lat="45.61914" lon="6.77085">
        <ele>816</ele>
        <time>2023-08-21T12:37:28Z</time>
      </trkpt>
      <trkpt lat="45.61913" lon="6.77085">
        <ele>815.8</ele>
        <time>2023-08-21T12:37:29Z</time>
      </trkpt>
      <trkpt lat="45.61912" lon="6.77085">
        <ele>815.8</ele>
        <time>2023-08-21T12:37:30Z</time>
      </trkpt>
      <trkpt lat="45.6191" lon="6.77085">
        <ele>815.8</ele>
        <time>2023-08-21T12:37:31Z</time>
      </trkpt>
      <trkpt lat="45.61908" lon="6.77085">
        <ele>815.8</ele>
        <time>2023-08-21T12:37:32Z</time>
      </trkpt>
      <trkpt lat="45.61907" lon="6.77085">
        <ele>815.6</ele>
        <time>2023-08-21T12:37:33Z</time>
      </trkpt>
      <trkpt lat="45.61905" lon="6.77085">
        <ele>814.2</ele>
        <time>2023-08-21T12:37:34Z</time>
      </trkpt>
      <trkpt lat="45.61904" lon="6.77086">
        <ele>814.2</ele>
        <time>2023-08-21T12:37:35Z</time>
      </trkpt>
      <trkpt lat="45.61902" lon="6.77087">
        <ele>814.2</ele>
        <time>2023-08-21T12:37:36Z</time>
      </trkpt>
      <trkpt lat="45.619" lon="6.77089">
        <ele>814.2</ele>
        <time>2023-08-21T12:37:37Z</time>
      </trkpt>
      <trkpt lat="45.61899" lon="6.7709">
        <ele>813.2</ele>
        <time>2023-08-21T12:37:38Z</time>
      </trkpt>
      <trkpt lat="45.61896" lon="6.77092">
        <ele>811</ele>
        <time>2023-08-21T12:37:39Z</time>
      </trkpt>
      <trkpt lat="45.61895" lon="6.77093">
        <ele>811</ele>
        <time>2023-08-21T12:37:40Z</time>
      </trkpt>
      <trkpt lat="45.61894" lon="6.77093">
        <ele>811</ele>
        <time>2023-08-21T12:37:41Z</time>
      </trkpt>
      <trkpt lat="45.61893" lon="6.77094">
        <ele>811</ele>
        <time>2023-08-21T12:37:42Z</time>
      </trkpt>
      <trkpt lat="45.61892" lon="6.77091">
        <ele>814.6</ele>
        <time>2023-08-21T12:37:43Z</time>
      </trkpt>
      <trkpt lat="45.61891" lon="6.77091">
        <ele>814.6</ele>
        <time>2023-08-21T12:37:44Z</time>
      </trkpt>
      <trkpt lat="45.61891" lon="6.77091">
        <ele>814.6</ele>
        <time>2023-08-21T12:37:45Z</time>
      </trkpt>
      <trkpt lat="45.61893" lon="6.77087">
        <ele>815.6</ele>
        <time>2023-08-21T12:37:46Z</time>
      </trkpt>
      <trkpt lat="45.61891" lon="6.77088">
        <ele>815.6</ele>
        <time>2023-08-21T12:37:47Z</time>
      </trkpt>
      <trkpt lat="45.6189" lon="6.77087">
        <ele>815.6</ele>
        <time>2023-08-21T12:37:48Z</time>
      </trkpt>
      <trkpt lat="45.61889" lon="6.77086">
        <ele>812.6</ele>
        <time>2023-08-21T12:37:49Z</time>
      </trkpt>
      <trkpt lat="45.61888" lon="6.77086">
        <ele>812.6</ele>
        <time>2023-08-21T12:37:50Z</time>
      </trkpt>
      <trkpt lat="45.61886" lon="6.77086">
        <ele>812.6</ele>
        <time>2023-08-21T12:37:51Z</time>
      </trkpt>
      <trkpt lat="45.61886" lon="6.77084">
        <ele>813.6</ele>
        <time>2023-08-21T12:37:52Z</time>
      </trkpt>
      <trkpt lat="45.61886" lon="6.77082">
        <ele>816</ele>
        <time>2023-08-21T12:37:53Z</time>
      </trkpt>
      <trkpt lat="45.61885" lon="6.7708">
        <ele>816</ele>
        <time>2023-08-21T12:37:54Z</time>
      </trkpt>
      <trkpt lat="45.61885" lon="6.77079">
        <ele>816</ele>
        <time>2023-08-21T12:37:55Z</time>
      </trkpt>
      <trkpt lat="45.61884" lon="6.77078">
        <ele>815</ele>
        <time>2023-08-21T12:37:56Z</time>
      </trkpt>
      <trkpt lat="45.61883" lon="6.77075">
        <ele>815</ele>
        <time>2023-08-21T12:37:57Z</time>
      </trkpt>
      <trkpt lat="45.61884" lon="6.77073">
        <ele>815.8</ele>
        <time>2023-08-21T12:37:58Z</time>
      </trkpt>
      <trkpt lat="45.61882" lon="6.77073">
        <ele>815.8</ele>
        <time>2023-08-21T12:37:59Z</time>
      </trkpt>
      <trkpt lat="45.61883" lon="6.7707">
        <ele>815.8</ele>
        <time>2023-08-21T12:38:00Z</time>
      </trkpt>
      <trkpt lat="45.61883" lon="6.77068">
        <ele>815.8</ele>
        <time>2023-08-21T12:38:01Z</time>
      </trkpt>
      <trkpt lat="45.61883" lon="6.77066">
        <ele>815</ele>
        <time>2023-08-21T12:38:02Z</time>
      </trkpt>
      <trkpt lat="45.61882" lon="6.77065">
        <ele>815</ele>
        <time>2023-08-21T12:38:03Z</time>
      </trkpt>
      <trkpt lat="45.61882" lon="6.77064">
        <ele>815</ele>
        <time>2023-08-21T12:38:04Z</time>
      </trkpt>
      <trkpt lat="45.61882" lon="6.77064">
        <ele>815.4</ele>
        <time>2023-08-21T12:38:05Z</time>
      </trkpt>
      <trkpt lat="45.61882" lon="6.77064">
        <ele>815.4</ele>
        <time>2023-08-21T12:38:06Z</time>
      </trkpt>
      <trkpt lat="45.61886" lon="6.771">
        <ele>814</ele>
        <time>2023-08-21T12:38:42Z</time>
      </trkpt>
      <trkpt lat="45.61886" lon="6.77102">
        <ele>814</ele>
        <time>2023-08-21T12:38:43Z</time>
      </trkpt>
      <trkpt lat="45.61887" lon="6.77103">
        <ele>814</ele>
        <time>2023-08-21T12:38:44Z</time>
      </trkpt>
      <trkpt lat="45.61888" lon="6.77103">
        <ele>815</ele>
        <time>2023-08-21T12:38:45Z</time>
      </trkpt>
      <trkpt lat="45.61889" lon="6.77103">
        <ele>815</ele>
        <time>2023-08-21T12:38:46Z</time>
      </trkpt>
      <trkpt lat="45.61891" lon="6.77103">
        <ele>817</ele>
        <time>2023-08-21T12:38:47Z</time>
      </trkpt>
      <trkpt lat="45.61892" lon="6.77102">
        <ele>817</ele>
        <time>2023-08-21T12:38:48Z</time>
      </trkpt>
      <trkpt lat="45.61893" lon="6.77102">
        <ele>817</ele>
        <time>2023-08-21T12:38:49Z</time>
      </trkpt>
      <trkpt lat="45.61894" lon="6.77103">
        <ele>817</ele>
        <time>2023-08-21T12:38:50Z</time>
      </trkpt>
      <trkpt lat="45.61895" lon="6.77102">
        <ele>819.4</ele>
        <time>2023-08-21T12:38:51Z</time>
      </trkpt>
      <trkpt lat="45.61896" lon="6.77103">
        <ele>819.4</ele>
        <time>2023-08-21T12:38:52Z</time>
      </trkpt>
      <trkpt lat="45.61896" lon="6.77103">
        <ele>819.4</ele>
        <time>2023-08-21T12:38:53Z</time>
      </trkpt>
      <trkpt lat="45.61897" lon="6.77104">
        <ele>819.4</ele>
        <time>2023-08-21T12:38:54Z</time>
      </trkpt>
      <trkpt lat="45.61897" lon="6.77105">
        <ele>818.4</ele>
        <time>2023-08-21T12:38:55Z</time>
      </trkpt>
      <trkpt lat="45.61898" lon="6.77105">
        <ele>812</ele>
        <time>2023-08-21T12:38:56Z</time>
      </trkpt>
      <trkpt lat="45.61899" lon="6.77106">
        <ele>812</ele>
        <time>2023-08-21T12:38:57Z</time>
      </trkpt>
      <trkpt lat="45.61899" lon="6.77106">
        <ele>812</ele>
        <time>2023-08-21T12:38:58Z</time>
      </trkpt>
      <trkpt lat="45.619" lon="6.77108">
        <ele>812</ele>
        <time>2023-08-21T12:38:59Z</time>
      </trkpt>
      <trkpt lat="45.61901" lon="6.77108">
        <ele>818.4</ele>
        <time>2023-08-21T12:39:00Z</time>
      </trkpt>
      <trkpt lat="45.61902" lon="6.77108">
        <ele>818.4</ele>
        <time>2023-08-21T12:39:01Z</time>
      </trkpt>
      <trkpt lat="45.61903" lon="6.77108">
        <ele>818.4</ele>
        <time>2023-08-21T12:39:02Z</time>
      </trkpt>
      <trkpt lat="45.61903" lon="6.77109">
        <ele>818.4</ele>
        <time>2023-08-21T12:39:03Z</time>
      </trkpt>
      <trkpt lat="45.61904" lon="6.77109">
        <ele>818.2</ele>
        <time>2023-08-21T12:39:04Z</time>
      </trkpt>
      <trkpt lat="45.61905" lon="6.77109">
        <ele>814.4</ele>
        <time>2023-08-21T12:39:05Z</time>
      </trkpt>
      <trkpt lat="45.61907" lon="6.77109">
        <ele>814.4</ele>
        <time>2023-08-21T12:39:06Z</time>
      </trkpt>
      <trkpt lat="45.61908" lon="6.77109">
        <ele>814.4</ele>
        <time>2023-08-21T12:39:07Z</time>
      </trkpt>
      <trkpt lat="45.61909" lon="6.7711">
        <ele>814.4</ele>
        <time>2023-08-21T12:39:08Z</time>
      </trkpt>
      <trkpt lat="45.6191" lon="6.7711">
        <ele>815.6</ele>
        <time>2023-08-21T12:39:09Z</time>
      </trkpt>
      <trkpt lat="45.61911" lon="6.7711">
        <ele>815.6</ele>
        <time>2023-08-21T12:39:10Z</time>
      </trkpt>
      <trkpt lat="45.61911" lon="6.7711">
        <ele>815.6</ele>
        <time>2023-08-21T12:39:11Z</time>
      </trkpt>
      <trkpt lat="45.61912" lon="6.7711">
        <ele>815.6</ele>
        <time>2023-08-21T12:39:12Z</time>
      </trkpt>
      <trkpt lat="45.61914" lon="6.7711">
        <ele>815.4</ele>
        <time>2023-08-21T12:39:13Z</time>
      </trkpt>
      <trkpt lat="45.61915" lon="6.7711">
        <ele>815.4</ele>
        <time>2023-08-21T12:39:14Z</time>
      </trkpt>
      <trkpt lat="45.61916" lon="6.7711">
        <ele>815.4</ele>
        <time>2023-08-21T12:39:15Z</time>
      </trkpt>
      <trkpt lat="45.61917" lon="6.77111">
        <ele>815.4</ele>
        <time>2023-08-21T12:39:16Z</time>
      </trkpt>
      <trkpt lat="45.61918" lon="6.77111">
        <ele>815.4</ele>
        <time>2023-08-21T12:39:17Z</time>
      </trkpt>
      <trkpt lat="45.61919" lon="6.77111">
        <ele>815.4</ele>
        <time>2023-08-21T12:39:18Z</time>
      </trkpt>
      <trkpt lat="45.6192" lon="6.77112">
        <ele>813.8</ele>
        <time>2023-08-21T12:39:19Z</time>
      </trkpt>
      <trkpt lat="45.61921" lon="6.77112">
        <ele>813.8</ele>
        <time>2023-08-21T12:39:20Z</time>
      </trkpt>
      <trkpt lat="45.61922" lon="6.77112">
        <ele>813.8</ele>
        <time>2023-08-21T12:39:21Z</time>
      </trkpt>
      <trkpt lat="45.61923" lon="6.77113">
        <ele>813.8</ele>
        <time>2023-08-21T12:39:22Z</time>
      </trkpt>
      <trkpt lat="45.61924" lon="6.77113">
        <ele>813.8</ele>
        <time>2023-08-21T12:39:23Z</time>
      </trkpt>
      <trkpt lat="45.61926" lon="6.77114">
        <ele>815</ele>
        <time>2023-08-21T12:39:24Z</time>
      </trkpt>
      <trkpt lat="45.61926" lon="6.77114">
        <ele>815</ele>
        <time>2023-08-21T12:39:25Z</time>
      </trkpt>
      <trkpt lat="45.61928" lon="6.77114">
        <ele>815.2</ele>
        <time>2023-08-21T12:39:26Z</time>
      </trkpt>
      <trkpt lat="45.61929" lon="6.77114">
        <ele>816</ele>
        <time>2023-08-21T12:39:27Z</time>
      </trkpt>
      <trkpt lat="45.6193" lon="6.77115">
        <ele>816</ele>
        <time>2023-08-21T12:39:28Z</time>
      </trkpt>
      <trkpt lat="45.61932" lon="6.77115">
        <ele>816</ele>
        <time>2023-08-21T12:39:29Z</time>
      </trkpt>
      <trkpt lat="45.61933" lon="6.77115">
        <ele>816</ele>
        <time>2023-08-21T12:39:30Z</time>
      </trkpt>
      <trkpt lat="45.61934" lon="6.77116">
        <ele>817</ele>
        <time>2023-08-21T12:39:31Z</time>
      </trkpt>
      <trkpt lat="45.61935" lon="6.77117">
        <ele>815.2</ele>
        <time>2023-08-21T12:39:32Z</time>
      </trkpt>
      <trkpt lat="45.61937" lon="6.77118">
        <ele>815.2</ele>
        <time>2023-08-21T12:39:33Z</time>
      </trkpt>
      <trkpt lat="45.61939" lon="6.77119">
        <ele>815.2</ele>
        <time>2023-08-21T12:39:34Z</time>
      </trkpt>
      <trkpt lat="45.6194" lon="6.7712">
        <ele>815.2</ele>
        <time>2023-08-21T12:39:35Z</time>
      </trkpt>
      <trkpt lat="45.61941" lon="6.77121">
        <ele>815</ele>
        <time>2023-08-21T12:39:36Z</time>
      </trkpt>
      <trkpt lat="45.61942" lon="6.77122">
        <ele>815</ele>
        <time>2023-08-21T12:39:37Z</time>
      </trkpt>
      <trkpt lat="45.61943" lon="6.77123">
        <ele>815</ele>
        <time>2023-08-21T12:39:38Z</time>
      </trkpt>
      <trkpt lat="45.61944" lon="6.77124">
        <ele>815</ele>
        <time>2023-08-21T12:39:39Z</time>
      </trkpt>
      <trkpt lat="45.61946" lon="6.77124">
        <ele>815</ele>
        <time>2023-08-21T12:39:40Z</time>
      </trkpt>
      <trkpt lat="45.61947" lon="6.77125">
        <ele>816.6</ele>
        <time>2023-08-21T12:39:41Z</time>
      </trkpt>
      <trkpt lat="45.61948" lon="6.77126">
        <ele>816.6</ele>
        <time>2023-08-21T12:39:42Z</time>
      </trkpt>
      <trkpt lat="45.61949" lon="6.77127">
        <ele>816.6</ele>
        <time>2023-08-21T12:39:43Z</time>
      </trkpt>
      <trkpt lat="45.6195" lon="6.77128">
        <ele>816.6</ele>
        <time>2023-08-21T12:39:44Z</time>
      </trkpt>
      <trkpt lat="45.61952" lon="6.77128">
        <ele>815.2</ele>
        <time>2023-08-21T12:39:45Z</time>
      </trkpt>
      <trkpt lat="45.61954" lon="6.77128">
        <ele>815.2</ele>
        <time>2023-08-21T12:39:46Z</time>
      </trkpt>
      <trkpt lat="45.61955" lon="6.77129">
        <ele>815.2</ele>
        <time>2023-08-21T12:39:47Z</time>
      </trkpt>
      <trkpt lat="45.61957" lon="6.7713">
        <ele>815.2</ele>
        <time>2023-08-21T12:39:48Z</time>
      </trkpt>
      <trkpt lat="45.61958" lon="6.7713">
        <ele>815.2</ele>
        <time>2023-08-21T12:39:49Z</time>
      </trkpt>
      <trkpt lat="45.61959" lon="6.77131">
        <ele>814.6</ele>
        <time>2023-08-21T12:39:50Z</time>
      </trkpt>
      <trkpt lat="45.61961" lon="6.77131">
        <ele>814.6</ele>
        <time>2023-08-21T12:39:51Z</time>
      </trkpt>
      <trkpt lat="45.61962" lon="6.77131">
        <ele>814.6</ele>
        <time>2023-08-21T12:39:52Z</time>
      </trkpt>
      <trkpt lat="45.61963" lon="6.77132">
        <ele>814.6</ele>
        <time>2023-08-21T12:39:53Z</time>
      </trkpt>
      <trkpt lat="45.61964" lon="6.77133">
        <ele>814.6</ele>
        <time>2023-08-21T12:39:54Z</time>
      </trkpt>
      <trkpt lat="45.61965" lon="6.77133">
        <ele>814.6</ele>
        <time>2023-08-21T12:39:55Z</time>
      </trkpt>
      <trkpt lat="45.61965" lon="6.77133">
        <ele>814.6</ele>
        <time>2023-08-21T12:39:56Z</time>
      </trkpt>
      <trkpt lat="45.61965" lon="6.77133">
        <ele>814.6</ele>
        <time>2023-08-21T12:39:57Z</time>
      </trkpt>
      <trkpt lat="45.6197" lon="6.77137">
        <ele>815</ele>
        <time>2023-08-21T12:40:02Z</time>
      </trkpt>
      <trkpt lat="45.61971" lon="6.77138">
        <ele>814</ele>
        <time>2023-08-21T12:40:03Z</time>
      </trkpt>
      <trkpt lat="45.61972" lon="6.77139">
        <ele>814</ele>
        <time>2023-08-21T12:40:04Z</time>
      </trkpt>
      <trkpt lat="45.61974" lon="6.77139">
        <ele>814</ele>
        <time>2023-08-21T12:40:05Z</time>
      </trkpt>
      <trkpt lat="45.61975" lon="6.7714">
        <ele>815</ele>
        <time>2023-08-21T12:40:06Z</time>
      </trkpt>
      <trkpt lat="45.61978" lon="6.7714">
        <ele>815.2</ele>
        <time>2023-08-21T12:40:07Z</time>
      </trkpt>
      <trkpt lat="45.6198" lon="6.77141">
        <ele>815.2</ele>
        <time>2023-08-21T12:40:08Z</time>
      </trkpt>
      <trkpt lat="45.61982" lon="6.77141">
        <ele>815.2</ele>
        <time>2023-08-21T12:40:09Z</time>
      </trkpt>
      <trkpt lat="45.61984" lon="6.77142">
        <ele>815.2</ele>
        <time>2023-08-21T12:40:10Z</time>
      </trkpt>
      <trkpt lat="45.61983" lon="6.77145">
        <ele>815.2</ele>
        <time>2023-08-21T12:40:11Z</time>
      </trkpt>
      <trkpt lat="45.61984" lon="6.77146">
        <ele>815</ele>
        <time>2023-08-21T12:40:12Z</time>
      </trkpt>
      <trkpt lat="45.61987" lon="6.77147">
        <ele>815</ele>
        <time>2023-08-21T12:40:13Z</time>
      </trkpt>
      <trkpt lat="45.61989" lon="6.77148">
        <ele>815</ele>
        <time>2023-08-21T12:40:14Z</time>
      </trkpt>
      <trkpt lat="45.6199" lon="6.77149">
        <ele>815</ele>
        <time>2023-08-21T12:40:15Z</time>
      </trkpt>
      <trkpt lat="45.61992" lon="6.77149">
        <ele>815</ele>
        <time>2023-08-21T12:40:16Z</time>
      </trkpt>
      <trkpt lat="45.61994" lon="6.7715">
        <ele>815</ele>
        <time>2023-08-21T12:40:17Z</time>
      </trkpt>
      <trkpt lat="45.61995" lon="6.7715">
        <ele>815</ele>
        <time>2023-08-21T12:40:18Z</time>
      </trkpt>
      <trkpt lat="45.61997" lon="6.7715">
        <ele>815</ele>
        <time>2023-08-21T12:40:19Z</time>
      </trkpt>
      <trkpt lat="45.61999" lon="6.7715">
        <ele>815</ele>
        <time>2023-08-21T12:40:20Z</time>
      </trkpt>
      <trkpt lat="45.62" lon="6.7715">
        <ele>816.8</ele>
        <time>2023-08-21T12:40:21Z</time>
      </trkpt>
      <trkpt lat="45.62001" lon="6.77149">
        <ele>816.8</ele>
        <time>2023-08-21T12:40:22Z</time>
      </trkpt>
      <trkpt lat="45.62003" lon="6.77149">
        <ele>816.8</ele>
        <time>2023-08-21T12:40:23Z</time>
      </trkpt>
      <trkpt lat="45.62003" lon="6.77149">
        <ele>816.8</ele>
        <time>2023-08-21T12:40:24Z</time>
      </trkpt>
      <trkpt lat="45.62004" lon="6.77148">
        <ele>815.8</ele>
        <time>2023-08-21T12:40:25Z</time>
      </trkpt>
      <trkpt lat="45.62004" lon="6.77148">
        <ele>815.8</ele>
        <time>2023-08-21T12:40:26Z</time>
      </trkpt>
      <trkpt lat="45.62006" lon="6.77147">
        <ele>815.8</ele>
        <time>2023-08-21T12:40:27Z</time>
      </trkpt>
      <trkpt lat="45.62007" lon="6.77146">
        <ele>815.8</ele>
        <time>2023-08-21T12:40:28Z</time>
      </trkpt>
      <trkpt lat="45.62009" lon="6.77145">
        <ele>815.8</ele>
        <time>2023-08-21T12:40:29Z</time>
      </trkpt>
      <trkpt lat="45.6201" lon="6.77145">
        <ele>815.8</ele>
        <time>2023-08-21T12:40:30Z</time>
      </trkpt>
      <trkpt lat="45.62012" lon="6.77144">
        <ele>817.8</ele>
        <time>2023-08-21T12:40:31Z</time>
      </trkpt>
      <trkpt lat="45.62013" lon="6.77143">
        <ele>817.8</ele>
        <time>2023-08-21T12:40:32Z</time>
      </trkpt>
      <trkpt lat="45.62013" lon="6.77143">
        <ele>817.8</ele>
        <time>2023-08-21T12:40:33Z</time>
      </trkpt>
      <trkpt lat="45.62013" lon="6.77144">
        <ele>817.6</ele>
        <time>2023-08-21T12:40:34Z</time>
      </trkpt>
      <trkpt lat="45.62013" lon="6.77145">
        <ele>817.6</ele>
        <time>2023-08-21T12:40:35Z</time>
      </trkpt>
      <trkpt lat="45.62012" lon="6.77145">
        <ele>816.6</ele>
        <time>2023-08-21T12:40:36Z</time>
      </trkpt>
      <trkpt lat="45.62015" lon="6.77145">
        <ele>816.6</ele>
        <time>2023-08-21T12:40:37Z</time>
      </trkpt>
      <trkpt lat="45.62015" lon="6.77145">
        <ele>816.6</ele>
        <time>2023-08-21T12:40:38Z</time>
      </trkpt>
      <trkpt lat="45.62016" lon="6.77146">
        <ele>814.8</ele>
        <time>2023-08-21T12:40:56Z</time>
      </trkpt>
      <trkpt lat="45.62017" lon="6.77146">
        <ele>815.8</ele>
        <time>2023-08-21T12:40:57Z</time>
      </trkpt>
      <trkpt lat="45.62019" lon="6.77149">
        <ele>818.6</ele>
        <time>2023-08-21T12:40:58Z</time>
      </trkpt>
      <trkpt lat="45.62019" lon="6.77149">
        <ele>818.6</ele>
        <time>2023-08-21T12:40:59Z</time>
      </trkpt>
      <trkpt lat="45.62019" lon="6.77149">
        <ele>818.6</ele>
        <time>2023-08-21T12:41:00Z</time>
      </trkpt>
      <trkpt lat="45.62053" lon="6.77143">
        <ele>815.8</ele>
        <time>2023-08-21T12:42:03Z</time>
      </trkpt>
      <trkpt lat="45.62054" lon="6.77143">
        <ele>815.8</ele>
        <time>2023-08-21T12:42:04Z</time>
      </trkpt>
      <trkpt lat="45.62054" lon="6.77143">
        <ele>815.8</ele>
        <time>2023-08-21T12:42:05Z</time>
      </trkpt>
      <trkpt lat="45.62054" lon="6.77142">
        <ele>815.8</ele>
        <time>2023-08-21T12:42:06Z</time>
      </trkpt>
    </trkseg>
  </trk>
</gpx>